<?xml version='1.0' encoding='UTF-8'?><gpx version="1.1" creator="JPX - https://github.com/jenetics/jpx" xmlns="http://www.topografix.com/GPX/1/1"><trk><trkseg><trkpt lat="38.89222062387591" lon="-9.267245550941984"><ele>245.0</ele><time>2026-04-03T08:37:44Z</time></trkpt><trkpt lat="38.89211469046554" lon="-9.267196249564423"><ele>245.0</ele><time>2026-04-03T08:37:46Z</time></trkpt><trkpt lat="38.89203109170128" lon="-9.267120165902426"><ele>245.0</ele><time>2026-04-03T08:37:48Z</time></trkpt><trkpt lat="38.89197273214116" lon="-9.267035180940779"><ele>245.0</ele><time>2026-04-03T08:37:50Z</time></trkpt><trkpt lat="38.89189136905137" lon="-9.266958265291938"><ele>245.0</ele><time>2026-04-03T08:37:52Z</time></trkpt><trkpt lat="38.891804337904766" lon="-9.266876363509734"><ele>244.2</ele><time>2026-04-03T08:37:54Z</time></trkpt><trkpt lat="38.89170243702515" lon="-9.266794110071608"><ele>243.4</ele><time>2026-04-03T08:37:56Z</time></trkpt><trkpt lat="38.89162007161349" lon="-9.266683915463629"><ele>242.60000000000002</ele><time>2026-04-03T08:37:58Z</time></trkpt><trkpt lat="38.89157584337829" lon="-9.266621236289609"><ele>241.8</ele><time>2026-04-03T08:37:59Z</time></trkpt><trkpt lat="38.89150868646099" lon="-9.26651749991696"><ele>241.0</ele><time>2026-04-03T08:38:01Z</time></trkpt><trkpt lat="38.891430073686315" lon="-9.266429451339766"><ele>241.0</ele><time>2026-04-03T08:38:03Z</time></trkpt><trkpt lat="38.89132821116264" lon="-9.26636016657956"><ele>241.00000000000003</ele><time>2026-04-03T08:38:05Z</time></trkpt><trkpt lat="38.89127660549225" lon="-9.266295700652643"><ele>241.00000000000003</ele><time>2026-04-03T08:38:06Z</time></trkpt><trkpt lat="38.891206377093184" lon="-9.266181415546107"><ele>241.0</ele><time>2026-04-03T08:38:08Z</time></trkpt><trkpt lat="38.891138959298424" lon="-9.266079937116604"><ele>241.0</ele><time>2026-04-03T08:38:10Z</time></trkpt><trkpt lat="38.89108519069456" lon="-9.2659543238735"><ele>241.0</ele><time>2026-04-03T08:38:12Z</time></trkpt><trkpt lat="38.89101491996656" lon="-9.265834124962984"><ele>241.00000000000003</ele><time>2026-04-03T08:38:14Z</time></trkpt><trkpt lat="38.89095945907336" lon="-9.265727273788002"><ele>241.00000000000003</ele><time>2026-04-03T08:38:16Z</time></trkpt><trkpt lat="38.890896294201895" lon="-9.265617518217383"><ele>241.0</ele><time>2026-04-03T08:38:18Z</time></trkpt><trkpt lat="38.89082840947281" lon="-9.265488195038067"><ele>241.0</ele><time>2026-04-03T08:38:20Z</time></trkpt><trkpt lat="38.89082204337236" lon="-9.26539134183526"><ele>239.8</ele><time>2026-04-03T08:38:21Z</time></trkpt><trkpt lat="38.89081876641944" lon="-9.265257438492787"><ele>238.60000000000002</ele><time>2026-04-03T08:38:23Z</time></trkpt><trkpt lat="38.890766181477225" lon="-9.265172981633203"><ele>237.4</ele><time>2026-04-03T08:38:25Z</time></trkpt><trkpt lat="38.89068897899385" lon="-9.265081268034882"><ele>236.2</ele><time>2026-04-03T08:38:27Z</time></trkpt><trkpt lat="38.89064978565953" lon="-9.26501485209185"><ele>235.0</ele><time>2026-04-03T08:38:28Z</time></trkpt><trkpt lat="38.89056810058348" lon="-9.264895581989414"><ele>235.0</ele><time>2026-04-03T08:38:30Z</time></trkpt><trkpt lat="38.890467386127995" lon="-9.264818169199808"><ele>235.0</ele><time>2026-04-03T08:38:32Z</time></trkpt><trkpt lat="38.89039551502454" lon="-9.264802526532408"><ele>235.0</ele><time>2026-04-03T08:38:33Z</time></trkpt><trkpt lat="38.89032611315459" lon="-9.264820641608642"><ele>235.0</ele><time>2026-04-03T08:38:34Z</time></trkpt><trkpt lat="38.89019911116891" lon="-9.264839667973316"><ele>235.0</ele><time>2026-04-03T08:38:36Z</time></trkpt><trkpt lat="38.89013357086924" lon="-9.264811029220166"><ele>235.66666666666666</ele><time>2026-04-03T08:38:37Z</time></trkpt><trkpt lat="38.89006712999789" lon="-9.264753359263548"><ele>236.33333333333331</ele><time>2026-04-03T08:38:38Z</time></trkpt><trkpt lat="38.890011926337635" lon="-9.264676991687837"><ele>237.0</ele><time>2026-04-03T08:38:39Z</time></trkpt><trkpt lat="38.88995383208956" lon="-9.264637572901396"><ele>237.66666666666669</ele><time>2026-04-03T08:38:40Z</time></trkpt><trkpt lat="38.88989239872723" lon="-9.264608628297827"><ele>238.33333333333334</ele><time>2026-04-03T08:38:41Z</time></trkpt><trkpt lat="38.88978440798527" lon="-9.26456644770244"><ele>239.0</ele><time>2026-04-03T08:38:43Z</time></trkpt><trkpt lat="38.88969038628255" lon="-9.264561238137194"><ele>239.0</ele><time>2026-04-03T08:38:45Z</time></trkpt><trkpt lat="38.88962907880422" lon="-9.264582283239907"><ele>238.99999999999997</ele><time>2026-04-03T08:38:46Z</time></trkpt><trkpt lat="38.88954737925389" lon="-9.264549367933473"><ele>238.99999999999997</ele><time>2026-04-03T08:38:48Z</time></trkpt><trkpt lat="38.889530137017694" lon="-9.26441292127952"><ele>239.0</ele><time>2026-04-03T08:38:50Z</time></trkpt><trkpt lat="38.88952404565123" lon="-9.26428575415493"><ele>239.0</ele><time>2026-04-03T08:38:52Z</time></trkpt><trkpt lat="38.88948991348303" lon="-9.264173297820369"><ele>239.0</ele><time>2026-04-03T08:38:54Z</time></trkpt><trkpt lat="38.88941639065689" lon="-9.264166046714053"><ele>238.99999999999997</ele><time>2026-04-03T08:38:56Z</time></trkpt><trkpt lat="38.88929535586352" lon="-9.264155151477842"><ele>238.99999999999997</ele><time>2026-04-03T08:38:58Z</time></trkpt><trkpt lat="38.88920306672882" lon="-9.264165144000929"><ele>239.0</ele><time>2026-04-03T08:38:59Z</time></trkpt><trkpt lat="38.88911959709824" lon="-9.264183912235838"><ele>239.0</ele><time>2026-04-03T08:39:00Z</time></trkpt><trkpt lat="38.8890340668919" lon="-9.264211096072298"><ele>237.0</ele><time>2026-04-03T08:39:01Z</time></trkpt><trkpt lat="38.888954879579394" lon="-9.264211451285707"><ele>234.99999999999997</ele><time>2026-04-03T08:39:02Z</time></trkpt><trkpt lat="38.88882761703937" lon="-9.264231404886935"><ele>232.99999999999997</ele><time>2026-04-03T08:39:04Z</time></trkpt><trkpt lat="38.888766294914056" lon="-9.264202130420777"><ele>231.0</ele><time>2026-04-03T08:39:05Z</time></trkpt><trkpt lat="38.88864512288137" lon="-9.26416908914711"><ele>229.0</ele><time>2026-04-03T08:39:07Z</time></trkpt><trkpt lat="38.888577220072854" lon="-9.26416049440619"><ele>229.0</ele><time>2026-04-03T08:39:08Z</time></trkpt><trkpt lat="38.888510408498064" lon="-9.264118901962526"><ele>229.0</ele><time>2026-04-03T08:39:09Z</time></trkpt><trkpt lat="38.88847090485759" lon="-9.264054124173636"><ele>229.0</ele><time>2026-04-03T08:39:10Z</time></trkpt><trkpt lat="38.88842978319179" lon="-9.26398060474978"><ele>229.0</ele><time>2026-04-03T08:39:11Z</time></trkpt><trkpt lat="38.88839510311382" lon="-9.263892948494016"><ele>229.0</ele><time>2026-04-03T08:39:12Z</time></trkpt><trkpt lat="38.888372743280236" lon="-9.263804333353523"><ele>229.0</ele><time>2026-04-03T08:39:13Z</time></trkpt><trkpt lat="38.88834745048196" lon="-9.263727841526343"><ele>229.0</ele><time>2026-04-03T08:39:14Z</time></trkpt><trkpt lat="38.88827045271924" lon="-9.263615100573343"><ele>228.83333333333331</ele><time>2026-04-03T08:39:16Z</time></trkpt><trkpt lat="38.88823939310526" lon="-9.263544231129035"><ele>228.66666666666666</ele><time>2026-04-03T08:39:17Z</time></trkpt><trkpt lat="38.88815512683623" lon="-9.263410518739676"><ele>228.5</ele><time>2026-04-03T08:39:19Z</time></trkpt><trkpt lat="38.88811076120754" lon="-9.263326321960061"><ele>228.33333333333331</ele><time>2026-04-03T08:39:20Z</time></trkpt><trkpt lat="38.888097428104786" lon="-9.263214957770124"><ele>228.16666666666666</ele><time>2026-04-03T08:39:21Z</time></trkpt><trkpt lat="38.88805733384676" lon="-9.263120434723175"><ele>228.0</ele><time>2026-04-03T08:39:22Z</time></trkpt><trkpt lat="38.888012692826756" lon="-9.263063218710922"><ele>228.0</ele><time>2026-04-03T08:39:23Z</time></trkpt><trkpt lat="38.887867107432015" lon="-9.263049610719866"><ele>228.0</ele><time>2026-04-03T08:39:25Z</time></trkpt><trkpt lat="38.88777862911354" lon="-9.263086404771999"><ele>228.0</ele><time>2026-04-03T08:39:26Z</time></trkpt><trkpt lat="38.88771087267003" lon="-9.263110542167315"><ele>228.0</ele><time>2026-04-03T08:39:27Z</time></trkpt><trkpt lat="38.887616495798326" lon="-9.263125251282013"><ele>228.0</ele><time>2026-04-03T08:39:29Z</time></trkpt><trkpt lat="38.88753682276064" lon="-9.263077720927315"><ele>225.60000000000002</ele><time>2026-04-03T08:39:31Z</time></trkpt><trkpt lat="38.887466541528866" lon="-9.263157919653171"><ele>223.20000000000002</ele><time>2026-04-03T08:39:32Z</time></trkpt><trkpt lat="38.887425950150565" lon="-9.263237425027722"><ele>220.8</ele><time>2026-04-03T08:39:33Z</time></trkpt><trkpt lat="38.8873422016149" lon="-9.263341930873027"><ele>218.4</ele><time>2026-04-03T08:39:35Z</time></trkpt><trkpt lat="38.88729252855323" lon="-9.263398764394227"><ele>216.0</ele><time>2026-04-03T08:39:36Z</time></trkpt><trkpt lat="38.88720272766018" lon="-9.263460907188362"><ele>216.0</ele><time>2026-04-03T08:39:38Z</time></trkpt><trkpt lat="38.88708480047937" lon="-9.263447181092824"><ele>216.00000000000003</ele><time>2026-04-03T08:39:40Z</time></trkpt><trkpt lat="38.8870431702577" lon="-9.263364381993222"><ele>216.00000000000003</ele><time>2026-04-03T08:39:41Z</time></trkpt><trkpt lat="38.88695106400969" lon="-9.263291742409528"><ele>216.0</ele><time>2026-04-03T08:39:43Z</time></trkpt><trkpt lat="38.88694373777148" lon="-9.263147020942005"><ele>216.0</ele><time>2026-04-03T08:39:45Z</time></trkpt><trkpt lat="38.886997810027545" lon="-9.263020550247143"><ele>215.66666666666669</ele><time>2026-04-03T08:39:46Z</time></trkpt><trkpt lat="38.887096102604175" lon="-9.262890197795496"><ele>215.33333333333334</ele><time>2026-04-03T08:39:47Z</time></trkpt><trkpt lat="38.88720665311585" lon="-9.26273765374128"><ele>215.0</ele><time>2026-04-03T08:39:48Z</time></trkpt><trkpt lat="38.887319520801405" lon="-9.262576165079247"><ele>215.0</ele><time>2026-04-03T08:39:49Z</time></trkpt><trkpt lat="38.88743910661796" lon="-9.262406815927028"><ele>215.0</ele><time>2026-04-03T08:39:50Z</time></trkpt><trkpt lat="38.88757513970341" lon="-9.2622404915546"><ele>215.0</ele><time>2026-04-03T08:39:51Z</time></trkpt><trkpt lat="38.887726471411256" lon="-9.262077263778771"><ele>216.66666666666669</ele><time>2026-04-03T08:39:52Z</time></trkpt><trkpt lat="38.887889067649645" lon="-9.261926347632215"><ele>218.33333333333331</ele><time>2026-04-03T08:39:53Z</time></trkpt><trkpt lat="38.88806177564493" lon="-9.261781800992736"><ele>220.0</ele><time>2026-04-03T08:39:54Z</time></trkpt><trkpt lat="38.888245206730495" lon="-9.261649021427948"><ele>220.33333333333331</ele><time>2026-04-03T08:39:55Z</time></trkpt><trkpt lat="38.88844749032804" lon="-9.261535151864766"><ele>220.66666666666669</ele><time>2026-04-03T08:39:56Z</time></trkpt><trkpt lat="38.88865560388404" lon="-9.26142872513827"><ele>221.0</ele><time>2026-04-03T08:39:57Z</time></trkpt><trkpt lat="38.88887082326678" lon="-9.261325450990444"><ele>221.0</ele><time>2026-04-03T08:39:58Z</time></trkpt><trkpt lat="38.88905780197797" lon="-9.261245652713722"><ele>221.0</ele><time>2026-04-03T08:39:59Z</time></trkpt><trkpt lat="38.88922141724909" lon="-9.261182949838771"><ele>221.0</ele><time>2026-04-03T08:40:00Z</time></trkpt><trkpt lat="38.88940320795228" lon="-9.261150214570732"><ele>221.0</ele><time>2026-04-03T08:40:01Z</time></trkpt><trkpt lat="38.88960555840793" lon="-9.26112162646291"><ele>221.0</ele><time>2026-04-03T08:40:02Z</time></trkpt><trkpt lat="38.88981404832569" lon="-9.261101947132914"><ele>221.0</ele><time>2026-04-03T08:40:03Z</time></trkpt><trkpt lat="38.8900094841304" lon="-9.261085826336787"><ele>222.33333333333334</ele><time>2026-04-03T08:40:04Z</time></trkpt><trkpt lat="38.89021244113658" lon="-9.261068524305369"><ele>223.66666666666669</ele><time>2026-04-03T08:40:05Z</time></trkpt><trkpt lat="38.890390535853314" lon="-9.261050230764873"><ele>225.0</ele><time>2026-04-03T08:40:06Z</time></trkpt><trkpt lat="38.89056185427491" lon="-9.26103977399006"><ele>225.0</ele><time>2026-04-03T08:40:07Z</time></trkpt><trkpt lat="38.890727239553" lon="-9.261029145778295"><ele>225.0</ele><time>2026-04-03T08:40:08Z</time></trkpt><trkpt lat="38.890890098736875" lon="-9.26101170019389"><ele>225.0</ele><time>2026-04-03T08:40:09Z</time></trkpt><trkpt lat="38.89104866372473" lon="-9.260989435688858"><ele>225.0</ele><time>2026-04-03T08:40:10Z</time></trkpt><trkpt lat="38.89120774161722" lon="-9.260969456549335"><ele>225.0</ele><time>2026-04-03T08:40:11Z</time></trkpt><trkpt lat="38.89136792279841" lon="-9.260953420067855"><ele>225.0</ele><time>2026-04-03T08:40:12Z</time></trkpt><trkpt lat="38.891527870072736" lon="-9.26094475753902"><ele>225.0</ele><time>2026-04-03T08:40:13Z</time></trkpt><trkpt lat="38.89169019102663" lon="-9.260926960928542"><ele>225.0</ele><time>2026-04-03T08:40:14Z</time></trkpt><trkpt lat="38.89185166031632" lon="-9.26091001921227"><ele>225.0</ele><time>2026-04-03T08:40:15Z</time></trkpt><trkpt lat="38.892016911335524" lon="-9.260886462815087"><ele>226.66666666666669</ele><time>2026-04-03T08:40:16Z</time></trkpt><trkpt lat="38.89218683806941" lon="-9.260865505453918"><ele>228.33333333333334</ele><time>2026-04-03T08:40:17Z</time></trkpt><trkpt lat="38.892351783440574" lon="-9.2608391834042"><ele>230.0</ele><time>2026-04-03T08:40:18Z</time></trkpt><trkpt lat="38.892515189238" lon="-9.26081973597616"><ele>231.0</ele><time>2026-04-03T08:40:19Z</time></trkpt><trkpt lat="38.89267973686553" lon="-9.260798615293446"><ele>232.0</ele><time>2026-04-03T08:40:20Z</time></trkpt><trkpt lat="38.8928468445257" lon="-9.26077543490434"><ele>233.0</ele><time>2026-04-03T08:40:21Z</time></trkpt><trkpt lat="38.893009774934924" lon="-9.26075334508034"><ele>233.0</ele><time>2026-04-03T08:40:22Z</time></trkpt><trkpt lat="38.893176431432735" lon="-9.26072652988382"><ele>233.0</ele><time>2026-04-03T08:40:23Z</time></trkpt><trkpt lat="38.89333585548469" lon="-9.260668519102845"><ele>233.0</ele><time>2026-04-03T08:40:24Z</time></trkpt><trkpt lat="38.893490853221635" lon="-9.26058333991779"><ele>232.66666666666669</ele><time>2026-04-03T08:40:25Z</time></trkpt><trkpt lat="38.89364183638126" lon="-9.260476576651772"><ele>232.33333333333331</ele><time>2026-04-03T08:40:26Z</time></trkpt><trkpt lat="38.89379647259181" lon="-9.260363270696015"><ele>232.0</ele><time>2026-04-03T08:40:27Z</time></trkpt><trkpt lat="38.8939468549926" lon="-9.260237649103681"><ele>232.0</ele><time>2026-04-03T08:40:28Z</time></trkpt><trkpt lat="38.89409670815345" lon="-9.26010749788148"><ele>232.0</ele><time>2026-04-03T08:40:29Z</time></trkpt><trkpt lat="38.89424699600162" lon="-9.25997862177645"><ele>232.0</ele><time>2026-04-03T08:40:30Z</time></trkpt><trkpt lat="38.89439300159807" lon="-9.25985733664642"><ele>235.66666666666666</ele><time>2026-04-03T08:40:31Z</time></trkpt><trkpt lat="38.894548528144895" lon="-9.259751906162583"><ele>239.33333333333331</ele><time>2026-04-03T08:40:32Z</time></trkpt><trkpt lat="38.89471118151832" lon="-9.25967763125029"><ele>243.0</ele><time>2026-04-03T08:40:33Z</time></trkpt><trkpt lat="38.89488669839049" lon="-9.259658863674865"><ele>243.0</ele><time>2026-04-03T08:40:34Z</time></trkpt><trkpt lat="38.895069454321" lon="-9.25963757120313"><ele>243.0</ele><time>2026-04-03T08:40:35Z</time></trkpt><trkpt lat="38.895250660141706" lon="-9.259643150147681"><ele>243.0</ele><time>2026-04-03T08:40:36Z</time></trkpt><trkpt lat="38.89543655610514" lon="-9.259633224723927"><ele>244.0</ele><time>2026-04-03T08:40:37Z</time></trkpt><trkpt lat="38.89562131258688" lon="-9.25962434764177"><ele>245.0</ele><time>2026-04-03T08:40:38Z</time></trkpt><trkpt lat="38.89580025987425" lon="-9.259620976873318"><ele>246.0</ele><time>2026-04-03T08:40:39Z</time></trkpt><trkpt lat="38.8959615762063" lon="-9.259616377375897"><ele>246.33333333333331</ele><time>2026-04-03T08:40:40Z</time></trkpt><trkpt lat="38.8961078439499" lon="-9.259612423593275"><ele>246.66666666666666</ele><time>2026-04-03T08:40:41Z</time></trkpt><trkpt lat="38.89626252898537" lon="-9.259605240088254"><ele>247.0</ele><time>2026-04-03T08:40:42Z</time></trkpt><trkpt lat="38.89641541532747" lon="-9.259599401567435"><ele>247.0</ele><time>2026-04-03T08:40:43Z</time></trkpt><trkpt lat="38.8965730399804" lon="-9.25959007539611"><ele>247.0</ele><time>2026-04-03T08:40:44Z</time></trkpt><trkpt lat="38.89673248693777" lon="-9.259563068177942"><ele>247.0</ele><time>2026-04-03T08:40:45Z</time></trkpt><trkpt lat="38.89689594469066" lon="-9.259516175363547"><ele>244.66666666666666</ele><time>2026-04-03T08:40:46Z</time></trkpt><trkpt lat="38.897059443981554" lon="-9.259457748240902"><ele>242.33333333333331</ele><time>2026-04-03T08:40:47Z</time></trkpt><trkpt lat="38.897219904335124" lon="-9.25939162107055"><ele>240.0</ele><time>2026-04-03T08:40:48Z</time></trkpt><trkpt lat="38.89738246627547" lon="-9.259333154974092"><ele>240.0</ele><time>2026-04-03T08:40:49Z</time></trkpt><trkpt lat="38.897542332811376" lon="-9.259263013454262"><ele>240.0</ele><time>2026-04-03T08:40:50Z</time></trkpt><trkpt lat="38.8976990203198" lon="-9.259220141890259"><ele>240.0</ele><time>2026-04-03T08:40:51Z</time></trkpt><trkpt lat="38.897862484468085" lon="-9.259188999331673"><ele>240.33333333333331</ele><time>2026-04-03T08:40:52Z</time></trkpt><trkpt lat="38.89802832544697" lon="-9.259187744396717"><ele>240.66666666666666</ele><time>2026-04-03T08:40:53Z</time></trkpt><trkpt lat="38.89818270955954" lon="-9.259182115084366"><ele>241.0</ele><time>2026-04-03T08:40:54Z</time></trkpt><trkpt lat="38.89832969375135" lon="-9.259168438342702"><ele>242.5</ele><time>2026-04-03T08:40:55Z</time></trkpt><trkpt lat="38.89847886221798" lon="-9.259148481105385"><ele>244.0</ele><time>2026-04-03T08:40:56Z</time></trkpt><trkpt lat="38.89862970745934" lon="-9.25912707015654"><ele>245.5</ele><time>2026-04-03T08:40:57Z</time></trkpt><trkpt lat="38.89877394737521" lon="-9.259108952267516"><ele>247.0</ele><time>2026-04-03T08:40:58Z</time></trkpt><trkpt lat="38.898924052166265" lon="-9.25912215294271"><ele>247.0</ele><time>2026-04-03T08:40:59Z</time></trkpt><trkpt lat="38.899068920255175" lon="-9.259163930355994"><ele>247.0</ele><time>2026-04-03T08:41:00Z</time></trkpt><trkpt lat="38.89919567299131" lon="-9.259238202575313"><ele>247.0</ele><time>2026-04-03T08:41:01Z</time></trkpt><trkpt lat="38.8993162731759" lon="-9.259363112320933"><ele>247.0</ele><time>2026-04-03T08:41:02Z</time></trkpt><trkpt lat="38.899427515135294" lon="-9.25951260199346"><ele>245.66666666666666</ele><time>2026-04-03T08:41:03Z</time></trkpt><trkpt lat="38.899536847524836" lon="-9.259664586543693"><ele>244.33333333333331</ele><time>2026-04-03T08:41:04Z</time></trkpt><trkpt lat="38.899672133786034" lon="-9.259799511131877"><ele>243.0</ele><time>2026-04-03T08:41:05Z</time></trkpt><trkpt lat="38.89982071668008" lon="-9.259951259069327"><ele>243.0</ele><time>2026-04-03T08:41:06Z</time></trkpt><trkpt lat="38.89999261212206" lon="-9.260084367684287"><ele>243.0</ele><time>2026-04-03T08:41:07Z</time></trkpt><trkpt lat="38.90017367036327" lon="-9.260220826827332"><ele>243.0</ele><time>2026-04-03T08:41:08Z</time></trkpt><trkpt lat="38.9003257706413" lon="-9.260346690329254"><ele>245.0</ele><time>2026-04-03T08:41:09Z</time></trkpt><trkpt lat="38.9004679306974" lon="-9.260454547297066"><ele>247.0</ele><time>2026-04-03T08:41:10Z</time></trkpt><trkpt lat="38.900598667325866" lon="-9.260555424174262"><ele>249.0</ele><time>2026-04-03T08:41:11Z</time></trkpt><trkpt lat="38.90072673658468" lon="-9.260644546893126"><ele>249.25</ele><time>2026-04-03T08:41:12Z</time></trkpt><trkpt lat="38.90084778174972" lon="-9.260728903202772"><ele>249.5</ele><time>2026-04-03T08:41:13Z</time></trkpt><trkpt lat="38.90096863692987" lon="-9.260803251055078"><ele>249.75</ele><time>2026-04-03T08:41:14Z</time></trkpt><trkpt lat="38.9011022749103" lon="-9.260850143914134"><ele>250.0</ele><time>2026-04-03T08:41:15Z</time></trkpt><trkpt lat="38.90124598024848" lon="-9.260864137167513"><ele>250.0</ele><time>2026-04-03T08:41:16Z</time></trkpt><trkpt lat="38.901394639109235" lon="-9.260840351060327"><ele>250.0</ele><time>2026-04-03T08:41:17Z</time></trkpt><trkpt lat="38.90155413812645" lon="-9.26081393347684"><ele>250.0</ele><time>2026-04-03T08:41:18Z</time></trkpt><trkpt lat="38.90171355698169" lon="-9.260801654674395"><ele>250.66666666666666</ele><time>2026-04-03T08:41:19Z</time></trkpt><trkpt lat="38.901874745195016" lon="-9.26078567155394"><ele>251.33333333333331</ele><time>2026-04-03T08:41:20Z</time></trkpt><trkpt lat="38.90203126413108" lon="-9.260770975739794"><ele>252.0</ele><time>2026-04-03T08:41:21Z</time></trkpt><trkpt lat="38.902187898632555" lon="-9.260748284070486"><ele>252.0</ele><time>2026-04-03T08:41:22Z</time></trkpt><trkpt lat="38.902349243449244" lon="-9.260736963037264"><ele>252.0</ele><time>2026-04-03T08:41:23Z</time></trkpt><trkpt lat="38.90251521267966" lon="-9.260712682314526"><ele>252.0</ele><time>2026-04-03T08:41:24Z</time></trkpt><trkpt lat="38.90270357163609" lon="-9.260681512214136"><ele>252.0</ele><time>2026-04-03T08:41:25Z</time></trkpt><trkpt lat="38.90290421739313" lon="-9.260639070031894"><ele>252.0</ele><time>2026-04-03T08:41:26Z</time></trkpt><trkpt lat="38.90311195115731" lon="-9.260569206455052"><ele>252.0</ele><time>2026-04-03T08:41:27Z</time></trkpt><trkpt lat="38.90332108046242" lon="-9.260491955469492"><ele>253.33333333333331</ele><time>2026-04-03T08:41:28Z</time></trkpt><trkpt lat="38.903534069582825" lon="-9.26040949867352"><ele>254.66666666666666</ele><time>2026-04-03T08:41:29Z</time></trkpt><trkpt lat="38.903748906840555" lon="-9.26032491822567"><ele>256.0</ele><time>2026-04-03T08:41:30Z</time></trkpt><trkpt lat="38.90395694588274" lon="-9.260251971708277"><ele>256.0</ele><time>2026-04-03T08:41:31Z</time></trkpt><trkpt lat="38.904139682184486" lon="-9.260182406348632"><ele>256.0</ele><time>2026-04-03T08:41:32Z</time></trkpt><trkpt lat="38.90430732730956" lon="-9.260117051838103"><ele>256.0</ele><time>2026-04-03T08:41:33Z</time></trkpt><trkpt lat="38.90447458615018" lon="-9.260044596379203"><ele>258.66666666666663</ele><time>2026-04-03T08:41:34Z</time></trkpt><trkpt lat="38.90462730723444" lon="-9.259965668408517"><ele>261.3333333333333</ele><time>2026-04-03T08:41:35Z</time></trkpt><trkpt lat="38.90477107710597" lon="-9.259888238139615"><ele>264.0</ele><time>2026-04-03T08:41:36Z</time></trkpt><trkpt lat="38.90491254673366" lon="-9.259792300232293"><ele>263.0</ele><time>2026-04-03T08:41:37Z</time></trkpt><trkpt lat="38.905056692021766" lon="-9.259689541917108"><ele>262.0</ele><time>2026-04-03T08:41:38Z</time></trkpt><trkpt lat="38.90520543569294" lon="-9.259587260847656"><ele>261.0</ele><time>2026-04-03T08:41:39Z</time></trkpt><trkpt lat="38.90535222668316" lon="-9.259489394495821"><ele>261.0</ele><time>2026-04-03T08:41:40Z</time></trkpt><trkpt lat="38.90550524276511" lon="-9.25938830114845"><ele>261.0</ele><time>2026-04-03T08:41:41Z</time></trkpt><trkpt lat="38.905652744474985" lon="-9.259300948712477"><ele>261.0</ele><time>2026-04-03T08:41:42Z</time></trkpt><trkpt lat="38.905803080370816" lon="-9.259217870728554"><ele>261.3333333333333</ele><time>2026-04-03T08:41:43Z</time></trkpt><trkpt lat="38.90595639339012" lon="-9.259155678531902"><ele>261.66666666666663</ele><time>2026-04-03T08:41:44Z</time></trkpt><trkpt lat="38.90612550918557" lon="-9.259123599565374"><ele>262.0</ele><time>2026-04-03T08:41:45Z</time></trkpt><trkpt lat="38.906313763660854" lon="-9.259132050782668"><ele>262.0</ele><time>2026-04-03T08:41:46Z</time></trkpt><trkpt lat="38.90650379592834" lon="-9.2591628881122"><ele>262.0</ele><time>2026-04-03T08:41:47Z</time></trkpt><trkpt lat="38.906690929312994" lon="-9.259191166820347"><ele>262.0</ele><time>2026-04-03T08:41:48Z</time></trkpt><trkpt lat="38.90687361443545" lon="-9.259219694485289"><ele>263.66666666666663</ele><time>2026-04-03T08:41:49Z</time></trkpt><trkpt lat="38.90705140392351" lon="-9.25924375223028"><ele>265.3333333333333</ele><time>2026-04-03T08:41:50Z</time></trkpt><trkpt lat="38.90722595370019" lon="-9.259259732593629"><ele>267.0</ele><time>2026-04-03T08:41:51Z</time></trkpt><trkpt lat="38.90739534232866" lon="-9.259280113505296"><ele>267.0</ele><time>2026-04-03T08:41:52Z</time></trkpt><trkpt lat="38.90756268605985" lon="-9.259299529101796"><ele>267.0</ele><time>2026-04-03T08:41:53Z</time></trkpt><trkpt lat="38.90771923529106" lon="-9.259310719671419"><ele>267.0</ele><time>2026-04-03T08:41:54Z</time></trkpt><trkpt lat="38.907871384387924" lon="-9.259330435928943"><ele>268.5</ele><time>2026-04-03T08:41:55Z</time></trkpt><trkpt lat="38.90802056696095" lon="-9.25937442580751"><ele>270.0</ele><time>2026-04-03T08:41:56Z</time></trkpt><trkpt lat="38.90814629122319" lon="-9.259462811338636"><ele>271.5</ele><time>2026-04-03T08:41:57Z</time></trkpt><trkpt lat="38.908239967249756" lon="-9.259603960803911"><ele>273.0</ele><time>2026-04-03T08:41:58Z</time></trkpt><trkpt lat="38.90832421445385" lon="-9.259753891676496"><ele>276.3333333333333</ele><time>2026-04-03T08:41:59Z</time></trkpt><trkpt lat="38.9084202305808" lon="-9.25990684888025"><ele>279.66666666666663</ele><time>2026-04-03T08:42:00Z</time></trkpt><trkpt lat="38.90848619408976" lon="-9.260075833370278"><ele>283.0</ele><time>2026-04-03T08:42:01Z</time></trkpt><trkpt lat="38.90856274021319" lon="-9.260241228501728"><ele>283.0</ele><time>2026-04-03T08:42:02Z</time></trkpt><trkpt lat="38.9086439870444" lon="-9.260404546485825"><ele>283.0</ele><time>2026-04-03T08:42:03Z</time></trkpt><trkpt lat="38.90872985658631" lon="-9.260572774823622"><ele>283.0</ele><time>2026-04-03T08:42:04Z</time></trkpt><trkpt lat="38.908821426005304" lon="-9.260752328001352"><ele>284.66666666666663</ele><time>2026-04-03T08:42:05Z</time></trkpt><trkpt lat="38.90891769413514" lon="-9.26094658300652"><ele>286.3333333333333</ele><time>2026-04-03T08:42:06Z</time></trkpt><trkpt lat="38.90901977815682" lon="-9.261139025454947"><ele>288.0</ele><time>2026-04-03T08:42:07Z</time></trkpt><trkpt lat="38.909123602418745" lon="-9.261341645034125"><ele>286.6666666666667</ele><time>2026-04-03T08:42:08Z</time></trkpt><trkpt lat="38.909227167262664" lon="-9.261545026555178"><ele>285.33333333333337</ele><time>2026-04-03T08:42:09Z</time></trkpt><trkpt lat="38.90932251598943" lon="-9.26173466064815"><ele>284.0</ele><time>2026-04-03T08:42:10Z</time></trkpt><trkpt lat="38.90941240444407" lon="-9.261905466668685"><ele>286.75</ele><time>2026-04-03T08:42:11Z</time></trkpt><trkpt lat="38.90949987207176" lon="-9.262070984841154"><ele>289.5</ele><time>2026-04-03T08:42:12Z</time></trkpt><trkpt lat="38.90958125345847" lon="-9.262209907875103"><ele>292.25</ele><time>2026-04-03T08:42:13Z</time></trkpt><trkpt lat="38.90964516042708" lon="-9.26232327103172"><ele>295.0</ele><time>2026-04-03T08:42:14Z</time></trkpt><trkpt lat="38.909712828477" lon="-9.262403982404209"><ele>295.0</ele><time>2026-04-03T08:42:15Z</time></trkpt><trkpt lat="38.90979703582701" lon="-9.262393501441819"><ele>295.0</ele><time>2026-04-03T08:42:16Z</time></trkpt><trkpt lat="38.90987729803757" lon="-9.262340540346718"><ele>295.0</ele><time>2026-04-03T08:42:17Z</time></trkpt><trkpt lat="38.90996590541217" lon="-9.262268247235843"><ele>295.0</ele><time>2026-04-03T08:42:18Z</time></trkpt><trkpt lat="38.91007255181803" lon="-9.262170294793284"><ele>295.0</ele><time>2026-04-03T08:42:19Z</time></trkpt><trkpt lat="38.91018537713792" lon="-9.262037067584494"><ele>294.0</ele><time>2026-04-03T08:42:20Z</time></trkpt><trkpt lat="38.91029331731831" lon="-9.261869338321688"><ele>293.0</ele><time>2026-04-03T08:42:21Z</time></trkpt><trkpt lat="38.91040792691325" lon="-9.261710714051866"><ele>292.0</ele><time>2026-04-03T08:42:22Z</time></trkpt><trkpt lat="38.91051009929865" lon="-9.26151268568734"><ele>292.66666666666663</ele><time>2026-04-03T08:42:23Z</time></trkpt><trkpt lat="38.91062011022137" lon="-9.261319620133891"><ele>293.3333333333333</ele><time>2026-04-03T08:42:24Z</time></trkpt><trkpt lat="38.91071386946569" lon="-9.26114831147114"><ele>294.0</ele><time>2026-04-03T08:42:25Z</time></trkpt><trkpt lat="38.910797066493245" lon="-9.261009682042083"><ele>294.0</ele><time>2026-04-03T08:42:26Z</time></trkpt><trkpt lat="38.91087230387155" lon="-9.260913074191874"><ele>294.0</ele><time>2026-04-03T08:42:27Z</time></trkpt><trkpt lat="38.91097389883363" lon="-9.260863211713282"><ele>294.0</ele><time>2026-04-03T08:42:28Z</time></trkpt><trkpt lat="38.91111126719592" lon="-9.26084609396243"><ele>294.0</ele><time>2026-04-03T08:42:29Z</time></trkpt><trkpt lat="38.911269124653494" lon="-9.260837617992511"><ele>296.6666666666667</ele><time>2026-04-03T08:42:30Z</time></trkpt><trkpt lat="38.911439290946525" lon="-9.260828808064913"><ele>299.33333333333337</ele><time>2026-04-03T08:42:31Z</time></trkpt><trkpt lat="38.9116126867078" lon="-9.260818512734614"><ele>302.0</ele><time>2026-04-03T08:42:32Z</time></trkpt><trkpt lat="38.91178735252208" lon="-9.26079385277684"><ele>305.0</ele><time>2026-04-03T08:42:33Z</time></trkpt><trkpt lat="38.91196714549725" lon="-9.260757268873487"><ele>308.0</ele><time>2026-04-03T08:42:34Z</time></trkpt><trkpt lat="38.91215110915954" lon="-9.260724300168949"><ele>311.0</ele><time>2026-04-03T08:42:35Z</time></trkpt><trkpt lat="38.91232270481757" lon="-9.260704342375563"><ele>311.0</ele><time>2026-04-03T08:42:36Z</time></trkpt><trkpt lat="38.91247395183445" lon="-9.26066487413873"><ele>311.0</ele><time>2026-04-03T08:42:37Z</time></trkpt><trkpt lat="38.91260068588592" lon="-9.260577805988193"><ele>311.0</ele><time>2026-04-03T08:42:38Z</time></trkpt><trkpt lat="38.912684034395426" lon="-9.260418742714847"><ele>311.0</ele><time>2026-04-03T08:42:39Z</time></trkpt><trkpt lat="38.91277237578149" lon="-9.260260759648245"><ele>313.6666666666667</ele><time>2026-04-03T08:42:40Z</time></trkpt><trkpt lat="38.912879208648086" lon="-9.260086572830494"><ele>316.3333333333333</ele><time>2026-04-03T08:42:41Z</time></trkpt><trkpt lat="38.91299332253698" lon="-9.259918265384258"><ele>319.0</ele><time>2026-04-03T08:42:42Z</time></trkpt><trkpt lat="38.91310524818305" lon="-9.25972673388677"><ele>320.0</ele><time>2026-04-03T08:42:43Z</time></trkpt><trkpt lat="38.91322370069837" lon="-9.259526520158042"><ele>321.0</ele><time>2026-04-03T08:42:44Z</time></trkpt><trkpt lat="38.91332978534041" lon="-9.25933828387373"><ele>322.0</ele><time>2026-04-03T08:42:45Z</time></trkpt><trkpt lat="38.9133720026077" lon="-9.259137849528544"><ele>320.3333333333333</ele><time>2026-04-03T08:42:46Z</time></trkpt><trkpt lat="38.913387167069814" lon="-9.258930602749091"><ele>318.6666666666667</ele><time>2026-04-03T08:42:47Z</time></trkpt><trkpt lat="38.91339014532809" lon="-9.25870087764663"><ele>317.0</ele><time>2026-04-03T08:42:48Z</time></trkpt><trkpt lat="38.91338562900395" lon="-9.258460769494308"><ele>317.0</ele><time>2026-04-03T08:42:49Z</time></trkpt><trkpt lat="38.91338040586383" lon="-9.258221577278308"><ele>317.0</ele><time>2026-04-03T08:42:50Z</time></trkpt><trkpt lat="38.913372316567454" lon="-9.25801371993683"><ele>317.0</ele><time>2026-04-03T08:42:51Z</time></trkpt><trkpt lat="38.913326257773704" lon="-9.257815230066944"><ele>314.6666666666667</ele><time>2026-04-03T08:42:52Z</time></trkpt><trkpt lat="38.91325624053426" lon="-9.257620814966895"><ele>312.3333333333333</ele><time>2026-04-03T08:42:53Z</time></trkpt><trkpt lat="38.91318705158373" lon="-9.257422726071153"><ele>310.0</ele><time>2026-04-03T08:42:54Z</time></trkpt><trkpt lat="38.913126507366776" lon="-9.257244356863891"><ele>309.25</ele><time>2026-04-03T08:42:55Z</time></trkpt><trkpt lat="38.91307388861736" lon="-9.257070359903622"><ele>308.5</ele><time>2026-04-03T08:42:56Z</time></trkpt><trkpt lat="38.913043470518886" lon="-9.256902393973649"><ele>307.75</ele><time>2026-04-03T08:42:57Z</time></trkpt><trkpt lat="38.9130066168541" lon="-9.25674724515159"><ele>307.0</ele><time>2026-04-03T08:42:58Z</time></trkpt><trkpt lat="38.9129786944391" lon="-9.256598917000613"><ele>307.0</ele><time>2026-04-03T08:42:59Z</time></trkpt><trkpt lat="38.91296913819261" lon="-9.256453038632193"><ele>307.0</ele><time>2026-04-03T08:43:00Z</time></trkpt><trkpt lat="38.912983791118656" lon="-9.256317647816543"><ele>307.0</ele><time>2026-04-03T08:43:01Z</time></trkpt><trkpt lat="38.913017575743346" lon="-9.256204349688401"><ele>307.0</ele><time>2026-04-03T08:43:02Z</time></trkpt><trkpt lat="38.91308292385985" lon="-9.25612060876913"><ele>307.0</ele><time>2026-04-03T08:43:03Z</time></trkpt><trkpt lat="38.91317621181558" lon="-9.256073106836482"><ele>308.16666666666663</ele><time>2026-04-03T08:43:04Z</time></trkpt><trkpt lat="38.91326883207192" lon="-9.256079159500196"><ele>309.3333333333333</ele><time>2026-04-03T08:43:05Z</time></trkpt><trkpt lat="38.91334878716129" lon="-9.25611161088262"><ele>310.5</ele><time>2026-04-03T08:43:06Z</time></trkpt><trkpt lat="38.91342026497416" lon="-9.25615421528429"><ele>311.6666666666667</ele><time>2026-04-03T08:43:08Z</time></trkpt><trkpt lat="38.9135078456836" lon="-9.25621382488097"><ele>312.83333333333337</ele><time>2026-04-03T08:43:10Z</time></trkpt><trkpt lat="38.91357220873146" lon="-9.256263877425434"><ele>314.0</ele><time>2026-04-03T08:43:12Z</time></trkpt><trkpt lat="38.913631756600246" lon="-9.256319718830097"><ele>314.33333333333337</ele><time>2026-04-03T08:43:14Z</time></trkpt><trkpt lat="38.913683985981585" lon="-9.256373033088508"><ele>314.6666666666667</ele><time>2026-04-03T08:43:16Z</time></trkpt><trkpt lat="38.9139233514245" lon="-9.256029611421512"><ele>315.0</ele><time>2026-04-03T08:43:18Z</time></trkpt><trkpt lat="38.914008537277724" lon="-9.256008726530347"><ele>315.0</ele><time>2026-04-03T08:43:20Z</time></trkpt><trkpt lat="38.91408729722186" lon="-9.25593920478342"><ele>315.0</ele><time>2026-04-03T08:43:22Z</time></trkpt><trkpt lat="38.91415855746744" lon="-9.255855731292138"><ele>315.0</ele><time>2026-04-03T08:43:24Z</time></trkpt><trkpt lat="38.91424419584881" lon="-9.255754723234332"><ele>315.0</ele><time>2026-04-03T08:43:26Z</time></trkpt><trkpt lat="38.91431724280171" lon="-9.255653741705617"><ele>315.0</ele><time>2026-04-03T08:43:28Z</time></trkpt><trkpt lat="38.91439183578645" lon="-9.255556242097025"><ele>317.8</ele><time>2026-04-03T08:43:30Z</time></trkpt><trkpt lat="38.91445424042914" lon="-9.255453493098265"><ele>320.6</ele><time>2026-04-03T08:43:32Z</time></trkpt><trkpt lat="38.914520326451616" lon="-9.255334814208535"><ele>323.4</ele><time>2026-04-03T08:43:34Z</time></trkpt><trkpt lat="38.914590273803114" lon="-9.255238991551106"><ele>326.2</ele><time>2026-04-03T08:43:36Z</time></trkpt><trkpt lat="38.91462753266307" lon="-9.25512427057381"><ele>329.0</ele><time>2026-04-03T08:43:38Z</time></trkpt><trkpt lat="38.91464006639761" lon="-9.255004823233268"><ele>329.0</ele><time>2026-04-03T08:43:40Z</time></trkpt><trkpt lat="38.914727308434564" lon="-9.254982784579893"><ele>329.0</ele><time>2026-04-03T08:43:42Z</time></trkpt><trkpt lat="38.91483713680723" lon="-9.255006117365445"><ele>329.0</ele><time>2026-04-03T08:43:44Z</time></trkpt><trkpt lat="38.91493556508479" lon="-9.255009827122638"><ele>329.0</ele><time>2026-04-03T08:43:46Z</time></trkpt><trkpt lat="38.91500877602248" lon="-9.25505191974722"><ele>329.0</ele><time>2026-04-03T08:43:48Z</time></trkpt><trkpt lat="38.91508610174692" lon="-9.255044020344897"><ele>330.0</ele><time>2026-04-03T08:43:51Z</time></trkpt><trkpt lat="38.91519538342215" lon="-9.255045406747909"><ele>331.0</ele><time>2026-04-03T08:43:53Z</time></trkpt><trkpt lat="38.91530616356093" lon="-9.255033447665502"><ele>332.0</ele><time>2026-04-03T08:43:55Z</time></trkpt><trkpt lat="38.91542694612003" lon="-9.255033130700248"><ele>333.0</ele><time>2026-04-03T08:43:57Z</time></trkpt><trkpt lat="38.91554684661338" lon="-9.255013889355418"><ele>333.0</ele><time>2026-04-03T08:43:59Z</time></trkpt><trkpt lat="38.915651252624905" lon="-9.254971184648289"><ele>333.0</ele><time>2026-04-03T08:44:01Z</time></trkpt><trkpt lat="38.91572591936231" lon="-9.254861744514"><ele>333.0</ele><time>2026-04-03T08:44:03Z</time></trkpt><trkpt lat="38.91578055472717" lon="-9.254813202096374"><ele>333.0</ele><time>2026-04-03T08:44:04Z</time></trkpt><trkpt lat="38.91582301924297" lon="-9.254744246510374"><ele>333.0</ele><time>2026-04-03T08:44:05Z</time></trkpt><trkpt lat="38.915875769836255" lon="-9.254689859741033"><ele>333.0</ele><time>2026-04-03T08:44:06Z</time></trkpt><trkpt lat="38.915929624967866" lon="-9.254631862403448"><ele>331.0</ele><time>2026-04-03T08:44:07Z</time></trkpt><trkpt lat="38.91597624807759" lon="-9.254558469481353"><ele>329.0</ele><time>2026-04-03T08:44:08Z</time></trkpt><trkpt lat="38.91601688351719" lon="-9.2544733250576"><ele>327.0</ele><time>2026-04-03T08:44:09Z</time></trkpt><trkpt lat="38.91602190473783" lon="-9.254376015266585"><ele>325.0</ele><time>2026-04-03T08:44:10Z</time></trkpt><trkpt lat="38.91600637901683" lon="-9.25426782799672"><ele>323.0</ele><time>2026-04-03T08:44:11Z</time></trkpt><trkpt lat="38.91599733908055" lon="-9.254169798662522"><ele>321.0</ele><time>2026-04-03T08:44:12Z</time></trkpt><trkpt lat="38.91596590780039" lon="-9.254095573742008"><ele>321.0</ele><time>2026-04-03T08:44:13Z</time></trkpt><trkpt lat="38.91592869570086" lon="-9.25401181208666"><ele>321.0</ele><time>2026-04-03T08:44:14Z</time></trkpt><trkpt lat="38.91596574201699" lon="-9.25392120401185"><ele>321.0</ele><time>2026-04-03T08:44:15Z</time></trkpt><trkpt lat="38.91601611425403" lon="-9.253838854505197"><ele>321.0</ele><time>2026-04-03T08:44:16Z</time></trkpt><trkpt lat="38.915981971191584" lon="-9.25375545038366"><ele>321.0</ele><time>2026-04-03T08:44:17Z</time></trkpt><trkpt lat="38.91592219490673" lon="-9.25369196106816"><ele>321.0</ele><time>2026-04-03T08:44:18Z</time></trkpt><trkpt lat="38.915858208960714" lon="-9.253588410882747"><ele>323.8</ele><time>2026-04-03T08:44:20Z</time></trkpt><trkpt lat="38.915800236643804" lon="-9.253627465205192"><ele>326.6</ele><time>2026-04-03T08:44:21Z</time></trkpt><trkpt lat="38.91570897210438" lon="-9.253695068593329"><ele>329.4</ele><time>2026-04-03T08:44:23Z</time></trkpt><trkpt lat="38.91560162881051" lon="-9.253703562556705"><ele>332.2</ele><time>2026-04-03T08:44:25Z</time></trkpt><trkpt lat="38.915561501546264" lon="-9.253572852333493"><ele>335.0</ele><time>2026-04-03T08:44:27Z</time></trkpt><trkpt lat="38.915586964393185" lon="-9.253654818832421"><ele>335.0</ele><time>2026-04-03T08:44:59Z</time></trkpt><trkpt lat="38.91567521369759" lon="-9.253690901361248"><ele>335.0</ele><time>2026-04-03T08:45:12Z</time></trkpt><trkpt lat="38.91578306616456" lon="-9.253683010175509"><ele>335.0</ele><time>2026-04-03T08:45:14Z</time></trkpt><trkpt lat="38.91588934299706" lon="-9.253654349957378"><ele>335.0</ele><time>2026-04-03T08:45:16Z</time></trkpt><trkpt lat="38.91594963830133" lon="-9.253713011146761"><ele>335.0</ele><time>2026-04-03T08:45:17Z</time></trkpt><trkpt lat="38.915986634901635" lon="-9.253813715915236"><ele>332.6666666666667</ele><time>2026-04-03T08:45:18Z</time></trkpt><trkpt lat="38.91600887338127" lon="-9.253902999862534"><ele>330.33333333333337</ele><time>2026-04-03T08:45:19Z</time></trkpt><trkpt lat="38.91599666310093" lon="-9.253994730859972"><ele>328.0</ele><time>2026-04-03T08:45:20Z</time></trkpt><trkpt lat="38.91596128501938" lon="-9.254080162336702"><ele>325.6666666666667</ele><time>2026-04-03T08:45:21Z</time></trkpt><trkpt lat="38.91593145077757" lon="-9.254165387721985"><ele>323.3333333333333</ele><time>2026-04-03T08:45:22Z</time></trkpt><trkpt lat="38.91596752662932" lon="-9.2542575064852"><ele>321.0</ele><time>2026-04-03T08:45:23Z</time></trkpt><trkpt lat="38.916015117961024" lon="-9.254348449436728"><ele>321.0</ele><time>2026-04-03T08:45:24Z</time></trkpt><trkpt lat="38.916005795894065" lon="-9.254462121597335"><ele>321.0</ele><time>2026-04-03T08:45:25Z</time></trkpt><trkpt lat="38.91599265147017" lon="-9.254551902425616"><ele>321.0</ele><time>2026-04-03T08:45:26Z</time></trkpt><trkpt lat="38.9159548743841" lon="-9.254641356336078"><ele>321.0</ele><time>2026-04-03T08:45:27Z</time></trkpt><trkpt lat="38.91587158920968" lon="-9.254723382812228"><ele>321.0</ele><time>2026-04-03T08:45:29Z</time></trkpt><trkpt lat="38.9157945232386" lon="-9.254788983342044"><ele>321.0</ele><time>2026-04-03T08:45:31Z</time></trkpt><trkpt lat="38.91571554362464" lon="-9.254905275162427"><ele>323.0</ele><time>2026-04-03T08:45:33Z</time></trkpt><trkpt lat="38.91562799773726" lon="-9.254965462454939"><ele>325.0</ele><time>2026-04-03T08:45:35Z</time></trkpt><trkpt lat="38.91557045551004" lon="-9.25502668661373"><ele>327.0</ele><time>2026-04-03T08:45:37Z</time></trkpt><trkpt lat="38.91547745594192" lon="-9.255030718884447"><ele>329.0</ele><time>2026-04-03T08:45:39Z</time></trkpt><trkpt lat="38.91538400406508" lon="-9.255028305700437"><ele>331.0</ele><time>2026-04-03T08:45:41Z</time></trkpt><trkpt lat="38.91529840852324" lon="-9.255030080430585"><ele>333.0</ele><time>2026-04-03T08:45:43Z</time></trkpt><trkpt lat="38.91520758514617" lon="-9.255044441156329"><ele>333.0</ele><time>2026-04-03T08:45:45Z</time></trkpt><trkpt lat="38.915115800401125" lon="-9.255050831395"><ele>333.0</ele><time>2026-04-03T08:45:47Z</time></trkpt><trkpt lat="38.91504135625408" lon="-9.255050736906503"><ele>333.0</ele><time>2026-04-03T08:45:49Z</time></trkpt><trkpt lat="38.91497681698924" lon="-9.255048526286595"><ele>333.0</ele><time>2026-04-03T08:45:51Z</time></trkpt><trkpt lat="38.914892771993486" lon="-9.255018885450715"><ele>333.0</ele><time>2026-04-03T08:45:54Z</time></trkpt><trkpt lat="38.91480833201843" lon="-9.254997462569579"><ele>333.0</ele><time>2026-04-03T08:45:56Z</time></trkpt><trkpt lat="38.91473341995877" lon="-9.255007472612338"><ele>332.42857142857144</ele><time>2026-04-03T08:45:58Z</time></trkpt><trkpt lat="38.914666405758446" lon="-9.25499930344836"><ele>331.85714285714283</ele><time>2026-04-03T08:46:00Z</time></trkpt><trkpt lat="38.914608561315674" lon="-9.254944065720993"><ele>331.2857142857143</ele><time>2026-04-03T08:46:04Z</time></trkpt><trkpt lat="38.914626977005156" lon="-9.254841022252378"><ele>330.7142857142857</ele><time>2026-04-03T08:46:08Z</time></trkpt><trkpt lat="38.914627744133" lon="-9.254759508523568"><ele>330.1428571428571</ele><time>2026-04-03T08:46:12Z</time></trkpt><trkpt lat="38.914628327710965" lon="-9.25467809021967"><ele>329.57142857142856</ele><time>2026-04-03T08:46:18Z</time></trkpt><trkpt lat="38.91462950357112" lon="-9.254569333195802"><ele>329.0</ele><time>2026-04-03T08:46:21Z</time></trkpt><trkpt lat="38.914649110551544" lon="-9.254482381871949"><ele>330.83333333333337</ele><time>2026-04-03T08:46:24Z</time></trkpt><trkpt lat="38.914645273915575" lon="-9.254384739786737"><ele>332.6666666666667</ele><time>2026-04-03T08:46:27Z</time></trkpt><trkpt lat="38.91464910339006" lon="-9.254283849868527"><ele>334.5</ele><time>2026-04-03T08:46:29Z</time></trkpt><trkpt lat="38.914626839925305" lon="-9.25417484904775"><ele>336.3333333333333</ele><time>2026-04-03T08:46:33Z</time></trkpt><trkpt lat="38.91461960392949" lon="-9.254077053512797"><ele>338.16666666666663</ele><time>2026-04-03T08:46:36Z</time></trkpt><trkpt lat="38.91464182489043" lon="-9.25397985153381"><ele>340.0</ele><time>2026-04-03T08:46:39Z</time></trkpt><trkpt lat="38.91464454573074" lon="-9.253882304185156"><ele>340.16666666666663</ele><time>2026-04-03T08:46:41Z</time></trkpt><trkpt lat="38.91463181957046" lon="-9.253790354393837"><ele>340.3333333333333</ele><time>2026-04-03T08:46:43Z</time></trkpt><trkpt lat="38.91467576216467" lon="-9.253719211301904"><ele>340.5</ele><time>2026-04-03T08:46:57Z</time></trkpt><trkpt lat="38.91469677893295" lon="-9.253626183931988"><ele>340.6666666666667</ele><time>2026-04-03T08:47:00Z</time></trkpt><trkpt lat="38.91462771021348" lon="-9.253515764011626"><ele>340.83333333333337</ele><time>2026-04-03T08:47:03Z</time></trkpt><trkpt lat="38.914604865714914" lon="-9.253412163216803"><ele>341.0</ele><time>2026-04-03T08:47:06Z</time></trkpt><trkpt lat="38.914623809989706" lon="-9.253508653887113"><ele>341.0</ele><time>2026-04-03T08:47:46Z</time></trkpt><trkpt lat="38.914671611806945" lon="-9.253596172824079"><ele>341.0</ele><time>2026-04-03T08:47:49Z</time></trkpt><trkpt lat="38.91470455198446" lon="-9.253688524435635"><ele>341.0</ele><time>2026-04-03T08:47:53Z</time></trkpt><trkpt lat="38.91470341566465" lon="-9.253782134192837"><ele>341.0</ele><time>2026-04-03T08:47:57Z</time></trkpt><trkpt lat="38.91470944057645" lon="-9.253873596361588"><ele>341.0</ele><time>2026-04-03T08:48:01Z</time></trkpt><trkpt lat="38.91467542698434" lon="-9.253979713699628"><ele>341.0</ele><time>2026-04-03T08:48:04Z</time></trkpt><trkpt lat="38.914615017113604" lon="-9.254014434518101"><ele>340.85714285714283</ele><time>2026-04-03T08:48:06Z</time></trkpt><trkpt lat="38.91463219163918" lon="-9.254114747009176"><ele>340.7142857142857</ele><time>2026-04-03T08:48:09Z</time></trkpt><trkpt lat="38.91463135971104" lon="-9.254197491550611"><ele>340.57142857142856</ele><time>2026-04-03T08:48:13Z</time></trkpt><trkpt lat="38.914639441957114" lon="-9.254287876678616"><ele>340.42857142857144</ele><time>2026-04-03T08:48:17Z</time></trkpt><trkpt lat="38.914643760957276" lon="-9.254387854898456"><ele>340.2857142857143</ele><time>2026-04-03T08:48:20Z</time></trkpt><trkpt lat="38.914643599483824" lon="-9.254487762656153"><ele>340.14285714285717</ele><time>2026-04-03T08:48:24Z</time></trkpt><trkpt lat="38.91462899935946" lon="-9.254579928646322"><ele>340.0</ele><time>2026-04-03T08:48:27Z</time></trkpt><trkpt lat="38.91463569181864" lon="-9.254676974215462"><ele>340.0</ele><time>2026-04-03T08:48:30Z</time></trkpt><trkpt lat="38.91462842701244" lon="-9.254764177270294"><ele>340.0</ele><time>2026-04-03T08:48:33Z</time></trkpt><trkpt lat="38.914631685726405" lon="-9.254876634787557"><ele>340.0</ele><time>2026-04-03T08:48:37Z</time></trkpt><trkpt lat="38.91464094720983" lon="-9.254968452742702"><ele>340.0</ele><time>2026-04-03T08:48:40Z</time></trkpt><trkpt lat="38.914620113910644" lon="-9.255051366300647"><ele>340.0</ele><time>2026-04-03T08:48:43Z</time></trkpt><trkpt lat="38.91457180230704" lon="-9.255116948964895"><ele>340.0</ele><time>2026-04-03T08:48:46Z</time></trkpt><trkpt lat="38.914589700999976" lon="-9.255205843174467"><ele>340.0</ele><time>2026-04-03T08:48:49Z</time></trkpt><trkpt lat="38.914557802067634" lon="-9.255287125154211"><ele>338.16666666666663</ele><time>2026-04-03T08:48:53Z</time></trkpt><trkpt lat="38.914504718943746" lon="-9.255388040571844"><ele>336.3333333333333</ele><time>2026-04-03T08:48:56Z</time></trkpt><trkpt lat="38.91444628685039" lon="-9.255447883301024"><ele>334.5</ele><time>2026-04-03T08:48:59Z</time></trkpt><trkpt lat="38.91439427255036" lon="-9.255543225285306"><ele>332.6666666666667</ele><time>2026-04-03T08:49:02Z</time></trkpt><trkpt lat="38.914335017902104" lon="-9.25562291089023"><ele>330.83333333333337</ele><time>2026-04-03T08:49:04Z</time></trkpt><trkpt lat="38.91425994577659" lon="-9.255711208327975"><ele>329.0</ele><time>2026-04-03T08:49:06Z</time></trkpt><trkpt lat="38.914187530034255" lon="-9.255795678165308"><ele>326.6666666666667</ele><time>2026-04-03T08:49:08Z</time></trkpt><trkpt lat="38.91411325099681" lon="-9.255885793252608"><ele>324.33333333333337</ele><time>2026-04-03T08:49:10Z</time></trkpt><trkpt lat="38.914051497265035" lon="-9.255956928651376"><ele>322.0</ele><time>2026-04-03T08:49:12Z</time></trkpt><trkpt lat="38.91398823753739" lon="-9.256003687925869"><ele>319.6666666666667</ele><time>2026-04-03T08:49:15Z</time></trkpt><trkpt lat="38.91392131277131" lon="-9.256029608947706"><ele>317.3333333333333</ele><time>2026-04-03T08:49:18Z</time></trkpt><trkpt lat="38.91383077078563" lon="-9.256048686781487"><ele>315.0</ele><time>2026-04-03T08:49:21Z</time></trkpt><trkpt lat="38.91376727096285" lon="-9.256073838865706"><ele>315.0</ele><time>2026-04-03T08:49:23Z</time></trkpt><trkpt lat="38.91368179632927" lon="-9.256112550824177"><ele>315.0</ele><time>2026-04-03T08:49:26Z</time></trkpt><trkpt lat="38.91359972198738" lon="-9.25612604902355"><ele>315.0</ele><time>2026-04-03T08:49:28Z</time></trkpt><trkpt lat="38.91353845017867" lon="-9.256091203836633"><ele>315.0</ele><time>2026-04-03T08:49:30Z</time></trkpt><trkpt lat="38.91345923265754" lon="-9.256090201920625"><ele>315.0</ele><time>2026-04-03T08:49:32Z</time></trkpt><trkpt lat="38.913368804683174" lon="-9.25607564186593"><ele>315.0</ele><time>2026-04-03T08:49:34Z</time></trkpt><trkpt lat="38.91328149803517" lon="-9.256133732297297"><ele>314.75</ele><time>2026-04-03T08:49:36Z</time></trkpt><trkpt lat="38.913145533199" lon="-9.25611214848188"><ele>314.5</ele><time>2026-04-03T08:49:38Z</time></trkpt><trkpt lat="38.91305316438854" lon="-9.256110043978955"><ele>314.25</ele><time>2026-04-03T08:49:39Z</time></trkpt><trkpt lat="38.912935960478535" lon="-9.256026856444674"><ele>314.0</ele><time>2026-04-03T08:49:41Z</time></trkpt><trkpt lat="38.91288605164967" lon="-9.255898661527981"><ele>314.0</ele><time>2026-04-03T08:49:42Z</time></trkpt><trkpt lat="38.91280829828783" lon="-9.255806199789994"><ele>314.0</ele><time>2026-04-03T08:49:43Z</time></trkpt><trkpt lat="38.912731481730354" lon="-9.255682372901463"><ele>314.0</ele><time>2026-04-03T08:49:44Z</time></trkpt><trkpt lat="38.9126437919886" lon="-9.25554403234499"><ele>314.0</ele><time>2026-04-03T08:49:45Z</time></trkpt><trkpt lat="38.91254180630125" lon="-9.255411819598898"><ele>315.5</ele><time>2026-04-03T08:49:46Z</time></trkpt><trkpt lat="38.91242617063479" lon="-9.255299367273386"><ele>317.0</ele><time>2026-04-03T08:49:46.999Z</time></trkpt><trkpt lat="38.91230426380978" lon="-9.255164224993647"><ele>318.5</ele><time>2026-04-03T08:49:47.999Z</time></trkpt><trkpt lat="38.91219047707917" lon="-9.255063777436616"><ele>320.0</ele><time>2026-04-03T08:49:48.999Z</time></trkpt><trkpt lat="38.9121061008256" lon="-9.25498937445801"><ele>320.0</ele><time>2026-04-03T08:49:49.999Z</time></trkpt><trkpt lat="38.9120389153553" lon="-9.254853641588737"><ele>320.0</ele><time>2026-04-03T08:49:51.999Z</time></trkpt><trkpt lat="38.91205845657992" lon="-9.254749436141424"><ele>320.0</ele><time>2026-04-03T08:49:52.999Z</time></trkpt><trkpt lat="38.91212515275526" lon="-9.254629041594113"><ele>320.0</ele><time>2026-04-03T08:49:53.999Z</time></trkpt><trkpt lat="38.91216850420116" lon="-9.254490713523905"><ele>320.0</ele><time>2026-04-03T08:49:54.999Z</time></trkpt><trkpt lat="38.912208383474336" lon="-9.254384591604463"><ele>320.57142857142856</ele><time>2026-04-03T08:49:55.999Z</time></trkpt><trkpt lat="38.91223977156224" lon="-9.254285584498467"><ele>321.14285714285717</ele><time>2026-04-03T08:49:56.999Z</time></trkpt><trkpt lat="38.9122274488533" lon="-9.25419318934569"><ele>321.7142857142857</ele><time>2026-04-03T08:49:57.999Z</time></trkpt><trkpt lat="38.912208854862996" lon="-9.254111530087318"><ele>322.2857142857143</ele><time>2026-04-03T08:49:58.999Z</time></trkpt><trkpt lat="38.91218418446774" lon="-9.25403272971212"><ele>322.85714285714283</ele><time>2026-04-03T08:49:59.999Z</time></trkpt><trkpt lat="38.912159330882936" lon="-9.253953957624384"><ele>323.42857142857144</ele><time>2026-04-03T08:50:00.999Z</time></trkpt><trkpt lat="38.91212557670455" lon="-9.25388565594654"><ele>324.0</ele><time>2026-04-03T08:50:01.999Z</time></trkpt><trkpt lat="38.91210295263289" lon="-9.253785608700776"><ele>324.0</ele><time>2026-04-03T08:50:02.999Z</time></trkpt><trkpt lat="38.912079064238185" lon="-9.253647316973156"><ele>324.0</ele><time>2026-04-03T08:50:03.999Z</time></trkpt><trkpt lat="38.91196692540195" lon="-9.2531567603622"><ele>322.0</ele><time>2026-04-03T08:50:04.999Z</time></trkpt><trkpt lat="38.91211171295618" lon="-9.252745169244776"><ele>320.0</ele><time>2026-04-03T08:50:05.999Z</time></trkpt><trkpt lat="38.91217707484357" lon="-9.25265303196304"><ele>318.0</ele><time>2026-04-03T08:50:06.999Z</time></trkpt><trkpt lat="38.912232857885336" lon="-9.25253451287939"><ele>318.0</ele><time>2026-04-03T08:50:07.999Z</time></trkpt><trkpt lat="38.91225849304172" lon="-9.252447143985647"><ele>318.0</ele><time>2026-04-03T08:50:08.999Z</time></trkpt><trkpt lat="38.91226577920183" lon="-9.252275492382408"><ele>318.0</ele><time>2026-04-03T08:50:10.999Z</time></trkpt><trkpt lat="38.912271003678015" lon="-9.252105388008031"><ele>318.0</ele><time>2026-04-03T08:50:12.999Z</time></trkpt><trkpt lat="38.912983265994384" lon="-9.251873135774263"><ele>321.5</ele><time>2026-04-03T08:50:14.999Z</time></trkpt><trkpt lat="38.91309243851533" lon="-9.251851323405347"><ele>325.0</ele><time>2026-04-03T08:50:15.999Z</time></trkpt><trkpt lat="38.91320237692253" lon="-9.251834936280412"><ele>328.5</ele><time>2026-04-03T08:50:16.999Z</time></trkpt><trkpt lat="38.9133180035049" lon="-9.25188119261045"><ele>332.0</ele><time>2026-04-03T08:50:17.999Z</time></trkpt><trkpt lat="38.91342380524546" lon="-9.251964455444723"><ele>332.75</ele><time>2026-04-03T08:50:18.999Z</time></trkpt><trkpt lat="38.913530162856496" lon="-9.252062289498037"><ele>333.5</ele><time>2026-04-03T08:50:19.999Z</time></trkpt><trkpt lat="38.91363962936316" lon="-9.25217721421654"><ele>334.25</ele><time>2026-04-03T08:50:20.999Z</time></trkpt><trkpt lat="38.9137446953299" lon="-9.252273336493342"><ele>335.0</ele><time>2026-04-03T08:50:21.999Z</time></trkpt><trkpt lat="38.91386514169378" lon="-9.252336209133832"><ele>335.2</ele><time>2026-04-03T08:50:22.999Z</time></trkpt><trkpt lat="38.9139849722722" lon="-9.252371718122635"><ele>335.4</ele><time>2026-04-03T08:50:23.999Z</time></trkpt><trkpt lat="38.914092721826584" lon="-9.25236800548202"><ele>335.6</ele><time>2026-04-03T08:50:24.999Z</time></trkpt><trkpt lat="38.9141908577267" lon="-9.252329004609368"><ele>335.8</ele><time>2026-04-03T08:50:25.999Z</time></trkpt><trkpt lat="38.91427382060868" lon="-9.252267317908128"><ele>336.0</ele><time>2026-04-03T08:50:26.999Z</time></trkpt><trkpt lat="38.91431986968192" lon="-9.25218363916901"><ele>336.0</ele><time>2026-04-03T08:50:27.999Z</time></trkpt><trkpt lat="38.91433574747097" lon="-9.252068349672776"><ele>336.0</ele><time>2026-04-03T08:50:35.999Z</time></trkpt><trkpt lat="38.91437391397409" lon="-9.251984934348386"><ele>336.0</ele><time>2026-04-03T08:50:36.999Z</time></trkpt><trkpt lat="38.914406659535764" lon="-9.251858720347105"><ele>336.0</ele><time>2026-04-03T08:50:37.999Z</time></trkpt><trkpt lat="38.91442948438009" lon="-9.25170814547556"><ele>336.0</ele><time>2026-04-03T08:50:38.999Z</time></trkpt><trkpt lat="38.91443483146231" lon="-9.251543056996724"><ele>336.0</ele><time>2026-04-03T08:50:39.999Z</time></trkpt><trkpt lat="38.91444628830961" lon="-9.251395823657473"><ele>336.0</ele><time>2026-04-03T08:50:40.999Z</time></trkpt><trkpt lat="38.91445005189656" lon="-9.251232366744743"><ele>336.0</ele><time>2026-04-03T08:50:41.999Z</time></trkpt><trkpt lat="38.914449917950485" lon="-9.251100543491024"><ele>336.0</ele><time>2026-04-03T08:50:42.999Z</time></trkpt><trkpt lat="38.91443074361945" lon="-9.250988950048873"><ele>336.0</ele><time>2026-04-03T08:50:43.999Z</time></trkpt><trkpt lat="38.91440775888147" lon="-9.250886939472192"><ele>336.0</ele><time>2026-04-03T08:50:44.999Z</time></trkpt><trkpt lat="38.91444018807429" lon="-9.250790211398055"><ele>336.0</ele><time>2026-04-03T08:50:45.999Z</time></trkpt><trkpt lat="38.91448530746885" lon="-9.25071575269641"><ele>336.0</ele><time>2026-04-03T08:50:46.999Z</time></trkpt><trkpt lat="38.91451285075049" lon="-9.25055574547749"><ele>336.0</ele><time>2026-04-03T08:50:48.999Z</time></trkpt><trkpt lat="38.91453959362634" lon="-9.250404288810271"><ele>336.0</ele><time>2026-04-03T08:50:50.999Z</time></trkpt><trkpt lat="38.91458954053407" lon="-9.250277855072591"><ele>336.8</ele><time>2026-04-03T08:50:52.999Z</time></trkpt><trkpt lat="38.91459491436884" lon="-9.250158341367895"><ele>337.6</ele><time>2026-04-03T08:50:54.999Z</time></trkpt><trkpt lat="38.9146300390469" lon="-9.250036876859758"><ele>338.4</ele><time>2026-04-03T08:50:56.999Z</time></trkpt><trkpt lat="38.91466529962398" lon="-9.24993341134176"><ele>339.2</ele><time>2026-04-03T08:50:58.999Z</time></trkpt><trkpt lat="38.91475094301641" lon="-9.24983629123469"><ele>340.0</ele><time>2026-04-03T08:51:00.999Z</time></trkpt><trkpt lat="38.914817617655835" lon="-9.249758754988237"><ele>340.8333333333333</ele><time>2026-04-03T08:51:02.999Z</time></trkpt><trkpt lat="38.91487916383301" lon="-9.249695866780238"><ele>341.66666666666663</ele><time>2026-04-03T08:51:03.999Z</time></trkpt><trkpt lat="38.914945973732024" lon="-9.249619943650242"><ele>342.5</ele><time>2026-04-03T08:51:04.999Z</time></trkpt><trkpt lat="38.9149830583163" lon="-9.249529173996446"><ele>343.3333333333333</ele><time>2026-04-03T08:51:05.999Z</time></trkpt><trkpt lat="38.91499849032188" lon="-9.24941119250644"><ele>344.1666666666667</ele><time>2026-04-03T08:51:06.999Z</time></trkpt><trkpt lat="38.9150537531896" lon="-9.249315369670185"><ele>345.0</ele><time>2026-04-03T08:51:07.999Z</time></trkpt><trkpt lat="38.915113397829444" lon="-9.249231193472108"><ele>345.8333333333333</ele><time>2026-04-03T08:51:08.999Z</time></trkpt><trkpt lat="38.91517963820507" lon="-9.249178332160369"><ele>346.6666666666667</ele><time>2026-04-03T08:51:09.999Z</time></trkpt><trkpt lat="38.91526584736798" lon="-9.249124929147872"><ele>347.5</ele><time>2026-04-03T08:51:10.999Z</time></trkpt><trkpt lat="38.91532736508571" lon="-9.249103040704012"><ele>348.33333333333337</ele><time>2026-04-03T08:51:11.999Z</time></trkpt><trkpt lat="38.915410984925174" lon="-9.249066494590089"><ele>349.1666666666667</ele><time>2026-04-03T08:51:13.999Z</time></trkpt><trkpt lat="38.915487053346325" lon="-9.249004846683565"><ele>350.0</ele><time>2026-04-03T08:51:15.999Z</time></trkpt><trkpt lat="38.91557115302941" lon="-9.248949360138374"><ele>350.0</ele><time>2026-04-03T08:51:17.999Z</time></trkpt><trkpt lat="38.91566333764145" lon="-9.248981914452266"><ele>350.0</ele><time>2026-04-03T08:51:20.999Z</time></trkpt><trkpt lat="38.91572718280926" lon="-9.248969922580208"><ele>350.0</ele><time>2026-04-03T08:51:22.999Z</time></trkpt><trkpt lat="38.91579521505239" lon="-9.2489872390674"><ele>350.0</ele><time>2026-04-03T08:51:24.999Z</time></trkpt><trkpt lat="38.915868051616215" lon="-9.248963850559186"><ele>350.0</ele><time>2026-04-03T08:51:26.999Z</time></trkpt><trkpt lat="38.91594946637161" lon="-9.248951783536492"><ele>350.0</ele><time>2026-04-03T08:51:28.999Z</time></trkpt><trkpt lat="38.91605488441836" lon="-9.248914924032087"><ele>352.8</ele><time>2026-04-03T08:51:30.999Z</time></trkpt><trkpt lat="38.91609305856843" lon="-9.248838863562472"><ele>355.6</ele><time>2026-04-03T08:51:31.999Z</time></trkpt><trkpt lat="38.91610873225178" lon="-9.248693839589743"><ele>358.4</ele><time>2026-04-03T08:51:33.999Z</time></trkpt><trkpt lat="38.916148604466834" lon="-9.248614636807329"><ele>361.2</ele><time>2026-04-03T08:51:34.999Z</time></trkpt><trkpt lat="38.916235828825265" lon="-9.248533684997644"><ele>364.0</ele><time>2026-04-03T08:51:35.999Z</time></trkpt><trkpt lat="38.916317629904846" lon="-9.248479185769453"><ele>364.0</ele><time>2026-04-03T08:51:36.999Z</time></trkpt><trkpt lat="38.91638927925101" lon="-9.248439181781434"><ele>364.0</ele><time>2026-04-03T08:51:37.999Z</time></trkpt><trkpt lat="38.91647452170585" lon="-9.248377771819428"><ele>364.0</ele><time>2026-04-03T08:51:39.999Z</time></trkpt><trkpt lat="38.91655973186965" lon="-9.248350835547393"><ele>364.0</ele><time>2026-04-03T08:51:42.999Z</time></trkpt><trkpt lat="38.916615135614336" lon="-9.24830870801915"><ele>364.0</ele><time>2026-04-03T08:51:44.999Z</time></trkpt><trkpt lat="38.91670394698469" lon="-9.248272834148265"><ele>364.0</ele><time>2026-04-03T08:51:53Z</time></trkpt><trkpt lat="38.916780682835366" lon="-9.24829051492907"><ele>365.5</ele><time>2026-04-03T08:51:56Z</time></trkpt><trkpt lat="38.9168789919686" lon="-9.24825849914101"><ele>367.0</ele><time>2026-04-03T08:51:59Z</time></trkpt><trkpt lat="38.91695509691655" lon="-9.248228834148973"><ele>368.5</ele><time>2026-04-03T08:52:01Z</time></trkpt><trkpt lat="38.91700214456032" lon="-9.248132506849123"><ele>370.0</ele><time>2026-04-03T08:52:03Z</time></trkpt><trkpt lat="38.91704671671507" lon="-9.248042633986332"><ele>371.5</ele><time>2026-04-03T08:52:05Z</time></trkpt><trkpt lat="38.91703672956604" lon="-9.247940850602555"><ele>373.0</ele><time>2026-04-03T08:52:08Z</time></trkpt><trkpt lat="38.91697943935951" lon="-9.24783362415574"><ele>375.14285714285717</ele><time>2026-04-03T08:52:11Z</time></trkpt><trkpt lat="38.91692860493908" lon="-9.247765141345162"><ele>377.28571428571433</ele><time>2026-04-03T08:52:15Z</time></trkpt><trkpt lat="38.91693747852437" lon="-9.247663951533545"><ele>379.42857142857144</ele><time>2026-04-03T08:52:18Z</time></trkpt><trkpt lat="38.91694639278301" lon="-9.247577996574597"><ele>381.57142857142856</ele><time>2026-04-03T08:52:20Z</time></trkpt><trkpt lat="38.91694889704684" lon="-9.247478342564728"><ele>383.7142857142857</ele><time>2026-04-03T08:52:23Z</time></trkpt><trkpt lat="38.91691654804501" lon="-9.247398937093331"><ele>385.85714285714283</ele><time>2026-04-03T08:54:12Z</time></trkpt><trkpt lat="38.91690686032641" lon="-9.247306619459625"><ele>388.0</ele><time>2026-04-03T08:54:15Z</time></trkpt><trkpt lat="38.91690656369349" lon="-9.247196127298695"><ele>389.50000000000006</ele><time>2026-04-03T08:54:19Z</time></trkpt><trkpt lat="38.9169150122243" lon="-9.247110424456151"><ele>391.0</ele><time>2026-04-03T08:54:22Z</time></trkpt><trkpt lat="38.91691448998879" lon="-9.247006699174996"><ele>392.5</ele><time>2026-04-03T08:54:25Z</time></trkpt><trkpt lat="38.916941778041334" lon="-9.246896993302533"><ele>394.0</ele><time>2026-04-03T08:54:28Z</time></trkpt><trkpt lat="38.91693985779585" lon="-9.246804116395495"><ele>395.50000000000006</ele><time>2026-04-03T08:54:30Z</time></trkpt><trkpt lat="38.91695543824805" lon="-9.246709115679195"><ele>397.0</ele><time>2026-04-03T08:54:32Z</time></trkpt><trkpt lat="38.91691939289109" lon="-9.246623034891925"><ele>397.00000000000006</ele><time>2026-04-03T08:54:35Z</time></trkpt><trkpt lat="38.916948387302504" lon="-9.24649641651214"><ele>397.0</ele><time>2026-04-03T08:54:37Z</time></trkpt><trkpt lat="38.91693775533509" lon="-9.246386987284735"><ele>397.0</ele><time>2026-04-03T08:54:39Z</time></trkpt><trkpt lat="38.91693496030331" lon="-9.246268932922867"><ele>397.0</ele><time>2026-04-03T08:54:42Z</time></trkpt><trkpt lat="38.916938022284064" lon="-9.246186264276396"><ele>397.00000000000006</ele><time>2026-04-03T08:54:44Z</time></trkpt><trkpt lat="38.91693639487829" lon="-9.24608300033523"><ele>397.0</ele><time>2026-04-03T08:54:46Z</time></trkpt><trkpt lat="38.91694517368466" lon="-9.245918920638335"><ele>397.33333333333337</ele><time>2026-04-03T08:54:48Z</time></trkpt><trkpt lat="38.91696382607276" lon="-9.245840646145023"><ele>397.6666666666667</ele><time>2026-04-03T08:54:49Z</time></trkpt><trkpt lat="38.91697776425562" lon="-9.245757072435945"><ele>398.0</ele><time>2026-04-03T08:54:50Z</time></trkpt><trkpt lat="38.91699041951167" lon="-9.245604425640105"><ele>398.33333333333337</ele><time>2026-04-03T08:54:52Z</time></trkpt><trkpt lat="38.91698946484196" lon="-9.245457833078792"><ele>398.6666666666667</ele><time>2026-04-03T08:54:54Z</time></trkpt><trkpt lat="38.91701697325067" lon="-9.245377789993144"><ele>399.0</ele><time>2026-04-03T08:54:55Z</time></trkpt><trkpt lat="38.917055796751654" lon="-9.24531354996727"><ele>397.6</ele><time>2026-04-03T08:54:56Z</time></trkpt><trkpt lat="38.917100853806694" lon="-9.245254405880871"><ele>396.2</ele><time>2026-04-03T08:54:57Z</time></trkpt><trkpt lat="38.917148021010725" lon="-9.245200630368489"><ele>394.8</ele><time>2026-04-03T08:54:58Z</time></trkpt><trkpt lat="38.917172270452106" lon="-9.245053946906564"><ele>393.40000000000003</ele><time>2026-04-03T08:55:00Z</time></trkpt><trkpt lat="38.91713325844406" lon="-9.244922860417223"><ele>392.0</ele><time>2026-04-03T08:55:02Z</time></trkpt><trkpt lat="38.91714869493599" lon="-9.24474702287832"><ele>391.40000000000003</ele><time>2026-04-03T08:55:04Z</time></trkpt><trkpt lat="38.917207807834224" lon="-9.24464982121781"><ele>390.8</ele><time>2026-04-03T08:55:05Z</time></trkpt><trkpt lat="38.91723581048923" lon="-9.244548772470663"><ele>390.2</ele><time>2026-04-03T08:55:06Z</time></trkpt><trkpt lat="38.91726148167884" lon="-9.24441269781816"><ele>389.6</ele><time>2026-04-03T08:55:08Z</time></trkpt><trkpt lat="38.91726815971299" lon="-9.24427372500468"><ele>389.0</ele><time>2026-04-03T08:55:10Z</time></trkpt><trkpt lat="38.91728828216255" lon="-9.244185677394196"><ele>388.99999999999994</ele><time>2026-04-03T08:55:12Z</time></trkpt><trkpt lat="38.917290649647406" lon="-9.244089774743516"><ele>389.0</ele><time>2026-04-03T08:55:14Z</time></trkpt><trkpt lat="38.91727789798517" lon="-9.243983927522207"><ele>389.0</ele><time>2026-04-03T08:55:17Z</time></trkpt><trkpt lat="38.91728059362505" lon="-9.24388458197607"><ele>389.0</ele><time>2026-04-03T08:55:21Z</time></trkpt><trkpt lat="38.91727222774886" lon="-9.243762086423724"><ele>388.99999999999994</ele><time>2026-04-03T08:55:24Z</time></trkpt><trkpt lat="38.91726242949064" lon="-9.243667514502992"><ele>389.0</ele><time>2026-04-03T08:55:26Z</time></trkpt><trkpt lat="38.91724536938755" lon="-9.243568966114434"><ele>387.8333333333333</ele><time>2026-04-03T08:55:28Z</time></trkpt><trkpt lat="38.91723747944802" lon="-9.243473947853243"><ele>386.66666666666663</ele><time>2026-04-03T08:55:30Z</time></trkpt><trkpt lat="38.91723314236594" lon="-9.243371966653573"><ele>385.5</ele><time>2026-04-03T08:55:32Z</time></trkpt><trkpt lat="38.91722183370052" lon="-9.24328406984807"><ele>384.3333333333333</ele><time>2026-04-03T08:55:34Z</time></trkpt><trkpt lat="38.917217177192825" lon="-9.24319701239254"><ele>383.16666666666663</ele><time>2026-04-03T08:55:36Z</time></trkpt><trkpt lat="38.91721215782719" lon="-9.24306076532371"><ele>382.0</ele><time>2026-04-03T08:55:38Z</time></trkpt><trkpt lat="38.917205311203254" lon="-9.242937098081072"><ele>380.0</ele><time>2026-04-03T08:55:40Z</time></trkpt><trkpt lat="38.91719193600648" lon="-9.242831659181746"><ele>378.0</ele><time>2026-04-03T08:55:42Z</time></trkpt><trkpt lat="38.917180365242814" lon="-9.242706829681005"><ele>376.0</ele><time>2026-04-03T08:55:45Z</time></trkpt><trkpt lat="38.917182346091" lon="-9.242618321292726"><ele>374.0</ele><time>2026-04-03T08:55:47Z</time></trkpt><trkpt lat="38.91718510214587" lon="-9.242520110302024"><ele>372.0</ele><time>2026-04-03T08:55:49Z</time></trkpt><trkpt lat="38.91720516157684" lon="-9.242426233235323"><ele>370.0</ele><time>2026-04-03T08:55:51Z</time></trkpt><trkpt lat="38.91723176931118" lon="-9.242333395902412"><ele>370.0</ele><time>2026-04-03T08:55:53Z</time></trkpt><trkpt lat="38.91726224543564" lon="-9.242219557758926"><ele>370.0</ele><time>2026-04-03T08:55:55Z</time></trkpt><trkpt lat="38.91729851909099" lon="-9.242119839086019"><ele>370.0</ele><time>2026-04-03T08:55:57Z</time></trkpt><trkpt lat="38.917336185950695" lon="-9.241980569511503"><ele>370.0</ele><time>2026-04-03T08:55:59Z</time></trkpt><trkpt lat="38.91738029276753" lon="-9.2418343570899"><ele>370.0</ele><time>2026-04-03T08:56:01Z</time></trkpt><trkpt lat="38.91741382220387" lon="-9.241707349527067"><ele>370.0</ele><time>2026-04-03T08:56:03Z</time></trkpt><trkpt lat="38.91746286318327" lon="-9.241580602588725"><ele>370.0</ele><time>2026-04-03T08:56:05Z</time></trkpt><trkpt lat="38.917515472033934" lon="-9.241461438335161"><ele>370.0</ele><time>2026-04-03T08:56:07Z</time></trkpt><trkpt lat="38.9175697188126" lon="-9.241345651663325"><ele>370.0</ele><time>2026-04-03T08:56:09Z</time></trkpt><trkpt lat="38.91761739736416" lon="-9.241236179738522"><ele>370.0</ele><time>2026-04-03T08:56:11Z</time></trkpt><trkpt lat="38.91765196690428" lon="-9.241140822127948"><ele>366.2</ele><time>2026-04-03T08:56:13Z</time></trkpt><trkpt lat="38.91768162424875" lon="-9.241042395963431"><ele>362.4</ele><time>2026-04-03T08:56:15Z</time></trkpt><trkpt lat="38.917678541441866" lon="-9.240924548046948"><ele>358.6</ele><time>2026-04-03T08:56:18Z</time></trkpt><trkpt lat="38.91765439278442" lon="-9.24081075132871"><ele>354.8</ele><time>2026-04-03T08:56:20Z</time></trkpt><trkpt lat="38.917595755866934" lon="-9.240714698528647"><ele>351.0</ele><time>2026-04-03T08:56:22Z</time></trkpt><trkpt lat="38.91754366146592" lon="-9.240594406107201"><ele>351.0</ele><time>2026-04-03T08:56:24Z</time></trkpt><trkpt lat="38.91748899491564" lon="-9.24045483002514"><ele>351.0</ele><time>2026-04-03T08:56:26Z</time></trkpt><trkpt lat="38.917474192839634" lon="-9.24035857482061"><ele>351.0</ele><time>2026-04-03T08:56:28Z</time></trkpt><trkpt lat="38.9174551703024" lon="-9.240244825722447"><ele>351.0</ele><time>2026-04-03T08:56:31Z</time></trkpt><trkpt lat="38.917432916858516" lon="-9.240162058814928"><ele>351.0</ele><time>2026-04-03T08:56:35Z</time></trkpt><trkpt lat="38.917419301721466" lon="-9.240080783308812"><ele>351.0</ele><time>2026-04-03T08:56:38Z</time></trkpt><trkpt lat="38.91746483762048" lon="-9.240021845269341"><ele>351.0</ele><time>2026-04-03T08:56:41Z</time></trkpt><trkpt lat="38.91753062830828" lon="-9.240006500616577"><ele>351.0</ele><time>2026-04-03T08:56:45Z</time></trkpt><trkpt lat="38.9176047599728" lon="-9.23998975379618"><ele>351.0</ele><time>2026-04-03T08:56:49Z</time></trkpt><trkpt lat="38.91767462204402" lon="-9.239945608601923"><ele>351.0</ele><time>2026-04-03T08:56:51Z</time></trkpt><trkpt lat="38.91774143528781" lon="-9.239931588598369"><ele>351.0</ele><time>2026-04-03T08:57:10Z</time></trkpt><trkpt lat="38.91781944589207" lon="-9.239907148256908"><ele>351.0</ele><time>2026-04-03T08:57:12Z</time></trkpt><trkpt lat="38.917920267349544" lon="-9.239852897458942"><ele>347.6</ele><time>2026-04-03T08:57:22Z</time></trkpt><trkpt lat="38.91797342821928" lon="-9.23969878405703"><ele>344.20000000000005</ele><time>2026-04-03T08:57:24Z</time></trkpt><trkpt lat="38.91796540361012" lon="-9.239580734384576"><ele>340.79999999999995</ele><time>2026-04-03T08:57:25Z</time></trkpt><trkpt lat="38.91789706148908" lon="-9.239461527685618"><ele>337.4</ele><time>2026-04-03T08:57:26Z</time></trkpt><trkpt lat="38.917868479308254" lon="-9.239340729851788"><ele>334.0</ele><time>2026-04-03T08:57:27Z</time></trkpt><trkpt lat="38.91783681539326" lon="-9.239233547838799"><ele>334.0</ele><time>2026-04-03T08:57:28Z</time></trkpt><trkpt lat="38.91779764653558" lon="-9.239115645946443"><ele>334.0</ele><time>2026-04-03T08:57:29Z</time></trkpt><trkpt lat="38.91775199201956" lon="-9.238969443060139"><ele>334.0</ele><time>2026-04-03T08:57:30Z</time></trkpt><trkpt lat="38.91770356693924" lon="-9.238798428862413"><ele>334.0</ele><time>2026-04-03T08:57:31Z</time></trkpt><trkpt lat="38.91767085438296" lon="-9.238679913774138"><ele>333.7142857142857</ele><time>2026-04-03T08:57:32Z</time></trkpt><trkpt lat="38.91765638551799" lon="-9.238574118750051"><ele>333.42857142857144</ele><time>2026-04-03T08:57:33Z</time></trkpt><trkpt lat="38.917631678086" lon="-9.238484169263367"><ele>333.1428571428571</ele><time>2026-04-03T08:57:34Z</time></trkpt><trkpt lat="38.9176126993455" lon="-9.238396915450824"><ele>332.8571428571429</ele><time>2026-04-03T08:57:35Z</time></trkpt><trkpt lat="38.91757854004908" lon="-9.238318976585743"><ele>332.5714285714286</ele><time>2026-04-03T08:57:36Z</time></trkpt><trkpt lat="38.91757221151722" lon="-9.238230460130865"><ele>332.2857142857143</ele><time>2026-04-03T08:57:37Z</time></trkpt><trkpt lat="38.917531471032746" lon="-9.238160609495734"><ele>332.0</ele><time>2026-04-03T08:57:38Z</time></trkpt><trkpt lat="38.91747785770271" lon="-9.238081999466253"><ele>330.20000000000005</ele><time>2026-04-03T08:57:39Z</time></trkpt><trkpt lat="38.91737968283132" lon="-9.23804258411199"><ele>328.4</ele><time>2026-04-03T08:57:40Z</time></trkpt><trkpt lat="38.91730749489826" lon="-9.237947993875922"><ele>326.6</ele><time>2026-04-03T08:57:41Z</time></trkpt><trkpt lat="38.917270628299036" lon="-9.237822211403273"><ele>324.79999999999995</ele><time>2026-04-03T08:57:42Z</time></trkpt><trkpt lat="38.917216041576715" lon="-9.237734718100102"><ele>323.0</ele><time>2026-04-03T08:57:43Z</time></trkpt><trkpt lat="38.91717564464129" lon="-9.23764124502467"><ele>323.0</ele><time>2026-04-03T08:57:44Z</time></trkpt><trkpt lat="38.917173977982564" lon="-9.23751210350466"><ele>323.0</ele><time>2026-04-03T08:57:45Z</time></trkpt><trkpt lat="38.91717248807351" lon="-9.237392763179793"><ele>323.0</ele><time>2026-04-03T08:57:46Z</time></trkpt><trkpt lat="38.917166519233696" lon="-9.237288233380966"><ele>323.0</ele><time>2026-04-03T08:57:47Z</time></trkpt><trkpt lat="38.917152394670325" lon="-9.237182425574863"><ele>323.0</ele><time>2026-04-03T08:57:48Z</time></trkpt><trkpt lat="38.917114970669225" lon="-9.237097060376334"><ele>323.0</ele><time>2026-04-03T08:57:49Z</time></trkpt><trkpt lat="38.91708097049544" lon="-9.23701085588387"><ele>320.4</ele><time>2026-04-03T08:57:50Z</time></trkpt><trkpt lat="38.917056123245864" lon="-9.236927147226542"><ele>317.79999999999995</ele><time>2026-04-03T08:57:51Z</time></trkpt><trkpt lat="38.91711429720044" lon="-9.2368545120158"><ele>315.2</ele><time>2026-04-03T08:57:55Z</time></trkpt><trkpt lat="38.917212052922416" lon="-9.236905893374525"><ele>312.6</ele><time>2026-04-03T08:57:57Z</time></trkpt><trkpt lat="38.91733599894069" lon="-9.236971276935277"><ele>310.0</ele><time>2026-04-03T08:57:59Z</time></trkpt><trkpt lat="38.91741593574982" lon="-9.237031809921028"><ele>310.0</ele><time>2026-04-03T08:58:00Z</time></trkpt><trkpt lat="38.917505470519906" lon="-9.237097919887118"><ele>310.0</ele><time>2026-04-03T08:58:01Z</time></trkpt><trkpt lat="38.917597300249646" lon="-9.23709110457534"><ele>310.0</ele><time>2026-04-03T08:58:02Z</time></trkpt><trkpt lat="38.91766161558427" lon="-9.237069779802663"><ele>310.0</ele><time>2026-04-03T08:58:03Z</time></trkpt><trkpt lat="38.91767124447525" lon="-9.236922995649337"><ele>310.0</ele><time>2026-04-03T08:58:04Z</time></trkpt><trkpt lat="38.917715930596486" lon="-9.23682134456136"><ele>310.14285714285717</ele><time>2026-04-03T08:58:05Z</time></trkpt><trkpt lat="38.91774813491529" lon="-9.236740608097811"><ele>310.2857142857143</ele><time>2026-04-03T08:58:06Z</time></trkpt><trkpt lat="38.917786900419074" lon="-9.236671721889163"><ele>310.42857142857144</ele><time>2026-04-03T08:58:07Z</time></trkpt><trkpt lat="38.91784141435239" lon="-9.23662739999486"><ele>310.57142857142856</ele><time>2026-04-03T08:58:08Z</time></trkpt><trkpt lat="38.91790783116173" lon="-9.23659997622825"><ele>310.7142857142857</ele><time>2026-04-03T08:58:09Z</time></trkpt><trkpt lat="38.9179720653946" lon="-9.23660297477417"><ele>310.85714285714283</ele><time>2026-04-03T08:58:10Z</time></trkpt><trkpt lat="38.91803581146049" lon="-9.236591205512289"><ele>311.0</ele><time>2026-04-03T08:58:11Z</time></trkpt><trkpt lat="38.918109007825144" lon="-9.236563491679208"><ele>307.83333333333337</ele><time>2026-04-03T08:58:12Z</time></trkpt><trkpt lat="38.918141745452395" lon="-9.236444620282148"><ele>304.6666666666667</ele><time>2026-04-03T08:58:13Z</time></trkpt><trkpt lat="38.91820424619496" lon="-9.236361799747273"><ele>301.5</ele><time>2026-04-03T08:58:14Z</time></trkpt><trkpt lat="38.918249703058336" lon="-9.236290024229213"><ele>298.3333333333333</ele><time>2026-04-03T08:58:15Z</time></trkpt><trkpt lat="38.91832692997301" lon="-9.236240896784219"><ele>295.16666666666663</ele><time>2026-04-03T08:58:16Z</time></trkpt><trkpt lat="38.91842481897926" lon="-9.236229690232985"><ele>292.0</ele><time>2026-04-03T08:58:17Z</time></trkpt><trkpt lat="38.91854190643987" lon="-9.236230372495005"><ele>290.6</ele><time>2026-04-03T08:58:18Z</time></trkpt><trkpt lat="38.91864884738076" lon="-9.236230624795581"><ele>289.2</ele><time>2026-04-03T08:58:19Z</time></trkpt><trkpt lat="38.91874135629555" lon="-9.236236068830587"><ele>287.8</ele><time>2026-04-03T08:58:20Z</time></trkpt><trkpt lat="38.91884181248773" lon="-9.236244580912999"><ele>286.4</ele><time>2026-04-03T08:58:21Z</time></trkpt><trkpt lat="38.91893658183335" lon="-9.236266079900856"><ele>285.0</ele><time>2026-04-03T08:58:22Z</time></trkpt><trkpt lat="38.919033971281266" lon="-9.236304896766"><ele>285.0</ele><time>2026-04-03T08:58:23Z</time></trkpt><trkpt lat="38.91912080976494" lon="-9.236297034839877"><ele>285.0</ele><time>2026-04-03T08:58:24Z</time></trkpt><trkpt lat="38.91921204232452" lon="-9.236306584678296"><ele>285.0</ele><time>2026-04-03T08:58:25Z</time></trkpt><trkpt lat="38.919299304070584" lon="-9.236308569614588"><ele>285.0</ele><time>2026-04-03T08:58:26Z</time></trkpt><trkpt lat="38.91939360151701" lon="-9.236295960136218"><ele>285.0</ele><time>2026-04-03T08:58:27Z</time></trkpt><trkpt lat="38.919491944489266" lon="-9.236276360076062"><ele>282.8</ele><time>2026-04-03T08:58:28Z</time></trkpt><trkpt lat="38.919595970131674" lon="-9.236277899458559"><ele>280.6</ele><time>2026-04-03T08:58:29Z</time></trkpt><trkpt lat="38.91969540135143" lon="-9.236275003379658"><ele>278.4</ele><time>2026-04-03T08:58:30Z</time></trkpt><trkpt lat="38.91979781937179" lon="-9.236279325266601"><ele>276.2</ele><time>2026-04-03T08:58:31Z</time></trkpt><trkpt lat="38.91991414320297" lon="-9.236261332523931"><ele>274.0</ele><time>2026-04-03T08:58:32Z</time></trkpt><trkpt lat="38.92003728814385" lon="-9.236266471409454"><ele>273.25</ele><time>2026-04-03T08:58:33Z</time></trkpt><trkpt lat="38.92016228290508" lon="-9.236295644446573"><ele>272.5</ele><time>2026-04-03T08:58:34Z</time></trkpt><trkpt lat="38.920285138366964" lon="-9.236301607898913"><ele>271.75</ele><time>2026-04-03T08:58:35Z</time></trkpt><trkpt lat="38.92040247901214" lon="-9.236307869805204"><ele>271.0</ele><time>2026-04-03T08:58:36Z</time></trkpt><trkpt lat="38.92048803558312" lon="-9.236315019377718"><ele>271.0</ele><time>2026-04-03T08:58:37Z</time></trkpt><trkpt lat="38.92057714591176" lon="-9.236313001687467"><ele>271.0</ele><time>2026-04-03T08:58:39Z</time></trkpt><trkpt lat="38.920652769264414" lon="-9.236282482326938"><ele>271.0</ele><time>2026-04-03T08:58:41Z</time></trkpt><trkpt lat="38.92076388497765" lon="-9.236218200034394"><ele>271.0</ele><time>2026-04-03T08:58:43Z</time></trkpt><trkpt lat="38.92081193299536" lon="-9.236146800335504"><ele>271.0</ele><time>2026-04-03T08:58:44Z</time></trkpt><trkpt lat="38.92088085195517" lon="-9.236076600719294"><ele>271.2</ele><time>2026-04-03T08:58:45Z</time></trkpt><trkpt lat="38.92095248614512" lon="-9.235984036089105"><ele>271.40000000000003</ele><time>2026-04-03T08:58:46Z</time></trkpt><trkpt lat="38.92104801613619" lon="-9.235882603078352"><ele>271.6</ele><time>2026-04-03T08:58:47Z</time></trkpt><trkpt lat="38.92111412417278" lon="-9.23578700607835"><ele>271.8</ele><time>2026-04-03T08:58:48Z</time></trkpt><trkpt lat="38.921178730423854" lon="-9.235711324896487"><ele>272.0</ele><time>2026-04-03T08:58:49Z</time></trkpt><trkpt lat="38.92126087783438" lon="-9.235677711550412"><ele>272.0</ele><time>2026-04-03T08:58:50Z</time></trkpt><trkpt lat="38.9213646809837" lon="-9.235673283879535"><ele>272.0</ele><time>2026-04-03T08:58:51Z</time></trkpt><trkpt lat="38.92147912164618" lon="-9.235726530530714"><ele>272.0</ele><time>2026-04-03T08:58:52Z</time></trkpt><trkpt lat="38.9216004650811" lon="-9.235788051271221"><ele>272.0</ele><time>2026-04-03T08:58:53Z</time></trkpt><trkpt lat="38.92171280469675" lon="-9.23585271508199"><ele>272.5</ele><time>2026-04-03T08:58:54Z</time></trkpt><trkpt lat="38.92181136754578" lon="-9.235907613219265"><ele>273.0</ele><time>2026-04-03T08:58:55Z</time></trkpt><trkpt lat="38.92190175061611" lon="-9.235955112338946"><ele>273.5</ele><time>2026-04-03T08:58:56Z</time></trkpt><trkpt lat="38.92198466878054" lon="-9.23597553715908"><ele>274.0</ele><time>2026-04-03T08:58:57Z</time></trkpt><trkpt lat="38.922066631315694" lon="-9.235979485807924"><ele>274.5</ele><time>2026-04-03T08:58:58Z</time></trkpt><trkpt lat="38.922139835589185" lon="-9.235982269547923"><ele>275.0</ele><time>2026-04-03T08:58:59Z</time></trkpt><trkpt lat="38.92223453710482" lon="-9.235985143680248"><ele>275.0</ele><time>2026-04-03T08:59:01Z</time></trkpt><trkpt lat="38.92230753063665" lon="-9.235904293814645"><ele>275.0</ele><time>2026-04-03T08:59:29Z</time></trkpt><trkpt lat="38.922322980395215" lon="-9.235811660777188"><ele>275.0</ele><time>2026-04-03T08:59:30Z</time></trkpt><trkpt lat="38.92234183083836" lon="-9.235680159792107"><ele>275.0</ele><time>2026-04-03T08:59:31Z</time></trkpt><trkpt lat="38.92236640759167" lon="-9.23553092625349"><ele>275.0</ele><time>2026-04-03T08:59:32Z</time></trkpt><trkpt lat="38.92240158223438" lon="-9.23538734092627"><ele>273.2</ele><time>2026-04-03T08:59:33Z</time></trkpt><trkpt lat="38.92244528666688" lon="-9.23525382092349"><ele>271.4</ele><time>2026-04-03T08:59:34Z</time></trkpt><trkpt lat="38.922491140002414" lon="-9.235138403649907"><ele>269.6</ele><time>2026-04-03T08:59:35Z</time></trkpt><trkpt lat="38.922553706642724" lon="-9.235046488234982"><ele>267.8</ele><time>2026-04-03T08:59:36Z</time></trkpt><trkpt lat="38.92261933560802" lon="-9.234964032004033"><ele>266.0</ele><time>2026-04-03T08:59:37Z</time></trkpt><trkpt lat="38.922676286252525" lon="-9.234881125183213"><ele>265.40000000000003</ele><time>2026-04-03T08:59:38Z</time></trkpt><trkpt lat="38.922756887140395" lon="-9.234809721464064"><ele>264.8</ele><time>2026-04-03T08:59:39Z</time></trkpt><trkpt lat="38.92285183889482" lon="-9.234729030869264"><ele>264.20000000000005</ele><time>2026-04-03T08:59:40Z</time></trkpt><trkpt lat="38.92294127630987" lon="-9.234635649603023"><ele>263.6</ele><time>2026-04-03T08:59:41Z</time></trkpt><trkpt lat="38.92301073583063" lon="-9.234521722532168"><ele>263.0</ele><time>2026-04-03T08:59:42Z</time></trkpt><trkpt lat="38.92308119151165" lon="-9.234414512785373"><ele>261.4</ele><time>2026-04-03T08:59:43Z</time></trkpt><trkpt lat="38.92315166195715" lon="-9.234312756242181"><ele>259.8</ele><time>2026-04-03T08:59:44Z</time></trkpt><trkpt lat="38.92322050956957" lon="-9.234205075945443"><ele>258.2</ele><time>2026-04-03T08:59:45Z</time></trkpt><trkpt lat="38.92327529341604" lon="-9.234092924332518"><ele>256.6</ele><time>2026-04-03T08:59:46Z</time></trkpt><trkpt lat="38.923316956018944" lon="-9.23398689783001"><ele>255.0</ele><time>2026-04-03T08:59:47Z</time></trkpt><trkpt lat="38.92335144298688" lon="-9.233882202904185"><ele>255.0</ele><time>2026-04-03T08:59:48Z</time></trkpt><trkpt lat="38.92337990365819" lon="-9.233782095445513"><ele>255.0</ele><time>2026-04-03T08:59:49Z</time></trkpt><trkpt lat="38.92340746641167" lon="-9.233682238572847"><ele>255.0</ele><time>2026-04-03T08:59:50Z</time></trkpt><trkpt lat="38.923435167908444" lon="-9.233585625310287"><ele>255.0</ele><time>2026-04-03T08:59:51Z</time></trkpt><trkpt lat="38.92346034215347" lon="-9.233498377634117"><ele>255.0</ele><time>2026-04-03T08:59:52Z</time></trkpt><trkpt lat="38.923493743088805" lon="-9.233377259874961"><ele>255.0</ele><time>2026-04-03T08:59:54Z</time></trkpt><trkpt lat="38.923531664552485" lon="-9.233292616504897"><ele>255.16666666666666</ele><time>2026-04-03T08:59:56Z</time></trkpt><trkpt lat="38.92354225659979" lon="-9.233193281406448"><ele>255.33333333333331</ele><time>2026-04-03T09:00:04Z</time></trkpt><trkpt lat="38.92357542277922" lon="-9.233057316351488"><ele>255.5</ele><time>2026-04-03T09:00:06Z</time></trkpt><trkpt lat="38.92359817669513" lon="-9.232977841859485"><ele>255.66666666666666</ele><time>2026-04-03T09:00:07Z</time></trkpt><trkpt lat="38.92362664278481" lon="-9.232888899038956"><ele>255.83333333333331</ele><time>2026-04-03T09:00:08Z</time></trkpt><trkpt lat="38.92364855666764" lon="-9.232789724998531"><ele>256.0</ele><time>2026-04-03T09:00:09Z</time></trkpt><trkpt lat="38.92367708344146" lon="-9.23268082335941"><ele>256.6</ele><time>2026-04-03T09:00:10Z</time></trkpt><trkpt lat="38.92369476790866" lon="-9.2325797835451"><ele>257.20000000000005</ele><time>2026-04-03T09:00:12Z</time></trkpt><trkpt lat="38.92374984831554" lon="-9.232508897413458"><ele>257.79999999999995</ele><time>2026-04-03T09:00:15Z</time></trkpt><trkpt lat="38.92388131401996" lon="-9.232573580419201"><ele>258.4</ele><time>2026-04-03T09:00:17Z</time></trkpt><trkpt lat="38.923966674169776" lon="-9.232611030146707"><ele>259.0</ele><time>2026-04-03T09:00:18Z</time></trkpt><trkpt lat="38.92409502329461" lon="-9.23266599035882"><ele>259.0</ele><time>2026-04-03T09:00:19Z</time></trkpt><trkpt lat="38.924201315527206" lon="-9.232706428390687"><ele>259.0</ele><time>2026-04-03T09:00:20Z</time></trkpt><trkpt lat="38.924281282994116" lon="-9.232757403626044"><ele>259.0</ele><time>2026-04-03T09:00:21Z</time></trkpt><trkpt lat="38.92436096080181" lon="-9.232785822951255"><ele>259.0</ele><time>2026-04-03T09:00:22Z</time></trkpt><trkpt lat="38.92443759856259" lon="-9.232819705928721"><ele>259.0</ele><time>2026-04-03T09:00:23Z</time></trkpt><trkpt lat="38.92450313886805" lon="-9.232850917025882"><ele>259.0</ele><time>2026-04-03T09:00:24Z</time></trkpt><trkpt lat="38.92460514767498" lon="-9.232863679951398"><ele>259.4</ele><time>2026-04-03T09:00:26Z</time></trkpt><trkpt lat="38.92469651488879" lon="-9.232878808444752"><ele>259.79999999999995</ele><time>2026-04-03T09:00:28Z</time></trkpt><trkpt lat="38.92476670484489" lon="-9.232890973205176"><ele>260.20000000000005</ele><time>2026-04-03T09:00:31Z</time></trkpt><trkpt lat="38.924857702214325" lon="-9.232922191896536"><ele>260.6</ele><time>2026-04-03T09:00:41Z</time></trkpt><trkpt lat="38.92497428163012" lon="-9.232953663298701"><ele>261.0</ele><time>2026-04-03T09:00:43Z</time></trkpt><trkpt lat="38.92506629380522" lon="-9.232968946528745"><ele>261.3333333333333</ele><time>2026-04-03T09:00:45Z</time></trkpt><trkpt lat="38.92513578116847" lon="-9.23300483766524"><ele>261.6666666666667</ele><time>2026-04-03T09:00:47Z</time></trkpt><trkpt lat="38.92519971383754" lon="-9.2330212084315"><ele>262.0</ele><time>2026-04-03T09:00:49Z</time></trkpt><trkpt lat="38.92526237399573" lon="-9.233033264151544"><ele>262.33333333333337</ele><time>2026-04-03T09:00:51Z</time></trkpt><trkpt lat="38.92532808378382" lon="-9.23305462093693"><ele>262.6666666666667</ele><time>2026-04-03T09:00:53Z</time></trkpt><trkpt lat="38.925434728857105" lon="-9.233102662659062"><ele>263.0</ele><time>2026-04-03T09:01:10Z</time></trkpt><trkpt lat="38.92549748695767" lon="-9.233130354568138"><ele>261.75</ele><time>2026-04-03T09:01:11Z</time></trkpt><trkpt lat="38.92558713331515" lon="-9.233177971537353"><ele>260.5</ele><time>2026-04-03T09:01:12Z</time></trkpt><trkpt lat="38.92568911888439" lon="-9.233229811712764"><ele>259.25</ele><time>2026-04-03T09:01:13Z</time></trkpt><trkpt lat="38.925812071373436" lon="-9.233309315305847"><ele>258.0</ele><time>2026-04-03T09:01:14Z</time></trkpt><trkpt lat="38.925944041520935" lon="-9.233392719772835"><ele>257.3333333333333</ele><time>2026-04-03T09:01:15Z</time></trkpt><trkpt lat="38.926089750654015" lon="-9.23348144921372"><ele>256.66666666666663</ele><time>2026-04-03T09:01:16Z</time></trkpt><trkpt lat="38.92623883333208" lon="-9.233583476898854"><ele>256.0</ele><time>2026-04-03T09:01:17Z</time></trkpt><trkpt lat="38.9263997441019" lon="-9.233704229304204"><ele>256.0</ele><time>2026-04-03T09:01:18Z</time></trkpt><trkpt lat="38.926548941889735" lon="-9.233866374232013"><ele>256.0</ele><time>2026-04-03T09:01:19Z</time></trkpt><trkpt lat="38.92669358289912" lon="-9.234043524361804"><ele>256.0</ele><time>2026-04-03T09:01:20Z</time></trkpt><trkpt lat="38.92681339632068" lon="-9.234196437106855"><ele>256.25</ele><time>2026-04-03T09:01:21Z</time></trkpt><trkpt lat="38.92692174295442" lon="-9.234334602120018"><ele>256.5</ele><time>2026-04-03T09:01:22Z</time></trkpt><trkpt lat="38.927036789460004" lon="-9.234454523092317"><ele>256.75</ele><time>2026-04-03T09:01:23Z</time></trkpt><trkpt lat="38.927138781874" lon="-9.234546144621076"><ele>257.0</ele><time>2026-04-03T09:01:24Z</time></trkpt><trkpt lat="38.92723310868364" lon="-9.234607400309752"><ele>257.0</ele><time>2026-04-03T09:01:25Z</time></trkpt><trkpt lat="38.92731995021059" lon="-9.234632341193864"><ele>257.0</ele><time>2026-04-03T09:01:26Z</time></trkpt><trkpt lat="38.9273865637304" lon="-9.234580882633688"><ele>257.0</ele><time>2026-04-03T09:01:27Z</time></trkpt><trkpt lat="38.92745112351351" lon="-9.234511773159792"><ele>257.0</ele><time>2026-04-03T09:01:28Z</time></trkpt><trkpt lat="38.92747953208724" lon="-9.234362356952355"><ele>257.0</ele><time>2026-04-03T09:01:29Z</time></trkpt><trkpt lat="38.92748695344014" lon="-9.2341899730969"><ele>257.0</ele><time>2026-04-03T09:01:30Z</time></trkpt><trkpt lat="38.92749240293416" lon="-9.234022395337687"><ele>257.0</ele><time>2026-04-03T09:01:31Z</time></trkpt><trkpt lat="38.92742001460382" lon="-9.23385166751526"><ele>257.0</ele><time>2026-04-03T09:01:32Z</time></trkpt><trkpt lat="38.927407216503" lon="-9.233712712404389"><ele>257.0</ele><time>2026-04-03T09:01:33Z</time></trkpt><trkpt lat="38.92742605798797" lon="-9.233621004486604"><ele>256.4</ele><time>2026-04-03T09:01:34Z</time></trkpt><trkpt lat="38.927554490372096" lon="-9.233533296873155"><ele>255.79999999999998</ele><time>2026-04-03T09:01:36Z</time></trkpt><trkpt lat="38.92764008452436" lon="-9.23356314347941"><ele>255.2</ele><time>2026-04-03T09:01:37Z</time></trkpt><trkpt lat="38.92770773370465" lon="-9.233659503274595"><ele>254.6</ele><time>2026-04-03T09:01:38Z</time></trkpt><trkpt lat="38.92772964697523" lon="-9.23377731493051"><ele>254.0</ele><time>2026-04-03T09:01:39Z</time></trkpt><trkpt lat="38.927701450850726" lon="-9.233899333734453"><ele>254.6</ele><time>2026-04-03T09:01:40Z</time></trkpt><trkpt lat="38.92763020128764" lon="-9.23399223676545"><ele>255.2</ele><time>2026-04-03T09:01:41Z</time></trkpt><trkpt lat="38.927554190204816" lon="-9.234091623564275"><ele>255.79999999999998</ele><time>2026-04-03T09:01:42Z</time></trkpt><trkpt lat="38.92750402821101" lon="-9.23421962158984"><ele>256.4</ele><time>2026-04-03T09:01:43Z</time></trkpt><trkpt lat="38.92747924731941" lon="-9.234336427274274"><ele>257.0</ele><time>2026-04-03T09:01:44Z</time></trkpt><trkpt lat="38.92745724083865" lon="-9.234445688463843"><ele>257.0</ele><time>2026-04-03T09:01:45Z</time></trkpt><trkpt lat="38.927473200735584" lon="-9.234576395188123"><ele>257.0</ele><time>2026-04-03T09:01:46Z</time></trkpt><trkpt lat="38.9274701217953" lon="-9.234700580956625"><ele>257.0</ele><time>2026-04-03T09:01:47Z</time></trkpt><trkpt lat="38.927453022376795" lon="-9.234813312330767"><ele>257.0</ele><time>2026-04-03T09:01:48Z</time></trkpt><trkpt lat="38.927453307255256" lon="-9.23491471892663"><ele>257.0</ele><time>2026-04-03T09:01:49Z</time></trkpt><trkpt lat="38.92745895426063" lon="-9.235016330589659"><ele>257.0</ele><time>2026-04-03T09:01:50Z</time></trkpt><trkpt lat="38.927454251593005" lon="-9.23510643048261"><ele>256.33333333333337</ele><time>2026-04-03T09:01:51Z</time></trkpt><trkpt lat="38.92745252230597" lon="-9.235263964182776"><ele>255.66666666666669</ele><time>2026-04-03T09:01:53Z</time></trkpt><trkpt lat="38.92745853599162" lon="-9.235351340382284"><ele>255.0</ele><time>2026-04-03T09:01:54Z</time></trkpt><trkpt lat="38.927459938763874" lon="-9.235440283753853"><ele>254.33333333333331</ele><time>2026-04-03T09:01:55Z</time></trkpt><trkpt lat="38.927464393960896" lon="-9.235527254844575"><ele>253.66666666666666</ele><time>2026-04-03T09:01:56Z</time></trkpt><trkpt lat="38.92746377196716" lon="-9.23562055419478"><ele>253.0</ele><time>2026-04-03T09:01:57Z</time></trkpt><trkpt lat="38.9274708714256" lon="-9.235721549958248"><ele>252.83333333333331</ele><time>2026-04-03T09:01:58Z</time></trkpt><trkpt lat="38.9274832207614" lon="-9.235810201793647"><ele>252.66666666666666</ele><time>2026-04-03T09:01:59Z</time></trkpt><trkpt lat="38.92750790064075" lon="-9.23590160378692"><ele>252.5</ele><time>2026-04-03T09:02:00Z</time></trkpt><trkpt lat="38.927547600085255" lon="-9.236006683057912"><ele>252.33333333333331</ele><time>2026-04-03T09:02:01Z</time></trkpt><trkpt lat="38.9275843210963" lon="-9.236117149361"><ele>252.16666666666666</ele><time>2026-04-03T09:02:02Z</time></trkpt><trkpt lat="38.92759566462419" lon="-9.236211609068214"><ele>252.0</ele><time>2026-04-03T09:02:03Z</time></trkpt><trkpt lat="38.927622725908094" lon="-9.236289902954848"><ele>252.66666666666666</ele><time>2026-04-03T09:02:04Z</time></trkpt><trkpt lat="38.92768020663976" lon="-9.236334095615101"><ele>253.33333333333331</ele><time>2026-04-03T09:02:05Z</time></trkpt><trkpt lat="38.927706157006256" lon="-9.23646396308678"><ele>254.0</ele><time>2026-04-03T09:02:07Z</time></trkpt><trkpt lat="38.92773236186785" lon="-9.236554150939417"><ele>254.66666666666666</ele><time>2026-04-03T09:07:33Z</time></trkpt><trkpt lat="38.92774231576265" lon="-9.236647960851776"><ele>255.33333333333331</ele><time>2026-04-03T09:08:44Z</time></trkpt><trkpt lat="38.927786054583905" lon="-9.23673503681714"><ele>256.0</ele><time>2026-04-03T09:08:55Z</time></trkpt><trkpt lat="38.92776593977573" lon="-9.236847571759473"><ele>256.66666666666663</ele><time>2026-04-03T09:09:19Z</time></trkpt><trkpt lat="38.92783564622385" lon="-9.236955430225814"><ele>257.3333333333333</ele><time>2026-04-03T09:09:22Z</time></trkpt><trkpt lat="38.92777805749532" lon="-9.236997207409079"><ele>258.0</ele><time>2026-04-03T09:09:33Z</time></trkpt><trkpt lat="38.92776874999587" lon="-9.236909777264795"><ele>258.6666666666667</ele><time>2026-04-03T09:09:36Z</time></trkpt><trkpt lat="38.92783232215943" lon="-9.236816041244781"><ele>259.33333333333337</ele><time>2026-04-03T09:09:46Z</time></trkpt><trkpt lat="38.9278104017067" lon="-9.236724807070615"><ele>260.0</ele><time>2026-04-03T09:09:50Z</time></trkpt><trkpt lat="38.927771447839966" lon="-9.236645122984749"><ele>260.00000000000006</ele><time>2026-04-03T09:09:55Z</time></trkpt><trkpt lat="38.927746464139275" lon="-9.236555058949964"><ele>260.0</ele><time>2026-04-03T09:09:58Z</time></trkpt><trkpt lat="38.92778106497879" lon="-9.236631413364824"><ele>260.0</ele><time>2026-04-03T09:10:55Z</time></trkpt><trkpt lat="38.92786468793106" lon="-9.236659857023543"><ele>260.0</ele><time>2026-04-03T09:11:28Z</time></trkpt><trkpt lat="38.92788163054439" lon="-9.236581601609558"><ele>260.0</ele><time>2026-04-03T09:11:29Z</time></trkpt><trkpt lat="38.92789570513648" lon="-9.236477404631197"><ele>260.00000000000006</ele><time>2026-04-03T09:11:31Z</time></trkpt><trkpt lat="38.92790440121761" lon="-9.236389771670263"><ele>260.0</ele><time>2026-04-03T09:11:32Z</time></trkpt><trkpt lat="38.9278301001917" lon="-9.236460124463987"><ele>260.0</ele><time>2026-04-03T09:11:34Z</time></trkpt><trkpt lat="38.92774859071316" lon="-9.236459653610716"><ele>260.0</ele><time>2026-04-03T09:11:39Z</time></trkpt><trkpt lat="38.92767970873353" lon="-9.236478581959338"><ele>260.0</ele><time>2026-04-03T09:11:42Z</time></trkpt><trkpt lat="38.92770588847785" lon="-9.236598834064566"><ele>260.0</ele><time>2026-04-03T09:13:12Z</time></trkpt><trkpt lat="38.9276662529726" lon="-9.236664098011241"><ele>260.0</ele><time>2026-04-03T09:13:16Z</time></trkpt><trkpt lat="38.92759075530732" lon="-9.236664412822794"><ele>260.0</ele><time>2026-04-03T09:13:45Z</time></trkpt><trkpt lat="38.92753495143793" lon="-9.236611012611375"><ele>258.6666666666667</ele><time>2026-04-03T09:13:47Z</time></trkpt><trkpt lat="38.927531394631714" lon="-9.236517272507776"><ele>257.33333333333337</ele><time>2026-04-03T09:13:49Z</time></trkpt><trkpt lat="38.92751237626595" lon="-9.23637024840509"><ele>256.0</ele><time>2026-04-03T09:13:51Z</time></trkpt><trkpt lat="38.92748726152072" lon="-9.236286259393225"><ele>254.66666666666669</ele><time>2026-04-03T09:13:52Z</time></trkpt><trkpt lat="38.9274339108164" lon="-9.23623616014288"><ele>253.33333333333334</ele><time>2026-04-03T09:13:55Z</time></trkpt><trkpt lat="38.92738103401963" lon="-9.23615012121822"><ele>252.0</ele><time>2026-04-03T09:13:58Z</time></trkpt><trkpt lat="38.92733925027554" lon="-9.236021211594371"><ele>252.0</ele><time>2026-04-03T09:14:00Z</time></trkpt><trkpt lat="38.92736934865488" lon="-9.235928410927391"><ele>252.0</ele><time>2026-04-03T09:14:01Z</time></trkpt><trkpt lat="38.92740836661872" lon="-9.235823584817085"><ele>252.0</ele><time>2026-04-03T09:14:02Z</time></trkpt><trkpt lat="38.9274385724791" lon="-9.235718364983972"><ele>252.0</ele><time>2026-04-03T09:14:03Z</time></trkpt><trkpt lat="38.92745271884634" lon="-9.235590488543556"><ele>252.0</ele><time>2026-04-03T09:14:04Z</time></trkpt><trkpt lat="38.92744687199881" lon="-9.235454990164753"><ele>252.25</ele><time>2026-04-03T09:14:05Z</time></trkpt><trkpt lat="38.92743842228108" lon="-9.235333604842479"><ele>252.5</ele><time>2026-04-03T09:14:06Z</time></trkpt><trkpt lat="38.92744273588036" lon="-9.235173378104845"><ele>252.75</ele><time>2026-04-03T09:14:07Z</time></trkpt><trkpt lat="38.92744439587771" lon="-9.23497163411308"><ele>253.0</ele><time>2026-04-03T09:14:08Z</time></trkpt><trkpt lat="38.927436903424066" lon="-9.234748190474942"><ele>254.33333333333331</ele><time>2026-04-03T09:14:09Z</time></trkpt><trkpt lat="38.92744095691422" lon="-9.23451187156248"><ele>255.66666666666669</ele><time>2026-04-03T09:14:10Z</time></trkpt><trkpt lat="38.927456142230305" lon="-9.23428055128445"><ele>257.0</ele><time>2026-04-03T09:14:11Z</time></trkpt><trkpt lat="38.927467807846156" lon="-9.234100453318593"><ele>257.0</ele><time>2026-04-03T09:14:12Z</time></trkpt><trkpt lat="38.92746779265306" lon="-9.233977283099772"><ele>257.0</ele><time>2026-04-03T09:14:13Z</time></trkpt><trkpt lat="38.927439807099184" lon="-9.233867777891653"><ele>257.0</ele><time>2026-04-03T09:14:14Z</time></trkpt><trkpt lat="38.92741349919298" lon="-9.233767615053102"><ele>257.0</ele><time>2026-04-03T09:14:15Z</time></trkpt><trkpt lat="38.9274042513645" lon="-9.233680854499834"><ele>257.0</ele><time>2026-04-03T09:14:16Z</time></trkpt><trkpt lat="38.92743248510223" lon="-9.233603628536677"><ele>257.0</ele><time>2026-04-03T09:14:17Z</time></trkpt><trkpt lat="38.927504063738475" lon="-9.233545429552455"><ele>254.6</ele><time>2026-04-03T09:14:18Z</time></trkpt><trkpt lat="38.927596764520516" lon="-9.233544227389404"><ele>252.2</ele><time>2026-04-03T09:14:19Z</time></trkpt><trkpt lat="38.92769072549866" lon="-9.233603142051221"><ele>249.8</ele><time>2026-04-03T09:14:20Z</time></trkpt><trkpt lat="38.927759688023684" lon="-9.233719041633298"><ele>247.4</ele><time>2026-04-03T09:14:21Z</time></trkpt><trkpt lat="38.9278346421013" lon="-9.233833393422495"><ele>245.0</ele><time>2026-04-03T09:14:22Z</time></trkpt><trkpt lat="38.92792388149139" lon="-9.233918872469562"><ele>245.2</ele><time>2026-04-03T09:14:23Z</time></trkpt><trkpt lat="38.928005287927895" lon="-9.23403291366281"><ele>245.4</ele><time>2026-04-03T09:14:24Z</time></trkpt><trkpt lat="38.92801247746068" lon="-9.23418202856493"><ele>245.60000000000002</ele><time>2026-04-03T09:14:25Z</time></trkpt><trkpt lat="38.928010151702914" lon="-9.234310566825673"><ele>245.8</ele><time>2026-04-03T09:14:26Z</time></trkpt><trkpt lat="38.928015986786455" lon="-9.234419912331697"><ele>246.0</ele><time>2026-04-03T09:14:27Z</time></trkpt><trkpt lat="38.92802519283126" lon="-9.234525908561176"><ele>246.0</ele><time>2026-04-03T09:14:28Z</time></trkpt><trkpt lat="38.928045731371334" lon="-9.234616504309214"><ele>246.00000000000003</ele><time>2026-04-03T09:14:29Z</time></trkpt><trkpt lat="38.928079230821425" lon="-9.234712532578374"><ele>246.00000000000003</ele><time>2026-04-03T09:14:30Z</time></trkpt><trkpt lat="38.92825368429293" lon="-9.234709724786127"><ele>246.0</ele><time>2026-04-03T09:14:31Z</time></trkpt><trkpt lat="38.92834869476861" lon="-9.234791855409709"><ele>246.0</ele><time>2026-04-03T09:14:32Z</time></trkpt><trkpt lat="38.92843873368759" lon="-9.234893967061764"><ele>248.4</ele><time>2026-04-03T09:14:33Z</time></trkpt><trkpt lat="38.92852465763701" lon="-9.234981361544916"><ele>250.8</ele><time>2026-04-03T09:14:34Z</time></trkpt><trkpt lat="38.92860922767871" lon="-9.2350501925643"><ele>253.20000000000002</ele><time>2026-04-03T09:14:35Z</time></trkpt><trkpt lat="38.92870888279942" lon="-9.235037666534577"><ele>255.60000000000002</ele><time>2026-04-03T09:14:36Z</time></trkpt><trkpt lat="38.928806299028324" lon="-9.234996385940889"><ele>258.0</ele><time>2026-04-03T09:14:37Z</time></trkpt><trkpt lat="38.92886897254473" lon="-9.23489762019991"><ele>253.5</ele><time>2026-04-03T09:14:38Z</time></trkpt><trkpt lat="38.9289318571932" lon="-9.23478188349062"><ele>249.0</ele><time>2026-04-03T09:14:39Z</time></trkpt><trkpt lat="38.929001484492474" lon="-9.234655787678172"><ele>244.5</ele><time>2026-04-03T09:14:40Z</time></trkpt><trkpt lat="38.929100239871666" lon="-9.234520933670204"><ele>240.0</ele><time>2026-04-03T09:14:41Z</time></trkpt><trkpt lat="38.929174257760614" lon="-9.234393828815593"><ele>239.5</ele><time>2026-04-03T09:14:42Z</time></trkpt><trkpt lat="38.92925779506616" lon="-9.234310613163085"><ele>239.0</ele><time>2026-04-03T09:14:43Z</time></trkpt><trkpt lat="38.929364933746015" lon="-9.23427312297539"><ele>238.5</ele><time>2026-04-03T09:14:44Z</time></trkpt><trkpt lat="38.92948170415103" lon="-9.234261312526305"><ele>238.0</ele><time>2026-04-03T09:14:45Z</time></trkpt><trkpt lat="38.92961004201513" lon="-9.23428199518882"><ele>238.0</ele><time>2026-04-03T09:14:46Z</time></trkpt><trkpt lat="38.9297408040337" lon="-9.234317817154619"><ele>238.0</ele><time>2026-04-03T09:14:47Z</time></trkpt><trkpt lat="38.92986452970923" lon="-9.234354062528933"><ele>238.0</ele><time>2026-04-03T09:14:48Z</time></trkpt><trkpt lat="38.929974211386345" lon="-9.23432249860594"><ele>238.0</ele><time>2026-04-03T09:14:49Z</time></trkpt><trkpt lat="38.930076744020866" lon="-9.234285552274237"><ele>236.60000000000002</ele><time>2026-04-03T09:14:50Z</time></trkpt><trkpt lat="38.930183074700935" lon="-9.23425930608107"><ele>235.20000000000002</ele><time>2026-04-03T09:14:51Z</time></trkpt><trkpt lat="38.93028317372709" lon="-9.234231487689748"><ele>233.8</ele><time>2026-04-03T09:14:52Z</time></trkpt><trkpt lat="38.930399980214254" lon="-9.23423034219803"><ele>232.4</ele><time>2026-04-03T09:14:53Z</time></trkpt><trkpt lat="38.93049192704612" lon="-9.234291473460512"><ele>231.0</ele><time>2026-04-03T09:14:54Z</time></trkpt><trkpt lat="38.93058691688905" lon="-9.234371904019449"><ele>231.0</ele><time>2026-04-03T09:14:55Z</time></trkpt><trkpt lat="38.93069247139287" lon="-9.234457690177086"><ele>231.0</ele><time>2026-04-03T09:14:56Z</time></trkpt><trkpt lat="38.93082336558561" lon="-9.234530524788278"><ele>231.0</ele><time>2026-04-03T09:14:57Z</time></trkpt><trkpt lat="38.93096311072927" lon="-9.23451926651786"><ele>231.0</ele><time>2026-04-03T09:14:58Z</time></trkpt><trkpt lat="38.93109931267487" lon="-9.234509091614726"><ele>230.0</ele><time>2026-04-03T09:14:59Z</time></trkpt><trkpt lat="38.93122099414372" lon="-9.234486336433415"><ele>229.0</ele><time>2026-04-03T09:15:00Z</time></trkpt><trkpt lat="38.931355176225615" lon="-9.234463688535516"><ele>228.0</ele><time>2026-04-03T09:15:01Z</time></trkpt><trkpt lat="38.93149345369313" lon="-9.234473879567062"><ele>227.0</ele><time>2026-04-03T09:15:02Z</time></trkpt><trkpt lat="38.93164391579327" lon="-9.234521730756466"><ele>225.66666666666669</ele><time>2026-04-03T09:15:03Z</time></trkpt><trkpt lat="38.931793824235584" lon="-9.23458753135041"><ele>224.33333333333331</ele><time>2026-04-03T09:15:04Z</time></trkpt><trkpt lat="38.9319471814101" lon="-9.234659020812"><ele>223.0</ele><time>2026-04-03T09:15:05Z</time></trkpt><trkpt lat="38.93208510004113" lon="-9.234710560464002"><ele>223.0</ele><time>2026-04-03T09:15:06Z</time></trkpt><trkpt lat="38.93220272581167" lon="-9.23475222474039"><ele>223.0</ele><time>2026-04-03T09:15:07Z</time></trkpt><trkpt lat="38.93228933975289" lon="-9.234805081369455"><ele>223.0</ele><time>2026-04-03T09:15:08Z</time></trkpt><trkpt lat="38.932353235789186" lon="-9.234898751805252"><ele>223.0</ele><time>2026-04-03T09:15:09Z</time></trkpt><trkpt lat="38.932365568736024" lon="-9.235032782111178"><ele>223.0</ele><time>2026-04-03T09:15:10Z</time></trkpt><trkpt lat="38.932363475178406" lon="-9.235177199309819"><ele>223.25</ele><time>2026-04-03T09:15:11Z</time></trkpt><trkpt lat="38.93237325301868" lon="-9.235345075142577"><ele>223.5</ele><time>2026-04-03T09:15:12Z</time></trkpt><trkpt lat="38.93235524059812" lon="-9.235494204162537"><ele>223.75</ele><time>2026-04-03T09:15:13Z</time></trkpt><trkpt lat="38.93238154419997" lon="-9.235627164057684"><ele>224.0</ele><time>2026-04-03T09:15:14Z</time></trkpt><trkpt lat="38.93245695195277" lon="-9.235712564435005"><ele>223.5</ele><time>2026-04-03T09:15:15Z</time></trkpt><trkpt lat="38.93256108781501" lon="-9.23575816679736"><ele>223.0</ele><time>2026-04-03T09:15:16Z</time></trkpt><trkpt lat="38.93267521077726" lon="-9.235814210832245"><ele>222.5</ele><time>2026-04-03T09:15:17Z</time></trkpt><trkpt lat="38.93279971693142" lon="-9.23587001810697"><ele>222.0</ele><time>2026-04-03T09:15:18Z</time></trkpt><trkpt lat="38.93292090215212" lon="-9.235890577016354"><ele>222.0</ele><time>2026-04-03T09:15:19Z</time></trkpt><trkpt lat="38.933017208799434" lon="-9.23582566255105"><ele>222.0</ele><time>2026-04-03T09:15:20Z</time></trkpt><trkpt lat="38.93311508357304" lon="-9.235726364519575"><ele>222.0</ele><time>2026-04-03T09:15:21Z</time></trkpt><trkpt lat="38.93322999369476" lon="-9.23562323529468"><ele>222.0</ele><time>2026-04-03T09:15:22Z</time></trkpt><trkpt lat="38.93334406525011" lon="-9.235528450477478"><ele>221.33333333333331</ele><time>2026-04-03T09:15:23Z</time></trkpt><trkpt lat="38.93345923300922" lon="-9.235409369715889"><ele>220.66666666666666</ele><time>2026-04-03T09:15:24Z</time></trkpt><trkpt lat="38.93356982355724" lon="-9.235276273940238"><ele>220.0</ele><time>2026-04-03T09:15:25Z</time></trkpt><trkpt lat="38.933694790561624" lon="-9.235147774446794"><ele>220.0</ele><time>2026-04-03T09:15:26Z</time></trkpt><trkpt lat="38.93381869951125" lon="-9.235021035402701"><ele>220.0</ele><time>2026-04-03T09:15:27Z</time></trkpt><trkpt lat="38.93392588628855" lon="-9.234908860320862"><ele>220.0</ele><time>2026-04-03T09:15:28Z</time></trkpt><trkpt lat="38.93402680611503" lon="-9.234801447299233"><ele>220.0</ele><time>2026-04-03T09:15:29Z</time></trkpt><trkpt lat="38.9341019392327" lon="-9.234662415480132"><ele>220.5</ele><time>2026-04-03T09:15:30Z</time></trkpt><trkpt lat="38.93416836664866" lon="-9.234510162805773"><ele>221.0</ele><time>2026-04-03T09:15:31Z</time></trkpt><trkpt lat="38.9342146249355" lon="-9.234328334765515"><ele>221.5</ele><time>2026-04-03T09:15:32Z</time></trkpt><trkpt lat="38.934239261460135" lon="-9.234162278762053"><ele>222.0</ele><time>2026-04-03T09:15:33Z</time></trkpt><trkpt lat="38.93426193337376" lon="-9.233981599517195"><ele>222.25</ele><time>2026-04-03T09:15:34Z</time></trkpt><trkpt lat="38.934282234691494" lon="-9.233804582923838"><ele>222.5</ele><time>2026-04-03T09:15:35Z</time></trkpt><trkpt lat="38.93429978298635" lon="-9.233637497408537"><ele>222.75</ele><time>2026-04-03T09:15:36Z</time></trkpt><trkpt lat="38.93433730752901" lon="-9.233476338111394"><ele>223.0</ele><time>2026-04-03T09:15:37Z</time></trkpt><trkpt lat="38.93436047323623" lon="-9.233318106289497"><ele>223.0</ele><time>2026-04-03T09:15:38Z</time></trkpt><trkpt lat="38.934410620915095" lon="-9.233182448340395"><ele>223.0</ele><time>2026-04-03T09:15:39Z</time></trkpt><trkpt lat="38.934496455334305" lon="-9.233054931998485"><ele>223.0</ele><time>2026-04-03T09:15:40Z</time></trkpt><trkpt lat="38.934584586611834" lon="-9.232928596950877"><ele>223.0</ele><time>2026-04-03T09:15:41Z</time></trkpt><trkpt lat="38.93467882832433" lon="-9.232851755804825"><ele>220.5</ele><time>2026-04-03T09:15:42Z</time></trkpt><trkpt lat="38.93477485282583" lon="-9.232775681007722"><ele>218.0</ele><time>2026-04-03T09:15:43Z</time></trkpt><trkpt lat="38.93490292353925" lon="-9.2327456773323"><ele>215.5</ele><time>2026-04-03T09:15:44Z</time></trkpt><trkpt lat="38.93501843655887" lon="-9.232710537937749"><ele>213.0</ele><time>2026-04-03T09:15:45Z</time></trkpt><trkpt lat="38.93513882213553" lon="-9.23271228490395"><ele>211.5</ele><time>2026-04-03T09:15:46Z</time></trkpt><trkpt lat="38.935251806892914" lon="-9.232702744562406"><ele>210.0</ele><time>2026-04-03T09:15:47Z</time></trkpt><trkpt lat="38.93537535818064" lon="-9.232715628289698"><ele>208.5</ele><time>2026-04-03T09:15:48Z</time></trkpt><trkpt lat="38.93548997205631" lon="-9.232789658831765"><ele>207.0</ele><time>2026-04-03T09:15:49Z</time></trkpt><trkpt lat="38.935585781595535" lon="-9.232886413912881"><ele>207.0</ele><time>2026-04-03T09:15:50Z</time></trkpt><trkpt lat="38.93567332981682" lon="-9.23297802713948"><ele>207.0</ele><time>2026-04-03T09:15:51Z</time></trkpt><trkpt lat="38.93577050601744" lon="-9.233056830892373"><ele>207.0</ele><time>2026-04-03T09:15:52Z</time></trkpt><trkpt lat="38.93588124911254" lon="-9.233084521779748"><ele>207.0</ele><time>2026-04-03T09:15:53Z</time></trkpt><trkpt lat="38.935978631337655" lon="-9.233031282997151"><ele>207.0</ele><time>2026-04-03T09:15:54Z</time></trkpt><trkpt lat="38.93602886656804" lon="-9.232885281779396"><ele>208.25</ele><time>2026-04-03T09:15:55Z</time></trkpt><trkpt lat="38.93608634617177" lon="-9.232754110900302"><ele>209.5</ele><time>2026-04-03T09:15:56Z</time></trkpt><trkpt lat="38.936155086916656" lon="-9.232623790636461"><ele>210.75</ele><time>2026-04-03T09:15:57Z</time></trkpt><trkpt lat="38.93624615301886" lon="-9.232498547582775"><ele>212.0</ele><time>2026-04-03T09:15:58Z</time></trkpt><trkpt lat="38.936343962657105" lon="-9.232389306282398"><ele>212.0</ele><time>2026-04-03T09:15:59Z</time></trkpt><trkpt lat="38.9364651224711" lon="-9.232321127672934"><ele>212.0</ele><time>2026-04-03T09:16:00Z</time></trkpt><trkpt lat="38.93659236200653" lon="-9.232279952419598"><ele>212.0</ele><time>2026-04-03T09:16:01Z</time></trkpt><trkpt lat="38.936714498986255" lon="-9.232245109011952"><ele>212.0</ele><time>2026-04-03T09:16:02Z</time></trkpt><trkpt lat="38.93681897846841" lon="-9.232211071886463"><ele>210.50000000000003</ele><time>2026-04-03T09:16:03Z</time></trkpt><trkpt lat="38.936902117343564" lon="-9.232185014506022"><ele>209.0</ele><time>2026-04-03T09:16:04Z</time></trkpt><trkpt lat="38.93698262630678" lon="-9.232154469628624"><ele>207.5</ele><time>2026-04-03T09:16:05Z</time></trkpt><trkpt lat="38.937055535111824" lon="-9.23210930126191"><ele>206.0</ele><time>2026-04-03T09:16:06Z</time></trkpt><trkpt lat="38.93711272144386" lon="-9.232072179568908"><ele>204.50000000000003</ele><time>2026-04-03T09:16:08Z</time></trkpt><trkpt lat="38.937234841527754" lon="-9.232063612875734"><ele>203.0</ele><time>2026-04-03T09:16:29Z</time></trkpt><trkpt lat="38.93731370325375" lon="-9.232057242566368"><ele>203.0</ele><time>2026-04-03T09:16:30Z</time></trkpt><trkpt lat="38.93739494640359" lon="-9.232046777182326"><ele>203.0</ele><time>2026-04-03T09:16:31Z</time></trkpt><trkpt lat="38.937507218143594" lon="-9.232033390257207"><ele>203.0</ele><time>2026-04-03T09:16:32Z</time></trkpt><trkpt lat="38.93760578075181" lon="-9.232024584781103"><ele>203.0</ele><time>2026-04-03T09:16:33Z</time></trkpt><trkpt lat="38.93771678523851" lon="-9.231988991858005"><ele>203.0</ele><time>2026-04-03T09:16:34Z</time></trkpt><trkpt lat="38.93783681153912" lon="-9.231945908986576"><ele>203.60000000000002</ele><time>2026-04-03T09:16:35Z</time></trkpt><trkpt lat="38.937934784104094" lon="-9.231908656124551"><ele>204.20000000000002</ele><time>2026-04-03T09:16:36Z</time></trkpt><trkpt lat="38.93800582741012" lon="-9.23184816714124"><ele>204.8</ele><time>2026-04-03T09:16:37Z</time></trkpt><trkpt lat="38.93805343564215" lon="-9.231755743537025"><ele>205.4</ele><time>2026-04-03T09:16:38Z</time></trkpt><trkpt lat="38.938080204628854" lon="-9.23166405964814"><ele>206.0</ele><time>2026-04-03T09:16:39Z</time></trkpt><trkpt lat="38.938176610321" lon="-9.231569332550452"><ele>206.0</ele><time>2026-04-03T09:16:41Z</time></trkpt><trkpt lat="38.93830238272328" lon="-9.231639101752936"><ele>206.0</ele><time>2026-04-03T09:16:43Z</time></trkpt><trkpt lat="38.93836353892369" lon="-9.231708188134562"><ele>206.0</ele><time>2026-04-03T09:16:44Z</time></trkpt><trkpt lat="38.938409437057544" lon="-9.231781004925095"><ele>206.0</ele><time>2026-04-03T09:16:45Z</time></trkpt><trkpt lat="38.93849726033748" lon="-9.231746287550372"><ele>206.0</ele><time>2026-04-03T09:16:46Z</time></trkpt><trkpt lat="38.93857745532965" lon="-9.231728159196653"><ele>206.0</ele><time>2026-04-03T09:16:47Z</time></trkpt><trkpt lat="38.93866566471019" lon="-9.23170395005159"><ele>206.0</ele><time>2026-04-03T09:16:48Z</time></trkpt><trkpt lat="38.93876794444956" lon="-9.231677831563996"><ele>206.0</ele><time>2026-04-03T09:16:49Z</time></trkpt><trkpt lat="38.93885587906474" lon="-9.231671107234497"><ele>206.0</ele><time>2026-04-03T09:16:50Z</time></trkpt><trkpt lat="38.93893348757557" lon="-9.231631495249479"><ele>206.0</ele><time>2026-04-03T09:16:51Z</time></trkpt><trkpt lat="38.939016691017756" lon="-9.231622167986638"><ele>206.00000000000003</ele><time>2026-04-03T09:16:52Z</time></trkpt><trkpt lat="38.93909187909408" lon="-9.231582816458719"><ele>206.0</ele><time>2026-04-03T09:16:53Z</time></trkpt><trkpt lat="38.93916224745195" lon="-9.23154801142812"><ele>206.0</ele><time>2026-04-03T09:16:54Z</time></trkpt><trkpt lat="38.939235812389775" lon="-9.231521033080762"><ele>206.0</ele><time>2026-04-03T09:16:55Z</time></trkpt><trkpt lat="38.9393205047268" lon="-9.231507198602758"><ele>206.00000000000003</ele><time>2026-04-03T09:16:56Z</time></trkpt><trkpt lat="38.93941410260934" lon="-9.231468668266542"><ele>206.0</ele><time>2026-04-03T09:16:57Z</time></trkpt><trkpt lat="38.93951708364124" lon="-9.231431579751177"><ele>204.20000000000002</ele><time>2026-04-03T09:16:58Z</time></trkpt><trkpt lat="38.93961986062061" lon="-9.23139835616847"><ele>202.4</ele><time>2026-04-03T09:16:59Z</time></trkpt><trkpt lat="38.939715295764714" lon="-9.231377251186471"><ele>200.6</ele><time>2026-04-03T09:17:00Z</time></trkpt><trkpt lat="38.939806072136115" lon="-9.231371596973979"><ele>198.8</ele><time>2026-04-03T09:17:01Z</time></trkpt><trkpt lat="38.939890445448675" lon="-9.231359654475416"><ele>197.0</ele><time>2026-04-03T09:17:02Z</time></trkpt><trkpt lat="38.9399727640773" lon="-9.231347559645526"><ele>197.00000000000003</ele><time>2026-04-03T09:17:03Z</time></trkpt><trkpt lat="38.940044068667284" lon="-9.231329576733977"><ele>197.0</ele><time>2026-04-03T09:17:04Z</time></trkpt><trkpt lat="38.940106004419654" lon="-9.231309204978453"><ele>197.0</ele><time>2026-04-03T09:17:05Z</time></trkpt><trkpt lat="38.94022413956591" lon="-9.231268181560296"><ele>197.0</ele><time>2026-04-03T09:17:07Z</time></trkpt><trkpt lat="38.940295699613365" lon="-9.231250302555027"><ele>197.00000000000003</ele><time>2026-04-03T09:17:08Z</time></trkpt><trkpt lat="38.94037561995335" lon="-9.231226117329868"><ele>197.0</ele><time>2026-04-03T09:17:09Z</time></trkpt><trkpt lat="38.940458622067624" lon="-9.231205208136084"><ele>196.6</ele><time>2026-04-03T09:17:10Z</time></trkpt><trkpt lat="38.94057603304627" lon="-9.2311676959506"><ele>196.2</ele><time>2026-04-03T09:17:12Z</time></trkpt><trkpt lat="38.940678327876256" lon="-9.231131582242718"><ele>195.8</ele><time>2026-04-03T09:17:14Z</time></trkpt><trkpt lat="38.94075654847523" lon="-9.231071575626384"><ele>195.4</ele><time>2026-04-03T09:17:16Z</time></trkpt><trkpt lat="38.94079595332888" lon="-9.23100607053285"><ele>195.0</ele><time>2026-04-03T09:17:19Z</time></trkpt><trkpt lat="38.94080100180645" lon="-9.231149540746571"><ele>195.0</ele><time>2026-04-03T09:17:22Z</time></trkpt><trkpt lat="38.94074063606309" lon="-9.231184407213027"><ele>195.0</ele><time>2026-04-03T09:17:23Z</time></trkpt><trkpt lat="38.94066480275165" lon="-9.23119898123208"><ele>195.0</ele><time>2026-04-03T09:17:24Z</time></trkpt><trkpt lat="38.940569697445675" lon="-9.231221268135787"><ele>195.0</ele><time>2026-04-03T09:17:25Z</time></trkpt><trkpt lat="38.94047516693215" lon="-9.231243202535115"><ele>195.0</ele><time>2026-04-03T09:17:26Z</time></trkpt><trkpt lat="38.94037212195163" lon="-9.231269612730324"><ele>195.0</ele><time>2026-04-03T09:17:27Z</time></trkpt><trkpt lat="38.94023515279494" lon="-9.231205949334571"><ele>195.0</ele><time>2026-04-03T09:17:28Z</time></trkpt><trkpt lat="38.940111822529786" lon="-9.231245458356597"><ele>195.0</ele><time>2026-04-03T09:17:29Z</time></trkpt><trkpt lat="38.940001106193385" lon="-9.231268588450563"><ele>195.0</ele><time>2026-04-03T09:17:30Z</time></trkpt><trkpt lat="38.93988032588928" lon="-9.231402814032599"><ele>195.0</ele><time>2026-04-03T09:17:31Z</time></trkpt><trkpt lat="38.93974676812671" lon="-9.231427534098263"><ele>195.5</ele><time>2026-04-03T09:17:32Z</time></trkpt><trkpt lat="38.93962649829752" lon="-9.23144623878002"><ele>196.0</ele><time>2026-04-03T09:17:33Z</time></trkpt><trkpt lat="38.93951788339028" lon="-9.231476328816926"><ele>196.5</ele><time>2026-04-03T09:17:34Z</time></trkpt><trkpt lat="38.93941147651186" lon="-9.231517076928744"><ele>197.0</ele><time>2026-04-03T09:17:35Z</time></trkpt><trkpt lat="38.93929987841205" lon="-9.23155679645735"><ele>199.25</ele><time>2026-04-03T09:17:36Z</time></trkpt><trkpt lat="38.93918525804397" lon="-9.23159473258743"><ele>201.5</ele><time>2026-04-03T09:17:37Z</time></trkpt><trkpt lat="38.939071461449636" lon="-9.231632185345669"><ele>203.75</ele><time>2026-04-03T09:17:38Z</time></trkpt><trkpt lat="38.93895112039339" lon="-9.231672486571151"><ele>206.0</ele><time>2026-04-03T09:17:39Z</time></trkpt><trkpt lat="38.93882556682222" lon="-9.231704223497323"><ele>206.0</ele><time>2026-04-03T09:17:40Z</time></trkpt><trkpt lat="38.93867797556891" lon="-9.231743539906999"><ele>206.0</ele><time>2026-04-03T09:17:41Z</time></trkpt><trkpt lat="38.938531700499084" lon="-9.231781835197719"><ele>206.0</ele><time>2026-04-03T09:17:42Z</time></trkpt><trkpt lat="38.93839267710932" lon="-9.231831434054525"><ele>206.0</ele><time>2026-04-03T09:17:43Z</time></trkpt><trkpt lat="38.93828802185761" lon="-9.231885856365304"><ele>206.0</ele><time>2026-04-03T09:17:44Z</time></trkpt><trkpt lat="38.938176948805385" lon="-9.231941505609312"><ele>206.0</ele><time>2026-04-03T09:17:45Z</time></trkpt><trkpt lat="38.93808177757533" lon="-9.231972289099394"><ele>206.0</ele><time>2026-04-03T09:17:46Z</time></trkpt><trkpt lat="38.93798810970228" lon="-9.231981420736808"><ele>206.0</ele><time>2026-04-03T09:17:47Z</time></trkpt><trkpt lat="38.93790145527722" lon="-9.231977658008526"><ele>206.0</ele><time>2026-04-03T09:17:48Z</time></trkpt><trkpt lat="38.937835222607276" lon="-9.232000110269269"><ele>206.0</ele><time>2026-04-03T09:17:49Z</time></trkpt><trkpt lat="38.93779662865322" lon="-9.232083545380053"><ele>206.0</ele><time>2026-04-03T09:17:52Z</time></trkpt><trkpt lat="38.937929180441955" lon="-9.232118606358815"><ele>206.0</ele><time>2026-04-03T09:17:54Z</time></trkpt><trkpt lat="38.93802687100267" lon="-9.232098593132076"><ele>206.0</ele><time>2026-04-03T09:17:55Z</time></trkpt><trkpt lat="38.93813408171302" lon="-9.232096716443792"><ele>206.0</ele><time>2026-04-03T09:17:56Z</time></trkpt><trkpt lat="38.938229649326885" lon="-9.232099841588312"><ele>206.0</ele><time>2026-04-03T09:17:57Z</time></trkpt><trkpt lat="38.938317677946046" lon="-9.232088533663347"><ele>206.0</ele><time>2026-04-03T09:17:58Z</time></trkpt><trkpt lat="38.93839877860096" lon="-9.232055028113761"><ele>206.0</ele><time>2026-04-03T09:17:59Z</time></trkpt><trkpt lat="38.93848086349592" lon="-9.23201066025121"><ele>206.0</ele><time>2026-04-03T09:18:00Z</time></trkpt><trkpt lat="38.938539953961715" lon="-9.231736636656617"><ele>206.0</ele><time>2026-04-03T09:18:01Z</time></trkpt><trkpt lat="38.93863012855282" lon="-9.23171325714025"><ele>206.0</ele><time>2026-04-03T09:18:02Z</time></trkpt><trkpt lat="38.93871597138909" lon="-9.231690841027406"><ele>206.0</ele><time>2026-04-03T09:18:03Z</time></trkpt><trkpt lat="38.93878218223866" lon="-9.231674267747499"><ele>206.0</ele><time>2026-04-03T09:18:04Z</time></trkpt><trkpt lat="38.9388606609548" lon="-9.231685677322426"><ele>206.0</ele><time>2026-04-03T09:18:06Z</time></trkpt><trkpt lat="38.93930694290211" lon="-9.231794368218809"><ele>204.0</ele><time>2026-04-03T09:18:07Z</time></trkpt><trkpt lat="38.93953331309544" lon="-9.232031057480285"><ele>202.0</ele><time>2026-04-03T09:18:08Z</time></trkpt><trkpt lat="38.93964042567113" lon="-9.232239331972853"><ele>205.0</ele><time>2026-04-03T09:18:10Z</time></trkpt><trkpt lat="38.939654045495935" lon="-9.23233641367633"><ele>208.0</ele><time>2026-04-03T09:18:11Z</time></trkpt><trkpt lat="38.93927492980295" lon="-9.232859045081115"><ele>207.99999999999997</ele><time>2026-04-03T09:18:12Z</time></trkpt><trkpt lat="38.939272192208165" lon="-9.232956555045774"><ele>208.0</ele><time>2026-04-03T09:18:13Z</time></trkpt><trkpt lat="38.93926916005903" lon="-9.233047118925517"><ele>208.0</ele><time>2026-04-03T09:18:14Z</time></trkpt><trkpt lat="38.93924959357032" lon="-9.23312404596289"><ele>208.0</ele><time>2026-04-03T09:18:15Z</time></trkpt><trkpt lat="38.939226755133575" lon="-9.233206889489086"><ele>207.99999999999997</ele><time>2026-04-03T09:18:16Z</time></trkpt><trkpt lat="38.93924912911737" lon="-9.233336170829903"><ele>208.0</ele><time>2026-04-03T09:18:18Z</time></trkpt><trkpt lat="38.93927370924527" lon="-9.233469292103255"><ele>209.2</ele><time>2026-04-03T09:18:20Z</time></trkpt><trkpt lat="38.939274603411846" lon="-9.233622698760351"><ele>210.4</ele><time>2026-04-03T09:18:22Z</time></trkpt><trkpt lat="38.939262018948746" lon="-9.233776280236786"><ele>211.59999999999997</ele><time>2026-04-03T09:18:24Z</time></trkpt><trkpt lat="38.93924165899384" lon="-9.233938957227682"><ele>212.79999999999998</ele><time>2026-04-03T09:18:26Z</time></trkpt><trkpt lat="38.9392281048684" lon="-9.234032979704736"><ele>214.0</ele><time>2026-04-03T09:18:27Z</time></trkpt><trkpt lat="38.93923220238444" lon="-9.234135128625239"><ele>214.85714285714286</ele><time>2026-04-03T09:18:28Z</time></trkpt><trkpt lat="38.93923798516655" lon="-9.234229586965224"><ele>215.71428571428572</ele><time>2026-04-03T09:18:29Z</time></trkpt><trkpt lat="38.93924228375952" lon="-9.234322581151153"><ele>216.57142857142856</ele><time>2026-04-03T09:18:30Z</time></trkpt><trkpt lat="38.939237741000696" lon="-9.234411691721842"><ele>217.42857142857144</ele><time>2026-04-03T09:18:31Z</time></trkpt><trkpt lat="38.93922593873347" lon="-9.234497281801099"><ele>218.28571428571428</ele><time>2026-04-03T09:18:32Z</time></trkpt><trkpt lat="38.939240625139945" lon="-9.23460305203862"><ele>219.14285714285714</ele><time>2026-04-03T09:18:34Z</time></trkpt><trkpt lat="38.93929249449024" lon="-9.234672986327693"><ele>220.0</ele><time>2026-04-03T09:18:36Z</time></trkpt><trkpt lat="38.93932933400419" lon="-9.2347668038191"><ele>221.6</ele><time>2026-04-03T09:18:38Z</time></trkpt><trkpt lat="38.93932498121407" lon="-9.2349264391927"><ele>223.2</ele><time>2026-04-03T09:18:40Z</time></trkpt><trkpt lat="38.93930822520699" lon="-9.235016860533195"><ele>224.8</ele><time>2026-04-03T09:18:42Z</time></trkpt><trkpt lat="38.939293408050254" lon="-9.235109589785667"><ele>226.4</ele><time>2026-04-03T09:18:46Z</time></trkpt><trkpt lat="38.939264209680296" lon="-9.235185189392016"><ele>228.0</ele><time>2026-04-03T09:18:48Z</time></trkpt><trkpt lat="38.93923546887753" lon="-9.23532683375805"><ele>228.0</ele><time>2026-04-03T09:18:50Z</time></trkpt><trkpt lat="38.939228295301575" lon="-9.235412961462503"><ele>228.0</ele><time>2026-04-03T09:18:51Z</time></trkpt><trkpt lat="38.93922419184466" lon="-9.23549996721212"><ele>228.0</ele><time>2026-04-03T09:18:52Z</time></trkpt><trkpt lat="38.939222336591875" lon="-9.235588650777888"><ele>228.0</ele><time>2026-04-03T09:18:53Z</time></trkpt><trkpt lat="38.93921753360973" lon="-9.235672801165464"><ele>228.0</ele><time>2026-04-03T09:18:54Z</time></trkpt><trkpt lat="38.93919207617393" lon="-9.235801793428516"><ele>228.0</ele><time>2026-04-03T09:18:56Z</time></trkpt><trkpt lat="38.939193066333814" lon="-9.235915263834128"><ele>229.8</ele><time>2026-04-03T09:18:58Z</time></trkpt><trkpt lat="38.939201622886394" lon="-9.23604481124671"><ele>231.60000000000002</ele><time>2026-04-03T09:19:00Z</time></trkpt><trkpt lat="38.93927761658675" lon="-9.23614526140047"><ele>233.39999999999998</ele><time>2026-04-03T09:19:02Z</time></trkpt><trkpt lat="38.939336269055175" lon="-9.236181362263505"><ele>235.2</ele><time>2026-04-03T09:19:03Z</time></trkpt><trkpt lat="38.93942548239263" lon="-9.236287787256321"><ele>237.0</ele><time>2026-04-03T09:19:05Z</time></trkpt><trkpt lat="38.93950048121275" lon="-9.236399985995863"><ele>237.39999999999998</ele><time>2026-04-03T09:19:07Z</time></trkpt><trkpt lat="38.93957439048724" lon="-9.236507798763297"><ele>237.79999999999998</ele><time>2026-04-03T09:19:09Z</time></trkpt><trkpt lat="38.93964853746903" lon="-9.23660038209277"><ele>238.2</ele><time>2026-04-03T09:19:11Z</time></trkpt><trkpt lat="38.93971909620888" lon="-9.236667671022282"><ele>238.6</ele><time>2026-04-03T09:19:13Z</time></trkpt><trkpt lat="38.939769895006336" lon="-9.236766264322965"><ele>239.0</ele><time>2026-04-03T09:19:15Z</time></trkpt><trkpt lat="38.93978114103347" lon="-9.23684977281469"><ele>239.00000000000003</ele><time>2026-04-03T09:19:17Z</time></trkpt><trkpt lat="38.93977212855585" lon="-9.236961900186472"><ele>239.0</ele><time>2026-04-03T09:19:20Z</time></trkpt><trkpt lat="38.93975900435423" lon="-9.237081419658878"><ele>239.0</ele><time>2026-04-03T09:19:23Z</time></trkpt><trkpt lat="38.939756234751314" lon="-9.237200197995742"><ele>239.0</ele><time>2026-04-03T09:19:26Z</time></trkpt><trkpt lat="38.939757381174445" lon="-9.237318710827125"><ele>239.00000000000003</ele><time>2026-04-03T09:19:29Z</time></trkpt><trkpt lat="38.93975222058531" lon="-9.237399447206366"><ele>239.0</ele><time>2026-04-03T09:19:31Z</time></trkpt><trkpt lat="38.93972603983271" lon="-9.237533491653675"><ele>238.83333333333334</ele><time>2026-04-03T09:19:34Z</time></trkpt><trkpt lat="38.93970735452982" lon="-9.237665707943876"><ele>238.66666666666669</ele><time>2026-04-03T09:19:36Z</time></trkpt><trkpt lat="38.93968440226613" lon="-9.237753756435795"><ele>238.5</ele><time>2026-04-03T09:19:38Z</time></trkpt><trkpt lat="38.939638350819095" lon="-9.237824618583472"><ele>238.33333333333331</ele><time>2026-04-03T09:19:40Z</time></trkpt><trkpt lat="38.93962474573643" lon="-9.237915871398043"><ele>238.16666666666666</ele><time>2026-04-03T09:19:43Z</time></trkpt><trkpt lat="38.939629138912025" lon="-9.238010949874171"><ele>238.0</ele><time>2026-04-03T09:19:45Z</time></trkpt><trkpt lat="38.9396391172172" lon="-9.23809492151512"><ele>238.66666666666666</ele><time>2026-04-03T09:19:47Z</time></trkpt><trkpt lat="38.939650778339825" lon="-9.238214315584317"><ele>239.33333333333331</ele><time>2026-04-03T09:19:50Z</time></trkpt><trkpt lat="38.93966873695586" lon="-9.238319231886981"><ele>240.0</ele><time>2026-04-03T09:19:52Z</time></trkpt><trkpt lat="38.93965477250684" lon="-9.23841617705998"><ele>240.66666666666669</ele><time>2026-04-03T09:19:54Z</time></trkpt><trkpt lat="38.93964999862417" lon="-9.238505859285127"><ele>241.33333333333334</ele><time>2026-04-03T09:19:56Z</time></trkpt><trkpt lat="38.93964221266597" lon="-9.238614222500996"><ele>242.0</ele><time>2026-04-03T09:19:58Z</time></trkpt><trkpt lat="38.9396436334327" lon="-9.238717883075644"><ele>242.00000000000003</ele><time>2026-04-03T09:20:00Z</time></trkpt><trkpt lat="38.93963530635439" lon="-9.238806141173198"><ele>242.0</ele><time>2026-04-03T09:20:02Z</time></trkpt><trkpt lat="38.93962817998169" lon="-9.23891333965703"><ele>242.0</ele><time>2026-04-03T09:20:05Z</time></trkpt><trkpt lat="38.939645500460784" lon="-9.23882061438517"><ele>242.0</ele><time>2026-04-03T09:20:41Z</time></trkpt><trkpt lat="38.939652002715775" lon="-9.238691069599287"><ele>242.00000000000003</ele><time>2026-04-03T09:20:43Z</time></trkpt><trkpt lat="38.93965307355159" lon="-9.238567999148218"><ele>242.0</ele><time>2026-04-03T09:20:46Z</time></trkpt><trkpt lat="38.93965626793275" lon="-9.238473074132223"><ele>242.00000000000003</ele><time>2026-04-03T09:20:48Z</time></trkpt><trkpt lat="38.93967079009507" lon="-9.238364461044906"><ele>242.0</ele><time>2026-04-03T09:20:51Z</time></trkpt><trkpt lat="38.93967587737579" lon="-9.238268883343"><ele>242.0</ele><time>2026-04-03T09:20:53Z</time></trkpt><trkpt lat="38.93967456638251" lon="-9.238168611504213"><ele>242.0</ele><time>2026-04-03T09:20:55Z</time></trkpt><trkpt lat="38.93964340180096" lon="-9.238088208653377"><ele>242.00000000000003</ele><time>2026-04-03T09:20:57Z</time></trkpt><trkpt lat="38.93965254521808" lon="-9.237988574428623"><ele>242.0</ele><time>2026-04-03T09:20:59Z</time></trkpt><trkpt lat="38.93964200617751" lon="-9.23790690223488"><ele>241.33333333333334</ele><time>2026-04-03T09:21:01Z</time></trkpt><trkpt lat="38.93964987677826" lon="-9.23778250815711"><ele>240.66666666666669</ele><time>2026-04-03T09:21:04Z</time></trkpt><trkpt lat="38.939689561867766" lon="-9.237696897533732"><ele>240.0</ele><time>2026-04-03T09:21:06Z</time></trkpt><trkpt lat="38.93971944718437" lon="-9.237619011874477"><ele>239.33333333333331</ele><time>2026-04-03T09:21:08Z</time></trkpt><trkpt lat="38.93973271080847" lon="-9.237512069588636"><ele>238.66666666666666</ele><time>2026-04-03T09:21:10Z</time></trkpt><trkpt lat="38.939752474234076" lon="-9.237420977270155"><ele>238.0</ele><time>2026-04-03T09:21:12Z</time></trkpt><trkpt lat="38.93976749207635" lon="-9.237316508314898"><ele>238.2</ele><time>2026-04-03T09:21:14Z</time></trkpt><trkpt lat="38.939756300757544" lon="-9.23719679184717"><ele>238.4</ele><time>2026-04-03T09:21:17Z</time></trkpt><trkpt lat="38.93975672743052" lon="-9.23707923427632"><ele>238.59999999999997</ele><time>2026-04-03T09:21:20Z</time></trkpt><trkpt lat="38.93975085622112" lon="-9.236958217317083"><ele>238.79999999999998</ele><time>2026-04-03T09:21:23Z</time></trkpt><trkpt lat="38.939744404557665" lon="-9.236849926959522"><ele>239.0</ele><time>2026-04-03T09:21:26Z</time></trkpt><trkpt lat="38.93972598758744" lon="-9.236730544924695"><ele>239.00000000000003</ele><time>2026-04-03T09:21:29Z</time></trkpt><trkpt lat="38.93970127500149" lon="-9.236653610928936"><ele>239.0</ele><time>2026-04-03T09:21:31Z</time></trkpt><trkpt lat="38.93963922868577" lon="-9.236593108292825"><ele>239.0</ele><time>2026-04-03T09:21:35Z</time></trkpt><trkpt lat="38.939563263658975" lon="-9.23650035990513"><ele>239.0</ele><time>2026-04-03T09:21:37Z</time></trkpt><trkpt lat="38.9394893599316" lon="-9.236368510742098"><ele>239.00000000000003</ele><time>2026-04-03T09:21:39Z</time></trkpt><trkpt lat="38.939448024530165" lon="-9.236299575039236"><ele>239.0</ele><time>2026-04-03T09:21:40Z</time></trkpt><trkpt lat="38.93939575287504" lon="-9.236215031454154"><ele>238.6</ele><time>2026-04-03T09:21:41Z</time></trkpt><trkpt lat="38.93930324942168" lon="-9.236113769825574"><ele>238.2</ele><time>2026-04-03T09:21:43Z</time></trkpt><trkpt lat="38.9392509112693" lon="-9.23605417268671"><ele>237.79999999999998</ele><time>2026-04-03T09:21:44Z</time></trkpt><trkpt lat="38.93916928552575" lon="-9.23594469522455"><ele>237.39999999999998</ele><time>2026-04-03T09:21:46Z</time></trkpt><trkpt lat="38.93917541378143" lon="-9.235790622603893"><ele>237.0</ele><time>2026-04-03T09:21:48Z</time></trkpt><trkpt lat="38.93919893586588" lon="-9.235688721280416"><ele>237.83333333333334</ele><time>2026-04-03T09:21:49Z</time></trkpt><trkpt lat="38.93921151667549" lon="-9.235588423888611"><ele>238.66666666666669</ele><time>2026-04-03T09:21:50Z</time></trkpt><trkpt lat="38.93922114112029" lon="-9.235500173879704"><ele>239.5</ele><time>2026-04-03T09:21:51Z</time></trkpt><trkpt lat="38.93922989961463" lon="-9.235401208820512"><ele>240.33333333333334</ele><time>2026-04-03T09:21:52Z</time></trkpt><trkpt lat="38.93924051551538" lon="-9.235257664565866"><ele>241.16666666666669</ele><time>2026-04-03T09:21:53Z</time></trkpt><trkpt lat="38.93925519871409" lon="-9.235151272133058"><ele>242.0</ele><time>2026-04-03T09:21:54Z</time></trkpt><trkpt lat="38.9392876516737" lon="-9.23503874378074"><ele>239.66666666666669</ele><time>2026-04-03T09:21:56Z</time></trkpt><trkpt lat="38.93931716456165" lon="-9.23492632109692"><ele>237.33333333333334</ele><time>2026-04-03T09:22:01Z</time></trkpt><trkpt lat="38.939327406444946" lon="-9.234844604547742"><ele>235.0</ele><time>2026-04-03T09:22:02Z</time></trkpt><trkpt lat="38.93933639357953" lon="-9.234748907104182"><ele>232.66666666666669</ele><time>2026-04-03T09:22:03Z</time></trkpt><trkpt lat="38.93932504205401" lon="-9.23466474886231"><ele>230.33333333333334</ele><time>2026-04-03T09:22:04Z</time></trkpt><trkpt lat="38.93932511062746" lon="-9.234581039745255"><ele>228.0</ele><time>2026-04-03T09:22:05Z</time></trkpt><trkpt lat="38.93932956054261" lon="-9.234432516815202"><ele>226.4</ele><time>2026-04-03T09:22:07Z</time></trkpt><trkpt lat="38.93929358863364" lon="-9.23429877849799"><ele>224.8</ele><time>2026-04-03T09:22:09Z</time></trkpt><trkpt lat="38.93929468017408" lon="-9.23415998515362"><ele>223.2</ele><time>2026-04-03T09:22:11Z</time></trkpt><trkpt lat="38.93930453452983" lon="-9.234037326543527"><ele>221.6</ele><time>2026-04-03T09:22:13Z</time></trkpt><trkpt lat="38.93932899647673" lon="-9.23392208794282"><ele>220.0</ele><time>2026-04-03T09:22:15Z</time></trkpt><trkpt lat="38.9393625087768" lon="-9.233847829179627"><ele>218.8</ele><time>2026-04-03T09:22:16Z</time></trkpt><trkpt lat="38.93945229499249" lon="-9.233809799427148"><ele>217.6</ele><time>2026-04-03T09:22:18Z</time></trkpt><trkpt lat="38.939534189325485" lon="-9.233816667811903"><ele>216.39999999999998</ele><time>2026-04-03T09:22:20Z</time></trkpt><trkpt lat="38.93963184975453" lon="-9.233811788127152"><ele>215.2</ele><time>2026-04-03T09:22:22Z</time></trkpt><trkpt lat="38.9397280526897" lon="-9.233814110348355"><ele>214.0</ele><time>2026-04-03T09:22:24Z</time></trkpt><trkpt lat="38.93979665434655" lon="-9.233872273310945"><ele>214.0</ele><time>2026-04-03T09:22:26Z</time></trkpt><trkpt lat="38.93967861765605" lon="-9.233851321879424"><ele>213.99999999999997</ele><time>2026-04-03T09:22:46.001Z</time></trkpt><trkpt lat="38.93960244539021" lon="-9.233817836213166"><ele>213.99999999999997</ele><time>2026-04-03T09:22:47.001Z</time></trkpt><trkpt lat="38.93948276884484" lon="-9.233849679942418"><ele>214.0</ele><time>2026-04-03T09:22:49.001Z</time></trkpt><trkpt lat="38.93938104745024" lon="-9.233847153251173"><ele>214.0</ele><time>2026-04-03T09:22:51.001Z</time></trkpt><trkpt lat="38.9392923031366" lon="-9.233906503234122"><ele>215.5</ele><time>2026-04-03T09:22:53.001Z</time></trkpt><trkpt lat="38.93926598815814" lon="-9.234034224916275"><ele>217.0</ele><time>2026-04-03T09:22:55.001Z</time></trkpt><trkpt lat="38.939263362507255" lon="-9.234177825344227"><ele>218.5</ele><time>2026-04-03T09:22:57Z</time></trkpt><trkpt lat="38.93927766776586" lon="-9.234331427088422"><ele>220.0</ele><time>2026-04-03T09:22:59Z</time></trkpt><trkpt lat="38.939302348091964" lon="-9.234486770833499"><ele>220.0</ele><time>2026-04-03T09:23:01Z</time></trkpt><trkpt lat="38.93931170491064" lon="-9.234626527102742"><ele>220.0</ele><time>2026-04-03T09:23:03Z</time></trkpt><trkpt lat="38.93922184968849" lon="-9.234591656451013"><ele>220.0</ele><time>2026-04-03T09:23:05Z</time></trkpt><trkpt lat="38.93919709251374" lon="-9.234511890211891"><ele>220.0</ele><time>2026-04-03T09:23:19Z</time></trkpt><trkpt lat="38.93909927737111" lon="-9.234574007993492"><ele>220.0</ele><time>2026-04-03T09:23:22.001Z</time></trkpt><trkpt lat="38.93896981595224" lon="-9.23459152384677"><ele>221.99999999999997</ele><time>2026-04-03T09:23:24.001Z</time></trkpt><trkpt lat="38.93890708107387" lon="-9.23460025080572"><ele>224.0</ele><time>2026-04-03T09:23:25.001Z</time></trkpt><trkpt lat="38.938808529573585" lon="-9.23456266233085"><ele>226.0</ele><time>2026-04-03T09:23:27.001Z</time></trkpt><trkpt lat="38.93872220034209" lon="-9.234561189188272"><ele>228.0</ele><time>2026-04-03T09:23:29.001Z</time></trkpt><trkpt lat="38.938670969610925" lon="-9.234455152154414"><ele>229.99999999999997</ele><time>2026-04-03T09:23:31.001Z</time></trkpt><trkpt lat="38.93866595602549" lon="-9.23434935051758"><ele>232.0</ele><time>2026-04-03T09:23:44.001Z</time></trkpt><trkpt lat="38.938717404274755" lon="-9.23441582022542"><ele>232.0</ele><time>2026-04-03T09:23:47.001Z</time></trkpt><trkpt lat="38.93870023186432" lon="-9.234533451629735"><ele>232.0</ele><time>2026-04-03T09:23:49.001Z</time></trkpt><trkpt lat="38.93880016722804" lon="-9.234605477801965"><ele>232.0</ele><time>2026-04-03T09:23:51.001Z</time></trkpt><trkpt lat="38.93887443021482" lon="-9.234580227356666"><ele>232.0</ele><time>2026-04-03T09:23:52.001Z</time></trkpt><trkpt lat="38.93893916954733" lon="-9.234591478584885"><ele>232.0</ele><time>2026-04-03T09:23:53.001Z</time></trkpt><trkpt lat="38.9390394922336" lon="-9.234602473863728"><ele>232.0</ele><time>2026-04-03T09:23:55.001Z</time></trkpt><trkpt lat="38.93915659216061" lon="-9.234569338378813"><ele>232.0</ele><time>2026-04-03T09:23:57.001Z</time></trkpt><trkpt lat="38.93923439344302" lon="-9.234530772115047"><ele>232.0</ele><time>2026-04-03T09:23:59.001Z</time></trkpt><trkpt lat="38.93923923974762" lon="-9.234404898871961"><ele>232.0</ele><time>2026-04-03T09:24:01.001Z</time></trkpt><trkpt lat="38.93923294668292" lon="-9.234285909299563"><ele>232.0</ele><time>2026-04-03T09:24:02.001Z</time></trkpt><trkpt lat="38.93923500684647" lon="-9.234163380645695"><ele>229.6</ele><time>2026-04-03T09:24:03.001Z</time></trkpt><trkpt lat="38.93923265623958" lon="-9.234042061944955"><ele>227.2</ele><time>2026-04-03T09:24:04.001Z</time></trkpt><trkpt lat="38.93922973700091" lon="-9.233932125345047"><ele>224.8</ele><time>2026-04-03T09:24:05.001Z</time></trkpt><trkpt lat="38.93923894553363" lon="-9.233772586581676"><ele>222.4</ele><time>2026-04-03T09:24:07.001Z</time></trkpt><trkpt lat="38.939250212512746" lon="-9.233606469374832"><ele>220.0</ele><time>2026-04-03T09:24:09.001Z</time></trkpt><trkpt lat="38.93925214718655" lon="-9.233453063597599"><ele>220.42857142857142</ele><time>2026-04-03T09:24:11.001Z</time></trkpt><trkpt lat="38.93924408786972" lon="-9.233370057778643"><ele>220.85714285714286</ele><time>2026-04-03T09:24:12.001Z</time></trkpt><trkpt lat="38.93923572308011" lon="-9.233272617206671"><ele>221.28571428571428</ele><time>2026-04-03T09:24:13.001Z</time></trkpt><trkpt lat="38.939213810899886" lon="-9.233191806206277"><ele>221.71428571428572</ele><time>2026-04-03T09:24:14.001Z</time></trkpt><trkpt lat="38.939195996109326" lon="-9.233110064724956"><ele>222.14285714285714</ele><time>2026-04-03T09:24:15.001Z</time></trkpt><trkpt lat="38.939198163980805" lon="-9.233023017652773"><ele>222.57142857142856</ele><time>2026-04-03T09:24:16.001Z</time></trkpt><trkpt lat="38.93923138328178" lon="-9.232913097349254"><ele>223.0</ele><time>2026-04-03T09:24:17.001Z</time></trkpt><trkpt lat="38.939249464715346" lon="-9.232792638360364"><ele>221.4</ele><time>2026-04-03T09:24:18.001Z</time></trkpt><trkpt lat="38.93924616342276" lon="-9.232689980882862"><ele>219.8</ele><time>2026-04-03T09:24:19.001Z</time></trkpt><trkpt lat="38.93921478350022" lon="-9.23260294755333"><ele>218.2</ele><time>2026-04-03T09:24:20.001Z</time></trkpt><trkpt lat="38.939225113087524" lon="-9.232449346648554"><ele>216.6</ele><time>2026-04-03T09:24:21.001Z</time></trkpt><trkpt lat="38.93914491256808" lon="-9.232334928642599"><ele>215.0</ele><time>2026-04-03T09:24:22.001Z</time></trkpt><trkpt lat="38.93906226636492" lon="-9.232224200101886"><ele>213.2</ele><time>2026-04-03T09:24:23.001Z</time></trkpt><trkpt lat="38.938974979103214" lon="-9.232112205220147"><ele>211.4</ele><time>2026-04-03T09:24:24.001Z</time></trkpt><trkpt lat="38.93889720197828" lon="-9.232022803598115"><ele>209.60000000000002</ele><time>2026-04-03T09:24:25.001Z</time></trkpt><trkpt lat="38.93882745538786" lon="-9.231945843050479"><ele>207.8</ele><time>2026-04-03T09:24:26Z</time></trkpt><trkpt lat="38.93876420694064" lon="-9.231877073273766"><ele>206.0</ele><time>2026-04-03T09:24:27Z</time></trkpt><trkpt lat="38.93870506675517" lon="-9.231814584539874"><ele>206.0</ele><time>2026-04-03T09:24:28Z</time></trkpt><trkpt lat="38.93864442437533" lon="-9.231750327690529"><ele>206.0</ele><time>2026-04-03T09:24:29Z</time></trkpt><trkpt lat="38.938549506104096" lon="-9.231671825303765"><ele>206.0</ele><time>2026-04-03T09:24:31Z</time></trkpt><trkpt lat="38.93818700312761" lon="-9.23209101230534"><ele>206.00000000000003</ele><time>2026-04-03T09:24:33Z</time></trkpt><trkpt lat="38.93810251539361" lon="-9.232099206729835"><ele>206.0</ele><time>2026-04-03T09:24:34Z</time></trkpt><trkpt lat="38.93801671631589" lon="-9.232090706517026"><ele>206.0</ele><time>2026-04-03T09:24:35Z</time></trkpt><trkpt lat="38.93794288222167" lon="-9.232077261748802"><ele>206.0</ele><time>2026-04-03T09:24:36Z</time></trkpt><trkpt lat="38.93783613180064" lon="-9.232091091254363"><ele>206.00000000000003</ele><time>2026-04-03T09:24:38Z</time></trkpt><trkpt lat="38.937790001224435" lon="-9.232010500752539"><ele>206.0</ele><time>2026-04-03T09:24:40Z</time></trkpt><trkpt lat="38.937830535685414" lon="-9.231936618127282"><ele>206.0</ele><time>2026-04-03T09:24:41Z</time></trkpt><trkpt lat="38.93792004221819" lon="-9.231877849697225"><ele>206.0</ele><time>2026-04-03T09:24:42Z</time></trkpt><trkpt lat="38.93799778008453" lon="-9.231773201350952"><ele>206.0</ele><time>2026-04-03T09:24:43Z</time></trkpt><trkpt lat="38.938050562221946" lon="-9.23166372942792"><ele>206.0</ele><time>2026-04-03T09:24:44Z</time></trkpt><trkpt lat="38.93813199685883" lon="-9.231589506063973"><ele>206.0</ele><time>2026-04-03T09:24:45Z</time></trkpt><trkpt lat="38.93823603131483" lon="-9.231580945216773"><ele>206.0</ele><time>2026-04-03T09:24:46Z</time></trkpt><trkpt lat="38.938337479072615" lon="-9.231628755715771"><ele>206.0</ele><time>2026-04-03T09:24:47Z</time></trkpt><trkpt lat="38.938443192183406" lon="-9.231694905264245"><ele>206.0</ele><time>2026-04-03T09:24:48Z</time></trkpt><trkpt lat="38.9385635402487" lon="-9.231740972107943"><ele>206.0</ele><time>2026-04-03T09:24:49Z</time></trkpt><trkpt lat="38.93869530525314" lon="-9.23175481860501"><ele>206.0</ele><time>2026-04-03T09:24:50Z</time></trkpt><trkpt lat="38.938846871813006" lon="-9.231745787674342"><ele>206.0</ele><time>2026-04-03T09:24:51Z</time></trkpt><trkpt lat="38.93900024811511" lon="-9.231741183219343"><ele>206.0</ele><time>2026-04-03T09:24:52Z</time></trkpt><trkpt lat="38.93913011728332" lon="-9.231723112464646"><ele>206.0</ele><time>2026-04-03T09:24:53Z</time></trkpt><trkpt lat="38.939349807742495" lon="-9.231588377682643"><ele>204.66666666666669</ele><time>2026-04-03T09:24:54Z</time></trkpt><trkpt lat="38.93955799902579" lon="-9.231487071522222"><ele>203.33333333333331</ele><time>2026-04-03T09:24:55Z</time></trkpt><trkpt lat="38.93973606694685" lon="-9.23141840678632"><ele>202.0</ele><time>2026-04-03T09:24:56Z</time></trkpt><trkpt lat="38.93990599636018" lon="-9.231369210835974"><ele>199.66666666666666</ele><time>2026-04-03T09:24:57Z</time></trkpt><trkpt lat="38.94005989153217" lon="-9.231330516564883"><ele>197.33333333333331</ele><time>2026-04-03T09:24:58Z</time></trkpt><trkpt lat="38.94020647259772" lon="-9.231288362437418"><ele>195.0</ele><time>2026-04-03T09:24:59Z</time></trkpt><trkpt lat="38.94034909465754" lon="-9.231246941788761"><ele>195.0</ele><time>2026-04-03T09:25:00Z</time></trkpt><trkpt lat="38.9404944021475" lon="-9.231198346705177"><ele>195.0</ele><time>2026-04-03T09:25:01Z</time></trkpt><trkpt lat="38.9406316184927" lon="-9.23115000626073"><ele>195.0</ele><time>2026-04-03T09:25:02Z</time></trkpt><trkpt lat="38.940759386391086" lon="-9.231072359437915"><ele>195.0</ele><time>2026-04-03T09:25:03Z</time></trkpt><trkpt lat="38.94086348403434" lon="-9.230965694565988"><ele>195.75</ele><time>2026-04-03T09:25:04Z</time></trkpt><trkpt lat="38.94094368271042" lon="-9.2308123482096"><ele>196.5</ele><time>2026-04-03T09:25:05Z</time></trkpt><trkpt lat="38.9409976813421" lon="-9.230632673746443"><ele>197.25</ele><time>2026-04-03T09:25:06Z</time></trkpt><trkpt lat="38.941054929799314" lon="-9.2304585768429"><ele>198.0</ele><time>2026-04-03T09:25:07Z</time></trkpt><trkpt lat="38.941121272852676" lon="-9.230283636809007"><ele>198.0</ele><time>2026-04-03T09:25:08Z</time></trkpt><trkpt lat="38.94117805186358" lon="-9.230151453523616"><ele>198.0</ele><time>2026-04-03T09:25:09Z</time></trkpt><trkpt lat="38.9412284730687" lon="-9.230040475283447"><ele>198.0</ele><time>2026-04-03T09:25:10Z</time></trkpt><trkpt lat="38.94127026211402" lon="-9.229946697993256"><ele>198.0</ele><time>2026-04-03T09:25:11Z</time></trkpt><trkpt lat="38.94130910411827" lon="-9.229862398003938"><ele>198.0</ele><time>2026-04-03T09:25:12Z</time></trkpt><trkpt lat="38.94134531390576" lon="-9.229735305438854"><ele>198.0</ele><time>2026-04-03T09:25:14Z</time></trkpt><trkpt lat="38.94151447331498" lon="-9.229832107793959"><ele>198.0</ele><time>2026-04-03T09:25:15Z</time></trkpt><trkpt lat="38.94162032583448" lon="-9.229851877117355"><ele>198.0</ele><time>2026-04-03T09:25:16Z</time></trkpt><trkpt lat="38.941742388705144" lon="-9.229881573187246"><ele>198.0</ele><time>2026-04-03T09:25:17Z</time></trkpt><trkpt lat="38.94187252344353" lon="-9.229925171963346"><ele>198.5</ele><time>2026-04-03T09:25:18Z</time></trkpt><trkpt lat="38.942007600449394" lon="-9.229945851238675"><ele>199.0</ele><time>2026-04-03T09:25:19Z</time></trkpt><trkpt lat="38.942151573624514" lon="-9.229935949317595"><ele>199.5</ele><time>2026-04-03T09:25:20Z</time></trkpt><trkpt lat="38.94229016726913" lon="-9.22990843026768"><ele>200.0</ele><time>2026-04-03T09:25:21Z</time></trkpt><trkpt lat="38.94240257984248" lon="-9.229881634613736"><ele>200.0</ele><time>2026-04-03T09:25:22Z</time></trkpt><trkpt lat="38.942538350555715" lon="-9.229854903056205"><ele>200.0</ele><time>2026-04-03T09:25:23Z</time></trkpt><trkpt lat="38.94270198491769" lon="-9.229817948609847"><ele>200.0</ele><time>2026-04-03T09:25:24Z</time></trkpt><trkpt lat="38.9428887802172" lon="-9.229758339530472"><ele>200.66666666666669</ele><time>2026-04-03T09:25:25Z</time></trkpt><trkpt lat="38.94307942576016" lon="-9.229703701973293"><ele>201.33333333333331</ele><time>2026-04-03T09:25:26Z</time></trkpt><trkpt lat="38.94325285671706" lon="-9.229669338762141"><ele>202.0</ele><time>2026-04-03T09:25:27.001Z</time></trkpt><trkpt lat="38.9434225310287" lon="-9.22964277378103"><ele>202.0</ele><time>2026-04-03T09:25:28.001Z</time></trkpt><trkpt lat="38.94356650276184" lon="-9.229613798015162"><ele>202.0</ele><time>2026-04-03T09:25:29.001Z</time></trkpt><trkpt lat="38.943693955270845" lon="-9.22955965770074"><ele>202.0</ele><time>2026-04-03T09:25:30.001Z</time></trkpt><trkpt lat="38.94382133341905" lon="-9.22950080270426"><ele>202.0</ele><time>2026-04-03T09:25:31.001Z</time></trkpt><trkpt lat="38.943950910780515" lon="-9.229445099697784"><ele>202.0</ele><time>2026-04-03T09:25:32.001Z</time></trkpt><trkpt lat="38.94407531538648" lon="-9.229467177244638"><ele>202.0</ele><time>2026-04-03T09:25:33.001Z</time></trkpt><trkpt lat="38.944209558161155" lon="-9.229490288276985"><ele>202.0</ele><time>2026-04-03T09:25:34.001Z</time></trkpt><trkpt lat="38.94435512258539" lon="-9.229519348489763"><ele>202.0</ele><time>2026-04-03T09:25:35.001Z</time></trkpt><trkpt lat="38.94450335935363" lon="-9.229535915694068"><ele>202.25</ele><time>2026-04-03T09:25:36.001Z</time></trkpt><trkpt lat="38.94463422519854" lon="-9.229566023581029"><ele>202.5</ele><time>2026-04-03T09:25:37.001Z</time></trkpt><trkpt lat="38.94475175361794" lon="-9.229598956172273"><ele>202.75</ele><time>2026-04-03T09:25:38.001Z</time></trkpt><trkpt lat="38.94484902761495" lon="-9.22964699461012"><ele>203.0</ele><time>2026-04-03T09:25:39.001Z</time></trkpt><trkpt lat="38.94494582637659" lon="-9.229701663399227"><ele>205.25</ele><time>2026-04-03T09:25:40.001Z</time></trkpt><trkpt lat="38.94502835001599" lon="-9.229811285732623"><ele>207.5</ele><time>2026-04-03T09:25:41.001Z</time></trkpt><trkpt lat="38.94511681343029" lon="-9.22993845911847"><ele>209.75</ele><time>2026-04-03T09:25:42.001Z</time></trkpt><trkpt lat="38.945217654976155" lon="-9.230065099959175"><ele>212.0</ele><time>2026-04-03T09:25:43.001Z</time></trkpt><trkpt lat="38.945311834510505" lon="-9.230205971355474"><ele>212.5</ele><time>2026-04-03T09:25:44.001Z</time></trkpt><trkpt lat="38.94539504756035" lon="-9.230346586726174"><ele>213.0</ele><time>2026-04-03T09:25:45.001Z</time></trkpt><trkpt lat="38.94548419885304" lon="-9.230465845100959"><ele>213.5</ele><time>2026-04-03T09:25:46.001Z</time></trkpt><trkpt lat="38.94559073347766" lon="-9.23057193841627"><ele>214.0</ele><time>2026-04-03T09:25:47.001Z</time></trkpt><trkpt lat="38.94571307261523" lon="-9.230660499924422"><ele>215.0</ele><time>2026-04-03T09:25:48.001Z</time></trkpt><trkpt lat="38.9458408591643" lon="-9.230741928190668"><ele>216.0</ele><time>2026-04-03T09:25:49.001Z</time></trkpt><trkpt lat="38.945966535873616" lon="-9.230821277675947"><ele>217.0</ele><time>2026-04-03T09:25:50.001Z</time></trkpt><trkpt lat="38.94608811870375" lon="-9.23091005555769"><ele>218.0</ele><time>2026-04-03T09:25:51.001Z</time></trkpt><trkpt lat="38.94621074660038" lon="-9.231001050338824"><ele>219.5</ele><time>2026-04-03T09:25:52.001Z</time></trkpt><trkpt lat="38.9463317251837" lon="-9.231091712193013"><ele>221.0</ele><time>2026-04-03T09:25:53.001Z</time></trkpt><trkpt lat="38.946453221146506" lon="-9.231165068074622"><ele>222.5</ele><time>2026-04-03T09:25:54.001Z</time></trkpt><trkpt lat="38.94657405050612" lon="-9.231243066760438"><ele>224.0</ele><time>2026-04-03T09:25:55.001Z</time></trkpt><trkpt lat="38.94669578065169" lon="-9.231335222232696"><ele>227.0</ele><time>2026-04-03T09:25:56.001Z</time></trkpt><trkpt lat="38.946821027593295" lon="-9.231422456490094"><ele>230.0</ele><time>2026-04-03T09:25:57.001Z</time></trkpt><trkpt lat="38.946944959697944" lon="-9.23152016467525"><ele>233.0</ele><time>2026-04-03T09:25:58.001Z</time></trkpt><trkpt lat="38.94707460822687" lon="-9.231600706725413"><ele>236.0</ele><time>2026-04-03T09:25:59.001Z</time></trkpt><trkpt lat="38.9472120219149" lon="-9.231695325957325"><ele>236.0</ele><time>2026-04-03T09:26:00.001Z</time></trkpt><trkpt lat="38.94734144224196" lon="-9.231782717775559"><ele>236.0</ele><time>2026-04-03T09:26:01.001Z</time></trkpt><trkpt lat="38.94745255711583" lon="-9.231859279193854"><ele>236.0</ele><time>2026-04-03T09:26:02.001Z</time></trkpt><trkpt lat="38.94755184399056" lon="-9.231934740713506"><ele>236.0</ele><time>2026-04-03T09:26:03.001Z</time></trkpt><trkpt lat="38.94766030608775" lon="-9.232011396073275"><ele>238.75</ele><time>2026-04-03T09:26:04.001Z</time></trkpt><trkpt lat="38.947771457473245" lon="-9.232089044985049"><ele>241.5</ele><time>2026-04-03T09:26:05.001Z</time></trkpt><trkpt lat="38.94788400294262" lon="-9.232172836719474"><ele>244.25</ele><time>2026-04-03T09:26:06.001Z</time></trkpt><trkpt lat="38.94799568729118" lon="-9.232252533027689"><ele>247.0</ele><time>2026-04-03T09:26:07.001Z</time></trkpt><trkpt lat="38.948091105439815" lon="-9.232313976582658"><ele>246.99999999999997</ele><time>2026-04-03T09:26:08Z</time></trkpt><trkpt lat="38.94818139601751" lon="-9.232369396961122"><ele>247.0</ele><time>2026-04-03T09:26:09Z</time></trkpt><trkpt lat="38.94827074371743" lon="-9.232433587777576"><ele>247.0</ele><time>2026-04-03T09:26:10Z</time></trkpt><trkpt lat="38.94834932859584" lon="-9.232488417344898"><ele>247.0</ele><time>2026-04-03T09:26:11Z</time></trkpt><trkpt lat="38.94840877354601" lon="-9.232532018342585"><ele>246.99999999999997</ele><time>2026-04-03T09:26:12Z</time></trkpt><trkpt lat="38.948487232848755" lon="-9.232586307956137"><ele>247.0</ele><time>2026-04-03T09:26:14Z</time></trkpt><trkpt lat="38.94857817400544" lon="-9.232550137876725"><ele>246.66666666666666</ele><time>2026-04-03T09:27:15Z</time></trkpt><trkpt lat="38.948582154337366" lon="-9.23267046900209"><ele>246.33333333333331</ele><time>2026-04-03T09:27:17Z</time></trkpt><trkpt lat="38.94861924015364" lon="-9.232744107995803"><ele>246.0</ele><time>2026-04-03T09:27:18Z</time></trkpt><trkpt lat="38.94868582586401" lon="-9.232811456521773"><ele>245.66666666666669</ele><time>2026-04-03T09:27:19Z</time></trkpt><trkpt lat="38.948744381184746" lon="-9.23286372503"><ele>245.33333333333334</ele><time>2026-04-03T09:27:20Z</time></trkpt><trkpt lat="38.94880775209341" lon="-9.23292024063704"><ele>245.0</ele><time>2026-04-03T09:27:21Z</time></trkpt><trkpt lat="38.948870999801045" lon="-9.232976918908959"><ele>245.00000000000003</ele><time>2026-04-03T09:27:22Z</time></trkpt><trkpt lat="38.948936754811974" lon="-9.233036200068142"><ele>245.0</ele><time>2026-04-03T09:27:23Z</time></trkpt><trkpt lat="38.94900093392262" lon="-9.233091840547614"><ele>245.0</ele><time>2026-04-03T09:27:24Z</time></trkpt><trkpt lat="38.949073775595274" lon="-9.23314986102659"><ele>245.0</ele><time>2026-04-03T09:27:25Z</time></trkpt><trkpt lat="38.94915737710346" lon="-9.233215188154412"><ele>245.00000000000003</ele><time>2026-04-03T09:27:26Z</time></trkpt><trkpt lat="38.94924486985293" lon="-9.233270309188837"><ele>245.0</ele><time>2026-04-03T09:27:27Z</time></trkpt><trkpt lat="38.94932416908695" lon="-9.233313188234659"><ele>245.50000000000003</ele><time>2026-04-03T09:27:28Z</time></trkpt><trkpt lat="38.94940722336026" lon="-9.233349857194227"><ele>246.0</ele><time>2026-04-03T09:27:29Z</time></trkpt><trkpt lat="38.9494794056676" lon="-9.23337480787438"><ele>246.5</ele><time>2026-04-03T09:27:30Z</time></trkpt><trkpt lat="38.94957782295878" lon="-9.23340659219862"><ele>247.0</ele><time>2026-04-03T09:27:32Z</time></trkpt><trkpt lat="38.94964117648096" lon="-9.233446839086147"><ele>247.50000000000003</ele><time>2026-04-03T09:27:45.001Z</time></trkpt><trkpt lat="38.94966906418781" lon="-9.233372109130249"><ele>248.0</ele><time>2026-04-03T09:28:09Z</time></trkpt><trkpt lat="38.9497020959334" lon="-9.233447564519421"><ele>248.00000000000003</ele><time>2026-04-03T09:28:51Z</time></trkpt><trkpt lat="38.9497767862778" lon="-9.233501695878102"><ele>248.0</ele><time>2026-04-03T09:29:33Z</time></trkpt><trkpt lat="38.94983898631518" lon="-9.233424629640904"><ele>248.0</ele><time>2026-04-03T09:29:37Z</time></trkpt><trkpt lat="38.94990169489172" lon="-9.233452542511682"><ele>248.0</ele><time>2026-04-03T09:29:41.001Z</time></trkpt><trkpt lat="38.949945011617366" lon="-9.23352862389085"><ele>248.00000000000003</ele><time>2026-04-03T09:29:43.001Z</time></trkpt><trkpt lat="38.95002680560843" lon="-9.233564500917272"><ele>248.0</ele><time>2026-04-03T09:29:46Z</time></trkpt><trkpt lat="38.95012472142581" lon="-9.233599203445468"><ele>249.4</ele><time>2026-04-03T09:29:48.001Z</time></trkpt><trkpt lat="38.95020402922374" lon="-9.233617342415695"><ele>250.8</ele><time>2026-04-03T09:29:49Z</time></trkpt><trkpt lat="38.95030120919506" lon="-9.23362883396972"><ele>252.2</ele><time>2026-04-03T09:29:50Z</time></trkpt><trkpt lat="38.95039715505041" lon="-9.233642817506999"><ele>253.6</ele><time>2026-04-03T09:29:51Z</time></trkpt><trkpt lat="38.95051769503145" lon="-9.233655950721998"><ele>255.0</ele><time>2026-04-03T09:29:52Z</time></trkpt><trkpt lat="38.95065369613418" lon="-9.233668738391858"><ele>255.0</ele><time>2026-04-03T09:29:53Z</time></trkpt><trkpt lat="38.950785794595184" lon="-9.233679778711583"><ele>255.0</ele><time>2026-04-03T09:29:54Z</time></trkpt><trkpt lat="38.950928078916256" lon="-9.233701292630474"><ele>255.0</ele><time>2026-04-03T09:29:55Z</time></trkpt><trkpt lat="38.95107329222076" lon="-9.233720112111712"><ele>255.0</ele><time>2026-04-03T09:29:56Z</time></trkpt><trkpt lat="38.95122201309035" lon="-9.233735601482275"><ele>259.0</ele><time>2026-04-03T09:29:57Z</time></trkpt><trkpt lat="38.951377137213534" lon="-9.23375465667988"><ele>263.0</ele><time>2026-04-03T09:29:58Z</time></trkpt><trkpt lat="38.951529941055746" lon="-9.23376621855911"><ele>267.0</ele><time>2026-04-03T09:29:59Z</time></trkpt><trkpt lat="38.951685357492224" lon="-9.23378102616853"><ele>269.0</ele><time>2026-04-03T09:30:00Z</time></trkpt><trkpt lat="38.95183173516904" lon="-9.233796831824824"><ele>271.0</ele><time>2026-04-03T09:30:01Z</time></trkpt><trkpt lat="38.95194712081936" lon="-9.23379852288338"><ele>273.0</ele><time>2026-04-03T09:30:02Z</time></trkpt><trkpt lat="38.952051342811586" lon="-9.233804158221893"><ele>275.0</ele><time>2026-04-03T09:30:03Z</time></trkpt><trkpt lat="38.952156136896186" lon="-9.233816285922876"><ele>275.0</ele><time>2026-04-03T09:30:04Z</time></trkpt><trkpt lat="38.95226239153223" lon="-9.233849391579126"><ele>275.0</ele><time>2026-04-03T09:30:05Z</time></trkpt><trkpt lat="38.95235741885756" lon="-9.233879638535894"><ele>275.0</ele><time>2026-04-03T09:30:06Z</time></trkpt><trkpt lat="38.95245122523019" lon="-9.233922649431307"><ele>275.0</ele><time>2026-04-03T09:30:07Z</time></trkpt><trkpt lat="38.952556152656" lon="-9.233986583316302"><ele>275.0</ele><time>2026-04-03T09:30:08Z</time></trkpt><trkpt lat="38.952669235137016" lon="-9.234037520746323"><ele>270.8</ele><time>2026-04-03T09:30:09Z</time></trkpt><trkpt lat="38.95276535702519" lon="-9.234094224935296"><ele>266.6</ele><time>2026-04-03T09:30:10Z</time></trkpt><trkpt lat="38.952853013157295" lon="-9.234166346475691"><ele>262.4</ele><time>2026-04-03T09:30:11Z</time></trkpt><trkpt lat="38.95294126040228" lon="-9.234233270204577"><ele>258.2</ele><time>2026-04-03T09:30:12Z</time></trkpt><trkpt lat="38.95301782876153" lon="-9.234330660800678"><ele>254.0</ele><time>2026-04-03T09:30:13Z</time></trkpt><trkpt lat="38.95308374820101" lon="-9.234453019316582"><ele>254.00000000000003</ele><time>2026-04-03T09:30:14Z</time></trkpt><trkpt lat="38.95312891738492" lon="-9.23458086359447"><ele>254.0</ele><time>2026-04-03T09:30:15Z</time></trkpt><trkpt lat="38.95316910834679" lon="-9.234689686750094"><ele>254.0</ele><time>2026-04-03T09:30:16Z</time></trkpt><trkpt lat="38.9531914360283" lon="-9.234790904958743"><ele>254.0</ele><time>2026-04-03T09:30:17Z</time></trkpt><trkpt lat="38.95320383170226" lon="-9.234888734880522"><ele>254.00000000000003</ele><time>2026-04-03T09:30:18Z</time></trkpt><trkpt lat="38.95321542250493" lon="-9.234992190941531"><ele>254.0</ele><time>2026-04-03T09:30:20Z</time></trkpt><trkpt lat="38.95323045403231" lon="-9.235079208451522"><ele>254.0</ele><time>2026-04-03T09:30:48Z</time></trkpt><trkpt lat="38.953267013818355" lon="-9.235254544810546"><ele>254.0</ele><time>2026-04-03T09:30:50Z</time></trkpt><trkpt lat="38.953295934090235" lon="-9.235375968990875"><ele>254.0</ele><time>2026-04-03T09:30:51Z</time></trkpt><trkpt lat="38.953325612091696" lon="-9.235503024919325"><ele>254.0</ele><time>2026-04-03T09:30:52Z</time></trkpt><trkpt lat="38.9533603170642" lon="-9.235653342902692"><ele>246.25</ele><time>2026-04-03T09:30:53Z</time></trkpt><trkpt lat="38.95338899484504" lon="-9.235811942711253"><ele>238.5</ele><time>2026-04-03T09:30:54Z</time></trkpt><trkpt lat="38.9534201353035" lon="-9.236006775742299"><ele>230.75</ele><time>2026-04-03T09:30:55Z</time></trkpt><trkpt lat="38.95345240747306" lon="-9.23619858449668"><ele>223.0</ele><time>2026-04-03T09:30:56Z</time></trkpt><trkpt lat="38.95350079489286" lon="-9.23640559507841"><ele>224.33333333333331</ele><time>2026-04-03T09:30:57Z</time></trkpt><trkpt lat="38.95355851199148" lon="-9.236624124879935"><ele>225.66666666666669</ele><time>2026-04-03T09:30:58Z</time></trkpt><trkpt lat="38.9536263178605" lon="-9.236825513782268"><ele>227.0</ele><time>2026-04-03T09:30:59Z</time></trkpt><trkpt lat="38.95368080852152" lon="-9.237005887268836"><ele>227.0</ele><time>2026-04-03T09:31:00Z</time></trkpt><trkpt lat="38.95371694497377" lon="-9.237173269376028"><ele>227.0</ele><time>2026-04-03T09:31:01Z</time></trkpt><trkpt lat="38.95373083743357" lon="-9.237329200384782"><ele>227.0</ele><time>2026-04-03T09:31:02Z</time></trkpt><trkpt lat="38.95374675412961" lon="-9.23748880898149"><ele>227.0</ele><time>2026-04-03T09:31:03Z</time></trkpt><trkpt lat="38.95382971347472" lon="-9.237593944750097"><ele>229.5</ele><time>2026-04-03T09:31:04Z</time></trkpt><trkpt lat="38.953927351040996" lon="-9.237684575668338"><ele>232.0</ele><time>2026-04-03T09:31:05Z</time></trkpt><trkpt lat="38.954033369979335" lon="-9.237773751035892"><ele>234.5</ele><time>2026-04-03T09:31:06Z</time></trkpt><trkpt lat="38.954137259466535" lon="-9.237876244972934"><ele>237.0</ele><time>2026-04-03T09:31:07Z</time></trkpt><trkpt lat="38.9542539123566" lon="-9.237953361113412"><ele>237.0</ele><time>2026-04-03T09:31:08Z</time></trkpt><trkpt lat="38.95436294340882" lon="-9.238045791215894"><ele>237.0</ele><time>2026-04-03T09:31:09Z</time></trkpt><trkpt lat="38.9544769402725" lon="-9.23813892635917"><ele>237.0</ele><time>2026-04-03T09:31:10Z</time></trkpt><trkpt lat="38.95458799234043" lon="-9.23824322413013"><ele>237.0</ele><time>2026-04-03T09:31:11Z</time></trkpt><trkpt lat="38.954708984375046" lon="-9.23833906757382"><ele>238.25</ele><time>2026-04-03T09:31:12Z</time></trkpt><trkpt lat="38.95481182065572" lon="-9.238447497177257"><ele>239.5</ele><time>2026-04-03T09:31:13Z</time></trkpt><trkpt lat="38.954909107049" lon="-9.238546529840514"><ele>240.75</ele><time>2026-04-03T09:31:14Z</time></trkpt><trkpt lat="38.954995043528044" lon="-9.238639513670073"><ele>242.0</ele><time>2026-04-03T09:31:15Z</time></trkpt><trkpt lat="38.955072883248626" lon="-9.238721230957598"><ele>242.00000000000003</ele><time>2026-04-03T09:31:16Z</time></trkpt><trkpt lat="38.955148986731125" lon="-9.23878375950187"><ele>242.0</ele><time>2026-04-03T09:31:17Z</time></trkpt><trkpt lat="38.95521104686095" lon="-9.238826542306516"><ele>242.0</ele><time>2026-04-03T09:31:18Z</time></trkpt><trkpt lat="38.95527865231567" lon="-9.238848715995687"><ele>242.0</ele><time>2026-04-03T09:31:19Z</time></trkpt><trkpt lat="38.95534135595212" lon="-9.238868764959173"><ele>242.00000000000003</ele><time>2026-04-03T09:31:20Z</time></trkpt><trkpt lat="38.9554612062966" lon="-9.238825959679145"><ele>242.0</ele><time>2026-04-03T09:31:22Z</time></trkpt><trkpt lat="38.955525144676606" lon="-9.23886347671332"><ele>242.00000000000003</ele><time>2026-04-03T09:31:23Z</time></trkpt><trkpt lat="38.955581950381195" lon="-9.238932702662865"><ele>242.0</ele><time>2026-04-03T09:31:24Z</time></trkpt><trkpt lat="38.95562827529597" lon="-9.239029456828932"><ele>242.0</ele><time>2026-04-03T09:31:25Z</time></trkpt><trkpt lat="38.95565156071465" lon="-9.23913461816497"><ele>242.0</ele><time>2026-04-03T09:31:26Z</time></trkpt><trkpt lat="38.95567747064294" lon="-9.23923897037712"><ele>242.00000000000003</ele><time>2026-04-03T09:31:27Z</time></trkpt><trkpt lat="38.955704501022645" lon="-9.239346198489644"><ele>242.0</ele><time>2026-04-03T09:31:28Z</time></trkpt><trkpt lat="38.955737396971585" lon="-9.239452721315425"><ele>241.83333333333334</ele><time>2026-04-03T09:31:29Z</time></trkpt><trkpt lat="38.95577929148423" lon="-9.239549325979375"><ele>241.66666666666669</ele><time>2026-04-03T09:31:30Z</time></trkpt><trkpt lat="38.955868117094454" lon="-9.239580291066193"><ele>241.5</ele><time>2026-04-03T09:31:31Z</time></trkpt><trkpt lat="38.95593352758673" lon="-9.239640269859242"><ele>241.33333333333331</ele><time>2026-04-03T09:31:32Z</time></trkpt><trkpt lat="38.95599066742591" lon="-9.239704805644566"><ele>241.16666666666666</ele><time>2026-04-03T09:31:33Z</time></trkpt><trkpt lat="38.95603912174113" lon="-9.239770105109624"><ele>241.0</ele><time>2026-04-03T09:31:34Z</time></trkpt><trkpt lat="38.95606427671691" lon="-9.239859851914046"><ele>240.99999999999997</ele><time>2026-04-03T09:31:35Z</time></trkpt><trkpt lat="38.956095570488756" lon="-9.23994642879361"><ele>241.0</ele><time>2026-04-03T09:31:36Z</time></trkpt><trkpt lat="38.956133647891214" lon="-9.240043646638147"><ele>241.0</ele><time>2026-04-03T09:31:37Z</time></trkpt><trkpt lat="38.95616542324521" lon="-9.240147951096903"><ele>241.0</ele><time>2026-04-03T09:31:38Z</time></trkpt><trkpt lat="38.95620040556404" lon="-9.240252549121106"><ele>240.99999999999997</ele><time>2026-04-03T09:31:39Z</time></trkpt><trkpt lat="38.95625928220366" lon="-9.240341132392645"><ele>241.0</ele><time>2026-04-03T09:31:40Z</time></trkpt><trkpt lat="38.95631869428162" lon="-9.240446902352204"><ele>241.0</ele><time>2026-04-03T09:31:41Z</time></trkpt><trkpt lat="38.95635382181747" lon="-9.240549572483932"><ele>241.00000000000003</ele><time>2026-04-03T09:31:42Z</time></trkpt><trkpt lat="38.95641275183834" lon="-9.240641503169911"><ele>241.00000000000003</ele><time>2026-04-03T09:31:43Z</time></trkpt><trkpt lat="38.95645607872432" lon="-9.24075836332207"><ele>241.0</ele><time>2026-04-03T09:31:44Z</time></trkpt><trkpt lat="38.95647180721727" lon="-9.240896153020666"><ele>241.0</ele><time>2026-04-03T09:31:45Z</time></trkpt><trkpt lat="38.95650107759997" lon="-9.241032698360877"><ele>241.25</ele><time>2026-04-03T09:31:46Z</time></trkpt><trkpt lat="38.956534476336415" lon="-9.24117307891407"><ele>241.5</ele><time>2026-04-03T09:31:47Z</time></trkpt><trkpt lat="38.956544951380394" lon="-9.241312719390631"><ele>241.75</ele><time>2026-04-03T09:31:48Z</time></trkpt><trkpt lat="38.956533120000735" lon="-9.241462675897456"><ele>242.0</ele><time>2026-04-03T09:31:49Z</time></trkpt><trkpt lat="38.95651578643217" lon="-9.241610472018642"><ele>241.0</ele><time>2026-04-03T09:31:50Z</time></trkpt><trkpt lat="38.956480877731614" lon="-9.241773415169618"><ele>240.0</ele><time>2026-04-03T09:31:51Z</time></trkpt><trkpt lat="38.95642077520439" lon="-9.241911881930246"><ele>239.0</ele><time>2026-04-03T09:31:52Z</time></trkpt><trkpt lat="38.95638819451879" lon="-9.24204500133337"><ele>238.0</ele><time>2026-04-03T09:31:53Z</time></trkpt><trkpt lat="38.956334040300774" lon="-9.242169371924279"><ele>238.0</ele><time>2026-04-03T09:31:54Z</time></trkpt><trkpt lat="38.9562628145876" lon="-9.242276684041135"><ele>238.0</ele><time>2026-04-03T09:31:55Z</time></trkpt><trkpt lat="38.956184257316245" lon="-9.24237654910502"><ele>238.0</ele><time>2026-04-03T09:31:56Z</time></trkpt><trkpt lat="38.95609855138075" lon="-9.24247450915877"><ele>238.0</ele><time>2026-04-03T09:31:57Z</time></trkpt><trkpt lat="38.95601073387149" lon="-9.242571699498964"><ele>237.2</ele><time>2026-04-03T09:31:58Z</time></trkpt><trkpt lat="38.955930510605114" lon="-9.242658441155832"><ele>236.4</ele><time>2026-04-03T09:31:59Z</time></trkpt><trkpt lat="38.95585607192165" lon="-9.24275270665946"><ele>235.59999999999997</ele><time>2026-04-03T09:32:00Z</time></trkpt><trkpt lat="38.955778376799586" lon="-9.242854927653614"><ele>234.79999999999998</ele><time>2026-04-03T09:32:01Z</time></trkpt><trkpt lat="38.955729137047854" lon="-9.242984572798996"><ele>234.0</ele><time>2026-04-03T09:32:02Z</time></trkpt><trkpt lat="38.95570398054802" lon="-9.2431173744338"><ele>233.0</ele><time>2026-04-03T09:32:03Z</time></trkpt><trkpt lat="38.955753854876185" lon="-9.243226528354311"><ele>231.99999999999997</ele><time>2026-04-03T09:32:04Z</time></trkpt><trkpt lat="38.95581243854443" lon="-9.243349385367242"><ele>230.99999999999997</ele><time>2026-04-03T09:32:05Z</time></trkpt><trkpt lat="38.95587604371431" lon="-9.243472650639115"><ele>230.0</ele><time>2026-04-03T09:32:06Z</time></trkpt><trkpt lat="38.955925038088374" lon="-9.24358070782244"><ele>229.0</ele><time>2026-04-03T09:32:07Z</time></trkpt><trkpt lat="38.9559559601036" lon="-9.243706370997526"><ele>229.0</ele><time>2026-04-03T09:32:08Z</time></trkpt><trkpt lat="38.95598910008049" lon="-9.243836606505997"><ele>228.99999999999997</ele><time>2026-04-03T09:32:09Z</time></trkpt><trkpt lat="38.95601147094072" lon="-9.243966709246772"><ele>228.99999999999997</ele><time>2026-04-03T09:32:10Z</time></trkpt><trkpt lat="38.9560296701655" lon="-9.244089057069303"><ele>229.0</ele><time>2026-04-03T09:32:11Z</time></trkpt><trkpt lat="38.95605254254582" lon="-9.244181675089722"><ele>229.0</ele><time>2026-04-03T09:32:12Z</time></trkpt><trkpt lat="38.95605512607757" lon="-9.244300988427318"><ele>229.79999999999998</ele><time>2026-04-03T09:32:14Z</time></trkpt><trkpt lat="38.95624229667291" lon="-9.244273852895892"><ele>230.59999999999997</ele><time>2026-04-03T09:32:15Z</time></trkpt><trkpt lat="38.95632005754267" lon="-9.244306393229465"><ele>231.4</ele><time>2026-04-03T09:32:16Z</time></trkpt><trkpt lat="38.95639073951695" lon="-9.244329558419599"><ele>232.2</ele><time>2026-04-03T09:32:17Z</time></trkpt><trkpt lat="38.956477910432184" lon="-9.244353565288371"><ele>233.0</ele><time>2026-04-03T09:32:18Z</time></trkpt><trkpt lat="38.95655679168731" lon="-9.24438194486663"><ele>233.00000000000003</ele><time>2026-04-03T09:32:19Z</time></trkpt><trkpt lat="38.95662107657107" lon="-9.244389937022756"><ele>233.0</ele><time>2026-04-03T09:32:20Z</time></trkpt><trkpt lat="38.9566838593331" lon="-9.244363032602378"><ele>233.0</ele><time>2026-04-03T09:32:21Z</time></trkpt><trkpt lat="38.95677377849175" lon="-9.244347330148189"><ele>233.0</ele><time>2026-04-03T09:32:22Z</time></trkpt><trkpt lat="38.95685402790843" lon="-9.244336937893495"><ele>233.00000000000003</ele><time>2026-04-03T09:32:23Z</time></trkpt><trkpt lat="38.95693926011242" lon="-9.244425300170766"><ele>233.0</ele><time>2026-04-03T09:32:24Z</time></trkpt><trkpt lat="38.95701267427185" lon="-9.244507999407697"><ele>230.60000000000002</ele><time>2026-04-03T09:32:25Z</time></trkpt><trkpt lat="38.95707281462448" lon="-9.244592392003801"><ele>228.20000000000002</ele><time>2026-04-03T09:32:26Z</time></trkpt><trkpt lat="38.9571393514338" lon="-9.244684008294692"><ele>225.8</ele><time>2026-04-03T09:32:27Z</time></trkpt><trkpt lat="38.957207032606604" lon="-9.244785240930511"><ele>223.4</ele><time>2026-04-03T09:32:28Z</time></trkpt><trkpt lat="38.95727151384708" lon="-9.244906295976064"><ele>221.0</ele><time>2026-04-03T09:32:29Z</time></trkpt><trkpt lat="38.95734018500555" lon="-9.245014860159538"><ele>221.00000000000003</ele><time>2026-04-03T09:32:30Z</time></trkpt><trkpt lat="38.957395289325774" lon="-9.245111743017908"><ele>221.0</ele><time>2026-04-03T09:32:31Z</time></trkpt><trkpt lat="38.95744621677783" lon="-9.245199072203839"><ele>221.0</ele><time>2026-04-03T09:32:32Z</time></trkpt><trkpt lat="38.95749323907196" lon="-9.245275710989121"><ele>221.0</ele><time>2026-04-03T09:32:33Z</time></trkpt><trkpt lat="38.95754528444316" lon="-9.245341141614311"><ele>221.00000000000003</ele><time>2026-04-03T09:32:34Z</time></trkpt><trkpt lat="38.95760012648025" lon="-9.245406245902435"><ele>221.0</ele><time>2026-04-03T09:32:35Z</time></trkpt><trkpt lat="38.95765160938674" lon="-9.245480463068999"><ele>219.66666666666669</ele><time>2026-04-03T09:32:36Z</time></trkpt><trkpt lat="38.95769875011824" lon="-9.24555900103963"><ele>218.33333333333334</ele><time>2026-04-03T09:32:37Z</time></trkpt><trkpt lat="38.95774407503469" lon="-9.2456315882812"><ele>217.0</ele><time>2026-04-03T09:32:38Z</time></trkpt><trkpt lat="38.95778600281974" lon="-9.245699503857585"><ele>215.66666666666669</ele><time>2026-04-03T09:32:39Z</time></trkpt><trkpt lat="38.95782488343143" lon="-9.245764587739677"><ele>214.33333333333334</ele><time>2026-04-03T09:32:40Z</time></trkpt><trkpt lat="38.95790561171549" lon="-9.245857935502245"><ele>213.0</ele><time>2026-04-03T09:32:42Z</time></trkpt><trkpt lat="38.95794722846171" lon="-9.245989471695855"><ele>213.0</ele><time>2026-04-03T09:32:44Z</time></trkpt><trkpt lat="38.958001609176016" lon="-9.24610378721393"><ele>213.0</ele><time>2026-04-03T09:32:46Z</time></trkpt><trkpt lat="38.95806027072901" lon="-9.24621653138371"><ele>213.0</ele><time>2026-04-03T09:32:48Z</time></trkpt><trkpt lat="38.958121117324495" lon="-9.246340063525857"><ele>213.0</ele><time>2026-04-03T09:32:50Z</time></trkpt><trkpt lat="38.95819015546443" lon="-9.246460372156617"><ele>213.0</ele><time>2026-04-03T09:32:52Z</time></trkpt><trkpt lat="38.95826206830198" lon="-9.246578653735945"><ele>212.0</ele><time>2026-04-03T09:32:54Z</time></trkpt><trkpt lat="38.95833558953919" lon="-9.246687923085764"><ele>211.0</ele><time>2026-04-03T09:32:56Z</time></trkpt><trkpt lat="38.958406328845115" lon="-9.246795676666826"><ele>210.0</ele><time>2026-04-03T09:32:58Z</time></trkpt><trkpt lat="38.95845026719913" lon="-9.246861709043653"><ele>209.0</ele><time>2026-04-03T09:32:59Z</time></trkpt><trkpt lat="38.95850241937527" lon="-9.246928845990448"><ele>208.0</ele><time>2026-04-03T09:33:00Z</time></trkpt><trkpt lat="38.95854964609024" lon="-9.246989938053348"><ele>207.0</ele><time>2026-04-03T09:33:01Z</time></trkpt><trkpt lat="38.9586362658931" lon="-9.24708386921585"><ele>205.33333333333334</ele><time>2026-04-03T09:33:03Z</time></trkpt><trkpt lat="38.95871232828124" lon="-9.247182486712964"><ele>203.66666666666669</ele><time>2026-04-03T09:33:05Z</time></trkpt><trkpt lat="38.95875765699306" lon="-9.247240009302804"><ele>202.0</ele><time>2026-04-03T09:33:06Z</time></trkpt><trkpt lat="38.95880591237784" lon="-9.247298965702393"><ele>200.33333333333334</ele><time>2026-04-03T09:33:07Z</time></trkpt><trkpt lat="38.95885009007763" lon="-9.24735871319284"><ele>198.66666666666669</ele><time>2026-04-03T09:33:08Z</time></trkpt><trkpt lat="38.95889107720913" lon="-9.247425736902668"><ele>197.0</ele><time>2026-04-03T09:33:09Z</time></trkpt><trkpt lat="38.958983006831374" lon="-9.247493267801046"><ele>197.0</ele><time>2026-04-03T09:33:11Z</time></trkpt><trkpt lat="38.95900414787941" lon="-9.24759795122765"><ele>197.0</ele><time>2026-04-03T09:33:29Z</time></trkpt><trkpt lat="38.95897573003817" lon="-9.24749336504182"><ele>197.0</ele><time>2026-04-03T09:33:33Z</time></trkpt><trkpt lat="38.95888108864843" lon="-9.247391687505212"><ele>197.0</ele><time>2026-04-03T09:33:35Z</time></trkpt><trkpt lat="38.95880569746853" lon="-9.247322442630441"><ele>197.0</ele><time>2026-04-03T09:33:36Z</time></trkpt><trkpt lat="38.958750798938325" lon="-9.247256611616939"><ele>197.00000000000003</ele><time>2026-04-03T09:33:37Z</time></trkpt><trkpt lat="38.95869235774683" lon="-9.247171272798195"><ele>197.0</ele><time>2026-04-03T09:33:38Z</time></trkpt><trkpt lat="38.95862644309441" lon="-9.247090873831972"><ele>197.0</ele><time>2026-04-03T09:33:39Z</time></trkpt><trkpt lat="38.95856745333124" lon="-9.247013769763518"><ele>197.0</ele><time>2026-04-03T09:33:40Z</time></trkpt><trkpt lat="38.9585059702732" lon="-9.246951158994134"><ele>197.00000000000003</ele><time>2026-04-03T09:33:41Z</time></trkpt><trkpt lat="38.958446257911724" lon="-9.246872729533766"><ele>197.0</ele><time>2026-04-03T09:33:42Z</time></trkpt><trkpt lat="38.95838436131633" lon="-9.246790826177506"><ele>199.0</ele><time>2026-04-03T09:33:43Z</time></trkpt><trkpt lat="38.958325496941995" lon="-9.246704951295634"><ele>201.0</ele><time>2026-04-03T09:33:44Z</time></trkpt><trkpt lat="38.95827074414452" lon="-9.246621660268232"><ele>203.0</ele><time>2026-04-03T09:33:45Z</time></trkpt><trkpt lat="38.95821955312214" lon="-9.246538975353443"><ele>205.0</ele><time>2026-04-03T09:33:46Z</time></trkpt><trkpt lat="38.95814220433217" lon="-9.246409839861345"><ele>207.0</ele><time>2026-04-03T09:33:48Z</time></trkpt><trkpt lat="38.95809719414235" lon="-9.246336907479883"><ele>208.0</ele><time>2026-04-03T09:33:49Z</time></trkpt><trkpt lat="38.95806024500822" lon="-9.246257451937502"><ele>209.0</ele><time>2026-04-03T09:33:50Z</time></trkpt><trkpt lat="38.95802085218775" lon="-9.246186557101646"><ele>210.0</ele><time>2026-04-03T09:33:51Z</time></trkpt><trkpt lat="38.95797764255302" lon="-9.246092135360241"><ele>211.0</ele><time>2026-04-03T09:33:52Z</time></trkpt><trkpt lat="38.95791987577732" lon="-9.245995883689742"><ele>212.0</ele><time>2026-04-03T09:33:53Z</time></trkpt><trkpt lat="38.95786076180089" lon="-9.24589169534663"><ele>213.0</ele><time>2026-04-03T09:33:54Z</time></trkpt><trkpt lat="38.95780748666753" lon="-9.245789493654382"><ele>213.0</ele><time>2026-04-03T09:33:55Z</time></trkpt><trkpt lat="38.957758186359456" lon="-9.245687927968648"><ele>213.0</ele><time>2026-04-03T09:33:56Z</time></trkpt><trkpt lat="38.95768247416265" lon="-9.24559061812943"><ele>213.0</ele><time>2026-04-03T09:33:57Z</time></trkpt><trkpt lat="38.95760364625894" lon="-9.24548060069797"><ele>213.0</ele><time>2026-04-03T09:33:58Z</time></trkpt><trkpt lat="38.957512000012564" lon="-9.24535465773219"><ele>214.75</ele><time>2026-04-03T09:33:59Z</time></trkpt><trkpt lat="38.95741607568132" lon="-9.245215652446547"><ele>216.5</ele><time>2026-04-03T09:34:00Z</time></trkpt><trkpt lat="38.95732531730787" lon="-9.245073763478263"><ele>218.25</ele><time>2026-04-03T09:34:01Z</time></trkpt><trkpt lat="38.95722714678308" lon="-9.24491666609825"><ele>220.0</ele><time>2026-04-03T09:34:02Z</time></trkpt><trkpt lat="38.95713152993889" lon="-9.244770319294991"><ele>220.0</ele><time>2026-04-03T09:34:03Z</time></trkpt><trkpt lat="38.95704576856914" lon="-9.244646234986106"><ele>220.0</ele><time>2026-04-03T09:34:04Z</time></trkpt><trkpt lat="38.95695258974143" lon="-9.24452245135009"><ele>220.0</ele><time>2026-04-03T09:34:05Z</time></trkpt><trkpt lat="38.956857257729354" lon="-9.244414714081373"><ele>220.0</ele><time>2026-04-03T09:34:06Z</time></trkpt><trkpt lat="38.95677512182407" lon="-9.244323835818951"><ele>223.25</ele><time>2026-04-03T09:34:07Z</time></trkpt><trkpt lat="38.95666248451146" lon="-9.244317255765162"><ele>226.5</ele><time>2026-04-03T09:34:08Z</time></trkpt><trkpt lat="38.9565511841211" lon="-9.2443474648632"><ele>229.75</ele><time>2026-04-03T09:34:09Z</time></trkpt><trkpt lat="38.95643875903862" lon="-9.244360780485042"><ele>233.0</ele><time>2026-04-03T09:34:10Z</time></trkpt><trkpt lat="38.956308519881844" lon="-9.244346040427796"><ele>233.0</ele><time>2026-04-03T09:34:11Z</time></trkpt><trkpt lat="38.956187612252165" lon="-9.244295769075494"><ele>233.0</ele><time>2026-04-03T09:34:12Z</time></trkpt><trkpt lat="38.95607770258622" lon="-9.24424928129348"><ele>233.0</ele><time>2026-04-03T09:34:13Z</time></trkpt><trkpt lat="38.95601068881961" lon="-9.244217128653094"><ele>233.0</ele><time>2026-04-03T09:34:14Z</time></trkpt><trkpt lat="38.95593687876559" lon="-9.24419199327535"><ele>233.0</ele><time>2026-04-03T09:34:15Z</time></trkpt><trkpt lat="38.955846339633" lon="-9.244149577616517"><ele>233.0</ele><time>2026-04-03T09:34:16Z</time></trkpt><trkpt lat="38.95592150184601" lon="-9.244518150664419"><ele>233.0</ele><time>2026-04-03T09:34:17Z</time></trkpt><trkpt lat="38.95602789036864" lon="-9.24468732310742"><ele>230.33333333333334</ele><time>2026-04-03T09:34:18Z</time></trkpt><trkpt lat="38.95600997207218" lon="-9.244875248006018"><ele>227.66666666666669</ele><time>2026-04-03T09:34:19Z</time></trkpt><trkpt lat="38.9559866586267" lon="-9.245066343532233"><ele>225.0</ele><time>2026-04-03T09:34:20Z</time></trkpt><trkpt lat="38.95595966670272" lon="-9.245292162210633"><ele>225.0</ele><time>2026-04-03T09:34:21Z</time></trkpt><trkpt lat="38.95591778135366" lon="-9.2455049275049"><ele>225.0</ele><time>2026-04-03T09:34:22Z</time></trkpt><trkpt lat="38.95589091977492" lon="-9.24571675557009"><ele>225.0</ele><time>2026-04-03T09:34:23Z</time></trkpt><trkpt lat="38.95586383706816" lon="-9.245932862803128"><ele>227.25</ele><time>2026-04-03T09:34:24Z</time></trkpt><trkpt lat="38.95584036517475" lon="-9.246137723854702"><ele>229.5</ele><time>2026-04-03T09:34:25Z</time></trkpt><trkpt lat="38.9558226700864" lon="-9.246313001439022"><ele>231.75</ele><time>2026-04-03T09:34:26Z</time></trkpt><trkpt lat="38.95580685949593" lon="-9.246491918380203"><ele>234.0</ele><time>2026-04-03T09:34:27Z</time></trkpt><trkpt lat="38.955787593240615" lon="-9.246678968306377"><ele>234.0</ele><time>2026-04-03T09:34:28Z</time></trkpt><trkpt lat="38.95577547592625" lon="-9.246869268463671"><ele>234.0</ele><time>2026-04-03T09:34:29Z</time></trkpt><trkpt lat="38.95576793271245" lon="-9.247060826387603"><ele>234.0</ele><time>2026-04-03T09:34:30Z</time></trkpt><trkpt lat="38.95578129284703" lon="-9.247242180813567"><ele>234.0</ele><time>2026-04-03T09:34:31Z</time></trkpt><trkpt lat="38.95579157073698" lon="-9.24742245983994"><ele>232.5</ele><time>2026-04-03T09:34:32Z</time></trkpt><trkpt lat="38.95582095563733" lon="-9.247584492326736"><ele>231.0</ele><time>2026-04-03T09:34:33Z</time></trkpt><trkpt lat="38.95584400233255" lon="-9.24772470859071"><ele>229.5</ele><time>2026-04-03T09:34:34Z</time></trkpt><trkpt lat="38.9558687785696" lon="-9.247863648245646"><ele>228.0</ele><time>2026-04-03T09:34:35Z</time></trkpt><trkpt lat="38.95589111356668" lon="-9.248053856192524"><ele>221.75</ele><time>2026-04-03T09:34:36Z</time></trkpt><trkpt lat="38.95591962907841" lon="-9.24822657358241"><ele>215.5</ele><time>2026-04-03T09:34:37Z</time></trkpt><trkpt lat="38.95594034683245" lon="-9.248398884937926"><ele>209.25</ele><time>2026-04-03T09:34:38Z</time></trkpt><trkpt lat="38.955968985856416" lon="-9.248566045156721"><ele>203.0</ele><time>2026-04-03T09:34:39Z</time></trkpt><trkpt lat="38.95600244950582" lon="-9.248723101655518"><ele>203.0</ele><time>2026-04-03T09:34:40Z</time></trkpt><trkpt lat="38.95605224398438" lon="-9.248875114855428"><ele>203.0</ele><time>2026-04-03T09:34:41Z</time></trkpt><trkpt lat="38.95610808569671" lon="-9.249020109101746"><ele>203.0</ele><time>2026-04-03T09:34:42Z</time></trkpt><trkpt lat="38.956164671916014" lon="-9.249173086751856"><ele>203.0</ele><time>2026-04-03T09:34:43Z</time></trkpt><trkpt lat="38.9562322117715" lon="-9.2493242830807"><ele>204.25</ele><time>2026-04-03T09:34:44Z</time></trkpt><trkpt lat="38.95629864933554" lon="-9.249481458326272"><ele>205.5</ele><time>2026-04-03T09:34:45Z</time></trkpt><trkpt lat="38.95636271256362" lon="-9.24964492616075"><ele>206.75</ele><time>2026-04-03T09:34:46Z</time></trkpt><trkpt lat="38.95642780743454" lon="-9.249812458842161"><ele>208.0</ele><time>2026-04-03T09:34:47Z</time></trkpt><trkpt lat="38.956500895620664" lon="-9.249975030656447"><ele>206.75</ele><time>2026-04-03T09:34:48Z</time></trkpt><trkpt lat="38.95657992788202" lon="-9.25013251467321"><ele>205.5</ele><time>2026-04-03T09:34:49Z</time></trkpt><trkpt lat="38.95666517146188" lon="-9.250271433612415"><ele>204.25</ele><time>2026-04-03T09:34:50Z</time></trkpt><trkpt lat="38.9567438140502" lon="-9.250361410868395"><ele>203.0</ele><time>2026-04-03T09:34:51Z</time></trkpt><trkpt lat="38.95683110209388" lon="-9.250418208353864"><ele>203.0</ele><time>2026-04-03T09:34:52Z</time></trkpt><trkpt lat="38.9569348372402" lon="-9.250459523987981"><ele>203.0</ele><time>2026-04-03T09:34:53Z</time></trkpt><trkpt lat="38.95704036847847" lon="-9.250505539081274"><ele>203.0</ele><time>2026-04-03T09:34:54Z</time></trkpt><trkpt lat="38.95714412551104" lon="-9.250554499750896"><ele>203.0</ele><time>2026-04-03T09:34:55Z</time></trkpt><trkpt lat="38.95724811529575" lon="-9.250619808871893"><ele>203.0</ele><time>2026-04-03T09:34:56Z</time></trkpt><trkpt lat="38.95733466091168" lon="-9.250725106607597"><ele>204.0</ele><time>2026-04-03T09:34:57Z</time></trkpt><trkpt lat="38.9573727201223" lon="-9.25086860457708"><ele>205.0</ele><time>2026-04-03T09:34:58Z</time></trkpt><trkpt lat="38.95741731205692" lon="-9.251001687417324"><ele>206.0</ele><time>2026-04-03T09:34:59Z</time></trkpt><trkpt lat="38.95742754572763" lon="-9.25115966021409"><ele>207.0</ele><time>2026-04-03T09:35:00Z</time></trkpt><trkpt lat="38.957435471569056" lon="-9.251338870591571"><ele>206.75</ele><time>2026-04-03T09:35:01Z</time></trkpt><trkpt lat="38.95745371058387" lon="-9.251523597260976"><ele>206.5</ele><time>2026-04-03T09:35:02Z</time></trkpt><trkpt lat="38.95747030635258" lon="-9.25170472796417"><ele>206.25</ele><time>2026-04-03T09:35:03Z</time></trkpt><trkpt lat="38.95748557760697" lon="-9.251877989209214"><ele>206.0</ele><time>2026-04-03T09:35:04Z</time></trkpt><trkpt lat="38.9574971481798" lon="-9.252047239380941"><ele>206.0</ele><time>2026-04-03T09:35:05Z</time></trkpt><trkpt lat="38.95750462905843" lon="-9.252224280042228"><ele>206.0</ele><time>2026-04-03T09:35:06Z</time></trkpt><trkpt lat="38.957518800071824" lon="-9.252396731650313"><ele>206.0</ele><time>2026-04-03T09:35:07Z</time></trkpt><trkpt lat="38.95753324097078" lon="-9.25256971769364"><ele>206.0</ele><time>2026-04-03T09:35:08Z</time></trkpt><trkpt lat="38.95754509886569" lon="-9.252743321310582"><ele>204.75</ele><time>2026-04-03T09:35:09Z</time></trkpt><trkpt lat="38.95757319177493" lon="-9.252910616596994"><ele>203.5</ele><time>2026-04-03T09:35:10Z</time></trkpt><trkpt lat="38.95760529303526" lon="-9.253065734416195"><ele>202.25</ele><time>2026-04-03T09:35:11Z</time></trkpt><trkpt lat="38.95764015381624" lon="-9.253219457396872"><ele>201.0</ele><time>2026-04-03T09:35:12Z</time></trkpt><trkpt lat="38.9576740715141" lon="-9.253366318072645"><ele>200.0</ele><time>2026-04-03T09:35:13Z</time></trkpt><trkpt lat="38.9577040001142" lon="-9.253507306683266"><ele>199.0</ele><time>2026-04-03T09:35:14Z</time></trkpt><trkpt lat="38.95772182246179" lon="-9.253643121728803"><ele>198.0</ele><time>2026-04-03T09:35:15Z</time></trkpt><trkpt lat="38.95773764297885" lon="-9.253773372262986"><ele>197.0</ele><time>2026-04-03T09:35:16Z</time></trkpt><trkpt lat="38.95774019630886" lon="-9.253914371035854"><ele>196.0</ele><time>2026-04-03T09:35:17Z</time></trkpt><trkpt lat="38.95773082257909" lon="-9.254040349770335"><ele>195.60000000000002</ele><time>2026-04-03T09:35:18Z</time></trkpt><trkpt lat="38.95770446173441" lon="-9.254158939954413"><ele>195.2</ele><time>2026-04-03T09:35:19Z</time></trkpt><trkpt lat="38.95768766687528" lon="-9.254292319153576"><ele>194.8</ele><time>2026-04-03T09:35:20Z</time></trkpt><trkpt lat="38.957661366201265" lon="-9.25443903201827"><ele>194.39999999999998</ele><time>2026-04-03T09:35:21Z</time></trkpt><trkpt lat="38.95763276725596" lon="-9.25459269389802"><ele>194.0</ele><time>2026-04-03T09:35:22Z</time></trkpt><trkpt lat="38.95760215067246" lon="-9.25475282866544"><ele>192.25</ele><time>2026-04-03T09:35:23Z</time></trkpt><trkpt lat="38.9575753468938" lon="-9.254920557080723"><ele>190.5</ele><time>2026-04-03T09:35:24Z</time></trkpt><trkpt lat="38.95754574679833" lon="-9.255081688298022"><ele>188.75</ele><time>2026-04-03T09:35:25Z</time></trkpt><trkpt lat="38.95751761941403" lon="-9.255231495382573"><ele>187.0</ele><time>2026-04-03T09:35:26Z</time></trkpt><trkpt lat="38.95749226259887" lon="-9.25537073548142"><ele>187.0</ele><time>2026-04-03T09:35:27Z</time></trkpt><trkpt lat="38.957469319124776" lon="-9.255516779426344"><ele>187.0</ele><time>2026-04-03T09:35:28Z</time></trkpt><trkpt lat="38.95745577874463" lon="-9.25567606805784"><ele>187.0</ele><time>2026-04-03T09:35:29Z</time></trkpt><trkpt lat="38.95744567992807" lon="-9.255830409850569"><ele>187.0</ele><time>2026-04-03T09:35:30Z</time></trkpt><trkpt lat="38.957448792674214" lon="-9.255933680118538"><ele>187.0</ele><time>2026-04-03T09:35:31Z</time></trkpt><trkpt lat="38.95746899852897" lon="-9.25604895308944"><ele>187.0</ele><time>2026-04-03T09:35:33Z</time></trkpt><trkpt lat="38.95739101037781" lon="-9.25600876586282"><ele>187.0</ele><time>2026-04-03T09:35:37Z</time></trkpt><trkpt lat="38.957447493930175" lon="-9.255876228186455"><ele>187.0</ele><time>2026-04-03T09:35:39Z</time></trkpt><trkpt lat="38.957443072949935" lon="-9.255734357573953"><ele>187.0</ele><time>2026-04-03T09:35:40Z</time></trkpt><trkpt lat="38.95745663246545" lon="-9.25558775845884"><ele>187.0</ele><time>2026-04-03T09:35:41Z</time></trkpt><trkpt lat="38.95747201164654" lon="-9.255429705185932"><ele>187.0</ele><time>2026-04-03T09:35:42Z</time></trkpt><trkpt lat="38.95750061916705" lon="-9.25531485380225"><ele>187.0</ele><time>2026-04-03T09:35:43Z</time></trkpt><trkpt lat="38.957536473403025" lon="-9.255217291927512"><ele>187.0</ele><time>2026-04-03T09:35:44Z</time></trkpt><trkpt lat="38.95759955734097" lon="-9.25514798395115"><ele>187.0</ele><time>2026-04-03T09:35:45Z</time></trkpt><trkpt lat="38.95768223367776" lon="-9.2551002423676"><ele>187.0</ele><time>2026-04-03T09:35:46Z</time></trkpt><trkpt lat="38.957785971544425" lon="-9.255055093884064"><ele>186.39999999999998</ele><time>2026-04-03T09:35:47Z</time></trkpt><trkpt lat="38.957900505421186" lon="-9.25500893109151"><ele>185.79999999999998</ele><time>2026-04-03T09:35:48Z</time></trkpt><trkpt lat="38.95801539168767" lon="-9.254991867976104"><ele>185.2</ele><time>2026-04-03T09:35:49Z</time></trkpt><trkpt lat="38.95810135026307" lon="-9.254968487832702"><ele>184.6</ele><time>2026-04-03T09:35:50Z</time></trkpt><trkpt lat="38.95817933228286" lon="-9.254950790403319"><ele>184.0</ele><time>2026-04-03T09:35:51Z</time></trkpt><trkpt lat="38.95825438264392" lon="-9.254935708201177"><ele>184.0</ele><time>2026-04-03T09:35:52Z</time></trkpt><trkpt lat="38.9583184153527" lon="-9.25491686374837"><ele>184.0</ele><time>2026-04-03T09:35:53Z</time></trkpt><trkpt lat="38.958375413604344" lon="-9.254871475813324"><ele>184.0</ele><time>2026-04-03T09:35:54Z</time></trkpt><trkpt lat="38.95840348167646" lon="-9.254778073212258"><ele>184.0</ele><time>2026-04-03T09:35:55Z</time></trkpt><trkpt lat="38.958409942041904" lon="-9.254672674408923"><ele>184.0</ele><time>2026-04-03T09:35:56Z</time></trkpt><trkpt lat="38.95840115539143" lon="-9.254563034957021"><ele>184.0</ele><time>2026-04-03T09:35:57Z</time></trkpt><trkpt lat="38.958408177790446" lon="-9.254464817394023"><ele>183.16666666666669</ele><time>2026-04-03T09:35:58Z</time></trkpt><trkpt lat="38.9584374598117" lon="-9.254370571252805"><ele>182.33333333333334</ele><time>2026-04-03T09:35:59Z</time></trkpt><trkpt lat="38.95850843317364" lon="-9.254294619108059"><ele>181.5</ele><time>2026-04-03T09:36:00Z</time></trkpt><trkpt lat="38.9585743571554" lon="-9.254207757788297"><ele>180.66666666666666</ele><time>2026-04-03T09:36:01Z</time></trkpt><trkpt lat="38.958624049852446" lon="-9.254116172111416"><ele>179.83333333333331</ele><time>2026-04-03T09:36:02Z</time></trkpt><trkpt lat="38.95867040953793" lon="-9.254040954922186"><ele>179.0</ele><time>2026-04-03T09:36:03Z</time></trkpt><trkpt lat="38.9587240963384" lon="-9.253965992617523"><ele>179.0</ele><time>2026-04-03T09:36:04Z</time></trkpt><trkpt lat="38.958815570554705" lon="-9.253939948270515"><ele>179.0</ele><time>2026-04-03T09:36:05Z</time></trkpt><trkpt lat="38.95891364215269" lon="-9.253942647654746"><ele>179.0</ele><time>2026-04-03T09:36:06Z</time></trkpt><trkpt lat="38.95900711857215" lon="-9.253942325251648"><ele>179.0</ele><time>2026-04-03T09:36:07Z</time></trkpt><trkpt lat="38.9590767828134" lon="-9.253955363303975"><ele>179.0</ele><time>2026-04-03T09:36:08Z</time></trkpt><trkpt lat="38.959197922472235" lon="-9.253940753945747"><ele>178.16666666666666</ele><time>2026-04-03T09:36:10Z</time></trkpt><trkpt lat="38.95925588508404" lon="-9.253877804235298"><ele>177.33333333333331</ele><time>2026-04-03T09:36:11Z</time></trkpt><trkpt lat="38.9593027457856" lon="-9.253789606834813"><ele>176.5</ele><time>2026-04-03T09:36:12Z</time></trkpt><trkpt lat="38.95933123996959" lon="-9.253654566004503"><ele>175.66666666666666</ele><time>2026-04-03T09:36:13Z</time></trkpt><trkpt lat="38.95936402306322" lon="-9.253562733776063"><ele>174.83333333333334</ele><time>2026-04-03T09:36:14Z</time></trkpt><trkpt lat="38.95940943511029" lon="-9.253494848891302"><ele>174.0</ele><time>2026-04-03T09:36:15Z</time></trkpt><trkpt lat="38.959466740184986" lon="-9.25344600580261"><ele>174.0</ele><time>2026-04-03T09:36:16Z</time></trkpt><trkpt lat="38.95953506714023" lon="-9.253418412582247"><ele>174.0</ele><time>2026-04-03T09:36:17Z</time></trkpt><trkpt lat="38.959618761021325" lon="-9.253399686594882"><ele>174.0</ele><time>2026-04-03T09:36:18Z</time></trkpt><trkpt lat="38.95972839458675" lon="-9.253368102290175"><ele>174.0</ele><time>2026-04-03T09:36:19Z</time></trkpt><trkpt lat="38.95982445421279" lon="-9.25332321190576"><ele>174.0</ele><time>2026-04-03T09:36:20Z</time></trkpt><trkpt lat="38.9599312354683" lon="-9.253269732305666"><ele>174.0</ele><time>2026-04-03T09:36:21Z</time></trkpt><trkpt lat="38.96000577407316" lon="-9.253222338213462"><ele>174.0</ele><time>2026-04-03T09:36:22Z</time></trkpt><trkpt lat="38.96009104890154" lon="-9.25318328513336"><ele>174.0</ele><time>2026-04-03T09:36:23Z</time></trkpt><trkpt lat="38.960155394949524" lon="-9.253146880225088"><ele>174.0</ele><time>2026-04-03T09:36:24Z</time></trkpt><trkpt lat="38.96022782166949" lon="-9.253134850486298"><ele>174.0</ele><time>2026-04-03T09:36:25Z</time></trkpt><trkpt lat="38.96032086673245" lon="-9.253148317744824"><ele>174.0</ele><time>2026-04-03T09:36:26Z</time></trkpt><trkpt lat="38.9603935477109" lon="-9.253186726109865"><ele>173.16666666666666</ele><time>2026-04-03T09:36:27Z</time></trkpt><trkpt lat="38.96046268560656" lon="-9.253225234681953"><ele>172.33333333333334</ele><time>2026-04-03T09:36:29Z</time></trkpt><trkpt lat="38.960539791641" lon="-9.25324957596628"><ele>171.5</ele><time>2026-04-03T09:36:31Z</time></trkpt><trkpt lat="38.96061450007781" lon="-9.253262559959538"><ele>170.66666666666669</ele><time>2026-04-03T09:36:33Z</time></trkpt><trkpt lat="38.9606938600678" lon="-9.253276571838619"><ele>169.83333333333334</ele><time>2026-04-03T09:36:36Z</time></trkpt><trkpt lat="38.9607813762131" lon="-9.253293210908419"><ele>169.0</ele><time>2026-04-03T09:36:38Z</time></trkpt><trkpt lat="38.96086412990961" lon="-9.253329199978413"><ele>168.2</ele><time>2026-04-03T09:36:40Z</time></trkpt><trkpt lat="38.96096285629154" lon="-9.253355845563116"><ele>167.39999999999998</ele><time>2026-04-03T09:36:42Z</time></trkpt><trkpt lat="38.96106876834357" lon="-9.253321674270675"><ele>166.6</ele><time>2026-04-03T09:36:44Z</time></trkpt><trkpt lat="38.9611734223916" lon="-9.253299560797812"><ele>165.8</ele><time>2026-04-03T09:36:46Z</time></trkpt><trkpt lat="38.961273869887656" lon="-9.253306694418717"><ele>165.0</ele><time>2026-04-03T09:36:48Z</time></trkpt><trkpt lat="38.96134831941101" lon="-9.2533196606001"><ele>165.0</ele><time>2026-04-03T09:36:50Z</time></trkpt><trkpt lat="38.96143769082009" lon="-9.25332408464271"><ele>165.0</ele><time>2026-04-03T09:36:52Z</time></trkpt><trkpt lat="38.96153335667799" lon="-9.253335968703986"><ele>165.0</ele><time>2026-04-03T09:36:54Z</time></trkpt><trkpt lat="38.961621117886516" lon="-9.253384411243877"><ele>165.0</ele><time>2026-04-03T09:36:56Z</time></trkpt><trkpt lat="38.96163334942404" lon="-9.253509525786082"><ele>165.0</ele><time>2026-04-03T09:36:58Z</time></trkpt><trkpt lat="38.96156258445279" lon="-9.25356874584533"><ele>165.00000000000003</ele><time>2026-04-03T09:37:00Z</time></trkpt><trkpt lat="38.96149104522806" lon="-9.25361443918472"><ele>165.0</ele><time>2026-04-03T09:37:03Z</time></trkpt><trkpt lat="38.961462973675815" lon="-9.253688662767328"><ele>165.0</ele><time>2026-04-03T09:37:07Z</time></trkpt><trkpt lat="38.9614661960796" lon="-9.253777103042681"><ele>165.0</ele><time>2026-04-03T09:37:16Z</time></trkpt><trkpt lat="38.961489929410455" lon="-9.25385345974549"><ele>165.0</ele><time>2026-04-03T09:37:25Z</time></trkpt><trkpt lat="38.96153169427344" lon="-9.25394090312343"><ele>165.00000000000003</ele><time>2026-04-03T09:37:32Z</time></trkpt><trkpt lat="38.96157248461739" lon="-9.254004090684047"><ele>165.0</ele><time>2026-04-03T09:37:34Z</time></trkpt><trkpt lat="38.96163206725925" lon="-9.254086001531283"><ele>163.5</ele><time>2026-04-03T09:37:37Z</time></trkpt><trkpt lat="38.96168361187469" lon="-9.254149324462995"><ele>162.0</ele><time>2026-04-03T09:37:40Z</time></trkpt><trkpt lat="38.96172689976431" lon="-9.254235547278846"><ele>160.5</ele><time>2026-04-03T09:37:42Z</time></trkpt><trkpt lat="38.96173448550173" lon="-9.25434480425375"><ele>159.0</ele><time>2026-04-03T09:37:44Z</time></trkpt><trkpt lat="38.96177919044898" lon="-9.254420608057782"><ele>157.5</ele><time>2026-04-03T09:37:46Z</time></trkpt><trkpt lat="38.96190487258089" lon="-9.25444859201877"><ele>156.0</ele><time>2026-04-03T09:37:48Z</time></trkpt><trkpt lat="38.962010679518215" lon="-9.254382992019643"><ele>155.6</ele><time>2026-04-03T09:37:50Z</time></trkpt><trkpt lat="38.96207181705004" lon="-9.25434721485711"><ele>155.2</ele><time>2026-04-03T09:37:51Z</time></trkpt><trkpt lat="38.96217079531388" lon="-9.254311069219577"><ele>154.8</ele><time>2026-04-03T09:37:52Z</time></trkpt><trkpt lat="38.962251482508165" lon="-9.254257710545515"><ele>154.4</ele><time>2026-04-03T09:37:53Z</time></trkpt><trkpt lat="38.96234942334851" lon="-9.2542171703367"><ele>154.0</ele><time>2026-04-03T09:37:54Z</time></trkpt><trkpt lat="38.962455102780616" lon="-9.254175258980682"><ele>155.2</ele><time>2026-04-03T09:37:55Z</time></trkpt><trkpt lat="38.96255348890935" lon="-9.254119256700985"><ele>156.4</ele><time>2026-04-03T09:37:56Z</time></trkpt><trkpt lat="38.962645746102666" lon="-9.254084297449163"><ele>157.6</ele><time>2026-04-03T09:37:57Z</time></trkpt><trkpt lat="38.96272517505109" lon="-9.254047616461941"><ele>158.8</ele><time>2026-04-03T09:37:58Z</time></trkpt><trkpt lat="38.96280505160998" lon="-9.254007158128193"><ele>160.0</ele><time>2026-04-03T09:37:59Z</time></trkpt><trkpt lat="38.96288005520734" lon="-9.253960570007976"><ele>158.0</ele><time>2026-04-03T09:38:00Z</time></trkpt><trkpt lat="38.96293066494219" lon="-9.253907028617668"><ele>156.0</ele><time>2026-04-03T09:38:01Z</time></trkpt><trkpt lat="38.962971650447074" lon="-9.253845353051794"><ele>154.0</ele><time>2026-04-03T09:38:02Z</time></trkpt><trkpt lat="38.96302760364618" lon="-9.253740079959359"><ele>152.0</ele><time>2026-04-03T09:38:04Z</time></trkpt><trkpt lat="38.96307808198238" lon="-9.253677138322281"><ele>150.0</ele><time>2026-04-03T09:38:05Z</time></trkpt><trkpt lat="38.96313141623169" lon="-9.253614873271792"><ele>148.0</ele><time>2026-04-03T09:38:06Z</time></trkpt><trkpt lat="38.96317423822313" lon="-9.253554952436895"><ele>146.0</ele><time>2026-04-03T09:38:07Z</time></trkpt><trkpt lat="38.96321723238586" lon="-9.253486341789484"><ele>146.0</ele><time>2026-04-03T09:38:08Z</time></trkpt><trkpt lat="38.96327558493381" lon="-9.25336449840344"><ele>146.0</ele><time>2026-04-03T09:38:10Z</time></trkpt><trkpt lat="38.963324631194276" lon="-9.253238179065486"><ele>146.0</ele><time>2026-04-03T09:38:12Z</time></trkpt><trkpt lat="38.96342128570069" lon="-9.253179162918848"><ele>146.0</ele><time>2026-04-03T09:38:14Z</time></trkpt><trkpt lat="38.963558005243364" lon="-9.253232119775575"><ele>145.33333333333331</ele><time>2026-04-03T09:38:16Z</time></trkpt><trkpt lat="38.963619860198094" lon="-9.253296767151744"><ele>144.66666666666666</ele><time>2026-04-03T09:38:17Z</time></trkpt><trkpt lat="38.9636428747067" lon="-9.253373734825473"><ele>144.0</ele><time>2026-04-03T09:38:18Z</time></trkpt><trkpt lat="38.96366804099521" lon="-9.253508365033436"><ele>143.33333333333334</ele><time>2026-04-03T09:38:20Z</time></trkpt><trkpt lat="38.963751145730086" lon="-9.253495578385657"><ele>142.66666666666669</ele><time>2026-04-03T09:38:22Z</time></trkpt><trkpt lat="38.96381679633322" lon="-9.253433848508994"><ele>142.0</ele><time>2026-04-03T09:38:23Z</time></trkpt><trkpt lat="38.96385359401212" lon="-9.25335325256686"><ele>142.0</ele><time>2026-04-03T09:38:24Z</time></trkpt><trkpt lat="38.96388489147874" lon="-9.253267623665621"><ele>142.0</ele><time>2026-04-03T09:38:25Z</time></trkpt><trkpt lat="38.96389445956438" lon="-9.253142687591977"><ele>142.0</ele><time>2026-04-03T09:38:26Z</time></trkpt><trkpt lat="38.96392633743094" lon="-9.253030569697874"><ele>142.0</ele><time>2026-04-03T09:38:27Z</time></trkpt><trkpt lat="38.96397507126185" lon="-9.252959779242051"><ele>142.0</ele><time>2026-04-03T09:38:28Z</time></trkpt><trkpt lat="38.964064313193575" lon="-9.252897355456533"><ele>142.0</ele><time>2026-04-03T09:38:30Z</time></trkpt><trkpt lat="38.96415906927945" lon="-9.252829093718246"><ele>139.6</ele><time>2026-04-03T09:38:32Z</time></trkpt><trkpt lat="38.964247277560254" lon="-9.252781937090482"><ele>137.2</ele><time>2026-04-03T09:38:34Z</time></trkpt><trkpt lat="38.96434452813961" lon="-9.252764267986214"><ele>134.8</ele><time>2026-04-03T09:38:36Z</time></trkpt><trkpt lat="38.964460756068945" lon="-9.252722337967525"><ele>132.4</ele><time>2026-04-03T09:38:38Z</time></trkpt><trkpt lat="38.96456016419407" lon="-9.252716222147797"><ele>130.0</ele><time>2026-04-03T09:38:40Z</time></trkpt><trkpt lat="38.964648974357836" lon="-9.252695549321643"><ele>130.0</ele><time>2026-04-03T09:38:42Z</time></trkpt><trkpt lat="38.96473284999729" lon="-9.252663380660842"><ele>130.0</ele><time>2026-04-03T09:38:44Z</time></trkpt><trkpt lat="38.96482111921464" lon="-9.252613752374074"><ele>130.0</ele><time>2026-04-03T09:38:46Z</time></trkpt><trkpt lat="38.96492589691373" lon="-9.252574711231318"><ele>130.0</ele><time>2026-04-03T09:38:48Z</time></trkpt><trkpt lat="38.965000920472306" lon="-9.252543238889077"><ele>130.0</ele><time>2026-04-03T09:38:49Z</time></trkpt><trkpt lat="38.96508168390119" lon="-9.252578467995695"><ele>129.83333333333334</ele><time>2026-04-03T09:38:50Z</time></trkpt><trkpt lat="38.9651374031996" lon="-9.252629322215117"><ele>129.66666666666669</ele><time>2026-04-03T09:38:51Z</time></trkpt><trkpt lat="38.9652100105806" lon="-9.25266906152172"><ele>129.5</ele><time>2026-04-03T09:38:52Z</time></trkpt><trkpt lat="38.96527753386277" lon="-9.252704202092627"><ele>129.33333333333334</ele><time>2026-04-03T09:38:53Z</time></trkpt><trkpt lat="38.96535217621272" lon="-9.25269949188101"><ele>129.16666666666666</ele><time>2026-04-03T09:38:54Z</time></trkpt><trkpt lat="38.96543516688833" lon="-9.252682598537834"><ele>129.0</ele><time>2026-04-03T09:38:55Z</time></trkpt><trkpt lat="38.96553195942072" lon="-9.252664809793782"><ele>129.0</ele><time>2026-04-03T09:38:56Z</time></trkpt><trkpt lat="38.96562637362279" lon="-9.252694337432251"><ele>129.0</ele><time>2026-04-03T09:38:57Z</time></trkpt><trkpt lat="38.96572108891138" lon="-9.252727224091856"><ele>129.0</ele><time>2026-04-03T09:38:58Z</time></trkpt><trkpt lat="38.96583607490025" lon="-9.25274281188837"><ele>129.0</ele><time>2026-04-03T09:38:59Z</time></trkpt><trkpt lat="38.965938495935866" lon="-9.252728929939588"><ele>129.0</ele><time>2026-04-03T09:39:00Z</time></trkpt><trkpt lat="38.966025471067816" lon="-9.252719925228575"><ele>128.16666666666666</ele><time>2026-04-03T09:39:01Z</time></trkpt><trkpt lat="38.966113764507654" lon="-9.252703287965288"><ele>127.33333333333334</ele><time>2026-04-03T09:39:02Z</time></trkpt><trkpt lat="38.96619898078374" lon="-9.25271774841736"><ele>126.5</ele><time>2026-04-03T09:39:03Z</time></trkpt><trkpt lat="38.966291417554984" lon="-9.25272984644815"><ele>125.66666666666667</ele><time>2026-04-03T09:39:04Z</time></trkpt><trkpt lat="38.96637147417477" lon="-9.252747140150332"><ele>124.83333333333334</ele><time>2026-04-03T09:39:05Z</time></trkpt><trkpt lat="38.966454235983846" lon="-9.252761844960387"><ele>124.0</ele><time>2026-04-03T09:39:06Z</time></trkpt><trkpt lat="38.9665221381212" lon="-9.252766979099393"><ele>124.0</ele><time>2026-04-03T09:39:07Z</time></trkpt><trkpt lat="38.96658604584488" lon="-9.252751865269344"><ele>124.0</ele><time>2026-04-03T09:39:08Z</time></trkpt><trkpt lat="38.96669525096425" lon="-9.252762100214857"><ele>124.0</ele><time>2026-04-03T09:39:10Z</time></trkpt><trkpt lat="38.966747550806495" lon="-9.252851232015935"><ele>124.0</ele><time>2026-04-03T09:39:11Z</time></trkpt><trkpt lat="38.96678918635486" lon="-9.252964891114024"><ele>124.0</ele><time>2026-04-03T09:39:12Z</time></trkpt><trkpt lat="38.96687629550061" lon="-9.253036891122916"><ele>124.25</ele><time>2026-04-03T09:39:13Z</time></trkpt><trkpt lat="38.96695411782439" lon="-9.253146116376076"><ele>124.5</ele><time>2026-04-03T09:39:14Z</time></trkpt><trkpt lat="38.9670407300878" lon="-9.253238019226165"><ele>124.75</ele><time>2026-04-03T09:39:15Z</time></trkpt><trkpt lat="38.96713512517225" lon="-9.25331021766626"><ele>125.0</ele><time>2026-04-03T09:39:16Z</time></trkpt><trkpt lat="38.96723945715054" lon="-9.253404682984057"><ele>125.0</ele><time>2026-04-03T09:39:17Z</time></trkpt><trkpt lat="38.967337918291136" lon="-9.253509974141737"><ele>125.0</ele><time>2026-04-03T09:39:18Z</time></trkpt><trkpt lat="38.96741036838965" lon="-9.253637358848234"><ele>125.0</ele><time>2026-04-03T09:39:19Z</time></trkpt><trkpt lat="38.96746417952158" lon="-9.25376972108189"><ele>125.0</ele><time>2026-04-03T09:39:20Z</time></trkpt><trkpt lat="38.96749378711165" lon="-9.253910881008112"><ele>127.6</ele><time>2026-04-03T09:39:21Z</time></trkpt><trkpt lat="38.96750938134075" lon="-9.25404417816891"><ele>130.2</ele><time>2026-04-03T09:39:22Z</time></trkpt><trkpt lat="38.96752047398457" lon="-9.254156243213991"><ele>132.8</ele><time>2026-04-03T09:39:23Z</time></trkpt><trkpt lat="38.967534279210255" lon="-9.25424648275297"><ele>135.4</ele><time>2026-04-03T09:39:24Z</time></trkpt><trkpt lat="38.96758062305134" lon="-9.254343765994847"><ele>138.0</ele><time>2026-04-03T09:39:25Z</time></trkpt><trkpt lat="38.96767950878863" lon="-9.254380641804753"><ele>138.0</ele><time>2026-04-03T09:39:26Z</time></trkpt><trkpt lat="38.96778628855219" lon="-9.254266196399694"><ele>138.0</ele><time>2026-04-03T09:39:27Z</time></trkpt><trkpt lat="38.9678820465118" lon="-9.254209696192772"><ele>138.0</ele><time>2026-04-03T09:39:28Z</time></trkpt><trkpt lat="38.967986250245296" lon="-9.25414326232608"><ele>138.0</ele><time>2026-04-03T09:39:29Z</time></trkpt><trkpt lat="38.96809670596118" lon="-9.254094482594486"><ele>138.0</ele><time>2026-04-03T09:39:30Z</time></trkpt><trkpt lat="38.968197689714714" lon="-9.254054453643922"><ele>138.0</ele><time>2026-04-03T09:39:31Z</time></trkpt><trkpt lat="38.96829723168184" lon="-9.254042870802152"><ele>138.0</ele><time>2026-04-03T09:39:32Z</time></trkpt><trkpt lat="38.96838149117879" lon="-9.25407589898363"><ele>138.0</ele><time>2026-04-03T09:39:33Z</time></trkpt><trkpt lat="38.96845088348235" lon="-9.254156917550858"><ele>138.0</ele><time>2026-04-03T09:39:34Z</time></trkpt><trkpt lat="38.96850213291795" lon="-9.254275583759645"><ele>137.25</ele><time>2026-04-03T09:39:35Z</time></trkpt><trkpt lat="38.96859045724401" lon="-9.254406695237925"><ele>136.5</ele><time>2026-04-03T09:39:36Z</time></trkpt><trkpt lat="38.96869611766489" lon="-9.254494612760102"><ele>135.75</ele><time>2026-04-03T09:39:37Z</time></trkpt><trkpt lat="38.96879721901478" lon="-9.254595483363053"><ele>135.0</ele><time>2026-04-03T09:39:38Z</time></trkpt><trkpt lat="38.96887763649548" lon="-9.254722297252327"><ele>137.8</ele><time>2026-04-03T09:39:39Z</time></trkpt><trkpt lat="38.96896114510084" lon="-9.254825251984277"><ele>140.6</ele><time>2026-04-03T09:39:40Z</time></trkpt><trkpt lat="38.96904979889259" lon="-9.254883376564527"><ele>143.4</ele><time>2026-04-03T09:39:41Z</time></trkpt><trkpt lat="38.9691606822639" lon="-9.25489914333905"><ele>146.2</ele><time>2026-04-03T09:39:42Z</time></trkpt><trkpt lat="38.9692790246926" lon="-9.254881987203797"><ele>149.0</ele><time>2026-04-03T09:39:43Z</time></trkpt><trkpt lat="38.9693932331388" lon="-9.254834646425643"><ele>149.0</ele><time>2026-04-03T09:39:44Z</time></trkpt><trkpt lat="38.96948520901572" lon="-9.254782882136752"><ele>149.0</ele><time>2026-04-03T09:39:45Z</time></trkpt><trkpt lat="38.96956017398723" lon="-9.254857392720863"><ele>149.0</ele><time>2026-04-03T09:39:46Z</time></trkpt><trkpt lat="38.96960497752193" lon="-9.254963748052361"><ele>149.0</ele><time>2026-04-03T09:39:47Z</time></trkpt><trkpt lat="38.96969496306556" lon="-9.255039063116676"><ele>149.0</ele><time>2026-04-03T09:39:48Z</time></trkpt><trkpt lat="38.96979006105669" lon="-9.255080542763714"><ele>149.0</ele><time>2026-04-03T09:39:49Z</time></trkpt><trkpt lat="38.96990424314808" lon="-9.255136482000008"><ele>149.0</ele><time>2026-04-03T09:39:50Z</time></trkpt><trkpt lat="38.970029937348855" lon="-9.25522181579758"><ele>149.0</ele><time>2026-04-03T09:39:51Z</time></trkpt><trkpt lat="38.970167676194436" lon="-9.255291325988871"><ele>149.0</ele><time>2026-04-03T09:39:52Z</time></trkpt><trkpt lat="38.970307591379814" lon="-9.25533165886528"><ele>150.5</ele><time>2026-04-03T09:39:53Z</time></trkpt><trkpt lat="38.97043657211265" lon="-9.255345241386907"><ele>152.0</ele><time>2026-04-03T09:39:54Z</time></trkpt><trkpt lat="38.9705448477532" lon="-9.255361577292556"><ele>153.5</ele><time>2026-04-03T09:39:55Z</time></trkpt><trkpt lat="38.97061691834911" lon="-9.255463761841801"><ele>155.0</ele><time>2026-04-03T09:39:56Z</time></trkpt><trkpt lat="38.9706843898966" lon="-9.255590793740286"><ele>155.4</ele><time>2026-04-03T09:39:57Z</time></trkpt><trkpt lat="38.97076579592816" lon="-9.255702299934038"><ele>155.8</ele><time>2026-04-03T09:39:58Z</time></trkpt><trkpt lat="38.97082605999579" lon="-9.255795908959064"><ele>156.2</ele><time>2026-04-03T09:39:59Z</time></trkpt><trkpt lat="38.970890166953936" lon="-9.255881681329296"><ele>156.6</ele><time>2026-04-03T09:40:00Z</time></trkpt><trkpt lat="38.970970193082536" lon="-9.25591405539911"><ele>157.0</ele><time>2026-04-03T09:40:01Z</time></trkpt><trkpt lat="38.971056400781364" lon="-9.255952818683731"><ele>155.79999999999998</ele><time>2026-04-03T09:40:03Z</time></trkpt><trkpt lat="38.971019419201305" lon="-9.256107853104753"><ele>154.6</ele><time>2026-04-03T09:40:04Z</time></trkpt><trkpt lat="38.971142607253846" lon="-9.256144798710622"><ele>153.39999999999998</ele><time>2026-04-03T09:40:06Z</time></trkpt><trkpt lat="38.97123493011278" lon="-9.256125345250599"><ele>152.2</ele><time>2026-04-03T09:40:07Z</time></trkpt><trkpt lat="38.97132585990802" lon="-9.256116049006827"><ele>151.0</ele><time>2026-04-03T09:40:08Z</time></trkpt><trkpt lat="38.971409311541436" lon="-9.256114114410035"><ele>151.0</ele><time>2026-04-03T09:40:09Z</time></trkpt><trkpt lat="38.971488042119375" lon="-9.25614722081769"><ele>151.0</ele><time>2026-04-03T09:40:10Z</time></trkpt><trkpt lat="38.97155829893772" lon="-9.256132004389533"><ele>151.0</ele><time>2026-04-03T09:40:11Z</time></trkpt><trkpt lat="38.97162164461867" lon="-9.256139860179125"><ele>151.0</ele><time>2026-04-03T09:40:12Z</time></trkpt><trkpt lat="38.97167973451575" lon="-9.256099926218432"><ele>151.0</ele><time>2026-04-03T09:40:13Z</time></trkpt><trkpt lat="38.97173337933838" lon="-9.256026665073966"><ele>151.0</ele><time>2026-04-03T09:40:14Z</time></trkpt><trkpt lat="38.97179061785277" lon="-9.255936616541055"><ele>150.66666666666669</ele><time>2026-04-03T09:40:15Z</time></trkpt><trkpt lat="38.97184394177945" lon="-9.255855654808027"><ele>150.33333333333334</ele><time>2026-04-03T09:40:16Z</time></trkpt><trkpt lat="38.97189597354398" lon="-9.255788792105593"><ele>150.0</ele><time>2026-04-03T09:40:17Z</time></trkpt><trkpt lat="38.971943489563095" lon="-9.255725711879439"><ele>149.66666666666666</ele><time>2026-04-03T09:40:18Z</time></trkpt><trkpt lat="38.97198961923883" lon="-9.255656757857153"><ele>149.33333333333331</ele><time>2026-04-03T09:40:19Z</time></trkpt><trkpt lat="38.972048788396116" lon="-9.255608874007272"><ele>149.0</ele><time>2026-04-03T09:40:20Z</time></trkpt><trkpt lat="38.97217477186534" lon="-9.255585187874324"><ele>149.0</ele><time>2026-04-03T09:40:22Z</time></trkpt><trkpt lat="38.97226654753924" lon="-9.255578776532127"><ele>149.0</ele><time>2026-04-03T09:40:23Z</time></trkpt><trkpt lat="38.97235458058508" lon="-9.255565228190125"><ele>149.0</ele><time>2026-04-03T09:40:24Z</time></trkpt><trkpt lat="38.972428151141614" lon="-9.255551444531717"><ele>149.0</ele><time>2026-04-03T09:40:25Z</time></trkpt><trkpt lat="38.97250100592495" lon="-9.255475550425004"><ele>149.0</ele><time>2026-04-03T09:40:26Z</time></trkpt><trkpt lat="38.97257967421106" lon="-9.255413849372172"><ele>149.0</ele><time>2026-04-03T09:40:27Z</time></trkpt><trkpt lat="38.972657122400555" lon="-9.25535475443618"><ele>148.16666666666666</ele><time>2026-04-03T09:40:28Z</time></trkpt><trkpt lat="38.972717824179504" lon="-9.25531418849986"><ele>147.33333333333331</ele><time>2026-04-03T09:40:29Z</time></trkpt><trkpt lat="38.972807503573875" lon="-9.255275439588504"><ele>146.5</ele><time>2026-04-03T09:40:31Z</time></trkpt><trkpt lat="38.97287144814541" lon="-9.255261338817292"><ele>145.66666666666666</ele><time>2026-04-03T09:40:33Z</time></trkpt><trkpt lat="38.97292678637863" lon="-9.255165747931413"><ele>144.83333333333334</ele><time>2026-04-03T09:40:35Z</time></trkpt><trkpt lat="38.97303081315697" lon="-9.25511155117393"><ele>144.0</ele><time>2026-04-03T09:40:37Z</time></trkpt><trkpt lat="38.97309671334798" lon="-9.255079978991196"><ele>144.0</ele><time>2026-04-03T09:40:38Z</time></trkpt><trkpt lat="38.973157038370935" lon="-9.255031215147932"><ele>144.0</ele><time>2026-04-03T09:40:39Z</time></trkpt><trkpt lat="38.97325486944537" lon="-9.254969457710544"><ele>144.0</ele><time>2026-04-03T09:40:41Z</time></trkpt><trkpt lat="38.97329804317981" lon="-9.25490892694229"><ele>144.0</ele><time>2026-04-03T09:40:42Z</time></trkpt><trkpt lat="38.9733503755819" lon="-9.254863383804876"><ele>144.0</ele><time>2026-04-03T09:40:43Z</time></trkpt><trkpt lat="38.97344544684118" lon="-9.254910513785257"><ele>144.0</ele><time>2026-04-03T09:40:44Z</time></trkpt><trkpt lat="38.97352383215288" lon="-9.25487734672779"><ele>143.6</ele><time>2026-04-03T09:40:45Z</time></trkpt><trkpt lat="38.973588807285594" lon="-9.254863966012895"><ele>143.2</ele><time>2026-04-03T09:40:46Z</time></trkpt><trkpt lat="38.97371562346615" lon="-9.254831319179926"><ele>142.79999999999998</ele><time>2026-04-03T09:40:48Z</time></trkpt><trkpt lat="38.973781332928404" lon="-9.254815162085068"><ele>142.4</ele><time>2026-04-03T09:40:49Z</time></trkpt><trkpt lat="38.973894818730095" lon="-9.254811407278211"><ele>142.0</ele><time>2026-04-03T09:40:51Z</time></trkpt><trkpt lat="38.97399969899472" lon="-9.254885295619026"><ele>142.0</ele><time>2026-04-03T09:40:53Z</time></trkpt><trkpt lat="38.974061056829086" lon="-9.25495364969542"><ele>142.0</ele><time>2026-04-03T09:40:55Z</time></trkpt><trkpt lat="38.97414898256675" lon="-9.25492112387361"><ele>142.0</ele><time>2026-04-03T09:40:57Z</time></trkpt><trkpt lat="38.974256581489335" lon="-9.254881507207775"><ele>142.0</ele><time>2026-04-03T09:40:59Z</time></trkpt><trkpt lat="38.97435183306867" lon="-9.254846688053867"><ele>142.0</ele><time>2026-04-03T09:41:01Z</time></trkpt><trkpt lat="38.97440897721209" lon="-9.254949512222108"><ele>141.33333333333334</ele><time>2026-04-03T09:41:04Z</time></trkpt><trkpt lat="38.97443872175203" lon="-9.255034409490946"><ele>140.66666666666669</ele><time>2026-04-03T09:41:05Z</time></trkpt><trkpt lat="38.97446302574061" lon="-9.25512001423166"><ele>140.0</ele><time>2026-04-03T09:41:06Z</time></trkpt><trkpt lat="38.97450033935106" lon="-9.255214118751947"><ele>139.33333333333334</ele><time>2026-04-03T09:41:07Z</time></trkpt><trkpt lat="38.974551076526296" lon="-9.255277713033887"><ele>138.66666666666666</ele><time>2026-04-03T09:41:08Z</time></trkpt><trkpt lat="38.974586294964595" lon="-9.255347421003105"><ele>138.0</ele><time>2026-04-03T09:41:09Z</time></trkpt><trkpt lat="38.97461756761274" lon="-9.255521045181231"><ele>138.0</ele><time>2026-04-03T09:41:11Z</time></trkpt><trkpt lat="38.97462039078322" lon="-9.255607658117706"><ele>138.0</ele><time>2026-04-03T09:41:12Z</time></trkpt><trkpt lat="38.974647608694546" lon="-9.255725490424929"><ele>138.0</ele><time>2026-04-03T09:41:14Z</time></trkpt><trkpt lat="38.97472529170277" lon="-9.255709994364697"><ele>138.0</ele><time>2026-04-03T09:41:16Z</time></trkpt><trkpt lat="38.97478933978375" lon="-9.255717755612116"><ele>138.0</ele><time>2026-04-03T09:41:20Z</time></trkpt><trkpt lat="38.974853033382644" lon="-9.255736045250371"><ele>138.0</ele><time>2026-04-03T09:41:23Z</time></trkpt><trkpt lat="38.974944283189444" lon="-9.255761352517986"><ele>138.33333333333334</ele><time>2026-04-03T09:41:26Z</time></trkpt><trkpt lat="38.97497372533796" lon="-9.255855639689182"><ele>138.66666666666666</ele><time>2026-04-03T09:41:28Z</time></trkpt><trkpt lat="38.97498171298781" lon="-9.255949417675016"><ele>139.0</ele><time>2026-04-03T09:41:29Z</time></trkpt><trkpt lat="38.97499322938067" lon="-9.25604504107889"><ele>139.33333333333331</ele><time>2026-04-03T09:41:30Z</time></trkpt><trkpt lat="38.97501393439926" lon="-9.256123916512779"><ele>139.66666666666666</ele><time>2026-04-03T09:41:31Z</time></trkpt><trkpt lat="38.9750715368345" lon="-9.256249569868675"><ele>140.0</ele><time>2026-04-03T09:41:33Z</time></trkpt><trkpt lat="38.97501377428095" lon="-9.25639432990859"><ele>140.0</ele><time>2026-04-03T09:41:35Z</time></trkpt><trkpt lat="38.974924466383285" lon="-9.256448834291705"><ele>140.0</ele><time>2026-04-03T09:41:36Z</time></trkpt><trkpt lat="38.974829460604816" lon="-9.25653368972366"><ele>140.0</ele><time>2026-04-03T09:41:38Z</time></trkpt><trkpt lat="38.974765847052524" lon="-9.256633469641924"><ele>140.0</ele><time>2026-04-03T09:41:40Z</time></trkpt><trkpt lat="38.974679227713494" lon="-9.256661275478095"><ele>140.0</ele><time>2026-04-03T09:41:42Z</time></trkpt><trkpt lat="38.97467394675769" lon="-9.256785578318635"><ele>139.66666666666666</ele><time>2026-04-03T09:41:46Z</time></trkpt><trkpt lat="38.97471592177083" lon="-9.256880209684663"><ele>139.33333333333331</ele><time>2026-04-03T09:41:47Z</time></trkpt><trkpt lat="38.97476352604856" lon="-9.25699346045337"><ele>139.0</ele><time>2026-04-03T09:41:48Z</time></trkpt><trkpt lat="38.97479955915628" lon="-9.257105405185502"><ele>138.66666666666666</ele><time>2026-04-03T09:41:49Z</time></trkpt><trkpt lat="38.97483149667196" lon="-9.257201175875027"><ele>138.33333333333334</ele><time>2026-04-03T09:41:50Z</time></trkpt><trkpt lat="38.974864537799185" lon="-9.257291425452612"><ele>138.0</ele><time>2026-04-03T09:41:51Z</time></trkpt><trkpt lat="38.974915411758424" lon="-9.257383808948157"><ele>136.16666666666666</ele><time>2026-04-03T09:41:52Z</time></trkpt><trkpt lat="38.97498707205335" lon="-9.25746994350793"><ele>134.33333333333334</ele><time>2026-04-03T09:41:53Z</time></trkpt><trkpt lat="38.97505007257206" lon="-9.25754728562524"><ele>132.5</ele><time>2026-04-03T09:41:54Z</time></trkpt><trkpt lat="38.975100103617606" lon="-9.257620577841633"><ele>130.66666666666669</ele><time>2026-04-03T09:41:55Z</time></trkpt><trkpt lat="38.97513767114592" lon="-9.257702453918727"><ele>128.83333333333334</ele><time>2026-04-03T09:41:56Z</time></trkpt><trkpt lat="38.97516075349615" lon="-9.257794585262234"><ele>127.0</ele><time>2026-04-03T09:41:57Z</time></trkpt><trkpt lat="38.97519133763881" lon="-9.257882220655238"><ele>126.83333333333334</ele><time>2026-04-03T09:41:58Z</time></trkpt><trkpt lat="38.97523544178243" lon="-9.257955626048796"><ele>126.66666666666667</ele><time>2026-04-03T09:41:59Z</time></trkpt><trkpt lat="38.975290223521746" lon="-9.258014609344023"><ele>126.5</ele><time>2026-04-03T09:42:00Z</time></trkpt><trkpt lat="38.975342008356854" lon="-9.258089944088738"><ele>126.33333333333334</ele><time>2026-04-03T09:42:02Z</time></trkpt><trkpt lat="38.97536258180387" lon="-9.258178738561936"><ele>126.16666666666667</ele><time>2026-04-03T09:42:05Z</time></trkpt><trkpt lat="38.97538369058392" lon="-9.25828241319799"><ele>126.0</ele><time>2026-04-03T09:42:15Z</time></trkpt><trkpt lat="38.9754523980209" lon="-9.258365245391062"><ele>124.16666666666667</ele><time>2026-04-03T09:42:17Z</time></trkpt><trkpt lat="38.97553443030727" lon="-9.258432318312009"><ele>122.33333333333334</ele><time>2026-04-03T09:42:19Z</time></trkpt><trkpt lat="38.97560959832512" lon="-9.258463008105602"><ele>120.5</ele><time>2026-04-03T09:42:21Z</time></trkpt><trkpt lat="38.97567438962627" lon="-9.258479116753506"><ele>118.66666666666667</ele><time>2026-04-03T09:43:24Z</time></trkpt><trkpt lat="38.975759829070704" lon="-9.258509372429602"><ele>116.83333333333334</ele><time>2026-04-03T09:43:26Z</time></trkpt><trkpt lat="38.97585426356103" lon="-9.258526092924786"><ele>115.0</ele><time>2026-04-03T09:43:28Z</time></trkpt><trkpt lat="38.97596394127217" lon="-9.258542553873484"><ele>113.0</ele><time>2026-04-03T09:43:30Z</time></trkpt><trkpt lat="38.976057946868856" lon="-9.258551270746915"><ele>111.0</ele><time>2026-04-03T09:43:32Z</time></trkpt><trkpt lat="38.97621187075979" lon="-9.258526906319954"><ele>109.0</ele><time>2026-04-03T09:43:34Z</time></trkpt><trkpt lat="38.976325752340124" lon="-9.258481629617554"><ele>107.0</ele><time>2026-04-03T09:43:35Z</time></trkpt><trkpt lat="38.97645432297739" lon="-9.258423685430515"><ele>107.0</ele><time>2026-04-03T09:43:36Z</time></trkpt><trkpt lat="38.97658888282371" lon="-9.258343625351396"><ele>107.0</ele><time>2026-04-03T09:43:37Z</time></trkpt><trkpt lat="38.97669029595988" lon="-9.258249755645272"><ele>107.0</ele><time>2026-04-03T09:43:38Z</time></trkpt><trkpt lat="38.976785617852144" lon="-9.258116513985225"><ele>107.0</ele><time>2026-04-03T09:43:39Z</time></trkpt><trkpt lat="38.976823447927046" lon="-9.257935506609048"><ele>105.0</ele><time>2026-04-03T09:43:40Z</time></trkpt><trkpt lat="38.97686959671925" lon="-9.25775531162264"><ele>103.0</ele><time>2026-04-03T09:43:41Z</time></trkpt><trkpt lat="38.976930919546646" lon="-9.257576212496378"><ele>101.0</ele><time>2026-04-03T09:43:42Z</time></trkpt><trkpt lat="38.9769624877447" lon="-9.25740371873398"><ele>99.0</ele><time>2026-04-03T09:43:43Z</time></trkpt><trkpt lat="38.97701022302347" lon="-9.257236107049982"><ele>99.0</ele><time>2026-04-03T09:43:44Z</time></trkpt><trkpt lat="38.977069122737745" lon="-9.257092120096367"><ele>99.0</ele><time>2026-04-03T09:43:45Z</time></trkpt><trkpt lat="38.97714763313315" lon="-9.256965009595726"><ele>99.0</ele><time>2026-04-03T09:43:46Z</time></trkpt><trkpt lat="38.97723675766059" lon="-9.256874790658413"><ele>99.0</ele><time>2026-04-03T09:43:47Z</time></trkpt><trkpt lat="38.977341099885514" lon="-9.256815317048627"><ele>99.0</ele><time>2026-04-03T09:43:48Z</time></trkpt><trkpt lat="38.977464593010765" lon="-9.2567807975623"><ele>99.0</ele><time>2026-04-03T09:43:49Z</time></trkpt><trkpt lat="38.9775907019234" lon="-9.256775308126363"><ele>99.0</ele><time>2026-04-03T09:43:50Z</time></trkpt><trkpt lat="38.97770758477066" lon="-9.256807586809524"><ele>99.0</ele><time>2026-04-03T09:43:51Z</time></trkpt><trkpt lat="38.97781646930286" lon="-9.25686671539303"><ele>100.25</ele><time>2026-04-03T09:43:52Z</time></trkpt><trkpt lat="38.977912944956564" lon="-9.256943087691232"><ele>101.5</ele><time>2026-04-03T09:43:53Z</time></trkpt><trkpt lat="38.97800090101911" lon="-9.257033397171183"><ele>102.75</ele><time>2026-04-03T09:43:54Z</time></trkpt><trkpt lat="38.97808043804756" lon="-9.25715413841275"><ele>104.0</ele><time>2026-04-03T09:43:55Z</time></trkpt><trkpt lat="38.97814623337681" lon="-9.257294806293286"><ele>104.5</ele><time>2026-04-03T09:43:56Z</time></trkpt><trkpt lat="38.978188475812715" lon="-9.25746154734053"><ele>105.0</ele><time>2026-04-03T09:43:57Z</time></trkpt><trkpt lat="38.978194771094095" lon="-9.257643701106735"><ele>105.5</ele><time>2026-04-03T09:43:58Z</time></trkpt><trkpt lat="38.97819511336997" lon="-9.257836787562473"><ele>106.0</ele><time>2026-04-03T09:43:59Z</time></trkpt><trkpt lat="38.97819125193719" lon="-9.258026922611464"><ele>103.66666666666667</ele><time>2026-04-03T09:44:00Z</time></trkpt><trkpt lat="38.97818958816132" lon="-9.258237266804818"><ele>101.33333333333334</ele><time>2026-04-03T09:44:01Z</time></trkpt><trkpt lat="38.978192157318865" lon="-9.25844349481348"><ele>99.0</ele><time>2026-04-03T09:44:02Z</time></trkpt><trkpt lat="38.97819706357417" lon="-9.258626963861296"><ele>99.0</ele><time>2026-04-03T09:44:03Z</time></trkpt><trkpt lat="38.978198099560224" lon="-9.258796516017659"><ele>99.0</ele><time>2026-04-03T09:44:04Z</time></trkpt><trkpt lat="38.97821772519905" lon="-9.258954353275254"><ele>99.0</ele><time>2026-04-03T09:44:05Z</time></trkpt><trkpt lat="38.978270136746694" lon="-9.259099210437181"><ele>99.0</ele><time>2026-04-03T09:44:06Z</time></trkpt><trkpt lat="38.97832921329337" lon="-9.259229454082147"><ele>97.5</ele><time>2026-04-03T09:44:07Z</time></trkpt><trkpt lat="38.97838984087774" lon="-9.259356829795095"><ele>96.0</ele><time>2026-04-03T09:44:08Z</time></trkpt><trkpt lat="38.978460759694734" lon="-9.259476142907682"><ele>94.5</ele><time>2026-04-03T09:44:09Z</time></trkpt><trkpt lat="38.978524948826994" lon="-9.25960879627941"><ele>93.0</ele><time>2026-04-03T09:44:10Z</time></trkpt><trkpt lat="38.97859526936787" lon="-9.259754550772243"><ele>93.25</ele><time>2026-04-03T09:44:11Z</time></trkpt><trkpt lat="38.9786702516322" lon="-9.259896700535885"><ele>93.5</ele><time>2026-04-03T09:44:12Z</time></trkpt><trkpt lat="38.978748454944565" lon="-9.260039350926366"><ele>93.75</ele><time>2026-04-03T09:44:13Z</time></trkpt><trkpt lat="38.978823722710274" lon="-9.260186807197172"><ele>94.0</ele><time>2026-04-03T09:44:14Z</time></trkpt><trkpt lat="38.97889704513512" lon="-9.260331447847719"><ele>94.0</ele><time>2026-04-03T09:44:15Z</time></trkpt><trkpt lat="38.97896934141013" lon="-9.260468323320005"><ele>94.0</ele><time>2026-04-03T09:44:16Z</time></trkpt><trkpt lat="38.97903356776386" lon="-9.26060020230837"><ele>94.0</ele><time>2026-04-03T09:44:17Z</time></trkpt><trkpt lat="38.97909281155864" lon="-9.260716391647897"><ele>94.0</ele><time>2026-04-03T09:44:18Z</time></trkpt><trkpt lat="38.97914208066422" lon="-9.260808897523594"><ele>94.0</ele><time>2026-04-03T09:44:19Z</time></trkpt><trkpt lat="38.97918374032271" lon="-9.26087643208696"><ele>95.5</ele><time>2026-04-03T09:44:20Z</time></trkpt><trkpt lat="38.97922578053355" lon="-9.260944580855664"><ele>97.0</ele><time>2026-04-03T09:44:21Z</time></trkpt><trkpt lat="38.97924944621629" lon="-9.261023005991914"><ele>98.5</ele><time>2026-04-03T09:44:23Z</time></trkpt><trkpt lat="38.97928746748215" lon="-9.261088927750093"><ele>100.0</ele><time>2026-04-03T09:44:25Z</time></trkpt><trkpt lat="38.9793496163821" lon="-9.261214632942648"><ele>101.50000000000001</ele><time>2026-04-03T09:44:37Z</time></trkpt><trkpt lat="38.979399955181975" lon="-9.261310542548339"><ele>103.0</ele><time>2026-04-03T09:44:38Z</time></trkpt><trkpt lat="38.9794651144792" lon="-9.26143744447652"><ele>100.0</ele><time>2026-04-03T09:44:39Z</time></trkpt><trkpt lat="38.979533706971154" lon="-9.261574614947625"><ele>97.0</ele><time>2026-04-03T09:44:40Z</time></trkpt><trkpt lat="38.97961718048655" lon="-9.26173261517437"><ele>94.0</ele><time>2026-04-03T09:44:41Z</time></trkpt><trkpt lat="38.979699291403115" lon="-9.261900994647908"><ele>91.0</ele><time>2026-04-03T09:44:42Z</time></trkpt><trkpt lat="38.97978690764523" lon="-9.262083362600412"><ele>91.0</ele><time>2026-04-03T09:44:43Z</time></trkpt><trkpt lat="38.97987953408443" lon="-9.262276727769672"><ele>91.0</ele><time>2026-04-03T09:44:44Z</time></trkpt><trkpt lat="38.97997127861631" lon="-9.262485459719613"><ele>91.0</ele><time>2026-04-03T09:44:45Z</time></trkpt><trkpt lat="38.9800664248443" lon="-9.262700686001315"><ele>89.33333333333333</ele><time>2026-04-03T09:44:46Z</time></trkpt><trkpt lat="38.98015824736191" lon="-9.262913072405615"><ele>87.66666666666667</ele><time>2026-04-03T09:44:47Z</time></trkpt><trkpt lat="38.98024045711891" lon="-9.26310900295646"><ele>86.0</ele><time>2026-04-03T09:44:48Z</time></trkpt><trkpt lat="38.98031757097364" lon="-9.26329120840381"><ele>83.66666666666667</ele><time>2026-04-03T09:44:49Z</time></trkpt><trkpt lat="38.980397031223156" lon="-9.263474516903715"><ele>81.33333333333333</ele><time>2026-04-03T09:44:50Z</time></trkpt><trkpt lat="38.98046887706417" lon="-9.263644269537245"><ele>79.0</ele><time>2026-04-03T09:44:51Z</time></trkpt><trkpt lat="38.980541223494015" lon="-9.26381442337621"><ele>77.75</ele><time>2026-04-03T09:44:52Z</time></trkpt><trkpt lat="38.98060860320469" lon="-9.263966715791682"><ele>76.5</ele><time>2026-04-03T09:44:53Z</time></trkpt><trkpt lat="38.98068361586731" lon="-9.264140572388946"><ele>75.25</ele><time>2026-04-03T09:44:54Z</time></trkpt><trkpt lat="38.98075129916992" lon="-9.264302160186512"><ele>74.0</ele><time>2026-04-03T09:44:55Z</time></trkpt><trkpt lat="38.98079895726757" lon="-9.264456078579293"><ele>74.0</ele><time>2026-04-03T09:44:56Z</time></trkpt><trkpt lat="38.9808356609068" lon="-9.26460771030127"><ele>74.0</ele><time>2026-04-03T09:44:57Z</time></trkpt><trkpt lat="38.98086584034128" lon="-9.264773061425"><ele>74.0</ele><time>2026-04-03T09:44:58Z</time></trkpt><trkpt lat="38.9808748126152" lon="-9.264954758601403"><ele>74.0</ele><time>2026-04-03T09:44:59Z</time></trkpt><trkpt lat="38.98087487341447" lon="-9.265144368938055"><ele>75.33333333333334</ele><time>2026-04-03T09:45:00Z</time></trkpt><trkpt lat="38.98087889556948" lon="-9.265335717240259"><ele>76.66666666666667</ele><time>2026-04-03T09:45:01Z</time></trkpt><trkpt lat="38.98087872169871" lon="-9.265532330019546"><ele>78.0</ele><time>2026-04-03T09:45:02Z</time></trkpt><trkpt lat="38.98088396488141" lon="-9.265727607427886"><ele>78.0</ele><time>2026-04-03T09:45:03Z</time></trkpt><trkpt lat="38.98088837743364" lon="-9.265923139749303"><ele>78.0</ele><time>2026-04-03T09:45:04Z</time></trkpt><trkpt lat="38.98089442112051" lon="-9.266101930842476"><ele>78.0</ele><time>2026-04-03T09:45:05Z</time></trkpt><trkpt lat="38.98090258391365" lon="-9.266268740400085"><ele>78.0</ele><time>2026-04-03T09:45:06Z</time></trkpt><trkpt lat="38.98091853667024" lon="-9.26642438071519"><ele>77.0</ele><time>2026-04-03T09:45:07Z</time></trkpt><trkpt lat="38.98094304675561" lon="-9.266578554090527"><ele>76.0</ele><time>2026-04-03T09:45:08Z</time></trkpt><trkpt lat="38.980978171931575" lon="-9.266729022949862"><ele>75.0</ele><time>2026-04-03T09:45:09Z</time></trkpt><trkpt lat="38.9810203092216" lon="-9.266885727388388"><ele>74.0</ele><time>2026-04-03T09:45:10Z</time></trkpt><trkpt lat="38.98107927652216" lon="-9.267037092724507"><ele>74.0</ele><time>2026-04-03T09:45:11Z</time></trkpt><trkpt lat="38.981137834540746" lon="-9.26719008220426"><ele>74.0</ele><time>2026-04-03T09:45:12Z</time></trkpt><trkpt lat="38.981205732430624" lon="-9.267341063500675"><ele>74.0</ele><time>2026-04-03T09:45:13Z</time></trkpt><trkpt lat="38.981269990314054" lon="-9.267496139387283"><ele>74.0</ele><time>2026-04-03T09:45:14Z</time></trkpt><trkpt lat="38.98132569577921" lon="-9.267633375420889"><ele>73.0</ele><time>2026-04-03T09:45:15Z</time></trkpt><trkpt lat="38.98136716209661" lon="-9.267747591592325"><ele>72.0</ele><time>2026-04-03T09:45:16Z</time></trkpt><trkpt lat="38.9814099751829" lon="-9.267851086572719"><ele>71.0</ele><time>2026-04-03T09:45:17Z</time></trkpt><trkpt lat="38.981452522206254" lon="-9.267955546505009"><ele>70.0</ele><time>2026-04-03T09:45:18Z</time></trkpt><trkpt lat="38.98148985367126" lon="-9.268038827002488"><ele>69.0</ele><time>2026-04-03T09:45:19Z</time></trkpt><trkpt lat="38.98157646821198" lon="-9.26810300798625"><ele>69.0</ele><time>2026-04-03T09:45:21Z</time></trkpt><trkpt lat="38.98162267002703" lon="-9.268004233303785"><ele>69.0</ele><time>2026-04-03T09:45:22Z</time></trkpt><trkpt lat="38.98169761198212" lon="-9.267955098276436"><ele>69.0</ele><time>2026-04-03T09:45:23Z</time></trkpt><trkpt lat="38.981781878467615" lon="-9.267922347948813"><ele>69.0</ele><time>2026-04-03T09:45:24Z</time></trkpt><trkpt lat="38.981874454062655" lon="-9.267852247578025"><ele>69.0</ele><time>2026-04-03T09:45:25Z</time></trkpt><trkpt lat="38.98198024972792" lon="-9.267780774304068"><ele>70.0</ele><time>2026-04-03T09:45:26Z</time></trkpt><trkpt lat="38.98209340197867" lon="-9.267698458719307"><ele>71.0</ele><time>2026-04-03T09:45:27Z</time></trkpt><trkpt lat="38.98220464360537" lon="-9.26759210149903"><ele>72.0</ele><time>2026-04-03T09:45:28Z</time></trkpt><trkpt lat="38.982295006012336" lon="-9.26746826045476"><ele>73.0</ele><time>2026-04-03T09:45:29Z</time></trkpt><trkpt lat="38.98234768327979" lon="-9.267366267064789"><ele>73.0</ele><time>2026-04-03T09:45:30Z</time></trkpt><trkpt lat="38.98241500013239" lon="-9.267305817634577"><ele>73.0</ele><time>2026-04-03T09:45:31Z</time></trkpt><trkpt lat="38.98246160298224" lon="-9.267233259503387"><ele>73.0</ele><time>2026-04-03T09:45:32Z</time></trkpt><trkpt lat="38.9825411302915" lon="-9.267173265826832"><ele>73.0</ele><time>2026-04-03T09:45:33Z</time></trkpt><trkpt lat="38.98262663095778" lon="-9.267101759635503"><ele>73.0</ele><time>2026-04-03T09:45:34Z</time></trkpt><trkpt lat="38.98272710689085" lon="-9.267035812081096"><ele>74.75</ele><time>2026-04-03T09:45:35Z</time></trkpt><trkpt lat="38.98282757829266" lon="-9.266981397656984"><ele>76.5</ele><time>2026-04-03T09:45:36Z</time></trkpt><trkpt lat="38.98294543195444" lon="-9.266920665678743"><ele>78.25</ele><time>2026-04-03T09:45:37Z</time></trkpt><trkpt lat="38.98304163164179" lon="-9.2668285418131"><ele>80.0</ele><time>2026-04-03T09:45:38Z</time></trkpt><trkpt lat="38.983149842372974" lon="-9.26677568404012"><ele>80.0</ele><time>2026-04-03T09:45:39Z</time></trkpt><trkpt lat="38.98325075304934" lon="-9.266710657098852"><ele>80.0</ele><time>2026-04-03T09:45:40Z</time></trkpt><trkpt lat="38.983382519682465" lon="-9.266677170128329"><ele>80.0</ele><time>2026-04-03T09:45:41Z</time></trkpt><trkpt lat="38.983513692580374" lon="-9.266633560926364"><ele>80.0</ele><time>2026-04-03T09:45:42Z</time></trkpt><trkpt lat="38.983646399996886" lon="-9.266593559891044"><ele>81.5</ele><time>2026-04-03T09:45:43Z</time></trkpt><trkpt lat="38.98377478027812" lon="-9.26654971065763"><ele>83.0</ele><time>2026-04-03T09:45:44Z</time></trkpt><trkpt lat="38.983875627382396" lon="-9.266520393344734"><ele>84.5</ele><time>2026-04-03T09:45:45Z</time></trkpt><trkpt lat="38.983954370222605" lon="-9.266418802679011"><ele>86.0</ele><time>2026-04-03T09:45:46Z</time></trkpt><trkpt lat="38.984065482063684" lon="-9.266357909361966"><ele>83.75</ele><time>2026-04-03T09:45:47Z</time></trkpt><trkpt lat="38.98418387106784" lon="-9.266269971410505"><ele>81.5</ele><time>2026-04-03T09:45:48Z</time></trkpt><trkpt lat="38.9843047118087" lon="-9.266196806212282"><ele>79.25</ele><time>2026-04-03T09:45:49Z</time></trkpt><trkpt lat="38.98439688584446" lon="-9.266099286115537"><ele>77.0</ele><time>2026-04-03T09:45:50Z</time></trkpt><trkpt lat="38.984462032449535" lon="-9.266007260412177"><ele>77.0</ele><time>2026-04-03T09:45:51Z</time></trkpt><trkpt lat="38.984521378552756" lon="-9.2658948641531"><ele>77.0</ele><time>2026-04-03T09:45:52Z</time></trkpt><trkpt lat="38.98457134422922" lon="-9.265767591073578"><ele>77.0</ele><time>2026-04-03T09:45:53Z</time></trkpt><trkpt lat="38.984600430205724" lon="-9.265667982923071"><ele>77.0</ele><time>2026-04-03T09:45:54Z</time></trkpt><trkpt lat="38.984599925712175" lon="-9.265575897276866"><ele>77.0</ele><time>2026-04-03T09:45:55Z</time></trkpt><trkpt lat="38.98461890414975" lon="-9.265460803706436"><ele>78.8</ele><time>2026-04-03T09:45:56Z</time></trkpt><trkpt lat="38.98463990036881" lon="-9.265333473382452"><ele>80.6</ele><time>2026-04-03T09:45:57Z</time></trkpt><trkpt lat="38.984794326633114" lon="-9.265262248476791"><ele>82.39999999999999</ele><time>2026-04-03T09:45:58Z</time></trkpt><trkpt lat="38.9848558214438" lon="-9.265192862043241"><ele>84.2</ele><time>2026-04-03T09:45:59Z</time></trkpt><trkpt lat="38.98492096969383" lon="-9.265154822063785"><ele>86.0</ele><time>2026-04-03T09:46:00Z</time></trkpt><trkpt lat="38.98499915707488" lon="-9.265149339998423"><ele>85.33333333333334</ele><time>2026-04-03T09:46:01Z</time></trkpt><trkpt lat="38.9850721896302" lon="-9.265160741330702"><ele>84.66666666666667</ele><time>2026-04-03T09:46:02Z</time></trkpt><trkpt lat="38.98513658844328" lon="-9.265193050494032"><ele>84.0</ele><time>2026-04-03T09:46:03Z</time></trkpt><trkpt lat="38.98519902238042" lon="-9.26525294599111"><ele>83.33333333333333</ele><time>2026-04-03T09:46:04Z</time></trkpt><trkpt lat="38.98526387385299" lon="-9.265343651578718"><ele>82.66666666666666</ele><time>2026-04-03T09:46:05Z</time></trkpt><trkpt lat="38.98533332045226" lon="-9.265428028449135"><ele>82.0</ele><time>2026-04-03T09:46:06Z</time></trkpt><trkpt lat="38.98540716010504" lon="-9.265503494110737"><ele>82.0</ele><time>2026-04-03T09:46:07Z</time></trkpt><trkpt lat="38.985492402136835" lon="-9.265556093100008"><ele>82.0</ele><time>2026-04-03T09:46:08Z</time></trkpt><trkpt lat="38.9855579934257" lon="-9.265592220029589"><ele>82.0</ele><time>2026-04-03T09:46:09Z</time></trkpt><trkpt lat="38.9856232750184" lon="-9.265624252055515"><ele>82.0</ele><time>2026-04-03T09:46:10Z</time></trkpt><trkpt lat="38.985691610442046" lon="-9.265622837005722"><ele>82.0</ele><time>2026-04-03T09:46:11Z</time></trkpt><trkpt lat="38.98576156610541" lon="-9.26557371829108"><ele>82.0</ele><time>2026-04-03T09:46:12Z</time></trkpt><trkpt lat="38.985811950134526" lon="-9.265515745198096"><ele>79.83333333333333</ele><time>2026-04-03T09:46:13Z</time></trkpt><trkpt lat="38.985859601057356" lon="-9.265455224525448"><ele>77.66666666666666</ele><time>2026-04-03T09:46:14Z</time></trkpt><trkpt lat="38.98591771933768" lon="-9.265407985535557"><ele>75.5</ele><time>2026-04-03T09:46:15Z</time></trkpt><trkpt lat="38.985984268140356" lon="-9.265352296441073"><ele>73.33333333333333</ele><time>2026-04-03T09:46:16Z</time></trkpt><trkpt lat="38.98604387768336" lon="-9.265279785791424"><ele>71.16666666666667</ele><time>2026-04-03T09:46:17Z</time></trkpt><trkpt lat="38.986102587770326" lon="-9.265170959517816"><ele>69.0</ele><time>2026-04-03T09:46:18Z</time></trkpt><trkpt lat="38.98616269280574" lon="-9.265082116761654"><ele>69.0</ele><time>2026-04-03T09:46:19Z</time></trkpt><trkpt lat="38.9862111998032" lon="-9.264998079638158"><ele>69.0</ele><time>2026-04-03T09:46:20Z</time></trkpt><trkpt lat="38.98626225917835" lon="-9.264887521014197"><ele>69.0</ele><time>2026-04-03T09:46:21Z</time></trkpt><trkpt lat="38.98631183094707" lon="-9.264768818908003"><ele>69.0</ele><time>2026-04-03T09:46:22Z</time></trkpt><trkpt lat="38.98637100742231" lon="-9.264667062415842"><ele>69.0</ele><time>2026-04-03T09:46:23Z</time></trkpt><trkpt lat="38.98641294852746" lon="-9.264567901859055"><ele>68.83333333333333</ele><time>2026-04-03T09:46:24Z</time></trkpt><trkpt lat="38.98645161359532" lon="-9.26447249201669"><ele>68.66666666666667</ele><time>2026-04-03T09:46:25Z</time></trkpt><trkpt lat="38.98648719376438" lon="-9.26437111161252"><ele>68.5</ele><time>2026-04-03T09:46:26Z</time></trkpt><trkpt lat="38.986527472858576" lon="-9.26426541538994"><ele>68.33333333333334</ele><time>2026-04-03T09:46:27Z</time></trkpt><trkpt lat="38.98656779782809" lon="-9.264177297660964"><ele>68.16666666666667</ele><time>2026-04-03T09:46:28Z</time></trkpt><trkpt lat="38.98661900230839" lon="-9.264080440683488"><ele>68.0</ele><time>2026-04-03T09:46:29Z</time></trkpt><trkpt lat="38.98667305038645" lon="-9.263990888049358"><ele>68.0</ele><time>2026-04-03T09:46:30Z</time></trkpt><trkpt lat="38.98671461954796" lon="-9.26391551308897"><ele>68.0</ele><time>2026-04-03T09:46:31Z</time></trkpt><trkpt lat="38.986808303754586" lon="-9.263798279544217"><ele>68.0</ele><time>2026-04-03T09:46:33Z</time></trkpt><trkpt lat="38.986881956043916" lon="-9.263688492990676"><ele>68.0</ele><time>2026-04-03T09:46:35Z</time></trkpt><trkpt lat="38.98694954989395" lon="-9.263611545636095"><ele>68.0</ele><time>2026-04-03T09:46:37Z</time></trkpt><trkpt lat="38.98702286728805" lon="-9.26351671180405"><ele>68.0</ele><time>2026-04-03T09:46:39Z</time></trkpt><trkpt lat="38.98709302698636" lon="-9.263403358607947"><ele>68.0</ele><time>2026-04-03T09:46:41Z</time></trkpt><trkpt lat="38.98716196788695" lon="-9.263287105687528"><ele>68.0</ele><time>2026-04-03T09:46:43Z</time></trkpt><trkpt lat="38.98719247049859" lon="-9.263176752136268"><ele>68.0</ele><time>2026-04-03T09:46:45Z</time></trkpt><trkpt lat="38.987266659351604" lon="-9.263113516386197"><ele>68.0</ele><time>2026-04-03T09:46:47Z</time></trkpt><trkpt lat="38.987300284025196" lon="-9.263000233910617"><ele>68.0</ele><time>2026-04-03T09:46:49Z</time></trkpt><trkpt lat="38.98734216251648" lon="-9.26286339372609"><ele>68.0</ele><time>2026-04-03T09:46:51Z</time></trkpt><trkpt lat="38.98737569918933" lon="-9.262785219370318"><ele>68.0</ele><time>2026-04-03T09:46:52Z</time></trkpt><trkpt lat="38.98740551932151" lon="-9.262701965931944"><ele>68.0</ele><time>2026-04-03T09:46:53Z</time></trkpt><trkpt lat="38.9874605876053" lon="-9.262637471865053"><ele>68.0</ele><time>2026-04-03T09:46:54Z</time></trkpt><trkpt lat="38.98750772935208" lon="-9.262577961745876"><ele>68.0</ele><time>2026-04-03T09:46:55Z</time></trkpt><trkpt lat="38.987563275344854" lon="-9.262519463697064"><ele>68.4</ele><time>2026-04-03T09:46:56Z</time></trkpt><trkpt lat="38.98764458829474" lon="-9.26243449909566"><ele>68.8</ele><time>2026-04-03T09:46:58Z</time></trkpt><trkpt lat="38.98771133031849" lon="-9.262362364040058"><ele>69.2</ele><time>2026-04-03T09:47:00Z</time></trkpt><trkpt lat="38.98778949594939" lon="-9.26226522225035"><ele>69.6</ele><time>2026-04-03T09:47:02Z</time></trkpt><trkpt lat="38.98788485247957" lon="-9.26216359247458"><ele>70.0</ele><time>2026-04-03T09:47:04Z</time></trkpt><trkpt lat="38.98795985419101" lon="-9.26203617964228"><ele>70.0</ele><time>2026-04-03T09:47:06Z</time></trkpt><trkpt lat="38.988033527324795" lon="-9.261924094973226"><ele>70.0</ele><time>2026-04-03T09:47:08Z</time></trkpt><trkpt lat="38.988098027970146" lon="-9.261786964632249"><ele>70.0</ele><time>2026-04-03T09:47:10Z</time></trkpt><trkpt lat="38.98817016012406" lon="-9.261666332073863"><ele>70.0</ele><time>2026-04-03T09:47:12Z</time></trkpt><trkpt lat="38.988219238518546" lon="-9.261565122605935"><ele>70.0</ele><time>2026-04-03T09:47:14Z</time></trkpt><trkpt lat="38.98816288666022" lon="-9.26147043345237"><ele>70.0</ele><time>2026-04-03T09:47:16Z</time></trkpt><trkpt lat="38.988132956465236" lon="-9.261392914104535"><ele>70.0</ele><time>2026-04-03T09:47:18Z</time></trkpt><trkpt lat="38.98806268871102" lon="-9.261288200241516"><ele>70.0</ele><time>2026-04-03T09:47:20Z</time></trkpt><trkpt lat="38.98801349964369" lon="-9.261199482524992"><ele>70.0</ele><time>2026-04-03T09:47:22Z</time></trkpt><trkpt lat="38.98800614111625" lon="-9.261066063391118"><ele>70.6</ele><time>2026-04-03T09:47:24Z</time></trkpt><trkpt lat="38.98801687687397" lon="-9.260935336887306"><ele>71.2</ele><time>2026-04-03T09:47:26Z</time></trkpt><trkpt lat="38.988027059458474" lon="-9.260806520823348"><ele>71.8</ele><time>2026-04-03T09:47:28Z</time></trkpt><trkpt lat="38.98807402398095" lon="-9.260712926390497"><ele>72.4</ele><time>2026-04-03T09:47:30Z</time></trkpt><trkpt lat="38.98812579293142" lon="-9.26060423970326"><ele>73.0</ele><time>2026-04-03T09:47:32Z</time></trkpt><trkpt lat="38.988173621939865" lon="-9.260549105556906"><ele>72.83333333333333</ele><time>2026-04-03T09:47:33Z</time></trkpt><trkpt lat="38.988223097861976" lon="-9.260498992414282"><ele>72.66666666666666</ele><time>2026-04-03T09:47:34Z</time></trkpt><trkpt lat="38.98826917067599" lon="-9.260443151525436"><ele>72.5</ele><time>2026-04-03T09:47:35Z</time></trkpt><trkpt lat="38.98838512622804" lon="-9.260368465863577"><ele>72.33333333333333</ele><time>2026-04-03T09:47:37Z</time></trkpt><trkpt lat="38.98848262107675" lon="-9.260292159036611"><ele>72.16666666666667</ele><time>2026-04-03T09:47:39Z</time></trkpt><trkpt lat="38.98853404136321" lon="-9.260238185851241"><ele>72.0</ele><time>2026-04-03T09:47:40Z</time></trkpt><trkpt lat="38.988626811865295" lon="-9.260135111074932"><ele>72.0</ele><time>2026-04-03T09:47:42Z</time></trkpt><trkpt lat="38.98868264206227" lon="-9.260071462888364"><ele>72.0</ele><time>2026-04-03T09:47:43Z</time></trkpt><trkpt lat="38.988729698486914" lon="-9.26001235352255"><ele>72.0</ele><time>2026-04-03T09:47:44Z</time></trkpt><trkpt lat="38.988781166335635" lon="-9.259955147250409"><ele>72.0</ele><time>2026-04-03T09:47:45Z</time></trkpt><trkpt lat="38.98887082058644" lon="-9.259851521810596"><ele>72.0</ele><time>2026-04-03T09:47:47Z</time></trkpt><trkpt lat="38.988932747575134" lon="-9.259736417456063"><ele>72.0</ele><time>2026-04-03T09:47:49Z</time></trkpt><trkpt lat="38.988920154598844" lon="-9.259587080561612"><ele>73.0</ele><time>2026-04-03T09:47:51Z</time></trkpt><trkpt lat="38.98884017467947" lon="-9.259480407751605"><ele>74.0</ele><time>2026-04-03T09:47:53Z</time></trkpt><trkpt lat="38.98879834812417" lon="-9.25940568970939"><ele>75.0</ele><time>2026-04-03T09:47:54Z</time></trkpt><trkpt lat="38.98875087621024" lon="-9.259331100668213"><ele>76.0</ele><time>2026-04-03T09:47:55Z</time></trkpt><trkpt lat="38.98870999063473" lon="-9.259207144670485"><ele>77.0</ele><time>2026-04-03T09:47:57Z</time></trkpt><trkpt lat="38.9887689960017" lon="-9.259088610043362"><ele>77.0</ele><time>2026-04-03T09:47:59Z</time></trkpt><trkpt lat="38.988845443490234" lon="-9.259086731640576"><ele>77.0</ele><time>2026-04-03T09:48:00Z</time></trkpt><trkpt lat="38.98893484947929" lon="-9.259050476790774"><ele>77.0</ele><time>2026-04-03T09:48:01Z</time></trkpt><trkpt lat="38.9890235004206" lon="-9.258985576467403"><ele>77.0</ele><time>2026-04-03T09:48:02Z</time></trkpt><trkpt lat="38.98914936667795" lon="-9.259013026526901"><ele>77.0</ele><time>2026-04-03T09:48:03Z</time></trkpt><trkpt lat="38.989240707667946" lon="-9.258962870186549"><ele>76.8</ele><time>2026-04-03T09:48:04Z</time></trkpt><trkpt lat="38.98932146834388" lon="-9.258912292908386"><ele>76.6</ele><time>2026-04-03T09:48:05Z</time></trkpt><trkpt lat="38.989391580408146" lon="-9.258857788090952"><ele>76.39999999999999</ele><time>2026-04-03T09:48:06Z</time></trkpt><trkpt lat="38.98945285608681" lon="-9.258735051940052"><ele>76.2</ele><time>2026-04-03T09:48:07Z</time></trkpt><trkpt lat="38.989452015847085" lon="-9.258561622891873"><ele>76.0</ele><time>2026-04-03T09:48:08Z</time></trkpt><trkpt lat="38.98949889769119" lon="-9.258437727137327"><ele>76.0</ele><time>2026-04-03T09:48:09Z</time></trkpt><trkpt lat="38.98955027039056" lon="-9.258309023515977"><ele>76.0</ele><time>2026-04-03T09:48:10Z</time></trkpt><trkpt lat="38.98960519899484" lon="-9.258177575833479"><ele>76.0</ele><time>2026-04-03T09:48:11Z</time></trkpt><trkpt lat="38.989663953491174" lon="-9.25805964450275"><ele>76.0</ele><time>2026-04-03T09:48:12Z</time></trkpt><trkpt lat="38.98970509442431" lon="-9.257983755405226"><ele>76.0</ele><time>2026-04-03T09:48:13Z</time></trkpt><trkpt lat="38.989784239844205" lon="-9.257885782488248"><ele>75.5</ele><time>2026-04-03T09:48:38Z</time></trkpt><trkpt lat="38.98985155371838" lon="-9.257807795432065"><ele>75.0</ele><time>2026-04-03T09:48:39Z</time></trkpt><trkpt lat="38.989943395800694" lon="-9.25773393996311"><ele>74.5</ele><time>2026-04-03T09:48:40Z</time></trkpt><trkpt lat="38.990061511615004" lon="-9.257649857826568"><ele>74.0</ele><time>2026-04-03T09:48:41Z</time></trkpt><trkpt lat="38.99019387344946" lon="-9.257587005255802"><ele>74.0</ele><time>2026-04-03T09:48:42Z</time></trkpt><trkpt lat="38.990318081632374" lon="-9.257560605949188"><ele>74.0</ele><time>2026-04-03T09:48:43Z</time></trkpt><trkpt lat="38.99041914002926" lon="-9.257499751597786"><ele>74.0</ele><time>2026-04-03T09:48:44Z</time></trkpt><trkpt lat="38.99049977732753" lon="-9.257375672314007"><ele>74.0</ele><time>2026-04-03T09:48:45Z</time></trkpt><trkpt lat="38.990556962627245" lon="-9.257238865386745"><ele>75.0</ele><time>2026-04-03T09:48:46Z</time></trkpt><trkpt lat="38.99060145241384" lon="-9.2570758102088"><ele>76.0</ele><time>2026-04-03T09:48:47Z</time></trkpt><trkpt lat="38.99064682920938" lon="-9.256915936503194"><ele>77.0</ele><time>2026-04-03T09:48:48Z</time></trkpt><trkpt lat="38.990737227122054" lon="-9.256784306351404"><ele>78.0</ele><time>2026-04-03T09:48:49Z</time></trkpt><trkpt lat="38.9908246479207" lon="-9.256658434797103"><ele>77.0</ele><time>2026-04-03T09:48:50Z</time></trkpt><trkpt lat="38.99090660472127" lon="-9.25655230339284"><ele>76.0</ele><time>2026-04-03T09:48:51Z</time></trkpt><trkpt lat="38.990960931196284" lon="-9.256434113980722"><ele>75.0</ele><time>2026-04-03T09:48:52Z</time></trkpt><trkpt lat="38.991011750430516" lon="-9.256321923227299"><ele>74.0</ele><time>2026-04-03T09:48:53Z</time></trkpt><trkpt lat="38.99104016043559" lon="-9.25619665190969"><ele>73.0</ele><time>2026-04-03T09:48:54Z</time></trkpt><trkpt lat="38.99105966211017" lon="-9.256066522969089"><ele>73.0</ele><time>2026-04-03T09:48:55Z</time></trkpt><trkpt lat="38.99109925163878" lon="-9.25595847646546"><ele>73.0</ele><time>2026-04-03T09:48:56Z</time></trkpt><trkpt lat="38.99118296878972" lon="-9.25589936121688"><ele>73.0</ele><time>2026-04-03T09:48:57Z</time></trkpt><trkpt lat="38.99128588567321" lon="-9.255883472253096"><ele>73.0</ele><time>2026-04-03T09:48:58Z</time></trkpt><trkpt lat="38.99137789474554" lon="-9.255920059840028"><ele>73.0</ele><time>2026-04-03T09:48:59Z</time></trkpt><trkpt lat="38.99145721060238" lon="-9.255946530406897"><ele>73.0</ele><time>2026-04-03T09:49:00Z</time></trkpt><trkpt lat="38.99153338531106" lon="-9.255964361973293"><ele>73.0</ele><time>2026-04-03T09:49:01Z</time></trkpt><trkpt lat="38.991596559986874" lon="-9.25602028210398"><ele>73.0</ele><time>2026-04-03T09:49:02Z</time></trkpt><trkpt lat="38.99162057091758" lon="-9.256139386098592"><ele>73.0</ele><time>2026-04-03T09:49:03Z</time></trkpt><trkpt lat="38.99167246023481" lon="-9.256231668766373"><ele>73.0</ele><time>2026-04-03T09:49:04Z</time></trkpt><trkpt lat="38.991707793254314" lon="-9.256333368499552"><ele>73.0</ele><time>2026-04-03T09:49:05Z</time></trkpt><trkpt lat="38.99174203090521" lon="-9.256432646249"><ele>72.6</ele><time>2026-04-03T09:49:06Z</time></trkpt><trkpt lat="38.99181132899057" lon="-9.256491961467331"><ele>72.19999999999999</ele><time>2026-04-03T09:49:07Z</time></trkpt><trkpt lat="38.991909401219274" lon="-9.256516065809198"><ele>71.8</ele><time>2026-04-03T09:49:08Z</time></trkpt><trkpt lat="38.99199767188107" lon="-9.256546416502987"><ele>71.39999999999999</ele><time>2026-04-03T09:49:09Z</time></trkpt><trkpt lat="38.99209603939436" lon="-9.256577905303633"><ele>71.0</ele><time>2026-04-03T09:49:10Z</time></trkpt><trkpt lat="38.99220292651001" lon="-9.25662408115518"><ele>71.0</ele><time>2026-04-03T09:49:11Z</time></trkpt><trkpt lat="38.992315748567314" lon="-9.256657534588928"><ele>71.0</ele><time>2026-04-03T09:49:12Z</time></trkpt><trkpt lat="38.992431323498955" lon="-9.25669363093375"><ele>71.0</ele><time>2026-04-03T09:49:13Z</time></trkpt><trkpt lat="38.99254351895467" lon="-9.25673680717345"><ele>71.0</ele><time>2026-04-03T09:49:14Z</time></trkpt><trkpt lat="38.9926614696957" lon="-9.256775311271664"><ele>72.0</ele><time>2026-04-03T09:49:15Z</time></trkpt><trkpt lat="38.9927801881896" lon="-9.256821645527452"><ele>73.0</ele><time>2026-04-03T09:49:16Z</time></trkpt><trkpt lat="38.99290034312883" lon="-9.256865466268449"><ele>74.0</ele><time>2026-04-03T09:49:17Z</time></trkpt><trkpt lat="38.993019363779595" lon="-9.256901796216614"><ele>75.0</ele><time>2026-04-03T09:49:18Z</time></trkpt><trkpt lat="38.99312391850106" lon="-9.256935141725954"><ele>75.0</ele><time>2026-04-03T09:49:19Z</time></trkpt><trkpt lat="38.99321982815563" lon="-9.256968656930004"><ele>75.0</ele><time>2026-04-03T09:49:20Z</time></trkpt><trkpt lat="38.99329086640722" lon="-9.256976650616476"><ele>75.0</ele><time>2026-04-03T09:49:21Z</time></trkpt><trkpt lat="38.993385426711576" lon="-9.256782890662032"><ele>75.0</ele><time>2026-04-03T09:49:26Z</time></trkpt><trkpt lat="38.993422661047056" lon="-9.256667296471164"><ele>75.0</ele><time>2026-04-03T09:49:27Z</time></trkpt><trkpt lat="38.99347312246855" lon="-9.256547681760884"><ele>75.5</ele><time>2026-04-03T09:49:28Z</time></trkpt><trkpt lat="38.99352219807023" lon="-9.256405679636455"><ele>76.0</ele><time>2026-04-03T09:49:29Z</time></trkpt><trkpt lat="38.99358204689589" lon="-9.256253199813338"><ele>76.5</ele><time>2026-04-03T09:49:30Z</time></trkpt><trkpt lat="38.99364098003466" lon="-9.256088297475475"><ele>77.0</ele><time>2026-04-03T09:49:31Z</time></trkpt><trkpt lat="38.99370343120652" lon="-9.25590788159176"><ele>77.0</ele><time>2026-04-03T09:49:32Z</time></trkpt><trkpt lat="38.993792575167205" lon="-9.255724511914785"><ele>77.0</ele><time>2026-04-03T09:49:33Z</time></trkpt><trkpt lat="38.99390071314392" lon="-9.255554433408866"><ele>77.0</ele><time>2026-04-03T09:49:34Z</time></trkpt><trkpt lat="38.994021542359796" lon="-9.25538678631644"><ele>76.33333333333334</ele><time>2026-04-03T09:49:35Z</time></trkpt><trkpt lat="38.99415071185603" lon="-9.2552138343299"><ele>75.66666666666667</ele><time>2026-04-03T09:49:36Z</time></trkpt><trkpt lat="38.994267337197755" lon="-9.255065407378595"><ele>75.0</ele><time>2026-04-03T09:49:37Z</time></trkpt><trkpt lat="38.99436650444639" lon="-9.254929376142647"><ele>75.25</ele><time>2026-04-03T09:49:38Z</time></trkpt><trkpt lat="38.99445431594049" lon="-9.254790436897414"><ele>75.5</ele><time>2026-04-03T09:49:39Z</time></trkpt><trkpt lat="38.99452881100819" lon="-9.254650487723163"><ele>75.75</ele><time>2026-04-03T09:49:40Z</time></trkpt><trkpt lat="38.99459154206985" lon="-9.254503087206999"><ele>76.0</ele><time>2026-04-03T09:49:41Z</time></trkpt><trkpt lat="38.994616806201705" lon="-9.25433669321616"><ele>76.0</ele><time>2026-04-03T09:49:42Z</time></trkpt><trkpt lat="38.99463268357536" lon="-9.254161126374013"><ele>76.0</ele><time>2026-04-03T09:49:43Z</time></trkpt><trkpt lat="38.99463526671719" lon="-9.253977689512803"><ele>76.0</ele><time>2026-04-03T09:49:44Z</time></trkpt><trkpt lat="38.99463242679654" lon="-9.253780304590368"><ele>76.0</ele><time>2026-04-03T09:49:45Z</time></trkpt><trkpt lat="38.99462576750353" lon="-9.253567061828841"><ele>75.33333333333333</ele><time>2026-04-03T09:49:46Z</time></trkpt><trkpt lat="38.994619353119425" lon="-9.253341202029187"><ele>74.66666666666667</ele><time>2026-04-03T09:49:47Z</time></trkpt><trkpt lat="38.99461373668434" lon="-9.253107201398366"><ele>74.0</ele><time>2026-04-03T09:49:48Z</time></trkpt><trkpt lat="38.99462263152762" lon="-9.252866383499123"><ele>75.33333333333334</ele><time>2026-04-03T09:49:49Z</time></trkpt><trkpt lat="38.99461121581949" lon="-9.252631597466186"><ele>76.66666666666667</ele><time>2026-04-03T09:49:50Z</time></trkpt><trkpt lat="38.9945999105463" lon="-9.252433155232437"><ele>78.0</ele><time>2026-04-03T09:49:51Z</time></trkpt><trkpt lat="38.99459203728372" lon="-9.25225327609138"><ele>80.0</ele><time>2026-04-03T09:49:52Z</time></trkpt><trkpt lat="38.99458542715767" lon="-9.25208389311036"><ele>82.0</ele><time>2026-04-03T09:49:53Z</time></trkpt><trkpt lat="38.99457857474218" lon="-9.25194261362579"><ele>84.0</ele><time>2026-04-03T09:49:54Z</time></trkpt><trkpt lat="38.99457256358668" lon="-9.251825077540426"><ele>86.0</ele><time>2026-04-03T09:49:55Z</time></trkpt><trkpt lat="38.99456937790466" lon="-9.251738342629427"><ele>88.0</ele><time>2026-04-03T09:49:56Z</time></trkpt><trkpt lat="38.99456992431624" lon="-9.251655421253782"><ele>88.0</ele><time>2026-04-03T09:49:58Z</time></trkpt><trkpt lat="38.99455231207167" lon="-9.251561526460524"><ele>88.0</ele><time>2026-04-03T09:50:26Z</time></trkpt><trkpt lat="38.99455023305501" lon="-9.251469520624077"><ele>88.0</ele><time>2026-04-03T09:50:27Z</time></trkpt><trkpt lat="38.994540229058366" lon="-9.25135000026667"><ele>88.0</ele><time>2026-04-03T09:50:28Z</time></trkpt><trkpt lat="38.99452452271911" lon="-9.251213596118115"><ele>88.0</ele><time>2026-04-03T09:50:29Z</time></trkpt><trkpt lat="38.99450347779059" lon="-9.251063949255181"><ele>88.0</ele><time>2026-04-03T09:50:30Z</time></trkpt><trkpt lat="38.99447223860288" lon="-9.250900898400468"><ele>88.0</ele><time>2026-04-03T09:50:31Z</time></trkpt><trkpt lat="38.9944401541458" lon="-9.250740088415839"><ele>88.0</ele><time>2026-04-03T09:50:32Z</time></trkpt><trkpt lat="38.99440409148681" lon="-9.25061025717631"><ele>88.0</ele><time>2026-04-03T09:50:33Z</time></trkpt><trkpt lat="38.994368885045226" lon="-9.250471769337667"><ele>87.75</ele><time>2026-04-03T09:50:34Z</time></trkpt><trkpt lat="38.9943268461231" lon="-9.250314378018395"><ele>87.5</ele><time>2026-04-03T09:50:35Z</time></trkpt><trkpt lat="38.99427541901615" lon="-9.25016348363075"><ele>87.25</ele><time>2026-04-03T09:50:36Z</time></trkpt><trkpt lat="38.99421783918716" lon="-9.250006523626462"><ele>87.0</ele><time>2026-04-03T09:50:37Z</time></trkpt><trkpt lat="38.99415819350695" lon="-9.24985715941167"><ele>85.25</ele><time>2026-04-03T09:50:38Z</time></trkpt><trkpt lat="38.99410096132234" lon="-9.249721179831512"><ele>83.5</ele><time>2026-04-03T09:50:39Z</time></trkpt><trkpt lat="38.99403610105041" lon="-9.249581308245226"><ele>81.75</ele><time>2026-04-03T09:50:40Z</time></trkpt><trkpt lat="38.99396755055031" lon="-9.249444956695916"><ele>80.0</ele><time>2026-04-03T09:50:41Z</time></trkpt><trkpt lat="38.993897556225654" lon="-9.249307677258617"><ele>80.0</ele><time>2026-04-03T09:50:42Z</time></trkpt><trkpt lat="38.993823475561584" lon="-9.249161431822953"><ele>80.0</ele><time>2026-04-03T09:50:43Z</time></trkpt><trkpt lat="38.99374503361248" lon="-9.248998982639133"><ele>80.0</ele><time>2026-04-03T09:50:44Z</time></trkpt><trkpt lat="38.993662244349984" lon="-9.248817969745435"><ele>80.0</ele><time>2026-04-03T09:50:45Z</time></trkpt><trkpt lat="38.99357215482331" lon="-9.248629972010972"><ele>80.66666666666667</ele><time>2026-04-03T09:50:46Z</time></trkpt><trkpt lat="38.99348063751544" lon="-9.248434214013097"><ele>81.33333333333333</ele><time>2026-04-03T09:50:47Z</time></trkpt><trkpt lat="38.9933987854823" lon="-9.24826248035582"><ele>82.0</ele><time>2026-04-03T09:50:48Z</time></trkpt><trkpt lat="38.99331668864273" lon="-9.248100056454302"><ele>80.66666666666666</ele><time>2026-04-03T09:50:49Z</time></trkpt><trkpt lat="38.993223724453976" lon="-9.247917568842544"><ele>79.33333333333333</ele><time>2026-04-03T09:50:50Z</time></trkpt><trkpt lat="38.99313061185186" lon="-9.24771933456614"><ele>78.0</ele><time>2026-04-03T09:50:51Z</time></trkpt><trkpt lat="38.99303684600675" lon="-9.247530496106272"><ele>78.0</ele><time>2026-04-03T09:50:52Z</time></trkpt><trkpt lat="38.99295289661335" lon="-9.247356050720182"><ele>78.0</ele><time>2026-04-03T09:50:53Z</time></trkpt><trkpt lat="38.992864020246465" lon="-9.247179787403637"><ele>78.0</ele><time>2026-04-03T09:50:54Z</time></trkpt><trkpt lat="38.99276451340957" lon="-9.247015019949458"><ele>77.33333333333333</ele><time>2026-04-03T09:50:55Z</time></trkpt><trkpt lat="38.99267484749794" lon="-9.246848302732712"><ele>76.66666666666666</ele><time>2026-04-03T09:50:56Z</time></trkpt><trkpt lat="38.99259454159207" lon="-9.246676533105765"><ele>76.0</ele><time>2026-04-03T09:50:57Z</time></trkpt><trkpt lat="38.99249618416299" lon="-9.246513025694792"><ele>77.33333333333333</ele><time>2026-04-03T09:50:58Z</time></trkpt><trkpt lat="38.992399369915574" lon="-9.246349711216455"><ele>78.66666666666667</ele><time>2026-04-03T09:50:59Z</time></trkpt><trkpt lat="38.992303779473076" lon="-9.246187432534578"><ele>80.0</ele><time>2026-04-03T09:51:00Z</time></trkpt><trkpt lat="38.99221482774593" lon="-9.246020832140767"><ele>80.0</ele><time>2026-04-03T09:51:01Z</time></trkpt><trkpt lat="38.99212057621796" lon="-9.245851701083378"><ele>80.0</ele><time>2026-04-03T09:51:02Z</time></trkpt><trkpt lat="38.99201457861552" lon="-9.245672493282452"><ele>80.0</ele><time>2026-04-03T09:51:03Z</time></trkpt><trkpt lat="38.991912994761805" lon="-9.245499017008186"><ele>80.0</ele><time>2026-04-03T09:51:04Z</time></trkpt><trkpt lat="38.99181120539941" lon="-9.245321027445577"><ele>80.0</ele><time>2026-04-03T09:51:05Z</time></trkpt><trkpt lat="38.99171280013095" lon="-9.245152948718303"><ele>80.0</ele><time>2026-04-03T09:51:06Z</time></trkpt><trkpt lat="38.991616393045234" lon="-9.244993165537355"><ele>80.0</ele><time>2026-04-03T09:51:07Z</time></trkpt><trkpt lat="38.99154436299847" lon="-9.24482544254142"><ele>80.0</ele><time>2026-04-03T09:51:08Z</time></trkpt><trkpt lat="38.99149903463265" lon="-9.244657042140505"><ele>80.0</ele><time>2026-04-03T09:51:09Z</time></trkpt><trkpt lat="38.99147430083049" lon="-9.244490359340062"><ele>80.0</ele><time>2026-04-03T09:51:10Z</time></trkpt><trkpt lat="38.99147190324061" lon="-9.244318824558807"><ele>81.0</ele><time>2026-04-03T09:51:11Z</time></trkpt><trkpt lat="38.99148742022741" lon="-9.244146554159972"><ele>82.0</ele><time>2026-04-03T09:51:12Z</time></trkpt><trkpt lat="38.99152105520975" lon="-9.243977788202894"><ele>83.0</ele><time>2026-04-03T09:51:13Z</time></trkpt><trkpt lat="38.99157898551096" lon="-9.243814774408152"><ele>84.0</ele><time>2026-04-03T09:51:14Z</time></trkpt><trkpt lat="38.99165502505873" lon="-9.24365331307412"><ele>85.33333333333333</ele><time>2026-04-03T09:51:15Z</time></trkpt><trkpt lat="38.991746093877516" lon="-9.243482749341327"><ele>86.66666666666666</ele><time>2026-04-03T09:51:16Z</time></trkpt><trkpt lat="38.9918449335038" lon="-9.243299322348067"><ele>88.0</ele><time>2026-04-03T09:51:17Z</time></trkpt><trkpt lat="38.99193837351736" lon="-9.24310872405192"><ele>90.66666666666666</ele><time>2026-04-03T09:51:18Z</time></trkpt><trkpt lat="38.992032639158396" lon="-9.24291429965491"><ele>93.33333333333333</ele><time>2026-04-03T09:51:19Z</time></trkpt><trkpt lat="38.992126709510465" lon="-9.242718434498592"><ele>96.0</ele><time>2026-04-03T09:51:20Z</time></trkpt><trkpt lat="38.9922244053355" lon="-9.24252484081339"><ele>96.0</ele><time>2026-04-03T09:51:21Z</time></trkpt><trkpt lat="38.992317770406025" lon="-9.24232572883278"><ele>96.0</ele><time>2026-04-03T09:51:22Z</time></trkpt><trkpt lat="38.992413644568764" lon="-9.242129689290111"><ele>96.0</ele><time>2026-04-03T09:51:23Z</time></trkpt><trkpt lat="38.992495618736655" lon="-9.241967132831448"><ele>97.25</ele><time>2026-04-03T09:51:24Z</time></trkpt><trkpt lat="38.992571237225526" lon="-9.241825472755279"><ele>98.5</ele><time>2026-04-03T09:51:25Z</time></trkpt><trkpt lat="38.99263944947047" lon="-9.241676668461679"><ele>99.75</ele><time>2026-04-03T09:51:26Z</time></trkpt><trkpt lat="38.99271385578053" lon="-9.241539987007778"><ele>101.0</ele><time>2026-04-03T09:51:27Z</time></trkpt><trkpt lat="38.99279988884828" lon="-9.241428955188443"><ele>103.75</ele><time>2026-04-03T09:51:28Z</time></trkpt><trkpt lat="38.99289701638764" lon="-9.241314985945541"><ele>106.5</ele><time>2026-04-03T09:51:29Z</time></trkpt><trkpt lat="38.993013127601444" lon="-9.241217720877854"><ele>109.25</ele><time>2026-04-03T09:51:30Z</time></trkpt><trkpt lat="38.99314222812392" lon="-9.24113993603743"><ele>112.0</ele><time>2026-04-03T09:51:31Z</time></trkpt><trkpt lat="38.99328981643343" lon="-9.241089908688114"><ele>108.75</ele><time>2026-04-03T09:51:32Z</time></trkpt><trkpt lat="38.993447548093386" lon="-9.24105998500372"><ele>105.5</ele><time>2026-04-03T09:51:33Z</time></trkpt><trkpt lat="38.99360175837995" lon="-9.241022434990034"><ele>102.25</ele><time>2026-04-03T09:51:34Z</time></trkpt><trkpt lat="38.99371587385918" lon="-9.240978610222097"><ele>99.0</ele><time>2026-04-03T09:51:35Z</time></trkpt><trkpt lat="38.9938081033543" lon="-9.240929273675695"><ele>99.0</ele><time>2026-04-03T09:51:36Z</time></trkpt><trkpt lat="38.99389919948044" lon="-9.240877665895685"><ele>99.0</ele><time>2026-04-03T09:51:37Z</time></trkpt><trkpt lat="38.993977802221885" lon="-9.240784263975248"><ele>99.0</ele><time>2026-04-03T09:51:38Z</time></trkpt><trkpt lat="38.99399233520473" lon="-9.240648016900797"><ele>99.0</ele><time>2026-04-03T09:51:39Z</time></trkpt><trkpt lat="38.993994408695" lon="-9.240516450256095"><ele>99.0</ele><time>2026-04-03T09:51:40Z</time></trkpt><trkpt lat="38.993968095545114" lon="-9.240384590509276"><ele>100.5</ele><time>2026-04-03T09:51:41Z</time></trkpt><trkpt lat="38.99394696086535" lon="-9.240232732100417"><ele>102.0</ele><time>2026-04-03T09:51:42Z</time></trkpt><trkpt lat="38.99393159686249" lon="-9.240068792020718"><ele>103.5</ele><time>2026-04-03T09:51:43Z</time></trkpt><trkpt lat="38.993966389360374" lon="-9.239927341179374"><ele>105.0</ele><time>2026-04-03T09:51:44Z</time></trkpt><trkpt lat="38.994016156418795" lon="-9.239793233247692"><ele>106.75</ele><time>2026-04-03T09:51:45Z</time></trkpt><trkpt lat="38.99411676256112" lon="-9.23970736360114"><ele>108.5</ele><time>2026-04-03T09:51:46Z</time></trkpt><trkpt lat="38.9942330616363" lon="-9.239677548631082"><ele>110.25</ele><time>2026-04-03T09:51:47Z</time></trkpt><trkpt lat="38.99436314486104" lon="-9.239700739789619"><ele>112.0</ele><time>2026-04-03T09:51:48Z</time></trkpt><trkpt lat="38.99448671024238" lon="-9.23976074802121"><ele>109.5</ele><time>2026-04-03T09:51:49Z</time></trkpt><trkpt lat="38.99461264330697" lon="-9.23982191135715"><ele>107.0</ele><time>2026-04-03T09:51:50Z</time></trkpt><trkpt lat="38.99473913425194" lon="-9.239884083508834"><ele>104.5</ele><time>2026-04-03T09:51:51Z</time></trkpt><trkpt lat="38.99485126161638" lon="-9.2399177070616"><ele>102.0</ele><time>2026-04-03T09:51:52Z</time></trkpt><trkpt lat="38.99497199787096" lon="-9.239927288208204"><ele>99.75</ele><time>2026-04-03T09:51:53Z</time></trkpt><trkpt lat="38.995102915995844" lon="-9.239923659919857"><ele>97.5</ele><time>2026-04-03T09:51:54Z</time></trkpt><trkpt lat="38.995236050580054" lon="-9.239914402219354"><ele>95.25</ele><time>2026-04-03T09:51:55Z</time></trkpt><trkpt lat="38.99536733764302" lon="-9.239898069684989"><ele>93.0</ele><time>2026-04-03T09:51:56Z</time></trkpt><trkpt lat="38.99550111714513" lon="-9.23985559256785"><ele>93.0</ele><time>2026-04-03T09:51:57Z</time></trkpt><trkpt lat="38.995606990707586" lon="-9.239750365853597"><ele>93.0</ele><time>2026-04-03T09:51:58Z</time></trkpt><trkpt lat="38.99569893961147" lon="-9.23963104948662"><ele>93.0</ele><time>2026-04-03T09:51:59Z</time></trkpt><trkpt lat="38.99578724137942" lon="-9.23948259271499"><ele>93.0</ele><time>2026-04-03T09:52:00Z</time></trkpt><trkpt lat="38.995877578274225" lon="-9.239324293207497"><ele>93.0</ele><time>2026-04-03T09:52:01Z</time></trkpt><trkpt lat="38.99596742115837" lon="-9.239156858097735"><ele>93.0</ele><time>2026-04-03T09:52:02Z</time></trkpt><trkpt lat="38.99605737715145" lon="-9.23897845042962"><ele>93.0</ele><time>2026-04-03T09:52:03Z</time></trkpt><trkpt lat="38.996146295716834" lon="-9.238791454318083"><ele>96.33333333333334</ele><time>2026-04-03T09:52:04Z</time></trkpt><trkpt lat="38.996201418713454" lon="-9.238590289696177"><ele>99.66666666666667</ele><time>2026-04-03T09:52:05Z</time></trkpt><trkpt lat="38.996237887594184" lon="-9.238375194382678"><ele>103.0</ele><time>2026-04-03T09:52:06Z</time></trkpt><trkpt lat="38.996269613775596" lon="-9.238157335749923"><ele>106.0</ele><time>2026-04-03T09:52:07Z</time></trkpt><trkpt lat="38.996303942892716" lon="-9.237932157044721"><ele>109.0</ele><time>2026-04-03T09:52:08Z</time></trkpt><trkpt lat="38.99636281356981" lon="-9.23770464542008"><ele>112.0</ele><time>2026-04-03T09:52:09Z</time></trkpt><trkpt lat="38.99645716017201" lon="-9.23750536637234"><ele>112.0</ele><time>2026-04-03T09:52:10Z</time></trkpt><trkpt lat="38.99654963969558" lon="-9.23730543894589"><ele>112.0</ele><time>2026-04-03T09:52:11Z</time></trkpt><trkpt lat="38.99664891926321" lon="-9.237106354268187"><ele>112.0</ele><time>2026-04-03T09:52:12Z</time></trkpt><trkpt lat="38.996746662308766" lon="-9.236917334050105"><ele>110.75</ele><time>2026-04-03T09:52:13Z</time></trkpt><trkpt lat="38.996832110723844" lon="-9.236752236915239"><ele>109.5</ele><time>2026-04-03T09:52:14Z</time></trkpt><trkpt lat="38.99691610856032" lon="-9.23659769742804"><ele>108.25</ele><time>2026-04-03T09:52:15Z</time></trkpt><trkpt lat="38.99699001179799" lon="-9.236465156744949"><ele>107.0</ele><time>2026-04-03T09:52:16Z</time></trkpt><trkpt lat="38.99706155547925" lon="-9.23633569869485"><ele>106.8</ele><time>2026-04-03T09:52:17Z</time></trkpt><trkpt lat="38.997130061162125" lon="-9.236203470095688"><ele>106.6</ele><time>2026-04-03T09:52:18Z</time></trkpt><trkpt lat="38.99718584857858" lon="-9.236084940708741"><ele>106.39999999999999</ele><time>2026-04-03T09:52:19Z</time></trkpt><trkpt lat="38.99721525023263" lon="-9.235960599567257"><ele>106.19999999999999</ele><time>2026-04-03T09:52:20Z</time></trkpt><trkpt lat="38.997179702907836" lon="-9.235834638081815"><ele>106.0</ele><time>2026-04-03T09:52:21Z</time></trkpt><trkpt lat="38.99713938578298" lon="-9.23570973841191"><ele>104.5</ele><time>2026-04-03T09:52:22Z</time></trkpt><trkpt lat="38.99706185719399" lon="-9.235600433784876"><ele>103.0</ele><time>2026-04-03T09:52:23Z</time></trkpt><trkpt lat="38.996961375996385" lon="-9.23551841070885"><ele>101.5</ele><time>2026-04-03T09:52:24Z</time></trkpt><trkpt lat="38.99684783588477" lon="-9.235424082659062"><ele>100.0</ele><time>2026-04-03T09:52:25Z</time></trkpt><trkpt lat="38.996732199586326" lon="-9.235327459788392"><ele>102.5</ele><time>2026-04-03T09:52:26Z</time></trkpt><trkpt lat="38.99661313863537" lon="-9.235226515103406"><ele>105.0</ele><time>2026-04-03T09:52:27Z</time></trkpt><trkpt lat="38.99649228361756" lon="-9.23512404939163"><ele>107.5</ele><time>2026-04-03T09:52:28Z</time></trkpt><trkpt lat="38.99637485627197" lon="-9.23502662465698"><ele>110.0</ele><time>2026-04-03T09:52:29Z</time></trkpt><trkpt lat="38.996275474479184" lon="-9.234921402625178"><ele>110.0</ele><time>2026-04-03T09:52:30Z</time></trkpt><trkpt lat="38.99617773288666" lon="-9.234838082135827"><ele>110.0</ele><time>2026-04-03T09:52:31Z</time></trkpt><trkpt lat="38.996068908254536" lon="-9.234754024679603"><ele>110.0</ele><time>2026-04-03T09:52:32Z</time></trkpt><trkpt lat="38.995967065347806" lon="-9.234667884739622"><ele>110.0</ele><time>2026-04-03T09:52:33Z</time></trkpt><trkpt lat="38.9958792882138" lon="-9.234580545437902"><ele>111.0</ele><time>2026-04-03T09:52:34Z</time></trkpt><trkpt lat="38.9958174354783" lon="-9.234465090908026"><ele>112.0</ele><time>2026-04-03T09:52:35Z</time></trkpt><trkpt lat="38.99581304554263" lon="-9.234324576804783"><ele>113.0</ele><time>2026-04-03T09:52:36Z</time></trkpt><trkpt lat="38.99584924946709" lon="-9.234169305845365"><ele>114.0</ele><time>2026-04-03T09:52:37Z</time></trkpt><trkpt lat="38.99591643506719" lon="-9.234023785482893"><ele>113.75</ele><time>2026-04-03T09:52:38Z</time></trkpt><trkpt lat="38.99600856968908" lon="-9.233895221693619"><ele>113.5</ele><time>2026-04-03T09:52:39Z</time></trkpt><trkpt lat="38.996117696500576" lon="-9.233788786318891"><ele>113.25</ele><time>2026-04-03T09:52:40Z</time></trkpt><trkpt lat="38.99625591901226" lon="-9.233720050363189"><ele>113.0</ele><time>2026-04-03T09:52:41Z</time></trkpt><trkpt lat="38.996400303044275" lon="-9.233669822856438"><ele>113.0</ele><time>2026-04-03T09:52:42Z</time></trkpt><trkpt lat="38.99652262927213" lon="-9.23358734172204"><ele>113.0</ele><time>2026-04-03T09:52:43Z</time></trkpt><trkpt lat="38.99661920151017" lon="-9.233479329870024"><ele>113.0</ele><time>2026-04-03T09:52:44Z</time></trkpt><trkpt lat="38.99671395449852" lon="-9.23336177449029"><ele>113.0</ele><time>2026-04-03T09:52:45Z</time></trkpt><trkpt lat="38.99680102870408" lon="-9.233219010757072"><ele>110.5</ele><time>2026-04-03T09:52:46Z</time></trkpt><trkpt lat="38.99683509266014" lon="-9.233044063769922"><ele>108.0</ele><time>2026-04-03T09:52:47Z</time></trkpt><trkpt lat="38.9968938621337" lon="-9.23287801132799"><ele>105.5</ele><time>2026-04-03T09:52:48Z</time></trkpt><trkpt lat="38.996929491059426" lon="-9.23269443306968"><ele>103.0</ele><time>2026-04-03T09:52:49Z</time></trkpt><trkpt lat="38.99696113867981" lon="-9.232529217979094"><ele>103.00000000000001</ele><time>2026-04-03T09:52:50Z</time></trkpt><trkpt lat="38.996985895295445" lon="-9.232409676578706"><ele>103.0</ele><time>2026-04-03T09:52:51Z</time></trkpt><trkpt lat="38.99701267878912" lon="-9.232297999812548"><ele>103.0</ele><time>2026-04-03T09:52:52Z</time></trkpt><trkpt lat="38.99703006616593" lon="-9.232202241446805"><ele>103.0</ele><time>2026-04-03T09:52:53Z</time></trkpt><trkpt lat="38.99704407807226" lon="-9.23211719822973"><ele>103.00000000000001</ele><time>2026-04-03T09:52:54Z</time></trkpt><trkpt lat="38.99706037563181" lon="-9.232033843474225"><ele>103.0</ele><time>2026-04-03T09:52:55Z</time></trkpt><trkpt lat="38.99707829354231" lon="-9.231947040900186"><ele>103.16666666666667</ele><time>2026-04-03T09:52:56Z</time></trkpt><trkpt lat="38.99709494451586" lon="-9.23186869571276"><ele>103.33333333333334</ele><time>2026-04-03T09:52:57Z</time></trkpt><trkpt lat="38.99709117767435" lon="-9.231717069349592"><ele>103.5</ele><time>2026-04-03T09:52:59Z</time></trkpt><trkpt lat="38.99707965860095" lon="-9.231576844900815"><ele>103.66666666666666</ele><time>2026-04-03T09:53:01Z</time></trkpt><trkpt lat="38.99706600506346" lon="-9.231493735609114"><ele>103.83333333333333</ele><time>2026-04-03T09:53:02Z</time></trkpt><trkpt lat="38.99705095559669" lon="-9.231409182928921"><ele>104.0</ele><time>2026-04-03T09:53:03Z</time></trkpt><trkpt lat="38.99703618129354" lon="-9.231302239348938"><ele>104.0</ele><time>2026-04-03T09:53:05Z</time></trkpt><trkpt lat="38.99702949903717" lon="-9.23118157778798"><ele>104.0</ele><time>2026-04-03T09:53:20Z</time></trkpt><trkpt lat="38.99700876999112" lon="-9.231093822661913"><ele>104.0</ele><time>2026-04-03T09:53:22Z</time></trkpt><trkpt lat="38.997059710157934" lon="-9.23126162868532"><ele>104.0</ele><time>2026-04-03T09:53:25Z</time></trkpt><trkpt lat="38.99708256549916" lon="-9.231413193745304"><ele>104.0</ele><time>2026-04-03T09:53:26Z</time></trkpt><trkpt lat="38.997101150402244" lon="-9.231568763103754"><ele>104.0</ele><time>2026-04-03T09:53:27Z</time></trkpt><trkpt lat="38.9971089883263" lon="-9.231740335090727"><ele>104.0</ele><time>2026-04-03T09:53:28Z</time></trkpt><trkpt lat="38.997096371147975" lon="-9.231930371043493"><ele>104.0</ele><time>2026-04-03T09:53:29Z</time></trkpt><trkpt lat="38.997072544213864" lon="-9.232129000503582"><ele>104.0</ele><time>2026-04-03T09:53:30Z</time></trkpt><trkpt lat="38.99703253639625" lon="-9.232331930653508"><ele>103.66666666666666</ele><time>2026-04-03T09:53:31Z</time></trkpt><trkpt lat="38.99698930448972" lon="-9.232531552680525"><ele>103.33333333333334</ele><time>2026-04-03T09:53:32Z</time></trkpt><trkpt lat="38.996953037427026" lon="-9.232743756646427"><ele>103.0</ele><time>2026-04-03T09:53:33Z</time></trkpt><trkpt lat="38.99690860162958" lon="-9.23295027696812"><ele>103.0</ele><time>2026-04-03T09:53:34Z</time></trkpt><trkpt lat="38.99685641226258" lon="-9.233135572820451"><ele>103.0</ele><time>2026-04-03T09:53:35Z</time></trkpt><trkpt lat="38.99680078231706" lon="-9.233300324883889"><ele>103.0</ele><time>2026-04-03T09:53:36Z</time></trkpt><trkpt lat="38.99671761957323" lon="-9.233438697580976"><ele>103.0</ele><time>2026-04-03T09:53:37Z</time></trkpt><trkpt lat="38.99660464204986" lon="-9.233572528170582"><ele>106.33333333333334</ele><time>2026-04-03T09:53:38Z</time></trkpt><trkpt lat="38.9964700590627" lon="-9.233701633506115"><ele>109.66666666666666</ele><time>2026-04-03T09:53:39Z</time></trkpt><trkpt lat="38.996322255461536" lon="-9.233801238114468"><ele>113.0</ele><time>2026-04-03T09:53:40Z</time></trkpt><trkpt lat="38.99618796155289" lon="-9.2338660983694"><ele>113.0</ele><time>2026-04-03T09:53:41Z</time></trkpt><trkpt lat="38.996064233905216" lon="-9.233926254311381"><ele>113.0</ele><time>2026-04-03T09:53:42Z</time></trkpt><trkpt lat="38.995966399790454" lon="-9.234023716311803"><ele>113.0</ele><time>2026-04-03T09:53:43Z</time></trkpt><trkpt lat="38.99589143395581" lon="-9.234162687612455"><ele>113.0</ele><time>2026-04-03T09:53:44Z</time></trkpt><trkpt lat="38.995855668839134" lon="-9.234329278342475"><ele>112.25</ele><time>2026-04-03T09:53:45Z</time></trkpt><trkpt lat="38.99585753451966" lon="-9.234492074023601"><ele>111.5</ele><time>2026-04-03T09:53:46Z</time></trkpt><trkpt lat="38.99591523549769" lon="-9.234638035335545"><ele>110.75</ele><time>2026-04-03T09:53:47Z</time></trkpt><trkpt lat="38.99601753484817" lon="-9.23475600215135"><ele>110.0</ele><time>2026-04-03T09:53:48Z</time></trkpt><trkpt lat="38.996152012040106" lon="-9.23484069448096"><ele>110.0</ele><time>2026-04-03T09:53:49Z</time></trkpt><trkpt lat="38.99628746932326" lon="-9.234917087085083"><ele>110.0</ele><time>2026-04-03T09:53:50Z</time></trkpt><trkpt lat="38.996419522016645" lon="-9.235019395393225"><ele>110.0</ele><time>2026-04-03T09:53:51Z</time></trkpt><trkpt lat="38.99655716950183" lon="-9.235129532875968"><ele>106.66666666666666</ele><time>2026-04-03T09:53:52Z</time></trkpt><trkpt lat="38.996699758655154" lon="-9.23523514220489"><ele>103.33333333333334</ele><time>2026-04-03T09:53:53Z</time></trkpt><trkpt lat="38.99683628374548" lon="-9.23535428442031"><ele>100.0</ele><time>2026-04-03T09:53:54Z</time></trkpt><trkpt lat="38.996971932390224" lon="-9.235468254344564"><ele>100.0</ele><time>2026-04-03T09:53:55Z</time></trkpt><trkpt lat="38.99709024620851" lon="-9.235558462001233"><ele>100.0</ele><time>2026-04-03T09:53:56Z</time></trkpt><trkpt lat="38.99717500708992" lon="-9.235652083977003"><ele>100.0</ele><time>2026-04-03T09:53:57Z</time></trkpt><trkpt lat="38.997229941883305" lon="-9.235766383481973"><ele>100.0</ele><time>2026-04-03T09:53:58Z</time></trkpt><trkpt lat="38.99725808482253" lon="-9.235913711486635"><ele>101.5</ele><time>2026-04-03T09:53:59Z</time></trkpt><trkpt lat="38.997251866405406" lon="-9.236087681484133"><ele>103.0</ele><time>2026-04-03T09:54:00Z</time></trkpt><trkpt lat="38.99720508717149" lon="-9.236249565587453"><ele>104.5</ele><time>2026-04-03T09:54:01Z</time></trkpt><trkpt lat="38.997127243566325" lon="-9.236353177711452"><ele>106.0</ele><time>2026-04-03T09:54:02Z</time></trkpt><trkpt lat="38.997058178842465" lon="-9.236429533280049"><ele>106.0</ele><time>2026-04-03T09:54:03Z</time></trkpt><trkpt lat="38.997127792511805" lon="-9.236450777938177"><ele>106.0</ele><time>2026-04-03T09:54:06Z</time></trkpt><trkpt lat="38.99719384557704" lon="-9.236297836800542"><ele>106.0</ele><time>2026-04-03T09:54:08Z</time></trkpt><trkpt lat="38.99725073080668" lon="-9.236192153362131"><ele>106.0</ele><time>2026-04-03T09:54:09Z</time></trkpt><trkpt lat="38.997280203084344" lon="-9.236099686985284"><ele>106.0</ele><time>2026-04-03T09:54:10Z</time></trkpt><trkpt lat="38.997289691873625" lon="-9.235990340986735"><ele>106.0</ele><time>2026-04-03T09:54:11Z</time></trkpt><trkpt lat="38.99727592933904" lon="-9.235883656422299"><ele>106.0</ele><time>2026-04-03T09:54:12Z</time></trkpt><trkpt lat="38.997262793676256" lon="-9.235800466438167"><ele>106.0</ele><time>2026-04-03T09:54:13Z</time></trkpt><trkpt lat="38.997521483704816" lon="-9.235859214036212"><ele>106.0</ele><time>2026-04-03T09:54:15Z</time></trkpt><trkpt lat="38.997333254513975" lon="-9.235539011424427"><ele>104.8</ele><time>2026-04-03T09:54:16Z</time></trkpt><trkpt lat="38.997308103674875" lon="-9.235432969718966"><ele>103.6</ele><time>2026-04-03T09:54:17Z</time></trkpt><trkpt lat="38.99726530260396" lon="-9.235317003142615"><ele>102.4</ele><time>2026-04-03T09:54:18Z</time></trkpt><trkpt lat="38.997203093397026" lon="-9.235223318590087"><ele>101.2</ele><time>2026-04-03T09:54:19Z</time></trkpt><trkpt lat="38.99714862976562" lon="-9.235119415232225"><ele>100.0</ele><time>2026-04-03T09:54:20Z</time></trkpt><trkpt lat="38.99709048830639" lon="-9.235015555931025"><ele>100.00000000000001</ele><time>2026-04-03T09:54:21Z</time></trkpt><trkpt lat="38.99703075537412" lon="-9.23493212849541"><ele>100.0</ele><time>2026-04-03T09:54:22Z</time></trkpt><trkpt lat="38.996983588817194" lon="-9.234850474990784"><ele>100.0</ele><time>2026-04-03T09:54:23Z</time></trkpt><trkpt lat="38.996960199221476" lon="-9.234769774410527"><ele>100.0</ele><time>2026-04-03T09:54:24Z</time></trkpt><trkpt lat="38.99691820317634" lon="-9.234696589520906"><ele>100.00000000000001</ele><time>2026-04-03T09:54:25Z</time></trkpt><trkpt lat="38.99687670193522" lon="-9.234627389473715"><ele>100.0</ele><time>2026-04-03T09:54:26Z</time></trkpt><trkpt lat="38.99688622460891" lon="-9.234477715765674"><ele>99.50000000000001</ele><time>2026-04-03T09:54:28Z</time></trkpt><trkpt lat="38.99695504768616" lon="-9.234415333079621"><ele>99.0</ele><time>2026-04-03T09:54:29Z</time></trkpt><trkpt lat="38.99704696660438" lon="-9.234397119520562"><ele>98.5</ele><time>2026-04-03T09:54:30Z</time></trkpt><trkpt lat="38.99714234454394" lon="-9.234411643855415"><ele>98.0</ele><time>2026-04-03T09:54:31Z</time></trkpt><trkpt lat="38.997228480744454" lon="-9.234421798696212"><ele>97.50000000000001</ele><time>2026-04-03T09:54:32Z</time></trkpt><trkpt lat="38.997304778975376" lon="-9.234383947947927"><ele>97.0</ele><time>2026-04-03T09:54:33Z</time></trkpt><trkpt lat="38.99736891524163" lon="-9.234314371066954"><ele>97.00000000000001</ele><time>2026-04-03T09:54:34Z</time></trkpt><trkpt lat="38.99742835305355" lon="-9.234259108855237"><ele>97.0</ele><time>2026-04-03T09:54:35Z</time></trkpt><trkpt lat="38.99747373477106" lon="-9.234199198136256"><ele>97.0</ele><time>2026-04-03T09:54:36Z</time></trkpt><trkpt lat="38.99751860142133" lon="-9.234130780879815"><ele>97.0</ele><time>2026-04-03T09:54:37Z</time></trkpt><trkpt lat="38.9975531507424" lon="-9.234041921090723"><ele>97.00000000000001</ele><time>2026-04-03T09:54:38Z</time></trkpt><trkpt lat="38.99758279480173" lon="-9.233940896872367"><ele>97.0</ele><time>2026-04-03T09:54:39Z</time></trkpt><trkpt lat="38.997625701200114" lon="-9.233844633095176"><ele>97.16666666666667</ele><time>2026-04-03T09:54:40Z</time></trkpt><trkpt lat="38.99766140407154" lon="-9.233740754065884"><ele>97.33333333333334</ele><time>2026-04-03T09:54:41Z</time></trkpt><trkpt lat="38.997720829053904" lon="-9.233658005044738"><ele>97.5</ele><time>2026-04-03T09:54:42Z</time></trkpt><trkpt lat="38.99776231925798" lon="-9.233572987575359"><ele>97.66666666666666</ele><time>2026-04-03T09:54:43Z</time></trkpt><trkpt lat="38.99776415534051" lon="-9.233466439498272"><ele>97.83333333333333</ele><time>2026-04-03T09:54:44Z</time></trkpt><trkpt lat="38.997777755584686" lon="-9.23338509420564"><ele>98.0</ele><time>2026-04-03T09:54:45Z</time></trkpt><trkpt lat="38.99779587391504" lon="-9.23326114645158"><ele>98.0</ele><time>2026-04-03T09:54:47Z</time></trkpt><trkpt lat="38.99780217614382" lon="-9.233161993389718"><ele>98.0</ele><time>2026-04-03T09:54:49Z</time></trkpt><trkpt lat="38.997806003128545" lon="-9.233027202742297"><ele>98.0</ele><time>2026-04-03T09:54:51Z</time></trkpt><trkpt lat="38.997835479362465" lon="-9.232866914799132"><ele>98.0</ele><time>2026-04-03T09:54:53Z</time></trkpt><trkpt lat="38.997861195471835" lon="-9.232771275633148"><ele>98.0</ele><time>2026-04-03T09:54:54Z</time></trkpt><trkpt lat="38.99788896578118" lon="-9.23268762282818"><ele>98.60000000000001</ele><time>2026-04-03T09:54:55Z</time></trkpt><trkpt lat="38.99792442452208" lon="-9.232583138558292"><ele>99.2</ele><time>2026-04-03T09:54:56Z</time></trkpt><trkpt lat="38.99794806651752" lon="-9.232479744962356"><ele>99.8</ele><time>2026-04-03T09:54:57Z</time></trkpt><trkpt lat="38.997994501073805" lon="-9.232391179172776"><ele>100.4</ele><time>2026-04-03T09:54:58Z</time></trkpt><trkpt lat="38.998076019045484" lon="-9.232306155747803"><ele>101.0</ele><time>2026-04-03T09:54:59Z</time></trkpt><trkpt lat="38.998167848397316" lon="-9.232228539285687"><ele>101.6</ele><time>2026-04-03T09:55:00Z</time></trkpt><trkpt lat="38.998272353869886" lon="-9.232190749170977"><ele>102.19999999999999</ele><time>2026-04-03T09:55:01Z</time></trkpt><trkpt lat="38.99837055526709" lon="-9.232150247888365"><ele>102.80000000000001</ele><time>2026-04-03T09:55:02Z</time></trkpt><trkpt lat="38.99844376883376" lon="-9.232122572945928"><ele>103.4</ele><time>2026-04-03T09:55:03Z</time></trkpt><trkpt lat="38.998540762488524" lon="-9.232039743129306"><ele>104.0</ele><time>2026-04-03T09:55:05Z</time></trkpt><trkpt lat="38.9985923386532" lon="-9.231968913164886"><ele>106.83333333333333</ele><time>2026-04-03T09:55:06Z</time></trkpt><trkpt lat="38.99863810536749" lon="-9.231896836909588"><ele>109.66666666666666</ele><time>2026-04-03T09:55:07Z</time></trkpt><trkpt lat="38.99868647868585" lon="-9.231821278336717"><ele>112.5</ele><time>2026-04-03T09:55:08Z</time></trkpt><trkpt lat="38.99873865314455" lon="-9.231757134715654"><ele>115.33333333333334</ele><time>2026-04-03T09:55:09Z</time></trkpt><trkpt lat="38.99878726338507" lon="-9.23169425813841"><ele>118.16666666666667</ele><time>2026-04-03T09:55:10Z</time></trkpt><trkpt lat="38.998808129344646" lon="-9.231549609745061"><ele>121.0</ele><time>2026-04-03T09:55:12Z</time></trkpt><trkpt lat="38.99881568020045" lon="-9.231450234043058"><ele>122.16666666666667</ele><time>2026-04-03T09:55:13Z</time></trkpt><trkpt lat="38.99882562178538" lon="-9.2313586573782"><ele>123.33333333333334</ele><time>2026-04-03T09:55:14Z</time></trkpt><trkpt lat="38.998854761774965" lon="-9.231269653960558"><ele>124.5</ele><time>2026-04-03T09:55:15Z</time></trkpt><trkpt lat="38.99887062558493" lon="-9.231175826881373"><ele>125.66666666666666</ele><time>2026-04-03T09:55:16Z</time></trkpt><trkpt lat="38.998882342250205" lon="-9.23108889629495"><ele>126.83333333333333</ele><time>2026-04-03T09:55:17Z</time></trkpt><trkpt lat="38.99889934060452" lon="-9.230996043124787"><ele>128.0</ele><time>2026-04-03T09:55:18Z</time></trkpt><trkpt lat="38.99891807606069" lon="-9.230888044190456"><ele>128.0</ele><time>2026-04-03T09:55:19Z</time></trkpt><trkpt lat="38.99893990824104" lon="-9.23077855835914"><ele>128.0</ele><time>2026-04-03T09:55:20Z</time></trkpt><trkpt lat="38.998940069141746" lon="-9.23065504707026"><ele>128.0</ele><time>2026-04-03T09:55:21Z</time></trkpt><trkpt lat="38.99895682967353" lon="-9.230529647519193"><ele>128.0</ele><time>2026-04-03T09:55:22Z</time></trkpt><trkpt lat="38.998967680058854" lon="-9.230397964092429"><ele>128.0</ele><time>2026-04-03T09:55:23Z</time></trkpt><trkpt lat="38.99896754141834" lon="-9.230297716064232"><ele>127.99999999999999</ele><time>2026-04-03T09:55:24Z</time></trkpt><trkpt lat="38.99898249291583" lon="-9.230204624800704"><ele>128.0</ele><time>2026-04-03T09:55:25Z</time></trkpt><trkpt lat="38.998973183090946" lon="-9.230317203992806"><ele>128.0</ele><time>2026-04-03T09:56:56Z</time></trkpt><trkpt lat="38.9989571267148" lon="-9.230467141566743"><ele>128.0</ele><time>2026-04-03T09:56:58Z</time></trkpt><trkpt lat="38.99895641291976" lon="-9.230570518361928"><ele>127.99999999999999</ele><time>2026-04-03T09:56:59Z</time></trkpt><trkpt lat="38.99894852819551" lon="-9.230685247614785"><ele>128.0</ele><time>2026-04-03T09:57:00Z</time></trkpt><trkpt lat="38.998945641322514" lon="-9.230793464919577"><ele>127.99999999999999</ele><time>2026-04-03T09:57:01Z</time></trkpt><trkpt lat="38.99893694903788" lon="-9.230879410145931"><ele>128.0</ele><time>2026-04-03T09:57:02Z</time></trkpt><trkpt lat="38.99890668297157" lon="-9.231043422034658"><ele>128.0</ele><time>2026-04-03T09:57:04Z</time></trkpt><trkpt lat="38.99889013131493" lon="-9.231130702415932"><ele>128.0</ele><time>2026-04-03T09:57:05Z</time></trkpt><trkpt lat="38.99887530673508" lon="-9.23121653430021"><ele>127.99999999999999</ele><time>2026-04-03T09:57:06Z</time></trkpt><trkpt lat="38.99884799688512" lon="-9.231293454567192"><ele>128.0</ele><time>2026-04-03T09:57:07Z</time></trkpt><trkpt lat="38.99881205853052" lon="-9.23147681470158"><ele>126.83333333333333</ele><time>2026-04-03T09:57:09Z</time></trkpt><trkpt lat="38.99878602204218" lon="-9.231568599031052"><ele>125.66666666666666</ele><time>2026-04-03T09:57:10Z</time></trkpt><trkpt lat="38.998771999870385" lon="-9.231649836693594"><ele>124.5</ele><time>2026-04-03T09:57:11Z</time></trkpt><trkpt lat="38.99876160145113" lon="-9.231796034540379"><ele>123.33333333333334</ele><time>2026-04-03T09:57:13Z</time></trkpt><trkpt lat="38.99876891667117" lon="-9.231906419276722"><ele>122.16666666666667</ele><time>2026-04-03T09:57:14Z</time></trkpt><trkpt lat="38.99879968362047" lon="-9.232019479968672"><ele>121.0</ele><time>2026-04-03T09:57:15Z</time></trkpt><trkpt lat="38.998818082830276" lon="-9.232151432549001"><ele>121.00000000000001</ele><time>2026-04-03T09:57:16Z</time></trkpt><trkpt lat="38.998810904970746" lon="-9.232284552837179"><ele>121.0</ele><time>2026-04-03T09:57:17Z</time></trkpt><trkpt lat="38.99881555008809" lon="-9.232384559193997"><ele>121.0</ele><time>2026-04-03T09:57:18Z</time></trkpt><trkpt lat="38.99882107345003" lon="-9.232485714528472"><ele>121.0</ele><time>2026-04-03T09:57:19Z</time></trkpt><trkpt lat="38.998818026150886" lon="-9.232581122157711"><ele>121.00000000000001</ele><time>2026-04-03T09:57:20Z</time></trkpt><trkpt lat="38.998802363372015" lon="-9.232691693117166"><ele>121.0</ele><time>2026-04-03T09:57:21Z</time></trkpt><trkpt lat="38.99877959287483" lon="-9.23278904541579"><ele>120.00000000000001</ele><time>2026-04-03T09:57:22Z</time></trkpt><trkpt lat="38.99875922228023" lon="-9.232886601638521"><ele>119.0</ele><time>2026-04-03T09:57:23Z</time></trkpt><trkpt lat="38.998784024974746" lon="-9.233007476912336"><ele>118.0</ele><time>2026-04-03T09:57:24Z</time></trkpt><trkpt lat="38.99881566138377" lon="-9.233110370524685"><ele>117.0</ele><time>2026-04-03T09:57:25Z</time></trkpt><trkpt lat="38.99884112961377" lon="-9.233206404100562"><ele>116.00000000000001</ele><time>2026-04-03T09:57:26Z</time></trkpt><trkpt lat="38.99889419924795" lon="-9.233254498619699"><ele>115.0</ele><time>2026-04-03T09:57:27Z</time></trkpt><trkpt lat="38.998983817495315" lon="-9.233335627380914"><ele>114.2</ele><time>2026-04-03T09:57:29Z</time></trkpt><trkpt lat="38.99898325312488" lon="-9.23352346536163"><ele>113.4</ele><time>2026-04-03T09:57:31Z</time></trkpt><trkpt lat="38.9989494774785" lon="-9.233659482182485"><ele>112.6</ele><time>2026-04-03T09:57:33Z</time></trkpt><trkpt lat="38.998918934736636" lon="-9.23381058513537"><ele>111.8</ele><time>2026-04-03T09:57:35Z</time></trkpt><trkpt lat="38.998910120847036" lon="-9.233893184501392"><ele>111.0</ele><time>2026-04-03T09:57:36Z</time></trkpt><trkpt lat="38.998904702901775" lon="-9.233982552961347"><ele>110.4</ele><time>2026-04-03T09:57:37Z</time></trkpt><trkpt lat="38.9989440511188" lon="-9.234100574737935"><ele>109.8</ele><time>2026-04-03T09:57:39Z</time></trkpt><trkpt lat="38.9989619771799" lon="-9.23421948267304"><ele>109.20000000000002</ele><time>2026-04-03T09:57:42Z</time></trkpt><trkpt lat="38.99900077779096" lon="-9.234349132801997"><ele>108.60000000000001</ele><time>2026-04-03T09:57:50Z</time></trkpt><trkpt lat="38.99905093891336" lon="-9.234426972393603"><ele>108.0</ele><time>2026-04-03T09:57:52Z</time></trkpt><trkpt lat="38.99909023908678" lon="-9.234509858565973"><ele>108.0</ele><time>2026-04-03T09:57:54Z</time></trkpt><trkpt lat="38.9991067835344" lon="-9.234627480654332"><ele>108.0</ele><time>2026-04-03T09:57:57Z</time></trkpt><trkpt lat="38.999159731169144" lon="-9.2347383326009"><ele>108.0</ele><time>2026-04-03T09:58:00Z</time></trkpt><trkpt lat="38.99923544257164" lon="-9.234785016566834"><ele>108.0</ele><time>2026-04-03T09:58:02Z</time></trkpt><trkpt lat="38.99930915846616" lon="-9.234734954846415"><ele>108.0</ele><time>2026-04-03T09:58:04Z</time></trkpt><trkpt lat="38.99937482392898" lon="-9.234673441324336"><ele>108.0</ele><time>2026-04-03T09:58:06Z</time></trkpt><trkpt lat="38.999466155708745" lon="-9.234644039252165"><ele>112.16666666666667</ele><time>2026-04-03T09:58:08Z</time></trkpt><trkpt lat="38.999545688368" lon="-9.23461770123325"><ele>116.33333333333334</ele><time>2026-04-03T09:58:11Z</time></trkpt><trkpt lat="38.999652841809436" lon="-9.234593413352059"><ele>120.5</ele><time>2026-04-03T09:58:22Z</time></trkpt><trkpt lat="38.99974177394459" lon="-9.2345713236687"><ele>124.66666666666667</ele><time>2026-04-03T09:58:25Z</time></trkpt><trkpt lat="38.999819943667006" lon="-9.234554743428069"><ele>128.83333333333334</ele><time>2026-04-03T09:58:28Z</time></trkpt><trkpt lat="38.99988632416541" lon="-9.234525394327708"><ele>133.0</ele><time>2026-04-03T09:58:30Z</time></trkpt><trkpt lat="38.99996460284058" lon="-9.234491040930852"><ele>133.0</ele><time>2026-04-03T09:58:32Z</time></trkpt><trkpt lat="39.00003936183682" lon="-9.234464161659819"><ele>133.0</ele><time>2026-04-03T09:58:34Z</time></trkpt><trkpt lat="39.00010781223896" lon="-9.23448013904189"><ele>133.0</ele><time>2026-04-03T09:58:36Z</time></trkpt><trkpt lat="39.00013478804401" lon="-9.234685882477041"><ele>133.0</ele><time>2026-04-03T09:59:20Z</time></trkpt><trkpt lat="39.00016011090665" lon="-9.23477968296473"><ele>133.0</ele><time>2026-04-03T09:59:21Z</time></trkpt><trkpt lat="39.000180764795225" lon="-9.23487286958795"><ele>133.0</ele><time>2026-04-03T09:59:22Z</time></trkpt><trkpt lat="39.00022514576638" lon="-9.234953179388992"><ele>133.0</ele><time>2026-04-03T09:59:24Z</time></trkpt><trkpt lat="39.000293572924335" lon="-9.23490994181745"><ele>133.0</ele><time>2026-04-03T09:59:26Z</time></trkpt><trkpt lat="39.00034514131381" lon="-9.234813123460771"><ele>133.0</ele><time>2026-04-03T09:59:28Z</time></trkpt><trkpt lat="39.00037640765271" lon="-9.23469888592194"><ele>133.0</ele><time>2026-04-03T09:59:30Z</time></trkpt><trkpt lat="39.00045411827192" lon="-9.234614458854061"><ele>133.0</ele><time>2026-04-03T09:59:32Z</time></trkpt><trkpt lat="39.00045383513609" lon="-9.234491088865065"><ele>133.0</ele><time>2026-04-03T09:59:34Z</time></trkpt><trkpt lat="39.000476411036445" lon="-9.234387792158412"><ele>133.0</ele><time>2026-04-03T09:59:36Z</time></trkpt><trkpt lat="39.0005340990211" lon="-9.23434760396102"><ele>133.0</ele><time>2026-04-03T09:59:37Z</time></trkpt><trkpt lat="39.00058359004862" lon="-9.234260584356106"><ele>133.0</ele><time>2026-04-03T09:59:39Z</time></trkpt><trkpt lat="39.0006578229682" lon="-9.23415275231875"><ele>133.0</ele><time>2026-04-03T09:59:41Z</time></trkpt><trkpt lat="39.000723011625944" lon="-9.234029075804688"><ele>132.83333333333334</ele><time>2026-04-03T09:59:43Z</time></trkpt><trkpt lat="39.00076271553349" lon="-9.233963393601131"><ele>132.66666666666669</ele><time>2026-04-03T09:59:44Z</time></trkpt><trkpt lat="39.000838909989646" lon="-9.23387093227818"><ele>132.5</ele><time>2026-04-03T09:59:46Z</time></trkpt><trkpt lat="39.00092734153994" lon="-9.233835352063442"><ele>132.33333333333334</ele><time>2026-04-03T09:59:48Z</time></trkpt><trkpt lat="39.000896406226566" lon="-9.233733531463125"><ele>132.16666666666666</ele><time>2026-04-03T09:59:50Z</time></trkpt><trkpt lat="39.00089470940836" lon="-9.23364263472527"><ele>132.0</ele><time>2026-04-03T09:59:51Z</time></trkpt><trkpt lat="39.00093670813607" lon="-9.233542821899462"><ele>135.0</ele><time>2026-04-03T09:59:52Z</time></trkpt><trkpt lat="39.00098948084091" lon="-9.233465526943395"><ele>138.0</ele><time>2026-04-03T09:59:53Z</time></trkpt><trkpt lat="39.00102996369562" lon="-9.233397141887188"><ele>141.0</ele><time>2026-04-03T09:59:54Z</time></trkpt><trkpt lat="39.00105934093298" lon="-9.233323634902366"><ele>144.0</ele><time>2026-04-03T09:59:55Z</time></trkpt><trkpt lat="39.00111369857171" lon="-9.233193353686964"><ele>147.0</ele><time>2026-04-03T09:59:57Z</time></trkpt><trkpt lat="39.001156172755735" lon="-9.233075868370026"><ele>150.0</ele><time>2026-04-03T09:59:59Z</time></trkpt><trkpt lat="39.00118767818121" lon="-9.232998745153505"><ele>150.0</ele><time>2026-04-03T10:00:00Z</time></trkpt><trkpt lat="39.001242337494865" lon="-9.232876580897969"><ele>150.0</ele><time>2026-04-03T10:00:02Z</time></trkpt><trkpt lat="39.00128922948077" lon="-9.232759992443444"><ele>150.0</ele><time>2026-04-03T10:00:04Z</time></trkpt><trkpt lat="39.00133380644716" lon="-9.23262650632951"><ele>150.0</ele><time>2026-04-03T10:00:06Z</time></trkpt><trkpt lat="39.001357214594215" lon="-9.232482699883233"><ele>150.0</ele><time>2026-04-03T10:00:08Z</time></trkpt><trkpt lat="39.00138687835556" lon="-9.232370848794318"><ele>151.0</ele><time>2026-04-03T10:00:10Z</time></trkpt><trkpt lat="39.001431105100586" lon="-9.23223675215592"><ele>152.0</ele><time>2026-04-03T10:00:12Z</time></trkpt><trkpt lat="39.001468692221515" lon="-9.232160532299162"><ele>153.0</ele><time>2026-04-03T10:00:13Z</time></trkpt><trkpt lat="39.00151460451136" lon="-9.2320978892823"><ele>154.0</ele><time>2026-04-03T10:00:14Z</time></trkpt><trkpt lat="39.00157779068781" lon="-9.232059522653733"><ele>155.0</ele><time>2026-04-03T10:00:15Z</time></trkpt><trkpt lat="39.00163827290661" lon="-9.232013846947753"><ele>156.0</ele><time>2026-04-03T10:00:16Z</time></trkpt><trkpt lat="39.00170623499464" lon="-9.231958453782084"><ele>157.8</ele><time>2026-04-03T10:00:17Z</time></trkpt><trkpt lat="39.001790169933834" lon="-9.231894459801088"><ele>159.6</ele><time>2026-04-03T10:00:18Z</time></trkpt><trkpt lat="39.001884749715494" lon="-9.231838305121736"><ele>161.4</ele><time>2026-04-03T10:00:19Z</time></trkpt><trkpt lat="39.0019707424225" lon="-9.231788332992933"><ele>163.2</ele><time>2026-04-03T10:00:20Z</time></trkpt><trkpt lat="39.0020573714182" lon="-9.231737227150393"><ele>165.0</ele><time>2026-04-03T10:00:21Z</time></trkpt><trkpt lat="39.002144551998285" lon="-9.231689067041444"><ele>165.0</ele><time>2026-04-03T10:00:22Z</time></trkpt><trkpt lat="39.002212464893006" lon="-9.231631163322396"><ele>165.0</ele><time>2026-04-03T10:00:23Z</time></trkpt><trkpt lat="39.002295379763396" lon="-9.231530719143093"><ele>165.0</ele><time>2026-04-03T10:00:25Z</time></trkpt><trkpt lat="39.002285675266634" lon="-9.23144812988737"><ele>165.0</ele><time>2026-04-03T10:00:26Z</time></trkpt><trkpt lat="39.00223071754287" lon="-9.23135513298341"><ele>165.0</ele><time>2026-04-03T10:00:27Z</time></trkpt><trkpt lat="39.00218528027655" lon="-9.231266452830454"><ele>165.0</ele><time>2026-04-03T10:00:28Z</time></trkpt><trkpt lat="39.002142640804834" lon="-9.231168103019154"><ele>166.0</ele><time>2026-04-03T10:00:29Z</time></trkpt><trkpt lat="39.002103059246394" lon="-9.231059639569892"><ele>167.0</ele><time>2026-04-03T10:00:30Z</time></trkpt><trkpt lat="39.00206201242892" lon="-9.230945387241558"><ele>168.0</ele><time>2026-04-03T10:00:31Z</time></trkpt><trkpt lat="39.00202344807603" lon="-9.230838684349013"><ele>169.0</ele><time>2026-04-03T10:00:32Z</time></trkpt><trkpt lat="39.0020031296788" lon="-9.230756976940626"><ele>170.0</ele><time>2026-04-03T10:00:33Z</time></trkpt><trkpt lat="39.00202506477369" lon="-9.230674333883865"><ele>171.0</ele><time>2026-04-03T10:00:34Z</time></trkpt><trkpt lat="39.00207128219641" lon="-9.230604019273295"><ele>171.4</ele><time>2026-04-03T10:00:35Z</time></trkpt><trkpt lat="39.00213371565378" lon="-9.230539627464509"><ele>171.8</ele><time>2026-04-03T10:00:36Z</time></trkpt><trkpt lat="39.0021861200781" lon="-9.230479496561298"><ele>172.20000000000002</ele><time>2026-04-03T10:00:37Z</time></trkpt><trkpt lat="39.0022728095658" lon="-9.230355204684027"><ele>172.60000000000002</ele><time>2026-04-03T10:00:38.999Z</time></trkpt><trkpt lat="39.00234157713943" lon="-9.230306482306965"><ele>173.0</ele><time>2026-04-03T10:00:39.999Z</time></trkpt><trkpt lat="39.00244455393783" lon="-9.23032018831726"><ele>172.0</ele><time>2026-04-03T10:00:40.999Z</time></trkpt><trkpt lat="39.00253738352925" lon="-9.230331143225957"><ele>171.0</ele><time>2026-04-03T10:00:41.999Z</time></trkpt><trkpt lat="39.0026358057766" lon="-9.230339060418142"><ele>170.0</ele><time>2026-04-03T10:00:42.999Z</time></trkpt><trkpt lat="39.002725976812876" lon="-9.230333110269568"><ele>169.0</ele><time>2026-04-03T10:00:43.999Z</time></trkpt><trkpt lat="39.00281700283107" lon="-9.230323269768844"><ele>168.0</ele><time>2026-04-03T10:00:44.999Z</time></trkpt><trkpt lat="39.00290903852876" lon="-9.23030103524392"><ele>168.0</ele><time>2026-04-03T10:00:45.999Z</time></trkpt><trkpt lat="39.003001313481484" lon="-9.230269004911674"><ele>168.0</ele><time>2026-04-03T10:00:46.999Z</time></trkpt><trkpt lat="39.00307661279106" lon="-9.230241329191134"><ele>168.0</ele><time>2026-04-03T10:00:47.999Z</time></trkpt><trkpt lat="39.00316129709567" lon="-9.230218265335175"><ele>168.0</ele><time>2026-04-03T10:00:48.999Z</time></trkpt><trkpt lat="39.00326091830773" lon="-9.230207318245087"><ele>168.0</ele><time>2026-04-03T10:00:49.999Z</time></trkpt><trkpt lat="39.00335556951053" lon="-9.230225586685098"><ele>167.85714285714286</ele><time>2026-04-03T10:00:50.999Z</time></trkpt><trkpt lat="39.00343636260808" lon="-9.230250650470582"><ele>167.71428571428572</ele><time>2026-04-03T10:00:51.999Z</time></trkpt><trkpt lat="39.003503882875364" lon="-9.230262803324278"><ele>167.57142857142856</ele><time>2026-04-03T10:00:52.999Z</time></trkpt><trkpt lat="39.00357715657915" lon="-9.230262030370566"><ele>167.42857142857144</ele><time>2026-04-03T10:00:53.999Z</time></trkpt><trkpt lat="39.003646264162036" lon="-9.230246271746658"><ele>167.28571428571428</ele><time>2026-04-03T10:00:54.999Z</time></trkpt><trkpt lat="39.00371536660993" lon="-9.230220569911006"><ele>167.14285714285714</ele><time>2026-04-03T10:00:55.999Z</time></trkpt><trkpt lat="39.003781067988" lon="-9.23020265103373"><ele>167.0</ele><time>2026-04-03T10:00:56.999Z</time></trkpt><trkpt lat="39.003845930158704" lon="-9.230185118329187"><ele>167.0</ele><time>2026-04-03T10:00:57.999Z</time></trkpt><trkpt lat="39.003908945573436" lon="-9.230163581138804"><ele>167.0</ele><time>2026-04-03T10:00:58.999Z</time></trkpt><trkpt lat="39.00396213209728" lon="-9.230118888959701"><ele>167.0</ele><time>2026-04-03T10:00:59.999Z</time></trkpt><trkpt lat="39.00406702010202" lon="-9.230013729808404"><ele>167.0</ele><time>2026-04-03T10:01:01.999Z</time></trkpt><trkpt lat="39.004121085649146" lon="-9.229963526048898"><ele>167.0</ele><time>2026-04-03T10:01:02.999Z</time></trkpt><trkpt lat="39.00418071979504" lon="-9.229925435785638"><ele>167.0</ele><time>2026-04-03T10:01:03.999Z</time></trkpt><trkpt lat="39.004239810954246" lon="-9.229871012957362"><ele>167.0</ele><time>2026-04-03T10:01:04.999Z</time></trkpt><trkpt lat="39.00430757427009" lon="-9.229844081378241"><ele>167.0</ele><time>2026-04-03T10:01:05.999Z</time></trkpt><trkpt lat="39.004375298005236" lon="-9.229804530975873"><ele>167.0</ele><time>2026-04-03T10:01:07Z</time></trkpt><trkpt lat="39.004437032281466" lon="-9.229766510531295"><ele>167.0</ele><time>2026-04-03T10:01:08Z</time></trkpt><trkpt lat="39.004499273760324" lon="-9.229734885345044"><ele>167.0</ele><time>2026-04-03T10:01:09Z</time></trkpt><trkpt lat="39.00456998091576" lon="-9.22969990458551"><ele>167.0</ele><time>2026-04-03T10:01:10Z</time></trkpt><trkpt lat="39.004647596243096" lon="-9.229661473428026"><ele>167.0</ele><time>2026-04-03T10:01:11Z</time></trkpt><trkpt lat="39.004729334508625" lon="-9.22962448746589"><ele>165.0</ele><time>2026-04-03T10:01:12Z</time></trkpt><trkpt lat="39.00480072167451" lon="-9.229589511489232"><ele>163.0</ele><time>2026-04-03T10:01:13Z</time></trkpt><trkpt lat="39.00487588616859" lon="-9.229547254234829"><ele>161.0</ele><time>2026-04-03T10:01:14Z</time></trkpt><trkpt lat="39.00494160292816" lon="-9.229503756027233"><ele>159.0</ele><time>2026-04-03T10:01:15Z</time></trkpt><trkpt lat="39.005002049649114" lon="-9.229461360521581"><ele>157.0</ele><time>2026-04-03T10:01:16Z</time></trkpt><trkpt lat="39.00506583227287" lon="-9.229434635194938"><ele>155.0</ele><time>2026-04-03T10:01:17Z</time></trkpt><trkpt lat="39.005135517588975" lon="-9.229416117978877"><ele>153.0</ele><time>2026-04-03T10:01:18Z</time></trkpt><trkpt lat="39.00521029952645" lon="-9.229409338841778"><ele>153.0</ele><time>2026-04-03T10:01:19Z</time></trkpt><trkpt lat="39.00529060490194" lon="-9.229414129197455"><ele>153.0</ele><time>2026-04-03T10:01:20Z</time></trkpt><trkpt lat="39.00535531188388" lon="-9.229409229556234"><ele>153.0</ele><time>2026-04-03T10:01:21Z</time></trkpt><trkpt lat="39.00546174550272" lon="-9.229400342699913"><ele>153.0</ele><time>2026-04-03T10:01:23Z</time></trkpt><trkpt lat="39.005562181433724" lon="-9.229393388868461"><ele>153.0</ele><time>2026-04-03T10:01:25Z</time></trkpt><trkpt lat="39.0056645518014" lon="-9.229337050550091"><ele>153.0</ele><time>2026-04-03T10:01:27Z</time></trkpt><trkpt lat="39.00573868362711" lon="-9.229294800403505"><ele>153.0</ele><time>2026-04-03T10:01:29Z</time></trkpt><trkpt lat="39.005796219427424" lon="-9.229339372682324"><ele>153.0</ele><time>2026-04-03T10:06:32.999Z</time></trkpt><trkpt lat="39.005839103246196" lon="-9.229247960544518"><ele>153.0</ele><time>2026-04-03T10:07:32.999Z</time></trkpt><trkpt lat="39.0058739694711" lon="-9.229094626069532"><ele>153.0</ele><time>2026-04-03T10:07:34.999Z</time></trkpt><trkpt lat="39.0058997051457" lon="-9.228966299572289"><ele>151.6</ele><time>2026-04-03T10:07:36.999Z</time></trkpt><trkpt lat="39.00593663300868" lon="-9.22885605728304"><ele>150.20000000000002</ele><time>2026-04-03T10:07:38.999Z</time></trkpt><trkpt lat="39.00597873726216" lon="-9.22873200260127"><ele>148.8</ele><time>2026-04-03T10:07:40.999Z</time></trkpt><trkpt lat="39.00601043345182" lon="-9.22860213730567"><ele>147.4</ele><time>2026-04-03T10:07:42.999Z</time></trkpt><trkpt lat="39.00603680031807" lon="-9.228497835232952"><ele>146.0</ele><time>2026-04-03T10:07:44.999Z</time></trkpt><trkpt lat="39.00603427174337" lon="-9.228405897463956"><ele>146.0</ele><time>2026-04-03T10:07:46.999Z</time></trkpt><trkpt lat="39.00602671896623" lon="-9.228528282804978"><ele>146.0</ele><time>2026-04-03T10:07:51.999Z</time></trkpt><trkpt lat="39.0059635206829" lon="-9.228660771028085"><ele>146.0</ele><time>2026-04-03T10:07:53.999Z</time></trkpt><trkpt lat="39.00593070864065" lon="-9.228833173847722"><ele>146.0</ele><time>2026-04-03T10:07:55.999Z</time></trkpt><trkpt lat="39.00594189997073" lon="-9.228937134464237"><ele>146.0</ele><time>2026-04-03T10:07:56.999Z</time></trkpt><trkpt lat="39.005918037747456" lon="-9.229026239110036"><ele>147.0</ele><time>2026-04-03T10:07:57.999Z</time></trkpt><trkpt lat="39.005891626908365" lon="-9.229112363154284"><ele>148.0</ele><time>2026-04-03T10:07:58.999Z</time></trkpt><trkpt lat="39.005870438995736" lon="-9.229199962378166"><ele>149.0</ele><time>2026-04-03T10:07:59.999Z</time></trkpt><trkpt lat="39.00582805618938" lon="-9.22927259509347"><ele>150.0</ele><time>2026-04-03T10:08:00.999Z</time></trkpt><trkpt lat="39.005803698248165" lon="-9.229356538956026"><ele>151.0</ele><time>2026-04-03T10:08:01.999Z</time></trkpt><trkpt lat="39.0057827865536" lon="-9.229445298585455"><ele>152.0</ele><time>2026-04-03T10:08:02.999Z</time></trkpt><trkpt lat="39.00575951691154" lon="-9.229529199863016"><ele>153.0</ele><time>2026-04-03T10:08:03.999Z</time></trkpt><trkpt lat="39.00573733254297" lon="-9.229609188169556"><ele>153.0</ele><time>2026-04-03T10:08:04.999Z</time></trkpt><trkpt lat="39.00570626794254" lon="-9.229733362485126"><ele>153.0</ele><time>2026-04-03T10:08:06.999Z</time></trkpt><trkpt lat="39.005855344628195" lon="-9.22984929591941"><ele>153.0</ele><time>2026-04-03T10:08:07.999Z</time></trkpt><trkpt lat="39.005946363093486" lon="-9.229964140553555"><ele>153.0</ele><time>2026-04-03T10:08:09.999Z</time></trkpt><trkpt lat="39.00600860391435" lon="-9.230017771385468"><ele>154.4</ele><time>2026-04-03T10:08:10.999Z</time></trkpt><trkpt lat="39.006077757127024" lon="-9.230070326686855"><ele>155.8</ele><time>2026-04-03T10:08:11.999Z</time></trkpt><trkpt lat="39.00621104572331" lon="-9.23012133799971"><ele>157.2</ele><time>2026-04-03T10:08:13.999Z</time></trkpt><trkpt lat="39.00629077143418" lon="-9.230222062095468"><ele>158.6</ele><time>2026-04-03T10:08:14.999Z</time></trkpt><trkpt lat="39.00637656948891" lon="-9.230291999052952"><ele>160.0</ele><time>2026-04-03T10:08:15.999Z</time></trkpt><trkpt lat="39.00646346700094" lon="-9.230353462804972"><ele>160.0</ele><time>2026-04-03T10:08:16.999Z</time></trkpt><trkpt lat="39.00655058278375" lon="-9.230410482073708"><ele>160.0</ele><time>2026-04-03T10:08:17.999Z</time></trkpt><trkpt lat="39.00662890740377" lon="-9.230500425176285"><ele>160.0</ele><time>2026-04-03T10:08:18.999Z</time></trkpt><trkpt lat="39.006725601540566" lon="-9.230534233645407"><ele>160.0</ele><time>2026-04-03T10:08:19.999Z</time></trkpt><trkpt lat="39.006820506383654" lon="-9.230585689254807"><ele>160.0</ele><time>2026-04-03T10:08:20.999Z</time></trkpt><trkpt lat="39.00692019056052" lon="-9.230639168612026"><ele>158.8</ele><time>2026-04-03T10:08:21.999Z</time></trkpt><trkpt lat="39.00701582403706" lon="-9.230693922857283"><ele>157.6</ele><time>2026-04-03T10:08:22.999Z</time></trkpt><trkpt lat="39.007108768123985" lon="-9.230744627556838"><ele>156.4</ele><time>2026-04-03T10:08:23.999Z</time></trkpt><trkpt lat="39.007199735554394" lon="-9.230804541609881"><ele>155.2</ele><time>2026-04-03T10:08:24.999Z</time></trkpt><trkpt lat="39.00728238945658" lon="-9.230867665403208"><ele>154.0</ele><time>2026-04-03T10:08:25.999Z</time></trkpt><trkpt lat="39.00735764018064" lon="-9.230941929128464"><ele>154.0</ele><time>2026-04-03T10:08:26.999Z</time></trkpt><trkpt lat="39.007445290337266" lon="-9.231021138359928"><ele>154.0</ele><time>2026-04-03T10:08:27.999Z</time></trkpt><trkpt lat="39.00753509547729" lon="-9.231095915999406"><ele>154.0</ele><time>2026-04-03T10:08:28.999Z</time></trkpt><trkpt lat="39.00762452722658" lon="-9.231166510287876"><ele>154.0</ele><time>2026-04-03T10:08:29.999Z</time></trkpt><trkpt lat="39.00771381699979" lon="-9.231245289479407"><ele>154.0</ele><time>2026-04-03T10:08:30.999Z</time></trkpt><trkpt lat="39.00780489458267" lon="-9.231321137441617"><ele>153.8</ele><time>2026-04-03T10:08:31.999Z</time></trkpt><trkpt lat="39.007897050499125" lon="-9.231387844525067"><ele>153.60000000000002</ele><time>2026-04-03T10:08:32.999Z</time></trkpt><trkpt lat="39.007989145396664" lon="-9.231450400307594"><ele>153.4</ele><time>2026-04-03T10:08:33.999Z</time></trkpt><trkpt lat="39.008084705717" lon="-9.23151745764363"><ele>153.20000000000002</ele><time>2026-04-03T10:08:34.999Z</time></trkpt><trkpt lat="39.00818248444604" lon="-9.231583293645532"><ele>153.0</ele><time>2026-04-03T10:08:35.999Z</time></trkpt><trkpt lat="39.008270573530424" lon="-9.231646765254432"><ele>152.0</ele><time>2026-04-03T10:08:36.999Z</time></trkpt><trkpt lat="39.00834297609802" lon="-9.231722338881822"><ele>151.0</ele><time>2026-04-03T10:08:37.999Z</time></trkpt><trkpt lat="39.008410712922796" lon="-9.23180386155934"><ele>150.0</ele><time>2026-04-03T10:08:38.999Z</time></trkpt><trkpt lat="39.00845261664702" lon="-9.231915305389968"><ele>149.0</ele><time>2026-04-03T10:08:39.999Z</time></trkpt><trkpt lat="39.00846919685173" lon="-9.232052214204822"><ele>148.0</ele><time>2026-04-03T10:08:40.999Z</time></trkpt><trkpt lat="39.008480454447906" lon="-9.23218572287092"><ele>148.16666666666669</ele><time>2026-04-03T10:08:41.999Z</time></trkpt><trkpt lat="39.008494129400724" lon="-9.232317649762926"><ele>148.33333333333334</ele><time>2026-04-03T10:08:42.999Z</time></trkpt><trkpt lat="39.008508470976366" lon="-9.232442708059576"><ele>148.5</ele><time>2026-04-03T10:08:43.999Z</time></trkpt><trkpt lat="39.00852432587448" lon="-9.232545420086197"><ele>148.66666666666666</ele><time>2026-04-03T10:08:44.999Z</time></trkpt><trkpt lat="39.00854901118249" lon="-9.232625243725614"><ele>148.83333333333331</ele><time>2026-04-03T10:08:45.999Z</time></trkpt><trkpt lat="39.008582077422155" lon="-9.232724456709864"><ele>149.0</ele><time>2026-04-03T10:08:47.999Z</time></trkpt><trkpt lat="39.008478106133" lon="-9.232786124472533"><ele>149.0</ele><time>2026-04-03T10:08:48.999Z</time></trkpt><trkpt lat="39.008406094987" lon="-9.232838788020894"><ele>149.0</ele><time>2026-04-03T10:08:49.999Z</time></trkpt><trkpt lat="39.00832285960808" lon="-9.232906294156564"><ele>149.0</ele><time>2026-04-03T10:08:50.999Z</time></trkpt><trkpt lat="39.00825338162368" lon="-9.232992439414465"><ele>149.0</ele><time>2026-04-03T10:08:51.999Z</time></trkpt><trkpt lat="39.00817027505343" lon="-9.233061020223953"><ele>149.0</ele><time>2026-04-03T10:08:52.999Z</time></trkpt><trkpt lat="39.008092279789665" lon="-9.233140979333522"><ele>148.0</ele><time>2026-04-03T10:08:53.999Z</time></trkpt><trkpt lat="39.0080131688213" lon="-9.233236633049726"><ele>147.0</ele><time>2026-04-03T10:08:54.999Z</time></trkpt><trkpt lat="39.00795383994759" lon="-9.233325665403996"><ele>146.0</ele><time>2026-04-03T10:08:55.999Z</time></trkpt><trkpt lat="39.00786512251995" lon="-9.23342093763068"><ele>145.0</ele><time>2026-04-03T10:08:56.999Z</time></trkpt><trkpt lat="39.00778394819675" lon="-9.233508109444697"><ele>144.0</ele><time>2026-04-03T10:08:57.999Z</time></trkpt><trkpt lat="39.00769430539136" lon="-9.233583528013842"><ele>144.0</ele><time>2026-04-03T10:08:58.999Z</time></trkpt><trkpt lat="39.00763017491984" lon="-9.233690881247899"><ele>144.0</ele><time>2026-04-03T10:08:59.999Z</time></trkpt><trkpt lat="39.007565018059964" lon="-9.233784162880749"><ele>144.0</ele><time>2026-04-03T10:09:00.999Z</time></trkpt><trkpt lat="39.00749894495713" lon="-9.233884099326572"><ele>144.0</ele><time>2026-04-03T10:09:01.999Z</time></trkpt><trkpt lat="39.00742107234583" lon="-9.23398303185439"><ele>144.0</ele><time>2026-04-03T10:09:02.999Z</time></trkpt><trkpt lat="39.00735040010908" lon="-9.234100865601647"><ele>141.0</ele><time>2026-04-03T10:09:03.999Z</time></trkpt><trkpt lat="39.007284807445835" lon="-9.234218573460366"><ele>138.0</ele><time>2026-04-03T10:09:04.999Z</time></trkpt><trkpt lat="39.007211722635944" lon="-9.23434724524237"><ele>135.0</ele><time>2026-04-03T10:09:05.999Z</time></trkpt><trkpt lat="39.007146447066106" lon="-9.234476871355529"><ele>132.0</ele><time>2026-04-03T10:09:06.999Z</time></trkpt><trkpt lat="39.00708902231906" lon="-9.234610428795285"><ele>132.0</ele><time>2026-04-03T10:09:07.999Z</time></trkpt><trkpt lat="39.0070286687624" lon="-9.234738323435177"><ele>132.0</ele><time>2026-04-03T10:09:08.999Z</time></trkpt><trkpt lat="39.006971351301225" lon="-9.234865439984874"><ele>132.0</ele><time>2026-04-03T10:09:09.999Z</time></trkpt><trkpt lat="39.00691104867946" lon="-9.234985729708049"><ele>132.0</ele><time>2026-04-03T10:09:10.999Z</time></trkpt><trkpt lat="39.00685524699727" lon="-9.235106955702266"><ele>130.75</ele><time>2026-04-03T10:09:11.999Z</time></trkpt><trkpt lat="39.00679296662886" lon="-9.23523077530743"><ele>129.5</ele><time>2026-04-03T10:09:12.999Z</time></trkpt><trkpt lat="39.00672776456246" lon="-9.235347303475702"><ele>128.25</ele><time>2026-04-03T10:09:13.999Z</time></trkpt><trkpt lat="39.00666451549293" lon="-9.23546449330831"><ele>127.0</ele><time>2026-04-03T10:09:14.999Z</time></trkpt><trkpt lat="39.00659584649922" lon="-9.235579085253361"><ele>129.75</ele><time>2026-04-03T10:09:15.999Z</time></trkpt><trkpt lat="39.006520330890126" lon="-9.235679531825458"><ele>132.5</ele><time>2026-04-03T10:09:16.999Z</time></trkpt><trkpt lat="39.00645868385271" lon="-9.23580006390569"><ele>135.25</ele><time>2026-04-03T10:09:17.999Z</time></trkpt><trkpt lat="39.00638261317037" lon="-9.235908571182678"><ele>138.0</ele><time>2026-04-03T10:09:18.999Z</time></trkpt><trkpt lat="39.006302000640865" lon="-9.23602355695284"><ele>138.0</ele><time>2026-04-03T10:09:19.999Z</time></trkpt><trkpt lat="39.00622181700268" lon="-9.236140607859564"><ele>138.0</ele><time>2026-04-03T10:09:20.999Z</time></trkpt><trkpt lat="39.00614055884449" lon="-9.236260222383201"><ele>138.0</ele><time>2026-04-03T10:09:21.999Z</time></trkpt><trkpt lat="39.006061026469716" lon="-9.236377296500734"><ele>138.0</ele><time>2026-04-03T10:09:22.999Z</time></trkpt><trkpt lat="39.0059759321246" lon="-9.23649973482582"><ele>137.25</ele><time>2026-04-03T10:09:23.999Z</time></trkpt><trkpt lat="39.00589609890652" lon="-9.236614128510494"><ele>136.5</ele><time>2026-04-03T10:09:24.999Z</time></trkpt><trkpt lat="39.00581382071992" lon="-9.236728157193152"><ele>135.75</ele><time>2026-04-03T10:09:25.999Z</time></trkpt><trkpt lat="39.00572571770571" lon="-9.236846267096654"><ele>135.0</ele><time>2026-04-03T10:09:26.999Z</time></trkpt><trkpt lat="39.00563646892651" lon="-9.236958928163359"><ele>135.0</ele><time>2026-04-03T10:09:27.999Z</time></trkpt><trkpt lat="39.00555088958667" lon="-9.237063236051293"><ele>135.0</ele><time>2026-04-03T10:09:28.999Z</time></trkpt><trkpt lat="39.00546806570718" lon="-9.23716237372232"><ele>135.0</ele><time>2026-04-03T10:09:29.999Z</time></trkpt><trkpt lat="39.00538489886917" lon="-9.237258616969312"><ele>135.0</ele><time>2026-04-03T10:09:30.999Z</time></trkpt><trkpt lat="39.005302514740855" lon="-9.237355026119692"><ele>137.6</ele><time>2026-04-03T10:09:31.999Z</time></trkpt><trkpt lat="39.0052296252251" lon="-9.23746295225039"><ele>140.2</ele><time>2026-04-03T10:09:32.999Z</time></trkpt><trkpt lat="39.00517692950794" lon="-9.23758455227821"><ele>142.8</ele><time>2026-04-03T10:09:33.999Z</time></trkpt><trkpt lat="39.00512846386078" lon="-9.23771559474612"><ele>145.4</ele><time>2026-04-03T10:09:34.999Z</time></trkpt><trkpt lat="39.00508576666548" lon="-9.23784874952941"><ele>148.0</ele><time>2026-04-03T10:09:35.999Z</time></trkpt><trkpt lat="39.005050468564725" lon="-9.237988632279576"><ele>148.0</ele><time>2026-04-03T10:09:36.999Z</time></trkpt><trkpt lat="39.00500723835538" lon="-9.238130459583239"><ele>148.0</ele><time>2026-04-03T10:09:37.999Z</time></trkpt><trkpt lat="39.004956877602666" lon="-9.238257014691031"><ele>148.0</ele><time>2026-04-03T10:09:38.999Z</time></trkpt><trkpt lat="39.00490257375897" lon="-9.238382024701304"><ele>148.0</ele><time>2026-04-03T10:09:39.999Z</time></trkpt><trkpt lat="39.00483160362624" lon="-9.238494190739228"><ele>148.25</ele><time>2026-04-03T10:09:40.999Z</time></trkpt><trkpt lat="39.00473666001" lon="-9.238587165366292"><ele>148.5</ele><time>2026-04-03T10:09:41.999Z</time></trkpt><trkpt lat="39.00463641516581" lon="-9.238654117629428"><ele>148.75</ele><time>2026-04-03T10:09:42.999Z</time></trkpt><trkpt lat="39.00453323109312" lon="-9.238692808417422"><ele>149.0</ele><time>2026-04-03T10:09:43.999Z</time></trkpt><trkpt lat="39.00442423440777" lon="-9.238724004159504"><ele>149.0</ele><time>2026-04-03T10:09:44.999Z</time></trkpt><trkpt lat="39.0043054707616" lon="-9.238749180769233"><ele>149.0</ele><time>2026-04-03T10:09:45.999Z</time></trkpt><trkpt lat="39.00418291227376" lon="-9.238774215603984"><ele>149.0</ele><time>2026-04-03T10:09:46.999Z</time></trkpt><trkpt lat="39.0040621899218" lon="-9.238810417060911"><ele>149.0</ele><time>2026-04-03T10:09:47.999Z</time></trkpt><trkpt lat="39.00394442911569" lon="-9.238865675413548"><ele>148.0</ele><time>2026-04-03T10:09:48.999Z</time></trkpt><trkpt lat="39.003820063289446" lon="-9.238909333184306"><ele>147.0</ele><time>2026-04-03T10:09:49.999Z</time></trkpt><trkpt lat="39.00369763230663" lon="-9.238955907097619"><ele>146.0</ele><time>2026-04-03T10:09:50.999Z</time></trkpt><trkpt lat="39.00358518494624" lon="-9.239006561478416"><ele>145.0</ele><time>2026-04-03T10:09:51.999Z</time></trkpt><trkpt lat="39.00347548159101" lon="-9.239058416573592"><ele>145.0</ele><time>2026-04-03T10:09:52.999Z</time></trkpt><trkpt lat="39.00336718135207" lon="-9.239102933974277"><ele>145.0</ele><time>2026-04-03T10:09:53.999Z</time></trkpt><trkpt lat="39.003261898438986" lon="-9.239146211077925"><ele>145.0</ele><time>2026-04-03T10:09:54.999Z</time></trkpt><trkpt lat="39.00314922014213" lon="-9.239186557432287"><ele>145.0</ele><time>2026-04-03T10:09:55.999Z</time></trkpt><trkpt lat="39.00303725181838" lon="-9.239220883559213"><ele>145.0</ele><time>2026-04-03T10:09:56.999Z</time></trkpt><trkpt lat="39.002928794487964" lon="-9.23924709531568"><ele>145.0</ele><time>2026-04-03T10:09:57.999Z</time></trkpt><trkpt lat="39.00281723827045" lon="-9.239264435067438"><ele>145.0</ele><time>2026-04-03T10:09:58.999Z</time></trkpt><trkpt lat="39.00270303989913" lon="-9.239278776672046"><ele>145.0</ele><time>2026-04-03T10:09:59.999Z</time></trkpt><trkpt lat="39.00258387767182" lon="-9.239263936023912"><ele>144.25</ele><time>2026-04-03T10:10:00.999Z</time></trkpt><trkpt lat="39.002476041239476" lon="-9.239295865412615"><ele>143.5</ele><time>2026-04-03T10:10:01.999Z</time></trkpt><trkpt lat="39.002359257901" lon="-9.239319101267535"><ele>142.75</ele><time>2026-04-03T10:10:02.999Z</time></trkpt><trkpt lat="39.00225679840279" lon="-9.239377396555783"><ele>142.0</ele><time>2026-04-03T10:10:03.999Z</time></trkpt><trkpt lat="39.002155051380456" lon="-9.239443005912511"><ele>142.0</ele><time>2026-04-03T10:10:04.999Z</time></trkpt><trkpt lat="39.002048712758175" lon="-9.239515502056497"><ele>142.0</ele><time>2026-04-03T10:10:05.999Z</time></trkpt><trkpt lat="39.00195234164813" lon="-9.239598849274621"><ele>142.0</ele><time>2026-04-03T10:10:06.999Z</time></trkpt><trkpt lat="39.00185737071485" lon="-9.239683699431984"><ele>142.0</ele><time>2026-04-03T10:10:07.999Z</time></trkpt><trkpt lat="39.00176209053779" lon="-9.239774195893455"><ele>142.75</ele><time>2026-04-03T10:10:08.999Z</time></trkpt><trkpt lat="39.00166778226764" lon="-9.23987466591585"><ele>143.5</ele><time>2026-04-03T10:10:09.999Z</time></trkpt><trkpt lat="39.00156903413503" lon="-9.239965072332183"><ele>144.25</ele><time>2026-04-03T10:10:10.999Z</time></trkpt><trkpt lat="39.001480927759324" lon="-9.240069559693238"><ele>145.0</ele><time>2026-04-03T10:10:11.999Z</time></trkpt><trkpt lat="39.00139482266574" lon="-9.240177632100444"><ele>145.75</ele><time>2026-04-03T10:10:12.999Z</time></trkpt><trkpt lat="39.00130737385765" lon="-9.240289761553658"><ele>146.5</ele><time>2026-04-03T10:10:13.999Z</time></trkpt><trkpt lat="39.001218894622205" lon="-9.240399361740284"><ele>147.25</ele><time>2026-04-03T10:10:14.999Z</time></trkpt><trkpt lat="39.00112664875955" lon="-9.240511145069139"><ele>148.0</ele><time>2026-04-03T10:10:15.999Z</time></trkpt><trkpt lat="39.00103532578886" lon="-9.240612173587285"><ele>147.75</ele><time>2026-04-03T10:10:16.999Z</time></trkpt><trkpt lat="39.000942734527555" lon="-9.240710060323698"><ele>147.5</ele><time>2026-04-03T10:10:17.999Z</time></trkpt><trkpt lat="39.000854806284394" lon="-9.240828647904458"><ele>147.25</ele><time>2026-04-03T10:10:18.999Z</time></trkpt><trkpt lat="39.0007558527808" lon="-9.240941729165842"><ele>147.0</ele><time>2026-04-03T10:10:19.999Z</time></trkpt><trkpt lat="39.000659071923515" lon="-9.241053996327656"><ele>145.25</ele><time>2026-04-03T10:10:20.999Z</time></trkpt><trkpt lat="39.00055644913162" lon="-9.241146431760308"><ele>143.5</ele><time>2026-04-03T10:10:21.999Z</time></trkpt><trkpt lat="39.000469630388416" lon="-9.241251493105457"><ele>141.75</ele><time>2026-04-03T10:10:22.999Z</time></trkpt><trkpt lat="39.00039244603108" lon="-9.241366938160445"><ele>140.0</ele><time>2026-04-03T10:10:23.999Z</time></trkpt><trkpt lat="39.00029981146465" lon="-9.241476875695017"><ele>139.25</ele><time>2026-04-03T10:10:24.999Z</time></trkpt><trkpt lat="39.00020510972832" lon="-9.241590566739188"><ele>138.5</ele><time>2026-04-03T10:10:25.999Z</time></trkpt><trkpt lat="39.000121325154986" lon="-9.241695566683367"><ele>137.75</ele><time>2026-04-03T10:10:26.999Z</time></trkpt><trkpt lat="39.000043452583185" lon="-9.24180632886208"><ele>137.0</ele><time>2026-04-03T10:10:27.999Z</time></trkpt><trkpt lat="38.99997554515931" lon="-9.241919927994209"><ele>137.0</ele><time>2026-04-03T10:10:28.999Z</time></trkpt><trkpt lat="38.99992388789926" lon="-9.242037475168758"><ele>137.0</ele><time>2026-04-03T10:10:29.999Z</time></trkpt><trkpt lat="38.999876814573774" lon="-9.242161426801978"><ele>137.0</ele><time>2026-04-03T10:10:30.999Z</time></trkpt><trkpt lat="38.99983099399517" lon="-9.242285256459835"><ele>137.0</ele><time>2026-04-03T10:10:31.999Z</time></trkpt><trkpt lat="38.99978320644845" lon="-9.242407639187796"><ele>137.0</ele><time>2026-04-03T10:10:32.999Z</time></trkpt><trkpt lat="38.99972514768676" lon="-9.242527981168573"><ele>137.0</ele><time>2026-04-03T10:10:33.999Z</time></trkpt><trkpt lat="38.99967596480859" lon="-9.242654023833138"><ele>137.0</ele><time>2026-04-03T10:10:34.999Z</time></trkpt><trkpt lat="38.99962973008328" lon="-9.242784651943788"><ele>137.0</ele><time>2026-04-03T10:10:35.999Z</time></trkpt><trkpt lat="38.99958220194741" lon="-9.242913887581794"><ele>137.0</ele><time>2026-04-03T10:10:36.999Z</time></trkpt><trkpt lat="38.99955927757464" lon="-9.243055567803564"><ele>137.0</ele><time>2026-04-03T10:10:37.999Z</time></trkpt><trkpt lat="38.99951673974676" lon="-9.243191561112953"><ele>138.25</ele><time>2026-04-03T10:10:38.999Z</time></trkpt><trkpt lat="38.99950812473709" lon="-9.243344036568661"><ele>139.5</ele><time>2026-04-03T10:10:39.999Z</time></trkpt><trkpt lat="38.999482498224424" lon="-9.243494764366444"><ele>140.75</ele><time>2026-04-03T10:10:40.999Z</time></trkpt><trkpt lat="38.999446041405385" lon="-9.243643267904195"><ele>142.0</ele><time>2026-04-03T10:10:41.999Z</time></trkpt><trkpt lat="38.999419061777196" lon="-9.24379668206828"><ele>142.0</ele><time>2026-04-03T10:10:42.999Z</time></trkpt><trkpt lat="38.99938395127321" lon="-9.243946280941612"><ele>142.0</ele><time>2026-04-03T10:10:43.999Z</time></trkpt><trkpt lat="38.99933731388186" lon="-9.244095132911422"><ele>142.0</ele><time>2026-04-03T10:10:44.999Z</time></trkpt><trkpt lat="38.99927318164393" lon="-9.244234548764256"><ele>142.0</ele><time>2026-04-03T10:10:45.999Z</time></trkpt><trkpt lat="38.99919482668966" lon="-9.244357106041246"><ele>141.5</ele><time>2026-04-03T10:10:46.999Z</time></trkpt><trkpt lat="38.99910443747459" lon="-9.244463871383193"><ele>141.0</ele><time>2026-04-03T10:10:47.999Z</time></trkpt><trkpt lat="38.99899895427792" lon="-9.244559988105772"><ele>140.5</ele><time>2026-04-03T10:10:48.999Z</time></trkpt><trkpt lat="38.99889674923854" lon="-9.244646681919681"><ele>140.0</ele><time>2026-04-03T10:10:49.999Z</time></trkpt><trkpt lat="38.99879423113836" lon="-9.244733157507179"><ele>139.0</ele><time>2026-04-03T10:10:50.999Z</time></trkpt><trkpt lat="38.99869305434124" lon="-9.244817371471994"><ele>138.0</ele><time>2026-04-03T10:10:51.999Z</time></trkpt><trkpt lat="38.99860506266887" lon="-9.244916758363754"><ele>137.0</ele><time>2026-04-03T10:10:52.999Z</time></trkpt><trkpt lat="38.99852190092263" lon="-9.245016168512013"><ele>136.0</ele><time>2026-04-03T10:10:53.999Z</time></trkpt><trkpt lat="38.99846621515004" lon="-9.24512869712483"><ele>136.0</ele><time>2026-04-03T10:10:54.999Z</time></trkpt><trkpt lat="38.99842023797325" lon="-9.24524918253976"><ele>136.0</ele><time>2026-04-03T10:10:55.999Z</time></trkpt><trkpt lat="38.998370111173095" lon="-9.24536912612348"><ele>136.0</ele><time>2026-04-03T10:10:56.999Z</time></trkpt><trkpt lat="38.998316487849024" lon="-9.245498584408486"><ele>136.0</ele><time>2026-04-03T10:10:57.999Z</time></trkpt><trkpt lat="38.9982637786488" lon="-9.245628623966983"><ele>136.0</ele><time>2026-04-03T10:10:58.999Z</time></trkpt><trkpt lat="38.99820994909203" lon="-9.24575941852376"><ele>135.4</ele><time>2026-04-03T10:10:59.999Z</time></trkpt><trkpt lat="38.998154530271634" lon="-9.245892695882262"><ele>134.8</ele><time>2026-04-03T10:11:00.999Z</time></trkpt><trkpt lat="38.99810310394905" lon="-9.24601637166495"><ele>134.20000000000002</ele><time>2026-04-03T10:11:01.999Z</time></trkpt><trkpt lat="38.998054216306784" lon="-9.246133299381725"><ele>133.6</ele><time>2026-04-03T10:11:02.999Z</time></trkpt><trkpt lat="38.99800409598348" lon="-9.2462513286001"><ele>133.0</ele><time>2026-04-03T10:11:03.999Z</time></trkpt><trkpt lat="38.99795660085029" lon="-9.246363175703387"><ele>132.6</ele><time>2026-04-03T10:11:04.999Z</time></trkpt><trkpt lat="38.99791276590281" lon="-9.246466403352482"><ele>132.20000000000002</ele><time>2026-04-03T10:11:05.999Z</time></trkpt><trkpt lat="38.99786838560783" lon="-9.246570915260264"><ele>131.8</ele><time>2026-04-03T10:11:06.999Z</time></trkpt><trkpt lat="38.997824378657334" lon="-9.246674548004966"><ele>131.4</ele><time>2026-04-03T10:11:07.999Z</time></trkpt><trkpt lat="38.99775894973" lon="-9.246786637575662"><ele>131.0</ele><time>2026-04-03T10:11:08.999Z</time></trkpt><trkpt lat="38.997724756683766" lon="-9.246925215125454"><ele>131.0</ele><time>2026-04-03T10:11:09.999Z</time></trkpt><trkpt lat="38.99768474581672" lon="-9.247054458331638"><ele>131.0</ele><time>2026-04-03T10:11:10.999Z</time></trkpt><trkpt lat="38.997650611819424" lon="-9.247192042389447"><ele>131.0</ele><time>2026-04-03T10:11:11.999Z</time></trkpt><trkpt lat="38.99762357345148" lon="-9.247332808159538"><ele>131.0</ele><time>2026-04-03T10:11:12.999Z</time></trkpt><trkpt lat="38.997600527042984" lon="-9.247475923895887"><ele>131.0</ele><time>2026-04-03T10:11:13.999Z</time></trkpt><trkpt lat="38.997578474002" lon="-9.247633155753013"><ele>130.0</ele><time>2026-04-03T10:11:14.999Z</time></trkpt><trkpt lat="38.997556357079915" lon="-9.247793197659592"><ele>129.0</ele><time>2026-04-03T10:11:15.999Z</time></trkpt><trkpt lat="38.997533909397006" lon="-9.247957804466116"><ele>128.0</ele><time>2026-04-03T10:11:16.999Z</time></trkpt><trkpt lat="38.997511524771575" lon="-9.248121948855692"><ele>127.0</ele><time>2026-04-03T10:11:17.999Z</time></trkpt><trkpt lat="38.997489888128676" lon="-9.248280608381728"><ele>125.5</ele><time>2026-04-03T10:11:18.999Z</time></trkpt><trkpt lat="38.99746851912942" lon="-9.248439960452853"><ele>124.0</ele><time>2026-04-03T10:11:19.999Z</time></trkpt><trkpt lat="38.99744684388945" lon="-9.248601542968157"><ele>122.5</ele><time>2026-04-03T10:11:20.999Z</time></trkpt><trkpt lat="38.997426147573265" lon="-9.24875417701474"><ele>121.0</ele><time>2026-04-03T10:11:21.999Z</time></trkpt><trkpt lat="38.99740543859983" lon="-9.248903504572697"><ele>119.0</ele><time>2026-04-03T10:11:22.999Z</time></trkpt><trkpt lat="38.99738599057268" lon="-9.249043739771524"><ele>117.0</ele><time>2026-04-03T10:11:23.999Z</time></trkpt><trkpt lat="38.9973668184464" lon="-9.249181985507382"><ele>115.0</ele><time>2026-04-03T10:11:24.999Z</time></trkpt><trkpt lat="38.99733330319696" lon="-9.249324659585254"><ele>113.0</ele><time>2026-04-03T10:11:25.999Z</time></trkpt><trkpt lat="38.997314242029496" lon="-9.249474414429232"><ele>113.0</ele><time>2026-04-03T10:11:26.999Z</time></trkpt><trkpt lat="38.99729069551527" lon="-9.249633189538827"><ele>113.0</ele><time>2026-04-03T10:11:27.999Z</time></trkpt><trkpt lat="38.99727003633011" lon="-9.249795022323958"><ele>113.0</ele><time>2026-04-03T10:11:28.999Z</time></trkpt><trkpt lat="38.997251765285135" lon="-9.249953536594868"><ele>113.0</ele><time>2026-04-03T10:11:29.999Z</time></trkpt><trkpt lat="38.997233825256956" lon="-9.250109074408028"><ele>111.0</ele><time>2026-04-03T10:11:30.999Z</time></trkpt><trkpt lat="38.99720568716531" lon="-9.250265097541432"><ele>109.0</ele><time>2026-04-03T10:11:31.999Z</time></trkpt><trkpt lat="38.99716538258387" lon="-9.250403786735982"><ele>107.0</ele><time>2026-04-03T10:11:32.999Z</time></trkpt><trkpt lat="38.99709692209174" lon="-9.250530086808393"><ele>105.0</ele><time>2026-04-03T10:11:33.999Z</time></trkpt><trkpt lat="38.99700269436438" lon="-9.250641346105953"><ele>103.5</ele><time>2026-04-03T10:11:34.999Z</time></trkpt><trkpt lat="38.99689597563099" lon="-9.250745694723445"><ele>102.0</ele><time>2026-04-03T10:11:35.999Z</time></trkpt><trkpt lat="38.996793462093294" lon="-9.250847415946046"><ele>100.5</ele><time>2026-04-03T10:11:36.999Z</time></trkpt><trkpt lat="38.996709169364664" lon="-9.25095216881954"><ele>99.0</ele><time>2026-04-03T10:11:37.999Z</time></trkpt><trkpt lat="38.99662115322291" lon="-9.251039942425704"><ele>98.80000000000001</ele><time>2026-04-03T10:11:38.999Z</time></trkpt><trkpt lat="38.99653475747868" lon="-9.25112621681254"><ele>98.60000000000001</ele><time>2026-04-03T10:11:39.999Z</time></trkpt><trkpt lat="38.99645247226816" lon="-9.251208386439457"><ele>98.4</ele><time>2026-04-03T10:11:40.999Z</time></trkpt><trkpt lat="38.99637278435067" lon="-9.251287962396582"><ele>98.2</ele><time>2026-04-03T10:11:41.999Z</time></trkpt><trkpt lat="38.996286289559094" lon="-9.25137433569405"><ele>98.0</ele><time>2026-04-03T10:11:42.999Z</time></trkpt><trkpt lat="38.996192458842366" lon="-9.25146803460053"><ele>96.5</ele><time>2026-04-03T10:11:43.999Z</time></trkpt><trkpt lat="38.99608516882153" lon="-9.25154655637347"><ele>95.0</ele><time>2026-04-03T10:11:44.999Z</time></trkpt><trkpt lat="38.99598705350976" lon="-9.251641070144727"><ele>93.5</ele><time>2026-04-03T10:11:45.999Z</time></trkpt><trkpt lat="38.99589113650204" lon="-9.251722098894842"><ele>92.0</ele><time>2026-04-03T10:11:46.999Z</time></trkpt><trkpt lat="38.99580956845993" lon="-9.251816303616359"><ele>92.0</ele><time>2026-04-03T10:11:47.999Z</time></trkpt><trkpt lat="38.99571082627744" lon="-9.251883835805327"><ele>92.0</ele><time>2026-04-03T10:11:48.999Z</time></trkpt><trkpt lat="38.99560962352871" lon="-9.251915789583924"><ele>92.0</ele><time>2026-04-03T10:11:49.999Z</time></trkpt><trkpt lat="38.9955054930054" lon="-9.251952193353551"><ele>92.0</ele><time>2026-04-03T10:11:50.999Z</time></trkpt><trkpt lat="38.995396925108395" lon="-9.251962502145735"><ele>92.0</ele><time>2026-04-03T10:11:51.999Z</time></trkpt><trkpt lat="38.995284463176716" lon="-9.251955269733308"><ele>92.0</ele><time>2026-04-03T10:11:52.999Z</time></trkpt><trkpt lat="38.99516521062775" lon="-9.251923035936295"><ele>92.0</ele><time>2026-04-03T10:11:53.999Z</time></trkpt><trkpt lat="38.99504981239397" lon="-9.251864313097578"><ele>92.0</ele><time>2026-04-03T10:11:54.999Z</time></trkpt><trkpt lat="38.99493205420757" lon="-9.251819758066574"><ele>92.0</ele><time>2026-04-03T10:11:55.999Z</time></trkpt><trkpt lat="38.994837335676145" lon="-9.251761320967507"><ele>91.19999999999999</ele><time>2026-04-03T10:11:56.999Z</time></trkpt><trkpt lat="38.994745446717275" lon="-9.251703800224751"><ele>90.4</ele><time>2026-04-03T10:11:57.999Z</time></trkpt><trkpt lat="38.99467268994184" lon="-9.251633547555649"><ele>89.6</ele><time>2026-04-03T10:11:58.999Z</time></trkpt><trkpt lat="38.99457494556264" lon="-9.251627458260753"><ele>88.80000000000001</ele><time>2026-04-03T10:12:00.999Z</time></trkpt><trkpt lat="38.994612641828645" lon="-9.251737487238527"><ele>88.0</ele><time>2026-04-03T10:12:02.999Z</time></trkpt><trkpt lat="38.994616134019765" lon="-9.251835699376745"><ele>88.0</ele><time>2026-04-03T10:12:03.999Z</time></trkpt><trkpt lat="38.994619706020934" lon="-9.251936155885723"><ele>88.0</ele><time>2026-04-03T10:12:04.999Z</time></trkpt><trkpt lat="38.99460895836637" lon="-9.252039023011406"><ele>88.0</ele><time>2026-04-03T10:12:05.999Z</time></trkpt><trkpt lat="38.99462278787849" lon="-9.252143795959034"><ele>88.0</ele><time>2026-04-03T10:12:06.999Z</time></trkpt><trkpt lat="38.994626302073634" lon="-9.252253671330992"><ele>88.0</ele><time>2026-04-03T10:12:07.999Z</time></trkpt><trkpt lat="38.99462581499474" lon="-9.25237259261589"><ele>88.0</ele><time>2026-04-03T10:12:08.999Z</time></trkpt><trkpt lat="38.99463177701589" lon="-9.252496927519141"><ele>86.0</ele><time>2026-04-03T10:12:09.999Z</time></trkpt><trkpt lat="38.99463581973807" lon="-9.25263232445748"><ele>84.0</ele><time>2026-04-03T10:12:10.999Z</time></trkpt><trkpt lat="38.994638489026485" lon="-9.252756360018557"><ele>82.0</ele><time>2026-04-03T10:12:11.999Z</time></trkpt><trkpt lat="38.99464119670781" lon="-9.252891142206128"><ele>80.0</ele><time>2026-04-03T10:12:12.999Z</time></trkpt><trkpt lat="38.99464383649647" lon="-9.253032287812058"><ele>78.0</ele><time>2026-04-03T10:12:13.999Z</time></trkpt><trkpt lat="38.99464932530251" lon="-9.253183542663988"><ele>77.0</ele><time>2026-04-03T10:12:14.999Z</time></trkpt><trkpt lat="38.994653838739055" lon="-9.253330931509822"><ele>76.0</ele><time>2026-04-03T10:12:15.999Z</time></trkpt><trkpt lat="38.9946571486563" lon="-9.253473418954162"><ele>75.0</ele><time>2026-04-03T10:12:16.999Z</time></trkpt><trkpt lat="38.99466086492723" lon="-9.253620270159761"><ele>74.0</ele><time>2026-04-03T10:12:17.999Z</time></trkpt><trkpt lat="38.99466471620904" lon="-9.253773131597269"><ele>74.0</ele><time>2026-04-03T10:12:18.999Z</time></trkpt><trkpt lat="38.994670699338734" lon="-9.253934124498315"><ele>74.0</ele><time>2026-04-03T10:12:19.999Z</time></trkpt><trkpt lat="38.99466909849218" lon="-9.25409023838886"><ele>74.0</ele><time>2026-04-03T10:12:20.999Z</time></trkpt><trkpt lat="38.99465687171724" lon="-9.254237501450579"><ele>74.0</ele><time>2026-04-03T10:12:21.999Z</time></trkpt><trkpt lat="38.99463914341465" lon="-9.254386161069647"><ele>74.5</ele><time>2026-04-03T10:12:22.999Z</time></trkpt><trkpt lat="38.99460595442151" lon="-9.254528722536337"><ele>75.0</ele><time>2026-04-03T10:12:23.999Z</time></trkpt><trkpt lat="38.99456055365675" lon="-9.25466539446481"><ele>75.5</ele><time>2026-04-03T10:12:24.999Z</time></trkpt><trkpt lat="38.99450570967653" lon="-9.254792003679201"><ele>76.0</ele><time>2026-04-03T10:12:25.999Z</time></trkpt><trkpt lat="38.994439677029206" lon="-9.254914310011191"><ele>75.75</ele><time>2026-04-03T10:12:26.999Z</time></trkpt><trkpt lat="38.99435489277713" lon="-9.255030463601464"><ele>75.5</ele><time>2026-04-03T10:12:27.999Z</time></trkpt><trkpt lat="38.994265258640496" lon="-9.255142723198936"><ele>75.25</ele><time>2026-04-03T10:12:28.999Z</time></trkpt><trkpt lat="38.994175699848974" lon="-9.255261782366917"><ele>75.0</ele><time>2026-04-03T10:12:29.999Z</time></trkpt><trkpt lat="38.99408771304668" lon="-9.255377710586126"><ele>75.0</ele><time>2026-04-03T10:12:30.999Z</time></trkpt><trkpt lat="38.99399990149162" lon="-9.255493690626006"><ele>75.0</ele><time>2026-04-03T10:12:31.999Z</time></trkpt><trkpt lat="38.99391147970058" lon="-9.255616714582002"><ele>75.0</ele><time>2026-04-03T10:12:32.999Z</time></trkpt><trkpt lat="38.99382602141837" lon="-9.255742848946678"><ele>75.0</ele><time>2026-04-03T10:12:33.999Z</time></trkpt><trkpt lat="38.993768127480756" lon="-9.255885428911798"><ele>75.5</ele><time>2026-04-03T10:12:34.999Z</time></trkpt><trkpt lat="38.993706447179534" lon="-9.25602854450719"><ele>76.0</ele><time>2026-04-03T10:12:35.999Z</time></trkpt><trkpt lat="38.99364772835998" lon="-9.256176095176318"><ele>76.5</ele><time>2026-04-03T10:12:36.999Z</time></trkpt><trkpt lat="38.99357766622844" lon="-9.25631447817575"><ele>77.0</ele><time>2026-04-03T10:12:37.999Z</time></trkpt><trkpt lat="38.99352957863751" lon="-9.256464796650475"><ele>76.5</ele><time>2026-04-03T10:12:38.999Z</time></trkpt><trkpt lat="38.993476074236625" lon="-9.25661200734289"><ele>76.0</ele><time>2026-04-03T10:12:39.999Z</time></trkpt><trkpt lat="38.99341657699804" lon="-9.25676409156689"><ele>75.5</ele><time>2026-04-03T10:12:40.999Z</time></trkpt><trkpt lat="38.99336184088519" lon="-9.256913111351086"><ele>75.0</ele><time>2026-04-03T10:12:41.999Z</time></trkpt><trkpt lat="38.99330250248712" lon="-9.257066203548263"><ele>75.0</ele><time>2026-04-03T10:12:42.999Z</time></trkpt><trkpt lat="38.99324373315311" lon="-9.257226023969055"><ele>75.0</ele><time>2026-04-03T10:12:43.999Z</time></trkpt><trkpt lat="38.993182200276316" lon="-9.257377932271721"><ele>75.0</ele><time>2026-04-03T10:12:44.999Z</time></trkpt><trkpt lat="38.993138237693536" lon="-9.257540951714228"><ele>75.0</ele><time>2026-04-03T10:12:45.999Z</time></trkpt><trkpt lat="38.993081192628665" lon="-9.25769409033323"><ele>75.75</ele><time>2026-04-03T10:12:46.999Z</time></trkpt><trkpt lat="38.99302000596149" lon="-9.257851736962495"><ele>76.5</ele><time>2026-04-03T10:12:47.999Z</time></trkpt><trkpt lat="38.99295997454047" lon="-9.258006208930453"><ele>77.25</ele><time>2026-04-03T10:12:48.999Z</time></trkpt><trkpt lat="38.992900480227576" lon="-9.258157143871308"><ele>78.0</ele><time>2026-04-03T10:12:49.999Z</time></trkpt><trkpt lat="38.992833439749056" lon="-9.258312711230767"><ele>78.5</ele><time>2026-04-03T10:12:50.999Z</time></trkpt><trkpt lat="38.99276258310558" lon="-9.258461072757548"><ele>79.0</ele><time>2026-04-03T10:12:51.999Z</time></trkpt><trkpt lat="38.992688695951685" lon="-9.258607039735676"><ele>79.5</ele><time>2026-04-03T10:12:52.999Z</time></trkpt><trkpt lat="38.99260634190381" lon="-9.258720415040557"><ele>80.0</ele><time>2026-04-03T10:12:53.999Z</time></trkpt><trkpt lat="38.99254249631863" lon="-9.25882640775494"><ele>79.6</ele><time>2026-04-03T10:12:54.999Z</time></trkpt><trkpt lat="38.99248191272231" lon="-9.25895583939262"><ele>79.2</ele><time>2026-04-03T10:12:55.999Z</time></trkpt><trkpt lat="38.99240527289374" lon="-9.259067540586063"><ele>78.8</ele><time>2026-04-03T10:12:56.999Z</time></trkpt><trkpt lat="38.99233292324177" lon="-9.259162523610074"><ele>78.4</ele><time>2026-04-03T10:12:57.999Z</time></trkpt><trkpt lat="38.99224668091742" lon="-9.259254063245178"><ele>78.0</ele><time>2026-04-03T10:12:58.999Z</time></trkpt><trkpt lat="38.992164823033086" lon="-9.25937089194951"><ele>78.0</ele><time>2026-04-03T10:12:59.999Z</time></trkpt><trkpt lat="38.99208627318154" lon="-9.259491097942597"><ele>78.0</ele><time>2026-04-03T10:13:00.999Z</time></trkpt><trkpt lat="38.99200513650782" lon="-9.259614616167637"><ele>78.0</ele><time>2026-04-03T10:13:01.999Z</time></trkpt><trkpt lat="38.99191727822363" lon="-9.259748031677034"><ele>78.0</ele><time>2026-04-03T10:13:02.999Z</time></trkpt><trkpt lat="38.991833267672426" lon="-9.259883824129673"><ele>78.5</ele><time>2026-04-03T10:13:03.999Z</time></trkpt><trkpt lat="38.99174581706321" lon="-9.260017130250406"><ele>79.0</ele><time>2026-04-03T10:13:04.999Z</time></trkpt><trkpt lat="38.99166123905994" lon="-9.26015612318689"><ele>79.5</ele><time>2026-04-03T10:13:05.999Z</time></trkpt><trkpt lat="38.99159561841995" lon="-9.260315169768095"><ele>80.0</ele><time>2026-04-03T10:13:06.999Z</time></trkpt><trkpt lat="38.99152356618474" lon="-9.260467802724058"><ele>79.5</ele><time>2026-04-03T10:13:07.999Z</time></trkpt><trkpt lat="38.99145732437192" lon="-9.26062802283596"><ele>79.0</ele><time>2026-04-03T10:13:08.999Z</time></trkpt><trkpt lat="38.99140074210799" lon="-9.260799000807339"><ele>78.5</ele><time>2026-04-03T10:13:09.999Z</time></trkpt><trkpt lat="38.99135494115095" lon="-9.260974162685788"><ele>78.0</ele><time>2026-04-03T10:13:10.999Z</time></trkpt><trkpt lat="38.99131485450853" lon="-9.261149368800218"><ele>78.0</ele><time>2026-04-03T10:13:11.999Z</time></trkpt><trkpt lat="38.99125857149191" lon="-9.261324329843253"><ele>78.0</ele><time>2026-04-03T10:13:12.999Z</time></trkpt><trkpt lat="38.99122073995528" lon="-9.261513421490987"><ele>78.0</ele><time>2026-04-03T10:13:13.999Z</time></trkpt><trkpt lat="38.99117650726074" lon="-9.261694888737672"><ele>78.0</ele><time>2026-04-03T10:13:14.999Z</time></trkpt><trkpt lat="38.99113325666107" lon="-9.261867070844191"><ele>78.25</ele><time>2026-04-03T10:13:15.999Z</time></trkpt><trkpt lat="38.991093949036866" lon="-9.262029142618243"><ele>78.5</ele><time>2026-04-03T10:13:16.999Z</time></trkpt><trkpt lat="38.9910548463638" lon="-9.262178392589448"><ele>78.75</ele><time>2026-04-03T10:13:17.999Z</time></trkpt><trkpt lat="38.99101384641477" lon="-9.26232492585272"><ele>79.0</ele><time>2026-04-03T10:13:18.999Z</time></trkpt><trkpt lat="38.99097388498069" lon="-9.262473051303132"><ele>79.0</ele><time>2026-04-03T10:13:19.999Z</time></trkpt><trkpt lat="38.990926601140806" lon="-9.262617108024923"><ele>79.0</ele><time>2026-04-03T10:13:20.999Z</time></trkpt><trkpt lat="38.990875596988595" lon="-9.262765872129432"><ele>79.0</ele><time>2026-04-03T10:13:21.999Z</time></trkpt><trkpt lat="38.99081715660895" lon="-9.262910893984138"><ele>79.0</ele><time>2026-04-03T10:13:22.999Z</time></trkpt><trkpt lat="38.99076005469185" lon="-9.26306213298707"><ele>79.25</ele><time>2026-04-03T10:13:23.999Z</time></trkpt><trkpt lat="38.990699884277134" lon="-9.263206630606401"><ele>79.5</ele><time>2026-04-03T10:13:24.999Z</time></trkpt><trkpt lat="38.99064188923234" lon="-9.263351318202215"><ele>79.75</ele><time>2026-04-03T10:13:25.999Z</time></trkpt><trkpt lat="38.99058305334789" lon="-9.26349889970079"><ele>80.0</ele><time>2026-04-03T10:13:26.999Z</time></trkpt><trkpt lat="38.990531842199495" lon="-9.263636039567642"><ele>80.0</ele><time>2026-04-03T10:13:27.999Z</time></trkpt><trkpt lat="38.99046982827217" lon="-9.263781382032207"><ele>80.0</ele><time>2026-04-03T10:13:28.999Z</time></trkpt><trkpt lat="38.99040564373772" lon="-9.263910752832109"><ele>80.0</ele><time>2026-04-03T10:13:29.999Z</time></trkpt><trkpt lat="38.990341740712374" lon="-9.26404624702831"><ele>80.0</ele><time>2026-04-03T10:13:30.999Z</time></trkpt><trkpt lat="38.99027286670992" lon="-9.264177343975625"><ele>80.0</ele><time>2026-04-03T10:13:31.999Z</time></trkpt><trkpt lat="38.990195227740486" lon="-9.264302631432264"><ele>80.0</ele><time>2026-04-03T10:13:32.999Z</time></trkpt><trkpt lat="38.99010712363692" lon="-9.264426070140898"><ele>80.0</ele><time>2026-04-03T10:13:33.999Z</time></trkpt><trkpt lat="38.99001942372244" lon="-9.264554416031459"><ele>80.0</ele><time>2026-04-03T10:13:34.999Z</time></trkpt><trkpt lat="38.98991656851193" lon="-9.264668149122484"><ele>80.0</ele><time>2026-04-03T10:13:35.999Z</time></trkpt><trkpt lat="38.9898162744312" lon="-9.264779275291643"><ele>80.0</ele><time>2026-04-03T10:13:36.999Z</time></trkpt><trkpt lat="38.989716042592484" lon="-9.264895274706905"><ele>80.0</ele><time>2026-04-03T10:13:37.999Z</time></trkpt><trkpt lat="38.989616724604424" lon="-9.265016575498345"><ele>80.0</ele><time>2026-04-03T10:13:38.999Z</time></trkpt><trkpt lat="38.9895214105198" lon="-9.265151257394814"><ele>83.0</ele><time>2026-04-03T10:13:39.999Z</time></trkpt><trkpt lat="38.98942356834937" lon="-9.26529877826561"><ele>86.0</ele><time>2026-04-03T10:13:40.999Z</time></trkpt><trkpt lat="38.989326810969104" lon="-9.265454988008731"><ele>89.0</ele><time>2026-04-03T10:13:41.999Z</time></trkpt><trkpt lat="38.989232738981265" lon="-9.26561027970254"><ele>89.66666666666667</ele><time>2026-04-03T10:13:42.999Z</time></trkpt><trkpt lat="38.9891361685439" lon="-9.265764422908449"><ele>90.33333333333333</ele><time>2026-04-03T10:13:43.999Z</time></trkpt><trkpt lat="38.98902741956954" lon="-9.26590263853017"><ele>91.0</ele><time>2026-04-03T10:13:44.999Z</time></trkpt><trkpt lat="38.98894630025275" lon="-9.26606446258707"><ele>91.0</ele><time>2026-04-03T10:13:45.999Z</time></trkpt><trkpt lat="38.98884979448661" lon="-9.266195526656071"><ele>91.0</ele><time>2026-04-03T10:13:46.999Z</time></trkpt><trkpt lat="38.988772549548116" lon="-9.266364218363217"><ele>91.0</ele><time>2026-04-03T10:13:47.999Z</time></trkpt><trkpt lat="38.98870937393257" lon="-9.266505537520938"><ele>91.0</ele><time>2026-04-03T10:13:48.999Z</time></trkpt><trkpt lat="38.98865594056366" lon="-9.26665699315446"><ele>93.25</ele><time>2026-04-03T10:13:49.999Z</time></trkpt><trkpt lat="38.98861362144117" lon="-9.266815006920545"><ele>95.5</ele><time>2026-04-03T10:13:50.999Z</time></trkpt><trkpt lat="38.98858195983704" lon="-9.266984323509782"><ele>97.75</ele><time>2026-04-03T10:13:51.999Z</time></trkpt><trkpt lat="38.98855869994947" lon="-9.267149659992139"><ele>100.0</ele><time>2026-04-03T10:13:52.999Z</time></trkpt><trkpt lat="38.988527948474186" lon="-9.267322267124454"><ele>100.0</ele><time>2026-04-03T10:13:53.999Z</time></trkpt><trkpt lat="38.98850541700464" lon="-9.26750177196458"><ele>100.0</ele><time>2026-04-03T10:13:54.999Z</time></trkpt><trkpt lat="38.988469056998106" lon="-9.26767516676328"><ele>100.0</ele><time>2026-04-03T10:13:55.999Z</time></trkpt><trkpt lat="38.98841437603652" lon="-9.267838754997578"><ele>100.0</ele><time>2026-04-03T10:13:56.999Z</time></trkpt><trkpt lat="38.98834698690133" lon="-9.267993314808468"><ele>98.75</ele><time>2026-04-03T10:13:57.999Z</time></trkpt><trkpt lat="38.98826904057264" lon="-9.26813399747775"><ele>97.5</ele><time>2026-04-03T10:13:58.999Z</time></trkpt><trkpt lat="38.988178888041446" lon="-9.268264799268348"><ele>96.25</ele><time>2026-04-03T10:14:00Z</time></trkpt><trkpt lat="38.988072020598686" lon="-9.26837595448207"><ele>95.0</ele><time>2026-04-03T10:14:01Z</time></trkpt><trkpt lat="38.98795738540259" lon="-9.268468199596935"><ele>95.0</ele><time>2026-04-03T10:14:02Z</time></trkpt><trkpt lat="38.98783774563749" lon="-9.268550938072208"><ele>95.0</ele><time>2026-04-03T10:14:03Z</time></trkpt><trkpt lat="38.987728808130726" lon="-9.2686570674203"><ele>95.0</ele><time>2026-04-03T10:14:04Z</time></trkpt><trkpt lat="38.9876115708572" lon="-9.268753775043594"><ele>95.0</ele><time>2026-04-03T10:14:05Z</time></trkpt><trkpt lat="38.98749169289741" lon="-9.268852660938299"><ele>94.25</ele><time>2026-04-03T10:14:06Z</time></trkpt><trkpt lat="38.987361036580126" lon="-9.268937408540776"><ele>93.5</ele><time>2026-04-03T10:14:07Z</time></trkpt><trkpt lat="38.98725005837109" lon="-9.269054681469672"><ele>92.75</ele><time>2026-04-03T10:14:08Z</time></trkpt><trkpt lat="38.98712879930278" lon="-9.269156791283644"><ele>92.0</ele><time>2026-04-03T10:14:09Z</time></trkpt><trkpt lat="38.98700597475429" lon="-9.269260549706821"><ele>92.0</ele><time>2026-04-03T10:14:10Z</time></trkpt><trkpt lat="38.98687085992021" lon="-9.269349135930783"><ele>92.0</ele><time>2026-04-03T10:14:11Z</time></trkpt><trkpt lat="38.98675094802662" lon="-9.269451750257735"><ele>92.0</ele><time>2026-04-03T10:14:12Z</time></trkpt><trkpt lat="38.9866457504006" lon="-9.269563246177885"><ele>92.0</ele><time>2026-04-03T10:14:13Z</time></trkpt><trkpt lat="38.98653762657026" lon="-9.269653705293052"><ele>91.75</ele><time>2026-04-03T10:14:14Z</time></trkpt><trkpt lat="38.98643051161582" lon="-9.269749193284545"><ele>91.5</ele><time>2026-04-03T10:14:15Z</time></trkpt><trkpt lat="38.98631144589954" lon="-9.26985204810494"><ele>91.25</ele><time>2026-04-03T10:14:16Z</time></trkpt><trkpt lat="38.98622350261817" lon="-9.269982924883648"><ele>91.0</ele><time>2026-04-03T10:14:17Z</time></trkpt><trkpt lat="38.98613695127455" lon="-9.270119831913915"><ele>90.5</ele><time>2026-04-03T10:14:18Z</time></trkpt><trkpt lat="38.98607348916016" lon="-9.270265070994713"><ele>90.0</ele><time>2026-04-03T10:14:19Z</time></trkpt><trkpt lat="38.98603162609226" lon="-9.270415426651727"><ele>89.5</ele><time>2026-04-03T10:14:20Z</time></trkpt><trkpt lat="38.986007228744256" lon="-9.270569507000516"><ele>89.0</ele><time>2026-04-03T10:14:21Z</time></trkpt><trkpt lat="38.98599057136188" lon="-9.270734636110278"><ele>89.0</ele><time>2026-04-03T10:14:22Z</time></trkpt><trkpt lat="38.985991702568505" lon="-9.270905548727848"><ele>89.0</ele><time>2026-04-03T10:14:23Z</time></trkpt><trkpt lat="38.98599175242015" lon="-9.271080017010547"><ele>89.0</ele><time>2026-04-03T10:14:24Z</time></trkpt><trkpt lat="38.986044108256095" lon="-9.271242881113023"><ele>89.0</ele><time>2026-04-03T10:14:25Z</time></trkpt><trkpt lat="38.98610284176942" lon="-9.271396155451106"><ele>86.5</ele><time>2026-04-03T10:14:26Z</time></trkpt><trkpt lat="38.986169451287836" lon="-9.271549946550882"><ele>84.0</ele><time>2026-04-03T10:14:27Z</time></trkpt><trkpt lat="38.986231996311815" lon="-9.271705855980594"><ele>81.5</ele><time>2026-04-03T10:14:28Z</time></trkpt><trkpt lat="38.98630954268666" lon="-9.271861187968419"><ele>79.0</ele><time>2026-04-03T10:14:29Z</time></trkpt><trkpt lat="38.986380093505446" lon="-9.272016206514033"><ele>79.0</ele><time>2026-04-03T10:14:30Z</time></trkpt><trkpt lat="38.986451966428454" lon="-9.272178297120801"><ele>79.0</ele><time>2026-04-03T10:14:31Z</time></trkpt><trkpt lat="38.986524063657505" lon="-9.272342315344554"><ele>79.0</ele><time>2026-04-03T10:14:32Z</time></trkpt><trkpt lat="38.986595139305585" lon="-9.27251013165469"><ele>79.0</ele><time>2026-04-03T10:14:33Z</time></trkpt><trkpt lat="38.9866663661748" lon="-9.272666346759303"><ele>77.5</ele><time>2026-04-03T10:14:34Z</time></trkpt><trkpt lat="38.98673559645743" lon="-9.272813644010267"><ele>76.0</ele><time>2026-04-03T10:14:35Z</time></trkpt><trkpt lat="38.98679529637503" lon="-9.27295280073439"><ele>74.5</ele><time>2026-04-03T10:14:36Z</time></trkpt><trkpt lat="38.986852023148856" lon="-9.27308743576929"><ele>73.0</ele><time>2026-04-03T10:14:37Z</time></trkpt><trkpt lat="38.98690419465798" lon="-9.273230933137924"><ele>72.5</ele><time>2026-04-03T10:14:38Z</time></trkpt><trkpt lat="38.98694103342266" lon="-9.273391080816753"><ele>72.0</ele><time>2026-04-03T10:14:39Z</time></trkpt><trkpt lat="38.98696468941209" lon="-9.273545722649251"><ele>71.5</ele><time>2026-04-03T10:14:40Z</time></trkpt><trkpt lat="38.98697883425512" lon="-9.273684655881606"><ele>71.0</ele><time>2026-04-03T10:14:41Z</time></trkpt><trkpt lat="38.986996352226704" lon="-9.273799107924578"><ele>71.0</ele><time>2026-04-03T10:14:42Z</time></trkpt><trkpt lat="38.9870216270985" lon="-9.273890480841983"><ele>71.0</ele><time>2026-04-03T10:14:43Z</time></trkpt><trkpt lat="38.987059363167695" lon="-9.273968556249448"><ele>71.0</ele><time>2026-04-03T10:14:44Z</time></trkpt><trkpt lat="38.98711102913154" lon="-9.274039611229888"><ele>71.0</ele><time>2026-04-03T10:14:45Z</time></trkpt><trkpt lat="38.98716634648905" lon="-9.274120113166788"><ele>71.0</ele><time>2026-04-03T10:14:46Z</time></trkpt><trkpt lat="38.98727345467307" lon="-9.274153916017976"><ele>71.0</ele><time>2026-04-03T10:14:47Z</time></trkpt><trkpt lat="38.987374745684754" lon="-9.274199425610957"><ele>69.8</ele><time>2026-04-03T10:14:48Z</time></trkpt><trkpt lat="38.98747762318971" lon="-9.274237820411887"><ele>68.6</ele><time>2026-04-03T10:14:49Z</time></trkpt><trkpt lat="38.987579058316975" lon="-9.27427411749253"><ele>67.4</ele><time>2026-04-03T10:14:50Z</time></trkpt><trkpt lat="38.987686850062495" lon="-9.274300208362762"><ele>66.2</ele><time>2026-04-03T10:14:51Z</time></trkpt><trkpt lat="38.987804808974104" lon="-9.274289546811422"><ele>65.0</ele><time>2026-04-03T10:14:52Z</time></trkpt><trkpt lat="38.987920200691846" lon="-9.274275072038373"><ele>64.5</ele><time>2026-04-03T10:14:53Z</time></trkpt><trkpt lat="38.98803931389104" lon="-9.274245903939251"><ele>64.0</ele><time>2026-04-03T10:14:54Z</time></trkpt><trkpt lat="38.98816054604655" lon="-9.274230238462216"><ele>63.5</ele><time>2026-04-03T10:14:55Z</time></trkpt><trkpt lat="38.98828914071564" lon="-9.274223960455956"><ele>63.0</ele><time>2026-04-03T10:14:56Z</time></trkpt><trkpt lat="38.98842056123911" lon="-9.274209646633112"><ele>62.0</ele><time>2026-04-03T10:14:57Z</time></trkpt><trkpt lat="38.98857362483153" lon="-9.274189813368746"><ele>61.0</ele><time>2026-04-03T10:14:58Z</time></trkpt><trkpt lat="38.98871650761169" lon="-9.274176700933936"><ele>60.0</ele><time>2026-04-03T10:14:59Z</time></trkpt><trkpt lat="38.9888569193276" lon="-9.274154960855363"><ele>59.0</ele><time>2026-04-03T10:15:00Z</time></trkpt><trkpt lat="38.988976200680035" lon="-9.274133736000321"><ele>59.0</ele><time>2026-04-03T10:15:01Z</time></trkpt><trkpt lat="38.98909538784891" lon="-9.274117838639635"><ele>59.0</ele><time>2026-04-03T10:15:02Z</time></trkpt><trkpt lat="38.98922697927787" lon="-9.274096227635479"><ele>59.0</ele><time>2026-04-03T10:15:03Z</time></trkpt><trkpt lat="38.98936348340018" lon="-9.274077035091123"><ele>59.0</ele><time>2026-04-03T10:15:04Z</time></trkpt><trkpt lat="38.98949974531453" lon="-9.274057975746032"><ele>59.0</ele><time>2026-04-03T10:15:05Z</time></trkpt><trkpt lat="38.989632992299846" lon="-9.274039094882022"><ele>59.0</ele><time>2026-04-03T10:15:06Z</time></trkpt><trkpt lat="38.989755695292956" lon="-9.274022481823568"><ele>59.0</ele><time>2026-04-03T10:15:07Z</time></trkpt><trkpt lat="38.989860665017744" lon="-9.274006230971523"><ele>59.0</ele><time>2026-04-03T10:15:08Z</time></trkpt><trkpt lat="38.989961878071576" lon="-9.273970007693237"><ele>59.800000000000004</ele><time>2026-04-03T10:15:09Z</time></trkpt><trkpt lat="38.99007781830001" lon="-9.273956609664822"><ele>60.60000000000001</ele><time>2026-04-03T10:15:10Z</time></trkpt><trkpt lat="38.990193704095866" lon="-9.273941634101764"><ele>61.4</ele><time>2026-04-03T10:15:11Z</time></trkpt><trkpt lat="38.99029193945733" lon="-9.273926450000639"><ele>62.2</ele><time>2026-04-03T10:15:12Z</time></trkpt><trkpt lat="38.99037667817706" lon="-9.273915952100895"><ele>63.0</ele><time>2026-04-03T10:15:13Z</time></trkpt><trkpt lat="38.99044978456055" lon="-9.273908850074324"><ele>63.4</ele><time>2026-04-03T10:15:14Z</time></trkpt><trkpt lat="38.99052452805718" lon="-9.273902720773554"><ele>63.8</ele><time>2026-04-03T10:15:15Z</time></trkpt><trkpt lat="38.99063444893166" lon="-9.273902588982647"><ele>64.2</ele><time>2026-04-03T10:15:16Z</time></trkpt><trkpt lat="38.99075586360332" lon="-9.273907690882588"><ele>64.6</ele><time>2026-04-03T10:15:17Z</time></trkpt><trkpt lat="38.990877277201335" lon="-9.273930026551078"><ele>65.0</ele><time>2026-04-03T10:15:18Z</time></trkpt><trkpt lat="38.99099996218927" lon="-9.273956596672456"><ele>65.0</ele><time>2026-04-03T10:15:19Z</time></trkpt><trkpt lat="38.991103899450835" lon="-9.273977886478223"><ele>65.0</ele><time>2026-04-03T10:15:20Z</time></trkpt><trkpt lat="38.99119085968599" lon="-9.274007027789992"><ele>65.0</ele><time>2026-04-03T10:15:21Z</time></trkpt><trkpt lat="38.991270055621285" lon="-9.274032897392985"><ele>65.0</ele><time>2026-04-03T10:15:22Z</time></trkpt><trkpt lat="38.99135382062774" lon="-9.274046576975174"><ele>65.0</ele><time>2026-04-03T10:15:23Z</time></trkpt><trkpt lat="38.99146592033424" lon="-9.274065387782272"><ele>65.0</ele><time>2026-04-03T10:15:24Z</time></trkpt><trkpt lat="38.99158771025637" lon="-9.274099594339042"><ele>65.0</ele><time>2026-04-03T10:15:25Z</time></trkpt><trkpt lat="38.991718439644316" lon="-9.27414120486955"><ele>65.0</ele><time>2026-04-03T10:15:26Z</time></trkpt><trkpt lat="38.99185185597718" lon="-9.274173721838446"><ele>65.0</ele><time>2026-04-03T10:15:27Z</time></trkpt><trkpt lat="38.99196994419233" lon="-9.274213016424014"><ele>64.75</ele><time>2026-04-03T10:15:28Z</time></trkpt><trkpt lat="38.99208712787822" lon="-9.274240740356193"><ele>64.5</ele><time>2026-04-03T10:15:29Z</time></trkpt><trkpt lat="38.99220788163282" lon="-9.274264233126765"><ele>64.25</ele><time>2026-04-03T10:15:30Z</time></trkpt><trkpt lat="38.99233302591327" lon="-9.274291902439206"><ele>64.0</ele><time>2026-04-03T10:15:31Z</time></trkpt><trkpt lat="38.99246348771183" lon="-9.27433299338051"><ele>63.75</ele><time>2026-04-03T10:15:32Z</time></trkpt><trkpt lat="38.99259913147922" lon="-9.274373124013335"><ele>63.5</ele><time>2026-04-03T10:15:33Z</time></trkpt><trkpt lat="38.9927202489449" lon="-9.274399234105482"><ele>63.25</ele><time>2026-04-03T10:15:34Z</time></trkpt><trkpt lat="38.992837443214164" lon="-9.274405993489532"><ele>63.0</ele><time>2026-04-03T10:15:35Z</time></trkpt><trkpt lat="38.992960940875854" lon="-9.274401129841683"><ele>63.0</ele><time>2026-04-03T10:15:36Z</time></trkpt><trkpt lat="38.99308620217722" lon="-9.274367392191298"><ele>63.0</ele><time>2026-04-03T10:15:37Z</time></trkpt><trkpt lat="38.99320793757074" lon="-9.27431371412859"><ele>63.0</ele><time>2026-04-03T10:15:38Z</time></trkpt><trkpt lat="38.99333097975945" lon="-9.274249209468898"><ele>63.0</ele><time>2026-04-03T10:15:39Z</time></trkpt><trkpt lat="38.99346401902468" lon="-9.274187709715845"><ele>61.25</ele><time>2026-04-03T10:15:40Z</time></trkpt><trkpt lat="38.99359390843112" lon="-9.274131352117054"><ele>59.5</ele><time>2026-04-03T10:15:41Z</time></trkpt><trkpt lat="38.993722646783475" lon="-9.274072457684468"><ele>57.75</ele><time>2026-04-03T10:15:42Z</time></trkpt><trkpt lat="38.99384950173574" lon="-9.274009804968799"><ele>56.0</ele><time>2026-04-03T10:15:43Z</time></trkpt><trkpt lat="38.99397650912871" lon="-9.273948172323834"><ele>57.5</ele><time>2026-04-03T10:15:44Z</time></trkpt><trkpt lat="38.99410284330342" lon="-9.273887580133046"><ele>59.0</ele><time>2026-04-03T10:15:45Z</time></trkpt><trkpt lat="38.994225868038164" lon="-9.273827868232127"><ele>60.5</ele><time>2026-04-03T10:15:46Z</time></trkpt><trkpt lat="38.99434344377359" lon="-9.27377306402436"><ele>62.0</ele><time>2026-04-03T10:15:47Z</time></trkpt><trkpt lat="38.99446517530276" lon="-9.273712977434622"><ele>62.0</ele><time>2026-04-03T10:15:48Z</time></trkpt><trkpt lat="38.99459340138188" lon="-9.27366284410442"><ele>62.0</ele><time>2026-04-03T10:15:49Z</time></trkpt><trkpt lat="38.99472271682114" lon="-9.273610086082282"><ele>62.0</ele><time>2026-04-03T10:15:50Z</time></trkpt><trkpt lat="38.99485169898957" lon="-9.273557821460978"><ele>62.0</ele><time>2026-04-03T10:15:51Z</time></trkpt><trkpt lat="38.99498275420256" lon="-9.273504592450296"><ele>63.25</ele><time>2026-04-03T10:15:52Z</time></trkpt><trkpt lat="38.9951173616024" lon="-9.273453214974689"><ele>64.5</ele><time>2026-04-03T10:15:53Z</time></trkpt><trkpt lat="38.99525179292577" lon="-9.273418481030198"><ele>65.75</ele><time>2026-04-03T10:15:54Z</time></trkpt><trkpt lat="38.995390432195485" lon="-9.273411372980128"><ele>67.0</ele><time>2026-04-03T10:15:55Z</time></trkpt><trkpt lat="38.99552617374556" lon="-9.273426233225184"><ele>67.0</ele><time>2026-04-03T10:15:56Z</time></trkpt><trkpt lat="38.995657222790115" lon="-9.273461869550898"><ele>67.0</ele><time>2026-04-03T10:15:57Z</time></trkpt><trkpt lat="38.99578133896666" lon="-9.273520162160242"><ele>67.0</ele><time>2026-04-03T10:15:58Z</time></trkpt><trkpt lat="38.99590683795685" lon="-9.273586234172583"><ele>67.0</ele><time>2026-04-03T10:15:59Z</time></trkpt><trkpt lat="38.99603020561962" lon="-9.273670604519998"><ele>67.0</ele><time>2026-04-03T10:16:00Z</time></trkpt><trkpt lat="38.99615866146086" lon="-9.273758237061136"><ele>67.0</ele><time>2026-04-03T10:16:01Z</time></trkpt><trkpt lat="38.99628280411099" lon="-9.273852977360546"><ele>67.0</ele><time>2026-04-03T10:16:02Z</time></trkpt><trkpt lat="38.996402103671066" lon="-9.27395781036836"><ele>67.0</ele><time>2026-04-03T10:16:03Z</time></trkpt><trkpt lat="38.9965220409244" lon="-9.27407015993781"><ele>67.5</ele><time>2026-04-03T10:16:04Z</time></trkpt><trkpt lat="38.99663320333133" lon="-9.274192278726131"><ele>68.0</ele><time>2026-04-03T10:16:05Z</time></trkpt><trkpt lat="38.99674597642654" lon="-9.274301462798435"><ele>68.5</ele><time>2026-04-03T10:16:06Z</time></trkpt><trkpt lat="38.99685773875254" lon="-9.274416200263536"><ele>69.0</ele><time>2026-04-03T10:16:07Z</time></trkpt><trkpt lat="38.99697368235032" lon="-9.274525758117973"><ele>69.0</ele><time>2026-04-03T10:16:08Z</time></trkpt><trkpt lat="38.99708674709754" lon="-9.27462871057306"><ele>69.0</ele><time>2026-04-03T10:16:09Z</time></trkpt><trkpt lat="38.9972038896048" lon="-9.274731955636721"><ele>69.0</ele><time>2026-04-03T10:16:10Z</time></trkpt><trkpt lat="38.99731353625719" lon="-9.274837288264813"><ele>69.0</ele><time>2026-04-03T10:16:11Z</time></trkpt><trkpt lat="38.997424015167795" lon="-9.274941653624799"><ele>69.75</ele><time>2026-04-03T10:16:12Z</time></trkpt><trkpt lat="38.997530197727635" lon="-9.275051434054431"><ele>70.5</ele><time>2026-04-03T10:16:13Z</time></trkpt><trkpt lat="38.99763761636058" lon="-9.27515817304636"><ele>71.25</ele><time>2026-04-03T10:16:14Z</time></trkpt><trkpt lat="38.997745910775656" lon="-9.275262121028888"><ele>72.0</ele><time>2026-04-03T10:16:15Z</time></trkpt><trkpt lat="38.997852813396534" lon="-9.275368366071467"><ele>72.0</ele><time>2026-04-03T10:16:16Z</time></trkpt><trkpt lat="38.99796464027057" lon="-9.275476358257643"><ele>72.0</ele><time>2026-04-03T10:16:17Z</time></trkpt><trkpt lat="38.99808183852492" lon="-9.275580530526485"><ele>72.0</ele><time>2026-04-03T10:16:18Z</time></trkpt><trkpt lat="38.9981985960597" lon="-9.27568291201194"><ele>72.0</ele><time>2026-04-03T10:16:19Z</time></trkpt><trkpt lat="38.998316403333384" lon="-9.275782046976458"><ele>71.0</ele><time>2026-04-03T10:16:20Z</time></trkpt><trkpt lat="38.99844456070956" lon="-9.275860688910837"><ele>70.0</ele><time>2026-04-03T10:16:21Z</time></trkpt><trkpt lat="38.99857796760934" lon="-9.275907794329717"><ele>69.0</ele><time>2026-04-03T10:16:22Z</time></trkpt><trkpt lat="38.99871478742411" lon="-9.275938771931607"><ele>68.0</ele><time>2026-04-03T10:16:23Z</time></trkpt><trkpt lat="38.99885263553447" lon="-9.275959539502479"><ele>68.0</ele><time>2026-04-03T10:16:24Z</time></trkpt><trkpt lat="38.998988136267286" lon="-9.275973281332455"><ele>68.0</ele><time>2026-04-03T10:16:25Z</time></trkpt><trkpt lat="38.999121206328134" lon="-9.275992790915502"><ele>68.0</ele><time>2026-04-03T10:16:26Z</time></trkpt><trkpt lat="38.9992538636188" lon="-9.2760121769738"><ele>68.0</ele><time>2026-04-03T10:16:27Z</time></trkpt><trkpt lat="38.99938746032235" lon="-9.276022596099237"><ele>68.25</ele><time>2026-04-03T10:16:28Z</time></trkpt><trkpt lat="38.99952004721996" lon="-9.276035700646728"><ele>68.5</ele><time>2026-04-03T10:16:29Z</time></trkpt><trkpt lat="38.999653824118425" lon="-9.276046953274841"><ele>68.75</ele><time>2026-04-03T10:16:30Z</time></trkpt><trkpt lat="38.99978086581859" lon="-9.276063824161094"><ele>69.0</ele><time>2026-04-03T10:16:31Z</time></trkpt><trkpt lat="38.999903473084935" lon="-9.27607887813181"><ele>69.0</ele><time>2026-04-03T10:16:32Z</time></trkpt><trkpt lat="39.00002352254094" lon="-9.276094328177944"><ele>69.0</ele><time>2026-04-03T10:16:33Z</time></trkpt><trkpt lat="39.00014875133115" lon="-9.276107899943288"><ele>69.0</ele><time>2026-04-03T10:16:34Z</time></trkpt><trkpt lat="39.00027552633972" lon="-9.276124760227406"><ele>69.0</ele><time>2026-04-03T10:16:35Z</time></trkpt><trkpt lat="39.000406397956056" lon="-9.276135381076447"><ele>69.0</ele><time>2026-04-03T10:16:36Z</time></trkpt><trkpt lat="39.00053963209238" lon="-9.2761420393921"><ele>69.0</ele><time>2026-04-03T10:16:37Z</time></trkpt><trkpt lat="39.000673434181245" lon="-9.27614356943482"><ele>69.0</ele><time>2026-04-03T10:16:38Z</time></trkpt><trkpt lat="39.000811574171415" lon="-9.276135440257526"><ele>69.0</ele><time>2026-04-03T10:16:39Z</time></trkpt><trkpt lat="39.00094689021183" lon="-9.276121365224158"><ele>67.5</ele><time>2026-04-03T10:16:40Z</time></trkpt><trkpt lat="39.00108373273535" lon="-9.276099201892581"><ele>66.0</ele><time>2026-04-03T10:16:41Z</time></trkpt><trkpt lat="39.001217304464035" lon="-9.276082106085873"><ele>64.5</ele><time>2026-04-03T10:16:42Z</time></trkpt><trkpt lat="39.00135016322402" lon="-9.276065524815001"><ele>63.0</ele><time>2026-04-03T10:16:43Z</time></trkpt><trkpt lat="39.00147882645872" lon="-9.276050302848484"><ele>63.0</ele><time>2026-04-03T10:16:44Z</time></trkpt><trkpt lat="39.00160205673112" lon="-9.276036372992774"><ele>63.0</ele><time>2026-04-03T10:16:45Z</time></trkpt><trkpt lat="39.00173064011458" lon="-9.276024813430148"><ele>63.0</ele><time>2026-04-03T10:16:46Z</time></trkpt><trkpt lat="39.00185959797851" lon="-9.27601032992947"><ele>63.0</ele><time>2026-04-03T10:16:47Z</time></trkpt><trkpt lat="39.00198685389016" lon="-9.27600282036554"><ele>62.5</ele><time>2026-04-03T10:16:48Z</time></trkpt><trkpt lat="39.00211479899318" lon="-9.275986565514334"><ele>62.0</ele><time>2026-04-03T10:16:49Z</time></trkpt><trkpt lat="39.002242308671164" lon="-9.275977832361699"><ele>61.5</ele><time>2026-04-03T10:16:50Z</time></trkpt><trkpt lat="39.002368034139195" lon="-9.275963644047614"><ele>61.0</ele><time>2026-04-03T10:16:51Z</time></trkpt><trkpt lat="39.00249824979878" lon="-9.275956666388936"><ele>61.0</ele><time>2026-04-03T10:16:52Z</time></trkpt><trkpt lat="39.00263145974111" lon="-9.275948736048111"><ele>61.0</ele><time>2026-04-03T10:16:53Z</time></trkpt><trkpt lat="39.00275782831421" lon="-9.275929882840243"><ele>61.0</ele><time>2026-04-03T10:16:54Z</time></trkpt><trkpt lat="39.00288660537829" lon="-9.275910863668258"><ele>61.0</ele><time>2026-04-03T10:16:55Z</time></trkpt><trkpt lat="39.00300843926791" lon="-9.275919671448426"><ele>61.0</ele><time>2026-04-03T10:16:56Z</time></trkpt><trkpt lat="39.00312644535621" lon="-9.27595718392535"><ele>61.0</ele><time>2026-04-03T10:16:57Z</time></trkpt><trkpt lat="39.00325171067074" lon="-9.276008576578679"><ele>61.0</ele><time>2026-04-03T10:16:58Z</time></trkpt><trkpt lat="39.00337871326352" lon="-9.276064404017047"><ele>61.0</ele><time>2026-04-03T10:16:59Z</time></trkpt><trkpt lat="39.003507158809015" lon="-9.276107963599353"><ele>61.0</ele><time>2026-04-03T10:17:00Z</time></trkpt><trkpt lat="39.00361676825005" lon="-9.276154050079384"><ele>60.99999999999999</ele><time>2026-04-03T10:17:01Z</time></trkpt><trkpt lat="39.0037136438629" lon="-9.276200623858118"><ele>60.99999999999999</ele><time>2026-04-03T10:17:02Z</time></trkpt><trkpt lat="39.00379523553733" lon="-9.276236507067534"><ele>61.0</ele><time>2026-04-03T10:17:03Z</time></trkpt><trkpt lat="39.003863284129" lon="-9.276262541960197"><ele>61.0</ele><time>2026-04-03T10:17:04Z</time></trkpt><trkpt lat="39.00380410723871" lon="-9.276440300348678"><ele>60.99999999999999</ele><time>2026-04-03T10:17:08Z</time></trkpt><trkpt lat="39.00374211810539" lon="-9.276407255016135"><ele>61.0</ele><time>2026-04-03T10:17:10Z</time></trkpt><trkpt lat="39.00380069511069" lon="-9.276442190232123"><ele>60.99999999999999</ele><time>2026-04-03T10:17:18Z</time></trkpt><trkpt lat="39.00386887136359" lon="-9.27643449562988"><ele>60.99999999999999</ele><time>2026-04-03T10:18:04Z</time></trkpt><trkpt lat="39.00380371943649" lon="-9.276448183412505"><ele>61.0</ele><time>2026-04-03T10:19:15.999Z</time></trkpt><trkpt lat="39.00386683429398" lon="-9.276453800140331"><ele>60.99999999999999</ele><time>2026-04-03T10:19:29.999Z</time></trkpt><trkpt lat="39.003798207192254" lon="-9.276464364982766"><ele>60.99999999999999</ele><time>2026-04-03T10:19:40.999Z</time></trkpt><trkpt lat="39.003733215384514" lon="-9.276431195827083"><ele>60.99999999999999</ele><time>2026-04-03T10:19:50.999Z</time></trkpt><trkpt lat="39.003791660814414" lon="-9.276462146029731"><ele>61.0</ele><time>2026-04-03T10:20:44Z</time></trkpt><trkpt lat="39.003859280747356" lon="-9.276432872227758"><ele>61.0</ele><time>2026-04-03T10:20:48Z</time></trkpt><trkpt lat="39.00378468413156" lon="-9.276432623723526"><ele>61.0</ele><time>2026-04-03T10:22:36Z</time></trkpt><trkpt lat="39.00372187403174" lon="-9.2764022138627"><ele>60.99999999999999</ele><time>2026-04-03T10:22:41Z</time></trkpt><trkpt lat="39.00364736458182" lon="-9.276396311756491"><ele>61.0</ele><time>2026-04-03T10:22:47Z</time></trkpt><trkpt lat="39.00374828350312" lon="-9.276432490352887"><ele>65.0</ele><time>2026-04-03T10:23:04Z</time></trkpt><trkpt lat="39.0038151627384" lon="-9.27645563007249"><ele>61.0</ele><time>2026-04-03T10:23:22Z</time></trkpt><trkpt lat="39.003882211602104" lon="-9.276466416611669"><ele>61.0</ele><time>2026-04-03T10:23:28Z</time></trkpt><trkpt lat="39.003928754500855" lon="-9.276530355988678"><ele>61.0</ele><time>2026-04-03T10:23:37Z</time></trkpt></trkseg><trkseg><trkpt lat="39.0045971957893" lon="-9.287357878935424"><ele>95.0</ele><time>2026-04-03T11:13:22Z</time></trkpt><trkpt lat="39.00450153543819" lon="-9.287317527732425"><ele>95.0</ele><time>2026-04-03T11:13:26Z</time></trkpt><trkpt lat="39.00443966226006" lon="-9.287287512973867"><ele>95.0</ele><time>2026-04-03T11:13:27Z</time></trkpt><trkpt lat="39.004354059051614" lon="-9.287253396826745"><ele>95.0</ele><time>2026-04-03T11:13:28Z</time></trkpt><trkpt lat="39.0042645729622" lon="-9.287213606587656"><ele>95.0</ele><time>2026-04-03T11:13:29Z</time></trkpt><trkpt lat="39.0041773351419" lon="-9.287181644946763"><ele>95.0</ele><time>2026-04-03T11:13:30Z</time></trkpt><trkpt lat="39.00406086841234" lon="-9.2871713461189"><ele>95.2</ele><time>2026-04-03T11:13:31Z</time></trkpt><trkpt lat="39.003955069670084" lon="-9.287124664992032"><ele>95.4</ele><time>2026-04-03T11:13:32Z</time></trkpt><trkpt lat="39.00384571115743" lon="-9.287069504705386"><ele>95.6</ele><time>2026-04-03T11:13:33Z</time></trkpt><trkpt lat="39.00374559149267" lon="-9.287008056566888"><ele>95.8</ele><time>2026-04-03T11:13:34Z</time></trkpt><trkpt lat="39.00366444192798" lon="-9.286949133970367"><ele>96.0</ele><time>2026-04-03T11:13:35Z</time></trkpt><trkpt lat="39.0035827811247" lon="-9.286883633637563"><ele>96.0</ele><time>2026-04-03T11:13:36Z</time></trkpt><trkpt lat="39.003501018860064" lon="-9.286817258172729"><ele>96.0</ele><time>2026-04-03T11:13:37Z</time></trkpt><trkpt lat="39.00343362048563" lon="-9.286759188050484"><ele>96.0</ele><time>2026-04-03T11:13:38Z</time></trkpt><trkpt lat="39.0033681189402" lon="-9.286703433756841"><ele>96.0</ele><time>2026-04-03T11:13:39Z</time></trkpt><trkpt lat="39.003273342361865" lon="-9.286621787083146"><ele>96.0</ele><time>2026-04-03T11:13:41Z</time></trkpt><trkpt lat="39.003202045371104" lon="-9.286559932867817"><ele>96.0</ele><time>2026-04-03T11:13:42Z</time></trkpt><trkpt lat="39.003129699513494" lon="-9.286499454548775"><ele>96.0</ele><time>2026-04-03T11:13:43Z</time></trkpt><trkpt lat="39.00305585946197" lon="-9.286439626809692"><ele>96.0</ele><time>2026-04-03T11:13:44Z</time></trkpt><trkpt lat="39.00296534471554" lon="-9.286364130474693"><ele>96.0</ele><time>2026-04-03T11:13:45Z</time></trkpt><trkpt lat="39.002888480923325" lon="-9.286289586634826"><ele>96.0</ele><time>2026-04-03T11:13:46Z</time></trkpt><trkpt lat="39.00281908413502" lon="-9.286205681842482"><ele>96.0</ele><time>2026-04-03T11:13:47Z</time></trkpt><trkpt lat="39.00276973837359" lon="-9.286117330472463"><ele>96.0</ele><time>2026-04-03T11:13:48Z</time></trkpt><trkpt lat="39.002716620774116" lon="-9.286028366211298"><ele>96.0</ele><time>2026-04-03T11:13:49Z</time></trkpt><trkpt lat="39.00265789546524" lon="-9.285929631527129"><ele>96.0</ele><time>2026-04-03T11:13:50Z</time></trkpt><trkpt lat="39.00259215692798" lon="-9.285839325544016"><ele>96.0</ele><time>2026-04-03T11:13:51Z</time></trkpt><trkpt lat="39.00253176358175" lon="-9.285765859936959"><ele>96.0</ele><time>2026-04-03T11:13:52Z</time></trkpt><trkpt lat="39.00247714329181" lon="-9.285692097386026"><ele>95.8</ele><time>2026-04-03T11:13:53Z</time></trkpt><trkpt lat="39.00242262999392" lon="-9.285624876801702"><ele>95.6</ele><time>2026-04-03T11:13:54Z</time></trkpt><trkpt lat="39.002376385392765" lon="-9.285562602843266"><ele>95.4</ele><time>2026-04-03T11:13:55Z</time></trkpt><trkpt lat="39.00239045771605" lon="-9.285464368617435"><ele>95.2</ele><time>2026-04-03T11:13:56Z</time></trkpt><trkpt lat="39.0025417572551" lon="-9.285359914219558"><ele>95.0</ele><time>2026-04-03T11:13:58Z</time></trkpt><trkpt lat="39.00263747251004" lon="-9.285299073941271"><ele>94.75</ele><time>2026-04-03T11:13:59Z</time></trkpt><trkpt lat="39.002757309793715" lon="-9.285255787159281"><ele>94.5</ele><time>2026-04-03T11:14:00Z</time></trkpt><trkpt lat="39.002881548686965" lon="-9.285201648852349"><ele>94.25</ele><time>2026-04-03T11:14:01Z</time></trkpt><trkpt lat="39.00301656786711" lon="-9.285126998384492"><ele>94.0</ele><time>2026-04-03T11:14:02Z</time></trkpt><trkpt lat="39.00315567750014" lon="-9.285059399385165"><ele>94.0</ele><time>2026-04-03T11:14:03Z</time></trkpt><trkpt lat="39.00329838538505" lon="-9.284996608546807"><ele>94.0</ele><time>2026-04-03T11:14:04Z</time></trkpt><trkpt lat="39.00343186372011" lon="-9.284911545323212"><ele>94.0</ele><time>2026-04-03T11:14:05Z</time></trkpt><trkpt lat="39.0035318461774" lon="-9.284785638368655"><ele>94.0</ele><time>2026-04-03T11:14:06Z</time></trkpt><trkpt lat="39.003616788693876" lon="-9.284663291290267"><ele>90.75</ele><time>2026-04-03T11:14:07Z</time></trkpt><trkpt lat="39.003696466130314" lon="-9.28452954084879"><ele>87.5</ele><time>2026-04-03T11:14:08Z</time></trkpt><trkpt lat="39.0037653292668" lon="-9.284359979926567"><ele>84.25</ele><time>2026-04-03T11:14:09Z</time></trkpt><trkpt lat="39.00385813282134" lon="-9.284178749311845"><ele>81.0</ele><time>2026-04-03T11:14:10Z</time></trkpt><trkpt lat="39.0039390102052" lon="-9.284006454339519"><ele>79.33333333333333</ele><time>2026-04-03T11:14:11Z</time></trkpt><trkpt lat="39.00403965572882" lon="-9.283856089513966"><ele>77.66666666666666</ele><time>2026-04-03T11:14:12Z</time></trkpt><trkpt lat="39.004151311758726" lon="-9.283690583641192"><ele>76.0</ele><time>2026-04-03T11:14:13Z</time></trkpt><trkpt lat="39.00427803365313" lon="-9.283527850015433"><ele>76.0</ele><time>2026-04-03T11:14:14Z</time></trkpt><trkpt lat="39.00439867034615" lon="-9.283382624818444"><ele>76.0</ele><time>2026-04-03T11:14:15Z</time></trkpt><trkpt lat="39.0045073775278" lon="-9.283246728197522"><ele>76.0</ele><time>2026-04-03T11:14:16Z</time></trkpt><trkpt lat="39.0046158345776" lon="-9.28311879843492"><ele>76.5</ele><time>2026-04-03T11:14:17Z</time></trkpt><trkpt lat="39.00470633388895" lon="-9.282993355822107"><ele>77.0</ele><time>2026-04-03T11:14:18Z</time></trkpt><trkpt lat="39.00475622344242" lon="-9.282857738216608"><ele>77.5</ele><time>2026-04-03T11:14:19Z</time></trkpt><trkpt lat="39.00478972680938" lon="-9.282726410917252"><ele>78.0</ele><time>2026-04-03T11:14:20Z</time></trkpt><trkpt lat="39.00479591031841" lon="-9.282600857978588"><ele>78.0</ele><time>2026-04-03T11:14:21Z</time></trkpt><trkpt lat="39.00477456287426" lon="-9.282469814389675"><ele>78.0</ele><time>2026-04-03T11:14:22Z</time></trkpt><trkpt lat="39.004736465008286" lon="-9.282319973720861"><ele>78.0</ele><time>2026-04-03T11:14:23Z</time></trkpt><trkpt lat="39.004683876017104" lon="-9.28215000673177"><ele>78.0</ele><time>2026-04-03T11:14:24Z</time></trkpt><trkpt lat="39.00463233280441" lon="-9.281981112840972"><ele>74.25</ele><time>2026-04-03T11:14:25Z</time></trkpt><trkpt lat="39.004579290959605" lon="-9.281812168329344"><ele>70.5</ele><time>2026-04-03T11:14:26Z</time></trkpt><trkpt lat="39.004521480473365" lon="-9.281663799281922"><ele>66.75</ele><time>2026-04-03T11:14:27Z</time></trkpt><trkpt lat="39.0044534324372" lon="-9.281551317569816"><ele>63.0</ele><time>2026-04-03T11:14:28Z</time></trkpt><trkpt lat="39.0043706773527" lon="-9.281469209004065"><ele>60.5</ele><time>2026-04-03T11:14:29Z</time></trkpt><trkpt lat="39.004269453864566" lon="-9.281417072269157"><ele>58.0</ele><time>2026-04-03T11:14:30Z</time></trkpt><trkpt lat="39.00415349251691" lon="-9.281379918664408"><ele>55.5</ele><time>2026-04-03T11:14:31Z</time></trkpt><trkpt lat="39.00402148965298" lon="-9.281362705111151"><ele>53.0</ele><time>2026-04-03T11:14:32Z</time></trkpt><trkpt lat="39.00386420084318" lon="-9.281341318552672"><ele>53.0</ele><time>2026-04-03T11:14:33Z</time></trkpt><trkpt lat="39.00369957776546" lon="-9.281322352767575"><ele>53.0</ele><time>2026-04-03T11:14:34Z</time></trkpt><trkpt lat="39.00353298602327" lon="-9.281303160160299"><ele>53.0</ele><time>2026-04-03T11:14:35Z</time></trkpt><trkpt lat="39.003361099394354" lon="-9.281280197069586"><ele>52.75</ele><time>2026-04-03T11:14:36Z</time></trkpt><trkpt lat="39.003213368505016" lon="-9.281246532659278"><ele>52.5</ele><time>2026-04-03T11:14:37Z</time></trkpt><trkpt lat="39.003089675281245" lon="-9.28118567688862"><ele>52.25</ele><time>2026-04-03T11:14:38Z</time></trkpt><trkpt lat="39.00298272642748" lon="-9.281137501339522"><ele>52.0</ele><time>2026-04-03T11:14:39Z</time></trkpt><trkpt lat="39.00289582711701" lon="-9.281043894324107"><ele>52.0</ele><time>2026-04-03T11:14:40Z</time></trkpt><trkpt lat="39.0028165034504" lon="-9.28089681576717"><ele>52.0</ele><time>2026-04-03T11:14:41Z</time></trkpt><trkpt lat="39.00274529742582" lon="-9.280719078667332"><ele>52.0</ele><time>2026-04-03T11:14:42Z</time></trkpt><trkpt lat="39.00266409440943" lon="-9.28051727319793"><ele>52.0</ele><time>2026-04-03T11:14:43Z</time></trkpt><trkpt lat="39.00257602555606" lon="-9.280306799855708"><ele>52.0</ele><time>2026-04-03T11:14:44Z</time></trkpt><trkpt lat="39.00247657962078" lon="-9.2800938283503"><ele>52.0</ele><time>2026-04-03T11:14:45Z</time></trkpt><trkpt lat="39.00237485474076" lon="-9.279867104799116"><ele>52.0</ele><time>2026-04-03T11:14:46Z</time></trkpt><trkpt lat="39.00227370974473" lon="-9.279633797175151"><ele>52.0</ele><time>2026-04-03T11:14:47Z</time></trkpt><trkpt lat="39.002171356907496" lon="-9.279397761817625"><ele>52.0</ele><time>2026-04-03T11:14:48Z</time></trkpt><trkpt lat="39.00206674749168" lon="-9.279170259975848"><ele>52.0</ele><time>2026-04-03T11:14:49Z</time></trkpt><trkpt lat="39.001957898925475" lon="-9.278980927657223"><ele>52.0</ele><time>2026-04-03T11:14:50Z</time></trkpt><trkpt lat="39.00188403401155" lon="-9.278785685349222"><ele>52.0</ele><time>2026-04-03T11:14:51Z</time></trkpt><trkpt lat="39.00179407349517" lon="-9.278603475619576"><ele>52.25</ele><time>2026-04-03T11:14:52Z</time></trkpt><trkpt lat="39.001717189870085" lon="-9.278433816341991"><ele>52.5</ele><time>2026-04-03T11:14:53Z</time></trkpt><trkpt lat="39.00164831787653" lon="-9.278267126204382"><ele>52.75</ele><time>2026-04-03T11:14:54Z</time></trkpt><trkpt lat="39.00158035144248" lon="-9.27810812893599"><ele>53.0</ele><time>2026-04-03T11:14:55Z</time></trkpt><trkpt lat="39.00151997165409" lon="-9.277959339229245"><ele>53.5</ele><time>2026-04-03T11:14:56Z</time></trkpt><trkpt lat="39.00148372138773" lon="-9.277819698791102"><ele>54.0</ele><time>2026-04-03T11:14:57Z</time></trkpt><trkpt lat="39.00148185034367" lon="-9.27766109030281"><ele>54.5</ele><time>2026-04-03T11:14:58Z</time></trkpt><trkpt lat="39.00150686013163" lon="-9.277479309376073"><ele>55.0</ele><time>2026-04-03T11:14:59Z</time></trkpt><trkpt lat="39.00153972600411" lon="-9.277310650725507"><ele>55.75</ele><time>2026-04-03T11:15:00Z</time></trkpt><trkpt lat="39.00158054978424" lon="-9.277139170631933"><ele>56.5</ele><time>2026-04-03T11:15:01Z</time></trkpt><trkpt lat="39.0016095090435" lon="-9.276973901064558"><ele>57.25</ele><time>2026-04-03T11:15:02Z</time></trkpt><trkpt lat="39.00163861979454" lon="-9.276810937278684"><ele>58.0</ele><time>2026-04-03T11:15:03Z</time></trkpt><trkpt lat="39.00164417671878" lon="-9.276655778542619"><ele>57.99999999999999</ele><time>2026-04-03T11:15:04Z</time></trkpt><trkpt lat="39.00166232077486" lon="-9.276522413600341"><ele>58.0</ele><time>2026-04-03T11:15:05Z</time></trkpt><trkpt lat="39.00168733568173" lon="-9.276415807495878"><ele>58.0</ele><time>2026-04-03T11:15:06Z</time></trkpt><trkpt lat="39.0017164010513" lon="-9.276338176280033"><ele>58.0</ele><time>2026-04-03T11:15:07Z</time></trkpt><trkpt lat="39.00172621739675" lon="-9.276220436606893"><ele>57.99999999999999</ele><time>2026-04-03T11:15:09Z</time></trkpt><trkpt lat="39.0017184020443" lon="-9.276121670879236"><ele>58.0</ele><time>2026-04-03T11:15:11Z</time></trkpt><trkpt lat="39.00173082224352" lon="-9.276005129902"><ele>58.666666666666664</ele><time>2026-04-03T11:15:13Z</time></trkpt><trkpt lat="39.001925257363794" lon="-9.275977732561543"><ele>59.33333333333333</ele><time>2026-04-03T11:15:14Z</time></trkpt><trkpt lat="39.00204986400172" lon="-9.27598701871177"><ele>60.0</ele><time>2026-04-03T11:15:15Z</time></trkpt><trkpt lat="39.00218093799774" lon="-9.275968890441645"><ele>60.0</ele><time>2026-04-03T11:15:16Z</time></trkpt><trkpt lat="39.002325189264944" lon="-9.275967049203656"><ele>60.0</ele><time>2026-04-03T11:15:17Z</time></trkpt><trkpt lat="39.00248010195767" lon="-9.275956270226537"><ele>60.0</ele><time>2026-04-03T11:15:18Z</time></trkpt><trkpt lat="39.00263668451836" lon="-9.275946679419523"><ele>60.33333333333333</ele><time>2026-04-03T11:15:19Z</time></trkpt><trkpt lat="39.00280256725491" lon="-9.275931958937619"><ele>60.666666666666664</ele><time>2026-04-03T11:15:20Z</time></trkpt><trkpt lat="39.002969304090186" lon="-9.275922726312615"><ele>61.0</ele><time>2026-04-03T11:15:21Z</time></trkpt><trkpt lat="39.0031385148621" lon="-9.275948670595735"><ele>61.0</ele><time>2026-04-03T11:15:22Z</time></trkpt><trkpt lat="39.00328347810544" lon="-9.276003769262694"><ele>61.0</ele><time>2026-04-03T11:15:23Z</time></trkpt><trkpt lat="39.00341715259426" lon="-9.276072544639252"><ele>61.0</ele><time>2026-04-03T11:15:24Z</time></trkpt><trkpt lat="39.003536381253696" lon="-9.276133343661607"><ele>61.0</ele><time>2026-04-03T11:15:25Z</time></trkpt><trkpt lat="39.00365135881109" lon="-9.276177619042256"><ele>60.99999999999999</ele><time>2026-04-03T11:15:26Z</time></trkpt><trkpt lat="39.00374933758154" lon="-9.276221008953163"><ele>61.0</ele><time>2026-04-03T11:15:27Z</time></trkpt><trkpt lat="39.003843098498145" lon="-9.276255222080474"><ele>61.0</ele><time>2026-04-03T11:15:28Z</time></trkpt><trkpt lat="39.003912935567314" lon="-9.276285694047264"><ele>61.0</ele><time>2026-04-03T11:15:29Z</time></trkpt><trkpt lat="39.00397850666407" lon="-9.276319428471654"><ele>60.99999999999999</ele><time>2026-04-03T11:15:30Z</time></trkpt><trkpt lat="39.00401184623433" lon="-9.276424213736343"><ele>61.0</ele><time>2026-04-03T11:15:32Z</time></trkpt><trkpt lat="39.00398847089265" lon="-9.276514492198126"><ele>60.99999999999999</ele><time>2026-04-03T11:15:34Z</time></trkpt><trkpt lat="39.00390334790028" lon="-9.276508266512865"><ele>61.0</ele><time>2026-04-03T11:15:36Z</time></trkpt><trkpt lat="39.00386664512911" lon="-9.27644009489869"><ele>61.0</ele><time>2026-04-03T11:18:55Z</time></trkpt><trkpt lat="39.003801242979065" lon="-9.276336668601038"><ele>61.0</ele><time>2026-04-03T11:19:06Z</time></trkpt><trkpt lat="39.00375104807712" lon="-9.27625377806175"><ele>60.99999999999999</ele><time>2026-04-03T11:19:07Z</time></trkpt><trkpt lat="39.00364914672315" lon="-9.2762135498742"><ele>61.0</ele><time>2026-04-03T11:19:08Z</time></trkpt><trkpt lat="39.00353368492351" lon="-9.276171865138771"><ele>61.0</ele><time>2026-04-03T11:19:09Z</time></trkpt><trkpt lat="39.003393044159424" lon="-9.276119521023743"><ele>61.0</ele><time>2026-04-03T11:19:10Z</time></trkpt><trkpt lat="39.00325359351134" lon="-9.276067183175996"><ele>61.0</ele><time>2026-04-03T11:19:11Z</time></trkpt><trkpt lat="39.00309939548647" lon="-9.276007618713667"><ele>61.0</ele><time>2026-04-03T11:19:12Z</time></trkpt><trkpt lat="39.00293497906772" lon="-9.275988903913433"><ele>61.0</ele><time>2026-04-03T11:19:13Z</time></trkpt><trkpt lat="39.002762454039555" lon="-9.275985737395844"><ele>61.0</ele><time>2026-04-03T11:19:14Z</time></trkpt><trkpt lat="39.00257985392773" lon="-9.276004516986584"><ele>60.666666666666664</ele><time>2026-04-03T11:19:15Z</time></trkpt><trkpt lat="39.00238472256281" lon="-9.276022925612217"><ele>60.33333333333333</ele><time>2026-04-03T11:19:16Z</time></trkpt><trkpt lat="39.002188552545796" lon="-9.276041432218591"><ele>60.0</ele><time>2026-04-03T11:19:17Z</time></trkpt><trkpt lat="39.00201705412774" lon="-9.276040509980506"><ele>60.0</ele><time>2026-04-03T11:19:18Z</time></trkpt><trkpt lat="39.00185863392435" lon="-9.27605740238022"><ele>60.0</ele><time>2026-04-03T11:19:19Z</time></trkpt><trkpt lat="39.00169571686758" lon="-9.276073026625763"><ele>60.0</ele><time>2026-04-03T11:19:20Z</time></trkpt><trkpt lat="39.001518123682125" lon="-9.276086911004011"><ele>61.0</ele><time>2026-04-03T11:19:21Z</time></trkpt><trkpt lat="39.00136263496118" lon="-9.276124578373869"><ele>62.0</ele><time>2026-04-03T11:19:22Z</time></trkpt><trkpt lat="39.00118695079299" lon="-9.276129491545325"><ele>63.0</ele><time>2026-04-03T11:19:23Z</time></trkpt><trkpt lat="39.001002957988185" lon="-9.276148566047828"><ele>65.0</ele><time>2026-04-03T11:19:24Z</time></trkpt><trkpt lat="39.000813862098454" lon="-9.276169162778823"><ele>67.0</ele><time>2026-04-03T11:19:25Z</time></trkpt><trkpt lat="39.000621829066766" lon="-9.276188715163904"><ele>69.0</ele><time>2026-04-03T11:19:26Z</time></trkpt><trkpt lat="39.0004321970744" lon="-9.276192027730529"><ele>69.0</ele><time>2026-04-03T11:19:27Z</time></trkpt><trkpt lat="39.00024594288539" lon="-9.276175656600056"><ele>69.0</ele><time>2026-04-03T11:19:28Z</time></trkpt><trkpt lat="39.0000502478559" lon="-9.276150600956136"><ele>69.0</ele><time>2026-04-03T11:19:29Z</time></trkpt><trkpt lat="38.99985460015147" lon="-9.276124621122355"><ele>69.0</ele><time>2026-04-03T11:19:30Z</time></trkpt><trkpt lat="38.999656446427615" lon="-9.276102038766155"><ele>69.0</ele><time>2026-04-03T11:19:31Z</time></trkpt><trkpt lat="38.99948359693743" lon="-9.276080079200183"><ele>69.0</ele><time>2026-04-03T11:19:32Z</time></trkpt><trkpt lat="38.999337930676724" lon="-9.276064822126157"><ele>69.0</ele><time>2026-04-03T11:19:33Z</time></trkpt><trkpt lat="38.999226416564696" lon="-9.276053740531015"><ele>69.0</ele><time>2026-04-03T11:19:34Z</time></trkpt><trkpt lat="38.99913973559777" lon="-9.27603821883982"><ele>69.0</ele><time>2026-04-03T11:19:35Z</time></trkpt><trkpt lat="38.99906887807681" lon="-9.27603896779815"><ele>69.0</ele><time>2026-04-03T11:19:37Z</time></trkpt><trkpt lat="38.9991007164548" lon="-9.27591504629892"><ele>69.0</ele><time>2026-04-03T11:19:38Z</time></trkpt><trkpt lat="38.99913372763068" lon="-9.27582125636206"><ele>68.8</ele><time>2026-04-03T11:19:39Z</time></trkpt><trkpt lat="38.99915617341584" lon="-9.275691781693663"><ele>68.60000000000001</ele><time>2026-04-03T11:19:41Z</time></trkpt><trkpt lat="38.99916143599688" lon="-9.275586548968317"><ele>68.4</ele><time>2026-04-03T11:19:43Z</time></trkpt><trkpt lat="38.999248564293005" lon="-9.275560316040584"><ele>68.2</ele><time>2026-04-03T11:19:44Z</time></trkpt><trkpt lat="38.99935236073506" lon="-9.275510622683319"><ele>68.0</ele><time>2026-04-03T11:19:46Z</time></trkpt><trkpt lat="38.99941276156383" lon="-9.27547601743632"><ele>69.57142857142857</ele><time>2026-04-03T11:19:47Z</time></trkpt><trkpt lat="38.999474086398166" lon="-9.275424202469244"><ele>71.14285714285714</ele><time>2026-04-03T11:19:48Z</time></trkpt><trkpt lat="38.999534016108626" lon="-9.275376045009445"><ele>72.71428571428572</ele><time>2026-04-03T11:19:49Z</time></trkpt><trkpt lat="38.99959069385497" lon="-9.275315426930463"><ele>74.28571428571428</ele><time>2026-04-03T11:19:50Z</time></trkpt><trkpt lat="38.999631427515084" lon="-9.275249315221151"><ele>75.85714285714286</ele><time>2026-04-03T11:19:51Z</time></trkpt><trkpt lat="38.999668777372904" lon="-9.275174140518976"><ele>77.42857142857143</ele><time>2026-04-03T11:19:52Z</time></trkpt><trkpt lat="38.999711839341856" lon="-9.275107941342705"><ele>79.0</ele><time>2026-04-03T11:19:53Z</time></trkpt><trkpt lat="38.99975532130419" lon="-9.2750359635724"><ele>79.0</ele><time>2026-04-03T11:19:54Z</time></trkpt><trkpt lat="38.99979085280722" lon="-9.27494562860958"><ele>79.0</ele><time>2026-04-03T11:19:55Z</time></trkpt><trkpt lat="38.999842325136605" lon="-9.274877894170395"><ele>79.0</ele><time>2026-04-03T11:19:56Z</time></trkpt><trkpt lat="38.99988722411011" lon="-9.27477753436114"><ele>79.0</ele><time>2026-04-03T11:19:57Z</time></trkpt><trkpt lat="38.99993006988324" lon="-9.274663714359642"><ele>79.0</ele><time>2026-04-03T11:19:58Z</time></trkpt><trkpt lat="38.99994571893857" lon="-9.274554265529266"><ele>79.0</ele><time>2026-04-03T11:19:59Z</time></trkpt><trkpt lat="38.99989852439733" lon="-9.274482722329202"><ele>80.2</ele><time>2026-04-03T11:20:00Z</time></trkpt><trkpt lat="38.99985571820963" lon="-9.274401379591161"><ele>81.4</ele><time>2026-04-03T11:20:01Z</time></trkpt><trkpt lat="38.99981452161708" lon="-9.274293179457683"><ele>82.6</ele><time>2026-04-03T11:20:02Z</time></trkpt><trkpt lat="38.99976967589612" lon="-9.2741980177766"><ele>83.8</ele><time>2026-04-03T11:20:03Z</time></trkpt><trkpt lat="38.99972979091621" lon="-9.274131674129285"><ele>85.0</ele><time>2026-04-03T11:20:04Z</time></trkpt><trkpt lat="38.999635680462184" lon="-9.274010949758372"><ele>85.0</ele><time>2026-04-03T11:20:06Z</time></trkpt><trkpt lat="38.99958036892639" lon="-9.273945473589214"><ele>85.0</ele><time>2026-04-03T11:20:07Z</time></trkpt><trkpt lat="38.99958641515877" lon="-9.273854983952496"><ele>85.0</ele><time>2026-04-03T11:20:08Z</time></trkpt><trkpt lat="38.999665256764395" lon="-9.273715124416047"><ele>85.0</ele><time>2026-04-03T11:20:10Z</time></trkpt><trkpt lat="38.99972445727358" lon="-9.273628854945589"><ele>85.0</ele><time>2026-04-03T11:20:11Z</time></trkpt><trkpt lat="38.99976752376063" lon="-9.273534086953445"><ele>85.5</ele><time>2026-04-03T11:20:12Z</time></trkpt><trkpt lat="38.999752482831106" lon="-9.273406044147846"><ele>86.0</ele><time>2026-04-03T11:20:13Z</time></trkpt><trkpt lat="38.99972109595302" lon="-9.273275029286495"><ele>86.5</ele><time>2026-04-03T11:20:14Z</time></trkpt><trkpt lat="38.999642798362295" lon="-9.273160369118667"><ele>87.0</ele><time>2026-04-03T11:20:15Z</time></trkpt><trkpt lat="38.99953259124371" lon="-9.273075558063162"><ele>87.75</ele><time>2026-04-03T11:20:16Z</time></trkpt><trkpt lat="38.999449928411046" lon="-9.27295767464395"><ele>88.5</ele><time>2026-04-03T11:20:17Z</time></trkpt><trkpt lat="38.99938112012825" lon="-9.272852533366342"><ele>89.25</ele><time>2026-04-03T11:20:18Z</time></trkpt><trkpt lat="38.99935712836181" lon="-9.27271551721282"><ele>90.0</ele><time>2026-04-03T11:20:19Z</time></trkpt><trkpt lat="38.99936441465431" lon="-9.272551385609832"><ele>90.0</ele><time>2026-04-03T11:20:20Z</time></trkpt><trkpt lat="38.99939169778799" lon="-9.27237663983932"><ele>90.0</ele><time>2026-04-03T11:20:21Z</time></trkpt><trkpt lat="38.99942071740118" lon="-9.272202154646486"><ele>90.0</ele><time>2026-04-03T11:20:22Z</time></trkpt><trkpt lat="38.99945537645226" lon="-9.27201887253926"><ele>90.0</ele><time>2026-04-03T11:20:23Z</time></trkpt><trkpt lat="38.999500408534544" lon="-9.271823773083389"><ele>90.75</ele><time>2026-04-03T11:20:24Z</time></trkpt><trkpt lat="38.999544805952915" lon="-9.27162649936562"><ele>91.5</ele><time>2026-04-03T11:20:25Z</time></trkpt><trkpt lat="38.999581470203125" lon="-9.271450924637941"><ele>92.25</ele><time>2026-04-03T11:20:26Z</time></trkpt><trkpt lat="38.99961045843214" lon="-9.271299032738675"><ele>93.0</ele><time>2026-04-03T11:20:27Z</time></trkpt><trkpt lat="38.99962273474432" lon="-9.27117732929675"><ele>94.2</ele><time>2026-04-03T11:20:28Z</time></trkpt><trkpt lat="38.999576742592794" lon="-9.27107836683426"><ele>95.4</ele><time>2026-04-03T11:20:29Z</time></trkpt><trkpt lat="38.99950258573172" lon="-9.271014624669796"><ele>96.60000000000001</ele><time>2026-04-03T11:20:30Z</time></trkpt><trkpt lat="38.9994036831734" lon="-9.27093806367023"><ele>97.80000000000001</ele><time>2026-04-03T11:20:31Z</time></trkpt><trkpt lat="38.999293977536546" lon="-9.270830862267628"><ele>99.0</ele><time>2026-04-03T11:20:32Z</time></trkpt><trkpt lat="38.99918432246163" lon="-9.270723710947422"><ele>103.0</ele><time>2026-04-03T11:20:33Z</time></trkpt><trkpt lat="38.99906424168272" lon="-9.270606371807984"><ele>107.0</ele><time>2026-04-03T11:20:34Z</time></trkpt><trkpt lat="38.99894165900296" lon="-9.270481790538469"><ele>111.0</ele><time>2026-04-03T11:20:35Z</time></trkpt><trkpt lat="38.9988277837567" lon="-9.27032218463456"><ele>111.0</ele><time>2026-04-03T11:20:36Z</time></trkpt><trkpt lat="38.998697483742845" lon="-9.270205827511871"><ele>111.0</ele><time>2026-04-03T11:20:37Z</time></trkpt><trkpt lat="38.998584900680896" lon="-9.270112260399962"><ele>111.0</ele><time>2026-04-03T11:20:38Z</time></trkpt><trkpt lat="38.99846378961894" lon="-9.270064390738069"><ele>111.0</ele><time>2026-04-03T11:20:39Z</time></trkpt><trkpt lat="38.99833357214796" lon="-9.270077352863137"><ele>110.6</ele><time>2026-04-03T11:20:40Z</time></trkpt><trkpt lat="38.99822616456363" lon="-9.270040664779355"><ele>110.19999999999999</ele><time>2026-04-03T11:20:41Z</time></trkpt><trkpt lat="38.9981593545799" lon="-9.269980482463994"><ele>109.80000000000001</ele><time>2026-04-03T11:20:42Z</time></trkpt><trkpt lat="38.998103187892326" lon="-9.269904200160546"><ele>109.4</ele><time>2026-04-03T11:20:43Z</time></trkpt><trkpt lat="38.99806849859951" lon="-9.269767554714832"><ele>109.0</ele><time>2026-04-03T11:20:44Z</time></trkpt><trkpt lat="38.9980426502955" lon="-9.269624522096716"><ele>112.0</ele><time>2026-04-03T11:20:45Z</time></trkpt><trkpt lat="38.997994699816594" lon="-9.269480611039372"><ele>115.0</ele><time>2026-04-03T11:20:46Z</time></trkpt><trkpt lat="38.997944889632606" lon="-9.269329953661503"><ele>118.0</ele><time>2026-04-03T11:20:47Z</time></trkpt><trkpt lat="38.99789002910483" lon="-9.269176107924931"><ele>121.0</ele><time>2026-04-03T11:20:48Z</time></trkpt><trkpt lat="38.99783856370552" lon="-9.269010057819722"><ele>121.25</ele><time>2026-04-03T11:20:49Z</time></trkpt><trkpt lat="38.99780393611714" lon="-9.268843409319306"><ele>121.5</ele><time>2026-04-03T11:20:50Z</time></trkpt><trkpt lat="38.99778164139842" lon="-9.268693241859854"><ele>121.75</ele><time>2026-04-03T11:20:51Z</time></trkpt><trkpt lat="38.997763743167205" lon="-9.268543317080665"><ele>122.0</ele><time>2026-04-03T11:20:52Z</time></trkpt><trkpt lat="38.99773106923128" lon="-9.268423443404668"><ele>121.99999999999999</ele><time>2026-04-03T11:20:53Z</time></trkpt><trkpt lat="38.997674928051616" lon="-9.2683406632666"><ele>122.0</ele><time>2026-04-03T11:20:54Z</time></trkpt><trkpt lat="38.99761064651044" lon="-9.268289161568163"><ele>122.0</ele><time>2026-04-03T11:20:55Z</time></trkpt><trkpt lat="38.99753776508594" lon="-9.268237511044376"><ele>122.0</ele><time>2026-04-03T11:20:56Z</time></trkpt><trkpt lat="38.997453789840385" lon="-9.268215258969985"><ele>121.99999999999999</ele><time>2026-04-03T11:20:57Z</time></trkpt><trkpt lat="38.99735213757371" lon="-9.26817401815562"><ele>122.0</ele><time>2026-04-03T11:20:58Z</time></trkpt><trkpt lat="38.997241846006716" lon="-9.26813354939573"><ele>120.6</ele><time>2026-04-03T11:20:59Z</time></trkpt><trkpt lat="38.99712897724214" lon="-9.268098306593227"><ele>119.19999999999999</ele><time>2026-04-03T11:21:00Z</time></trkpt><trkpt lat="38.997028739527586" lon="-9.26804185309672"><ele>117.8</ele><time>2026-04-03T11:21:01Z</time></trkpt><trkpt lat="38.996951281392754" lon="-9.268008513389134"><ele>116.4</ele><time>2026-04-03T11:21:02Z</time></trkpt><trkpt lat="38.99689128852312" lon="-9.267948097209269"><ele>115.0</ele><time>2026-04-03T11:21:03Z</time></trkpt><trkpt lat="38.99685836492395" lon="-9.26785045891653"><ele>115.0</ele><time>2026-04-03T11:21:04Z</time></trkpt><trkpt lat="38.9968786719358" lon="-9.267722988402143"><ele>115.0</ele><time>2026-04-03T11:21:05Z</time></trkpt><trkpt lat="38.99692854281905" lon="-9.267605583974959"><ele>115.0</ele><time>2026-04-03T11:21:06Z</time></trkpt><trkpt lat="38.99697065728437" lon="-9.267470667100875"><ele>115.0</ele><time>2026-04-03T11:21:07Z</time></trkpt><trkpt lat="38.997023568887066" lon="-9.267369983315598"><ele>115.0</ele><time>2026-04-03T11:21:08Z</time></trkpt><trkpt lat="38.9970714364806" lon="-9.267269916978204"><ele>114.4</ele><time>2026-04-03T11:21:09Z</time></trkpt><trkpt lat="38.99711502511634" lon="-9.267180869049952"><ele>113.8</ele><time>2026-04-03T11:21:10Z</time></trkpt><trkpt lat="38.99715573551442" lon="-9.267095690084652"><ele>113.19999999999999</ele><time>2026-04-03T11:21:11Z</time></trkpt><trkpt lat="38.99719881563238" lon="-9.266999678598621"><ele>112.6</ele><time>2026-04-03T11:21:12Z</time></trkpt><trkpt lat="38.99725917727508" lon="-9.266880606297658"><ele>112.0</ele><time>2026-04-03T11:21:13Z</time></trkpt><trkpt lat="38.997331977766656" lon="-9.266756258770968"><ele>112.0</ele><time>2026-04-03T11:21:14Z</time></trkpt><trkpt lat="38.99740929664601" lon="-9.266629490282355"><ele>112.0</ele><time>2026-04-03T11:21:15Z</time></trkpt><trkpt lat="38.99749896445787" lon="-9.266492176480389"><ele>112.0</ele><time>2026-04-03T11:21:16Z</time></trkpt><trkpt lat="38.99759414376388" lon="-9.266334754347408"><ele>112.0</ele><time>2026-04-03T11:21:17Z</time></trkpt><trkpt lat="38.99769008816198" lon="-9.266176209806703"><ele>111.0</ele><time>2026-04-03T11:21:18Z</time></trkpt><trkpt lat="38.99779508884" lon="-9.266018298985946"><ele>110.0</ele><time>2026-04-03T11:21:19Z</time></trkpt><trkpt lat="38.99789697153265" lon="-9.26586336498526"><ele>109.0</ele><time>2026-04-03T11:21:20Z</time></trkpt><trkpt lat="38.997993700053556" lon="-9.265734083645903"><ele>109.0</ele><time>2026-04-03T11:21:21Z</time></trkpt><trkpt lat="38.99808023155706" lon="-9.26561900735751"><ele>109.0</ele><time>2026-04-03T11:21:22Z</time></trkpt><trkpt lat="38.998168799104825" lon="-9.265506166281087"><ele>109.0</ele><time>2026-04-03T11:21:23Z</time></trkpt><trkpt lat="38.99824097208234" lon="-9.265399783130073"><ele>109.0</ele><time>2026-04-03T11:21:24Z</time></trkpt><trkpt lat="38.998291650821066" lon="-9.2653141580055"><ele>109.0</ele><time>2026-04-03T11:21:25Z</time></trkpt><trkpt lat="38.99828419773929" lon="-9.265201119093136"><ele>109.4</ele><time>2026-04-03T11:21:26Z</time></trkpt><trkpt lat="38.998273435956406" lon="-9.265085483928548"><ele>109.80000000000001</ele><time>2026-04-03T11:21:27Z</time></trkpt><trkpt lat="38.99822424278954" lon="-9.264972835831081"><ele>110.19999999999999</ele><time>2026-04-03T11:21:28Z</time></trkpt><trkpt lat="38.99819640571302" lon="-9.26482528830234"><ele>110.6</ele><time>2026-04-03T11:21:29Z</time></trkpt><trkpt lat="38.99819401494955" lon="-9.264675323598835"><ele>111.0</ele><time>2026-04-03T11:21:30Z</time></trkpt><trkpt lat="38.99821840160243" lon="-9.264477565409225"><ele>111.0</ele><time>2026-04-03T11:21:31Z</time></trkpt><trkpt lat="38.99825092287734" lon="-9.264263148557292"><ele>111.0</ele><time>2026-04-03T11:21:32Z</time></trkpt><trkpt lat="38.998260937350814" lon="-9.264039490969912"><ele>111.0</ele><time>2026-04-03T11:21:33Z</time></trkpt><trkpt lat="38.998231926479164" lon="-9.263829345303403"><ele>111.5</ele><time>2026-04-03T11:21:34Z</time></trkpt><trkpt lat="38.998199371653506" lon="-9.263625384829297"><ele>112.0</ele><time>2026-04-03T11:21:35Z</time></trkpt><trkpt lat="38.99816620640998" lon="-9.263450480442161"><ele>112.5</ele><time>2026-04-03T11:21:36Z</time></trkpt><trkpt lat="38.9981510536571" lon="-9.263289386876563"><ele>113.0</ele><time>2026-04-03T11:21:37Z</time></trkpt><trkpt lat="38.998122648745984" lon="-9.26315530196463"><ele>113.0</ele><time>2026-04-03T11:21:38Z</time></trkpt><trkpt lat="38.998099505174785" lon="-9.263011141820208"><ele>113.00000000000001</ele><time>2026-04-03T11:21:39Z</time></trkpt><trkpt lat="38.99808851766592" lon="-9.262888178256562"><ele>113.00000000000001</ele><time>2026-04-03T11:21:40Z</time></trkpt><trkpt lat="38.9981006601578" lon="-9.262774350979115"><ele>113.0</ele><time>2026-04-03T11:21:41Z</time></trkpt><trkpt lat="38.99814454285643" lon="-9.262657460661035"><ele>113.0</ele><time>2026-04-03T11:21:42Z</time></trkpt><trkpt lat="38.99819791735709" lon="-9.262558334554985"><ele>113.0</ele><time>2026-04-03T11:21:43Z</time></trkpt><trkpt lat="38.99825838443355" lon="-9.262456516291545"><ele>113.00000000000001</ele><time>2026-04-03T11:21:44Z</time></trkpt><trkpt lat="38.99832201495215" lon="-9.262328669136528"><ele>113.00000000000001</ele><time>2026-04-03T11:21:45Z</time></trkpt><trkpt lat="38.99837975422794" lon="-9.262205989704015"><ele>113.0</ele><time>2026-04-03T11:21:46Z</time></trkpt><trkpt lat="38.99843956770452" lon="-9.262075332351445"><ele>113.0</ele><time>2026-04-03T11:21:47Z</time></trkpt><trkpt lat="38.998497969977635" lon="-9.26193797779719"><ele>114.75</ele><time>2026-04-03T11:21:48Z</time></trkpt><trkpt lat="38.998553212303385" lon="-9.261803140042613"><ele>116.5</ele><time>2026-04-03T11:21:49Z</time></trkpt><trkpt lat="38.99863300419001" lon="-9.26168698175702"><ele>118.25</ele><time>2026-04-03T11:21:50Z</time></trkpt><trkpt lat="38.998740363368924" lon="-9.261610002772313"><ele>120.0</ele><time>2026-04-03T11:21:51Z</time></trkpt><trkpt lat="38.99885895627232" lon="-9.261555611749491"><ele>120.0</ele><time>2026-04-03T11:21:52Z</time></trkpt><trkpt lat="38.9989797864273" lon="-9.261543534269057"><ele>120.0</ele><time>2026-04-03T11:21:53Z</time></trkpt><trkpt lat="38.999108880630935" lon="-9.261535270171185"><ele>120.0</ele><time>2026-04-03T11:21:54Z</time></trkpt><trkpt lat="38.9992386113096" lon="-9.261523496512721"><ele>120.0</ele><time>2026-04-03T11:21:55Z</time></trkpt><trkpt lat="38.99936557016049" lon="-9.261500055513771"><ele>119.5</ele><time>2026-04-03T11:21:56Z</time></trkpt><trkpt lat="38.999494584267474" lon="-9.261473521445257"><ele>119.0</ele><time>2026-04-03T11:21:57Z</time></trkpt><trkpt lat="38.99962514958746" lon="-9.261438040228981"><ele>118.5</ele><time>2026-04-03T11:21:58Z</time></trkpt><trkpt lat="38.99974870097899" lon="-9.2614040430127"><ele>118.0</ele><time>2026-04-03T11:21:59Z</time></trkpt><trkpt lat="38.9998610167056" lon="-9.26135905593911"><ele>119.80000000000001</ele><time>2026-04-03T11:22:00Z</time></trkpt><trkpt lat="38.999946991002325" lon="-9.261308104341103"><ele>121.60000000000001</ele><time>2026-04-03T11:22:01Z</time></trkpt><trkpt lat="39.0000083767811" lon="-9.261232621290462"><ele>123.39999999999999</ele><time>2026-04-03T11:22:02Z</time></trkpt><trkpt lat="39.00004537145876" lon="-9.261139971403264"><ele>125.19999999999999</ele><time>2026-04-03T11:22:03Z</time></trkpt><trkpt lat="39.0000387166268" lon="-9.261017568527091"><ele>127.0</ele><time>2026-04-03T11:22:04Z</time></trkpt><trkpt lat="39.00006984560354" lon="-9.260878950919283"><ele>127.0</ele><time>2026-04-03T11:22:05Z</time></trkpt><trkpt lat="39.00008347872944" lon="-9.260721574381312"><ele>126.99999999999999</ele><time>2026-04-03T11:22:06Z</time></trkpt><trkpt lat="39.00010114271276" lon="-9.260576743689478"><ele>126.99999999999999</ele><time>2026-04-03T11:22:07Z</time></trkpt><trkpt lat="39.00011440028242" lon="-9.260452737407045"><ele>127.0</ele><time>2026-04-03T11:22:08Z</time></trkpt><trkpt lat="39.0001393304811" lon="-9.260313079971205"><ele>127.0</ele><time>2026-04-03T11:22:09Z</time></trkpt><trkpt lat="39.00015894688809" lon="-9.260159720417235"><ele>128.0</ele><time>2026-04-03T11:22:10Z</time></trkpt><trkpt lat="39.00017797112211" lon="-9.25999147936421"><ele>129.0</ele><time>2026-04-03T11:22:11Z</time></trkpt><trkpt lat="39.000204191208944" lon="-9.259816018216005"><ele>130.0</ele><time>2026-04-03T11:22:12Z</time></trkpt><trkpt lat="39.000217374007306" lon="-9.259631029351489"><ele>131.0</ele><time>2026-04-03T11:22:13Z</time></trkpt><trkpt lat="39.00021299496139" lon="-9.259468152901782"><ele>131.0</ele><time>2026-04-03T11:22:14Z</time></trkpt><trkpt lat="39.000210483291426" lon="-9.259330397402975"><ele>131.0</ele><time>2026-04-03T11:22:15Z</time></trkpt><trkpt lat="39.000216346249374" lon="-9.259233969583374"><ele>131.0</ele><time>2026-04-03T11:22:16Z</time></trkpt><trkpt lat="39.000214833619005" lon="-9.259140937143568"><ele>131.0</ele><time>2026-04-03T11:22:17Z</time></trkpt><trkpt lat="39.00023303299523" lon="-9.259047145850086"><ele>131.0</ele><time>2026-04-03T11:22:18Z</time></trkpt><trkpt lat="39.00026937907459" lon="-9.258964147171385"><ele>131.0</ele><time>2026-04-03T11:22:19Z</time></trkpt><trkpt lat="39.00031743366511" lon="-9.258883130066955"><ele>130.33333333333331</ele><time>2026-04-03T11:22:20Z</time></trkpt><trkpt lat="39.00038025503409" lon="-9.258800686960695"><ele>129.66666666666666</ele><time>2026-04-03T11:22:21Z</time></trkpt><trkpt lat="39.00045156665419" lon="-9.258727051604719"><ele>129.0</ele><time>2026-04-03T11:22:22Z</time></trkpt><trkpt lat="39.00051978157244" lon="-9.258647413388678"><ele>128.33333333333334</ele><time>2026-04-03T11:22:23Z</time></trkpt><trkpt lat="39.00058484347385" lon="-9.258584511813575"><ele>127.66666666666667</ele><time>2026-04-03T11:22:24Z</time></trkpt><trkpt lat="39.00063045420277" lon="-9.258480033202801"><ele>127.0</ele><time>2026-04-03T11:22:26Z</time></trkpt><trkpt lat="39.00077298818282" lon="-9.25851194574914"><ele>127.75</ele><time>2026-04-03T11:22:27Z</time></trkpt><trkpt lat="39.00088547528109" lon="-9.25847583055978"><ele>128.5</ele><time>2026-04-03T11:22:28Z</time></trkpt><trkpt lat="39.001016282849484" lon="-9.258443981476297"><ele>129.25</ele><time>2026-04-03T11:22:29Z</time></trkpt><trkpt lat="39.00115671689249" lon="-9.258422939030519"><ele>130.0</ele><time>2026-04-03T11:22:30Z</time></trkpt><trkpt lat="39.00131028155554" lon="-9.258406005482003"><ele>130.0</ele><time>2026-04-03T11:22:31Z</time></trkpt><trkpt lat="39.00147220510767" lon="-9.258389029426437"><ele>130.0</ele><time>2026-04-03T11:22:32Z</time></trkpt><trkpt lat="39.00163752513281" lon="-9.258380174916216"><ele>130.0</ele><time>2026-04-03T11:22:33Z</time></trkpt><trkpt lat="39.00181388887292" lon="-9.258375915701325"><ele>131.0</ele><time>2026-04-03T11:22:34Z</time></trkpt><trkpt lat="39.00199271058119" lon="-9.258361710913121"><ele>132.0</ele><time>2026-04-03T11:22:35Z</time></trkpt><trkpt lat="39.00217518950085" lon="-9.258347024654757"><ele>133.0</ele><time>2026-04-03T11:22:36Z</time></trkpt><trkpt lat="39.00234258956377" lon="-9.258325938998468"><ele>133.0</ele><time>2026-04-03T11:22:37Z</time></trkpt><trkpt lat="39.00249099040175" lon="-9.258313790197612"><ele>133.0</ele><time>2026-04-03T11:22:38Z</time></trkpt><trkpt lat="39.0026219751063" lon="-9.258301997192785"><ele>133.0</ele><time>2026-04-03T11:22:39Z</time></trkpt><trkpt lat="39.00275816453303" lon="-9.258277986878172"><ele>133.0</ele><time>2026-04-03T11:22:40Z</time></trkpt><trkpt lat="39.002885782207834" lon="-9.258261654851696"><ele>133.0</ele><time>2026-04-03T11:22:41Z</time></trkpt><trkpt lat="39.003015485208145" lon="-9.258246539588063"><ele>133.0</ele><time>2026-04-03T11:22:42Z</time></trkpt><trkpt lat="39.00314381343794" lon="-9.258234911487321"><ele>133.0</ele><time>2026-04-03T11:22:43Z</time></trkpt><trkpt lat="39.00326900464579" lon="-9.258209371441254"><ele>133.0</ele><time>2026-04-03T11:22:44Z</time></trkpt><trkpt lat="39.00338406515107" lon="-9.25818375178183"><ele>134.5</ele><time>2026-04-03T11:22:45Z</time></trkpt><trkpt lat="39.00349047200741" lon="-9.258161089101735"><ele>136.0</ele><time>2026-04-03T11:22:46Z</time></trkpt><trkpt lat="39.003606970163" lon="-9.258128082784296"><ele>137.5</ele><time>2026-04-03T11:22:47Z</time></trkpt><trkpt lat="39.003735324232245" lon="-9.258080915079521"><ele>139.0</ele><time>2026-04-03T11:22:48Z</time></trkpt><trkpt lat="39.00386581849135" lon="-9.25801637076576"><ele>139.0</ele><time>2026-04-03T11:22:49Z</time></trkpt><trkpt lat="39.003995365200815" lon="-9.257956024602802"><ele>139.0</ele><time>2026-04-03T11:22:50Z</time></trkpt><trkpt lat="39.00411607798492" lon="-9.257922069406789"><ele>139.0</ele><time>2026-04-03T11:22:51Z</time></trkpt><trkpt lat="39.0042387096028" lon="-9.257922813480208"><ele>139.0</ele><time>2026-04-03T11:22:52Z</time></trkpt><trkpt lat="39.004349443148186" lon="-9.257921488814734"><ele>139.66666666666669</ele><time>2026-04-03T11:22:53Z</time></trkpt><trkpt lat="39.00444530219402" lon="-9.257916941483987"><ele>140.33333333333334</ele><time>2026-04-03T11:22:54Z</time></trkpt><trkpt lat="39.00452647120724" lon="-9.257913188925826"><ele>141.0</ele><time>2026-04-03T11:22:55Z</time></trkpt><trkpt lat="39.00459781494123" lon="-9.25791024937847"><ele>141.66666666666666</ele><time>2026-04-03T11:22:56Z</time></trkpt><trkpt lat="39.004663582848856" lon="-9.257905147654723"><ele>142.33333333333331</ele><time>2026-04-03T11:22:57Z</time></trkpt><trkpt lat="39.004731842354346" lon="-9.257870234059324"><ele>143.0</ele><time>2026-04-03T11:22:59Z</time></trkpt><trkpt lat="39.00468012176503" lon="-9.257711049999834"><ele>143.0</ele><time>2026-04-03T11:23:03Z</time></trkpt><trkpt lat="39.00467025109998" lon="-9.2576171806894"><ele>143.0</ele><time>2026-04-03T11:23:04Z</time></trkpt><trkpt lat="39.00463956141638" lon="-9.257519967966699"><ele>143.0</ele><time>2026-04-03T11:23:05Z</time></trkpt><trkpt lat="39.00460457552276" lon="-9.257402348512601"><ele>143.0</ele><time>2026-04-03T11:23:06Z</time></trkpt><trkpt lat="39.00457490436693" lon="-9.257260920813865"><ele>143.0</ele><time>2026-04-03T11:23:07Z</time></trkpt><trkpt lat="39.00456276433766" lon="-9.257112845378447"><ele>142.75</ele><time>2026-04-03T11:23:08Z</time></trkpt><trkpt lat="39.00454917382426" lon="-9.25694909673846"><ele>142.5</ele><time>2026-04-03T11:23:09Z</time></trkpt><trkpt lat="39.004531833261474" lon="-9.256775492847774"><ele>142.25</ele><time>2026-04-03T11:23:10Z</time></trkpt><trkpt lat="39.00450416292105" lon="-9.256606302140552"><ele>142.0</ele><time>2026-04-03T11:23:11Z</time></trkpt><trkpt lat="39.00449745863586" lon="-9.256458479049021"><ele>140.0</ele><time>2026-04-03T11:23:12Z</time></trkpt><trkpt lat="39.0044833516613" lon="-9.25631826067528"><ele>138.0</ele><time>2026-04-03T11:23:13Z</time></trkpt><trkpt lat="39.00447041736713" lon="-9.256186204540953"><ele>136.0</ele><time>2026-04-03T11:23:14Z</time></trkpt><trkpt lat="39.004478815648405" lon="-9.256053876419431"><ele>134.0</ele><time>2026-04-03T11:23:15Z</time></trkpt><trkpt lat="39.004500501215965" lon="-9.255915295241698"><ele>132.0</ele><time>2026-04-03T11:23:16Z</time></trkpt><trkpt lat="39.00452782754839" lon="-9.255764615019373"><ele>129.79999999999998</ele><time>2026-04-03T11:23:17Z</time></trkpt><trkpt lat="39.004549476653615" lon="-9.255617646214967"><ele>127.6</ele><time>2026-04-03T11:23:18Z</time></trkpt><trkpt lat="39.00457696669127" lon="-9.255485190884288"><ele>125.39999999999999</ele><time>2026-04-03T11:23:19Z</time></trkpt><trkpt lat="39.004589826114284" lon="-9.25535120853775"><ele>123.19999999999999</ele><time>2026-04-03T11:23:20Z</time></trkpt><trkpt lat="39.00458255921477" lon="-9.255214875668829"><ele>121.0</ele><time>2026-04-03T11:23:21Z</time></trkpt><trkpt lat="39.00457114686778" lon="-9.255086919869619"><ele>121.0</ele><time>2026-04-03T11:23:22Z</time></trkpt><trkpt lat="39.004526474207324" lon="-9.254969945738702"><ele>121.0</ele><time>2026-04-03T11:23:23Z</time></trkpt><trkpt lat="39.004476874483004" lon="-9.254850246202933"><ele>121.0</ele><time>2026-04-03T11:23:24Z</time></trkpt><trkpt lat="39.00441618256902" lon="-9.254707961058937"><ele>121.0</ele><time>2026-04-03T11:23:25Z</time></trkpt><trkpt lat="39.0043563943884" lon="-9.254574564377506"><ele>119.0</ele><time>2026-04-03T11:23:26Z</time></trkpt><trkpt lat="39.00430898711163" lon="-9.254445039197275"><ele>117.0</ele><time>2026-04-03T11:23:27Z</time></trkpt><trkpt lat="39.00424572170947" lon="-9.254356747964044"><ele>115.0</ele><time>2026-04-03T11:23:28Z</time></trkpt><trkpt lat="39.00419136239138" lon="-9.254254852099978"><ele>113.0</ele><time>2026-04-03T11:23:29Z</time></trkpt><trkpt lat="39.0041492883973" lon="-9.254131761043016"><ele>111.0</ele><time>2026-04-03T11:23:30Z</time></trkpt><trkpt lat="39.004103230478314" lon="-9.254014847918345"><ele>107.8</ele><time>2026-04-03T11:23:31Z</time></trkpt><trkpt lat="39.0040396750075" lon="-9.253917391811902"><ele>104.6</ele><time>2026-04-03T11:23:32Z</time></trkpt><trkpt lat="39.00397659020094" lon="-9.25380624046741"><ele>101.4</ele><time>2026-04-03T11:23:33Z</time></trkpt><trkpt lat="39.0039159171467" lon="-9.25367892184954"><ele>98.2</ele><time>2026-04-03T11:23:34Z</time></trkpt><trkpt lat="39.003837099770685" lon="-9.253567847546915"><ele>95.0</ele><time>2026-04-03T11:23:35Z</time></trkpt><trkpt lat="39.003776824036365" lon="-9.253469104644763"><ele>95.0</ele><time>2026-04-03T11:23:36Z</time></trkpt><trkpt lat="39.003719402935495" lon="-9.253378932030028"><ele>95.0</ele><time>2026-04-03T11:23:37Z</time></trkpt><trkpt lat="39.00366665245109" lon="-9.253294959599438"><ele>95.0</ele><time>2026-04-03T11:23:38Z</time></trkpt><trkpt lat="39.00361157336198" lon="-9.253244490998036"><ele>95.0</ele><time>2026-04-03T11:23:39Z</time></trkpt><trkpt lat="39.003494043284064" lon="-9.25320413899692"><ele>95.0</ele><time>2026-04-03T11:23:41Z</time></trkpt><trkpt lat="39.00344691505589" lon="-9.253269226030561"><ele>95.0</ele><time>2026-04-03T11:23:42Z</time></trkpt><trkpt lat="39.003409069642494" lon="-9.253344055226808"><ele>95.0</ele><time>2026-04-03T11:23:43Z</time></trkpt><trkpt lat="39.003364590029314" lon="-9.253449742764596"><ele>95.0</ele><time>2026-04-03T11:23:44Z</time></trkpt><trkpt lat="39.00332072246962" lon="-9.253569814034085"><ele>95.0</ele><time>2026-04-03T11:23:45Z</time></trkpt><trkpt lat="39.00326859393757" lon="-9.253666767351262"><ele>95.0</ele><time>2026-04-03T11:23:46Z</time></trkpt><trkpt lat="39.00319245238039" lon="-9.253719225225852"><ele>95.0</ele><time>2026-04-03T11:23:47Z</time></trkpt><trkpt lat="39.003117925578636" lon="-9.253745867111531"><ele>94.8</ele><time>2026-04-03T11:23:48Z</time></trkpt><trkpt lat="39.003028917618785" lon="-9.253716926172597"><ele>94.6</ele><time>2026-04-03T11:23:49Z</time></trkpt><trkpt lat="39.00294641162767" lon="-9.25363130067719"><ele>94.4</ele><time>2026-04-03T11:23:50Z</time></trkpt><trkpt lat="39.00288177828042" lon="-9.25351884825087"><ele>94.2</ele><time>2026-04-03T11:23:51Z</time></trkpt><trkpt lat="39.00285949136097" lon="-9.253376519196518"><ele>94.0</ele><time>2026-04-03T11:23:52Z</time></trkpt><trkpt lat="39.00283959278292" lon="-9.253241815306808"><ele>91.80000000000001</ele><time>2026-04-03T11:23:53Z</time></trkpt><trkpt lat="39.002807613542934" lon="-9.253122307015229"><ele>89.60000000000001</ele><time>2026-04-03T11:23:54Z</time></trkpt><trkpt lat="39.002774767215165" lon="-9.253007284822571"><ele>87.4</ele><time>2026-04-03T11:23:55Z</time></trkpt><trkpt lat="39.00274071098137" lon="-9.25288498443035"><ele>85.2</ele><time>2026-04-03T11:23:56Z</time></trkpt><trkpt lat="39.00271114366127" lon="-9.252762242760532"><ele>83.0</ele><time>2026-04-03T11:23:57Z</time></trkpt><trkpt lat="39.002683571973925" lon="-9.25264174964805"><ele>83.0</ele><time>2026-04-03T11:23:58Z</time></trkpt><trkpt lat="39.00265303538438" lon="-9.252517323582772"><ele>83.0</ele><time>2026-04-03T11:23:59Z</time></trkpt><trkpt lat="39.002621070969575" lon="-9.252374951134067"><ele>83.0</ele><time>2026-04-03T11:24:00Z</time></trkpt><trkpt lat="39.002589137759756" lon="-9.252225155059612"><ele>83.0</ele><time>2026-04-03T11:24:01Z</time></trkpt><trkpt lat="39.0025532579904" lon="-9.252070307943645"><ele>83.0</ele><time>2026-04-03T11:24:02Z</time></trkpt><trkpt lat="39.00249858312296" lon="-9.251940115616746"><ele>83.0</ele><time>2026-04-03T11:24:03Z</time></trkpt><trkpt lat="39.002465512076434" lon="-9.251841756588972"><ele>83.0</ele><time>2026-04-03T11:24:04Z</time></trkpt><trkpt lat="39.00242738343105" lon="-9.251738096697151"><ele>83.0</ele><time>2026-04-03T11:24:06Z</time></trkpt><trkpt lat="39.00240558791512" lon="-9.251646233084434"><ele>83.0</ele><time>2026-04-03T11:24:24Z</time></trkpt><trkpt lat="39.00236537490626" lon="-9.251564897231395"><ele>83.0</ele><time>2026-04-03T11:24:25Z</time></trkpt><trkpt lat="39.00229742837276" lon="-9.251486130991811"><ele>85.2</ele><time>2026-04-03T11:24:26Z</time></trkpt><trkpt lat="39.002202034483986" lon="-9.25145310063731"><ele>87.4</ele><time>2026-04-03T11:24:27Z</time></trkpt><trkpt lat="39.00211996737933" lon="-9.251386247461708"><ele>89.60000000000001</ele><time>2026-04-03T11:24:28Z</time></trkpt><trkpt lat="39.002023003384956" lon="-9.251310573054205"><ele>91.80000000000001</ele><time>2026-04-03T11:24:29Z</time></trkpt><trkpt lat="39.00194729394013" lon="-9.25119959856775"><ele>94.0</ele><time>2026-04-03T11:24:30Z</time></trkpt><trkpt lat="39.001877654349485" lon="-9.25107830948719"><ele>94.0</ele><time>2026-04-03T11:24:31Z</time></trkpt><trkpt lat="39.00182439025385" lon="-9.250938750987467"><ele>94.0</ele><time>2026-04-03T11:24:32Z</time></trkpt><trkpt lat="39.00175883430345" lon="-9.250812969803416"><ele>94.0</ele><time>2026-04-03T11:24:33Z</time></trkpt><trkpt lat="39.00167621601109" lon="-9.250715313843546"><ele>94.0</ele><time>2026-04-03T11:24:34Z</time></trkpt><trkpt lat="39.00157728414203" lon="-9.250671716721227"><ele>94.4</ele><time>2026-04-03T11:24:35Z</time></trkpt><trkpt lat="39.001473802250636" lon="-9.250631984222988"><ele>94.80000000000001</ele><time>2026-04-03T11:24:36Z</time></trkpt><trkpt lat="39.0013691109797" lon="-9.250581516170097"><ele>95.19999999999999</ele><time>2026-04-03T11:24:37Z</time></trkpt><trkpt lat="39.001273487819326" lon="-9.250518092679734"><ele>95.6</ele><time>2026-04-03T11:24:38Z</time></trkpt><trkpt lat="39.00118984995058" lon="-9.250446157662326"><ele>96.0</ele><time>2026-04-03T11:24:39Z</time></trkpt><trkpt lat="39.00115831451205" lon="-9.250334257285358"><ele>96.19999999999999</ele><time>2026-04-03T11:24:40Z</time></trkpt><trkpt lat="39.001139665320494" lon="-9.250234446648852"><ele>96.39999999999999</ele><time>2026-04-03T11:24:41Z</time></trkpt><trkpt lat="39.00121298150943" lon="-9.250147827017196"><ele>96.6</ele><time>2026-04-03T11:24:42Z</time></trkpt><trkpt lat="39.001275649593374" lon="-9.250081689049193"><ele>96.8</ele><time>2026-04-03T11:24:43Z</time></trkpt><trkpt lat="39.00133811895291" lon="-9.249988942840275"><ele>97.0</ele><time>2026-04-03T11:24:44Z</time></trkpt><trkpt lat="39.00141902889" lon="-9.24987469882312"><ele>96.0</ele><time>2026-04-03T11:24:45Z</time></trkpt><trkpt lat="39.0015002596377" lon="-9.249733380493952"><ele>95.0</ele><time>2026-04-03T11:24:46Z</time></trkpt><trkpt lat="39.00159878714607" lon="-9.249607633169175"><ele>94.0</ele><time>2026-04-03T11:24:47Z</time></trkpt><trkpt lat="39.00172253421053" lon="-9.2495601366255"><ele>93.0</ele><time>2026-04-03T11:24:48Z</time></trkpt><trkpt lat="39.001853190546846" lon="-9.249526959493327"><ele>96.75</ele><time>2026-04-03T11:24:49Z</time></trkpt><trkpt lat="39.00197845906757" lon="-9.249507969675838"><ele>100.5</ele><time>2026-04-03T11:24:50Z</time></trkpt><trkpt lat="39.00212238651116" lon="-9.249511848786312"><ele>104.25</ele><time>2026-04-03T11:24:51Z</time></trkpt><trkpt lat="39.002267035953345" lon="-9.249560376001412"><ele>108.0</ele><time>2026-04-03T11:24:52Z</time></trkpt><trkpt lat="39.00241577279423" lon="-9.249613484991652"><ele>111.0</ele><time>2026-04-03T11:24:53Z</time></trkpt><trkpt lat="39.00255481045628" lon="-9.249663820532518"><ele>114.0</ele><time>2026-04-03T11:24:54Z</time></trkpt><trkpt lat="39.00269476014492" lon="-9.249689160930988"><ele>117.0</ele><time>2026-04-03T11:24:55Z</time></trkpt><trkpt lat="39.00282460256526" lon="-9.249679987806706"><ele>120.0</ele><time>2026-04-03T11:24:56Z</time></trkpt><trkpt lat="39.00291779932729" lon="-9.249609456217"><ele>120.0</ele><time>2026-04-03T11:24:57Z</time></trkpt><trkpt lat="39.00301341882435" lon="-9.24955232453362"><ele>120.0</ele><time>2026-04-03T11:24:58Z</time></trkpt><trkpt lat="39.0031153794134" lon="-9.24948888820982"><ele>120.0</ele><time>2026-04-03T11:24:59Z</time></trkpt><trkpt lat="39.003222536377095" lon="-9.249411023535695"><ele>120.0</ele><time>2026-04-03T11:25:00Z</time></trkpt><trkpt lat="39.00330952937402" lon="-9.249331650751294"><ele>120.0</ele><time>2026-04-03T11:25:01Z</time></trkpt><trkpt lat="39.00334400978838" lon="-9.249256119539883"><ele>120.0</ele><time>2026-04-03T11:25:02Z</time></trkpt><trkpt lat="39.0032928179551" lon="-9.249186876451349"><ele>120.0</ele><time>2026-04-03T11:25:03Z</time></trkpt><trkpt lat="39.003222228738906" lon="-9.249145471596108"><ele>120.0</ele><time>2026-04-03T11:25:04Z</time></trkpt><trkpt lat="39.00315584459079" lon="-9.249082787059876"><ele>120.0</ele><time>2026-04-03T11:25:05Z</time></trkpt><trkpt lat="39.003079990255856" lon="-9.248962508800128"><ele>120.0</ele><time>2026-04-03T11:25:06Z</time></trkpt><trkpt lat="39.003007935790734" lon="-9.248811939732608"><ele>119.8</ele><time>2026-04-03T11:25:07Z</time></trkpt><trkpt lat="39.0029784702605" lon="-9.24867890539697"><ele>119.6</ele><time>2026-04-03T11:25:08Z</time></trkpt><trkpt lat="39.00293943397806" lon="-9.248577183100151"><ele>119.4</ele><time>2026-04-03T11:25:09Z</time></trkpt><trkpt lat="39.002931371973" lon="-9.248458139880425"><ele>119.2</ele><time>2026-04-03T11:25:10Z</time></trkpt><trkpt lat="39.002988862941635" lon="-9.248340903319018"><ele>119.0</ele><time>2026-04-03T11:25:11Z</time></trkpt><trkpt lat="39.003046093017566" lon="-9.248210324462265"><ele>117.5</ele><time>2026-04-03T11:25:12Z</time></trkpt><trkpt lat="39.00313102526532" lon="-9.24807119046211"><ele>116.0</ele><time>2026-04-03T11:25:13Z</time></trkpt><trkpt lat="39.003211069275984" lon="-9.24792450659269"><ele>114.5</ele><time>2026-04-03T11:25:14Z</time></trkpt><trkpt lat="39.00330097262906" lon="-9.247774079964719"><ele>113.0</ele><time>2026-04-03T11:25:15Z</time></trkpt><trkpt lat="39.003398249879965" lon="-9.247617679638882"><ele>117.33333333333333</ele><time>2026-04-03T11:25:16Z</time></trkpt><trkpt lat="39.0034945717569" lon="-9.247455287543902"><ele>121.66666666666666</ele><time>2026-04-03T11:25:17Z</time></trkpt><trkpt lat="39.00357825982334" lon="-9.247297749527423"><ele>126.0</ele><time>2026-04-03T11:25:18Z</time></trkpt><trkpt lat="39.00367384172318" lon="-9.247136571370717"><ele>126.0</ele><time>2026-04-03T11:25:19Z</time></trkpt><trkpt lat="39.003763176792305" lon="-9.246974074444166"><ele>126.0</ele><time>2026-04-03T11:25:20Z</time></trkpt><trkpt lat="39.00385522044316" lon="-9.246816236700791"><ele>126.0</ele><time>2026-04-03T11:25:21Z</time></trkpt><trkpt lat="39.00394613786383" lon="-9.246661863245825"><ele>126.0</ele><time>2026-04-03T11:25:22Z</time></trkpt><trkpt lat="39.00401969257913" lon="-9.246483239915705"><ele>126.0</ele><time>2026-04-03T11:25:23Z</time></trkpt><trkpt lat="39.004117065387874" lon="-9.24630841442873"><ele>126.0</ele><time>2026-04-03T11:25:24Z</time></trkpt><trkpt lat="39.00420303543036" lon="-9.246117403752828"><ele>126.33333333333334</ele><time>2026-04-03T11:25:25Z</time></trkpt><trkpt lat="39.00429273549735" lon="-9.245935192897043"><ele>126.66666666666667</ele><time>2026-04-03T11:25:26Z</time></trkpt><trkpt lat="39.00438249738965" lon="-9.24575191054521"><ele>127.0</ele><time>2026-04-03T11:25:27Z</time></trkpt><trkpt lat="39.00446945071719" lon="-9.245576275831832"><ele>127.0</ele><time>2026-04-03T11:25:28Z</time></trkpt><trkpt lat="39.00454959673524" lon="-9.245403750277601"><ele>127.0</ele><time>2026-04-03T11:25:29Z</time></trkpt><trkpt lat="39.00462122202171" lon="-9.245234385846642"><ele>127.0</ele><time>2026-04-03T11:25:30Z</time></trkpt><trkpt lat="39.00468625965117" lon="-9.245067245109988"><ele>127.0</ele><time>2026-04-03T11:25:31Z</time></trkpt><trkpt lat="39.00476503278228" lon="-9.244908145389612"><ele>127.0</ele><time>2026-04-03T11:25:32Z</time></trkpt><trkpt lat="39.00484202608014" lon="-9.244752493956792"><ele>127.0</ele><time>2026-04-03T11:25:33Z</time></trkpt><trkpt lat="39.00491136578125" lon="-9.244602332444302"><ele>127.0</ele><time>2026-04-03T11:25:34Z</time></trkpt><trkpt lat="39.00497690738063" lon="-9.244458729946254"><ele>128.75</ele><time>2026-04-03T11:25:35Z</time></trkpt><trkpt lat="39.00503912901099" lon="-9.24431742178917"><ele>130.5</ele><time>2026-04-03T11:25:36Z</time></trkpt><trkpt lat="39.00509941001649" lon="-9.244176542271974"><ele>132.25</ele><time>2026-04-03T11:25:37Z</time></trkpt><trkpt lat="39.00515374826691" lon="-9.244055564256296"><ele>134.0</ele><time>2026-04-03T11:25:38Z</time></trkpt><trkpt lat="39.005203799438085" lon="-9.243933468526965"><ele>134.0</ele><time>2026-04-03T11:25:39Z</time></trkpt><trkpt lat="39.005261503080995" lon="-9.243805443183339"><ele>134.0</ele><time>2026-04-03T11:25:40Z</time></trkpt><trkpt lat="39.00531091648088" lon="-9.24366049363098"><ele>134.0</ele><time>2026-04-03T11:25:41Z</time></trkpt><trkpt lat="39.00532277522477" lon="-9.243496220456194"><ele>134.0</ele><time>2026-04-03T11:25:42Z</time></trkpt><trkpt lat="39.00533610029541" lon="-9.243336291513302"><ele>134.0</ele><time>2026-04-03T11:25:43Z</time></trkpt><trkpt lat="39.005343390322246" lon="-9.24315892245542"><ele>134.0</ele><time>2026-04-03T11:25:44Z</time></trkpt><trkpt lat="39.00536050465651" lon="-9.242983441717334"><ele>134.0</ele><time>2026-04-03T11:25:45Z</time></trkpt><trkpt lat="39.00535666061578" lon="-9.242800312362217"><ele>134.0</ele><time>2026-04-03T11:25:46Z</time></trkpt><trkpt lat="39.00534247027585" lon="-9.24261768309062"><ele>133.5</ele><time>2026-04-03T11:25:47Z</time></trkpt><trkpt lat="39.005364180192" lon="-9.242431556229835"><ele>133.0</ele><time>2026-04-03T11:25:48Z</time></trkpt><trkpt lat="39.005368481458135" lon="-9.242241272628506"><ele>132.5</ele><time>2026-04-03T11:25:49Z</time></trkpt><trkpt lat="39.00537544217399" lon="-9.242051838330534"><ele>132.0</ele><time>2026-04-03T11:25:50Z</time></trkpt><trkpt lat="39.00538293658246" lon="-9.2418577049649"><ele>132.0</ele><time>2026-04-03T11:25:51Z</time></trkpt><trkpt lat="39.0053900229583" lon="-9.24166359198089"><ele>132.0</ele><time>2026-04-03T11:25:52Z</time></trkpt><trkpt lat="39.00537419033497" lon="-9.241476294722117"><ele>132.0</ele><time>2026-04-03T11:25:53Z</time></trkpt><trkpt lat="39.005343103206506" lon="-9.241305168241187"><ele>132.0</ele><time>2026-04-03T11:25:54Z</time></trkpt><trkpt lat="39.00529342036447" lon="-9.241144473857133"><ele>133.0</ele><time>2026-04-03T11:25:55Z</time></trkpt><trkpt lat="39.005223896224685" lon="-9.240994332575285"><ele>134.0</ele><time>2026-04-03T11:25:56Z</time></trkpt><trkpt lat="39.00515740883444" lon="-9.240851750712656"><ele>135.0</ele><time>2026-04-03T11:25:57Z</time></trkpt><trkpt lat="39.00511144778974" lon="-9.240716339405182"><ele>136.0</ele><time>2026-04-03T11:25:58Z</time></trkpt><trkpt lat="39.00506614872386" lon="-9.240599958522203"><ele>136.6</ele><time>2026-04-03T11:25:59Z</time></trkpt><trkpt lat="39.00504277396109" lon="-9.240472445420446"><ele>137.2</ele><time>2026-04-03T11:26:00Z</time></trkpt><trkpt lat="39.00503720709369" lon="-9.240351474421235"><ele>137.8</ele><time>2026-04-03T11:26:01Z</time></trkpt><trkpt lat="39.00505592350094" lon="-9.240226312498502"><ele>138.4</ele><time>2026-04-03T11:26:02Z</time></trkpt><trkpt lat="39.0050847561651" lon="-9.240073582015164"><ele>139.0</ele><time>2026-04-03T11:26:03Z</time></trkpt><trkpt lat="39.00510224362485" lon="-9.239895616370262"><ele>140.75</ele><time>2026-04-03T11:26:04Z</time></trkpt><trkpt lat="39.00510842755844" lon="-9.239728492945384"><ele>142.5</ele><time>2026-04-03T11:26:05Z</time></trkpt><trkpt lat="39.005110492112635" lon="-9.239560176620047"><ele>144.25</ele><time>2026-04-03T11:26:06Z</time></trkpt><trkpt lat="39.005104489438025" lon="-9.239403270691673"><ele>146.0</ele><time>2026-04-03T11:26:07Z</time></trkpt><trkpt lat="39.00509836902083" lon="-9.239254351926746"><ele>146.0</ele><time>2026-04-03T11:26:08Z</time></trkpt><trkpt lat="39.00509082593411" lon="-9.23910111606422"><ele>146.0</ele><time>2026-04-03T11:26:09Z</time></trkpt><trkpt lat="39.00508001728992" lon="-9.238948337348887"><ele>146.0</ele><time>2026-04-03T11:26:10Z</time></trkpt><trkpt lat="39.00506713892538" lon="-9.23879509643576"><ele>146.0</ele><time>2026-04-03T11:26:11Z</time></trkpt><trkpt lat="39.005050353988764" lon="-9.238651572666846"><ele>146.4</ele><time>2026-04-03T11:26:12Z</time></trkpt><trkpt lat="39.00501232675836" lon="-9.238518584084174"><ele>146.8</ele><time>2026-04-03T11:26:13Z</time></trkpt><trkpt lat="39.00498714088835" lon="-9.238415176737176"><ele>147.20000000000002</ele><time>2026-04-03T11:26:14Z</time></trkpt><trkpt lat="39.00495598493921" lon="-9.238284463366218"><ele>147.6</ele><time>2026-04-03T11:26:16.001Z</time></trkpt><trkpt lat="39.00497105887822" lon="-9.238126731462149"><ele>148.0</ele><time>2026-04-03T11:26:18.001Z</time></trkpt><trkpt lat="39.004997841569796" lon="-9.23800913242926"><ele>148.0</ele><time>2026-04-03T11:26:19.001Z</time></trkpt><trkpt lat="39.005040796271764" lon="-9.237883906193904"><ele>148.0</ele><time>2026-04-03T11:26:20.001Z</time></trkpt><trkpt lat="39.00507651087884" lon="-9.237757011372942"><ele>148.0</ele><time>2026-04-03T11:26:21.001Z</time></trkpt><trkpt lat="39.00512098722914" lon="-9.23761569629393"><ele>148.0</ele><time>2026-04-03T11:26:22.001Z</time></trkpt><trkpt lat="39.00517495236704" lon="-9.237475530097328"><ele>148.0</ele><time>2026-04-03T11:26:23.001Z</time></trkpt><trkpt lat="39.00523641814644" lon="-9.237344110695133"><ele>148.0</ele><time>2026-04-03T11:26:24.001Z</time></trkpt><trkpt lat="39.00533770806787" lon="-9.23722667000245"><ele>148.0</ele><time>2026-04-03T11:26:25.001Z</time></trkpt><trkpt lat="39.00544717136784" lon="-9.237075478038767"><ele>148.0</ele><time>2026-04-03T11:26:26.001Z</time></trkpt><trkpt lat="39.005577366874896" lon="-9.236938881646484"><ele>147.0</ele><time>2026-04-03T11:26:27.001Z</time></trkpt><trkpt lat="39.005711580989" lon="-9.236785401137457"><ele>146.0</ele><time>2026-04-03T11:26:28.001Z</time></trkpt><trkpt lat="39.00583445413181" lon="-9.236629903150593"><ele>145.0</ele><time>2026-04-03T11:26:29.001Z</time></trkpt><trkpt lat="39.00595695299221" lon="-9.23645320875744"><ele>142.66666666666669</ele><time>2026-04-03T11:26:30.001Z</time></trkpt><trkpt lat="39.00608487447596" lon="-9.236270090911908"><ele>140.33333333333334</ele><time>2026-04-03T11:26:31.001Z</time></trkpt><trkpt lat="39.006216237775995" lon="-9.236083484700046"><ele>138.0</ele><time>2026-04-03T11:26:32.001Z</time></trkpt><trkpt lat="39.006349697703676" lon="-9.235889013335255"><ele>138.0</ele><time>2026-04-03T11:26:33.001Z</time></trkpt><trkpt lat="39.006481111787494" lon="-9.235701399100574"><ele>138.0</ele><time>2026-04-03T11:26:34.001Z</time></trkpt><trkpt lat="39.00659143051474" lon="-9.235526690813558"><ele>138.0</ele><time>2026-04-03T11:26:35.001Z</time></trkpt><trkpt lat="39.00668687641214" lon="-9.235358117961464"><ele>138.33333333333334</ele><time>2026-04-03T11:26:36.001Z</time></trkpt><trkpt lat="39.00679589000998" lon="-9.23519084797566"><ele>138.66666666666669</ele><time>2026-04-03T11:26:37.001Z</time></trkpt><trkpt lat="39.006893478708605" lon="-9.234999449493243"><ele>139.0</ele><time>2026-04-03T11:26:38.001Z</time></trkpt><trkpt lat="39.00698197590264" lon="-9.234794811764989"><ele>136.66666666666669</ele><time>2026-04-03T11:26:39.001Z</time></trkpt><trkpt lat="39.00707038598581" lon="-9.234579281937789"><ele>134.33333333333334</ele><time>2026-04-03T11:26:40.001Z</time></trkpt><trkpt lat="39.00716868392838" lon="-9.23436669630868"><ele>132.0</ele><time>2026-04-03T11:26:41.001Z</time></trkpt><trkpt lat="39.007282240075114" lon="-9.234154715317977"><ele>132.0</ele><time>2026-04-03T11:26:42.001Z</time></trkpt><trkpt lat="39.00739403511155" lon="-9.233954059154708"><ele>132.0</ele><time>2026-04-03T11:26:43.001Z</time></trkpt><trkpt lat="39.00749337893239" lon="-9.233792644344266"><ele>132.0</ele><time>2026-04-03T11:26:44.001Z</time></trkpt><trkpt lat="39.007579659409956" lon="-9.233661314854876"><ele>135.0</ele><time>2026-04-03T11:26:45.001Z</time></trkpt><trkpt lat="39.00767479630719" lon="-9.233544745987173"><ele>138.0</ele><time>2026-04-03T11:26:46.001Z</time></trkpt><trkpt lat="39.00777964998618" lon="-9.233430389026193"><ele>141.0</ele><time>2026-04-03T11:26:47.001Z</time></trkpt><trkpt lat="39.007887788749215" lon="-9.23332477546966"><ele>144.0</ele><time>2026-04-03T11:26:48.001Z</time></trkpt><trkpt lat="39.00798573988084" lon="-9.23322571706648"><ele>143.0</ele><time>2026-04-03T11:26:49.001Z</time></trkpt><trkpt lat="39.00807374896935" lon="-9.233131504228709"><ele>142.0</ele><time>2026-04-03T11:26:50.001Z</time></trkpt><trkpt lat="39.00815655620862" lon="-9.233042762114607"><ele>141.0</ele><time>2026-04-03T11:26:51.001Z</time></trkpt><trkpt lat="39.00823806324643" lon="-9.23295502131581"><ele>140.0</ele><time>2026-04-03T11:26:52.001Z</time></trkpt><trkpt lat="39.00830855000519" lon="-9.232876691019923"><ele>139.0</ele><time>2026-04-03T11:26:53.001Z</time></trkpt><trkpt lat="39.00836599871501" lon="-9.232814053936302"><ele>140.8</ele><time>2026-04-03T11:26:54.001Z</time></trkpt><trkpt lat="39.008454780732364" lon="-9.232729388005222"><ele>142.60000000000002</ele><time>2026-04-03T11:26:56.001Z</time></trkpt><trkpt lat="39.00851527851646" lon="-9.232644972056843"><ele>144.4</ele><time>2026-04-03T11:26:58.001Z</time></trkpt><trkpt lat="39.008485581232925" lon="-9.232482047576115"><ele>146.20000000000002</ele><time>2026-04-03T11:27:00.001Z</time></trkpt><trkpt lat="39.00847997933511" lon="-9.232349441903624"><ele>148.0</ele><time>2026-04-03T11:27:01.001Z</time></trkpt><trkpt lat="39.00844124739267" lon="-9.23217762309936"><ele>148.0</ele><time>2026-04-03T11:27:02.001Z</time></trkpt><trkpt lat="39.008418750788614" lon="-9.232009836668482"><ele>148.0</ele><time>2026-04-03T11:27:03.001Z</time></trkpt><trkpt lat="39.00836814833095" lon="-9.231852931469996"><ele>148.0</ele><time>2026-04-03T11:27:04.001Z</time></trkpt><trkpt lat="39.00828760024591" lon="-9.231722992640115"><ele>148.0</ele><time>2026-04-03T11:27:05.001Z</time></trkpt><trkpt lat="39.008168867730106" lon="-9.231639999347294"><ele>146.33333333333334</ele><time>2026-04-03T11:27:06.001Z</time></trkpt><trkpt lat="39.00803088554015" lon="-9.231541267123367"><ele>144.66666666666666</ele><time>2026-04-03T11:27:07.001Z</time></trkpt><trkpt lat="39.00789152321124" lon="-9.231436978585412"><ele>143.0</ele><time>2026-04-03T11:27:08.001Z</time></trkpt><trkpt lat="39.00774631244088" lon="-9.23132587368426"><ele>146.33333333333331</ele><time>2026-04-03T11:27:09.001Z</time></trkpt><trkpt lat="39.00761432672877" lon="-9.23120038838353"><ele>149.66666666666666</ele><time>2026-04-03T11:27:10.001Z</time></trkpt><trkpt lat="39.00747046014776" lon="-9.231089229007967"><ele>153.0</ele><time>2026-04-03T11:27:11.001Z</time></trkpt><trkpt lat="39.00732997970709" lon="-9.230966365342338"><ele>153.25</ele><time>2026-04-03T11:27:12.001Z</time></trkpt><trkpt lat="39.00718297461505" lon="-9.230853205887156"><ele>153.5</ele><time>2026-04-03T11:27:13.001Z</time></trkpt><trkpt lat="39.00705152683831" lon="-9.230762715591096"><ele>153.75</ele><time>2026-04-03T11:27:14.001Z</time></trkpt><trkpt lat="39.00694460160071" lon="-9.230698412157066"><ele>154.0</ele><time>2026-04-03T11:27:15.001Z</time></trkpt><trkpt lat="39.00684203592609" lon="-9.230635948391885"><ele>155.5</ele><time>2026-04-03T11:27:16.001Z</time></trkpt><trkpt lat="39.00673800451257" lon="-9.230572591385462"><ele>157.0</ele><time>2026-04-03T11:27:17.001Z</time></trkpt><trkpt lat="39.006629785775786" lon="-9.230507063488869"><ele>158.5</ele><time>2026-04-03T11:27:18.001Z</time></trkpt><trkpt lat="39.00652172079807" lon="-9.230440461680326"><ele>160.0</ele><time>2026-04-03T11:27:19.001Z</time></trkpt><trkpt lat="39.006463666087434" lon="-9.23024884909477"><ele>160.0</ele><time>2026-04-03T11:27:20.001Z</time></trkpt><trkpt lat="39.006366145953265" lon="-9.230171857531829"><ele>160.0</ele><time>2026-04-03T11:27:21.001Z</time></trkpt><trkpt lat="39.00629795555635" lon="-9.230111170914235"><ele>160.0</ele><time>2026-04-03T11:27:22.001Z</time></trkpt><trkpt lat="39.00624208493118" lon="-9.230057838475496"><ele>160.0</ele><time>2026-04-03T11:27:23.001Z</time></trkpt><trkpt lat="39.00618431073443" lon="-9.230010326991746"><ele>160.0</ele><time>2026-04-03T11:27:24.001Z</time></trkpt><trkpt lat="39.006114104738586" lon="-9.229978113968752"><ele>160.0</ele><time>2026-04-03T11:27:26.001Z</time></trkpt><trkpt lat="39.00615936658265" lon="-9.229872051895404"><ele>159.4</ele><time>2026-04-03T11:27:27.001Z</time></trkpt><trkpt lat="39.006248520785405" lon="-9.229769868294074"><ele>158.8</ele><time>2026-04-03T11:28:41.001Z</time></trkpt><trkpt lat="39.00630351685343" lon="-9.229674381252135"><ele>158.2</ele><time>2026-04-03T11:28:42.001Z</time></trkpt><trkpt lat="39.00637039014421" lon="-9.229561954099132"><ele>157.6</ele><time>2026-04-03T11:28:43.001Z</time></trkpt><trkpt lat="39.006450246804945" lon="-9.229443259863176"><ele>157.0</ele><time>2026-04-03T11:28:44.001Z</time></trkpt><trkpt lat="39.00654212067419" lon="-9.229326502756463"><ele>157.0</ele><time>2026-04-03T11:28:45.001Z</time></trkpt><trkpt lat="39.00664283737603" lon="-9.229228050179145"><ele>157.0</ele><time>2026-04-03T11:28:46.001Z</time></trkpt><trkpt lat="39.006722944736495" lon="-9.22917312981651"><ele>157.0</ele><time>2026-04-03T11:28:47.001Z</time></trkpt><trkpt lat="39.0067887827634" lon="-9.22913930360295"><ele>157.0</ele><time>2026-04-03T11:28:48.001Z</time></trkpt><trkpt lat="39.0068562552147" lon="-9.229115552950486"><ele>157.0</ele><time>2026-04-03T11:28:49.001Z</time></trkpt><trkpt lat="39.00692648024921" lon="-9.229080819944947"><ele>157.0</ele><time>2026-04-03T11:28:50.001Z</time></trkpt><trkpt lat="39.00698578843198" lon="-9.229048352914914"><ele>156.2</ele><time>2026-04-03T11:28:51.001Z</time></trkpt><trkpt lat="39.00709428955804" lon="-9.228992309257679"><ele>155.39999999999998</ele><time>2026-04-03T11:29:15.001Z</time></trkpt><trkpt lat="39.00716364478006" lon="-9.228952917968494"><ele>154.60000000000002</ele><time>2026-04-03T11:29:16.001Z</time></trkpt><trkpt lat="39.007262139543826" lon="-9.228917098862642"><ele>153.8</ele><time>2026-04-03T11:29:17.001Z</time></trkpt><trkpt lat="39.007371189687376" lon="-9.228896207588527"><ele>153.0</ele><time>2026-04-03T11:29:18.001Z</time></trkpt><trkpt lat="39.00749635013832" lon="-9.228885751122974"><ele>155.5</ele><time>2026-04-03T11:29:19.001Z</time></trkpt><trkpt lat="39.00762702510476" lon="-9.228912087937768"><ele>158.0</ele><time>2026-04-03T11:29:20.001Z</time></trkpt><trkpt lat="39.00777508839175" lon="-9.228938068809768"><ele>160.5</ele><time>2026-04-03T11:29:21.001Z</time></trkpt><trkpt lat="39.00792756273938" lon="-9.22895963925966"><ele>163.0</ele><time>2026-04-03T11:29:22.001Z</time></trkpt><trkpt lat="39.00809386859984" lon="-9.228983267723205"><ele>167.0</ele><time>2026-04-03T11:29:23.001Z</time></trkpt><trkpt lat="39.008267636828165" lon="-9.229017387579113"><ele>171.0</ele><time>2026-04-03T11:29:24.001Z</time></trkpt><trkpt lat="39.00844785444788" lon="-9.229052473010238"><ele>175.0</ele><time>2026-04-03T11:29:25.001Z</time></trkpt><trkpt lat="39.008619487513364" lon="-9.229087392962667"><ele>175.0</ele><time>2026-04-03T11:29:26.001Z</time></trkpt><trkpt lat="39.008768840619986" lon="-9.229105602766312"><ele>175.0</ele><time>2026-04-03T11:29:27.001Z</time></trkpt><trkpt lat="39.0089087369352" lon="-9.229086671431503"><ele>175.0</ele><time>2026-04-03T11:29:28.001Z</time></trkpt><trkpt lat="39.00902308348987" lon="-9.229043017937897"><ele>175.0</ele><time>2026-04-03T11:29:29.001Z</time></trkpt><trkpt lat="39.00914010560541" lon="-9.22896886464169"><ele>177.75</ele><time>2026-04-03T11:29:30.001Z</time></trkpt><trkpt lat="39.009269476738886" lon="-9.228906735045575"><ele>180.5</ele><time>2026-04-03T11:29:31.001Z</time></trkpt><trkpt lat="39.00938642520738" lon="-9.228814620769917"><ele>183.25</ele><time>2026-04-03T11:29:32.001Z</time></trkpt><trkpt lat="39.00947975368765" lon="-9.228706907242914"><ele>186.0</ele><time>2026-04-03T11:29:33.001Z</time></trkpt><trkpt lat="39.009540601844016" lon="-9.22859258983433"><ele>186.0</ele><time>2026-04-03T11:29:34.001Z</time></trkpt><trkpt lat="39.00960943913929" lon="-9.228480284687432"><ele>186.0</ele><time>2026-04-03T11:29:35.001Z</time></trkpt><trkpt lat="39.00968536763784" lon="-9.228357785657444"><ele>186.0</ele><time>2026-04-03T11:29:36.001Z</time></trkpt><trkpt lat="39.00976413538447" lon="-9.228240080631911"><ele>186.0</ele><time>2026-04-03T11:29:37.001Z</time></trkpt><trkpt lat="39.00985806776437" lon="-9.22812820809457"><ele>184.25</ele><time>2026-04-03T11:29:38.001Z</time></trkpt><trkpt lat="39.009971520892" lon="-9.228037891189286"><ele>182.5</ele><time>2026-04-03T11:29:39.001Z</time></trkpt><trkpt lat="39.01008517067333" lon="-9.22793942323019"><ele>180.75</ele><time>2026-04-03T11:29:40.001Z</time></trkpt><trkpt lat="39.01020024884967" lon="-9.227827443557432"><ele>179.0</ele><time>2026-04-03T11:29:41.001Z</time></trkpt><trkpt lat="39.01031188689315" lon="-9.227710096284838"><ele>185.0</ele><time>2026-04-03T11:29:42.001Z</time></trkpt><trkpt lat="39.010440780782865" lon="-9.22759393136514"><ele>191.0</ele><time>2026-04-03T11:29:43.001Z</time></trkpt><trkpt lat="39.01056724199344" lon="-9.227503455385543"><ele>197.0</ele><time>2026-04-03T11:29:44.001Z</time></trkpt><trkpt lat="39.01068754841225" lon="-9.227427833307434"><ele>203.0</ele><time>2026-04-03T11:29:45.001Z</time></trkpt><trkpt lat="39.010815681709374" lon="-9.227359135115915"><ele>204.75</ele><time>2026-04-03T11:29:46.001Z</time></trkpt><trkpt lat="39.01095523924009" lon="-9.22733380679385"><ele>206.5</ele><time>2026-04-03T11:29:47.001Z</time></trkpt><trkpt lat="39.011087052898525" lon="-9.227324252730384"><ele>208.25</ele><time>2026-04-03T11:29:48.001Z</time></trkpt><trkpt lat="39.01123298778376" lon="-9.227318068783653"><ele>210.0</ele><time>2026-04-03T11:29:49.001Z</time></trkpt><trkpt lat="39.01137399605006" lon="-9.227315771922306"><ele>214.25</ele><time>2026-04-03T11:29:50.001Z</time></trkpt><trkpt lat="39.01152124542251" lon="-9.227305736825778"><ele>218.5</ele><time>2026-04-03T11:29:51.001Z</time></trkpt><trkpt lat="39.01166807062235" lon="-9.22728797254892"><ele>222.75</ele><time>2026-04-03T11:29:52.001Z</time></trkpt><trkpt lat="39.01181332275369" lon="-9.227259260868546"><ele>227.0</ele><time>2026-04-03T11:29:53.001Z</time></trkpt><trkpt lat="39.01194832541402" lon="-9.227210665928828"><ele>229.25</ele><time>2026-04-03T11:29:54.001Z</time></trkpt><trkpt lat="39.01207431212093" lon="-9.227160063893834"><ele>231.5</ele><time>2026-04-03T11:29:55.001Z</time></trkpt><trkpt lat="39.012205385570965" lon="-9.227097163687628"><ele>233.75</ele><time>2026-04-03T11:29:56.001Z</time></trkpt><trkpt lat="39.012339732957315" lon="-9.227024723640547"><ele>236.0</ele><time>2026-04-03T11:29:57.001Z</time></trkpt><trkpt lat="39.01247020732711" lon="-9.22694431968345"><ele>236.5</ele><time>2026-04-03T11:29:58.001Z</time></trkpt><trkpt lat="39.01259701995849" lon="-9.226865240255837"><ele>237.0</ele><time>2026-04-03T11:29:59Z</time></trkpt><trkpt lat="39.01268946015973" lon="-9.226741313145808"><ele>237.5</ele><time>2026-04-03T11:30:00Z</time></trkpt><trkpt lat="39.0127433468685" lon="-9.226591252528072"><ele>238.0</ele><time>2026-04-03T11:30:01Z</time></trkpt><trkpt lat="39.012813588568314" lon="-9.226436900747002"><ele>238.0</ele><time>2026-04-03T11:30:02Z</time></trkpt><trkpt lat="39.012888774646456" lon="-9.226280831785056"><ele>238.0</ele><time>2026-04-03T11:30:03.001Z</time></trkpt><trkpt lat="39.012965819921114" lon="-9.226117472882631"><ele>238.0</ele><time>2026-04-03T11:30:04.001Z</time></trkpt><trkpt lat="39.01304465421917" lon="-9.22594691420651"><ele>238.0</ele><time>2026-04-03T11:30:05.001Z</time></trkpt><trkpt lat="39.01312214195327" lon="-9.225768675545181"><ele>237.0</ele><time>2026-04-03T11:30:06.001Z</time></trkpt><trkpt lat="39.013201616896055" lon="-9.22558781517439"><ele>236.0</ele><time>2026-04-03T11:30:07.001Z</time></trkpt><trkpt lat="39.01328024061528" lon="-9.225407165286295"><ele>235.0</ele><time>2026-04-03T11:30:08.001Z</time></trkpt><trkpt lat="39.01335896600733" lon="-9.22523087801484"><ele>237.5</ele><time>2026-04-03T11:30:09.001Z</time></trkpt><trkpt lat="39.01343764661627" lon="-9.225056499260543"><ele>240.0</ele><time>2026-04-03T11:30:10.001Z</time></trkpt><trkpt lat="39.01351641491342" lon="-9.224889368090537"><ele>242.5</ele><time>2026-04-03T11:30:11.001Z</time></trkpt><trkpt lat="39.0136217286309" lon="-9.22477558306526"><ele>245.0</ele><time>2026-04-03T11:30:12.001Z</time></trkpt><trkpt lat="39.01374316793693" lon="-9.224702955641026"><ele>245.0</ele><time>2026-04-03T11:30:13.001Z</time></trkpt><trkpt lat="39.013882430900594" lon="-9.224661234616546"><ele>245.0</ele><time>2026-04-03T11:30:14.001Z</time></trkpt><trkpt lat="39.01401782993838" lon="-9.224625386948652"><ele>245.0</ele><time>2026-04-03T11:30:15.001Z</time></trkpt><trkpt lat="39.01414955769381" lon="-9.224565982655996"><ele>245.0</ele><time>2026-04-03T11:30:16.001Z</time></trkpt><trkpt lat="39.01426980860747" lon="-9.224495644292134"><ele>249.75</ele><time>2026-04-03T11:30:17.001Z</time></trkpt><trkpt lat="39.01438823291606" lon="-9.22440938472291"><ele>254.5</ele><time>2026-04-03T11:30:18.001Z</time></trkpt><trkpt lat="39.01448541487309" lon="-9.224282107108616"><ele>259.25</ele><time>2026-04-03T11:30:19.001Z</time></trkpt><trkpt lat="39.01458107520251" lon="-9.22414704959451"><ele>264.0</ele><time>2026-04-03T11:30:20.001Z</time></trkpt><trkpt lat="39.014670714669315" lon="-9.22401097298796"><ele>265.59999999999997</ele><time>2026-04-03T11:30:21.001Z</time></trkpt><trkpt lat="39.01476091231883" lon="-9.223911752313871"><ele>267.2</ele><time>2026-04-03T11:30:22.001Z</time></trkpt><trkpt lat="39.01483381913296" lon="-9.223833992363302"><ele>268.79999999999995</ele><time>2026-04-03T11:30:23.001Z</time></trkpt><trkpt lat="39.01491985330138" lon="-9.223823918272732"><ele>270.4</ele><time>2026-04-03T11:30:24.001Z</time></trkpt><trkpt lat="39.01499209852163" lon="-9.22386987670786"><ele>272.0</ele><time>2026-04-03T11:30:25.001Z</time></trkpt><trkpt lat="39.01504430325086" lon="-9.223957339849827"><ele>275.0</ele><time>2026-04-03T11:30:26.001Z</time></trkpt><trkpt lat="39.0150523912959" lon="-9.224089592172461"><ele>278.0</ele><time>2026-04-03T11:30:27.001Z</time></trkpt><trkpt lat="39.015048617745165" lon="-9.224234048064083"><ele>281.0</ele><time>2026-04-03T11:30:28.001Z</time></trkpt><trkpt lat="39.015052595821665" lon="-9.224374641752997"><ele>284.0</ele><time>2026-04-03T11:30:29.001Z</time></trkpt><trkpt lat="39.01505953729657" lon="-9.224520606011223"><ele>287.0</ele><time>2026-04-03T11:30:30.001Z</time></trkpt><trkpt lat="39.01506515185395" lon="-9.22467673425843"><ele>289.5</ele><time>2026-04-03T11:30:31.001Z</time></trkpt><trkpt lat="39.015063072881105" lon="-9.224839918459388"><ele>292.0</ele><time>2026-04-03T11:30:32.001Z</time></trkpt><trkpt lat="39.01505656958062" lon="-9.225001474713977"><ele>294.5</ele><time>2026-04-03T11:30:33.001Z</time></trkpt><trkpt lat="39.0150517808047" lon="-9.225164460907047"><ele>297.0</ele><time>2026-04-03T11:30:34.001Z</time></trkpt><trkpt lat="39.01503920427647" lon="-9.225321785766646"><ele>297.0</ele><time>2026-04-03T11:30:35.001Z</time></trkpt><trkpt lat="39.01502979707694" lon="-9.225489318074635"><ele>297.0</ele><time>2026-04-03T11:30:36.001Z</time></trkpt><trkpt lat="39.01502491760015" lon="-9.225639059955432"><ele>297.0</ele><time>2026-04-03T11:30:37.001Z</time></trkpt><trkpt lat="39.01505256769485" lon="-9.225749977906595"><ele>297.0</ele><time>2026-04-03T11:30:38.001Z</time></trkpt><trkpt lat="39.01511039571698" lon="-9.225823797746958"><ele>297.0</ele><time>2026-04-03T11:30:39.001Z</time></trkpt><trkpt lat="39.01518649618761" lon="-9.225842090546886"><ele>297.0</ele><time>2026-04-03T11:30:40.001Z</time></trkpt><trkpt lat="39.01527407284801" lon="-9.225822867593754"><ele>297.0</ele><time>2026-04-03T11:30:41.001Z</time></trkpt><trkpt lat="39.0153312065445" lon="-9.225715370959024"><ele>297.0</ele><time>2026-04-03T11:30:42.001Z</time></trkpt><trkpt lat="39.01541033989962" lon="-9.225649691066101"><ele>297.0</ele><time>2026-04-03T11:30:43.001Z</time></trkpt><trkpt lat="39.015481984341214" lon="-9.225543699027991"><ele>297.0</ele><time>2026-04-03T11:30:44.001Z</time></trkpt><trkpt lat="39.01555518930705" lon="-9.225449621759639"><ele>297.0</ele><time>2026-04-03T11:30:45.001Z</time></trkpt><trkpt lat="39.0156343260628" lon="-9.225346170168294"><ele>297.0</ele><time>2026-04-03T11:30:46.001Z</time></trkpt><trkpt lat="39.0157201466574" lon="-9.225234533820789"><ele>297.0</ele><time>2026-04-03T11:30:47.001Z</time></trkpt><trkpt lat="39.0158050605168" lon="-9.225124800983936"><ele>297.0</ele><time>2026-04-03T11:30:48.001Z</time></trkpt><trkpt lat="39.01589733291848" lon="-9.22500231604805"><ele>301.5</ele><time>2026-04-03T11:30:49.001Z</time></trkpt><trkpt lat="39.01599446229543" lon="-9.224878544196839"><ele>306.0</ele><time>2026-04-03T11:30:50.001Z</time></trkpt><trkpt lat="39.01608449920719" lon="-9.22475394443103"><ele>310.5</ele><time>2026-04-03T11:30:51.001Z</time></trkpt><trkpt lat="39.016180736205214" lon="-9.224634679617306"><ele>315.0</ele><time>2026-04-03T11:30:52.001Z</time></trkpt><trkpt lat="39.016270409736805" lon="-9.224523057365737"><ele>315.0</ele><time>2026-04-03T11:30:53.001Z</time></trkpt><trkpt lat="39.016359786811876" lon="-9.224416101963849"><ele>315.0</ele><time>2026-04-03T11:30:54.001Z</time></trkpt><trkpt lat="39.0164568155414" lon="-9.224313296977892"><ele>315.0</ele><time>2026-04-03T11:30:55.001Z</time></trkpt><trkpt lat="39.01654936659689" lon="-9.224217132848219"><ele>315.0</ele><time>2026-04-03T11:30:56.001Z</time></trkpt><trkpt lat="39.01664625845834" lon="-9.224128771052715"><ele>319.5</ele><time>2026-04-03T11:30:57.001Z</time></trkpt><trkpt lat="39.01674616855057" lon="-9.224039660241141"><ele>324.0</ele><time>2026-04-03T11:30:58.001Z</time></trkpt><trkpt lat="39.016849571395795" lon="-9.223977833929647"><ele>328.5</ele><time>2026-04-03T11:30:59.001Z</time></trkpt><trkpt lat="39.01696109803721" lon="-9.223924886369957"><ele>333.0</ele><time>2026-04-03T11:31:00.001Z</time></trkpt><trkpt lat="39.017076170606124" lon="-9.22388279900453"><ele>333.0</ele><time>2026-04-03T11:31:01.001Z</time></trkpt><trkpt lat="39.017188604812205" lon="-9.223853054345067"><ele>333.0</ele><time>2026-04-03T11:31:02.001Z</time></trkpt><trkpt lat="39.017302719585004" lon="-9.223833182988837"><ele>333.0</ele><time>2026-04-03T11:31:03.001Z</time></trkpt><trkpt lat="39.017409439787286" lon="-9.223821626204469"><ele>333.0</ele><time>2026-04-03T11:31:04Z</time></trkpt><trkpt lat="39.017527420908465" lon="-9.223809991830773"><ele>337.0</ele><time>2026-04-03T11:31:05Z</time></trkpt><trkpt lat="39.01764745527915" lon="-9.223794428794752"><ele>341.0</ele><time>2026-04-03T11:31:06Z</time></trkpt><trkpt lat="39.01777400816756" lon="-9.223777432263452"><ele>345.0</ele><time>2026-04-03T11:31:07Z</time></trkpt><trkpt lat="39.017900763606654" lon="-9.223763539253738"><ele>349.0</ele><time>2026-04-03T11:31:08Z</time></trkpt><trkpt lat="39.01803705547214" lon="-9.22376367270603"><ele>349.0</ele><time>2026-04-03T11:31:09Z</time></trkpt><trkpt lat="39.0181737351191" lon="-9.22377350127257"><ele>349.0</ele><time>2026-04-03T11:31:10Z</time></trkpt><trkpt lat="39.018313528694236" lon="-9.223774686312431"><ele>349.0</ele><time>2026-04-03T11:31:11Z</time></trkpt><trkpt lat="39.01844176771939" lon="-9.223767449743995"><ele>349.0</ele><time>2026-04-03T11:31:12Z</time></trkpt><trkpt lat="39.018579299704506" lon="-9.223755763772587"><ele>351.0</ele><time>2026-04-03T11:31:13Z</time></trkpt><trkpt lat="39.01871307328615" lon="-9.22373016767317"><ele>353.0</ele><time>2026-04-03T11:31:14Z</time></trkpt><trkpt lat="39.01884828815932" lon="-9.223708474762311"><ele>355.0</ele><time>2026-04-03T11:31:15Z</time></trkpt><trkpt lat="39.018964539542665" lon="-9.223700929865691"><ele>357.0</ele><time>2026-04-03T11:31:16Z</time></trkpt><trkpt lat="39.01905284768035" lon="-9.223728739612794"><ele>357.0</ele><time>2026-04-03T11:31:17Z</time></trkpt><trkpt lat="39.019074616954555" lon="-9.22388688140922"><ele>357.0</ele><time>2026-04-03T11:31:19Z</time></trkpt><trkpt lat="39.0190205488415" lon="-9.223974148810596"><ele>357.0</ele><time>2026-04-03T11:31:20Z</time></trkpt><trkpt lat="39.01892742641685" lon="-9.224043662745212"><ele>357.0</ele><time>2026-04-03T11:31:21Z</time></trkpt><trkpt lat="39.0188358968266" lon="-9.224123098525121"><ele>357.0</ele><time>2026-04-03T11:31:22Z</time></trkpt><trkpt lat="39.01873895834471" lon="-9.224227581902328"><ele>363.25</ele><time>2026-04-03T11:31:23Z</time></trkpt><trkpt lat="39.01863548496383" lon="-9.2243382848232"><ele>369.5</ele><time>2026-04-03T11:31:24Z</time></trkpt><trkpt lat="39.018535670725" lon="-9.224463050574071"><ele>375.75</ele><time>2026-04-03T11:31:25Z</time></trkpt><trkpt lat="39.018436414672856" lon="-9.224579105573978"><ele>382.0</ele><time>2026-04-03T11:31:26Z</time></trkpt><trkpt lat="39.01833733899928" lon="-9.224692224557282"><ele>384.5</ele><time>2026-04-03T11:31:27Z</time></trkpt><trkpt lat="39.018236683285934" lon="-9.224817700349476"><ele>387.0</ele><time>2026-04-03T11:31:28Z</time></trkpt><trkpt lat="39.01813885860121" lon="-9.224937789426527"><ele>389.5</ele><time>2026-04-03T11:31:29Z</time></trkpt><trkpt lat="39.01804120212163" lon="-9.22503114603807"><ele>392.0</ele><time>2026-04-03T11:31:30Z</time></trkpt><trkpt lat="39.017961088983554" lon="-9.22510403738735"><ele>392.0</ele><time>2026-04-03T11:31:31Z</time></trkpt><trkpt lat="39.01789567263859" lon="-9.225162315130873"><ele>392.0</ele><time>2026-04-03T11:31:32Z</time></trkpt><trkpt lat="39.0179583332355" lon="-9.225288759142062"><ele>392.0</ele><time>2026-04-03T11:31:34Z</time></trkpt><trkpt lat="39.01796721350722" lon="-9.225434432856272"><ele>392.0</ele><time>2026-04-03T11:31:36Z</time></trkpt><trkpt lat="39.017958973270716" lon="-9.225516188327859"><ele>392.0</ele><time>2026-04-03T11:32:48Z</time></trkpt><trkpt lat="39.01789814087486" lon="-9.225594125310893"><ele>392.0</ele><time>2026-04-03T11:35:06Z</time></trkpt><trkpt lat="39.01786033325749" lon="-9.225661939140776"><ele>392.0</ele><time>2026-04-03T11:35:08Z</time></trkpt><trkpt lat="39.01780076807797" lon="-9.225600726734076"><ele>392.0</ele><time>2026-04-03T11:35:11Z</time></trkpt><trkpt lat="39.01780074482291" lon="-9.225507905696388"><ele>392.0</ele><time>2026-04-03T11:35:13Z</time></trkpt><trkpt lat="39.01780136913859" lon="-9.22540037344379"><ele>392.0</ele><time>2026-04-03T11:35:15Z</time></trkpt><trkpt lat="39.01785329813356" lon="-9.225336392264042"><ele>392.0</ele><time>2026-04-03T11:35:18Z</time></trkpt><trkpt lat="39.017928430227435" lon="-9.225308000211763"><ele>392.0</ele><time>2026-04-03T11:35:21Z</time></trkpt><trkpt lat="39.01793921284932" lon="-9.225225665906443"><ele>391.99999999999994</ele><time>2026-04-03T11:35:23Z</time></trkpt><trkpt lat="39.01789244954904" lon="-9.225147245940713"><ele>392.0</ele><time>2026-04-03T11:35:25Z</time></trkpt><trkpt lat="39.0178193930932" lon="-9.225107997161732"><ele>392.0</ele><time>2026-04-03T11:35:27Z</time></trkpt><trkpt lat="39.01772664655103" lon="-9.225089463788334"><ele>392.0</ele><time>2026-04-03T11:35:29Z</time></trkpt><trkpt lat="39.017642363198014" lon="-9.225064965622137"><ele>391.99999999999994</ele><time>2026-04-03T11:35:31Z</time></trkpt><trkpt lat="39.01756682858923" lon="-9.225057889243129"><ele>392.0</ele><time>2026-04-03T11:35:33Z</time></trkpt><trkpt lat="39.01749861374185" lon="-9.225044402050802"><ele>387.57142857142856</ele><time>2026-04-03T11:35:36Z</time></trkpt><trkpt lat="39.01743697841474" lon="-9.22508454165974"><ele>383.1428571428571</ele><time>2026-04-03T11:36:29.999Z</time></trkpt><trkpt lat="39.017367067049044" lon="-9.225089825948162"><ele>378.7142857142857</ele><time>2026-04-03T11:36:34.999Z</time></trkpt><trkpt lat="39.017318767937866" lon="-9.225145722652886"><ele>374.2857142857143</ele><time>2026-04-03T11:36:43Z</time></trkpt><trkpt lat="39.0173720916314" lon="-9.225102077269984"><ele>369.85714285714283</ele><time>2026-04-03T11:37:40Z</time></trkpt><trkpt lat="39.017356329670065" lon="-9.225183679163761"><ele>365.42857142857144</ele><time>2026-04-03T11:44:22.001Z</time></trkpt><trkpt lat="39.01736321551136" lon="-9.225284689038128"><ele>361.0</ele><time>2026-04-03T11:44:27.001Z</time></trkpt><trkpt lat="39.017345185712784" lon="-9.225376311331898"><ele>361.0</ele><time>2026-04-03T11:44:31.001Z</time></trkpt><trkpt lat="39.01732071351336" lon="-9.225471061258766"><ele>361.0</ele><time>2026-04-03T11:44:35.001Z</time></trkpt><trkpt lat="39.01731184442167" lon="-9.225552338361547"><ele>361.0</ele><time>2026-04-03T11:44:38.001Z</time></trkpt><trkpt lat="39.01733122368795" lon="-9.225463479782"><ele>361.0</ele><time>2026-04-03T11:44:44Z</time></trkpt><trkpt lat="39.01738994591519" lon="-9.225513520871004"><ele>361.0</ele><time>2026-04-03T11:44:47Z</time></trkpt><trkpt lat="39.01744647448091" lon="-9.2255617572369"><ele>361.0</ele><time>2026-04-03T11:44:51Z</time></trkpt><trkpt lat="39.017387510272656" lon="-9.225608487123285"><ele>361.0</ele><time>2026-04-03T11:45:01Z</time></trkpt><trkpt lat="39.01732427015225" lon="-9.225600478029964"><ele>361.0</ele><time>2026-04-03T11:45:05Z</time></trkpt><trkpt lat="39.01725582086505" lon="-9.225591646333186"><ele>361.0</ele><time>2026-04-03T11:45:09Z</time></trkpt><trkpt lat="39.01733047267385" lon="-9.225604802843852"><ele>361.0</ele><time>2026-04-03T11:45:45Z</time></trkpt><trkpt lat="39.01739960132735" lon="-9.22560112542736"><ele>361.0</ele><time>2026-04-03T11:45:49.001Z</time></trkpt><trkpt lat="39.01747091902844" lon="-9.225603491943213"><ele>361.0</ele><time>2026-04-03T11:45:55.001Z</time></trkpt><trkpt lat="39.0174301663557" lon="-9.225521157389291"><ele>361.0</ele><time>2026-04-03T11:46:00.001Z</time></trkpt><trkpt lat="39.0173975755593" lon="-9.225442927240222"><ele>361.0</ele><time>2026-04-03T11:46:04.001Z</time></trkpt><trkpt lat="39.017374430444065" lon="-9.225351925784302"><ele>361.0</ele><time>2026-04-03T11:46:10.001Z</time></trkpt><trkpt lat="39.01736709408815" lon="-9.22526559680105"><ele>361.0</ele><time>2026-04-03T11:46:15.001Z</time></trkpt><trkpt lat="39.01737865560934" lon="-9.225172845131613"><ele>361.0</ele><time>2026-04-03T11:46:20.001Z</time></trkpt><trkpt lat="39.01740493399503" lon="-9.22509713732245"><ele>361.0</ele><time>2026-04-03T11:46:33.001Z</time></trkpt><trkpt lat="39.017472235452196" lon="-9.2250747513123"><ele>361.0</ele><time>2026-04-03T11:46:41.001Z</time></trkpt><trkpt lat="39.0175222756762" lon="-9.22502221419373"><ele>361.0</ele><time>2026-04-03T11:46:49.001Z</time></trkpt><trkpt lat="39.017583109639865" lon="-9.225079295479171"><ele>361.0</ele><time>2026-04-03T11:47:15.001Z</time></trkpt><trkpt lat="39.017644208089784" lon="-9.225105162260071"><ele>365.42857142857144</ele><time>2026-04-03T11:47:21.001Z</time></trkpt><trkpt lat="39.017691833235325" lon="-9.225176840710793"><ele>369.85714285714283</ele><time>2026-04-03T11:47:31.001Z</time></trkpt><trkpt lat="39.0176376679056" lon="-9.225250626727865"><ele>374.2857142857143</ele><time>2026-04-03T11:47:55.001Z</time></trkpt><trkpt lat="39.01767509980785" lon="-9.225330629332493"><ele>378.7142857142857</ele><time>2026-04-03T11:47:58.001Z</time></trkpt><trkpt lat="39.01766199949965" lon="-9.225241078496943"><ele>383.1428571428571</ele><time>2026-04-03T11:48:13.001Z</time></trkpt><trkpt lat="39.01759824816927" lon="-9.225208697519575"><ele>387.57142857142856</ele><time>2026-04-03T11:48:18.001Z</time></trkpt><trkpt lat="39.01755320154813" lon="-9.225141648112464"><ele>392.0</ele><time>2026-04-03T11:48:27.001Z</time></trkpt><trkpt lat="39.0175316350555" lon="-9.22505352719857"><ele>392.0</ele><time>2026-04-03T11:48:34.001Z</time></trkpt><trkpt lat="39.01762870016635" lon="-9.225089107356643"><ele>392.0</ele><time>2026-04-03T11:50:42.001Z</time></trkpt><trkpt lat="39.01772753887966" lon="-9.22510833776066"><ele>392.0</ele><time>2026-04-03T11:50:44.001Z</time></trkpt><trkpt lat="39.0178230988143" lon="-9.225139392206126"><ele>392.0</ele><time>2026-04-03T11:50:46.001Z</time></trkpt><trkpt lat="39.01789954309" lon="-9.22513063520341"><ele>392.0</ele><time>2026-04-03T11:50:48.001Z</time></trkpt><trkpt lat="39.01795006928713" lon="-9.225206126971544"><ele>391.99999999999994</ele><time>2026-04-03T11:50:50.001Z</time></trkpt><trkpt lat="39.01795579688862" lon="-9.22531246350429"><ele>392.0</ele><time>2026-04-03T11:50:52.001Z</time></trkpt><trkpt lat="39.01795493421198" lon="-9.225412839974933"><ele>392.0</ele><time>2026-04-03T11:50:54.001Z</time></trkpt><trkpt lat="39.01794595670541" lon="-9.225534446546915"><ele>392.0</ele><time>2026-04-03T11:50:56.001Z</time></trkpt><trkpt lat="39.017909929237256" lon="-9.225616939995128"><ele>391.99999999999994</ele><time>2026-04-03T11:50:57.001Z</time></trkpt><trkpt lat="39.01786265292038" lon="-9.225696058703996"><ele>392.0</ele><time>2026-04-03T11:50:58.001Z</time></trkpt><trkpt lat="39.01780097420516" lon="-9.22579106797717"><ele>391.49999999999994</ele><time>2026-04-03T11:50:59.001Z</time></trkpt><trkpt lat="39.017782610689025" lon="-9.22590560256669"><ele>391.0</ele><time>2026-04-03T11:51:00.001Z</time></trkpt><trkpt lat="39.0177657327837" lon="-9.226002509543823"><ele>390.5</ele><time>2026-04-03T11:51:01.001Z</time></trkpt><trkpt lat="39.01774314738176" lon="-9.226094438815206"><ele>390.0</ele><time>2026-04-03T11:51:02.001Z</time></trkpt><trkpt lat="39.01772431029927" lon="-9.226182854899"><ele>389.49999999999994</ele><time>2026-04-03T11:51:03.001Z</time></trkpt><trkpt lat="39.0177118589745" lon="-9.226274603629644"><ele>389.0</ele><time>2026-04-03T11:51:04.001Z</time></trkpt><trkpt lat="39.0177043995412" lon="-9.226364114673423"><ele>389.0</ele><time>2026-04-03T11:51:05.001Z</time></trkpt><trkpt lat="39.01766817414153" lon="-9.226446192981548"><ele>389.0</ele><time>2026-04-03T11:51:06.001Z</time></trkpt><trkpt lat="39.01762847952491" lon="-9.226513919044287"><ele>389.0</ele><time>2026-04-03T11:51:07.001Z</time></trkpt><trkpt lat="39.01759774409691" lon="-9.226591122402239"><ele>389.0</ele><time>2026-04-03T11:51:08.001Z</time></trkpt><trkpt lat="39.01754009901911" lon="-9.226643952717948"><ele>389.0</ele><time>2026-04-03T11:51:09.001Z</time></trkpt><trkpt lat="39.01748987187004" lon="-9.226711246845067"><ele>389.0</ele><time>2026-04-03T11:51:10.001Z</time></trkpt><trkpt lat="39.01743039984099" lon="-9.226755942623289"><ele>389.0</ele><time>2026-04-03T11:51:11.001Z</time></trkpt><trkpt lat="39.01735952815736" lon="-9.226786022125244"><ele>385.66666666666663</ele><time>2026-04-03T11:51:12.001Z</time></trkpt><trkpt lat="39.01728975279711" lon="-9.226819115347919"><ele>382.3333333333333</ele><time>2026-04-03T11:51:13.001Z</time></trkpt><trkpt lat="39.01721804911507" lon="-9.226864091147384"><ele>379.0</ele><time>2026-04-03T11:51:14.001Z</time></trkpt><trkpt lat="39.01714081900996" lon="-9.226912972214533"><ele>375.66666666666663</ele><time>2026-04-03T11:51:15.001Z</time></trkpt><trkpt lat="39.01705734459178" lon="-9.226927403708258"><ele>372.3333333333333</ele><time>2026-04-03T11:51:16.001Z</time></trkpt><trkpt lat="39.016971930852115" lon="-9.22690920084122"><ele>369.0</ele><time>2026-04-03T11:51:17.001Z</time></trkpt><trkpt lat="39.01689205071233" lon="-9.226881290558065"><ele>369.0</ele><time>2026-04-03T11:51:18.001Z</time></trkpt><trkpt lat="39.016812920525545" lon="-9.226858308809183"><ele>369.0</ele><time>2026-04-03T11:51:19.001Z</time></trkpt><trkpt lat="39.01674080933487" lon="-9.226846262261882"><ele>369.0</ele><time>2026-04-03T11:51:20.001Z</time></trkpt><trkpt lat="39.01666796894165" lon="-9.226829694840575"><ele>369.0</ele><time>2026-04-03T11:51:21.001Z</time></trkpt><trkpt lat="39.01659363807225" lon="-9.226837596838127"><ele>369.0</ele><time>2026-04-03T11:51:22.001Z</time></trkpt><trkpt lat="39.016525983249416" lon="-9.226824300870202"><ele>369.0</ele><time>2026-04-03T11:51:23.001Z</time></trkpt><trkpt lat="39.01642472137601" lon="-9.226816160452124"><ele>362.6</ele><time>2026-04-03T11:51:25.001Z</time></trkpt><trkpt lat="39.01635487472223" lon="-9.226860074266188"><ele>356.2</ele><time>2026-04-03T11:51:27.001Z</time></trkpt><trkpt lat="39.01635518574002" lon="-9.227007255147369"><ele>349.8</ele><time>2026-04-03T11:51:29.001Z</time></trkpt><trkpt lat="39.01644625752237" lon="-9.227059406633181"><ele>343.40000000000003</ele><time>2026-04-03T11:51:30.001Z</time></trkpt><trkpt lat="39.0165215992737" lon="-9.227119562065637"><ele>337.0</ele><time>2026-04-03T11:51:31.001Z</time></trkpt><trkpt lat="39.01659225545145" lon="-9.227160532081838"><ele>335.6</ele><time>2026-04-03T11:51:32.001Z</time></trkpt><trkpt lat="39.01668384485889" lon="-9.22725539719675"><ele>334.20000000000005</ele><time>2026-04-03T11:51:34.001Z</time></trkpt><trkpt lat="39.016671134185295" lon="-9.227395813147805"><ele>332.8</ele><time>2026-04-03T11:51:36.001Z</time></trkpt><trkpt lat="39.01659053759825" lon="-9.227436086825524"><ele>331.4</ele><time>2026-04-03T11:51:37.001Z</time></trkpt><trkpt lat="39.01649827659218" lon="-9.227389409669367"><ele>330.0</ele><time>2026-04-03T11:51:38.001Z</time></trkpt><trkpt lat="39.01641669479517" lon="-9.227381609088583"><ele>330.0</ele><time>2026-04-03T11:51:39.001Z</time></trkpt><trkpt lat="39.016340007041755" lon="-9.227386861910803"><ele>330.0</ele><time>2026-04-03T11:51:40.001Z</time></trkpt><trkpt lat="39.01626744043426" lon="-9.227398294256323"><ele>330.0</ele><time>2026-04-03T11:51:41.001Z</time></trkpt><trkpt lat="39.01621917602853" lon="-9.227452042227803"><ele>330.0</ele><time>2026-04-03T11:51:42.001Z</time></trkpt><trkpt lat="39.016209287529605" lon="-9.227600718705924"><ele>330.0</ele><time>2026-04-03T11:51:44.001Z</time></trkpt><trkpt lat="39.01626404084045" lon="-9.227706928933323"><ele>330.0</ele><time>2026-04-03T11:51:45.001Z</time></trkpt><trkpt lat="39.016327264940934" lon="-9.227786372931499"><ele>330.0</ele><time>2026-04-03T11:51:46.001Z</time></trkpt><trkpt lat="39.01638455535656" lon="-9.227885575146509"><ele>330.0</ele><time>2026-04-03T11:51:47.001Z</time></trkpt><trkpt lat="39.01642968408266" lon="-9.227968516905168"><ele>330.0</ele><time>2026-04-03T11:51:48.001Z</time></trkpt><trkpt lat="39.016467403439144" lon="-9.228054357348471"><ele>330.0</ele><time>2026-04-03T11:51:49.001Z</time></trkpt><trkpt lat="39.01647430864662" lon="-9.228152442435723"><ele>330.0</ele><time>2026-04-03T11:51:50.001Z</time></trkpt><trkpt lat="39.01648990391768" lon="-9.228247028348765"><ele>330.0</ele><time>2026-04-03T11:51:51.001Z</time></trkpt><trkpt lat="39.016509821701256" lon="-9.228341399845382"><ele>330.0</ele><time>2026-04-03T11:51:52.001Z</time></trkpt><trkpt lat="39.01657405733446" lon="-9.22841689129206"><ele>330.0</ele><time>2026-04-03T11:51:53.001Z</time></trkpt><trkpt lat="39.016654216568526" lon="-9.2284613310427"><ele>330.0</ele><time>2026-04-03T11:51:54.001Z</time></trkpt><trkpt lat="39.01672556321" lon="-9.228533680054223"><ele>330.0</ele><time>2026-04-03T11:51:55.001Z</time></trkpt><trkpt lat="39.01677681479965" lon="-9.22863730779691"><ele>330.0</ele><time>2026-04-03T11:51:56.001Z</time></trkpt><trkpt lat="39.01682169608091" lon="-9.2287621754616"><ele>330.0</ele><time>2026-04-03T11:51:57.001Z</time></trkpt><trkpt lat="39.01689962580118" lon="-9.228884120535897"><ele>330.0</ele><time>2026-04-03T11:51:58.001Z</time></trkpt><trkpt lat="39.01695993733926" lon="-9.229015831460485"><ele>330.0</ele><time>2026-04-03T11:51:59.001Z</time></trkpt><trkpt lat="39.017027525049485" lon="-9.229150906931036"><ele>330.0</ele><time>2026-04-03T11:52:00.001Z</time></trkpt><trkpt lat="39.01709926561631" lon="-9.229297421461876"><ele>327.0</ele><time>2026-04-03T11:52:01.001Z</time></trkpt><trkpt lat="39.01716528998964" lon="-9.229451762364015"><ele>324.0</ele><time>2026-04-03T11:52:02.001Z</time></trkpt><trkpt lat="39.0172334388513" lon="-9.2296143192592"><ele>321.0</ele><time>2026-04-03T11:52:03.001Z</time></trkpt><trkpt lat="39.01729964013912" lon="-9.2297725479211"><ele>318.0</ele><time>2026-04-03T11:52:04.001Z</time></trkpt><trkpt lat="39.01737055179161" lon="-9.229942726115453"><ele>315.0</ele><time>2026-04-03T11:52:05.001Z</time></trkpt><trkpt lat="39.01744341154302" lon="-9.230120093789273"><ele>312.0</ele><time>2026-04-03T11:52:06.001Z</time></trkpt><trkpt lat="39.017516034362686" lon="-9.230303159333994"><ele>309.0</ele><time>2026-04-03T11:52:07.001Z</time></trkpt><trkpt lat="39.0175871213033" lon="-9.230487042456046"><ele>306.75</ele><time>2026-04-03T11:52:08.001Z</time></trkpt><trkpt lat="39.01765832829423" lon="-9.230670710179968"><ele>304.5</ele><time>2026-04-03T11:52:09.001Z</time></trkpt><trkpt lat="39.01772568427318" lon="-9.230843295647952"><ele>302.25</ele><time>2026-04-03T11:52:10.001Z</time></trkpt><trkpt lat="39.01778732165117" lon="-9.230999294718233"><ele>300.0</ele><time>2026-04-03T11:52:11.001Z</time></trkpt><trkpt lat="39.01784988912556" lon="-9.231141777506831"><ele>300.0</ele><time>2026-04-03T11:52:12.001Z</time></trkpt><trkpt lat="39.017914093392925" lon="-9.231255130309398"><ele>300.0</ele><time>2026-04-03T11:52:13.001Z</time></trkpt><trkpt lat="39.01797691604247" lon="-9.231351570607757"><ele>300.0</ele><time>2026-04-03T11:52:14.001Z</time></trkpt><trkpt lat="39.01804365538005" lon="-9.231438482730601"><ele>300.0</ele><time>2026-04-03T11:52:15.001Z</time></trkpt><trkpt lat="39.018110885390854" lon="-9.23150809029499"><ele>300.0</ele><time>2026-04-03T11:52:16.001Z</time></trkpt><trkpt lat="39.01818646062902" lon="-9.231566642377308"><ele>297.0</ele><time>2026-04-03T11:52:17.001Z</time></trkpt><trkpt lat="39.01828361331707" lon="-9.231641312552581"><ele>294.0</ele><time>2026-04-03T11:52:18.001Z</time></trkpt><trkpt lat="39.01837989111244" lon="-9.231717721977212"><ele>291.0</ele><time>2026-04-03T11:52:19.001Z</time></trkpt><trkpt lat="39.018477237540395" lon="-9.231795272214647"><ele>288.0</ele><time>2026-04-03T11:52:20.001Z</time></trkpt><trkpt lat="39.01857958202125" lon="-9.231872487842997"><ele>286.8</ele><time>2026-04-03T11:52:21.001Z</time></trkpt><trkpt lat="39.018672333260746" lon="-9.231940793196866"><ele>285.6</ele><time>2026-04-03T11:52:22.001Z</time></trkpt><trkpt lat="39.01877000532373" lon="-9.23200529628453"><ele>284.4</ele><time>2026-04-03T11:52:23.001Z</time></trkpt><trkpt lat="39.018864982516426" lon="-9.23207138671672"><ele>283.2</ele><time>2026-04-03T11:52:24.001Z</time></trkpt><trkpt lat="39.01897393332355" lon="-9.232101031736978"><ele>282.0</ele><time>2026-04-03T11:52:25.001Z</time></trkpt><trkpt lat="39.0190799303784" lon="-9.232148943735108"><ele>276.75</ele><time>2026-04-03T11:52:26.001Z</time></trkpt><trkpt lat="39.019188188887966" lon="-9.232196894783415"><ele>271.5</ele><time>2026-04-03T11:52:27.001Z</time></trkpt><trkpt lat="39.01930518898013" lon="-9.232261751895983"><ele>266.25</ele><time>2026-04-03T11:52:28.001Z</time></trkpt><trkpt lat="39.019435361726984" lon="-9.232305138502186"><ele>261.0</ele><time>2026-04-03T11:52:29.001Z</time></trkpt><trkpt lat="39.019567516030854" lon="-9.232327862496591"><ele>257.75</ele><time>2026-04-03T11:52:30.001Z</time></trkpt><trkpt lat="39.01968333703019" lon="-9.232383455843143"><ele>254.5</ele><time>2026-04-03T11:52:31.001Z</time></trkpt><trkpt lat="39.01981365695452" lon="-9.232424593036086"><ele>251.25</ele><time>2026-04-03T11:52:32.001Z</time></trkpt><trkpt lat="39.019943579155665" lon="-9.232473995876237"><ele>248.0</ele><time>2026-04-03T11:52:33.001Z</time></trkpt><trkpt lat="39.020075218957615" lon="-9.23252912695888"><ele>245.0</ele><time>2026-04-03T11:52:34.001Z</time></trkpt><trkpt lat="39.0202063864119" lon="-9.232581020886816"><ele>242.0</ele><time>2026-04-03T11:52:35.001Z</time></trkpt><trkpt lat="39.020316747552535" lon="-9.232613017705578"><ele>239.0</ele><time>2026-04-03T11:52:36.001Z</time></trkpt><trkpt lat="39.020417810293026" lon="-9.232632117637905"><ele>236.0</ele><time>2026-04-03T11:52:37.001Z</time></trkpt><trkpt lat="39.02052044753205" lon="-9.23268839049504"><ele>236.0</ele><time>2026-04-03T11:52:38.001Z</time></trkpt><trkpt lat="39.020621370255746" lon="-9.232723635719857"><ele>236.00000000000003</ele><time>2026-04-03T11:52:39.001Z</time></trkpt><trkpt lat="39.02072506893916" lon="-9.232774772929833"><ele>236.00000000000003</ele><time>2026-04-03T11:52:40.001Z</time></trkpt><trkpt lat="39.02082169464333" lon="-9.232811845076563"><ele>236.0</ele><time>2026-04-03T11:52:41.001Z</time></trkpt><trkpt lat="39.02090851155662" lon="-9.232826643482943"><ele>236.0</ele><time>2026-04-03T11:52:42.001Z</time></trkpt><trkpt lat="39.02099274290579" lon="-9.232826048507137"><ele>233.50000000000003</ele><time>2026-04-03T11:52:43.001Z</time></trkpt><trkpt lat="39.021064873661395" lon="-9.232842755470791"><ele>231.0</ele><time>2026-04-03T11:52:44.001Z</time></trkpt><trkpt lat="39.021131079002885" lon="-9.232886933768"><ele>228.5</ele><time>2026-04-03T11:52:45.001Z</time></trkpt><trkpt lat="39.02118811456828" lon="-9.232947980993389"><ele>226.0</ele><time>2026-04-03T11:52:46.001Z</time></trkpt><trkpt lat="39.021240820675466" lon="-9.233020986151093"><ele>223.50000000000003</ele><time>2026-04-03T11:52:47.001Z</time></trkpt><trkpt lat="39.02129706823342" lon="-9.233088627523996"><ele>221.0</ele><time>2026-04-03T11:52:48.001Z</time></trkpt><trkpt lat="39.02139100164882" lon="-9.233168258545579"><ele>219.60000000000002</ele><time>2026-04-03T11:52:50.001Z</time></trkpt><trkpt lat="39.02149300226142" lon="-9.233218838453707"><ele>218.20000000000002</ele><time>2026-04-03T11:52:52.001Z</time></trkpt><trkpt lat="39.021554994674155" lon="-9.233287093580618"><ele>216.79999999999998</ele><time>2026-04-03T11:52:54.001Z</time></trkpt><trkpt lat="39.02149111515338" lon="-9.233472776273317"><ele>215.39999999999998</ele><time>2026-04-03T11:52:55.001Z</time></trkpt><trkpt lat="39.02145512199791" lon="-9.233555387581548"><ele>214.0</ele><time>2026-04-03T11:52:56.001Z</time></trkpt><trkpt lat="39.02141939803206" lon="-9.233647583028574"><ele>213.99999999999997</ele><time>2026-04-03T11:52:57.001Z</time></trkpt><trkpt lat="39.021384913368486" lon="-9.233750319391136"><ele>214.0</ele><time>2026-04-03T11:52:58.001Z</time></trkpt><trkpt lat="39.0213463275971" lon="-9.23384834243762"><ele>214.0</ele><time>2026-04-03T11:52:59.001Z</time></trkpt><trkpt lat="39.02129259065524" lon="-9.233937517656804"><ele>214.0</ele><time>2026-04-03T11:53:00.001Z</time></trkpt><trkpt lat="39.021229660238234" lon="-9.234029943438681"><ele>213.99999999999997</ele><time>2026-04-03T11:53:01.001Z</time></trkpt><trkpt lat="39.02116093352508" lon="-9.234107629196549"><ele>214.0</ele><time>2026-04-03T11:53:02.001Z</time></trkpt><trkpt lat="39.021086563344156" lon="-9.23419050130912"><ele>210.79999999999998</ele><time>2026-04-03T11:53:03.001Z</time></trkpt><trkpt lat="39.02100121749618" lon="-9.234273898648656"><ele>207.59999999999997</ele><time>2026-04-03T11:53:04.001Z</time></trkpt><trkpt lat="39.020906961406894" lon="-9.234363600121139"><ele>204.4</ele><time>2026-04-03T11:53:05.001Z</time></trkpt><trkpt lat="39.020818854182004" lon="-9.234448864376475"><ele>201.2</ele><time>2026-04-03T11:53:06.001Z</time></trkpt><trkpt lat="39.02074043229526" lon="-9.234528284165266"><ele>198.0</ele><time>2026-04-03T11:53:07.001Z</time></trkpt><trkpt lat="39.020670863510375" lon="-9.23463286830761"><ele>197.66666666666666</ele><time>2026-04-03T11:53:08.001Z</time></trkpt><trkpt lat="39.020606549852566" lon="-9.234731080298834"><ele>197.33333333333331</ele><time>2026-04-03T11:53:09.001Z</time></trkpt><trkpt lat="39.02053259621586" lon="-9.234785516959793"><ele>197.0</ele><time>2026-04-03T11:53:10.001Z</time></trkpt><trkpt lat="39.02047361470667" lon="-9.234835043411074"><ele>196.66666666666666</ele><time>2026-04-03T11:53:11.001Z</time></trkpt><trkpt lat="39.02040216201786" lon="-9.234845102460788"><ele>196.33333333333331</ele><time>2026-04-03T11:53:12.001Z</time></trkpt><trkpt lat="39.02033579708289" lon="-9.234837208953014"><ele>196.0</ele><time>2026-04-03T11:53:13.001Z</time></trkpt><trkpt lat="39.02027495089261" lon="-9.234807768435982"><ele>195.99999999999997</ele><time>2026-04-03T11:53:14.001Z</time></trkpt><trkpt lat="39.02019428238752" lon="-9.234773696066108"><ele>196.0</ele><time>2026-04-03T11:53:15.001Z</time></trkpt><trkpt lat="39.02010736134594" lon="-9.234748315966753"><ele>196.0</ele><time>2026-04-03T11:53:16.001Z</time></trkpt><trkpt lat="39.02002121281233" lon="-9.234725704254917"><ele>196.0</ele><time>2026-04-03T11:53:17.001Z</time></trkpt><trkpt lat="39.01993991926271" lon="-9.234743764114159"><ele>195.99999999999997</ele><time>2026-04-03T11:53:18.001Z</time></trkpt><trkpt lat="39.01987204414641" lon="-9.234798588149166"><ele>196.0</ele><time>2026-04-03T11:53:19.001Z</time></trkpt><trkpt lat="39.01982499910504" lon="-9.234885079100396"><ele>192.20000000000002</ele><time>2026-04-03T11:53:20.001Z</time></trkpt><trkpt lat="39.01980068304398" lon="-9.23498377585912"><ele>188.4</ele><time>2026-04-03T11:53:21.001Z</time></trkpt><trkpt lat="39.019753635974915" lon="-9.235076208860434"><ele>184.6</ele><time>2026-04-03T11:53:22.001Z</time></trkpt><trkpt lat="39.019652747927935" lon="-9.235118909043525"><ele>180.8</ele><time>2026-04-03T11:53:23.001Z</time></trkpt><trkpt lat="39.019566771286335" lon="-9.235164956847491"><ele>177.0</ele><time>2026-04-03T11:53:24.001Z</time></trkpt><trkpt lat="39.01947558781621" lon="-9.235191527846137"><ele>177.0</ele><time>2026-04-03T11:53:25.001Z</time></trkpt><trkpt lat="39.01938728522096" lon="-9.235218197940366"><ele>177.0</ele><time>2026-04-03T11:53:26.001Z</time></trkpt><trkpt lat="39.01931700204378" lon="-9.235286082566319"><ele>177.0</ele><time>2026-04-03T11:53:27.001Z</time></trkpt><trkpt lat="39.01930145968409" lon="-9.235409455114961"><ele>177.0</ele><time>2026-04-03T11:53:28.001Z</time></trkpt><trkpt lat="39.0192817278706" lon="-9.235520348787894"><ele>177.0</ele><time>2026-04-03T11:53:29.001Z</time></trkpt><trkpt lat="39.01927182018069" lon="-9.23565206358143"><ele>176.2</ele><time>2026-04-03T11:53:30.001Z</time></trkpt><trkpt lat="39.01927007059385" lon="-9.235782552703574"><ele>175.39999999999998</ele><time>2026-04-03T11:53:31.001Z</time></trkpt><trkpt lat="39.019241476883806" lon="-9.23590581116567"><ele>174.60000000000002</ele><time>2026-04-03T11:53:32.001Z</time></trkpt><trkpt lat="39.019228520644575" lon="-9.236020169798463"><ele>173.8</ele><time>2026-04-03T11:53:33.001Z</time></trkpt><trkpt lat="39.01919552500745" lon="-9.236116172132357"><ele>173.0</ele><time>2026-04-03T11:53:34.001Z</time></trkpt><trkpt lat="39.01914784666977" lon="-9.236195978421168"><ele>173.0</ele><time>2026-04-03T11:53:35.001Z</time></trkpt><trkpt lat="39.019103631405784" lon="-9.236282883971217"><ele>173.0</ele><time>2026-04-03T11:53:36.001Z</time></trkpt><trkpt lat="39.01909585543096" lon="-9.236380063638538"><ele>173.0</ele><time>2026-04-03T11:53:37.001Z</time></trkpt><trkpt lat="39.01910346387379" lon="-9.236463751249417"><ele>173.0</ele><time>2026-04-03T11:53:38.001Z</time></trkpt><trkpt lat="39.019092381648136" lon="-9.236561116056977"><ele>173.0</ele><time>2026-04-03T11:53:39.001Z</time></trkpt><trkpt lat="39.01914266491512" lon="-9.236658019874586"><ele>173.0</ele><time>2026-04-03T11:53:40.001Z</time></trkpt><trkpt lat="39.01919573238061" lon="-9.236745696054625"><ele>170.33333333333331</ele><time>2026-04-03T11:53:41Z</time></trkpt><trkpt lat="39.01923539192334" lon="-9.236835370615854"><ele>167.66666666666666</ele><time>2026-04-03T11:53:42Z</time></trkpt><trkpt lat="39.019283372137124" lon="-9.236928334009296"><ele>165.0</ele><time>2026-04-03T11:53:43Z</time></trkpt><trkpt lat="39.01931069944776" lon="-9.237024536834964"><ele>162.33333333333334</ele><time>2026-04-03T11:53:44Z</time></trkpt><trkpt lat="39.0193356242138" lon="-9.237126249907506"><ele>159.66666666666669</ele><time>2026-04-03T11:53:45Z</time></trkpt><trkpt lat="39.019366598596605" lon="-9.237217872076567"><ele>157.0</ele><time>2026-04-03T11:53:46Z</time></trkpt><trkpt lat="39.019411900011484" lon="-9.237290810707531"><ele>155.99999999999997</ele><time>2026-04-03T11:53:47Z</time></trkpt><trkpt lat="39.01945191485822" lon="-9.237380829594454"><ele>155.0</ele><time>2026-04-03T11:53:48Z</time></trkpt><trkpt lat="39.01947111690926" lon="-9.237473841309765"><ele>154.0</ele><time>2026-04-03T11:53:49Z</time></trkpt><trkpt lat="39.01949421755722" lon="-9.237552876115029"><ele>153.0</ele><time>2026-04-03T11:53:50Z</time></trkpt><trkpt lat="39.01949404413365" lon="-9.237639018110444"><ele>152.0</ele><time>2026-04-03T11:53:51Z</time></trkpt><trkpt lat="39.01948005598106" lon="-9.23773055710398"><ele>150.99999999999997</ele><time>2026-04-03T11:53:52Z</time></trkpt><trkpt lat="39.01946673907137" lon="-9.237827277466987"><ele>150.0</ele><time>2026-04-03T11:53:53Z</time></trkpt><trkpt lat="39.01946724334792" lon="-9.237927110781508"><ele>150.0</ele><time>2026-04-03T11:53:54Z</time></trkpt><trkpt lat="39.01948636301207" lon="-9.238016237200773"><ele>150.0</ele><time>2026-04-03T11:53:55Z</time></trkpt><trkpt lat="39.01950603827555" lon="-9.238104511844941"><ele>150.0</ele><time>2026-04-03T11:53:56.001Z</time></trkpt><trkpt lat="39.01954669604835" lon="-9.23818462519547"><ele>150.0</ele><time>2026-04-03T11:53:57.001Z</time></trkpt><trkpt lat="39.0195674287523" lon="-9.238268428536834"><ele>150.0</ele><time>2026-04-03T11:53:58.001Z</time></trkpt><trkpt lat="39.01957826857927" lon="-9.238354203191696"><ele>150.0</ele><time>2026-04-03T11:53:59.001Z</time></trkpt><trkpt lat="39.019598400904236" lon="-9.238495985397643"><ele>149.0</ele><time>2026-04-03T11:54:01.001Z</time></trkpt><trkpt lat="39.019642997081235" lon="-9.238576853005263"><ele>148.0</ele><time>2026-04-03T11:54:03.001Z</time></trkpt><trkpt lat="39.01962857113185" lon="-9.238726328751982"><ele>147.0</ele><time>2026-04-03T11:54:15.001Z</time></trkpt><trkpt lat="39.019541080627256" lon="-9.238719012654466"><ele>146.0</ele><time>2026-04-03T11:54:16.001Z</time></trkpt><trkpt lat="39.01945376027208" lon="-9.238723923662883"><ele>145.0</ele><time>2026-04-03T11:54:17.001Z</time></trkpt><trkpt lat="39.01936040236733" lon="-9.238758233519892"><ele>145.0</ele><time>2026-04-03T11:54:18.001Z</time></trkpt><trkpt lat="39.019265846105455" lon="-9.238851708840834"><ele>145.0</ele><time>2026-04-03T11:54:19.001Z</time></trkpt><trkpt lat="39.01915766665132" lon="-9.238924438260575"><ele>145.0</ele><time>2026-04-03T11:54:20.001Z</time></trkpt><trkpt lat="39.01906616251029" lon="-9.23901623118558"><ele>145.0</ele><time>2026-04-03T11:54:21.001Z</time></trkpt><trkpt lat="39.018987450436555" lon="-9.239092796233917"><ele>142.6</ele><time>2026-04-03T11:54:22.001Z</time></trkpt><trkpt lat="39.018905479900965" lon="-9.239152435078168"><ele>140.2</ele><time>2026-04-03T11:54:23.001Z</time></trkpt><trkpt lat="39.018846026335474" lon="-9.239226797911984"><ele>137.8</ele><time>2026-04-03T11:54:24.001Z</time></trkpt><trkpt lat="39.018745256054714" lon="-9.239223836192044"><ele>135.4</ele><time>2026-04-03T11:54:25.001Z</time></trkpt><trkpt lat="39.01865665887669" lon="-9.23924124632198"><ele>133.0</ele><time>2026-04-03T11:54:26.001Z</time></trkpt><trkpt lat="39.01855455333459" lon="-9.239268246233777"><ele>133.0</ele><time>2026-04-03T11:54:27.001Z</time></trkpt><trkpt lat="39.01845764792775" lon="-9.239294814697082"><ele>133.0</ele><time>2026-04-03T11:54:28.001Z</time></trkpt><trkpt lat="39.01836179183239" lon="-9.239311715783273"><ele>133.0</ele><time>2026-04-03T11:54:29.001Z</time></trkpt><trkpt lat="39.01827754728844" lon="-9.239325517489034"><ele>133.0</ele><time>2026-04-03T11:54:30.001Z</time></trkpt><trkpt lat="39.01820290047215" lon="-9.239362791032146"><ele>133.0</ele><time>2026-04-03T11:54:31.001Z</time></trkpt><trkpt lat="39.01812307472503" lon="-9.239363876036736"><ele>133.0</ele><time>2026-04-03T11:54:32.001Z</time></trkpt><trkpt lat="39.018051251133045" lon="-9.239376183737146"><ele>133.33333333333334</ele><time>2026-04-03T11:54:33.001Z</time></trkpt><trkpt lat="39.017984665694875" lon="-9.239385980278145"><ele>133.66666666666669</ele><time>2026-04-03T11:54:34.001Z</time></trkpt><trkpt lat="39.01789956806985" lon="-9.239397340937185"><ele>134.0</ele><time>2026-04-03T11:54:36.001Z</time></trkpt><trkpt lat="39.01795548433465" lon="-9.239459690015964"><ele>134.33333333333334</ele><time>2026-04-03T11:54:40.001Z</time></trkpt><trkpt lat="39.01801681069459" lon="-9.239499554568045"><ele>134.66666666666666</ele><time>2026-04-03T11:54:50.001Z</time></trkpt><trkpt lat="39.01808267889416" lon="-9.239463799718452"><ele>135.0</ele><time>2026-04-03T11:54:51.001Z</time></trkpt><trkpt lat="39.01816612532605" lon="-9.239444064265756"><ele>135.0</ele><time>2026-04-03T11:54:52.001Z</time></trkpt><trkpt lat="39.018242036471314" lon="-9.239438594517496"><ele>135.0</ele><time>2026-04-03T11:54:53.001Z</time></trkpt><trkpt lat="39.01830926967162" lon="-9.239456057481771"><ele>135.0</ele><time>2026-04-03T11:54:54.001Z</time></trkpt><trkpt lat="39.01840733799039" lon="-9.239472862459513"><ele>135.0</ele><time>2026-04-03T11:54:56.001Z</time></trkpt><trkpt lat="39.01847015834125" lon="-9.239463259691908"><ele>135.0</ele><time>2026-04-03T11:55:00.001Z</time></trkpt><trkpt lat="39.01847342984695" lon="-9.239573451577526"><ele>135.0</ele><time>2026-04-03T11:55:04.001Z</time></trkpt><trkpt lat="39.01837320476087" lon="-9.239526214775145"><ele>135.0</ele><time>2026-04-03T11:56:28Z</time></trkpt><trkpt lat="39.01827696612334" lon="-9.239455263755085"><ele>135.0</ele><time>2026-04-03T11:56:30Z</time></trkpt><trkpt lat="39.018192834920384" lon="-9.239463015728285"><ele>135.0</ele><time>2026-04-03T11:56:31Z</time></trkpt><trkpt lat="39.01810200853086" lon="-9.239483972714943"><ele>135.0</ele><time>2026-04-03T11:56:32Z</time></trkpt><trkpt lat="39.017999040644874" lon="-9.239485661568454"><ele>135.0</ele><time>2026-04-03T11:56:33Z</time></trkpt><trkpt lat="39.01789457755386" lon="-9.239457163540845"><ele>135.0</ele><time>2026-04-03T11:56:34Z</time></trkpt><trkpt lat="39.01778721645419" lon="-9.239392237824607"><ele>135.0</ele><time>2026-04-03T11:56:35Z</time></trkpt><trkpt lat="39.01767544027973" lon="-9.239321657905151"><ele>135.0</ele><time>2026-04-03T11:56:36Z</time></trkpt><trkpt lat="39.0175475279192" lon="-9.239268544461607"><ele>135.0</ele><time>2026-04-03T11:56:37Z</time></trkpt><trkpt lat="39.01742737011895" lon="-9.23921636470054"><ele>134.75</ele><time>2026-04-03T11:56:38Z</time></trkpt><trkpt lat="39.017293297655016" lon="-9.239153683444234"><ele>134.5</ele><time>2026-04-03T11:56:39Z</time></trkpt><trkpt lat="39.017161008509675" lon="-9.239093658831369"><ele>134.25</ele><time>2026-04-03T11:56:40Z</time></trkpt><trkpt lat="39.01701442354746" lon="-9.239032676408705"><ele>134.0</ele><time>2026-04-03T11:56:41Z</time></trkpt><trkpt lat="39.016856224198875" lon="-9.23896947617299"><ele>134.66666666666666</ele><time>2026-04-03T11:56:42Z</time></trkpt><trkpt lat="39.01670531263036" lon="-9.23889843593892"><ele>135.33333333333334</ele><time>2026-04-03T11:56:43Z</time></trkpt><trkpt lat="39.016565157272964" lon="-9.238805447184928"><ele>136.0</ele><time>2026-04-03T11:56:44Z</time></trkpt><trkpt lat="39.016463730832456" lon="-9.238686718763551"><ele>136.0</ele><time>2026-04-03T11:56:45Z</time></trkpt><trkpt lat="39.016375510986826" lon="-9.238557629422859"><ele>136.0</ele><time>2026-04-03T11:56:46Z</time></trkpt><trkpt lat="39.01629592566369" lon="-9.238423328582758"><ele>136.0</ele><time>2026-04-03T11:56:47Z</time></trkpt><trkpt lat="39.016213709778825" lon="-9.238289677029254"><ele>136.0</ele><time>2026-04-03T11:56:48.001Z</time></trkpt><trkpt lat="39.01614325783277" lon="-9.23817201793019"><ele>136.66666666666669</ele><time>2026-04-03T11:56:49.001Z</time></trkpt><trkpt lat="39.016098557952624" lon="-9.238070985709726"><ele>137.33333333333334</ele><time>2026-04-03T11:56:51.001Z</time></trkpt><trkpt lat="39.01602369569585" lon="-9.238019437608331"><ele>138.0</ele><time>2026-04-03T11:57:01.001Z</time></trkpt><trkpt lat="39.015973072895406" lon="-9.237959174600197"><ele>138.66666666666666</ele><time>2026-04-03T11:57:02.001Z</time></trkpt><trkpt lat="39.015935183719726" lon="-9.237855067137858"><ele>139.33333333333331</ele><time>2026-04-03T11:57:03.001Z</time></trkpt><trkpt lat="39.015857434568446" lon="-9.23775741242435"><ele>140.0</ele><time>2026-04-03T11:57:04.001Z</time></trkpt><trkpt lat="39.01574919288371" lon="-9.237647671807865"><ele>140.0</ele><time>2026-04-03T11:57:05.001Z</time></trkpt><trkpt lat="39.01563550099537" lon="-9.23751999160357"><ele>140.0</ele><time>2026-04-03T11:57:06.001Z</time></trkpt><trkpt lat="39.01550837055135" lon="-9.237369485722503"><ele>140.0</ele><time>2026-04-03T11:57:07.001Z</time></trkpt><trkpt lat="39.01536306936559" lon="-9.237226904120051"><ele>142.0</ele><time>2026-04-03T11:57:08.001Z</time></trkpt><trkpt lat="39.015198798476526" lon="-9.237128161636054"><ele>144.0</ele><time>2026-04-03T11:57:09.001Z</time></trkpt><trkpt lat="39.01501542963008" lon="-9.237061895366004"><ele>146.0</ele><time>2026-04-03T11:57:10.001Z</time></trkpt><trkpt lat="39.01485365163608" lon="-9.23700378209866"><ele>146.0</ele><time>2026-04-03T11:57:11.001Z</time></trkpt><trkpt lat="39.01472343666156" lon="-9.23693088397522"><ele>146.0</ele><time>2026-04-03T11:57:12.001Z</time></trkpt><trkpt lat="39.01460502904421" lon="-9.236900614647332"><ele>146.0</ele><time>2026-04-03T11:57:13.001Z</time></trkpt><trkpt lat="39.01451009535343" lon="-9.236862965706958"><ele>146.0</ele><time>2026-04-03T11:57:14.001Z</time></trkpt><trkpt lat="39.01443757806768" lon="-9.236828091144847"><ele>146.0</ele><time>2026-04-03T11:57:16.001Z</time></trkpt><trkpt lat="39.014466515760304" lon="-9.237135628778386"><ele>146.0</ele><time>2026-04-03T11:57:18.001Z</time></trkpt><trkpt lat="39.01444289277839" lon="-9.23725334881251"><ele>146.0</ele><time>2026-04-03T11:57:19.001Z</time></trkpt><trkpt lat="39.01442886702215" lon="-9.237374304574328"><ele>146.0</ele><time>2026-04-03T11:57:20Z</time></trkpt><trkpt lat="39.01441849975342" lon="-9.237509252771625"><ele>146.0</ele><time>2026-04-03T11:57:21Z</time></trkpt><trkpt lat="39.014401840961334" lon="-9.237644112091962"><ele>146.0</ele><time>2026-04-03T11:57:22Z</time></trkpt><trkpt lat="39.014327780469834" lon="-9.237765338699175"><ele>146.25</ele><time>2026-04-03T11:57:23Z</time></trkpt><trkpt lat="39.0142585894365" lon="-9.23789726887261"><ele>146.5</ele><time>2026-04-03T11:57:24Z</time></trkpt><trkpt lat="39.01418665607215" lon="-9.238027740557381"><ele>146.75</ele><time>2026-04-03T11:57:25Z</time></trkpt><trkpt lat="39.01414058384681" lon="-9.238153720887048"><ele>147.0</ele><time>2026-04-03T11:57:26Z</time></trkpt><trkpt lat="39.0141198325796" lon="-9.238282405665602"><ele>144.66666666666666</ele><time>2026-04-03T11:57:27Z</time></trkpt><trkpt lat="39.014087434400416" lon="-9.238404454949695"><ele>142.33333333333334</ele><time>2026-04-03T11:57:28Z</time></trkpt><trkpt lat="39.01404076805852" lon="-9.238523274503331"><ele>140.0</ele><time>2026-04-03T11:57:29Z</time></trkpt><trkpt lat="39.0140051464642" lon="-9.238626210054099"><ele>137.66666666666669</ele><time>2026-04-03T11:57:30Z</time></trkpt><trkpt lat="39.013975128159686" lon="-9.238723279769234"><ele>135.33333333333334</ele><time>2026-04-03T11:57:31Z</time></trkpt><trkpt lat="39.01395620735633" lon="-9.238814679251842"><ele>133.0</ele><time>2026-04-03T11:57:32Z</time></trkpt><trkpt lat="39.013953466232586" lon="-9.238925545198857"><ele>133.6</ele><time>2026-04-03T11:57:33Z</time></trkpt><trkpt lat="39.01394996074399" lon="-9.239033656373838"><ele>134.20000000000002</ele><time>2026-04-03T11:57:34Z</time></trkpt><trkpt lat="39.01392903367708" lon="-9.239138757164769"><ele>134.8</ele><time>2026-04-03T11:57:35Z</time></trkpt><trkpt lat="39.013927193160406" lon="-9.239222551590837"><ele>135.4</ele><time>2026-04-03T11:57:36Z</time></trkpt><trkpt lat="39.01394806393371" lon="-9.239383759234606"><ele>136.0</ele><time>2026-04-03T11:57:38Z</time></trkpt><trkpt lat="39.013845386220346" lon="-9.239460883885338"><ele>136.0</ele><time>2026-04-03T11:57:39Z</time></trkpt><trkpt lat="39.01377010514625" lon="-9.239517860259822"><ele>136.0</ele><time>2026-04-03T11:57:40Z</time></trkpt><trkpt lat="39.013695434174096" lon="-9.239578032560733"><ele>136.0</ele><time>2026-04-03T11:57:41Z</time></trkpt><trkpt lat="39.01360369758688" lon="-9.239620189775447"><ele>136.0</ele><time>2026-04-03T11:57:42Z</time></trkpt><trkpt lat="39.01351287902864" lon="-9.239646124293795"><ele>136.0</ele><time>2026-04-03T11:57:43Z</time></trkpt><trkpt lat="39.01343039955217" lon="-9.239714423200894"><ele>136.0</ele><time>2026-04-03T11:57:44Z</time></trkpt><trkpt lat="39.0133374777329" lon="-9.239778916073464"><ele>136.0</ele><time>2026-04-03T11:57:45Z</time></trkpt><trkpt lat="39.0132402604087" lon="-9.239847504697405"><ele>136.0</ele><time>2026-04-03T11:57:46Z</time></trkpt><trkpt lat="39.01313786970716" lon="-9.239911199533054"><ele>136.0</ele><time>2026-04-03T11:57:47Z</time></trkpt><trkpt lat="39.01302959045956" lon="-9.239937399977695"><ele>136.0</ele><time>2026-04-03T11:57:48Z</time></trkpt><trkpt lat="39.01292918277551" lon="-9.240000812430033"><ele>134.5</ele><time>2026-04-03T11:57:49Z</time></trkpt><trkpt lat="39.012815882429514" lon="-9.240049692427112"><ele>133.0</ele><time>2026-04-03T11:57:50Z</time></trkpt><trkpt lat="39.01270012566619" lon="-9.240099632113353"><ele>131.5</ele><time>2026-04-03T11:57:51Z</time></trkpt><trkpt lat="39.01258154987334" lon="-9.240148776443993"><ele>130.0</ele><time>2026-04-03T11:57:52Z</time></trkpt><trkpt lat="39.012463389190394" lon="-9.24019698083428"><ele>128.0</ele><time>2026-04-03T11:57:53Z</time></trkpt><trkpt lat="39.0123568825606" lon="-9.240241203015474"><ele>126.0</ele><time>2026-04-03T11:57:54Z</time></trkpt><trkpt lat="39.012260109563805" lon="-9.240282067414785"><ele>124.0</ele><time>2026-04-03T11:57:55Z</time></trkpt><trkpt lat="39.0121875322486" lon="-9.240325497888731"><ele>122.0</ele><time>2026-04-03T11:57:56Z</time></trkpt><trkpt lat="39.01212293398712" lon="-9.240382332824646"><ele>120.00000000000001</ele><time>2026-04-03T11:57:57Z</time></trkpt><trkpt lat="39.012087027570374" lon="-9.24045369832557"><ele>118.0</ele><time>2026-04-03T11:57:58Z</time></trkpt><trkpt lat="39.012071805479415" lon="-9.240534334505782"><ele>118.00000000000001</ele><time>2026-04-03T11:57:59Z</time></trkpt><trkpt lat="39.01205869901133" lon="-9.240624997547787"><ele>118.0</ele><time>2026-04-03T11:58:00Z</time></trkpt><trkpt lat="39.012044491403216" lon="-9.240716345673013"><ele>118.0</ele><time>2026-04-03T11:58:01Z</time></trkpt><trkpt lat="39.01200538354999" lon="-9.240853451647864"><ele>118.0</ele><time>2026-04-03T11:58:03Z</time></trkpt><trkpt lat="39.011985408859175" lon="-9.240940536948187"><ele>118.00000000000001</ele><time>2026-04-03T11:58:04Z</time></trkpt><trkpt lat="39.012007607923934" lon="-9.241027688551055"><ele>118.0</ele><time>2026-04-03T11:58:05Z</time></trkpt><trkpt lat="39.0120611254476" lon="-9.241156585901416"><ele>119.00000000000001</ele><time>2026-04-03T11:58:07Z</time></trkpt><trkpt lat="39.01210411088129" lon="-9.241253671472982"><ele>120.0</ele><time>2026-04-03T11:58:10Z</time></trkpt><trkpt lat="39.01213467278148" lon="-9.241340968338086"><ele>121.0</ele><time>2026-04-03T11:58:12Z</time></trkpt><trkpt lat="39.0121430255185" lon="-9.24145474511624"><ele>122.0</ele><time>2026-04-03T11:58:14Z</time></trkpt><trkpt lat="39.01211734712045" lon="-9.241594923093777"><ele>123.00000000000001</ele><time>2026-04-03T11:58:16Z</time></trkpt><trkpt lat="39.01208363147979" lon="-9.241673284717574"><ele>124.0</ele><time>2026-04-03T11:58:17Z</time></trkpt><trkpt lat="39.01203239407333" lon="-9.24172251107407"><ele>124.0</ele><time>2026-04-03T11:58:18Z</time></trkpt><trkpt lat="39.01195479289997" lon="-9.241825725598348"><ele>124.0</ele><time>2026-04-03T11:58:20Z</time></trkpt><trkpt lat="39.011892716116776" lon="-9.241917538450025"><ele>124.0</ele><time>2026-04-03T11:58:22Z</time></trkpt><trkpt lat="39.01207268309765" lon="-9.242262328858748"><ele>123.28571428571429</ele><time>2026-04-03T11:58:24Z</time></trkpt><trkpt lat="39.01209452703319" lon="-9.242341603229791"><ele>122.57142857142858</ele><time>2026-04-03T11:58:25Z</time></trkpt><trkpt lat="39.0121079522245" lon="-9.242421461212246"><ele>121.85714285714286</ele><time>2026-04-03T11:58:26Z</time></trkpt><trkpt lat="39.012103545426704" lon="-9.242514354145667"><ele>121.14285714285714</ele><time>2026-04-03T11:58:27Z</time></trkpt><trkpt lat="39.012091225365" lon="-9.242604542687474"><ele>120.42857142857143</ele><time>2026-04-03T11:58:28Z</time></trkpt><trkpt lat="39.0120736012486" lon="-9.242696449771238"><ele>119.71428571428572</ele><time>2026-04-03T11:58:29Z</time></trkpt><trkpt lat="39.01207514519685" lon="-9.242791013640199"><ele>119.0</ele><time>2026-04-03T11:58:30Z</time></trkpt><trkpt lat="39.012079869997535" lon="-9.242881794688753"><ele>118.99999999999999</ele><time>2026-04-03T11:58:31Z</time></trkpt><trkpt lat="39.01204656662621" lon="-9.242984206144566"><ele>119.0</ele><time>2026-04-03T11:58:32Z</time></trkpt><trkpt lat="39.011990608986444" lon="-9.243078301162791"><ele>119.0</ele><time>2026-04-03T11:58:33Z</time></trkpt><trkpt lat="39.011976617380405" lon="-9.243164625803514"><ele>119.0</ele><time>2026-04-03T11:58:34Z</time></trkpt><trkpt lat="39.01199136367126" lon="-9.243282117619172"><ele>118.99999999999999</ele><time>2026-04-03T11:58:35Z</time></trkpt><trkpt lat="39.01200209938803" lon="-9.243378768636367"><ele>119.0</ele><time>2026-04-03T11:58:36Z</time></trkpt><trkpt lat="39.01201473805569" lon="-9.243472642776336"><ele>118.33333333333333</ele><time>2026-04-03T11:58:37Z</time></trkpt><trkpt lat="39.012033178010135" lon="-9.243623917190467"><ele>117.66666666666666</ele><time>2026-04-03T11:58:39Z</time></trkpt><trkpt lat="39.012020164386456" lon="-9.243711903372214"><ele>117.0</ele><time>2026-04-03T11:58:40Z</time></trkpt><trkpt lat="39.01199879959638" lon="-9.243793099728377"><ele>116.33333333333334</ele><time>2026-04-03T11:58:41Z</time></trkpt><trkpt lat="39.0119937686547" lon="-9.243882692657188"><ele>115.66666666666667</ele><time>2026-04-03T11:58:42Z</time></trkpt><trkpt lat="39.01197837020853" lon="-9.243974514345094"><ele>115.0</ele><time>2026-04-03T11:58:43Z</time></trkpt><trkpt lat="39.011960958213464" lon="-9.244064407833473"><ele>113.4</ele><time>2026-04-03T11:58:44Z</time></trkpt><trkpt lat="39.011969176848226" lon="-9.244160320356325"><ele>111.8</ele><time>2026-04-03T11:58:45Z</time></trkpt><trkpt lat="39.01194962420229" lon="-9.244245434436104"><ele>110.19999999999999</ele><time>2026-04-03T11:58:46Z</time></trkpt><trkpt lat="39.0119317824836" lon="-9.244395152106806"><ele>108.6</ele><time>2026-04-03T11:58:48Z</time></trkpt><trkpt lat="39.011898638124414" lon="-9.244555489849127"><ele>107.0</ele><time>2026-04-03T11:58:50Z</time></trkpt><trkpt lat="39.01183275671813" lon="-9.244619517099563"><ele>106.99999999999999</ele><time>2026-04-03T11:58:52Z</time></trkpt><trkpt lat="39.01179961586416" lon="-9.24471558260455"><ele>107.0</ele><time>2026-04-03T11:58:54Z</time></trkpt><trkpt lat="39.011765412911174" lon="-9.244804264181713"><ele>107.0</ele><time>2026-04-03T11:58:56Z</time></trkpt><trkpt lat="39.01171271292422" lon="-9.24490078256122"><ele>107.0</ele><time>2026-04-03T11:58:58Z</time></trkpt><trkpt lat="39.011627554201745" lon="-9.244971031561297"><ele>106.99999999999999</ele><time>2026-04-03T11:59:00Z</time></trkpt><trkpt lat="39.01155281394296" lon="-9.245028519322808"><ele>107.0</ele><time>2026-04-03T11:59:02Z</time></trkpt><trkpt lat="39.01148214987154" lon="-9.245075285559958"><ele>105.33333333333333</ele><time>2026-04-03T11:59:04Z</time></trkpt><trkpt lat="39.011406487699404" lon="-9.245112282689862"><ele>103.66666666666666</ele><time>2026-04-03T11:59:06Z</time></trkpt><trkpt lat="39.01135482567333" lon="-9.245190111686762"><ele>102.0</ele><time>2026-04-03T11:59:08Z</time></trkpt><trkpt lat="39.011287351957215" lon="-9.245258070115336"><ele>100.33333333333334</ele><time>2026-04-03T11:59:10Z</time></trkpt><trkpt lat="39.01121086594019" lon="-9.245315042642542"><ele>98.66666666666667</ele><time>2026-04-03T11:59:12Z</time></trkpt><trkpt lat="39.01112107268424" lon="-9.245393868729955"><ele>97.0</ele><time>2026-04-03T11:59:14Z</time></trkpt><trkpt lat="39.0110371035515" lon="-9.245477341404992"><ele>97.0</ele><time>2026-04-03T11:59:16Z</time></trkpt><trkpt lat="39.0109436966625" lon="-9.245558941694458"><ele>97.0</ele><time>2026-04-03T11:59:18Z</time></trkpt><trkpt lat="39.01088945984192" lon="-9.245606905240749"><ele>97.0</ele><time>2026-04-03T11:59:19Z</time></trkpt><trkpt lat="39.01080679851508" lon="-9.245699113075412"><ele>97.0</ele><time>2026-04-03T11:59:21Z</time></trkpt><trkpt lat="39.01074518403371" lon="-9.245784969861948"><ele>97.0</ele><time>2026-04-03T11:59:23Z</time></trkpt><trkpt lat="39.010762470707064" lon="-9.245887032170748"><ele>96.83333333333334</ele><time>2026-04-03T11:59:27Z</time></trkpt><trkpt lat="39.01078170492012" lon="-9.245972475241548"><ele>96.66666666666667</ele><time>2026-04-03T11:59:30Z</time></trkpt><trkpt lat="39.0107941662358" lon="-9.246053122093697"><ele>96.5</ele><time>2026-04-03T11:59:32Z</time></trkpt><trkpt lat="39.010807434557236" lon="-9.246184914698846"><ele>96.33333333333334</ele><time>2026-04-03T11:59:34Z</time></trkpt><trkpt lat="39.01084423267464" lon="-9.24630153860719"><ele>96.16666666666667</ele><time>2026-04-03T11:59:37Z</time></trkpt><trkpt lat="39.01075568819242" lon="-9.24639302886246"><ele>96.0</ele><time>2026-04-03T11:59:43Z</time></trkpt><trkpt lat="39.010676903975444" lon="-9.24647523806955"><ele>96.66666666666667</ele><time>2026-04-03T11:59:45Z</time></trkpt><trkpt lat="39.01062461876437" lon="-9.246528063049421"><ele>97.33333333333334</ele><time>2026-04-03T11:59:46Z</time></trkpt><trkpt lat="39.01055527784106" lon="-9.246602198183654"><ele>98.0</ele><time>2026-04-03T11:59:47Z</time></trkpt><trkpt lat="39.01048324893956" lon="-9.246687090921107"><ele>98.66666666666667</ele><time>2026-04-03T11:59:48Z</time></trkpt><trkpt lat="39.01040562402144" lon="-9.24676087039825"><ele>99.33333333333334</ele><time>2026-04-03T11:59:49Z</time></trkpt><trkpt lat="39.01035477919331" lon="-9.246822760585964"><ele>100.0</ele><time>2026-04-03T11:59:50Z</time></trkpt><trkpt lat="39.01030096757103" lon="-9.24694352026312"><ele>100.0</ele><time>2026-04-03T11:59:52Z</time></trkpt><trkpt lat="39.010258174856794" lon="-9.24704732371066"><ele>100.0</ele><time>2026-04-03T11:59:54Z</time></trkpt><trkpt lat="39.01018398820778" lon="-9.247128048176734"><ele>100.0</ele><time>2026-04-03T11:59:56Z</time></trkpt><trkpt lat="39.01005346038461" lon="-9.247184580280946"><ele>100.0</ele><time>2026-04-03T11:59:58Z</time></trkpt><trkpt lat="39.00996323317532" lon="-9.24722219755606"><ele>100.0</ele><time>2026-04-03T11:59:59Z</time></trkpt><trkpt lat="39.00987731803712" lon="-9.247249621633811"><ele>101.16666666666667</ele><time>2026-04-03T12:00:00Z</time></trkpt><trkpt lat="39.009808103591155" lon="-9.247270137781486"><ele>102.33333333333334</ele><time>2026-04-03T12:00:01Z</time></trkpt><trkpt lat="39.009751191112" lon="-9.247322117827546"><ele>103.5</ele><time>2026-04-03T12:00:02Z</time></trkpt><trkpt lat="39.009698426782165" lon="-9.247373661786211"><ele>104.66666666666666</ele><time>2026-04-03T12:00:03Z</time></trkpt><trkpt lat="39.00963932414386" lon="-9.247405741741279"><ele>105.83333333333333</ele><time>2026-04-03T12:00:04Z</time></trkpt><trkpt lat="39.009549816402256" lon="-9.247489931577732"><ele>107.0</ele><time>2026-04-03T12:00:06Z</time></trkpt><trkpt lat="39.00945394465235" lon="-9.247572757742201"><ele>104.6</ele><time>2026-04-03T12:00:08Z</time></trkpt><trkpt lat="39.00938145690072" lon="-9.2476498220855"><ele>102.19999999999999</ele><time>2026-04-03T12:00:10Z</time></trkpt><trkpt lat="39.0093032256979" lon="-9.247709997703671"><ele>99.8</ele><time>2026-04-03T12:00:12Z</time></trkpt><trkpt lat="39.009221860197236" lon="-9.247719010593316"><ele>97.4</ele><time>2026-04-03T12:00:14Z</time></trkpt><trkpt lat="39.00911422046055" lon="-9.247707258493719"><ele>95.0</ele><time>2026-04-03T12:00:16Z</time></trkpt><trkpt lat="39.008996955891135" lon="-9.247652324519047"><ele>95.0</ele><time>2026-04-03T12:00:18Z</time></trkpt><trkpt lat="39.008933973019765" lon="-9.24761569361933"><ele>95.0</ele><time>2026-04-03T12:00:19Z</time></trkpt><trkpt lat="39.00884606139386" lon="-9.247553996029966"><ele>95.0</ele><time>2026-04-03T12:00:21Z</time></trkpt><trkpt lat="39.00876451369478" lon="-9.24746725173649"><ele>95.0</ele><time>2026-04-03T12:00:23Z</time></trkpt><trkpt lat="39.00870623495786" lon="-9.247411478794392"><ele>95.0</ele><time>2026-04-03T12:00:24Z</time></trkpt><trkpt lat="39.008649333250915" lon="-9.247359018508643"><ele>95.0</ele><time>2026-04-03T12:00:25Z</time></trkpt><trkpt lat="39.00857716845295" lon="-9.24733451298312"><ele>95.0</ele><time>2026-04-03T12:00:27Z</time></trkpt><trkpt lat="39.00850167029982" lon="-9.247337574525629"><ele>95.0</ele><time>2026-04-03T12:00:29Z</time></trkpt><trkpt lat="39.00839486549039" lon="-9.247276461734046"><ele>95.0</ele><time>2026-04-03T12:00:31Z</time></trkpt><trkpt lat="39.008298775749935" lon="-9.247284305174437"><ele>95.0</ele><time>2026-04-03T12:00:33Z</time></trkpt><trkpt lat="39.00822472712081" lon="-9.247353658755"><ele>95.0</ele><time>2026-04-03T12:00:35Z</time></trkpt><trkpt lat="39.00814502022398" lon="-9.24748430659256"><ele>96.5</ele><time>2026-04-03T12:00:37Z</time></trkpt><trkpt lat="39.00807200664861" lon="-9.247588847765071"><ele>98.0</ele><time>2026-04-03T12:00:39Z</time></trkpt><trkpt lat="39.00801670581046" lon="-9.247644818818367"><ele>99.5</ele><time>2026-04-03T12:00:41Z</time></trkpt><trkpt lat="39.00795052975156" lon="-9.247708821541005"><ele>101.0</ele><time>2026-04-03T12:00:48Z</time></trkpt><trkpt lat="39.007916770973125" lon="-9.247805027648772"><ele>102.49999999999999</ele><time>2026-04-03T12:00:51Z</time></trkpt><trkpt lat="39.007872224864016" lon="-9.247891853738722"><ele>104.0</ele><time>2026-04-03T12:00:54Z</time></trkpt><trkpt lat="39.00781445979909" lon="-9.247983224863315"><ele>103.99999999999999</ele><time>2026-04-03T12:00:57Z</time></trkpt><trkpt lat="39.00778043111176" lon="-9.24807463361864"><ele>104.0</ele><time>2026-04-03T12:00:59Z</time></trkpt><trkpt lat="39.00778725463177" lon="-9.24817633821329"><ele>104.0</ele><time>2026-04-03T12:01:01Z</time></trkpt><trkpt lat="39.00779495389554" lon="-9.2482774278543"><ele>104.0</ele><time>2026-04-03T12:01:03Z</time></trkpt><trkpt lat="39.00776097955904" lon="-9.248400867512327"><ele>103.99999999999999</ele><time>2026-04-03T12:01:05Z</time></trkpt><trkpt lat="39.00770416841349" lon="-9.248488180839555"><ele>104.0</ele><time>2026-04-03T12:01:07Z</time></trkpt><trkpt lat="39.00765329148647" lon="-9.248594322388124"><ele>103.49999999999999</ele><time>2026-04-03T12:01:09Z</time></trkpt><trkpt lat="39.00759051270637" lon="-9.248653310913944"><ele>103.0</ele><time>2026-04-03T12:01:13Z</time></trkpt><trkpt lat="39.00752592312903" lon="-9.248744175469385"><ele>102.5</ele><time>2026-04-03T12:01:22Z</time></trkpt><trkpt lat="39.00745176106412" lon="-9.248827773074675"><ele>102.0</ele><time>2026-04-03T12:01:24Z</time></trkpt><trkpt lat="39.00740147952959" lon="-9.24889416967769"><ele>101.49999999999999</ele><time>2026-04-03T12:01:27Z</time></trkpt><trkpt lat="39.00747350015476" lon="-9.248800840775642"><ele>101.0</ele><time>2026-04-03T12:02:39Z</time></trkpt><trkpt lat="39.00753864712842" lon="-9.248715242261035"><ele>99.99999999999999</ele><time>2026-04-03T12:02:42Z</time></trkpt><trkpt lat="39.00759433719477" lon="-9.24864424057418"><ele>99.0</ele><time>2026-04-03T12:02:44Z</time></trkpt><trkpt lat="39.007632910150924" lon="-9.248576580857998"><ele>98.0</ele><time>2026-04-03T12:02:46Z</time></trkpt><trkpt lat="39.007694865617665" lon="-9.248485859072026"><ele>97.0</ele><time>2026-04-03T12:02:49Z</time></trkpt><trkpt lat="39.007744453165635" lon="-9.248407037558632"><ele>96.0</ele><time>2026-04-03T12:02:51Z</time></trkpt><trkpt lat="39.007787882535816" lon="-9.248294650105112"><ele>95.0</ele><time>2026-04-03T12:02:53Z</time></trkpt><trkpt lat="39.00780726287549" lon="-9.248184697902337"><ele>96.5</ele><time>2026-04-03T12:02:55Z</time></trkpt><trkpt lat="39.00779823073662" lon="-9.248072285555688"><ele>98.0</ele><time>2026-04-03T12:02:57Z</time></trkpt><trkpt lat="39.00781640882344" lon="-9.247979505171111"><ele>99.5</ele><time>2026-04-03T12:02:59Z</time></trkpt><trkpt lat="39.00786884212212" lon="-9.247876102708299"><ele>101.0</ele><time>2026-04-03T12:03:01Z</time></trkpt><trkpt lat="39.00793506998047" lon="-9.247793303013282"><ele>102.49999999999999</ele><time>2026-04-03T12:03:03Z</time></trkpt><trkpt lat="39.007971520134454" lon="-9.247687037961766"><ele>104.0</ele><time>2026-04-03T12:03:05Z</time></trkpt><trkpt lat="39.00791620304112" lon="-9.24761811413743"><ele>104.0</ele><time>2026-04-03T12:03:41Z</time></trkpt><trkpt lat="39.007853092585734" lon="-9.247647625414174"><ele>104.0</ele><time>2026-04-03T12:03:43Z</time></trkpt><trkpt lat="39.00779432186357" lon="-9.247599595651204"><ele>104.0</ele><time>2026-04-03T12:03:45Z</time></trkpt><trkpt lat="39.007735484495015" lon="-9.24753690280276"><ele>104.0</ele><time>2026-04-03T12:04:16Z</time></trkpt><trkpt lat="39.00769207910497" lon="-9.247462776997114"><ele>104.0</ele><time>2026-04-03T12:05:26Z</time></trkpt><trkpt lat="39.00763812402492" lon="-9.247400765943551"><ele>104.0</ele><time>2026-04-03T12:05:28Z</time></trkpt><trkpt lat="39.00761854197586" lon="-9.24730665634868"><ele>104.0</ele><time>2026-04-03T12:05:32Z</time></trkpt><trkpt lat="39.00757897329225" lon="-9.247221351397734"><ele>105.16666666666666</ele><time>2026-04-03T12:06:05Z</time></trkpt><trkpt lat="39.00753658230782" lon="-9.247104863355197"><ele>106.33333333333333</ele><time>2026-04-03T12:06:09Z</time></trkpt><trkpt lat="39.007491897376276" lon="-9.246988459893812"><ele>107.5</ele><time>2026-04-03T12:06:12Z</time></trkpt><trkpt lat="39.00745463894335" lon="-9.246876329199988"><ele>108.66666666666666</ele><time>2026-04-03T12:06:15Z</time></trkpt><trkpt lat="39.007440482029764" lon="-9.246788989901619"><ele>109.83333333333333</ele><time>2026-04-03T12:06:17Z</time></trkpt><trkpt lat="39.00740731128114" lon="-9.246695901661761"><ele>111.0</ele><time>2026-04-03T12:06:19Z</time></trkpt><trkpt lat="39.007356967214456" lon="-9.246616281631262"><ele>111.42857142857142</ele><time>2026-04-03T12:06:22Z</time></trkpt><trkpt lat="39.007300727796505" lon="-9.24655770380237"><ele>111.85714285714286</ele><time>2026-04-03T12:06:24Z</time></trkpt><trkpt lat="39.007257762307496" lon="-9.246486426438315"><ele>112.28571428571428</ele><time>2026-04-03T12:07:07Z</time></trkpt><trkpt lat="39.00719394747112" lon="-9.246436217154521"><ele>112.71428571428571</ele><time>2026-04-03T12:07:09Z</time></trkpt><trkpt lat="39.007137663088024" lon="-9.246384364333267"><ele>113.14285714285714</ele><time>2026-04-03T12:07:11Z</time></trkpt><trkpt lat="39.00708354582468" lon="-9.246341085445327"><ele>113.57142857142857</ele><time>2026-04-03T12:07:13Z</time></trkpt><trkpt lat="39.00702558636997" lon="-9.24628489975794"><ele>114.0</ele><time>2026-04-03T12:07:15Z</time></trkpt><trkpt lat="39.006961355298294" lon="-9.246200231359321"><ele>115.66666666666667</ele><time>2026-04-03T12:07:17Z</time></trkpt><trkpt lat="39.0069216017206" lon="-9.246124158562493"><ele>117.33333333333334</ele><time>2026-04-03T12:07:19Z</time></trkpt><trkpt lat="39.006897193243645" lon="-9.24604379659997"><ele>119.0</ele><time>2026-04-03T12:07:21Z</time></trkpt><trkpt lat="39.00686858344497" lon="-9.245963512335281"><ele>120.66666666666667</ele><time>2026-04-03T12:07:23Z</time></trkpt><trkpt lat="39.00684298346749" lon="-9.245883005449786"><ele>122.33333333333334</ele><time>2026-04-03T12:07:25Z</time></trkpt><trkpt lat="39.00681179519316" lon="-9.24576465571236"><ele>124.0</ele><time>2026-04-03T12:07:28Z</time></trkpt><trkpt lat="39.00680063167298" lon="-9.245647924661649"><ele>125.33333333333334</ele><time>2026-04-03T12:07:31Z</time></trkpt><trkpt lat="39.0067848042869" lon="-9.24553589764823"><ele>126.66666666666667</ele><time>2026-04-03T12:07:34Z</time></trkpt><trkpt lat="39.00679224539511" lon="-9.245627675787121"><ele>128.0</ele><time>2026-04-03T12:08:00Z</time></trkpt><trkpt lat="39.00680579964128" lon="-9.245546590694115"><ele>129.33333333333334</ele><time>2026-04-03T12:08:50Z</time></trkpt><trkpt lat="39.00678072137488" lon="-9.245438140245795"><ele>130.66666666666666</ele><time>2026-04-03T12:09:29Z</time></trkpt><trkpt lat="39.006749699240856" lon="-9.245351018419854"><ele>132.0</ele><time>2026-04-03T12:09:32Z</time></trkpt><trkpt lat="39.00669562156205" lon="-9.245301350813788"><ele>132.66666666666666</ele><time>2026-04-03T12:09:35Z</time></trkpt><trkpt lat="39.0066229972605" lon="-9.245237928988677"><ele>133.33333333333334</ele><time>2026-04-03T12:09:37Z</time></trkpt><trkpt lat="39.00654741743543" lon="-9.245189191185785"><ele>134.0</ele><time>2026-04-03T12:09:39Z</time></trkpt><trkpt lat="39.00646341336893" lon="-9.245169351385"><ele>134.66666666666669</ele><time>2026-04-03T12:09:41Z</time></trkpt><trkpt lat="39.006370222180145" lon="-9.245121671293074"><ele>135.33333333333334</ele><time>2026-04-03T12:09:43Z</time></trkpt><trkpt lat="39.00631405983385" lon="-9.245079475572327"><ele>136.0</ele><time>2026-04-03T12:09:44Z</time></trkpt><trkpt lat="39.006245594766504" lon="-9.245043718822355"><ele>136.0</ele><time>2026-04-03T12:10:19Z</time></trkpt><trkpt lat="39.006145441488776" lon="-9.24494993599611"><ele>136.0</ele><time>2026-04-03T12:10:21Z</time></trkpt><trkpt lat="39.00608278250524" lon="-9.24489057588845"><ele>136.0</ele><time>2026-04-03T12:10:22Z</time></trkpt><trkpt lat="39.00602681633473" lon="-9.24482570046994"><ele>136.0</ele><time>2026-04-03T12:10:23Z</time></trkpt><trkpt lat="39.00598760938644" lon="-9.244760541348105"><ele>136.0</ele><time>2026-04-03T12:10:24Z</time></trkpt><trkpt lat="39.005922549092666" lon="-9.244647508628983"><ele>136.5</ele><time>2026-04-03T12:10:26Z</time></trkpt><trkpt lat="39.00588335479606" lon="-9.244564544942776"><ele>137.0</ele><time>2026-04-03T12:10:28Z</time></trkpt><trkpt lat="39.00583979375096" lon="-9.244475069054335"><ele>137.5</ele><time>2026-04-03T12:10:30Z</time></trkpt><trkpt lat="39.00580187315706" lon="-9.244397047176822"><ele>138.0</ele><time>2026-04-03T12:10:32Z</time></trkpt><trkpt lat="39.00574252251112" lon="-9.244274856816647"><ele>138.5</ele><time>2026-04-03T12:10:34Z</time></trkpt><trkpt lat="39.00570914717925" lon="-9.244203734890355"><ele>139.0</ele><time>2026-04-03T12:10:35Z</time></trkpt><trkpt lat="39.00567470436091" lon="-9.244134319079171"><ele>139.0</ele><time>2026-04-03T12:10:36Z</time></trkpt><trkpt lat="39.005630321452294" lon="-9.244073705790209"><ele>139.0</ele><time>2026-04-03T12:10:37Z</time></trkpt><trkpt lat="39.00555978540035" lon="-9.243953795734901"><ele>139.0</ele><time>2026-04-03T12:10:39Z</time></trkpt><trkpt lat="39.00546368985034" lon="-9.243874492992491"><ele>139.0</ele><time>2026-04-03T12:10:41Z</time></trkpt><trkpt lat="39.005421352559836" lon="-9.243807930760262"><ele>139.0</ele><time>2026-04-03T12:10:42Z</time></trkpt><trkpt lat="39.00534832505798" lon="-9.243756684823339"><ele>139.0</ele><time>2026-04-03T12:10:44Z</time></trkpt><trkpt lat="39.00528705672336" lon="-9.24370795910642"><ele>139.0</ele><time>2026-04-03T12:10:46Z</time></trkpt><trkpt lat="39.00526392526003" lon="-9.2438963467219"><ele>139.0</ele><time>2026-04-03T12:10:47Z</time></trkpt><trkpt lat="39.00521554493128" lon="-9.244008314119826"><ele>139.0</ele><time>2026-04-03T12:10:48Z</time></trkpt><trkpt lat="39.00516022411075" lon="-9.244131989452901"><ele>139.0</ele><time>2026-04-03T12:10:49Z</time></trkpt><trkpt lat="39.005099032302226" lon="-9.244268163458814"><ele>139.0</ele><time>2026-04-03T12:10:50Z</time></trkpt><trkpt lat="39.00503403417746" lon="-9.244411733471047"><ele>139.0</ele><time>2026-04-03T12:10:51Z</time></trkpt><trkpt lat="39.00496365441827" lon="-9.244567194378172"><ele>139.0</ele><time>2026-04-03T12:10:52Z</time></trkpt><trkpt lat="39.00487328733371" lon="-9.244727599310627"><ele>139.0</ele><time>2026-04-03T12:10:53Z</time></trkpt><trkpt lat="39.004786793956164" lon="-9.244920193929856"><ele>135.0</ele><time>2026-04-03T12:10:54Z</time></trkpt><trkpt lat="39.00469699671371" lon="-9.245118008065221"><ele>131.0</ele><time>2026-04-03T12:10:55Z</time></trkpt><trkpt lat="39.00460599501898" lon="-9.24532212061252"><ele>127.0</ele><time>2026-04-03T12:10:56Z</time></trkpt><trkpt lat="39.00451953705896" lon="-9.245511564739374"><ele>127.5</ele><time>2026-04-03T12:10:57Z</time></trkpt><trkpt lat="39.004443729718396" lon="-9.24568810014821"><ele>128.0</ele><time>2026-04-03T12:10:58Z</time></trkpt><trkpt lat="39.004367352842294" lon="-9.245852610683604"><ele>128.5</ele><time>2026-04-03T12:10:59Z</time></trkpt><trkpt lat="39.00428514999438" lon="-9.246003054656219"><ele>129.0</ele><time>2026-04-03T12:11:00Z</time></trkpt><trkpt lat="39.004206572151766" lon="-9.246137868663194"><ele>128.25</ele><time>2026-04-03T12:11:01Z</time></trkpt><trkpt lat="39.004142531460275" lon="-9.246268636711248"><ele>127.5</ele><time>2026-04-03T12:11:02Z</time></trkpt><trkpt lat="39.00408302122872" lon="-9.246394966295204"><ele>126.75</ele><time>2026-04-03T12:11:03Z</time></trkpt><trkpt lat="39.00403486884027" lon="-9.246534921540166"><ele>126.0</ele><time>2026-04-03T12:11:04Z</time></trkpt><trkpt lat="39.00396601673701" lon="-9.246656623604654"><ele>126.0</ele><time>2026-04-03T12:11:05Z</time></trkpt><trkpt lat="39.003908876387065" lon="-9.246783014039613"><ele>126.0</ele><time>2026-04-03T12:11:06Z</time></trkpt><trkpt lat="39.00383831853246" lon="-9.246915254224973"><ele>126.0</ele><time>2026-04-03T12:11:07Z</time></trkpt><trkpt lat="39.00375812637157" lon="-9.24703827350907"><ele>126.0</ele><time>2026-04-03T12:11:08Z</time></trkpt><trkpt lat="39.003679432005825" lon="-9.247169843062807"><ele>126.75</ele><time>2026-04-03T12:11:09Z</time></trkpt><trkpt lat="39.0036032060353" lon="-9.247314605644547"><ele>127.5</ele><time>2026-04-03T12:11:10Z</time></trkpt><trkpt lat="39.00352790272018" lon="-9.247448626337707"><ele>128.25</ele><time>2026-04-03T12:11:11Z</time></trkpt><trkpt lat="39.00345383103299" lon="-9.247572644966032"><ele>129.0</ele><time>2026-04-03T12:11:12Z</time></trkpt><trkpt lat="39.00338596498704" lon="-9.247697467885759"><ele>127.0</ele><time>2026-04-03T12:11:13Z</time></trkpt><trkpt lat="39.00331834282908" lon="-9.247810261563599"><ele>125.0</ele><time>2026-04-03T12:11:14Z</time></trkpt><trkpt lat="39.00325708180439" lon="-9.24792543374014"><ele>123.0</ele><time>2026-04-03T12:11:15Z</time></trkpt><trkpt lat="39.00319245176095" lon="-9.248037685791605"><ele>121.0</ele><time>2026-04-03T12:11:16Z</time></trkpt><trkpt lat="39.00313395367405" lon="-9.248146877288452"><ele>119.0</ele><time>2026-04-03T12:11:17Z</time></trkpt><trkpt lat="39.003079497241956" lon="-9.248248023627792"><ele>118.99999999999999</ele><time>2026-04-03T12:11:18Z</time></trkpt><trkpt lat="39.003031888890476" lon="-9.248342898714553"><ele>119.0</ele><time>2026-04-03T12:11:19Z</time></trkpt><trkpt lat="39.00300736667719" lon="-9.248450724340763"><ele>119.0</ele><time>2026-04-03T12:11:20Z</time></trkpt><trkpt lat="39.002955358455544" lon="-9.24853999228038"><ele>119.0</ele><time>2026-04-03T12:11:21Z</time></trkpt><trkpt lat="39.0029728352893" lon="-9.24865037564536"><ele>118.99999999999999</ele><time>2026-04-03T12:11:22Z</time></trkpt><trkpt lat="39.00300620350694" lon="-9.248736404743372"><ele>119.0</ele><time>2026-04-03T12:11:23Z</time></trkpt><trkpt lat="39.0030449959278" lon="-9.248811824051726"><ele>118.99999999999999</ele><time>2026-04-03T12:11:24Z</time></trkpt><trkpt lat="39.00308782625641" lon="-9.248897868170562"><ele>119.0</ele><time>2026-04-03T12:11:25Z</time></trkpt><trkpt lat="39.003142525768446" lon="-9.248998323059135"><ele>119.0</ele><time>2026-04-03T12:11:26Z</time></trkpt><trkpt lat="39.00319907066777" lon="-9.249078771514936"><ele>119.0</ele><time>2026-04-03T12:11:27Z</time></trkpt><trkpt lat="39.003259011906586" lon="-9.249144954100695"><ele>118.99999999999999</ele><time>2026-04-03T12:11:28Z</time></trkpt><trkpt lat="39.003302303079415" lon="-9.249206410268132"><ele>119.0</ele><time>2026-04-03T12:11:29Z</time></trkpt><trkpt lat="39.00334262731816" lon="-9.249358486268399"><ele>119.2</ele><time>2026-04-03T12:11:31Z</time></trkpt><trkpt lat="39.00328961213388" lon="-9.249447903632358"><ele>119.4</ele><time>2026-04-03T12:11:32Z</time></trkpt><trkpt lat="39.00318045433223" lon="-9.249494700098884"><ele>119.6</ele><time>2026-04-03T12:11:33Z</time></trkpt><trkpt lat="39.003099263858516" lon="-9.249545574279823"><ele>119.8</ele><time>2026-04-03T12:11:34Z</time></trkpt><trkpt lat="39.003010477842054" lon="-9.249603555562013"><ele>120.0</ele><time>2026-04-03T12:11:35Z</time></trkpt><trkpt lat="39.002903163724255" lon="-9.249665132874926"><ele>120.0</ele><time>2026-04-03T12:11:36Z</time></trkpt><trkpt lat="39.002802540507666" lon="-9.249708298833212"><ele>120.0</ele><time>2026-04-03T12:11:37Z</time></trkpt><trkpt lat="39.00268692425538" lon="-9.249731639555877"><ele>120.0</ele><time>2026-04-03T12:11:38Z</time></trkpt><trkpt lat="39.00257370039439" lon="-9.249721787856501"><ele>120.0</ele><time>2026-04-03T12:11:39Z</time></trkpt><trkpt lat="39.00244525422822" lon="-9.249692283515937"><ele>117.0</ele><time>2026-04-03T12:11:40Z</time></trkpt><trkpt lat="39.00231678839906" lon="-9.24964424236284"><ele>114.0</ele><time>2026-04-03T12:11:41Z</time></trkpt><trkpt lat="39.002200688050145" lon="-9.249605483360378"><ele>111.0</ele><time>2026-04-03T12:11:42Z</time></trkpt><trkpt lat="39.00208614885974" lon="-9.249559077142658"><ele>108.0</ele><time>2026-04-03T12:11:43Z</time></trkpt><trkpt lat="39.001963727743785" lon="-9.249570473668117"><ele>108.0</ele><time>2026-04-03T12:11:44Z</time></trkpt><trkpt lat="39.001860073482824" lon="-9.249591312648743"><ele>108.00000000000001</ele><time>2026-04-03T12:11:45Z</time></trkpt><trkpt lat="39.00175681540233" lon="-9.249616762124584"><ele>108.00000000000001</ele><time>2026-04-03T12:11:46Z</time></trkpt><trkpt lat="39.00166232807869" lon="-9.249657931424087"><ele>108.0</ele><time>2026-04-03T12:11:47Z</time></trkpt><trkpt lat="39.00156878102221" lon="-9.249722834506228"><ele>108.0</ele><time>2026-04-03T12:11:48Z</time></trkpt><trkpt lat="39.00150322906451" lon="-9.249834892133897"><ele>105.80000000000001</ele><time>2026-04-03T12:11:49Z</time></trkpt><trkpt lat="39.00143075582096" lon="-9.249955060634065"><ele>103.60000000000001</ele><time>2026-04-03T12:11:50Z</time></trkpt><trkpt lat="39.0013580343568" lon="-9.250063565895553"><ele>101.4</ele><time>2026-04-03T12:11:51Z</time></trkpt><trkpt lat="39.00129743472906" lon="-9.250150348746178"><ele>99.19999999999999</ele><time>2026-04-03T12:11:52Z</time></trkpt><trkpt lat="39.00125023392245" lon="-9.250228647755348"><ele>97.0</ele><time>2026-04-03T12:11:53Z</time></trkpt><trkpt lat="39.00121283521947" lon="-9.250303916669381"><ele>97.0</ele><time>2026-04-03T12:11:54Z</time></trkpt><trkpt lat="39.00124546574191" lon="-9.250438810608623"><ele>97.0</ele><time>2026-04-03T12:11:56Z</time></trkpt><trkpt lat="39.00130470749688" lon="-9.250500491715208"><ele>97.0</ele><time>2026-04-03T12:11:57Z</time></trkpt><trkpt lat="39.00139141115624" lon="-9.250549719779361"><ele>97.0</ele><time>2026-04-03T12:11:58Z</time></trkpt><trkpt lat="39.00148737971417" lon="-9.250592875200793"><ele>97.0</ele><time>2026-04-03T12:11:59Z</time></trkpt><trkpt lat="39.00158160376688" lon="-9.250655033053478"><ele>96.39999999999999</ele><time>2026-04-03T12:12:00Z</time></trkpt><trkpt lat="39.001674228463216" lon="-9.250703109680229"><ele>95.8</ele><time>2026-04-03T12:12:01Z</time></trkpt><trkpt lat="39.001780111941294" lon="-9.250766138040976"><ele>95.2</ele><time>2026-04-03T12:12:02Z</time></trkpt><trkpt lat="39.001833571587035" lon="-9.25087168641563"><ele>94.6</ele><time>2026-04-03T12:12:03Z</time></trkpt><trkpt lat="39.00188407730489" lon="-9.250990602239375"><ele>94.0</ele><time>2026-04-03T12:12:04Z</time></trkpt><trkpt lat="39.001929228338646" lon="-9.251108878101835"><ele>94.0</ele><time>2026-04-03T12:12:05Z</time></trkpt><trkpt lat="39.001976557752904" lon="-9.251222034224552"><ele>94.0</ele><time>2026-04-03T12:12:06Z</time></trkpt><trkpt lat="39.00205086673182" lon="-9.25129690451575"><ele>94.0</ele><time>2026-04-03T12:12:07Z</time></trkpt><trkpt lat="39.00213432675539" lon="-9.25134739432749"><ele>94.0</ele><time>2026-04-03T12:12:08Z</time></trkpt><trkpt lat="39.002208226470245" lon="-9.251407734098535"><ele>94.0</ele><time>2026-04-03T12:12:09Z</time></trkpt><trkpt lat="39.00228088198207" lon="-9.25147167936808"><ele>92.0</ele><time>2026-04-03T12:12:10Z</time></trkpt><trkpt lat="39.002343064885075" lon="-9.2515368898082"><ele>90.0</ele><time>2026-04-03T12:12:11Z</time></trkpt><trkpt lat="39.00241040236252" lon="-9.25160059700209"><ele>88.0</ele><time>2026-04-03T12:12:12Z</time></trkpt><trkpt lat="39.00247912659385" lon="-9.251720731296233"><ele>86.0</ele><time>2026-04-03T12:12:13Z</time></trkpt><trkpt lat="39.002530629436286" lon="-9.251867897594716"><ele>84.0</ele><time>2026-04-03T12:12:14Z</time></trkpt><trkpt lat="39.00257986381303" lon="-9.252046571554619"><ele>83.66666666666667</ele><time>2026-04-03T12:12:15Z</time></trkpt><trkpt lat="39.00262740393985" lon="-9.252250882000302"><ele>83.33333333333334</ele><time>2026-04-03T12:12:16Z</time></trkpt><trkpt lat="39.00267287219304" lon="-9.252473545426685"><ele>83.0</ele><time>2026-04-03T12:12:17Z</time></trkpt><trkpt lat="39.00272029344385" lon="-9.252699269783784"><ele>83.0</ele><time>2026-04-03T12:12:18Z</time></trkpt><trkpt lat="39.00277567059308" lon="-9.252939951428868"><ele>83.0</ele><time>2026-04-03T12:12:19Z</time></trkpt><trkpt lat="39.002836299685306" lon="-9.253175477608773"><ele>83.0</ele><time>2026-04-03T12:12:20Z</time></trkpt><trkpt lat="39.00288984380734" lon="-9.253357529620851"><ele>85.2</ele><time>2026-04-03T12:12:21Z</time></trkpt><trkpt lat="39.00293843064761" lon="-9.253507866102073"><ele>87.4</ele><time>2026-04-03T12:12:22Z</time></trkpt><trkpt lat="39.003010842560215" lon="-9.253632740331813"><ele>89.60000000000001</ele><time>2026-04-03T12:12:23Z</time></trkpt><trkpt lat="39.003088708370576" lon="-9.253710047133561"><ele>91.80000000000001</ele><time>2026-04-03T12:12:24Z</time></trkpt><trkpt lat="39.003171408029296" lon="-9.25372780203793"><ele>94.0</ele><time>2026-04-03T12:12:25Z</time></trkpt><trkpt lat="39.00325693222812" lon="-9.253683243951214"><ele>94.0</ele><time>2026-04-03T12:12:26Z</time></trkpt><trkpt lat="39.00329815725225" lon="-9.253591265628268"><ele>94.0</ele><time>2026-04-03T12:12:27Z</time></trkpt><trkpt lat="39.00331678863067" lon="-9.253488600621965"><ele>94.0</ele><time>2026-04-03T12:12:28Z</time></trkpt><trkpt lat="39.00337999702983" lon="-9.253361608620699"><ele>94.0</ele><time>2026-04-03T12:12:29Z</time></trkpt><trkpt lat="39.003429615953536" lon="-9.253238533160014"><ele>94.0</ele><time>2026-04-03T12:12:30Z</time></trkpt><trkpt lat="39.00349197191918" lon="-9.253167374881958"><ele>94.2</ele><time>2026-04-03T12:12:31Z</time></trkpt><trkpt lat="39.00357155368646" lon="-9.253142160584067"><ele>94.4</ele><time>2026-04-03T12:12:32Z</time></trkpt><trkpt lat="39.003654500302545" lon="-9.253185457202674"><ele>94.6</ele><time>2026-04-03T12:12:33Z</time></trkpt><trkpt lat="39.0037257160525" lon="-9.253278486007664"><ele>94.8</ele><time>2026-04-03T12:12:34Z</time></trkpt><trkpt lat="39.00378145525195" lon="-9.253411588611046"><ele>95.0</ele><time>2026-04-03T12:12:35Z</time></trkpt><trkpt lat="39.003847608274654" lon="-9.253530510854294"><ele>95.0</ele><time>2026-04-03T12:12:36Z</time></trkpt><trkpt lat="39.00392464061001" lon="-9.253653621362476"><ele>95.0</ele><time>2026-04-03T12:12:37Z</time></trkpt><trkpt lat="39.00399518343467" lon="-9.253786581649534"><ele>95.0</ele><time>2026-04-03T12:12:38Z</time></trkpt><trkpt lat="39.004069699340874" lon="-9.25392537705317"><ele>95.0</ele><time>2026-04-03T12:12:39Z</time></trkpt><trkpt lat="39.00414459276475" lon="-9.254072682593536"><ele>99.0</ele><time>2026-04-03T12:12:40Z</time></trkpt><trkpt lat="39.004201700405275" lon="-9.254224825620783"><ele>103.0</ele><time>2026-04-03T12:12:41Z</time></trkpt><trkpt lat="39.004285650417124" lon="-9.254355914922538"><ele>107.0</ele><time>2026-04-03T12:12:42Z</time></trkpt><trkpt lat="39.004345602999095" lon="-9.254498827971092"><ele>111.0</ele><time>2026-04-03T12:12:43Z</time></trkpt><trkpt lat="39.004406929060906" lon="-9.25463474735706"><ele>111.0</ele><time>2026-04-03T12:12:44Z</time></trkpt><trkpt lat="39.004475456763096" lon="-9.254769562686743"><ele>111.0</ele><time>2026-04-03T12:12:45Z</time></trkpt><trkpt lat="39.004543676013405" lon="-9.254910844132247"><ele>111.0</ele><time>2026-04-03T12:12:46Z</time></trkpt><trkpt lat="39.00460058357012" lon="-9.255064604729418"><ele>111.0</ele><time>2026-04-03T12:12:47Z</time></trkpt><trkpt lat="39.00463700024483" lon="-9.255217897948544"><ele>113.5</ele><time>2026-04-03T12:12:48Z</time></trkpt><trkpt lat="39.004641914493" lon="-9.25538210499062"><ele>116.0</ele><time>2026-04-03T12:12:49Z</time></trkpt><trkpt lat="39.004613764475614" lon="-9.255545350027118"><ele>118.5</ele><time>2026-04-03T12:12:50Z</time></trkpt><trkpt lat="39.00458125744644" lon="-9.255712380108681"><ele>121.0</ele><time>2026-04-03T12:12:51Z</time></trkpt><trkpt lat="39.004543266525644" lon="-9.2558903532166"><ele>123.75</ele><time>2026-04-03T12:12:52Z</time></trkpt><trkpt lat="39.00451087967605" lon="-9.256069944562089"><ele>126.5</ele><time>2026-04-03T12:12:53Z</time></trkpt><trkpt lat="39.00449499887508" lon="-9.256252502389716"><ele>129.25</ele><time>2026-04-03T12:12:54Z</time></trkpt><trkpt lat="39.00452100914938" lon="-9.25643851315875"><ele>132.0</ele><time>2026-04-03T12:12:55Z</time></trkpt><trkpt lat="39.00454051073669" lon="-9.256629219145061"><ele>135.33333333333334</ele><time>2026-04-03T12:12:56Z</time></trkpt><trkpt lat="39.00455315838137" lon="-9.256820573051193"><ele>138.66666666666669</ele><time>2026-04-03T12:12:57Z</time></trkpt><trkpt lat="39.00457414275109" lon="-9.257017813367291"><ele>142.0</ele><time>2026-04-03T12:12:58Z</time></trkpt><trkpt lat="39.00459468704096" lon="-9.257223825484477"><ele>142.25</ele><time>2026-04-03T12:12:59Z</time></trkpt><trkpt lat="39.004637354159975" lon="-9.257423423454716"><ele>142.5</ele><time>2026-04-03T12:13:00Z</time></trkpt><trkpt lat="39.00468333291672" lon="-9.257598558980654"><ele>142.75</ele><time>2026-04-03T12:13:01Z</time></trkpt><trkpt lat="39.0047219466421" lon="-9.257732793621836"><ele>143.0</ele><time>2026-04-03T12:13:02Z</time></trkpt><trkpt lat="39.00473540674017" lon="-9.257825238176617"><ele>143.0</ele><time>2026-04-03T12:13:03Z</time></trkpt><trkpt lat="39.004793653374506" lon="-9.257915653052297"><ele>143.0</ele><time>2026-04-03T12:13:05Z</time></trkpt><trkpt lat="39.00489417461136" lon="-9.257928758007594"><ele>143.0</ele><time>2026-04-03T12:16:01Z</time></trkpt><trkpt lat="39.00499924600816" lon="-9.25791231263738"><ele>143.0</ele><time>2026-04-03T12:16:02Z</time></trkpt><trkpt lat="39.005118968005725" lon="-9.257899414854872"><ele>143.0</ele><time>2026-04-03T12:16:03Z</time></trkpt><trkpt lat="39.00525508043243" lon="-9.257870924579215"><ele>141.5</ele><time>2026-04-03T12:16:04Z</time></trkpt><trkpt lat="39.00539882213289" lon="-9.257881746463214"><ele>140.0</ele><time>2026-04-03T12:16:05Z</time></trkpt><trkpt lat="39.00554665056082" lon="-9.257869678065298"><ele>138.5</ele><time>2026-04-03T12:16:06Z</time></trkpt><trkpt lat="39.005677015678465" lon="-9.257855493701207"><ele>137.0</ele><time>2026-04-03T12:16:07Z</time></trkpt><trkpt lat="39.00580508159078" lon="-9.25784167168339"><ele>137.25</ele><time>2026-04-03T12:16:08Z</time></trkpt><trkpt lat="39.00592729758401" lon="-9.257835398326561"><ele>137.5</ele><time>2026-04-03T12:16:09Z</time></trkpt><trkpt lat="39.00604744654092" lon="-9.257829618546799"><ele>137.75</ele><time>2026-04-03T12:16:10Z</time></trkpt><trkpt lat="39.00616336288777" lon="-9.257822821718202"><ele>138.0</ele><time>2026-04-03T12:16:11Z</time></trkpt><trkpt lat="39.00627767234038" lon="-9.257825227591624"><ele>138.0</ele><time>2026-04-03T12:16:12Z</time></trkpt><trkpt lat="39.006383211242564" lon="-9.257815210326184"><ele>138.0</ele><time>2026-04-03T12:16:13Z</time></trkpt><trkpt lat="39.006494786922794" lon="-9.257802998499859"><ele>138.0</ele><time>2026-04-03T12:16:14Z</time></trkpt><trkpt lat="39.00659010509537" lon="-9.25779707912981"><ele>138.0</ele><time>2026-04-03T12:16:15Z</time></trkpt><trkpt lat="39.00667027972289" lon="-9.25779495418505"><ele>138.0</ele><time>2026-04-03T12:16:16Z</time></trkpt><trkpt lat="39.0067386586059" lon="-9.257790300639913"><ele>139.0</ele><time>2026-04-03T12:16:17Z</time></trkpt><trkpt lat="39.00671726552768" lon="-9.258028705302722"><ele>140.0</ele><time>2026-04-03T12:16:20.001Z</time></trkpt><trkpt lat="39.006724934721035" lon="-9.258113702258475"><ele>141.0</ele><time>2026-04-03T12:16:21.001Z</time></trkpt><trkpt lat="39.00673210631732" lon="-9.258229105187628"><ele>142.0</ele><time>2026-04-03T12:16:22.001Z</time></trkpt><trkpt lat="39.00673933022367" lon="-9.25834534985149"><ele>143.0</ele><time>2026-04-03T12:16:23.001Z</time></trkpt><trkpt lat="39.00674630638965" lon="-9.258458908096479"><ele>143.0</ele><time>2026-04-03T12:16:24.001Z</time></trkpt><trkpt lat="39.00673730372887" lon="-9.258579623027686"><ele>143.0</ele><time>2026-04-03T12:16:25.001Z</time></trkpt><trkpt lat="39.006748802342535" lon="-9.258699720290576"><ele>143.0</ele><time>2026-04-03T12:16:26.001Z</time></trkpt><trkpt lat="39.00676129981121" lon="-9.25881681538672"><ele>143.0</ele><time>2026-04-03T12:16:27.001Z</time></trkpt><trkpt lat="39.00677152895731" lon="-9.258924407212394"><ele>143.0</ele><time>2026-04-03T12:16:28.001Z</time></trkpt><trkpt lat="39.00678494691927" lon="-9.259037747150765"><ele>141.5</ele><time>2026-04-03T12:16:29.001Z</time></trkpt><trkpt lat="39.006800968595336" lon="-9.259147805127512"><ele>140.0</ele><time>2026-04-03T12:16:30.001Z</time></trkpt><trkpt lat="39.006814780591775" lon="-9.259251721832815"><ele>138.5</ele><time>2026-04-03T12:16:31.001Z</time></trkpt><trkpt lat="39.00682179856999" lon="-9.259355024491507"><ele>137.0</ele><time>2026-04-03T12:16:32.001Z</time></trkpt><trkpt lat="39.00683127188912" lon="-9.259453506301952"><ele>135.5</ele><time>2026-04-03T12:16:33.001Z</time></trkpt><trkpt lat="39.00684816027723" lon="-9.25955587898572"><ele>134.0</ele><time>2026-04-03T12:16:34.001Z</time></trkpt><trkpt lat="39.00685527756054" lon="-9.259659606013313"><ele>134.0</ele><time>2026-04-03T12:16:35.001Z</time></trkpt><trkpt lat="39.00686798695394" lon="-9.259778392262623"><ele>134.0</ele><time>2026-04-03T12:16:36.001Z</time></trkpt><trkpt lat="39.006881565328875" lon="-9.259895716374768"><ele>134.0</ele><time>2026-04-03T12:16:37.001Z</time></trkpt><trkpt lat="39.00689751914528" lon="-9.260014047032922"><ele>134.0</ele><time>2026-04-03T12:16:38.001Z</time></trkpt><trkpt lat="39.006914478943344" lon="-9.260139376479191"><ele>134.0</ele><time>2026-04-03T12:16:39.001Z</time></trkpt><trkpt lat="39.006934015226626" lon="-9.260263675316324"><ele>133.2</ele><time>2026-04-03T12:16:40.001Z</time></trkpt><trkpt lat="39.00695281807611" lon="-9.260385913311778"><ele>132.4</ele><time>2026-04-03T12:16:41.001Z</time></trkpt><trkpt lat="39.00696908538158" lon="-9.260497342772732"><ele>131.6</ele><time>2026-04-03T12:16:42.001Z</time></trkpt><trkpt lat="39.00698678543279" lon="-9.260617737952543"><ele>130.8</ele><time>2026-04-03T12:16:43.001Z</time></trkpt><trkpt lat="39.00700173717137" lon="-9.260710845098343"><ele>130.0</ele><time>2026-04-03T12:16:44.001Z</time></trkpt><trkpt lat="39.00702684864689" lon="-9.260847502991263"><ele>130.0</ele><time>2026-04-03T12:16:45.001Z</time></trkpt><trkpt lat="39.00704496402948" lon="-9.260971706306272"><ele>130.0</ele><time>2026-04-03T12:16:46.001Z</time></trkpt><trkpt lat="39.00706426809547" lon="-9.261097591377705"><ele>130.0</ele><time>2026-04-03T12:16:47.001Z</time></trkpt><trkpt lat="39.00708320457725" lon="-9.261214558963543"><ele>130.0</ele><time>2026-04-03T12:16:48.001Z</time></trkpt><trkpt lat="39.007096640914966" lon="-9.261327631748744"><ele>130.0</ele><time>2026-04-03T12:16:49.001Z</time></trkpt><trkpt lat="39.00711001847034" lon="-9.261436480125067"><ele>130.6</ele><time>2026-04-03T12:16:50.001Z</time></trkpt><trkpt lat="39.007116338239335" lon="-9.2615443907795"><ele>131.2</ele><time>2026-04-03T12:16:51.001Z</time></trkpt><trkpt lat="39.00712744641548" lon="-9.261665703853401"><ele>131.8</ele><time>2026-04-03T12:16:52.001Z</time></trkpt><trkpt lat="39.00714225396193" lon="-9.261792494651534"><ele>132.4</ele><time>2026-04-03T12:16:53.001Z</time></trkpt><trkpt lat="39.007154966948946" lon="-9.261931444849962"><ele>133.0</ele><time>2026-04-03T12:16:54.001Z</time></trkpt><trkpt lat="39.00717204325589" lon="-9.262075019514757"><ele>133.0</ele><time>2026-04-03T12:16:55.001Z</time></trkpt><trkpt lat="39.00718008806525" lon="-9.262219411009884"><ele>133.0</ele><time>2026-04-03T12:16:56.001Z</time></trkpt><trkpt lat="39.00718963027826" lon="-9.262371284088317"><ele>133.0</ele><time>2026-04-03T12:16:57.001Z</time></trkpt><trkpt lat="39.007198175678994" lon="-9.262517433053636"><ele>133.0</ele><time>2026-04-03T12:16:58.001Z</time></trkpt><trkpt lat="39.00720458218363" lon="-9.262644741988382"><ele>133.0</ele><time>2026-04-03T12:16:59.001Z</time></trkpt><trkpt lat="39.00721347923214" lon="-9.262771478927064"><ele>132.6</ele><time>2026-04-03T12:17:00.001Z</time></trkpt><trkpt lat="39.00722481618712" lon="-9.262901515890976"><ele>132.20000000000002</ele><time>2026-04-03T12:17:01.001Z</time></trkpt><trkpt lat="39.007243161224665" lon="-9.263037742797994"><ele>131.8</ele><time>2026-04-03T12:17:02.001Z</time></trkpt><trkpt lat="39.00726095140488" lon="-9.263165045613695"><ele>131.4</ele><time>2026-04-03T12:17:03.001Z</time></trkpt><trkpt lat="39.00730878527366" lon="-9.263280652008502"><ele>131.0</ele><time>2026-04-03T12:17:04.001Z</time></trkpt><trkpt lat="39.00734431451811" lon="-9.263402030872365"><ele>129.25</ele><time>2026-04-03T12:17:05.001Z</time></trkpt><trkpt lat="39.00737299780188" lon="-9.26353890591097"><ele>127.5</ele><time>2026-04-03T12:17:06.001Z</time></trkpt><trkpt lat="39.007417021551255" lon="-9.263675347177777"><ele>125.75</ele><time>2026-04-03T12:17:07.001Z</time></trkpt><trkpt lat="39.00746149944185" lon="-9.263811794154414"><ele>124.0</ele><time>2026-04-03T12:17:08.001Z</time></trkpt><trkpt lat="39.00750635435257" lon="-9.26395079312658"><ele>123.2</ele><time>2026-04-03T12:17:09.001Z</time></trkpt><trkpt lat="39.007552261192046" lon="-9.264082512748974"><ele>122.4</ele><time>2026-04-03T12:17:10.001Z</time></trkpt><trkpt lat="39.00761201410002" lon="-9.26418981019633"><ele>121.6</ele><time>2026-04-03T12:17:11.001Z</time></trkpt><trkpt lat="39.00768457789644" lon="-9.264296035811293"><ele>120.8</ele><time>2026-04-03T12:17:12.001Z</time></trkpt><trkpt lat="39.007781365903966" lon="-9.264380921504364"><ele>120.0</ele><time>2026-04-03T12:17:13.001Z</time></trkpt><trkpt lat="39.00786187329285" lon="-9.264505404566728"><ele>120.0</ele><time>2026-04-03T12:17:14.001Z</time></trkpt><trkpt lat="39.007957983180596" lon="-9.264614850390053"><ele>120.0</ele><time>2026-04-03T12:17:15.001Z</time></trkpt><trkpt lat="39.00805411712918" lon="-9.264750440608633"><ele>120.0</ele><time>2026-04-03T12:17:16.001Z</time></trkpt><trkpt lat="39.008140497273104" lon="-9.264920594202618"><ele>120.0</ele><time>2026-04-03T12:17:17.001Z</time></trkpt><trkpt lat="39.008229149941485" lon="-9.265094943860502"><ele>120.25</ele><time>2026-04-03T12:17:18.001Z</time></trkpt><trkpt lat="39.008312148670235" lon="-9.265270142399045"><ele>120.5</ele><time>2026-04-03T12:17:19.001Z</time></trkpt><trkpt lat="39.00838591866862" lon="-9.265430101506618"><ele>120.75</ele><time>2026-04-03T12:17:20.001Z</time></trkpt><trkpt lat="39.00845048847392" lon="-9.26558730103048"><ele>121.0</ele><time>2026-04-03T12:17:21.001Z</time></trkpt><trkpt lat="39.00850393454518" lon="-9.26574487442181"><ele>119.75</ele><time>2026-04-03T12:17:22.001Z</time></trkpt><trkpt lat="39.008530577068285" lon="-9.265903992294167"><ele>118.5</ele><time>2026-04-03T12:17:23.001Z</time></trkpt><trkpt lat="39.00853340888531" lon="-9.26606927264496"><ele>117.25</ele><time>2026-04-03T12:17:24.001Z</time></trkpt><trkpt lat="39.008522331885715" lon="-9.266234516298011"><ele>116.0</ele><time>2026-04-03T12:17:25.001Z</time></trkpt><trkpt lat="39.00851876067283" lon="-9.266382123223828"><ele>115.8</ele><time>2026-04-03T12:17:26.001Z</time></trkpt><trkpt lat="39.008521585957034" lon="-9.266516688490341"><ele>115.6</ele><time>2026-04-03T12:17:27.001Z</time></trkpt><trkpt lat="39.00855131902173" lon="-9.266638941704262"><ele>115.4</ele><time>2026-04-03T12:17:28.001Z</time></trkpt><trkpt lat="39.00858889654884" lon="-9.266753981534947"><ele>115.2</ele><time>2026-04-03T12:17:29.001Z</time></trkpt><trkpt lat="39.008638435799895" lon="-9.266874468906796"><ele>115.0</ele><time>2026-04-03T12:17:30.001Z</time></trkpt><trkpt lat="39.00870408202366" lon="-9.267008696676484"><ele>115.0</ele><time>2026-04-03T12:17:31.001Z</time></trkpt><trkpt lat="39.008778252477754" lon="-9.267164553573583"><ele>115.0</ele><time>2026-04-03T12:17:32.001Z</time></trkpt><trkpt lat="39.00885987487925" lon="-9.267328571614017"><ele>115.0</ele><time>2026-04-03T12:17:33.001Z</time></trkpt><trkpt lat="39.008927106788285" lon="-9.267502717152666"><ele>115.0</ele><time>2026-04-03T12:17:34.001Z</time></trkpt><trkpt lat="39.00899613647157" lon="-9.26766390682716"><ele>115.0</ele><time>2026-04-03T12:17:35.001Z</time></trkpt><trkpt lat="39.00904510432484" lon="-9.267830174005118"><ele>115.0</ele><time>2026-04-03T12:17:36.001Z</time></trkpt><trkpt lat="39.00907908299352" lon="-9.26800821830547"><ele>115.0</ele><time>2026-04-03T12:17:37.001Z</time></trkpt><trkpt lat="39.00911523823022" lon="-9.26816400597871"><ele>115.0</ele><time>2026-04-03T12:17:38.001Z</time></trkpt><trkpt lat="39.00915522375173" lon="-9.268310398434943"><ele>112.6</ele><time>2026-04-03T12:17:39.001Z</time></trkpt><trkpt lat="39.009223656467405" lon="-9.268419848320171"><ele>110.2</ele><time>2026-04-03T12:17:40.001Z</time></trkpt><trkpt lat="39.00928627475121" lon="-9.268531606705277"><ele>107.80000000000001</ele><time>2026-04-03T12:17:41.001Z</time></trkpt><trkpt lat="39.00934754643139" lon="-9.268643533302823"><ele>105.4</ele><time>2026-04-03T12:17:42.001Z</time></trkpt><trkpt lat="39.00940423944371" lon="-9.268744389578464"><ele>103.0</ele><time>2026-04-03T12:17:43.001Z</time></trkpt><trkpt lat="39.00944906690107" lon="-9.268865096142855"><ele>102.4</ele><time>2026-04-03T12:17:44.001Z</time></trkpt><trkpt lat="39.0094919080108" lon="-9.268987122278876"><ele>101.80000000000001</ele><time>2026-04-03T12:17:45.001Z</time></trkpt><trkpt lat="39.00950525913735" lon="-9.269121314075214"><ele>101.2</ele><time>2026-04-03T12:17:46.001Z</time></trkpt><trkpt lat="39.00949295552976" lon="-9.269243012070199"><ele>100.6</ele><time>2026-04-03T12:17:47.001Z</time></trkpt><trkpt lat="39.00947236791127" lon="-9.26935231468927"><ele>100.0</ele><time>2026-04-03T12:17:48.001Z</time></trkpt><trkpt lat="39.00943683859816" lon="-9.26945700605699"><ele>100.0</ele><time>2026-04-03T12:17:49.001Z</time></trkpt><trkpt lat="39.009376255810686" lon="-9.26954228960414"><ele>100.0</ele><time>2026-04-03T12:17:50.001Z</time></trkpt><trkpt lat="39.009302623725794" lon="-9.269606362013327"><ele>100.0</ele><time>2026-04-03T12:17:51.001Z</time></trkpt><trkpt lat="39.009237979078634" lon="-9.269701233967732"><ele>100.0</ele><time>2026-04-03T12:17:52.001Z</time></trkpt><trkpt lat="39.00922507875772" lon="-9.269823781318818"><ele>100.0</ele><time>2026-04-03T12:17:53.001Z</time></trkpt><trkpt lat="39.00927286408195" lon="-9.269955399431119"><ele>98.2</ele><time>2026-04-03T12:17:54.001Z</time></trkpt><trkpt lat="39.00926699977482" lon="-9.270080971906964"><ele>96.4</ele><time>2026-04-03T12:17:55.001Z</time></trkpt><trkpt lat="39.009289175767115" lon="-9.270213451432681"><ele>94.6</ele><time>2026-04-03T12:17:56.001Z</time></trkpt><trkpt lat="39.009319103456704" lon="-9.270353049138812"><ele>92.8</ele><time>2026-04-03T12:17:57.001Z</time></trkpt><trkpt lat="39.00936713875325" lon="-9.27049038132775"><ele>91.0</ele><time>2026-04-03T12:17:58.001Z</time></trkpt><trkpt lat="39.00940588367404" lon="-9.270632114048988"><ele>88.25</ele><time>2026-04-03T12:17:59.001Z</time></trkpt><trkpt lat="39.009445679988126" lon="-9.27077101295015"><ele>85.5</ele><time>2026-04-03T12:18:00.001Z</time></trkpt><trkpt lat="39.009488114241215" lon="-9.270918913397805"><ele>82.75</ele><time>2026-04-03T12:18:01.001Z</time></trkpt><trkpt lat="39.00952808814786" lon="-9.271068861187848"><ele>80.0</ele><time>2026-04-03T12:18:02.001Z</time></trkpt><trkpt lat="39.00956527862086" lon="-9.271208367910273"><ele>80.0</ele><time>2026-04-03T12:18:03.001Z</time></trkpt><trkpt lat="39.00960055934243" lon="-9.271333592701332"><ele>80.0</ele><time>2026-04-03T12:18:04.001Z</time></trkpt><trkpt lat="39.00962811294999" lon="-9.271460243142085"><ele>80.0</ele><time>2026-04-03T12:18:05.001Z</time></trkpt><trkpt lat="39.009670670076964" lon="-9.27158922118204"><ele>80.0</ele><time>2026-04-03T12:18:06.001Z</time></trkpt><trkpt lat="39.00973708154164" lon="-9.271707791787458"><ele>80.0</ele><time>2026-04-03T12:18:07.001Z</time></trkpt><trkpt lat="39.00978014275265" lon="-9.27184555383716"><ele>77.75</ele><time>2026-04-03T12:18:08.001Z</time></trkpt><trkpt lat="39.009834880077406" lon="-9.271970112599615"><ele>75.5</ele><time>2026-04-03T12:18:09.001Z</time></trkpt><trkpt lat="39.00989340839752" lon="-9.272095436973716"><ele>73.25</ele><time>2026-04-03T12:18:10.001Z</time></trkpt><trkpt lat="39.009952381137246" lon="-9.272227788809914"><ele>71.0</ele><time>2026-04-03T12:18:11.001Z</time></trkpt><trkpt lat="39.01000722502285" lon="-9.272352819086722"><ele>70.0</ele><time>2026-04-03T12:18:12.001Z</time></trkpt><trkpt lat="39.01005998279941" lon="-9.272486821059834"><ele>69.0</ele><time>2026-04-03T12:18:13.001Z</time></trkpt><trkpt lat="39.01010324806718" lon="-9.272621283102662"><ele>68.0</ele><time>2026-04-03T12:18:14.001Z</time></trkpt><trkpt lat="39.01014163273707" lon="-9.272750723186554"><ele>67.0</ele><time>2026-04-03T12:18:15.001Z</time></trkpt><trkpt lat="39.01018523446175" lon="-9.272866001261034"><ele>66.0</ele><time>2026-04-03T12:18:16.001Z</time></trkpt><trkpt lat="39.01023239324193" lon="-9.272973562604998"><ele>66.0</ele><time>2026-04-03T12:18:17.001Z</time></trkpt><trkpt lat="39.010287748847794" lon="-9.273086711468668"><ele>66.0</ele><time>2026-04-03T12:18:18.001Z</time></trkpt><trkpt lat="39.01034035453652" lon="-9.273200270925779"><ele>66.0</ele><time>2026-04-03T12:18:19.001Z</time></trkpt><trkpt lat="39.010395773182395" lon="-9.273317022894608"><ele>66.0</ele><time>2026-04-03T12:18:20.001Z</time></trkpt><trkpt lat="39.01045587547895" lon="-9.273445261582184"><ele>66.0</ele><time>2026-04-03T12:18:21.001Z</time></trkpt><trkpt lat="39.01051310932216" lon="-9.27356811339181"><ele>64.39999999999999</ele><time>2026-04-03T12:18:22.001Z</time></trkpt><trkpt lat="39.010543240212726" lon="-9.273702332445728"><ele>62.8</ele><time>2026-04-03T12:18:23.001Z</time></trkpt><trkpt lat="39.01055004327809" lon="-9.273836198221252"><ele>61.199999999999996</ele><time>2026-04-03T12:18:24.001Z</time></trkpt><trkpt lat="39.01055304671384" lon="-9.273974560674656"><ele>59.599999999999994</ele><time>2026-04-03T12:18:25.001Z</time></trkpt><trkpt lat="39.01056365292733" lon="-9.274105903059846"><ele>58.0</ele><time>2026-04-03T12:18:26.001Z</time></trkpt><trkpt lat="39.0106142392001" lon="-9.274221943195585"><ele>56.99999999999999</ele><time>2026-04-03T12:18:27.001Z</time></trkpt><trkpt lat="39.010649626004316" lon="-9.274336980038502"><ele>56.0</ele><time>2026-04-03T12:18:28.001Z</time></trkpt><trkpt lat="39.01068850525714" lon="-9.274456259332563"><ele>55.0</ele><time>2026-04-03T12:18:29.001Z</time></trkpt><trkpt lat="39.01072400099584" lon="-9.274558041033208"><ele>54.0</ele><time>2026-04-03T12:18:30.001Z</time></trkpt><trkpt lat="39.010752670165964" lon="-9.274641074629477"><ele>52.99999999999999</ele><time>2026-04-03T12:18:31.001Z</time></trkpt><trkpt lat="39.01081670450482" lon="-9.274711168193411"><ele>52.0</ele><time>2026-04-03T12:18:33.001Z</time></trkpt><trkpt lat="39.01078479503389" lon="-9.274798152630364"><ele>51.8</ele><time>2026-04-03T12:18:40.001Z</time></trkpt><trkpt lat="39.010726295027055" lon="-9.27485635312827"><ele>51.6</ele><time>2026-04-03T12:18:41.001Z</time></trkpt><trkpt lat="39.01063558881826" lon="-9.274893480333365"><ele>51.4</ele><time>2026-04-03T12:18:42.001Z</time></trkpt><trkpt lat="39.010522175608926" lon="-9.27493547620555"><ele>51.199999999999996</ele><time>2026-04-03T12:18:43.001Z</time></trkpt><trkpt lat="39.01039166647254" lon="-9.274985263935292"><ele>51.0</ele><time>2026-04-03T12:18:44.001Z</time></trkpt><trkpt lat="39.01025818774064" lon="-9.275032322200158"><ele>51.0</ele><time>2026-04-03T12:18:45.001Z</time></trkpt><trkpt lat="39.010100845824404" lon="-9.275098287782482"><ele>51.0</ele><time>2026-04-03T12:18:46.001Z</time></trkpt><trkpt lat="39.009931313613436" lon="-9.275176753706788"><ele>51.0</ele><time>2026-04-03T12:18:47.001Z</time></trkpt><trkpt lat="39.00975473583901" lon="-9.275257477217371"><ele>50.66666666666667</ele><time>2026-04-03T12:18:48.001Z</time></trkpt><trkpt lat="39.00957925948259" lon="-9.27533680903742"><ele>50.333333333333336</ele><time>2026-04-03T12:18:49.001Z</time></trkpt><trkpt lat="39.009394059184565" lon="-9.275417487819093"><ele>50.0</ele><time>2026-04-03T12:18:50.001Z</time></trkpt><trkpt lat="39.00920724899729" lon="-9.275500709929451"><ele>51.333333333333336</ele><time>2026-04-03T12:18:51.001Z</time></trkpt><trkpt lat="39.009014623117125" lon="-9.275583502894051"><ele>52.66666666666667</ele><time>2026-04-03T12:18:52.001Z</time></trkpt><trkpt lat="39.00882031450011" lon="-9.27566390451511"><ele>54.0</ele><time>2026-04-03T12:18:53.001Z</time></trkpt><trkpt lat="39.008628387704604" lon="-9.27574614786987"><ele>54.0</ele><time>2026-04-03T12:18:54.001Z</time></trkpt><trkpt lat="39.00844000576681" lon="-9.275829373324626"><ele>54.0</ele><time>2026-04-03T12:18:55.001Z</time></trkpt><trkpt lat="39.00825235531813" lon="-9.275914905955144"><ele>54.0</ele><time>2026-04-03T12:18:56.001Z</time></trkpt><trkpt lat="39.00806049381784" lon="-9.276000568378041"><ele>55.66666666666667</ele><time>2026-04-03T12:18:57.001Z</time></trkpt><trkpt lat="39.00786971793612" lon="-9.276091610877833"><ele>57.333333333333336</ele><time>2026-04-03T12:18:58.001Z</time></trkpt><trkpt lat="39.00767491758478" lon="-9.276169551558064"><ele>59.0</ele><time>2026-04-03T12:18:59.001Z</time></trkpt><trkpt lat="39.007473715760646" lon="-9.276232576911633"><ele>59.333333333333336</ele><time>2026-04-03T12:19:00.001Z</time></trkpt><trkpt lat="39.00726836365786" lon="-9.276256688880984"><ele>59.66666666666667</ele><time>2026-04-03T12:19:01.001Z</time></trkpt><trkpt lat="39.007059042470544" lon="-9.276264302039266"><ele>60.0</ele><time>2026-04-03T12:19:02.001Z</time></trkpt><trkpt lat="39.00684553518592" lon="-9.276272729458968"><ele>62.0</ele><time>2026-04-03T12:19:03.001Z</time></trkpt><trkpt lat="39.00662447455927" lon="-9.276283725658804"><ele>64.0</ele><time>2026-04-03T12:19:04.001Z</time></trkpt><trkpt lat="39.006398869667365" lon="-9.276302899074377"><ele>66.0</ele><time>2026-04-03T12:19:05.001Z</time></trkpt><trkpt lat="39.00618144550065" lon="-9.27631391296749"><ele>66.0</ele><time>2026-04-03T12:19:06.001Z</time></trkpt><trkpt lat="39.00596166579955" lon="-9.276327787620284"><ele>66.0</ele><time>2026-04-03T12:19:07.001Z</time></trkpt><trkpt lat="39.00574309160489" lon="-9.276349858929128"><ele>66.0</ele><time>2026-04-03T12:19:08.001Z</time></trkpt><trkpt lat="39.00553394706377" lon="-9.276385164263663"><ele>64.33333333333333</ele><time>2026-04-03T12:19:09.001Z</time></trkpt><trkpt lat="39.005325110446215" lon="-9.276437383156244"><ele>62.666666666666664</ele><time>2026-04-03T12:19:10.001Z</time></trkpt><trkpt lat="39.00511729847465" lon="-9.276497634742755"><ele>61.0</ele><time>2026-04-03T12:19:11.001Z</time></trkpt><trkpt lat="39.00492342006291" lon="-9.276551733992406"><ele>61.0</ele><time>2026-04-03T12:19:12.001Z</time></trkpt><trkpt lat="39.00475497728797" lon="-9.276586757619096"><ele>61.0</ele><time>2026-04-03T12:19:13.001Z</time></trkpt><trkpt lat="39.00459507026136" lon="-9.276601795771924"><ele>61.0</ele><time>2026-04-03T12:19:14.001Z</time></trkpt><trkpt lat="39.004446435308026" lon="-9.276577514568896"><ele>61.0</ele><time>2026-04-03T12:19:15.001Z</time></trkpt><trkpt lat="39.004311428488876" lon="-9.276539163590666"><ele>61.0</ele><time>2026-04-03T12:19:16.001Z</time></trkpt><trkpt lat="39.004193492190694" lon="-9.276479824098432"><ele>61.0</ele><time>2026-04-03T12:19:17.001Z</time></trkpt><trkpt lat="39.0040913148179" lon="-9.27642996455009"><ele>61.0</ele><time>2026-04-03T12:19:18.001Z</time></trkpt><trkpt lat="39.00398890563851" lon="-9.276404424577047"><ele>60.99999999999999</ele><time>2026-04-03T12:19:19.001Z</time></trkpt><trkpt lat="39.00390053971906" lon="-9.27639522136611"><ele>61.0</ele><time>2026-04-03T12:19:20.001Z</time></trkpt><trkpt lat="39.00381397952911" lon="-9.276394361607236"><ele>61.0</ele><time>2026-04-03T12:19:21.001Z</time></trkpt><trkpt lat="39.00374975750651" lon="-9.276389915567801"><ele>61.0</ele><time>2026-04-03T12:19:22.001Z</time></trkpt><trkpt lat="39.00369115074777" lon="-9.276356748228727"><ele>60.99999999999999</ele><time>2026-04-03T12:22:36Z</time></trkpt><trkpt lat="39.003637660609456" lon="-9.276410661948411"><ele>61.0</ele><time>2026-04-03T12:22:42Z</time></trkpt><trkpt lat="39.003771697033685" lon="-9.27646446462311"><ele>61.0</ele><time>2026-04-03T12:23:17Z</time></trkpt><trkpt lat="39.00384714897672" lon="-9.276490488163743"><ele>60.99999999999999</ele><time>2026-04-03T12:23:24Z</time></trkpt><trkpt lat="39.0037911705971" lon="-9.2764314522272"><ele>60.99999999999999</ele><time>2026-04-03T12:23:46Z</time></trkpt><trkpt lat="39.00374634905357" lon="-9.27637255714633"><ele>61.0</ele><time>2026-04-03T12:23:52Z</time></trkpt><trkpt lat="39.0036013202824" lon="-9.276239527083005"><ele>61.0</ele><time>2026-04-03T12:27:24Z</time></trkpt><trkpt lat="39.003535627839376" lon="-9.276192233644654"><ele>61.0</ele><time>2026-04-03T12:27:25Z</time></trkpt><trkpt lat="39.003458604215766" lon="-9.276160902302378"><ele>60.99999999999999</ele><time>2026-04-03T12:27:26Z</time></trkpt><trkpt lat="39.00337728274725" lon="-9.276128988036511"><ele>60.99999999999999</ele><time>2026-04-03T12:27:27Z</time></trkpt><trkpt lat="39.0032825809669" lon="-9.276098913354254"><ele>61.0</ele><time>2026-04-03T12:27:28Z</time></trkpt><trkpt lat="39.00318636673667" lon="-9.27606062770536"><ele>61.0</ele><time>2026-04-03T12:27:29Z</time></trkpt><trkpt lat="39.00309036866666" lon="-9.276022912888521"><ele>60.99999999999999</ele><time>2026-04-03T12:27:30Z</time></trkpt><trkpt lat="39.002996223513804" lon="-9.275991237637754"><ele>61.0</ele><time>2026-04-03T12:27:31Z</time></trkpt><trkpt lat="39.00290836442863" lon="-9.275978975711237"><ele>61.0</ele><time>2026-04-03T12:27:32Z</time></trkpt><trkpt lat="39.00282915543613" lon="-9.275981025580679"><ele>61.0</ele><time>2026-04-03T12:27:33Z</time></trkpt><trkpt lat="39.002759109884074" lon="-9.275986815632871"><ele>60.99999999999999</ele><time>2026-04-03T12:27:34Z</time></trkpt><trkpt lat="39.002692517878245" lon="-9.275996867576977"><ele>61.0</ele><time>2026-04-03T12:27:35Z</time></trkpt><trkpt lat="39.00261720311142" lon="-9.276005338501305"><ele>61.0</ele><time>2026-04-03T12:27:36Z</time></trkpt><trkpt lat="39.002539656873005" lon="-9.27601624457781"><ele>60.99999999999999</ele><time>2026-04-03T12:27:37Z</time></trkpt><trkpt lat="39.00245796144042" lon="-9.276029392266976"><ele>60.99999999999999</ele><time>2026-04-03T12:27:38Z</time></trkpt><trkpt lat="39.00236010555485" lon="-9.276039195138155"><ele>61.0</ele><time>2026-04-03T12:27:39Z</time></trkpt><trkpt lat="39.002257743857605" lon="-9.27603932712296"><ele>61.0</ele><time>2026-04-03T12:27:40Z</time></trkpt><trkpt lat="39.00214183839408" lon="-9.276040990155636"><ele>60.8</ele><time>2026-04-03T12:27:41Z</time></trkpt><trkpt lat="39.00202605728614" lon="-9.276053605761613"><ele>60.599999999999994</ele><time>2026-04-03T12:27:42Z</time></trkpt><trkpt lat="39.00191773752457" lon="-9.276064697371902"><ele>60.4</ele><time>2026-04-03T12:27:43Z</time></trkpt><trkpt lat="39.001820972564644" lon="-9.276075477198036"><ele>60.2</ele><time>2026-04-03T12:27:44Z</time></trkpt><trkpt lat="39.001733336156654" lon="-9.276081896685179"><ele>60.0</ele><time>2026-04-03T12:27:45Z</time></trkpt><trkpt lat="39.001647713452236" lon="-9.276098741884256"><ele>60.5</ele><time>2026-04-03T12:27:46Z</time></trkpt><trkpt lat="39.001571696548964" lon="-9.276107895896933"><ele>61.0</ele><time>2026-04-03T12:27:47Z</time></trkpt><trkpt lat="39.001494072614825" lon="-9.276107371271225"><ele>61.5</ele><time>2026-04-03T12:27:48Z</time></trkpt><trkpt lat="39.001411452679086" lon="-9.276117574915276"><ele>62.0</ele><time>2026-04-03T12:27:49Z</time></trkpt><trkpt lat="39.00133327693235" lon="-9.276126292343822"><ele>62.5</ele><time>2026-04-03T12:27:50Z</time></trkpt><trkpt lat="39.00125788633609" lon="-9.276137493709754"><ele>63.0</ele><time>2026-04-03T12:27:51Z</time></trkpt><trkpt lat="39.00117067916134" lon="-9.276149755178414"><ele>63.0</ele><time>2026-04-03T12:27:52Z</time></trkpt><trkpt lat="39.001077890092745" lon="-9.276157178815017"><ele>63.0</ele><time>2026-04-03T12:27:53Z</time></trkpt><trkpt lat="39.000980200347605" lon="-9.27617202803167"><ele>63.0</ele><time>2026-04-03T12:27:54Z</time></trkpt><trkpt lat="39.00088011042008" lon="-9.276178739300706"><ele>63.0</ele><time>2026-04-03T12:27:55Z</time></trkpt><trkpt lat="39.000767815740474" lon="-9.276184974311638"><ele>63.0</ele><time>2026-04-03T12:27:56Z</time></trkpt><trkpt lat="39.00065629942784" lon="-9.27619875994141"><ele>64.2</ele><time>2026-04-03T12:27:57Z</time></trkpt><trkpt lat="39.00054961150632" lon="-9.276205120202452"><ele>65.4</ele><time>2026-04-03T12:27:58Z</time></trkpt><trkpt lat="39.00044234448585" lon="-9.276203448125516"><ele>66.60000000000001</ele><time>2026-04-03T12:27:59Z</time></trkpt><trkpt lat="39.00032952374036" lon="-9.27619184048167"><ele>67.8</ele><time>2026-04-03T12:28:00Z</time></trkpt><trkpt lat="39.00021577513727" lon="-9.276182115455148"><ele>69.0</ele><time>2026-04-03T12:28:01Z</time></trkpt><trkpt lat="39.000103448630185" lon="-9.276166278067002"><ele>69.0</ele><time>2026-04-03T12:28:02Z</time></trkpt><trkpt lat="38.99998601237633" lon="-9.276152260439785"><ele>69.0</ele><time>2026-04-03T12:28:03Z</time></trkpt><trkpt lat="38.99986439509732" lon="-9.276144289156774"><ele>69.0</ele><time>2026-04-03T12:28:04Z</time></trkpt><trkpt lat="38.99973961282077" lon="-9.276132042300581"><ele>69.0</ele><time>2026-04-03T12:28:05Z</time></trkpt><trkpt lat="38.99960963517281" lon="-9.276116058843085"><ele>69.0</ele><time>2026-04-03T12:28:06Z</time></trkpt><trkpt lat="38.99949342980586" lon="-9.27610266768435"><ele>69.0</ele><time>2026-04-03T12:28:07Z</time></trkpt><trkpt lat="38.999394357300744" lon="-9.276087502823158"><ele>69.0</ele><time>2026-04-03T12:28:08Z</time></trkpt><trkpt lat="38.99930307894289" lon="-9.27607932398633"><ele>69.0</ele><time>2026-04-03T12:28:09Z</time></trkpt><trkpt lat="38.99923622141406" lon="-9.276056253898542"><ele>69.0</ele><time>2026-04-03T12:28:10Z</time></trkpt><trkpt lat="38.999171596932996" lon="-9.276039532956627"><ele>69.0</ele><time>2026-04-03T12:28:11Z</time></trkpt><trkpt lat="38.99910575908679" lon="-9.276027738260444"><ele>68.66666666666667</ele><time>2026-04-03T12:28:13Z</time></trkpt><trkpt lat="38.99913574939486" lon="-9.27577854061766"><ele>68.33333333333334</ele><time>2026-04-03T12:28:14Z</time></trkpt><trkpt lat="38.99916690689552" lon="-9.275665247316917"><ele>68.0</ele><time>2026-04-03T12:28:15Z</time></trkpt><trkpt lat="38.999327513943086" lon="-9.27556090436752"><ele>70.2</ele><time>2026-04-03T12:28:17Z</time></trkpt><trkpt lat="38.99941469705518" lon="-9.275495647007752"><ele>72.4</ele><time>2026-04-03T12:28:18Z</time></trkpt><trkpt lat="38.999503811981285" lon="-9.275418149845592"><ele>74.60000000000001</ele><time>2026-04-03T12:28:19Z</time></trkpt><trkpt lat="38.99958055046383" lon="-9.275303659928584"><ele>76.8</ele><time>2026-04-03T12:28:20Z</time></trkpt><trkpt lat="38.9996562855178" lon="-9.275180725402377"><ele>79.0</ele><time>2026-04-03T12:28:21Z</time></trkpt><trkpt lat="38.99973265879248" lon="-9.27505059398496"><ele>79.0</ele><time>2026-04-03T12:28:22Z</time></trkpt><trkpt lat="38.999801636382536" lon="-9.274922370765378"><ele>79.0</ele><time>2026-04-03T12:28:23Z</time></trkpt><trkpt lat="38.99986539035352" lon="-9.274791207453498"><ele>79.0</ele><time>2026-04-03T12:28:24Z</time></trkpt><trkpt lat="38.99991583346823" lon="-9.274666963059012"><ele>79.0</ele><time>2026-04-03T12:28:25Z</time></trkpt><trkpt lat="38.99994040046132" lon="-9.27457247648415"><ele>79.0</ele><time>2026-04-03T12:28:26Z</time></trkpt><trkpt lat="38.99986394603263" lon="-9.274425305391095"><ele>80.2</ele><time>2026-04-03T12:28:28Z</time></trkpt><trkpt lat="38.99982110020369" lon="-9.274309607452906"><ele>81.4</ele><time>2026-04-03T12:28:29Z</time></trkpt><trkpt lat="38.99977994473734" lon="-9.274215891357441"><ele>82.6</ele><time>2026-04-03T12:28:30Z</time></trkpt><trkpt lat="38.999730161601214" lon="-9.274131203112194"><ele>83.8</ele><time>2026-04-03T12:28:31Z</time></trkpt><trkpt lat="38.99967033475225" lon="-9.274042547236585"><ele>85.0</ele><time>2026-04-03T12:28:32.001Z</time></trkpt><trkpt lat="38.99959809396453" lon="-9.273966453400751"><ele>85.4</ele><time>2026-04-03T12:28:33.001Z</time></trkpt><trkpt lat="38.99957379070382" lon="-9.273850052925374"><ele>85.8</ele><time>2026-04-03T12:28:34.001Z</time></trkpt><trkpt lat="38.9995862595476" lon="-9.273756916330239"><ele>86.19999999999999</ele><time>2026-04-03T12:28:35.001Z</time></trkpt><trkpt lat="38.99958677180356" lon="-9.273668979820036"><ele>86.6</ele><time>2026-04-03T12:28:36.001Z</time></trkpt><trkpt lat="38.99976498209634" lon="-9.273540053396767"><ele>87.0</ele><time>2026-04-03T12:28:37.001Z</time></trkpt><trkpt lat="38.999747380934195" lon="-9.273395045668082"><ele>87.0</ele><time>2026-04-03T12:28:38.001Z</time></trkpt><trkpt lat="38.999700254285166" lon="-9.273255314023622"><ele>87.0</ele><time>2026-04-03T12:28:39.001Z</time></trkpt><trkpt lat="38.99962817482437" lon="-9.27315137104238"><ele>87.0</ele><time>2026-04-03T12:28:40.001Z</time></trkpt><trkpt lat="38.999541576396815" lon="-9.27308480403185"><ele>87.0</ele><time>2026-04-03T12:28:41.001Z</time></trkpt><trkpt lat="38.99944489872526" lon="-9.272973841389458"><ele>87.75</ele><time>2026-04-03T12:28:42.001Z</time></trkpt><trkpt lat="38.99938634334186" lon="-9.272825405845097"><ele>88.5</ele><time>2026-04-03T12:28:43.001Z</time></trkpt><trkpt lat="38.99937920962711" lon="-9.272659773793196"><ele>89.25</ele><time>2026-04-03T12:28:44.001Z</time></trkpt><trkpt lat="38.99940008649906" lon="-9.272496662601407"><ele>90.0</ele><time>2026-04-03T12:28:45.001Z</time></trkpt><trkpt lat="38.99942837504847" lon="-9.272310235922014"><ele>91.0</ele><time>2026-04-03T12:28:46.001Z</time></trkpt><trkpt lat="38.999464126270034" lon="-9.272096399410442"><ele>92.0</ele><time>2026-04-03T12:28:47.001Z</time></trkpt><trkpt lat="38.999501329011935" lon="-9.271881958204883"><ele>93.0</ele><time>2026-04-03T12:28:48.001Z</time></trkpt><trkpt lat="38.99953915084099" lon="-9.27168128819059"><ele>93.0</ele><time>2026-04-03T12:28:49.001Z</time></trkpt><trkpt lat="38.99957924926414" lon="-9.271483660140458"><ele>93.0</ele><time>2026-04-03T12:28:50.001Z</time></trkpt><trkpt lat="38.999605753373935" lon="-9.27131350836205"><ele>93.0</ele><time>2026-04-03T12:28:51.001Z</time></trkpt><trkpt lat="38.99961191548266" lon="-9.271206203642937"><ele>93.0</ele><time>2026-04-03T12:28:52.001Z</time></trkpt><trkpt lat="38.999578965715926" lon="-9.271088970306266"><ele>94.5</ele><time>2026-04-03T12:28:53.001Z</time></trkpt><trkpt lat="38.99946031991948" lon="-9.270987670739643"><ele>96.0</ele><time>2026-04-03T12:28:55.001Z</time></trkpt><trkpt lat="38.99934658020847" lon="-9.270882263587946"><ele>97.5</ele><time>2026-04-03T12:28:56Z</time></trkpt><trkpt lat="38.99924399764056" lon="-9.270782023239315"><ele>99.0</ele><time>2026-04-03T12:28:57Z</time></trkpt><trkpt lat="38.999123415755896" lon="-9.270664194516959"><ele>103.0</ele><time>2026-04-03T12:28:58Z</time></trkpt><trkpt lat="38.99899851768872" lon="-9.270542148130637"><ele>107.0</ele><time>2026-04-03T12:28:59Z</time></trkpt><trkpt lat="38.998874174864326" lon="-9.270379414915865"><ele>111.0</ele><time>2026-04-03T12:29:00Z</time></trkpt><trkpt lat="38.99875356358841" lon="-9.270243920709643"><ele>111.0</ele><time>2026-04-03T12:29:01Z</time></trkpt><trkpt lat="38.99863432218903" lon="-9.270148590420911"><ele>111.0</ele><time>2026-04-03T12:29:02Z</time></trkpt><trkpt lat="38.998513795706316" lon="-9.270079134039388"><ele>111.0</ele><time>2026-04-03T12:29:03Z</time></trkpt><trkpt lat="38.99839157147117" lon="-9.270079167587456"><ele>111.0</ele><time>2026-04-03T12:29:04Z</time></trkpt><trkpt lat="38.99825958029496" lon="-9.270059629990163"><ele>110.6</ele><time>2026-04-03T12:29:05Z</time></trkpt><trkpt lat="38.99816844291253" lon="-9.270015658623427"><ele>110.19999999999999</ele><time>2026-04-03T12:29:06Z</time></trkpt><trkpt lat="38.99811347371695" lon="-9.26992393811301"><ele>109.80000000000001</ele><time>2026-04-03T12:29:07Z</time></trkpt><trkpt lat="38.99808804221255" lon="-9.269779853874313"><ele>109.4</ele><time>2026-04-03T12:29:08Z</time></trkpt><trkpt lat="38.99804118917046" lon="-9.269641480051256"><ele>109.0</ele><time>2026-04-03T12:29:09Z</time></trkpt><trkpt lat="38.998002622694365" lon="-9.269496668483754"><ele>112.0</ele><time>2026-04-03T12:29:10Z</time></trkpt><trkpt lat="38.99795553053713" lon="-9.269349881436076"><ele>115.0</ele><time>2026-04-03T12:29:11Z</time></trkpt><trkpt lat="38.99790379514124" lon="-9.26919812766842"><ele>118.0</ele><time>2026-04-03T12:29:12Z</time></trkpt><trkpt lat="38.99785325598987" lon="-9.269045754766024"><ele>121.0</ele><time>2026-04-03T12:29:13Z</time></trkpt><trkpt lat="38.99781362476233" lon="-9.26887782785512"><ele>121.25</ele><time>2026-04-03T12:29:14Z</time></trkpt><trkpt lat="38.99778157339245" lon="-9.268706339630628"><ele>121.5</ele><time>2026-04-03T12:29:15Z</time></trkpt><trkpt lat="38.99775992485142" lon="-9.268530764113125"><ele>121.75</ele><time>2026-04-03T12:29:16Z</time></trkpt><trkpt lat="38.99770288942162" lon="-9.268392252280957"><ele>122.0</ele><time>2026-04-03T12:29:17Z</time></trkpt><trkpt lat="38.997633715542605" lon="-9.26829493047724"><ele>122.0</ele><time>2026-04-03T12:29:18Z</time></trkpt><trkpt lat="38.997541807367604" lon="-9.268204177729332"><ele>122.0</ele><time>2026-04-03T12:29:19Z</time></trkpt><trkpt lat="38.99740632583331" lon="-9.26819547999277"><ele>122.0</ele><time>2026-04-03T12:29:20Z</time></trkpt><trkpt lat="38.99726822700765" lon="-9.268143215559116"><ele>122.0</ele><time>2026-04-03T12:29:21Z</time></trkpt><trkpt lat="38.99714276923696" lon="-9.268102524078232"><ele>121.16666666666666</ele><time>2026-04-03T12:29:22Z</time></trkpt><trkpt lat="38.997035622994325" lon="-9.268064154895047"><ele>120.33333333333333</ele><time>2026-04-03T12:29:23Z</time></trkpt><trkpt lat="38.996963699131015" lon="-9.268021435047357"><ele>119.5</ele><time>2026-04-03T12:29:24Z</time></trkpt><trkpt lat="38.996899715751255" lon="-9.267997817712025"><ele>118.66666666666666</ele><time>2026-04-03T12:29:26Z</time></trkpt><trkpt lat="38.996827658179406" lon="-9.267997940725554"><ele>117.83333333333333</ele><time>2026-04-03T12:29:29Z</time></trkpt><trkpt lat="38.99676086868587" lon="-9.268006341570423"><ele>117.0</ele><time>2026-04-03T12:29:35Z</time></trkpt><trkpt lat="38.99662178684246" lon="-9.268009274556427"><ele>117.0</ele><time>2026-04-03T12:29:37Z</time></trkpt><trkpt lat="38.9965462324779" lon="-9.268026094104432"><ele>116.99999999999999</ele><time>2026-04-03T12:29:38Z</time></trkpt><trkpt lat="38.99645889938871" lon="-9.26806883310075"><ele>116.99999999999999</ele><time>2026-04-03T12:29:39Z</time></trkpt><trkpt lat="38.99635139007125" lon="-9.268137645824334"><ele>117.0</ele><time>2026-04-03T12:29:40Z</time></trkpt><trkpt lat="38.99622804010137" lon="-9.268139507385555"><ele>117.0</ele><time>2026-04-03T12:29:41Z</time></trkpt><trkpt lat="38.996101200286915" lon="-9.268122679440948"><ele>117.0</ele><time>2026-04-03T12:29:42Z</time></trkpt><trkpt lat="38.995967725525894" lon="-9.26811036619067"><ele>117.0</ele><time>2026-04-03T12:29:43Z</time></trkpt><trkpt lat="38.995851343862036" lon="-9.268105602750923"><ele>117.0</ele><time>2026-04-03T12:29:44Z</time></trkpt><trkpt lat="38.995750416053546" lon="-9.268097055659481"><ele>117.0</ele><time>2026-04-03T12:29:45Z</time></trkpt><trkpt lat="38.99565277181147" lon="-9.268078746033524"><ele>117.0</ele><time>2026-04-03T12:29:46Z</time></trkpt><trkpt lat="38.99555387046057" lon="-9.268082013654299"><ele>117.0</ele><time>2026-04-03T12:29:47Z</time></trkpt><trkpt lat="38.995466561104706" lon="-9.268104642957441"><ele>117.0</ele><time>2026-04-03T12:29:48Z</time></trkpt><trkpt lat="38.99537902309094" lon="-9.26813488019053"><ele>117.0</ele><time>2026-04-03T12:29:49Z</time></trkpt><trkpt lat="38.995298093881544" lon="-9.268159150154114"><ele>117.0</ele><time>2026-04-03T12:29:50Z</time></trkpt><trkpt lat="38.99521899271812" lon="-9.26818957561388"><ele>117.0</ele><time>2026-04-03T12:29:51Z</time></trkpt><trkpt lat="38.99514053171446" lon="-9.268215337742188"><ele>117.0</ele><time>2026-04-03T12:29:52Z</time></trkpt><trkpt lat="38.99506290457268" lon="-9.268234131792584"><ele>117.0</ele><time>2026-04-03T12:29:53Z</time></trkpt><trkpt lat="38.99499101522587" lon="-9.268260591811483"><ele>117.0</ele><time>2026-04-03T12:29:54Z</time></trkpt><trkpt lat="38.99491978030203" lon="-9.26826646586333"><ele>117.0</ele><time>2026-04-03T12:29:55Z</time></trkpt><trkpt lat="38.99483965034451" lon="-9.268277394599403"><ele>117.0</ele><time>2026-04-03T12:29:56Z</time></trkpt><trkpt lat="38.99477492646371" lon="-9.26829584889489"><ele>117.0</ele><time>2026-04-03T12:29:57Z</time></trkpt><trkpt lat="38.99464964124481" lon="-9.268293750355467"><ele>115.19999999999999</ele><time>2026-04-03T12:29:59Z</time></trkpt><trkpt lat="38.994579156949754" lon="-9.268226055050135"><ele>113.39999999999999</ele><time>2026-04-03T12:30:01Z</time></trkpt><trkpt lat="38.99451422022501" lon="-9.268368291130175"><ele>111.60000000000001</ele><time>2026-04-03T12:30:03Z</time></trkpt><trkpt lat="38.994527810144184" lon="-9.268454300965116"><ele>109.80000000000001</ele><time>2026-04-03T12:30:04Z</time></trkpt><trkpt lat="38.99454230164259" lon="-9.268536372949425"><ele>108.0</ele><time>2026-04-03T12:30:05Z</time></trkpt><trkpt lat="38.99449797745041" lon="-9.26867177954659"><ele>108.0</ele><time>2026-04-03T12:30:07Z</time></trkpt><trkpt lat="38.99447094170858" lon="-9.268825318049887"><ele>108.00000000000001</ele><time>2026-04-03T12:30:09Z</time></trkpt><trkpt lat="38.99443956479081" lon="-9.268976763776802"><ele>108.00000000000001</ele><time>2026-04-03T12:30:11Z</time></trkpt><trkpt lat="38.99442555348303" lon="-9.269074831170647"><ele>108.0</ele><time>2026-04-03T12:30:12Z</time></trkpt><trkpt lat="38.99441440493763" lon="-9.269160664353718"><ele>108.0</ele><time>2026-04-03T12:30:13Z</time></trkpt><trkpt lat="38.99439968939018" lon="-9.269252284072598"><ele>106.83333333333333</ele><time>2026-04-03T12:30:14Z</time></trkpt><trkpt lat="38.99437984270009" lon="-9.269357184822724"><ele>105.66666666666666</ele><time>2026-04-03T12:30:15Z</time></trkpt><trkpt lat="38.994358568896466" lon="-9.26944936520786"><ele>104.5</ele><time>2026-04-03T12:30:16Z</time></trkpt><trkpt lat="38.994335920111105" lon="-9.26953488224588"><ele>103.33333333333333</ele><time>2026-04-03T12:30:17Z</time></trkpt><trkpt lat="38.994319246981235" lon="-9.269636830866117"><ele>102.16666666666666</ele><time>2026-04-03T12:30:18Z</time></trkpt><trkpt lat="38.99431007061642" lon="-9.269724800584177"><ele>101.0</ele><time>2026-04-03T12:30:19Z</time></trkpt><trkpt lat="38.994296173062494" lon="-9.269821653633345"><ele>99.83333333333333</ele><time>2026-04-03T12:30:20Z</time></trkpt><trkpt lat="38.9942792959457" lon="-9.269941002712889"><ele>98.66666666666666</ele><time>2026-04-03T12:30:21Z</time></trkpt><trkpt lat="38.994268244026415" lon="-9.270061238629957"><ele>97.5</ele><time>2026-04-03T12:30:22Z</time></trkpt><trkpt lat="38.99427066038706" lon="-9.2701773955251"><ele>96.33333333333333</ele><time>2026-04-03T12:30:23Z</time></trkpt><trkpt lat="38.99425411377116" lon="-9.270281981947093"><ele>95.16666666666666</ele><time>2026-04-03T12:30:24Z</time></trkpt><trkpt lat="38.99421177128513" lon="-9.270378013698634"><ele>94.0</ele><time>2026-04-03T12:30:25Z</time></trkpt><trkpt lat="38.9941453525954" lon="-9.270474246112059"><ele>93.66666666666666</ele><time>2026-04-03T12:30:26Z</time></trkpt><trkpt lat="38.994094819348206" lon="-9.270583907618551"><ele>93.33333333333333</ele><time>2026-04-03T12:30:27Z</time></trkpt><trkpt lat="38.994061314049326" lon="-9.270686753358035"><ele>93.0</ele><time>2026-04-03T12:30:28Z</time></trkpt><trkpt lat="38.99404022165093" lon="-9.270783865472401"><ele>92.66666666666667</ele><time>2026-04-03T12:30:29Z</time></trkpt><trkpt lat="38.99401792069913" lon="-9.270885803738036"><ele>92.33333333333334</ele><time>2026-04-03T12:30:30Z</time></trkpt><trkpt lat="38.99399835687329" lon="-9.270987641345275"><ele>92.0</ele><time>2026-04-03T12:30:31Z</time></trkpt><trkpt lat="38.99399986574115" lon="-9.271099934403905"><ele>90.66666666666667</ele><time>2026-04-03T12:30:32Z</time></trkpt><trkpt lat="38.994002297555156" lon="-9.271207525339108"><ele>89.33333333333334</ele><time>2026-04-03T12:30:33Z</time></trkpt><trkpt lat="38.99401162318479" lon="-9.271322901774127"><ele>88.0</ele><time>2026-04-03T12:30:34Z</time></trkpt><trkpt lat="38.99401119673025" lon="-9.271435593837724"><ele>86.66666666666667</ele><time>2026-04-03T12:30:35Z</time></trkpt><trkpt lat="38.99402048374681" lon="-9.271532426475398"><ele>85.33333333333333</ele><time>2026-04-03T12:30:36Z</time></trkpt><trkpt lat="38.993997622978945" lon="-9.271639883843187"><ele>84.0</ele><time>2026-04-03T12:30:38Z</time></trkpt><trkpt lat="38.99383340464558" lon="-9.271647351409555"><ele>82.0</ele><time>2026-04-03T12:30:40Z</time></trkpt><trkpt lat="38.99373397558536" lon="-9.27162306548417"><ele>80.0</ele><time>2026-04-03T12:30:41Z</time></trkpt><trkpt lat="38.99364017881122" lon="-9.27165817411531"><ele>78.0</ele><time>2026-04-03T12:30:42Z</time></trkpt><trkpt lat="38.993570900981794" lon="-9.271760401492669"><ele>76.0</ele><time>2026-04-03T12:30:43.001Z</time></trkpt><trkpt lat="38.993493464788415" lon="-9.271861430822456"><ele>74.0</ele><time>2026-04-03T12:30:44.001Z</time></trkpt><trkpt lat="38.993418837456645" lon="-9.271962016721565"><ele>74.0</ele><time>2026-04-03T12:30:45.001Z</time></trkpt><trkpt lat="38.993344343328936" lon="-9.27207428173528"><ele>74.0</ele><time>2026-04-03T12:30:46.001Z</time></trkpt><trkpt lat="38.993286666796855" lon="-9.272198853023744"><ele>74.0</ele><time>2026-04-03T12:30:47.001Z</time></trkpt><trkpt lat="38.99324586068314" lon="-9.272333365906002"><ele>74.0</ele><time>2026-04-03T12:30:48.001Z</time></trkpt><trkpt lat="38.993210403382434" lon="-9.272464777288691"><ele>74.0</ele><time>2026-04-03T12:30:49.001Z</time></trkpt><trkpt lat="38.993148538735745" lon="-9.272575021963686"><ele>74.60000000000001</ele><time>2026-04-03T12:30:50.001Z</time></trkpt><trkpt lat="38.993083436215194" lon="-9.272669138659541"><ele>75.2</ele><time>2026-04-03T12:30:51.001Z</time></trkpt><trkpt lat="38.99301709640553" lon="-9.272762545785392"><ele>75.80000000000001</ele><time>2026-04-03T12:30:52.001Z</time></trkpt><trkpt lat="38.992947697408376" lon="-9.272855821568125"><ele>76.4</ele><time>2026-04-03T12:30:53.001Z</time></trkpt><trkpt lat="38.9929054398159" lon="-9.272964781184175"><ele>77.0</ele><time>2026-04-03T12:30:54.001Z</time></trkpt><trkpt lat="38.99283839849724" lon="-9.27303754758866"><ele>77.0</ele><time>2026-04-03T12:30:55.001Z</time></trkpt><trkpt lat="38.99277440763823" lon="-9.273100073157666"><ele>77.0</ele><time>2026-04-03T12:30:56Z</time></trkpt><trkpt lat="38.99267234977683" lon="-9.273147655966119"><ele>77.0</ele><time>2026-04-03T12:30:57Z</time></trkpt><trkpt lat="38.992583084107935" lon="-9.273206346218368"><ele>77.0</ele><time>2026-04-03T12:30:58Z</time></trkpt><trkpt lat="38.99249489240301" lon="-9.273235571636262"><ele>77.0</ele><time>2026-04-03T12:30:59Z</time></trkpt><trkpt lat="38.99239293059743" lon="-9.273231532978228"><ele>77.0</ele><time>2026-04-03T12:31:00Z</time></trkpt><trkpt lat="38.99227618607464" lon="-9.273242576496724"><ele>77.0</ele><time>2026-04-03T12:31:01Z</time></trkpt><trkpt lat="38.99215859271469" lon="-9.273243026550436"><ele>77.0</ele><time>2026-04-03T12:31:02Z</time></trkpt><trkpt lat="38.992059854946824" lon="-9.273251393923337"><ele>77.0</ele><time>2026-04-03T12:31:03Z</time></trkpt><trkpt lat="38.99196662940088" lon="-9.273278652528717"><ele>77.0</ele><time>2026-04-03T12:31:04Z</time></trkpt><trkpt lat="38.99187765376056" lon="-9.273309336651112"><ele>77.0</ele><time>2026-04-03T12:31:05Z</time></trkpt><trkpt lat="38.99179619858958" lon="-9.273336092023468"><ele>77.0</ele><time>2026-04-03T12:31:06Z</time></trkpt><trkpt lat="38.99172092707396" lon="-9.273360641971998"><ele>77.0</ele><time>2026-04-03T12:31:07Z</time></trkpt><trkpt lat="38.99164398794333" lon="-9.273385703953316"><ele>77.0</ele><time>2026-04-03T12:31:08Z</time></trkpt><trkpt lat="38.9915763616251" lon="-9.273384280358743"><ele>77.0</ele><time>2026-04-03T12:31:09Z</time></trkpt><trkpt lat="38.99150516338068" lon="-9.273406039200154"><ele>77.0</ele><time>2026-04-03T12:31:10Z</time></trkpt><trkpt lat="38.99141185935835" lon="-9.273418386566465"><ele>76.83333333333334</ele><time>2026-04-03T12:31:12Z</time></trkpt><trkpt lat="38.99134792386897" lon="-9.273456672299018"><ele>76.66666666666667</ele><time>2026-04-03T12:31:23Z</time></trkpt><trkpt lat="38.99133585690868" lon="-9.27358344713592"><ele>76.5</ele><time>2026-04-03T12:31:25Z</time></trkpt><trkpt lat="38.99132665980547" lon="-9.273697156593716"><ele>76.33333333333333</ele><time>2026-04-03T12:31:26Z</time></trkpt><trkpt lat="38.991315329037334" lon="-9.273805811713792"><ele>76.16666666666666</ele><time>2026-04-03T12:31:27Z</time></trkpt><trkpt lat="38.99130792868957" lon="-9.273896676936893"><ele>76.0</ele><time>2026-04-03T12:31:28Z</time></trkpt><trkpt lat="38.99129872344056" lon="-9.274000039714714"><ele>74.16666666666666</ele><time>2026-04-03T12:31:30Z</time></trkpt><trkpt lat="38.9912840661214" lon="-9.274094469456253"><ele>72.33333333333333</ele><time>2026-04-03T12:31:45Z</time></trkpt><trkpt lat="38.99118899450928" lon="-9.27411317766146"><ele>70.5</ele><time>2026-04-03T12:31:47Z</time></trkpt><trkpt lat="38.99111921250465" lon="-9.274088312597"><ele>68.66666666666667</ele><time>2026-04-03T12:31:48Z</time></trkpt><trkpt lat="38.991031206029966" lon="-9.274049945499153"><ele>66.83333333333334</ele><time>2026-04-03T12:31:49Z</time></trkpt><trkpt lat="38.99093888102971" lon="-9.274016942544968"><ele>65.0</ele><time>2026-04-03T12:31:50Z</time></trkpt><trkpt lat="38.990836154182354" lon="-9.273994728829036"><ele>64.5</ele><time>2026-04-03T12:31:51Z</time></trkpt><trkpt lat="38.99072314508739" lon="-9.273977713689506"><ele>64.0</ele><time>2026-04-03T12:31:52Z</time></trkpt><trkpt lat="38.99059625886639" lon="-9.273972540185099"><ele>63.5</ele><time>2026-04-03T12:31:53Z</time></trkpt><trkpt lat="38.9904650081448" lon="-9.273985908712904"><ele>63.0</ele><time>2026-04-03T12:31:54Z</time></trkpt><trkpt lat="38.99031186777422" lon="-9.27399724665791"><ele>63.0</ele><time>2026-04-03T12:31:55Z</time></trkpt><trkpt lat="38.99015778833455" lon="-9.274017737075948"><ele>63.0</ele><time>2026-04-03T12:31:56Z</time></trkpt><trkpt lat="38.98999697440897" lon="-9.274037243423141"><ele>63.0</ele><time>2026-04-03T12:31:57Z</time></trkpt><trkpt lat="38.98983812561272" lon="-9.274060686075963"><ele>62.0</ele><time>2026-04-03T12:31:58Z</time></trkpt><trkpt lat="38.9896971372541" lon="-9.27407826576589"><ele>61.0</ele><time>2026-04-03T12:31:59Z</time></trkpt><trkpt lat="38.98956488709106" lon="-9.274092868258272"><ele>60.0</ele><time>2026-04-03T12:32:00Z</time></trkpt><trkpt lat="38.989434668153415" lon="-9.274108121496496"><ele>59.0</ele><time>2026-04-03T12:32:01Z</time></trkpt><trkpt lat="38.98930165714014" lon="-9.274126213131053"><ele>59.0</ele><time>2026-04-03T12:32:02Z</time></trkpt><trkpt lat="38.98916539624929" lon="-9.27414692150724"><ele>59.0</ele><time>2026-04-03T12:32:03Z</time></trkpt><trkpt lat="38.9890251302369" lon="-9.274170708991393"><ele>59.0</ele><time>2026-04-03T12:32:04Z</time></trkpt><trkpt lat="38.988891819373606" lon="-9.274189528432872"><ele>59.0</ele><time>2026-04-03T12:32:05Z</time></trkpt><trkpt lat="38.98876771088513" lon="-9.274213804733993"><ele>59.0</ele><time>2026-04-03T12:32:06Z</time></trkpt><trkpt lat="38.98864258923216" lon="-9.274232807756238"><ele>59.0</ele><time>2026-04-03T12:32:07Z</time></trkpt><trkpt lat="38.98851476142968" lon="-9.274253456575893"><ele>59.0</ele><time>2026-04-03T12:32:08Z</time></trkpt><trkpt lat="38.98838539804748" lon="-9.274269264086596"><ele>59.0</ele><time>2026-04-03T12:32:09Z</time></trkpt><trkpt lat="38.98825543008697" lon="-9.274287046327448"><ele>60.0</ele><time>2026-04-03T12:32:10Z</time></trkpt><trkpt lat="38.9881231159425" lon="-9.274302148857416"><ele>61.0</ele><time>2026-04-03T12:32:11Z</time></trkpt><trkpt lat="38.987992379901044" lon="-9.27432273574967"><ele>62.0</ele><time>2026-04-03T12:32:12Z</time></trkpt><trkpt lat="38.98785785145076" lon="-9.274339983459514"><ele>63.0</ele><time>2026-04-03T12:32:13Z</time></trkpt><trkpt lat="38.98772389660788" lon="-9.27435668294707"><ele>63.0</ele><time>2026-04-03T12:32:14Z</time></trkpt><trkpt lat="38.98758374328026" lon="-9.274352739466005"><ele>63.0</ele><time>2026-04-03T12:32:15Z</time></trkpt><trkpt lat="38.987450287279515" lon="-9.274310846178574"><ele>63.0</ele><time>2026-04-03T12:32:16Z</time></trkpt><trkpt lat="38.98731479606648" lon="-9.274244667699827"><ele>63.0</ele><time>2026-04-03T12:32:17Z</time></trkpt><trkpt lat="38.98718542869742" lon="-9.274166380427696"><ele>63.5</ele><time>2026-04-03T12:32:18Z</time></trkpt><trkpt lat="38.98705663319531" lon="-9.274080237436397"><ele>64.0</ele><time>2026-04-03T12:32:19Z</time></trkpt><trkpt lat="38.98692623800183" lon="-9.274002479604855"><ele>64.5</ele><time>2026-04-03T12:32:20Z</time></trkpt><trkpt lat="38.986781489142174" lon="-9.273917804912477"><ele>65.0</ele><time>2026-04-03T12:32:21Z</time></trkpt><trkpt lat="38.986631034868886" lon="-9.273825838950614"><ele>65.66666666666667</ele><time>2026-04-03T12:32:22Z</time></trkpt><trkpt lat="38.98647217303192" lon="-9.273742198404046"><ele>66.33333333333333</ele><time>2026-04-03T12:32:23Z</time></trkpt><trkpt lat="38.986327330357526" lon="-9.27367916868188"><ele>67.0</ele><time>2026-04-03T12:32:24Z</time></trkpt><trkpt lat="38.98618739607563" lon="-9.273633154942841"><ele>67.0</ele><time>2026-04-03T12:32:25Z</time></trkpt><trkpt lat="38.986035502030454" lon="-9.273639880944152"><ele>67.0</ele><time>2026-04-03T12:32:26Z</time></trkpt><trkpt lat="38.985870272767635" lon="-9.273653053483978"><ele>67.0</ele><time>2026-04-03T12:32:27Z</time></trkpt><trkpt lat="38.9857137397553" lon="-9.273664788546045"><ele>67.0</ele><time>2026-04-03T12:32:28Z</time></trkpt><trkpt lat="38.98557681126916" lon="-9.273657852552558"><ele>67.0</ele><time>2026-04-03T12:32:29Z</time></trkpt><trkpt lat="38.985451878520806" lon="-9.273668031047507"><ele>67.0</ele><time>2026-04-03T12:32:30Z</time></trkpt><trkpt lat="38.98532283893297" lon="-9.273683934689974"><ele>67.0</ele><time>2026-04-03T12:32:31Z</time></trkpt><trkpt lat="38.98517891362343" lon="-9.273693624827414"><ele>67.0</ele><time>2026-04-03T12:32:32Z</time></trkpt><trkpt lat="38.985033921965545" lon="-9.273689802547606"><ele>67.0</ele><time>2026-04-03T12:32:33Z</time></trkpt><trkpt lat="38.98488728244837" lon="-9.273688037464263"><ele>67.0</ele><time>2026-04-03T12:32:34Z</time></trkpt><trkpt lat="38.98473846121962" lon="-9.273675147849904"><ele>67.0</ele><time>2026-04-03T12:32:35Z</time></trkpt><trkpt lat="38.984580902677834" lon="-9.273661131490968"><ele>68.66666666666666</ele><time>2026-04-03T12:32:36Z</time></trkpt><trkpt lat="38.984415194726054" lon="-9.273650512060769"><ele>70.33333333333333</ele><time>2026-04-03T12:32:37Z</time></trkpt><trkpt lat="38.984229832794604" lon="-9.273633790833488"><ele>72.0</ele><time>2026-04-03T12:32:38Z</time></trkpt><trkpt lat="38.98404002214751" lon="-9.27362255112725"><ele>72.0</ele><time>2026-04-03T12:32:39Z</time></trkpt><trkpt lat="38.98385307442336" lon="-9.273608462385983"><ele>72.0</ele><time>2026-04-03T12:32:40Z</time></trkpt><trkpt lat="38.983679716746465" lon="-9.273600730910863"><ele>72.0</ele><time>2026-04-03T12:32:41Z</time></trkpt><trkpt lat="38.98351003463959" lon="-9.273601313936133"><ele>72.0</ele><time>2026-04-03T12:32:42Z</time></trkpt><trkpt lat="38.98334782699044" lon="-9.273591204642933"><ele>72.0</ele><time>2026-04-03T12:32:43Z</time></trkpt><trkpt lat="38.98318971885687" lon="-9.273580746848484"><ele>72.0</ele><time>2026-04-03T12:32:44Z</time></trkpt><trkpt lat="38.98304355462064" lon="-9.273566086014982"><ele>72.0</ele><time>2026-04-03T12:32:45Z</time></trkpt><trkpt lat="38.98290394708346" lon="-9.273549894251387"><ele>72.0</ele><time>2026-04-03T12:32:46Z</time></trkpt><trkpt lat="38.98276536280582" lon="-9.273523979590895"><ele>72.0</ele><time>2026-04-03T12:32:47Z</time></trkpt><trkpt lat="38.982627389048126" lon="-9.273483282092405"><ele>72.0</ele><time>2026-04-03T12:32:48Z</time></trkpt><trkpt lat="38.982489837389764" lon="-9.27342469229781"><ele>72.0</ele><time>2026-04-03T12:32:49Z</time></trkpt><trkpt lat="38.98236890181723" lon="-9.273328363121566"><ele>72.0</ele><time>2026-04-03T12:32:50Z</time></trkpt><trkpt lat="38.98227511160348" lon="-9.273201349605024"><ele>72.0</ele><time>2026-04-03T12:32:51Z</time></trkpt><trkpt lat="38.982208782773824" lon="-9.27303519647823"><ele>72.0</ele><time>2026-04-03T12:32:52Z</time></trkpt><trkpt lat="38.982160582815574" lon="-9.272850670458292"><ele>72.66666666666667</ele><time>2026-04-03T12:32:53Z</time></trkpt><trkpt lat="38.98213785700566" lon="-9.272645430949465"><ele>73.33333333333334</ele><time>2026-04-03T12:32:54Z</time></trkpt><trkpt lat="38.982124558033426" lon="-9.272409205096286"><ele>74.0</ele><time>2026-04-03T12:32:55Z</time></trkpt><trkpt lat="38.982103162116495" lon="-9.272154237635878"><ele>71.5</ele><time>2026-04-03T12:32:56Z</time></trkpt><trkpt lat="38.98207125223043" lon="-9.271871988698619"><ele>69.0</ele><time>2026-04-03T12:32:57Z</time></trkpt><trkpt lat="38.982016721650886" lon="-9.271584228123817"><ele>66.5</ele><time>2026-04-03T12:32:58Z</time></trkpt><trkpt lat="38.98197274468721" lon="-9.271280787561706"><ele>64.0</ele><time>2026-04-03T12:32:59.001Z</time></trkpt><trkpt lat="38.981927212171954" lon="-9.27097170454386"><ele>64.0</ele><time>2026-04-03T12:33:00.001Z</time></trkpt><trkpt lat="38.9818815337331" lon="-9.270657457353083"><ele>64.0</ele><time>2026-04-03T12:33:01.001Z</time></trkpt><trkpt lat="38.98183596386065" lon="-9.27034169015854"><ele>64.0</ele><time>2026-04-03T12:33:02.001Z</time></trkpt><trkpt lat="38.98179043109515" lon="-9.27002402485827"><ele>64.0</ele><time>2026-04-03T12:33:03.001Z</time></trkpt><trkpt lat="38.98175583695742" lon="-9.269706195498093"><ele>64.5</ele><time>2026-04-03T12:33:04.001Z</time></trkpt><trkpt lat="38.98170157089405" lon="-9.26939043503757"><ele>65.0</ele><time>2026-04-03T12:33:05Z</time></trkpt><trkpt lat="38.981658803484166" lon="-9.269075723742112"><ele>65.66666666666667</ele><time>2026-04-03T12:33:06.001Z</time></trkpt><trkpt lat="38.98162579960527" lon="-9.268803135072945"><ele>66.33333333333333</ele><time>2026-04-03T12:33:07.001Z</time></trkpt><trkpt lat="38.98158425107429" lon="-9.268537527556035"><ele>67.0</ele><time>2026-04-03T12:33:08.001Z</time></trkpt><trkpt lat="38.98153627243856" lon="-9.268272110218746"><ele>67.66666666666666</ele><time>2026-04-03T12:33:09Z</time></trkpt><trkpt lat="38.98144457842377" lon="-9.268029854404052"><ele>68.33333333333333</ele><time>2026-04-03T12:33:10Z</time></trkpt><trkpt lat="38.98134742007975" lon="-9.267793913917098"><ele>69.0</ele><time>2026-04-03T12:33:11Z</time></trkpt><trkpt lat="38.98125004784278" lon="-9.267551394198506"><ele>69.0</ele><time>2026-04-03T12:33:12Z</time></trkpt><trkpt lat="38.98115244014496" lon="-9.267308021436708"><ele>69.0</ele><time>2026-04-03T12:33:13Z</time></trkpt><trkpt lat="38.98107027121775" lon="-9.267074052831683"><ele>69.0</ele><time>2026-04-03T12:33:14Z</time></trkpt><trkpt lat="38.98098059245085" lon="-9.26686218324257"><ele>70.0</ele><time>2026-04-03T12:33:15Z</time></trkpt><trkpt lat="38.98090991257445" lon="-9.266650540557224"><ele>71.0</ele><time>2026-04-03T12:33:16Z</time></trkpt><trkpt lat="38.980863337940974" lon="-9.266440351806176"><ele>72.0</ele><time>2026-04-03T12:33:17Z</time></trkpt><trkpt lat="38.980841400904005" lon="-9.266240452932099"><ele>72.0</ele><time>2026-04-03T12:33:18Z</time></trkpt><trkpt lat="38.98084565908049" lon="-9.266065305386755"><ele>72.0</ele><time>2026-04-03T12:33:19Z</time></trkpt><trkpt lat="38.9808476647729" lon="-9.265890284707545"><ele>72.0</ele><time>2026-04-03T12:33:20Z</time></trkpt><trkpt lat="38.98084495427249" lon="-9.265744763110066"><ele>72.0</ele><time>2026-04-03T12:33:21Z</time></trkpt><trkpt lat="38.98084516885923" lon="-9.265626177603325"><ele>72.4</ele><time>2026-04-03T12:33:22Z</time></trkpt><trkpt lat="38.98084161435459" lon="-9.265538735979316"><ele>72.80000000000001</ele><time>2026-04-03T12:33:23Z</time></trkpt><trkpt lat="38.98083684221582" lon="-9.2654145097385"><ele>73.2</ele><time>2026-04-03T12:33:25Z</time></trkpt><trkpt lat="38.98083383290132" lon="-9.265258649288812"><ele>73.60000000000001</ele><time>2026-04-03T12:34:03Z</time></trkpt><trkpt lat="38.98083147973751" lon="-9.265175258967457"><ele>74.0</ele><time>2026-04-03T12:34:04Z</time></trkpt><trkpt lat="38.9808152801779" lon="-9.265040139945816"><ele>74.0</ele><time>2026-04-03T12:34:06Z</time></trkpt><trkpt lat="38.98082204121152" lon="-9.2649062266902"><ele>74.0</ele><time>2026-04-03T12:34:08Z</time></trkpt><trkpt lat="38.980820425769615" lon="-9.264818965886978"><ele>74.0</ele><time>2026-04-03T12:34:09Z</time></trkpt><trkpt lat="38.9808117256251" lon="-9.264687668396881"><ele>74.0</ele><time>2026-04-03T12:34:10Z</time></trkpt><trkpt lat="38.98076983922894" lon="-9.264543445417358"><ele>74.0</ele><time>2026-04-03T12:34:11Z</time></trkpt><trkpt lat="38.98073179180173" lon="-9.264380523765983"><ele>74.0</ele><time>2026-04-03T12:34:12Z</time></trkpt><trkpt lat="38.98066824366612" lon="-9.26422859296862"><ele>74.0</ele><time>2026-04-03T12:34:13Z</time></trkpt><trkpt lat="38.98059578407739" lon="-9.26405537861987"><ele>74.0</ele><time>2026-04-03T12:34:14Z</time></trkpt><trkpt lat="38.980521413051726" lon="-9.263882291903652"><ele>74.0</ele><time>2026-04-03T12:34:15Z</time></trkpt><trkpt lat="38.980441597854174" lon="-9.26369653476692"><ele>75.66666666666667</ele><time>2026-04-03T12:34:16Z</time></trkpt><trkpt lat="38.98035878743943" lon="-9.263503806805097"><ele>77.33333333333333</ele><time>2026-04-03T12:34:17Z</time></trkpt><trkpt lat="38.98027609026649" lon="-9.263311497332301"><ele>79.0</ele><time>2026-04-03T12:34:18Z</time></trkpt><trkpt lat="38.980200448579595" lon="-9.263137249683563"><ele>79.5</ele><time>2026-04-03T12:34:19Z</time></trkpt><trkpt lat="38.98013077501903" lon="-9.262976750139337"><ele>80.0</ele><time>2026-04-03T12:34:20Z</time></trkpt><trkpt lat="38.98006101456829" lon="-9.262816050447258"><ele>80.5</ele><time>2026-04-03T12:34:21Z</time></trkpt><trkpt lat="38.97999315998883" lon="-9.262659741067887"><ele>81.0</ele><time>2026-04-03T12:34:22Z</time></trkpt><trkpt lat="38.97992873273041" lon="-9.262512463961436"><ele>81.0</ele><time>2026-04-03T12:34:23Z</time></trkpt><trkpt lat="38.97986971450609" lon="-9.262365606818221"><ele>81.0</ele><time>2026-04-03T12:34:24Z</time></trkpt><trkpt lat="38.979799314323756" lon="-9.262233925288118"><ele>81.0</ele><time>2026-04-03T12:34:25Z</time></trkpt><trkpt lat="38.979728929882924" lon="-9.26209149897441"><ele>81.0</ele><time>2026-04-03T12:34:26Z</time></trkpt><trkpt lat="38.97965650718279" lon="-9.261938378937408"><ele>84.33333333333333</ele><time>2026-04-03T12:34:27Z</time></trkpt><trkpt lat="38.979589780930795" lon="-9.261774428701855"><ele>87.66666666666666</ele><time>2026-04-03T12:34:28Z</time></trkpt><trkpt lat="38.97950757825313" lon="-9.26159556751857"><ele>91.0</ele><time>2026-04-03T12:34:29Z</time></trkpt><trkpt lat="38.97942055634875" lon="-9.261417853037877"><ele>90.66666666666666</ele><time>2026-04-03T12:34:30Z</time></trkpt><trkpt lat="38.97932948855588" lon="-9.261237462112181"><ele>90.33333333333333</ele><time>2026-04-03T12:34:31Z</time></trkpt><trkpt lat="38.979237274704445" lon="-9.261061245270728"><ele>90.0</ele><time>2026-04-03T12:34:32Z</time></trkpt><trkpt lat="38.97915510395428" lon="-9.26090162792185"><ele>90.0</ele><time>2026-04-03T12:34:33Z</time></trkpt><trkpt lat="38.97907427926944" lon="-9.260737732421257"><ele>90.0</ele><time>2026-04-03T12:34:34Z</time></trkpt><trkpt lat="38.978993507694" lon="-9.26057461410617"><ele>90.0</ele><time>2026-04-03T12:34:35Z</time></trkpt><trkpt lat="38.978895059964835" lon="-9.260420825556487"><ele>91.33333333333333</ele><time>2026-04-03T12:34:36Z</time></trkpt><trkpt lat="38.97881435622053" lon="-9.260260050031887"><ele>92.66666666666666</ele><time>2026-04-03T12:34:37Z</time></trkpt><trkpt lat="38.9787316408022" lon="-9.260095266005969"><ele>94.0</ele><time>2026-04-03T12:34:38Z</time></trkpt><trkpt lat="38.978657309816185" lon="-9.259918399356076"><ele>93.75</ele><time>2026-04-03T12:34:39Z</time></trkpt><trkpt lat="38.97857556323434" lon="-9.259757516571646"><ele>93.5</ele><time>2026-04-03T12:34:40Z</time></trkpt><trkpt lat="38.97849701471404" lon="-9.259602558438365"><ele>93.25</ele><time>2026-04-03T12:34:41Z</time></trkpt><trkpt lat="38.9784101858956" lon="-9.259442348696654"><ele>93.0</ele><time>2026-04-03T12:34:42Z</time></trkpt><trkpt lat="38.978331802893905" lon="-9.259289555291145"><ele>93.0</ele><time>2026-04-03T12:34:43Z</time></trkpt><trkpt lat="38.97825188071033" lon="-9.259138333519745"><ele>93.0</ele><time>2026-04-03T12:34:44Z</time></trkpt><trkpt lat="38.978178730380215" lon="-9.25898305784974"><ele>93.0</ele><time>2026-04-03T12:34:45Z</time></trkpt><trkpt lat="38.97813682631854" lon="-9.2588126953286"><ele>93.0</ele><time>2026-04-03T12:34:46Z</time></trkpt><trkpt lat="38.97812133634528" lon="-9.258628082407505"><ele>94.5</ele><time>2026-04-03T12:34:47Z</time></trkpt><trkpt lat="38.9781225482975" lon="-9.25843977318238"><ele>96.0</ele><time>2026-04-03T12:34:48Z</time></trkpt><trkpt lat="38.978131491320056" lon="-9.258247535297228"><ele>97.5</ele><time>2026-04-03T12:34:49Z</time></trkpt><trkpt lat="38.97813646841359" lon="-9.258060893791725"><ele>99.0</ele><time>2026-04-03T12:34:50Z</time></trkpt><trkpt lat="38.97814141810564" lon="-9.257878075219537"><ele>100.25</ele><time>2026-04-03T12:34:51Z</time></trkpt><trkpt lat="38.97814133109442" lon="-9.257691886629527"><ele>101.5</ele><time>2026-04-03T12:34:52Z</time></trkpt><trkpt lat="38.97812133308573" lon="-9.25751610363169"><ele>102.75</ele><time>2026-04-03T12:34:53Z</time></trkpt><trkpt lat="38.978093571255265" lon="-9.257369773428561"><ele>104.0</ele><time>2026-04-03T12:34:54Z</time></trkpt><trkpt lat="38.97804723085844" lon="-9.257228558757234"><ele>104.0</ele><time>2026-04-03T12:34:55Z</time></trkpt><trkpt lat="38.97796982750265" lon="-9.257107927307592"><ele>104.0</ele><time>2026-04-03T12:34:56Z</time></trkpt><trkpt lat="38.97787531248202" lon="-9.257002998184223"><ele>104.0</ele><time>2026-04-03T12:34:57Z</time></trkpt><trkpt lat="38.977772721977914" lon="-9.25692295013453"><ele>104.0</ele><time>2026-04-03T12:34:58Z</time></trkpt><trkpt lat="38.97765909484605" lon="-9.256884574357407"><ele>104.0</ele><time>2026-04-03T12:34:59Z</time></trkpt><trkpt lat="38.9775456219906" lon="-9.256876971856395"><ele>104.0</ele><time>2026-04-03T12:35:00Z</time></trkpt><trkpt lat="38.977436599849156" lon="-9.256889048108015"><ele>104.0</ele><time>2026-04-03T12:35:01Z</time></trkpt><trkpt lat="38.97732886806103" lon="-9.256932183231196"><ele>104.0</ele><time>2026-04-03T12:35:02Z</time></trkpt><trkpt lat="38.97722882186197" lon="-9.256998244196248"><ele>104.0</ele><time>2026-04-03T12:35:03Z</time></trkpt><trkpt lat="38.977142428718345" lon="-9.257099687600565"><ele>102.75</ele><time>2026-04-03T12:35:04Z</time></trkpt><trkpt lat="38.97706404654424" lon="-9.257233876566561"><ele>101.5</ele><time>2026-04-03T12:35:05Z</time></trkpt><trkpt lat="38.97700556726873" lon="-9.257395301209247"><ele>100.25</ele><time>2026-04-03T12:35:06Z</time></trkpt><trkpt lat="38.97695315977545" lon="-9.257575621135853"><ele>99.0</ele><time>2026-04-03T12:35:07Z</time></trkpt><trkpt lat="38.97689899909559" lon="-9.257747468576992"><ele>98.0</ele><time>2026-04-03T12:35:08Z</time></trkpt><trkpt lat="38.97686337347942" lon="-9.257925549643268"><ele>97.0</ele><time>2026-04-03T12:35:09Z</time></trkpt><trkpt lat="38.97682247126961" lon="-9.25810224094024"><ele>96.0</ele><time>2026-04-03T12:35:10Z</time></trkpt><trkpt lat="38.9767612698716" lon="-9.258254676637273"><ele>95.0</ele><time>2026-04-03T12:35:11Z</time></trkpt><trkpt lat="38.97667375526368" lon="-9.258371391777986"><ele>98.0</ele><time>2026-04-03T12:35:12Z</time></trkpt><trkpt lat="38.97656053677327" lon="-9.258468254813558"><ele>101.0</ele><time>2026-04-03T12:35:13Z</time></trkpt><trkpt lat="38.976432492771316" lon="-9.258536595181948"><ele>104.0</ele><time>2026-04-03T12:35:14Z</time></trkpt><trkpt lat="38.97629808850856" lon="-9.258591366105156"><ele>107.0</ele><time>2026-04-03T12:35:15Z</time></trkpt><trkpt lat="38.976156773933845" lon="-9.258619576595937"><ele>107.0</ele><time>2026-04-03T12:35:16Z</time></trkpt><trkpt lat="38.97601043489421" lon="-9.258634039336863"><ele>107.0</ele><time>2026-04-03T12:35:17Z</time></trkpt><trkpt lat="38.97586353906521" lon="-9.258631781157513"><ele>107.0</ele><time>2026-04-03T12:35:18Z</time></trkpt><trkpt lat="38.975720564236624" lon="-9.258603544635292"><ele>107.0</ele><time>2026-04-03T12:35:19Z</time></trkpt><trkpt lat="38.975578455090734" lon="-9.258550418684695"><ele>108.33333333333333</ele><time>2026-04-03T12:35:20Z</time></trkpt><trkpt lat="38.97545483755437" lon="-9.258479611729522"><ele>109.66666666666666</ele><time>2026-04-03T12:35:21Z</time></trkpt><trkpt lat="38.975380982685266" lon="-9.258414643781828"><ele>111.0</ele><time>2026-04-03T12:35:22Z</time></trkpt><trkpt lat="38.9753369682548" lon="-9.25835367333869"><ele>112.33333333333334</ele><time>2026-04-03T12:35:23Z</time></trkpt><trkpt lat="38.97529673083611" lon="-9.2582908591495"><ele>113.66666666666667</ele><time>2026-04-03T12:35:24Z</time></trkpt><trkpt lat="38.97530250945035" lon="-9.25816919180027"><ele>115.0</ele><time>2026-04-03T12:35:25Z</time></trkpt><trkpt lat="38.975279567378855" lon="-9.258044630561908"><ele>117.2</ele><time>2026-04-03T12:35:26Z</time></trkpt><trkpt lat="38.97518237294576" lon="-9.257972570095191"><ele>119.4</ele><time>2026-04-03T12:35:27Z</time></trkpt><trkpt lat="38.97513264834019" lon="-9.257840110379423"><ele>121.6</ele><time>2026-04-03T12:35:28Z</time></trkpt><trkpt lat="38.97508082581139" lon="-9.257705036314233"><ele>123.8</ele><time>2026-04-03T12:35:29Z</time></trkpt><trkpt lat="38.97503869752206" lon="-9.257580101180817"><ele>126.0</ele><time>2026-04-03T12:35:30Z</time></trkpt><trkpt lat="38.974975706250184" lon="-9.257466501356411"><ele>126.25</ele><time>2026-04-03T12:35:31Z</time></trkpt><trkpt lat="38.97487379670605" lon="-9.25738861313995"><ele>126.5</ele><time>2026-04-03T12:35:32Z</time></trkpt><trkpt lat="38.97481828631627" lon="-9.25729471773238"><ele>126.75</ele><time>2026-04-03T12:35:33Z</time></trkpt><trkpt lat="38.97476408010336" lon="-9.257150749349417"><ele>127.0</ele><time>2026-04-03T12:35:34Z</time></trkpt><trkpt lat="38.97471030237048" lon="-9.257004206942293"><ele>129.2</ele><time>2026-04-03T12:35:35Z</time></trkpt><trkpt lat="38.97466049544642" lon="-9.256856804227931"><ele>131.39999999999998</ele><time>2026-04-03T12:35:36Z</time></trkpt><trkpt lat="38.974613068995595" lon="-9.256716888761341"><ele>133.60000000000002</ele><time>2026-04-03T12:35:37Z</time></trkpt><trkpt lat="38.974575099664406" lon="-9.256603844157983"><ele>135.8</ele><time>2026-04-03T12:35:38Z</time></trkpt><trkpt lat="38.9745393185244" lon="-9.256501740539012"><ele>138.0</ele><time>2026-04-03T12:35:39Z</time></trkpt><trkpt lat="38.97449862131513" lon="-9.256390729607432"><ele>138.4</ele><time>2026-04-03T12:35:40Z</time></trkpt><trkpt lat="38.97445493295539" lon="-9.256266158806755"><ele>138.8</ele><time>2026-04-03T12:35:41Z</time></trkpt><trkpt lat="38.974422774517464" lon="-9.256162749333857"><ele>139.2</ele><time>2026-04-03T12:35:42Z</time></trkpt><trkpt lat="38.9744188059002" lon="-9.256072172576792"><ele>139.6</ele><time>2026-04-03T12:36:01Z</time></trkpt><trkpt lat="38.974496406944006" lon="-9.25597668221614"><ele>140.0</ele><time>2026-04-03T12:39:02Z</time></trkpt><trkpt lat="38.97456101453299" lon="-9.255871835508094"><ele>140.0</ele><time>2026-04-03T12:39:04Z</time></trkpt><trkpt lat="38.974626448227234" lon="-9.2557327104355"><ele>140.0</ele><time>2026-04-03T12:39:06Z</time></trkpt><trkpt lat="38.97460164495124" lon="-9.255637109851836"><ele>140.0</ele><time>2026-04-03T12:39:07Z</time></trkpt><trkpt lat="38.97457865089798" lon="-9.255556497323903"><ele>140.0</ele><time>2026-04-03T12:39:08Z</time></trkpt><trkpt lat="38.97456937896605" lon="-9.255459203685273"><ele>140.0</ele><time>2026-04-03T12:39:09Z</time></trkpt><trkpt lat="38.974551409176186" lon="-9.255357713605646"><ele>140.0</ele><time>2026-04-03T12:39:10Z</time></trkpt><trkpt lat="38.97452159457249" lon="-9.255277197379439"><ele>139.6</ele><time>2026-04-03T12:39:11Z</time></trkpt><trkpt lat="38.9744439610104" lon="-9.255168762347923"><ele>139.2</ele><time>2026-04-03T12:39:13Z</time></trkpt><trkpt lat="38.97438699983025" lon="-9.255045378998126"><ele>138.8</ele><time>2026-04-03T12:39:15Z</time></trkpt><trkpt lat="38.974352694692506" lon="-9.254949800772936"><ele>138.4</ele><time>2026-04-03T12:39:17Z</time></trkpt><trkpt lat="38.97432311586121" lon="-9.254826691185361"><ele>138.0</ele><time>2026-04-03T12:39:19Z</time></trkpt><trkpt lat="38.974303490557396" lon="-9.254697151031287"><ele>137.8</ele><time>2026-04-03T12:39:21Z</time></trkpt><trkpt lat="38.97426893444331" lon="-9.25456663776687"><ele>137.60000000000002</ele><time>2026-04-03T12:39:23Z</time></trkpt><trkpt lat="38.97423068862956" lon="-9.254460984856493"><ele>137.39999999999998</ele><time>2026-04-03T12:39:25Z</time></trkpt><trkpt lat="38.974200883095335" lon="-9.254314721570912"><ele>137.2</ele><time>2026-04-03T12:39:27Z</time></trkpt><trkpt lat="38.97414603340796" lon="-9.254223065693148"><ele>137.0</ele><time>2026-04-03T12:39:29Z</time></trkpt><trkpt lat="38.974095203506714" lon="-9.254132638937552"><ele>138.16666666666666</ele><time>2026-04-03T12:39:31Z</time></trkpt><trkpt lat="38.974051980853496" lon="-9.254052091053834"><ele>139.33333333333331</ele><time>2026-04-03T12:39:33Z</time></trkpt><trkpt lat="38.97391484542447" lon="-9.254095769490242"><ele>140.5</ele><time>2026-04-03T12:39:36Z</time></trkpt><trkpt lat="38.973849090622814" lon="-9.254141388462841"><ele>141.66666666666666</ele><time>2026-04-03T12:39:37Z</time></trkpt><trkpt lat="38.973795420921846" lon="-9.254211316737054"><ele>142.83333333333334</ele><time>2026-04-03T12:39:38Z</time></trkpt><trkpt lat="38.97374346597992" lon="-9.254263493498376"><ele>144.0</ele><time>2026-04-03T12:39:39Z</time></trkpt><trkpt lat="38.97365869235666" lon="-9.254365112032758"><ele>144.00000000000003</ele><time>2026-04-03T12:39:41Z</time></trkpt><trkpt lat="38.97361501602828" lon="-9.254428917354193"><ele>144.0</ele><time>2026-04-03T12:39:42Z</time></trkpt><trkpt lat="38.97360116774984" lon="-9.254509957390036"><ele>144.0</ele><time>2026-04-03T12:39:43Z</time></trkpt><trkpt lat="38.973560361538226" lon="-9.254579691230024"><ele>144.0</ele><time>2026-04-03T12:39:44Z</time></trkpt><trkpt lat="38.9735379660896" lon="-9.254664816806729"><ele>144.0</ele><time>2026-04-03T12:39:45Z</time></trkpt><trkpt lat="38.9735116408496" lon="-9.254745308420924"><ele>144.00000000000003</ele><time>2026-04-03T12:39:46Z</time></trkpt><trkpt lat="38.97346979259431" lon="-9.254809741971558"><ele>144.0</ele><time>2026-04-03T12:39:47Z</time></trkpt><trkpt lat="38.97340473892297" lon="-9.25484946516601"><ele>144.0</ele><time>2026-04-03T12:39:48Z</time></trkpt><trkpt lat="38.97333757929674" lon="-9.254891085955043"><ele>144.0</ele><time>2026-04-03T12:39:49Z</time></trkpt><trkpt lat="38.973268192381624" lon="-9.254952092072156"><ele>144.0</ele><time>2026-04-03T12:39:50Z</time></trkpt><trkpt lat="38.97321186815465" lon="-9.255006317168654"><ele>144.0</ele><time>2026-04-03T12:39:51Z</time></trkpt><trkpt lat="38.97316373295873" lon="-9.255065817085331"><ele>144.0</ele><time>2026-04-03T12:39:52Z</time></trkpt><trkpt lat="38.97305676655337" lon="-9.255136813499142"><ele>144.0</ele><time>2026-04-03T12:39:54Z</time></trkpt><trkpt lat="38.973009207155364" lon="-9.255196414504931"><ele>144.0</ele><time>2026-04-03T12:39:55Z</time></trkpt><trkpt lat="38.97290696265121" lon="-9.25528399915058"><ele>144.0</ele><time>2026-04-03T12:39:57Z</time></trkpt><trkpt lat="38.97286475002007" lon="-9.255344468399036"><ele>144.0</ele><time>2026-04-03T12:39:58Z</time></trkpt><trkpt lat="38.97281648532979" lon="-9.255408641685314"><ele>144.0</ele><time>2026-04-03T12:39:59Z</time></trkpt><trkpt lat="38.97276550791474" lon="-9.255481657942015"><ele>144.0</ele><time>2026-04-03T12:40:00Z</time></trkpt><trkpt lat="38.97271417149251" lon="-9.2555562804305"><ele>144.0</ele><time>2026-04-03T12:40:01Z</time></trkpt><trkpt lat="38.97264876738326" lon="-9.255615504307913"><ele>143.33333333333334</ele><time>2026-04-03T12:40:02Z</time></trkpt><trkpt lat="38.972593281770685" lon="-9.255699059626934"><ele>142.66666666666666</ele><time>2026-04-03T12:40:03Z</time></trkpt><trkpt lat="38.97252998405371" lon="-9.25577873068073"><ele>142.0</ele><time>2026-04-03T12:40:04Z</time></trkpt><trkpt lat="38.97248228610463" lon="-9.2558727524215"><ele>141.33333333333331</ele><time>2026-04-03T12:40:05Z</time></trkpt><trkpt lat="38.97242385812507" lon="-9.25594967130816"><ele>140.66666666666666</ele><time>2026-04-03T12:40:06Z</time></trkpt><trkpt lat="38.97236668995022" lon="-9.256024147597255"><ele>140.0</ele><time>2026-04-03T12:40:07Z</time></trkpt><trkpt lat="38.97230953726216" lon="-9.256098603709646"><ele>140.0</ele><time>2026-04-03T12:40:08Z</time></trkpt><trkpt lat="38.972266026090885" lon="-9.256164602542087"><ele>140.0</ele><time>2026-04-03T12:40:09Z</time></trkpt><trkpt lat="38.97220606297982" lon="-9.256286704986797"><ele>140.0</ele><time>2026-04-03T12:40:11Z</time></trkpt><trkpt lat="38.97211776177687" lon="-9.256388434993582"><ele>140.0</ele><time>2026-04-03T12:40:13Z</time></trkpt><trkpt lat="38.97206073735476" lon="-9.25645167708943"><ele>140.0</ele><time>2026-04-03T12:40:15Z</time></trkpt><trkpt lat="38.97196078734491" lon="-9.256428117174188"><ele>140.0</ele><time>2026-04-03T12:40:17Z</time></trkpt><trkpt lat="38.97188574497088" lon="-9.256346663566532"><ele>140.0</ele><time>2026-04-03T12:40:18Z</time></trkpt><trkpt lat="38.971803583338" lon="-9.256309654645051"><ele>140.0</ele><time>2026-04-03T12:40:19Z</time></trkpt><trkpt lat="38.971747651899875" lon="-9.256248426719278"><ele>140.0</ele><time>2026-04-03T12:40:20Z</time></trkpt><trkpt lat="38.97166796230108" lon="-9.256213766298684"><ele>140.0</ele><time>2026-04-03T12:40:21Z</time></trkpt><trkpt lat="38.971618267159464" lon="-9.2561501095078"><ele>140.0</ele><time>2026-04-03T12:40:22Z</time></trkpt><trkpt lat="38.97153751568096" lon="-9.256141510957626"><ele>141.83333333333331</ele><time>2026-04-03T12:40:24Z</time></trkpt><trkpt lat="38.97148691353139" lon="-9.256077211021887"><ele>143.66666666666666</ele><time>2026-04-03T12:40:25Z</time></trkpt><trkpt lat="38.97141693265108" lon="-9.256014350410478"><ele>145.5</ele><time>2026-04-03T12:40:26Z</time></trkpt><trkpt lat="38.97135176846318" lon="-9.255955816423807"><ele>147.33333333333334</ele><time>2026-04-03T12:40:27Z</time></trkpt><trkpt lat="38.971290828273816" lon="-9.255909325604142"><ele>149.16666666666669</ele><time>2026-04-03T12:40:28Z</time></trkpt><trkpt lat="38.971232924856395" lon="-9.255869070354104"><ele>151.0</ele><time>2026-04-03T12:40:29Z</time></trkpt><trkpt lat="38.97102365334995" lon="-9.256131378341703"><ele>151.0</ele><time>2026-04-03T12:40:30Z</time></trkpt><trkpt lat="38.9709520587608" lon="-9.256163629910871"><ele>151.0</ele><time>2026-04-03T12:40:31Z</time></trkpt><trkpt lat="38.97086947018483" lon="-9.256190803573533"><ele>151.0</ele><time>2026-04-03T12:40:32Z</time></trkpt><trkpt lat="38.97079435365608" lon="-9.256252825870476"><ele>151.0</ele><time>2026-04-03T12:40:33Z</time></trkpt><trkpt lat="38.97072873979805" lon="-9.256338614453819"><ele>151.0</ele><time>2026-04-03T12:40:34Z</time></trkpt><trkpt lat="38.970676686763134" lon="-9.25646363404395"><ele>150.5</ele><time>2026-04-03T12:40:35Z</time></trkpt><trkpt lat="38.97060245858527" lon="-9.256602100149443"><ele>150.0</ele><time>2026-04-03T12:40:36Z</time></trkpt><trkpt lat="38.97052214777459" lon="-9.256705153105617"><ele>149.5</ele><time>2026-04-03T12:40:37Z</time></trkpt><trkpt lat="38.970420763175476" lon="-9.256774294249265"><ele>149.0</ele><time>2026-04-03T12:40:38Z</time></trkpt><trkpt lat="38.97031045892099" lon="-9.25682639107041"><ele>149.0</ele><time>2026-04-03T12:40:39Z</time></trkpt><trkpt lat="38.97017801084137" lon="-9.256871567894015"><ele>149.0</ele><time>2026-04-03T12:40:40Z</time></trkpt><trkpt lat="38.97006191955819" lon="-9.256916318883569"><ele>149.0</ele><time>2026-04-03T12:40:41Z</time></trkpt><trkpt lat="38.96994973024765" lon="-9.256952672790025"><ele>149.0</ele><time>2026-04-03T12:40:42Z</time></trkpt><trkpt lat="38.969859898507835" lon="-9.256995049010401"><ele>150.8</ele><time>2026-04-03T12:40:43Z</time></trkpt><trkpt lat="38.96977174388962" lon="-9.25705376304571"><ele>152.60000000000002</ele><time>2026-04-03T12:40:44Z</time></trkpt><trkpt lat="38.969707125557335" lon="-9.257123125450972"><ele>154.4</ele><time>2026-04-03T12:40:45Z</time></trkpt><trkpt lat="38.96963229731191" lon="-9.25715686953559"><ele>156.20000000000002</ele><time>2026-04-03T12:40:46Z</time></trkpt><trkpt lat="38.969549387021" lon="-9.25721685070159"><ele>158.0</ele><time>2026-04-03T12:40:47Z</time></trkpt><trkpt lat="38.96947485993586" lon="-9.257291751663251"><ele>158.0</ele><time>2026-04-03T12:40:48Z</time></trkpt><trkpt lat="38.96940783534042" lon="-9.257363103014917"><ele>158.0</ele><time>2026-04-03T12:40:49Z</time></trkpt><trkpt lat="38.969340418411825" lon="-9.25743432867745"><ele>158.0</ele><time>2026-04-03T12:40:50Z</time></trkpt><trkpt lat="38.9692851078767" lon="-9.257492764006384"><ele>158.0</ele><time>2026-04-03T12:40:51Z</time></trkpt><trkpt lat="38.96930578605956" lon="-9.257765142156856"><ele>158.0</ele><time>2026-04-03T12:40:53Z</time></trkpt><trkpt lat="38.96928870545744" lon="-9.257855445160596"><ele>158.0</ele><time>2026-04-03T12:40:54Z</time></trkpt><trkpt lat="38.96928422605255" lon="-9.25801221797102"><ele>158.0</ele><time>2026-04-03T12:40:56Z</time></trkpt><trkpt lat="38.969322277466304" lon="-9.258140971227053"><ele>158.0</ele><time>2026-04-03T12:40:58Z</time></trkpt><trkpt lat="38.96929465886199" lon="-9.25825789140999"><ele>158.0</ele><time>2026-04-03T12:41:00Z</time></trkpt><trkpt lat="38.96924741611789" lon="-9.258402146905626"><ele>158.0</ele><time>2026-04-03T12:41:02Z</time></trkpt><trkpt lat="38.96920947060404" lon="-9.258482284597099"><ele>158.0</ele><time>2026-04-03T12:41:03Z</time></trkpt><trkpt lat="38.96916371391445" lon="-9.258543213560372"><ele>158.0</ele><time>2026-04-03T12:41:04Z</time></trkpt><trkpt lat="38.96911322194669" lon="-9.25860117145167"><ele>158.0</ele><time>2026-04-03T12:41:05Z</time></trkpt><trkpt lat="38.969025641366486" lon="-9.258644270522279"><ele>158.0</ele><time>2026-04-03T12:41:06Z</time></trkpt><trkpt lat="38.96893785792987" lon="-9.258679440597856"><ele>158.0</ele><time>2026-04-03T12:41:07Z</time></trkpt><trkpt lat="38.96886893537759" lon="-9.258721961943879"><ele>162.5</ele><time>2026-04-03T12:41:08Z</time></trkpt><trkpt lat="38.96875442837604" lon="-9.258797050672559"><ele>167.0</ele><time>2026-04-03T12:41:10Z</time></trkpt><trkpt lat="38.968700814775154" lon="-9.25884329887435"><ele>171.5</ele><time>2026-04-03T12:41:11Z</time></trkpt><trkpt lat="38.96864126338864" lon="-9.258874682302109"><ele>176.0</ele><time>2026-04-03T12:41:12Z</time></trkpt><trkpt lat="38.96856833179328" lon="-9.258892735455495"><ele>180.5</ele><time>2026-04-03T12:41:13Z</time></trkpt><trkpt lat="38.96848502252651" lon="-9.258860173895647"><ele>185.0</ele><time>2026-04-03T12:41:14Z</time></trkpt><trkpt lat="38.968420114433236" lon="-9.25881686966172"><ele>188.8</ele><time>2026-04-03T12:41:15Z</time></trkpt><trkpt lat="38.9683564972708" lon="-9.258827927514306"><ele>192.6</ele><time>2026-04-03T12:41:16Z</time></trkpt><trkpt lat="38.96823546685002" lon="-9.258848075419447"><ele>196.39999999999998</ele><time>2026-04-03T12:41:18Z</time></trkpt><trkpt lat="38.96812188219879" lon="-9.258817851090033"><ele>200.2</ele><time>2026-04-03T12:41:20Z</time></trkpt><trkpt lat="38.9680136340612" lon="-9.258830069620416"><ele>204.0</ele><time>2026-04-03T12:41:22Z</time></trkpt><trkpt lat="38.96791124184801" lon="-9.258826778982156"><ele>204.0</ele><time>2026-04-03T12:41:32Z</time></trkpt><trkpt lat="38.96782780564549" lon="-9.258827235303844"><ele>204.0</ele><time>2026-04-03T12:41:34Z</time></trkpt><trkpt lat="38.96775082080959" lon="-9.258839856064542"><ele>204.0</ele><time>2026-04-03T12:41:37Z</time></trkpt><trkpt lat="38.96768647572435" lon="-9.258845815156043"><ele>204.0</ele><time>2026-04-03T12:41:39Z</time></trkpt><trkpt lat="38.96760353610977" lon="-9.258855371342799"><ele>204.0</ele><time>2026-04-03T12:41:41Z</time></trkpt><trkpt lat="38.96751606451162" lon="-9.258853863678283"><ele>204.0</ele><time>2026-04-03T12:41:43Z</time></trkpt><trkpt lat="38.96744930092147" lon="-9.258823281706952"><ele>206.5</ele><time>2026-04-03T12:41:45Z</time></trkpt><trkpt lat="38.96738691621224" lon="-9.258804863623089"><ele>209.0</ele><time>2026-04-03T12:42:05Z</time></trkpt><trkpt lat="38.967350686238596" lon="-9.258725688316012"><ele>211.5</ele><time>2026-04-03T12:42:07Z</time></trkpt><trkpt lat="38.96731016745834" lon="-9.258613338030857"><ele>214.0</ele><time>2026-04-03T12:42:10Z</time></trkpt><trkpt lat="38.967272526144" lon="-9.258542385638389"><ele>216.5</ele><time>2026-04-03T12:42:13Z</time></trkpt><trkpt lat="38.96723326090515" lon="-9.258463187513842"><ele>219.0</ele><time>2026-04-03T12:42:19Z</time></trkpt><trkpt lat="38.9671371706075" lon="-9.25844612984801"><ele>219.0</ele><time>2026-04-03T12:42:22Z</time></trkpt><trkpt lat="38.967104900919495" lon="-9.258343443133098"><ele>219.0</ele><time>2026-04-03T12:42:24Z</time></trkpt><trkpt lat="38.967082951459595" lon="-9.258261799598898"><ele>219.0</ele><time>2026-04-03T12:42:26Z</time></trkpt><trkpt lat="38.9670435620632" lon="-9.25817086481325"><ele>219.0</ele><time>2026-04-03T12:42:28Z</time></trkpt><trkpt lat="38.96694440891545" lon="-9.25813247167319"><ele>219.0</ele><time>2026-04-03T12:42:30Z</time></trkpt><trkpt lat="38.966859571798985" lon="-9.258222805696612"><ele>219.0</ele><time>2026-04-03T12:42:32Z</time></trkpt><trkpt lat="38.96678375082552" lon="-9.258283031057358"><ele>220.39999999999998</ele><time>2026-04-03T12:42:46Z</time></trkpt><trkpt lat="38.96669360757489" lon="-9.258325052008626"><ele>221.79999999999998</ele><time>2026-04-03T12:42:48Z</time></trkpt><trkpt lat="38.96657501413317" lon="-9.258403514508677"><ele>223.20000000000002</ele><time>2026-04-03T12:42:50Z</time></trkpt><trkpt lat="38.96649960631021" lon="-9.258450265143189"><ele>224.60000000000002</ele><time>2026-04-03T12:42:51Z</time></trkpt><trkpt lat="38.96642780671881" lon="-9.258494569294776"><ele>226.0</ele><time>2026-04-03T12:42:52Z</time></trkpt><trkpt lat="38.96632996963408" lon="-9.258542051774445"><ele>225.99999999999997</ele><time>2026-04-03T12:42:54Z</time></trkpt><trkpt lat="38.966256047929" lon="-9.25852715719138"><ele>226.0</ele><time>2026-04-03T12:43:02Z</time></trkpt><trkpt lat="38.9662188962924" lon="-9.258450007812074"><ele>226.0</ele><time>2026-04-03T12:43:03Z</time></trkpt><trkpt lat="38.966176775664394" lon="-9.258366952976525"><ele>226.0</ele><time>2026-04-03T12:43:04Z</time></trkpt><trkpt lat="38.96613345199116" lon="-9.258300142419218"><ele>225.99999999999997</ele><time>2026-04-03T12:43:05Z</time></trkpt><trkpt lat="38.96607983398114" lon="-9.258243556161267"><ele>226.0</ele><time>2026-04-03T12:43:06Z</time></trkpt><trkpt lat="38.96598764973183" lon="-9.25813895556369"><ele>224.0</ele><time>2026-04-03T12:43:08Z</time></trkpt><trkpt lat="38.965916949986784" lon="-9.258057653642739"><ele>222.00000000000003</ele><time>2026-04-03T12:43:10Z</time></trkpt><trkpt lat="38.96592021968474" lon="-9.257904007465624"><ele>220.00000000000003</ele><time>2026-04-03T12:43:13Z</time></trkpt><trkpt lat="38.965926204648454" lon="-9.257800289896634"><ele>218.0</ele><time>2026-04-03T12:43:15Z</time></trkpt><trkpt lat="38.965948052177446" lon="-9.257684494381005"><ele>216.0</ele><time>2026-04-03T12:43:18Z</time></trkpt><trkpt lat="38.96588995472468" lon="-9.257596389557563"><ele>217.4</ele><time>2026-04-03T12:43:20Z</time></trkpt><trkpt lat="38.96581319805478" lon="-9.257599307849029"><ele>218.8</ele><time>2026-04-03T12:43:21Z</time></trkpt><trkpt lat="38.965748812031606" lon="-9.257585576741887"><ele>220.20000000000002</ele><time>2026-04-03T12:43:22Z</time></trkpt><trkpt lat="38.96561865995576" lon="-9.257508317755647"><ele>221.60000000000002</ele><time>2026-04-03T12:43:24Z</time></trkpt><trkpt lat="38.96551194518499" lon="-9.257488154181303"><ele>223.0</ele><time>2026-04-03T12:43:25Z</time></trkpt><trkpt lat="38.96541176107841" lon="-9.257482068730939"><ele>223.0</ele><time>2026-04-03T12:43:26Z</time></trkpt><trkpt lat="38.96532959308551" lon="-9.257491265577325"><ele>223.0</ele><time>2026-04-03T12:43:27Z</time></trkpt><trkpt lat="38.965255825038064" lon="-9.257519223518463"><ele>223.0</ele><time>2026-04-03T12:43:28Z</time></trkpt><trkpt lat="38.965174042028806" lon="-9.257555534482425"><ele>223.0</ele><time>2026-04-03T12:43:29Z</time></trkpt><trkpt lat="38.96507535262334" lon="-9.257622290795943"><ele>223.0</ele><time>2026-04-03T12:43:30Z</time></trkpt><trkpt lat="38.96498080958459" lon="-9.257705300285973"><ele>220.75</ele><time>2026-04-03T12:43:31Z</time></trkpt><trkpt lat="38.96487949655337" lon="-9.25779587231966"><ele>218.5</ele><time>2026-04-03T12:43:32Z</time></trkpt><trkpt lat="38.96477683534892" lon="-9.257866405814221"><ele>216.25</ele><time>2026-04-03T12:43:33Z</time></trkpt><trkpt lat="38.96467364558409" lon="-9.257931018549433"><ele>214.0</ele><time>2026-04-03T12:43:34Z</time></trkpt><trkpt lat="38.964549981577406" lon="-9.257972317742345"><ele>214.0</ele><time>2026-04-03T12:43:35Z</time></trkpt><trkpt lat="38.964439752818365" lon="-9.258024909719223"><ele>213.99999999999997</ele><time>2026-04-03T12:43:36Z</time></trkpt><trkpt lat="38.96433904076582" lon="-9.258085694723178"><ele>213.99999999999997</ele><time>2026-04-03T12:43:37Z</time></trkpt><trkpt lat="38.96424255437789" lon="-9.258166169608272"><ele>214.0</ele><time>2026-04-03T12:43:38Z</time></trkpt><trkpt lat="38.96415693305637" lon="-9.258229379396605"><ele>214.0</ele><time>2026-04-03T12:43:39Z</time></trkpt><trkpt lat="38.964074718786705" lon="-9.25829265562177"><ele>216.16666666666666</ele><time>2026-04-03T12:43:40Z</time></trkpt><trkpt lat="38.96399763026712" lon="-9.258351752184998"><ele>218.33333333333331</ele><time>2026-04-03T12:43:41Z</time></trkpt><trkpt lat="38.96390639747621" lon="-9.258383258739883"><ele>220.5</ele><time>2026-04-03T12:43:42Z</time></trkpt><trkpt lat="38.963813603025514" lon="-9.25838783966755"><ele>222.66666666666669</ele><time>2026-04-03T12:43:43Z</time></trkpt><trkpt lat="38.96372554517667" lon="-9.2584042490533"><ele>224.83333333333334</ele><time>2026-04-03T12:43:44Z</time></trkpt><trkpt lat="38.96364760182603" lon="-9.258434954006455"><ele>227.0</ele><time>2026-04-03T12:43:45Z</time></trkpt><trkpt lat="38.96356972703624" lon="-9.258484347058614"><ele>227.00000000000003</ele><time>2026-04-03T12:43:46Z</time></trkpt><trkpt lat="38.96348025968534" lon="-9.258523997389366"><ele>227.0</ele><time>2026-04-03T12:43:47Z</time></trkpt><trkpt lat="38.96342578517158" lon="-9.258565088931418"><ele>227.0</ele><time>2026-04-03T12:43:48Z</time></trkpt><trkpt lat="38.96338355250556" lon="-9.258633467880898"><ele>227.0</ele><time>2026-04-03T12:43:49Z</time></trkpt><trkpt lat="38.96341121985817" lon="-9.258749733308782"><ele>227.00000000000003</ele><time>2026-04-03T12:43:51Z</time></trkpt><trkpt lat="38.96338922137547" lon="-9.258851278322656"><ele>227.0</ele><time>2026-04-03T12:43:54Z</time></trkpt><trkpt lat="38.96331026001134" lon="-9.25892250881835"><ele>227.16666666666669</ele><time>2026-04-03T12:43:56Z</time></trkpt><trkpt lat="38.96318816027822" lon="-9.25890570173053"><ele>227.33333333333334</ele><time>2026-04-03T12:43:58Z</time></trkpt><trkpt lat="38.963115795998036" lon="-9.258901127166105"><ele>227.5</ele><time>2026-04-03T12:43:59Z</time></trkpt><trkpt lat="38.963039241459605" lon="-9.258889027082436"><ele>227.66666666666669</ele><time>2026-04-03T12:44:00Z</time></trkpt><trkpt lat="38.96296889224586" lon="-9.258887520066052"><ele>227.83333333333334</ele><time>2026-04-03T12:44:01Z</time></trkpt><trkpt lat="38.96290559821367" lon="-9.258873524442038"><ele>228.0</ele><time>2026-04-03T12:44:02Z</time></trkpt><trkpt lat="38.96284340916075" lon="-9.258972109163256"><ele>225.2</ele><time>2026-04-03T12:44:03Z</time></trkpt><trkpt lat="38.96276535058383" lon="-9.25895294438133"><ele>222.4</ele><time>2026-04-03T12:44:13Z</time></trkpt><trkpt lat="38.962629289597196" lon="-9.259022974574986"><ele>219.59999999999997</ele><time>2026-04-03T12:44:15Z</time></trkpt><trkpt lat="38.962562112580265" lon="-9.259120016795894"><ele>216.79999999999998</ele><time>2026-04-03T12:44:16Z</time></trkpt><trkpt lat="38.96247512962037" lon="-9.259211538208564"><ele>214.0</ele><time>2026-04-03T12:44:17Z</time></trkpt><trkpt lat="38.962397563548606" lon="-9.259287264255086"><ele>212.33333333333331</ele><time>2026-04-03T12:44:18Z</time></trkpt><trkpt lat="38.96232270968668" lon="-9.259334784461988"><ele>210.66666666666666</ele><time>2026-04-03T12:44:19Z</time></trkpt><trkpt lat="38.96226682734697" lon="-9.25938849473025"><ele>209.0</ele><time>2026-04-03T12:44:20Z</time></trkpt><trkpt lat="38.96222232420853" lon="-9.259512476319928"><ele>207.33333333333331</ele><time>2026-04-03T12:44:22Z</time></trkpt><trkpt lat="38.962225977733034" lon="-9.25959621226706"><ele>205.66666666666666</ele><time>2026-04-03T12:44:23Z</time></trkpt><trkpt lat="38.962334124569715" lon="-9.25966570773728"><ele>204.0</ele><time>2026-04-03T12:44:24Z</time></trkpt><trkpt lat="38.962520466548874" lon="-9.259602254342912"><ele>203.0</ele><time>2026-04-03T12:44:26Z</time></trkpt><trkpt lat="38.96260925380401" lon="-9.259613677014105"><ele>202.0</ele><time>2026-04-03T12:44:27Z</time></trkpt><trkpt lat="38.962683223542776" lon="-9.259660559123168"><ele>201.0</ele><time>2026-04-03T12:44:28Z</time></trkpt><trkpt lat="38.96276058430728" lon="-9.259743979558383"><ele>200.0</ele><time>2026-04-03T12:44:29Z</time></trkpt><trkpt lat="38.96283648866029" lon="-9.259859611330707"><ele>199.0</ele><time>2026-04-03T12:44:30Z</time></trkpt><trkpt lat="38.96292020249515" lon="-9.259980617866304"><ele>199.0</ele><time>2026-04-03T12:44:31Z</time></trkpt><trkpt lat="38.96297304227838" lon="-9.260164641648323"><ele>199.0</ele><time>2026-04-03T12:44:32Z</time></trkpt><trkpt lat="38.96298332751877" lon="-9.260346214013298"><ele>199.0</ele><time>2026-04-03T12:44:33Z</time></trkpt><trkpt lat="38.9629832145355" lon="-9.260490560182804"><ele>199.0</ele><time>2026-04-03T12:44:34Z</time></trkpt><trkpt lat="38.96297897150716" lon="-9.26061699886283"><ele>197.16666666666666</ele><time>2026-04-03T12:44:35Z</time></trkpt><trkpt lat="38.962953407266816" lon="-9.260715120422926"><ele>195.33333333333331</ele><time>2026-04-03T12:44:36Z</time></trkpt><trkpt lat="38.96292934427972" lon="-9.260798862535063"><ele>193.5</ele><time>2026-04-03T12:44:37Z</time></trkpt><trkpt lat="38.962903352841536" lon="-9.260915492886271"><ele>191.66666666666666</ele><time>2026-04-03T12:44:46Z</time></trkpt><trkpt lat="38.96289757381237" lon="-9.261014823425677"><ele>189.83333333333331</ele><time>2026-04-03T12:44:47Z</time></trkpt><trkpt lat="38.96287378744917" lon="-9.261154864404169"><ele>188.0</ele><time>2026-04-03T12:44:48Z</time></trkpt><trkpt lat="38.96292952226383" lon="-9.261316754351984"><ele>184.0</ele><time>2026-04-03T12:44:49Z</time></trkpt><trkpt lat="38.9629893624442" lon="-9.261508991060513"><ele>180.0</ele><time>2026-04-03T12:44:50Z</time></trkpt><trkpt lat="38.96305490230338" lon="-9.261701969595645"><ele>176.0</ele><time>2026-04-03T12:44:51Z</time></trkpt><trkpt lat="38.96312836955279" lon="-9.261855425716522"><ele>176.0</ele><time>2026-04-03T12:44:52Z</time></trkpt><trkpt lat="38.96323252154885" lon="-9.261967254232339"><ele>176.0</ele><time>2026-04-03T12:44:53Z</time></trkpt><trkpt lat="38.963357564928906" lon="-9.262083558066173"><ele>176.0</ele><time>2026-04-03T12:44:54Z</time></trkpt><trkpt lat="38.96347990923589" lon="-9.262196585812744"><ele>176.0</ele><time>2026-04-03T12:44:55Z</time></trkpt><trkpt lat="38.96359608396969" lon="-9.2623090855548"><ele>173.75</ele><time>2026-04-03T12:44:56Z</time></trkpt><trkpt lat="38.96370088578223" lon="-9.262426652192877"><ele>171.5</ele><time>2026-04-03T12:44:57Z</time></trkpt><trkpt lat="38.963805767425725" lon="-9.262537082484588"><ele>169.25</ele><time>2026-04-03T12:44:58Z</time></trkpt><trkpt lat="38.96389860661446" lon="-9.262664042252325"><ele>167.0</ele><time>2026-04-03T12:44:59Z</time></trkpt><trkpt lat="38.9639914208928" lon="-9.26280715860338"><ele>167.0</ele><time>2026-04-03T12:45:00Z</time></trkpt><trkpt lat="38.96408222186946" lon="-9.262935010148718"><ele>167.0</ele><time>2026-04-03T12:45:01Z</time></trkpt><trkpt lat="38.964170077529715" lon="-9.263061449793236"><ele>167.0</ele><time>2026-04-03T12:45:02Z</time></trkpt><trkpt lat="38.964262789786105" lon="-9.26318968625725"><ele>167.0</ele><time>2026-04-03T12:45:03Z</time></trkpt><trkpt lat="38.96435651454397" lon="-9.263328786743687"><ele>163.75</ele><time>2026-04-03T12:45:04Z</time></trkpt><trkpt lat="38.964473570630105" lon="-9.263417769709996"><ele>160.5</ele><time>2026-04-03T12:45:05Z</time></trkpt><trkpt lat="38.96458304075457" lon="-9.263513620273562"><ele>157.25</ele><time>2026-04-03T12:45:06Z</time></trkpt><trkpt lat="38.964679512346855" lon="-9.263627488808266"><ele>154.0</ele><time>2026-04-03T12:45:07Z</time></trkpt><trkpt lat="38.96477920618731" lon="-9.26373621677688"><ele>154.0</ele><time>2026-04-03T12:45:08Z</time></trkpt><trkpt lat="38.96486763176012" lon="-9.263859306434217"><ele>154.0</ele><time>2026-04-03T12:45:09Z</time></trkpt><trkpt lat="38.96494143970121" lon="-9.26398362356449"><ele>154.0</ele><time>2026-04-03T12:45:10Z</time></trkpt><trkpt lat="38.9649705790768" lon="-9.264136364411357"><ele>154.0</ele><time>2026-04-03T12:45:11Z</time></trkpt><trkpt lat="38.96499251338962" lon="-9.264283051538694"><ele>154.4</ele><time>2026-04-03T12:45:12Z</time></trkpt><trkpt lat="38.96498404153104" lon="-9.264413820451507"><ele>154.8</ele><time>2026-04-03T12:45:13Z</time></trkpt><trkpt lat="38.96495242653927" lon="-9.264536984837335"><ele>155.2</ele><time>2026-04-03T12:45:14Z</time></trkpt><trkpt lat="38.96489395114424" lon="-9.264640420391265"><ele>155.6</ele><time>2026-04-03T12:45:15Z</time></trkpt><trkpt lat="38.964841511933436" lon="-9.26476691278454"><ele>156.0</ele><time>2026-04-03T12:45:16Z</time></trkpt><trkpt lat="38.964772203874766" lon="-9.264884904042221"><ele>154.8</ele><time>2026-04-03T12:45:17Z</time></trkpt><trkpt lat="38.96471055852497" lon="-9.26500258935047"><ele>153.6</ele><time>2026-04-03T12:45:18Z</time></trkpt><trkpt lat="38.964653338038865" lon="-9.265122548802387"><ele>152.4</ele><time>2026-04-03T12:45:19Z</time></trkpt><trkpt lat="38.96464773741118" lon="-9.2652598783996"><ele>151.2</ele><time>2026-04-03T12:45:20Z</time></trkpt><trkpt lat="38.9646565690385" lon="-9.265387411599784"><ele>150.0</ele><time>2026-04-03T12:45:21Z</time></trkpt><trkpt lat="38.96471492525732" lon="-9.265500803483311"><ele>149.4</ele><time>2026-04-03T12:45:22Z</time></trkpt><trkpt lat="38.96478139271658" lon="-9.265628772695129"><ele>148.8</ele><time>2026-04-03T12:45:23Z</time></trkpt><trkpt lat="38.96482013290924" lon="-9.26576572699544"><ele>148.2</ele><time>2026-04-03T12:45:24Z</time></trkpt><trkpt lat="38.96487510964025" lon="-9.265888291945618"><ele>147.6</ele><time>2026-04-03T12:45:25Z</time></trkpt><trkpt lat="38.96490815164313" lon="-9.266010184859553"><ele>147.0</ele><time>2026-04-03T12:45:26Z</time></trkpt><trkpt lat="38.96489814914193" lon="-9.266129611962093"><ele>147.0</ele><time>2026-04-03T12:45:27Z</time></trkpt><trkpt lat="38.96486388509184" lon="-9.26624313636691"><ele>147.0</ele><time>2026-04-03T12:45:28Z</time></trkpt><trkpt lat="38.96481625751009" lon="-9.266349793038723"><ele>147.0</ele><time>2026-04-03T12:45:29Z</time></trkpt><trkpt lat="38.964771887351304" lon="-9.266451618774568"><ele>147.0</ele><time>2026-04-03T12:45:30Z</time></trkpt><trkpt lat="38.96473020727121" lon="-9.266552083326594"><ele>147.0</ele><time>2026-04-03T12:45:31Z</time></trkpt><trkpt lat="38.96469993140486" lon="-9.266643787914324"><ele>147.0</ele><time>2026-04-03T12:45:32Z</time></trkpt><trkpt lat="38.96466719684437" lon="-9.266735754167373"><ele>146.2</ele><time>2026-04-03T12:45:33Z</time></trkpt><trkpt lat="38.964673614948154" lon="-9.266843756276117"><ele>145.39999999999998</ele><time>2026-04-03T12:45:34Z</time></trkpt><trkpt lat="38.964686961088866" lon="-9.266960316061354"><ele>144.60000000000002</ele><time>2026-04-03T12:45:35Z</time></trkpt><trkpt lat="38.96472618080436" lon="-9.267079678344988"><ele>143.8</ele><time>2026-04-03T12:45:36Z</time></trkpt><trkpt lat="38.96478324036224" lon="-9.267201027393785"><ele>143.0</ele><time>2026-04-03T12:45:37Z</time></trkpt><trkpt lat="38.96485659322725" lon="-9.267323596270622"><ele>142.25</ele><time>2026-04-03T12:45:38Z</time></trkpt><trkpt lat="38.964943234248445" lon="-9.267439680534203"><ele>141.5</ele><time>2026-04-03T12:45:39Z</time></trkpt><trkpt lat="38.96504131617237" lon="-9.267538103444416"><ele>140.75</ele><time>2026-04-03T12:45:40Z</time></trkpt><trkpt lat="38.96514385790949" lon="-9.267641154351004"><ele>140.0</ele><time>2026-04-03T12:45:41Z</time></trkpt><trkpt lat="38.96525549349232" lon="-9.267757741276705"><ele>140.0</ele><time>2026-04-03T12:45:42Z</time></trkpt><trkpt lat="38.96536270098779" lon="-9.267872207030392"><ele>140.0</ele><time>2026-04-03T12:45:43Z</time></trkpt><trkpt lat="38.96546021936883" lon="-9.267977579100785"><ele>140.0</ele><time>2026-04-03T12:45:44Z</time></trkpt><trkpt lat="38.96554963803224" lon="-9.268090619202965"><ele>140.0</ele><time>2026-04-03T12:45:45Z</time></trkpt><trkpt lat="38.96564282657272" lon="-9.268190431433492"><ele>140.0</ele><time>2026-04-03T12:45:46Z</time></trkpt><trkpt lat="38.965741414414794" lon="-9.268290103774467"><ele>140.0</ele><time>2026-04-03T12:45:47Z</time></trkpt><trkpt lat="38.965836137044384" lon="-9.26838381175017"><ele>140.0</ele><time>2026-04-03T12:45:48Z</time></trkpt><trkpt lat="38.965927580481086" lon="-9.268481733382997"><ele>140.0</ele><time>2026-04-03T12:45:49Z</time></trkpt><trkpt lat="38.96602192951615" lon="-9.26857191004562"><ele>140.6</ele><time>2026-04-03T12:45:50Z</time></trkpt><trkpt lat="38.96611018472221" lon="-9.268657561754456"><ele>141.2</ele><time>2026-04-03T12:45:51Z</time></trkpt><trkpt lat="38.966196617523735" lon="-9.26873939454051"><ele>141.8</ele><time>2026-04-03T12:45:52Z</time></trkpt><trkpt lat="38.966283247763826" lon="-9.268823914949644"><ele>142.4</ele><time>2026-04-03T12:45:53Z</time></trkpt><trkpt lat="38.96636506968697" lon="-9.268907427214806"><ele>143.0</ele><time>2026-04-03T12:45:54Z</time></trkpt><trkpt lat="38.96644711268906" lon="-9.26894779312403"><ele>143.0</ele><time>2026-04-03T12:45:55Z</time></trkpt><trkpt lat="38.966534453058266" lon="-9.268978164545576"><ele>143.0</ele><time>2026-04-03T12:45:56Z</time></trkpt><trkpt lat="38.96663494377231" lon="-9.269004208395511"><ele>143.0</ele><time>2026-04-03T12:45:57Z</time></trkpt><trkpt lat="38.96674842307432" lon="-9.269025071804458"><ele>143.0</ele><time>2026-04-03T12:45:58Z</time></trkpt><trkpt lat="38.966866438035744" lon="-9.26905606267594"><ele>143.0</ele><time>2026-04-03T12:45:59Z</time></trkpt><trkpt lat="38.966978347319525" lon="-9.269051138932946"><ele>143.6</ele><time>2026-04-03T12:46:00Z</time></trkpt><trkpt lat="38.96708175490314" lon="-9.269024053345733"><ele>144.20000000000002</ele><time>2026-04-03T12:46:01Z</time></trkpt><trkpt lat="38.96719096702147" lon="-9.26903327527543"><ele>144.8</ele><time>2026-04-03T12:46:02Z</time></trkpt><trkpt lat="38.96729297880716" lon="-9.269001708481726"><ele>145.4</ele><time>2026-04-03T12:46:03Z</time></trkpt><trkpt lat="38.967384163302945" lon="-9.269004083073463"><ele>146.0</ele><time>2026-04-03T12:46:04Z</time></trkpt><trkpt lat="38.96746229445552" lon="-9.269044498300177"><ele>146.0</ele><time>2026-04-03T12:46:05Z</time></trkpt><trkpt lat="38.96752645613215" lon="-9.269129779843242"><ele>146.0</ele><time>2026-04-03T12:46:06Z</time></trkpt><trkpt lat="38.96758085851042" lon="-9.269240212859422"><ele>146.0</ele><time>2026-04-03T12:46:07Z</time></trkpt><trkpt lat="38.96761673900054" lon="-9.269355266771388"><ele>146.0</ele><time>2026-04-03T12:46:08Z</time></trkpt><trkpt lat="38.967614987150746" lon="-9.26947696323986"><ele>146.0</ele><time>2026-04-03T12:46:09Z</time></trkpt><trkpt lat="38.967605213188065" lon="-9.269609760946981"><ele>146.8</ele><time>2026-04-03T12:46:10Z</time></trkpt><trkpt lat="38.96759058369646" lon="-9.26974592564405"><ele>147.6</ele><time>2026-04-03T12:46:11Z</time></trkpt><trkpt lat="38.967569489485726" lon="-9.269888647740915"><ele>148.4</ele><time>2026-04-03T12:46:12Z</time></trkpt><trkpt lat="38.96755325097786" lon="-9.270019377225548"><ele>149.2</ele><time>2026-04-03T12:46:13Z</time></trkpt><trkpt lat="38.96751707419009" lon="-9.270143888911708"><ele>150.0</ele><time>2026-04-03T12:46:14Z</time></trkpt><trkpt lat="38.967465413693816" lon="-9.2702612674861"><ele>150.0</ele><time>2026-04-03T12:46:15Z</time></trkpt><trkpt lat="38.967392263856304" lon="-9.270369118614287"><ele>150.0</ele><time>2026-04-03T12:46:16Z</time></trkpt><trkpt lat="38.96729832479327" lon="-9.270458711777072"><ele>150.0</ele><time>2026-04-03T12:46:17Z</time></trkpt><trkpt lat="38.96718090745881" lon="-9.27051287447167"><ele>150.0</ele><time>2026-04-03T12:46:18Z</time></trkpt><trkpt lat="38.96707472913497" lon="-9.27056273298358"><ele>148.8</ele><time>2026-04-03T12:46:19Z</time></trkpt><trkpt lat="38.96700077453178" lon="-9.270640404981748"><ele>147.6</ele><time>2026-04-03T12:46:20Z</time></trkpt><trkpt lat="38.966945901552634" lon="-9.270734251704301"><ele>146.4</ele><time>2026-04-03T12:46:21Z</time></trkpt><trkpt lat="38.96690933593698" lon="-9.270838154138076"><ele>145.2</ele><time>2026-04-03T12:46:22Z</time></trkpt><trkpt lat="38.96689282380087" lon="-9.270949869209685"><ele>144.0</ele><time>2026-04-03T12:46:23Z</time></trkpt><trkpt lat="38.966880444690176" lon="-9.271075040317337"><ele>144.0</ele><time>2026-04-03T12:46:24Z</time></trkpt><trkpt lat="38.96688116405868" lon="-9.271204020392778"><ele>144.0</ele><time>2026-04-03T12:46:25Z</time></trkpt><trkpt lat="38.966905364917146" lon="-9.271332972782572"><ele>144.0</ele><time>2026-04-03T12:46:26Z</time></trkpt><trkpt lat="38.96697725354962" lon="-9.271416628284504"><ele>144.0</ele><time>2026-04-03T12:46:27Z</time></trkpt><trkpt lat="38.96706352469885" lon="-9.271504724291537"><ele>144.0</ele><time>2026-04-03T12:46:28Z</time></trkpt><trkpt lat="38.9671548502045" lon="-9.271583483774068"><ele>141.6</ele><time>2026-04-03T12:46:29Z</time></trkpt><trkpt lat="38.96725181941055" lon="-9.271660270417222"><ele>139.2</ele><time>2026-04-03T12:46:30Z</time></trkpt><trkpt lat="38.967346648384215" lon="-9.271716573485248"><ele>136.79999999999998</ele><time>2026-04-03T12:46:31Z</time></trkpt><trkpt lat="38.96745445316096" lon="-9.271749609899341"><ele>134.4</ele><time>2026-04-03T12:46:32Z</time></trkpt><trkpt lat="38.9675587087093" lon="-9.271766808667453"><ele>132.0</ele><time>2026-04-03T12:46:33Z</time></trkpt><trkpt lat="38.96766502914755" lon="-9.27177815734666"><ele>131.6</ele><time>2026-04-03T12:46:34Z</time></trkpt><trkpt lat="38.96777267343548" lon="-9.271800896872119"><ele>131.2</ele><time>2026-04-03T12:46:35Z</time></trkpt><trkpt lat="38.96787908855162" lon="-9.271834670418544"><ele>130.8</ele><time>2026-04-03T12:46:36Z</time></trkpt><trkpt lat="38.96796872122643" lon="-9.271912097068105"><ele>130.4</ele><time>2026-04-03T12:46:37Z</time></trkpt><trkpt lat="38.96805271745031" lon="-9.271983343874949"><ele>130.0</ele><time>2026-04-03T12:46:38Z</time></trkpt><trkpt lat="38.96813459205801" lon="-9.272060990334266"><ele>130.0</ele><time>2026-04-03T12:46:39Z</time></trkpt><trkpt lat="38.96821656470012" lon="-9.272138975738041"><ele>130.0</ele><time>2026-04-03T12:46:40Z</time></trkpt><trkpt lat="38.96830620649766" lon="-9.272214642370038"><ele>130.0</ele><time>2026-04-03T12:46:41Z</time></trkpt><trkpt lat="38.96839005985056" lon="-9.272285848660552"><ele>130.0</ele><time>2026-04-03T12:46:42Z</time></trkpt><trkpt lat="38.96848008701284" lon="-9.27235427379395"><ele>130.0</ele><time>2026-04-03T12:46:43Z</time></trkpt><trkpt lat="38.96856424865173" lon="-9.27241625417122"><ele>127.6</ele><time>2026-04-03T12:46:44Z</time></trkpt><trkpt lat="38.9686543869473" lon="-9.272479976531606"><ele>125.2</ele><time>2026-04-03T12:46:45Z</time></trkpt><trkpt lat="38.968735252962816" lon="-9.272536629086744"><ele>122.80000000000001</ele><time>2026-04-03T12:46:46Z</time></trkpt><trkpt lat="38.96881965544335" lon="-9.272596807017337"><ele>120.4</ele><time>2026-04-03T12:46:47Z</time></trkpt><trkpt lat="38.96890757367671" lon="-9.272663590597805"><ele>118.0</ele><time>2026-04-03T12:46:48Z</time></trkpt><trkpt lat="38.9690158552388" lon="-9.272743730998368"><ele>118.0</ele><time>2026-04-03T12:46:49Z</time></trkpt><trkpt lat="38.96912773928295" lon="-9.272812488284787"><ele>118.00000000000001</ele><time>2026-04-03T12:46:50Z</time></trkpt><trkpt lat="38.969235697432545" lon="-9.272876096319873"><ele>118.00000000000001</ele><time>2026-04-03T12:46:51Z</time></trkpt><trkpt lat="38.969332228794386" lon="-9.272926122456209"><ele>118.0</ele><time>2026-04-03T12:46:52Z</time></trkpt><trkpt lat="38.96941553854611" lon="-9.27296607557173"><ele>118.0</ele><time>2026-04-03T12:46:53Z</time></trkpt><trkpt lat="38.96948251703473" lon="-9.27299151838269"><ele>117.16666666666667</ele><time>2026-04-03T12:46:54Z</time></trkpt><trkpt lat="38.96955799273476" lon="-9.273020317064296"><ele>116.33333333333334</ele><time>2026-04-03T12:46:56Z</time></trkpt><trkpt lat="38.96964034392499" lon="-9.273062121341251"><ele>115.5</ele><time>2026-04-03T12:47:10Z</time></trkpt><trkpt lat="38.969738698601546" lon="-9.273107276942003"><ele>114.66666666666666</ele><time>2026-04-03T12:47:13Z</time></trkpt><trkpt lat="38.96981849812728" lon="-9.273146019399993"><ele>113.83333333333333</ele><time>2026-04-03T12:47:15Z</time></trkpt><trkpt lat="38.96989004485646" lon="-9.2731710772605"><ele>113.0</ele><time>2026-04-03T12:47:18Z</time></trkpt><trkpt lat="38.96998244267707" lon="-9.273229535850444"><ele>111.4</ele><time>2026-04-03T12:47:21Z</time></trkpt><trkpt lat="38.970047401509156" lon="-9.273266077219645"><ele>109.80000000000001</ele><time>2026-04-03T12:47:22Z</time></trkpt><trkpt lat="38.970123514826305" lon="-9.273303337554156"><ele>108.2</ele><time>2026-04-03T12:47:23Z</time></trkpt><trkpt lat="38.97021388189373" lon="-9.273344002731644"><ele>106.6</ele><time>2026-04-03T12:47:24Z</time></trkpt><trkpt lat="38.97033891073748" lon="-9.273393495763386"><ele>105.0</ele><time>2026-04-03T12:47:26Z</time></trkpt><trkpt lat="38.970464997948994" lon="-9.273453687447565"><ele>105.0</ele><time>2026-04-03T12:47:27Z</time></trkpt><trkpt lat="38.97061641861426" lon="-9.273524474816229"><ele>105.0</ele><time>2026-04-03T12:47:28Z</time></trkpt><trkpt lat="38.97073401361987" lon="-9.273597189039721"><ele>105.0</ele><time>2026-04-03T12:47:29Z</time></trkpt><trkpt lat="38.97085881310258" lon="-9.273640037236566"><ele>105.0</ele><time>2026-04-03T12:47:30Z</time></trkpt><trkpt lat="38.970976427459995" lon="-9.273668285921785"><ele>103.5</ele><time>2026-04-03T12:47:31Z</time></trkpt><trkpt lat="38.97109060517238" lon="-9.27366573341717"><ele>102.0</ele><time>2026-04-03T12:47:32Z</time></trkpt><trkpt lat="38.971215142631806" lon="-9.273660987551883"><ele>100.5</ele><time>2026-04-03T12:47:33Z</time></trkpt><trkpt lat="38.97134444370882" lon="-9.273649021193947"><ele>99.0</ele><time>2026-04-03T12:47:34Z</time></trkpt><trkpt lat="38.97147553602039" lon="-9.273657140724477"><ele>99.0</ele><time>2026-04-03T12:47:35Z</time></trkpt><trkpt lat="38.97159019829025" lon="-9.273610467269501"><ele>99.0</ele><time>2026-04-03T12:47:36Z</time></trkpt><trkpt lat="38.97169705069624" lon="-9.273564900754522"><ele>99.0</ele><time>2026-04-03T12:47:37Z</time></trkpt><trkpt lat="38.97179839416216" lon="-9.273499961296856"><ele>99.0</ele><time>2026-04-03T12:47:38Z</time></trkpt><trkpt lat="38.97190940929128" lon="-9.273418241973156"><ele>99.25</ele><time>2026-04-03T12:47:39Z</time></trkpt><trkpt lat="38.97202864568613" lon="-9.273329245598145"><ele>99.5</ele><time>2026-04-03T12:47:40Z</time></trkpt><trkpt lat="38.972146090988616" lon="-9.273241194875729"><ele>99.75</ele><time>2026-04-03T12:47:41Z</time></trkpt><trkpt lat="38.97225913714984" lon="-9.27317981804772"><ele>100.0</ele><time>2026-04-03T12:47:42Z</time></trkpt><trkpt lat="38.9723610943354" lon="-9.273097771389665"><ele>100.25</ele><time>2026-04-03T12:47:43Z</time></trkpt><trkpt lat="38.972473551314486" lon="-9.273012009278217"><ele>100.5</ele><time>2026-04-03T12:47:44Z</time></trkpt><trkpt lat="38.9725936738902" lon="-9.272916378355195"><ele>100.75</ele><time>2026-04-03T12:47:45Z</time></trkpt><trkpt lat="38.97272025499383" lon="-9.27281883422794"><ele>101.0</ele><time>2026-04-03T12:47:46Z</time></trkpt><trkpt lat="38.97286136309829" lon="-9.272718206877773"><ele>101.0</ele><time>2026-04-03T12:47:47Z</time></trkpt><trkpt lat="38.97300686509191" lon="-9.272606222419833"><ele>101.0</ele><time>2026-04-03T12:47:48Z</time></trkpt><trkpt lat="38.973155109048164" lon="-9.272496449129752"><ele>101.0</ele><time>2026-04-03T12:47:49Z</time></trkpt><trkpt lat="38.97330288156744" lon="-9.27238908924813"><ele>103.33333333333333</ele><time>2026-04-03T12:47:50Z</time></trkpt><trkpt lat="38.97345446765991" lon="-9.272282447876359"><ele>105.66666666666666</ele><time>2026-04-03T12:47:51Z</time></trkpt><trkpt lat="38.97359662770025" lon="-9.272175282137413"><ele>108.0</ele><time>2026-04-03T12:47:52Z</time></trkpt><trkpt lat="38.973735896155866" lon="-9.272078372876113"><ele>108.0</ele><time>2026-04-03T12:47:53Z</time></trkpt><trkpt lat="38.97387081931406" lon="-9.271986612925291"><ele>108.0</ele><time>2026-04-03T12:47:54Z</time></trkpt><trkpt lat="38.9739973957391" lon="-9.271891078496589"><ele>108.0</ele><time>2026-04-03T12:47:55Z</time></trkpt><trkpt lat="38.97411861560398" lon="-9.271802177752152"><ele>108.0</ele><time>2026-04-03T12:47:56Z</time></trkpt><trkpt lat="38.97423281706828" lon="-9.271724778948105"><ele>108.80000000000001</ele><time>2026-04-03T12:47:57Z</time></trkpt><trkpt lat="38.97434527954589" lon="-9.27167063313663"><ele>109.60000000000001</ele><time>2026-04-03T12:47:58Z</time></trkpt><trkpt lat="38.97445072041616" lon="-9.27163069826026"><ele>110.39999999999999</ele><time>2026-04-03T12:47:59Z</time></trkpt><trkpt lat="38.97455278844019" lon="-9.271587494681983"><ele>111.19999999999999</ele><time>2026-04-03T12:48:00Z</time></trkpt><trkpt lat="38.97464346115349" lon="-9.271556200173775"><ele>112.0</ele><time>2026-04-03T12:48:01Z</time></trkpt><trkpt lat="38.974739903462705" lon="-9.271564306310122"><ele>112.0</ele><time>2026-04-03T12:48:02Z</time></trkpt><trkpt lat="38.97484494694434" lon="-9.271614225510163"><ele>111.99999999999999</ele><time>2026-04-03T12:48:03Z</time></trkpt><trkpt lat="38.9749459722487" lon="-9.271655299843934"><ele>111.99999999999999</ele><time>2026-04-03T12:48:04Z</time></trkpt><trkpt lat="38.975033617072405" lon="-9.271698679757126"><ele>112.0</ele><time>2026-04-03T12:48:05Z</time></trkpt><trkpt lat="38.975095867795034" lon="-9.271782979902438"><ele>112.0</ele><time>2026-04-03T12:48:06Z</time></trkpt><trkpt lat="38.97513990857774" lon="-9.27190326945059"><ele>112.39999999999999</ele><time>2026-04-03T12:48:07Z</time></trkpt><trkpt lat="38.975191404689134" lon="-9.271998989273811"><ele>112.79999999999998</ele><time>2026-04-03T12:48:08Z</time></trkpt><trkpt lat="38.97524087616126" lon="-9.27207224628292"><ele>113.2</ele><time>2026-04-03T12:48:09Z</time></trkpt><trkpt lat="38.97529880858907" lon="-9.272124425555802"><ele>113.6</ele><time>2026-04-03T12:48:12Z</time></trkpt><trkpt lat="38.975226212913384" lon="-9.272269392558886"><ele>114.0</ele><time>2026-04-03T12:48:13Z</time></trkpt><trkpt lat="38.97516518973788" lon="-9.27239347041305"><ele>114.80000000000001</ele><time>2026-04-03T12:48:15Z</time></trkpt><trkpt lat="38.97512802242647" lon="-9.272483135842526"><ele>115.60000000000001</ele><time>2026-04-03T12:48:16Z</time></trkpt><trkpt lat="38.97507913240745" lon="-9.272599154917557"><ele>116.4</ele><time>2026-04-03T12:48:17Z</time></trkpt><trkpt lat="38.97502601316097" lon="-9.272735167026502"><ele>117.2</ele><time>2026-04-03T12:48:18Z</time></trkpt><trkpt lat="38.97497264987554" lon="-9.272867432243903"><ele>118.0</ele><time>2026-04-03T12:48:19Z</time></trkpt><trkpt lat="38.97491859140748" lon="-9.273005320325575"><ele>118.25</ele><time>2026-04-03T12:48:20Z</time></trkpt><trkpt lat="38.97486426073" lon="-9.273136178047734"><ele>118.5</ele><time>2026-04-03T12:48:21Z</time></trkpt><trkpt lat="38.97480863308725" lon="-9.273272016804546"><ele>118.75</ele><time>2026-04-03T12:48:22Z</time></trkpt><trkpt lat="38.97474777493287" lon="-9.27341604840059"><ele>119.0</ele><time>2026-04-03T12:48:23Z</time></trkpt><trkpt lat="38.97468585821606" lon="-9.273548902733024"><ele>119.0</ele><time>2026-04-03T12:48:24Z</time></trkpt><trkpt lat="38.974625574208986" lon="-9.273690419073262"><ele>119.0</ele><time>2026-04-03T12:48:25Z</time></trkpt><trkpt lat="38.974558455930186" lon="-9.27384411157837"><ele>119.0</ele><time>2026-04-03T12:48:26Z</time></trkpt><trkpt lat="38.97448696551265" lon="-9.273995734986737"><ele>119.0</ele><time>2026-04-03T12:48:27Z</time></trkpt><trkpt lat="38.974415206309565" lon="-9.274156409066682"><ele>119.25</ele><time>2026-04-03T12:48:28Z</time></trkpt><trkpt lat="38.974339701221034" lon="-9.274317986004293"><ele>119.5</ele><time>2026-04-03T12:48:29Z</time></trkpt><trkpt lat="38.97426824091618" lon="-9.274487246705487"><ele>119.75</ele><time>2026-04-03T12:48:30Z</time></trkpt><trkpt lat="38.97419518263836" lon="-9.274655520114125"><ele>120.0</ele><time>2026-04-03T12:48:31Z</time></trkpt><trkpt lat="38.97412332899554" lon="-9.274824318746528"><ele>120.0</ele><time>2026-04-03T12:48:32Z</time></trkpt><trkpt lat="38.9740544859243" lon="-9.274971845314033"><ele>120.0</ele><time>2026-04-03T12:48:33Z</time></trkpt><trkpt lat="38.97398064424653" lon="-9.275109477690947"><ele>120.0</ele><time>2026-04-03T12:48:34Z</time></trkpt><trkpt lat="38.97389374469988" lon="-9.275244946020775"><ele>120.0</ele><time>2026-04-03T12:48:35Z</time></trkpt><trkpt lat="38.97381576580689" lon="-9.275377532744537"><ele>120.0</ele><time>2026-04-03T12:48:36Z</time></trkpt><trkpt lat="38.97376084622644" lon="-9.27551102027"><ele>120.0</ele><time>2026-04-03T12:48:37Z</time></trkpt><trkpt lat="38.97369813969708" lon="-9.275627119439939"><ele>120.0</ele><time>2026-04-03T12:48:38Z</time></trkpt><trkpt lat="38.97363557421357" lon="-9.275741709207361"><ele>120.0</ele><time>2026-04-03T12:48:39Z</time></trkpt><trkpt lat="38.97357570208576" lon="-9.275851366165387"><ele>120.0</ele><time>2026-04-03T12:48:40Z</time></trkpt><trkpt lat="38.973525797153144" lon="-9.275957874511132"><ele>120.6</ele><time>2026-04-03T12:48:41Z</time></trkpt><trkpt lat="38.973507585998455" lon="-9.27607670700402"><ele>121.2</ele><time>2026-04-03T12:48:42Z</time></trkpt><trkpt lat="38.97345846408588" lon="-9.276162427968508"><ele>121.80000000000001</ele><time>2026-04-03T12:48:43Z</time></trkpt><trkpt lat="38.973394395597246" lon="-9.276267388752244"><ele>122.4</ele><time>2026-04-03T12:48:44Z</time></trkpt><trkpt lat="38.97330989170138" lon="-9.276370900523405"><ele>123.0</ele><time>2026-04-03T12:48:45Z</time></trkpt><trkpt lat="38.97323067295843" lon="-9.276487791622632"><ele>123.25</ele><time>2026-04-03T12:48:46Z</time></trkpt><trkpt lat="38.973161772328794" lon="-9.276629306469935"><ele>123.5</ele><time>2026-04-03T12:48:47Z</time></trkpt><trkpt lat="38.97307661093009" lon="-9.276766589374088"><ele>123.75</ele><time>2026-04-03T12:48:48Z</time></trkpt><trkpt lat="38.972972834562974" lon="-9.276893712504817"><ele>124.0</ele><time>2026-04-03T12:48:49Z</time></trkpt><trkpt lat="38.972864741738256" lon="-9.277029618024704"><ele>124.0</ele><time>2026-04-03T12:48:50Z</time></trkpt><trkpt lat="38.97276908368799" lon="-9.277153163233162"><ele>124.0</ele><time>2026-04-03T12:48:51Z</time></trkpt><trkpt lat="38.97267756394088" lon="-9.277260241718627"><ele>124.0</ele><time>2026-04-03T12:48:52Z</time></trkpt><trkpt lat="38.97259287343114" lon="-9.277366056037215"><ele>124.0</ele><time>2026-04-03T12:48:53Z</time></trkpt><trkpt lat="38.972497613165324" lon="-9.277469301969647"><ele>125.5</ele><time>2026-04-03T12:48:54Z</time></trkpt><trkpt lat="38.972407292022204" lon="-9.27756753647257"><ele>127.0</ele><time>2026-04-03T12:48:55Z</time></trkpt><trkpt lat="38.97231224390637" lon="-9.277674845373621"><ele>128.5</ele><time>2026-04-03T12:48:56Z</time></trkpt><trkpt lat="38.97222621772919" lon="-9.277793326041376"><ele>130.0</ele><time>2026-04-03T12:48:57Z</time></trkpt><trkpt lat="38.9721424315103" lon="-9.277916552258336"><ele>130.0</ele><time>2026-04-03T12:48:58Z</time></trkpt><trkpt lat="38.972057274975064" lon="-9.278043398702993"><ele>130.0</ele><time>2026-04-03T12:48:59Z</time></trkpt><trkpt lat="38.97196946065841" lon="-9.278168951914134"><ele>130.0</ele><time>2026-04-03T12:49:00Z</time></trkpt><trkpt lat="38.97188593908951" lon="-9.278288820287282"><ele>130.0</ele><time>2026-04-03T12:49:01Z</time></trkpt><trkpt lat="38.97180674751521" lon="-9.278398522201577"><ele>130.6</ele><time>2026-04-03T12:49:02Z</time></trkpt><trkpt lat="38.97172750984039" lon="-9.27849578452764"><ele>131.2</ele><time>2026-04-03T12:49:03Z</time></trkpt><trkpt lat="38.97165647796708" lon="-9.278582133767268"><ele>131.8</ele><time>2026-04-03T12:49:04Z</time></trkpt><trkpt lat="38.97158277820903" lon="-9.27865299082318"><ele>132.4</ele><time>2026-04-03T12:49:05Z</time></trkpt><trkpt lat="38.971513299721146" lon="-9.278728921681772"><ele>133.0</ele><time>2026-04-03T12:49:06Z</time></trkpt><trkpt lat="38.97144642917926" lon="-9.278814357776337"><ele>133.0</ele><time>2026-04-03T12:49:07Z</time></trkpt><trkpt lat="38.971386275250865" lon="-9.278886405041032"><ele>133.0</ele><time>2026-04-03T12:49:08Z</time></trkpt><trkpt lat="38.971308679153026" lon="-9.278924650084672"><ele>133.0</ele><time>2026-04-03T12:49:09Z</time></trkpt><trkpt lat="38.97133431956426" lon="-9.27909921683171"><ele>133.0</ele><time>2026-04-03T12:49:10Z</time></trkpt><trkpt lat="38.971309342899545" lon="-9.279187003731552"><ele>133.0</ele><time>2026-04-03T12:49:11Z</time></trkpt><trkpt lat="38.97128867406086" lon="-9.279268383494372"><ele>133.0</ele><time>2026-04-03T12:49:12Z</time></trkpt><trkpt lat="38.971275042658014" lon="-9.279397194104426"><ele>133.85714285714286</ele><time>2026-04-03T12:49:14Z</time></trkpt><trkpt lat="38.9712621255508" lon="-9.279521325409501"><ele>134.71428571428572</ele><time>2026-04-03T12:49:16Z</time></trkpt><trkpt lat="38.971258588825336" lon="-9.279604378249841"><ele>135.57142857142856</ele><time>2026-04-03T12:49:17Z</time></trkpt><trkpt lat="38.9712572512109" lon="-9.279686742276972"><ele>136.42857142857144</ele><time>2026-04-03T12:49:18Z</time></trkpt><trkpt lat="38.97125944663936" lon="-9.27977445134176"><ele>137.28571428571428</ele><time>2026-04-03T12:49:19Z</time></trkpt><trkpt lat="38.97126941938712" lon="-9.279864179003221"><ele>138.14285714285714</ele><time>2026-04-03T12:49:20Z</time></trkpt><trkpt lat="38.971272351105014" lon="-9.279950067300765"><ele>139.0</ele><time>2026-04-03T12:49:21Z</time></trkpt><trkpt lat="38.97129185152485" lon="-9.280035553224604"><ele>139.0</ele><time>2026-04-03T12:49:22Z</time></trkpt><trkpt lat="38.971303240436804" lon="-9.280123386529937"><ele>139.0</ele><time>2026-04-03T12:49:23Z</time></trkpt><trkpt lat="38.971315119882576" lon="-9.28021500277711"><ele>139.0</ele><time>2026-04-03T12:49:24Z</time></trkpt><trkpt lat="38.971327440460605" lon="-9.280310021281098"><ele>139.0</ele><time>2026-04-03T12:49:25Z</time></trkpt><trkpt lat="38.97138034050843" lon="-9.280369198994157"><ele>139.0</ele><time>2026-04-03T12:49:26Z</time></trkpt><trkpt lat="38.971186836042456" lon="-9.28053950639316"><ele>137.5</ele><time>2026-04-03T12:49:27Z</time></trkpt><trkpt lat="38.971163853354476" lon="-9.280643018894239"><ele>136.0</ele><time>2026-04-03T12:49:28Z</time></trkpt><trkpt lat="38.97112435147912" lon="-9.280733619868485"><ele>134.5</ele><time>2026-04-03T12:49:29Z</time></trkpt><trkpt lat="38.97108349372368" lon="-9.280799233685066"><ele>133.0</ele><time>2026-04-03T12:49:30Z</time></trkpt><trkpt lat="38.9710106045955" lon="-9.280834773540986"><ele>131.5</ele><time>2026-04-03T12:49:32Z</time></trkpt><trkpt lat="38.97095195581254" lon="-9.280868251191773"><ele>130.0</ele><time>2026-04-03T12:49:35Z</time></trkpt><trkpt lat="38.970846409484494" lon="-9.28094925233364"><ele>134.2</ele><time>2026-04-03T12:49:37Z</time></trkpt><trkpt lat="38.97078452930617" lon="-9.281018412613275"><ele>138.4</ele><time>2026-04-03T12:49:38Z</time></trkpt><trkpt lat="38.97069508497561" lon="-9.281093078513617"><ele>142.6</ele><time>2026-04-03T12:49:39Z</time></trkpt><trkpt lat="38.97060568932394" lon="-9.28116309158886"><ele>146.8</ele><time>2026-04-03T12:49:40Z</time></trkpt><trkpt lat="38.97052190972886" lon="-9.281217239563865"><ele>151.0</ele><time>2026-04-03T12:49:41Z</time></trkpt><trkpt lat="38.9704564548803" lon="-9.281246762759384"><ele>151.0</ele><time>2026-04-03T12:49:42Z</time></trkpt><trkpt lat="38.970373546378916" lon="-9.281276647391016"><ele>151.0</ele><time>2026-04-03T12:49:44Z</time></trkpt><trkpt lat="38.97038426114457" lon="-9.281374877109062"><ele>151.0</ele><time>2026-04-03T12:49:46Z</time></trkpt><trkpt lat="38.970416143574894" lon="-9.281459541694474"><ele>151.0</ele><time>2026-04-03T12:49:47Z</time></trkpt><trkpt lat="38.970446829104155" lon="-9.28158432728386"><ele>151.0</ele><time>2026-04-03T12:49:48Z</time></trkpt><trkpt lat="38.97049252226413" lon="-9.281737516400229"><ele>150.6</ele><time>2026-04-03T12:49:49Z</time></trkpt><trkpt lat="38.97053012853785" lon="-9.281888738690517"><ele>150.2</ele><time>2026-04-03T12:49:50Z</time></trkpt><trkpt lat="38.97055582645464" lon="-9.282033322179197"><ele>149.8</ele><time>2026-04-03T12:49:51Z</time></trkpt><trkpt lat="38.970583338172" lon="-9.28217332367092"><ele>149.4</ele><time>2026-04-03T12:49:52Z</time></trkpt><trkpt lat="38.97060899686014" lon="-9.282279943898667"><ele>149.0</ele><time>2026-04-03T12:49:53Z</time></trkpt><trkpt lat="38.970630844323" lon="-9.282367508490292"><ele>148.16666666666666</ele><time>2026-04-03T12:49:54Z</time></trkpt><trkpt lat="38.9706784937379" lon="-9.282449535055509"><ele>147.33333333333331</ele><time>2026-04-03T12:49:55Z</time></trkpt><trkpt lat="38.97075551629271" lon="-9.282498553285084"><ele>146.5</ele><time>2026-04-03T12:49:56Z</time></trkpt><trkpt lat="38.97083010491626" lon="-9.28257784968607"><ele>145.66666666666666</ele><time>2026-04-03T12:49:57Z</time></trkpt><trkpt lat="38.97091130906357" lon="-9.282650205679042"><ele>144.83333333333334</ele><time>2026-04-03T12:49:58Z</time></trkpt><trkpt lat="38.97097709401661" lon="-9.282716048454308"><ele>144.0</ele><time>2026-04-03T12:49:59Z</time></trkpt><trkpt lat="38.97103849165068" lon="-9.282794989982575"><ele>144.0</ele><time>2026-04-03T12:50:00Z</time></trkpt><trkpt lat="38.97109611176777" lon="-9.28287605922618"><ele>144.0</ele><time>2026-04-03T12:50:01Z</time></trkpt><trkpt lat="38.971157172195824" lon="-9.28297486096148"><ele>144.0</ele><time>2026-04-03T12:50:02Z</time></trkpt><trkpt lat="38.971203037042535" lon="-9.283069611106761"><ele>144.0</ele><time>2026-04-03T12:50:03Z</time></trkpt><trkpt lat="38.97123773960851" lon="-9.28316309796105"><ele>144.0</ele><time>2026-04-03T12:50:04Z</time></trkpt><trkpt lat="38.971277390416304" lon="-9.283256865820661"><ele>144.0</ele><time>2026-04-03T12:50:05Z</time></trkpt><trkpt lat="38.971322469590916" lon="-9.283350683492776"><ele>148.4</ele><time>2026-04-03T12:50:06Z</time></trkpt><trkpt lat="38.97133881860938" lon="-9.283451504812252"><ele>152.8</ele><time>2026-04-03T12:50:07Z</time></trkpt><trkpt lat="38.971368922261235" lon="-9.283558073119115"><ele>157.20000000000002</ele><time>2026-04-03T12:50:08Z</time></trkpt><trkpt lat="38.971456414361825" lon="-9.28358813195678"><ele>161.60000000000002</ele><time>2026-04-03T12:50:10Z</time></trkpt><trkpt lat="38.9715477564114" lon="-9.28368612490059"><ele>166.0</ele><time>2026-04-03T12:50:13Z</time></trkpt><trkpt lat="38.97166360441691" lon="-9.283743412410729"><ele>165.0</ele><time>2026-04-03T12:50:15Z</time></trkpt><trkpt lat="38.97174900625895" lon="-9.283795025793896"><ele>164.0</ele><time>2026-04-03T12:50:16Z</time></trkpt><trkpt lat="38.97184985784962" lon="-9.283796365058146"><ele>163.0</ele><time>2026-04-03T12:50:17Z</time></trkpt><trkpt lat="38.97195077929104" lon="-9.283767832088062"><ele>162.0</ele><time>2026-04-03T12:50:18Z</time></trkpt><trkpt lat="38.97203957862438" lon="-9.283738361635711"><ele>161.0</ele><time>2026-04-03T12:50:19Z</time></trkpt><trkpt lat="38.97212302388597" lon="-9.28373880742002"><ele>161.0</ele><time>2026-04-03T12:50:20Z</time></trkpt><trkpt lat="38.97219904890768" lon="-9.283746615992175"><ele>161.0</ele><time>2026-04-03T12:50:21Z</time></trkpt><trkpt lat="38.97226638160796" lon="-9.283756391133087"><ele>161.0</ele><time>2026-04-03T12:50:22Z</time></trkpt><trkpt lat="38.9723406296934" lon="-9.283868964193207"><ele>161.0</ele><time>2026-04-03T12:50:24Z</time></trkpt><trkpt lat="38.97233574869402" lon="-9.28398107627179"><ele>161.0</ele><time>2026-04-03T12:50:25Z</time></trkpt><trkpt lat="38.97229554875479" lon="-9.284098016013303"><ele>161.0</ele><time>2026-04-03T12:50:26Z</time></trkpt><trkpt lat="38.97226352328594" lon="-9.284210221730248"><ele>160.5</ele><time>2026-04-03T12:50:27Z</time></trkpt><trkpt lat="38.972228197129255" lon="-9.284294227318673"><ele>160.0</ele><time>2026-04-03T12:50:28Z</time></trkpt><trkpt lat="38.97219146584967" lon="-9.284408489063292"><ele>159.5</ele><time>2026-04-03T12:50:29Z</time></trkpt><trkpt lat="38.97216266338416" lon="-9.28451739328688"><ele>159.0</ele><time>2026-04-03T12:50:30Z</time></trkpt><trkpt lat="38.97213686804684" lon="-9.284602452166478"><ele>158.5</ele><time>2026-04-03T12:50:31Z</time></trkpt><trkpt lat="38.97210502841695" lon="-9.284690000293196"><ele>158.0</ele><time>2026-04-03T12:50:32Z</time></trkpt><trkpt lat="38.97205116799382" lon="-9.284754431792305"><ele>156.57142857142858</ele><time>2026-04-03T12:50:33Z</time></trkpt><trkpt lat="38.97199494262455" lon="-9.284826466940121"><ele>155.14285714285714</ele><time>2026-04-03T12:50:34Z</time></trkpt><trkpt lat="38.97197108135111" lon="-9.28491171550577"><ele>153.71428571428572</ele><time>2026-04-03T12:50:35Z</time></trkpt><trkpt lat="38.97197177705945" lon="-9.28499507731903"><ele>152.28571428571428</ele><time>2026-04-03T12:50:36Z</time></trkpt><trkpt lat="38.97200310427449" lon="-9.285094489257332"><ele>150.85714285714286</ele><time>2026-04-03T12:50:37Z</time></trkpt><trkpt lat="38.972039482520145" lon="-9.285163912314614"><ele>149.42857142857144</ele><time>2026-04-03T12:50:38Z</time></trkpt><trkpt lat="38.97205327465205" lon="-9.285256431450904"><ele>148.0</ele><time>2026-04-03T12:50:39Z</time></trkpt><trkpt lat="38.97203850796089" lon="-9.285349497941992"><ele>148.0</ele><time>2026-04-03T12:50:40Z</time></trkpt><trkpt lat="38.97197890117397" lon="-9.28543535231027"><ele>148.0</ele><time>2026-04-03T12:50:41Z</time></trkpt><trkpt lat="38.9719060922936" lon="-9.28552229763875"><ele>148.0</ele><time>2026-04-03T12:50:42Z</time></trkpt><trkpt lat="38.97186152782899" lon="-9.285612436949743"><ele>148.0</ele><time>2026-04-03T12:50:43Z</time></trkpt><trkpt lat="38.97181356225023" lon="-9.285699474706208"><ele>148.0</ele><time>2026-04-03T12:50:44Z</time></trkpt><trkpt lat="38.97179373400905" lon="-9.285811115739913"><ele>148.0</ele><time>2026-04-03T12:50:45Z</time></trkpt><trkpt lat="38.97178121169577" lon="-9.285907688023975"><ele>147.0</ele><time>2026-04-03T12:50:46Z</time></trkpt><trkpt lat="38.971745013841975" lon="-9.28601179868377"><ele>146.0</ele><time>2026-04-03T12:50:48Z</time></trkpt><trkpt lat="38.971701233052876" lon="-9.286091705884504"><ele>145.0</ele><time>2026-04-03T12:50:50Z</time></trkpt><trkpt lat="38.97166457215151" lon="-9.286160691603044"><ele>144.0</ele><time>2026-04-03T12:51:22Z</time></trkpt><trkpt lat="38.971635744786404" lon="-9.286244586204774"><ele>143.0</ele><time>2026-04-03T12:51:26Z</time></trkpt><trkpt lat="38.971626663609186" lon="-9.286340646543186"><ele>142.0</ele><time>2026-04-03T12:51:37Z</time></trkpt><trkpt lat="38.97166274139727" lon="-9.286436245092458"><ele>141.66666666666669</ele><time>2026-04-03T12:51:41Z</time></trkpt><trkpt lat="38.97171166124417" lon="-9.286520598564119"><ele>141.33333333333334</ele><time>2026-04-03T12:51:43Z</time></trkpt><trkpt lat="38.97177406327953" lon="-9.286600078274018"><ele>141.0</ele><time>2026-04-03T12:51:45Z</time></trkpt><trkpt lat="38.971793385357465" lon="-9.286704163002856"><ele>140.66666666666666</ele><time>2026-04-03T12:51:47Z</time></trkpt><trkpt lat="38.971789953495" lon="-9.286810660432948"><ele>140.33333333333331</ele><time>2026-04-03T12:51:50Z</time></trkpt><trkpt lat="38.97180070719793" lon="-9.286923449894438"><ele>140.0</ele><time>2026-04-03T12:51:52Z</time></trkpt><trkpt lat="38.97177635501459" lon="-9.287002241861751"><ele>140.0</ele><time>2026-04-03T12:51:53Z</time></trkpt><trkpt lat="38.971705232243245" lon="-9.287109493365575"><ele>140.0</ele><time>2026-04-03T12:51:55Z</time></trkpt><trkpt lat="38.971675879240685" lon="-9.287181352012881"><ele>140.0</ele><time>2026-04-03T12:51:56Z</time></trkpt><trkpt lat="38.97165550373359" lon="-9.287268249341473"><ele>140.0</ele><time>2026-04-03T12:51:57Z</time></trkpt><trkpt lat="38.971642938268445" lon="-9.287389583317868"><ele>140.0</ele><time>2026-04-03T12:51:59Z</time></trkpt><trkpt lat="38.97165053076135" lon="-9.287493968896166"><ele>140.0</ele><time>2026-04-03T12:52:01Z</time></trkpt><trkpt lat="38.97169724550685" lon="-9.28759348484662"><ele>142.66666666666666</ele><time>2026-04-03T12:52:03Z</time></trkpt><trkpt lat="38.97176980963527" lon="-9.287632913341003"><ele>145.33333333333331</ele><time>2026-04-03T12:52:04Z</time></trkpt><trkpt lat="38.971839914274916" lon="-9.287672916161597"><ele>148.0</ele><time>2026-04-03T12:52:05Z</time></trkpt><trkpt lat="38.97191379082417" lon="-9.287732024349415"><ele>150.66666666666666</ele><time>2026-04-03T12:52:06Z</time></trkpt><trkpt lat="38.97198136532709" lon="-9.28779914578112"><ele>153.33333333333334</ele><time>2026-04-03T12:52:07Z</time></trkpt><trkpt lat="38.97206700595314" lon="-9.287864298329753"><ele>156.0</ele><time>2026-04-03T12:52:08Z</time></trkpt><trkpt lat="38.972169294021484" lon="-9.287867628683015"><ele>156.0</ele><time>2026-04-03T12:52:09Z</time></trkpt><trkpt lat="38.97226931796649" lon="-9.28784273461136"><ele>156.0</ele><time>2026-04-03T12:52:10Z</time></trkpt><trkpt lat="38.97235343604013" lon="-9.28784950496322"><ele>156.0</ele><time>2026-04-03T12:52:11Z</time></trkpt><trkpt lat="38.97247570241167" lon="-9.287865546578923"><ele>156.0</ele><time>2026-04-03T12:52:13Z</time></trkpt><trkpt lat="38.9726157027677" lon="-9.287878837709133"><ele>156.0</ele><time>2026-04-03T12:52:15Z</time></trkpt><trkpt lat="38.97268858976497" lon="-9.287919127530898"><ele>156.8</ele><time>2026-04-03T12:52:16Z</time></trkpt><trkpt lat="38.97277613040539" lon="-9.287965172894848"><ele>157.6</ele><time>2026-04-03T12:52:17Z</time></trkpt><trkpt lat="38.97287819973707" lon="-9.287973531360787"><ele>158.4</ele><time>2026-04-03T12:52:18Z</time></trkpt><trkpt lat="38.97297461776083" lon="-9.287982583961636"><ele>159.2</ele><time>2026-04-03T12:52:19Z</time></trkpt><trkpt lat="38.973065403941234" lon="-9.288033439447176"><ele>160.0</ele><time>2026-04-03T12:52:20Z</time></trkpt><trkpt lat="38.97314260214896" lon="-9.28809599040481"><ele>160.0</ele><time>2026-04-03T12:52:21Z</time></trkpt><trkpt lat="38.97319689509827" lon="-9.28820830972448"><ele>160.0</ele><time>2026-04-03T12:52:22Z</time></trkpt><trkpt lat="38.97322068181844" lon="-9.288317143856078"><ele>160.0</ele><time>2026-04-03T12:52:23Z</time></trkpt><trkpt lat="38.97322733972571" lon="-9.28840023443219"><ele>160.0</ele><time>2026-04-03T12:52:26Z</time></trkpt><trkpt lat="38.97323269629741" lon="-9.288570601809555"><ele>160.0</ele><time>2026-04-03T12:52:37Z</time></trkpt><trkpt lat="38.973266223516845" lon="-9.288663872763554"><ele>160.0</ele><time>2026-04-03T12:52:38Z</time></trkpt><trkpt lat="38.973284609235634" lon="-9.288761524284231"><ele>160.0</ele><time>2026-04-03T12:52:39Z</time></trkpt><trkpt lat="38.9733011564867" lon="-9.288853348041537"><ele>160.0</ele><time>2026-04-03T12:52:40Z</time></trkpt><trkpt lat="38.97333685757356" lon="-9.288997859825377"><ele>160.0</ele><time>2026-04-03T12:52:42Z</time></trkpt><trkpt lat="38.973313345866" lon="-9.289080478679178"><ele>160.0</ele><time>2026-04-03T12:52:43Z</time></trkpt><trkpt lat="38.97327257001153" lon="-9.289148361461882"><ele>160.0</ele><time>2026-04-03T12:52:44Z</time></trkpt><trkpt lat="38.97323123437927" lon="-9.289219605313175"><ele>161.16666666666669</ele><time>2026-04-03T12:52:45Z</time></trkpt><trkpt lat="38.97319549073019" lon="-9.289321529719269"><ele>162.33333333333334</ele><time>2026-04-03T12:52:46Z</time></trkpt><trkpt lat="38.9731948342831" lon="-9.289416292997277"><ele>163.5</ele><time>2026-04-03T12:52:47Z</time></trkpt><trkpt lat="38.97319786262509" lon="-9.289497429166246"><ele>164.66666666666666</ele><time>2026-04-03T12:52:48Z</time></trkpt><trkpt lat="38.973202817610066" lon="-9.289607270252494"><ele>165.83333333333331</ele><time>2026-04-03T12:52:49Z</time></trkpt><trkpt lat="38.97324780624012" lon="-9.289702090083974"><ele>167.0</ele><time>2026-04-03T12:52:50Z</time></trkpt><trkpt lat="38.973333559696364" lon="-9.289764716900063"><ele>166.0</ele><time>2026-04-03T12:52:51Z</time></trkpt><trkpt lat="38.97342688022249" lon="-9.289792626388085"><ele>165.0</ele><time>2026-04-03T12:52:52Z</time></trkpt><trkpt lat="38.973524468977324" lon="-9.289832278762246"><ele>164.0</ele><time>2026-04-03T12:52:53Z</time></trkpt><trkpt lat="38.97362657832138" lon="-9.28990037032294"><ele>163.0</ele><time>2026-04-03T12:52:54Z</time></trkpt><trkpt lat="38.97367736784373" lon="-9.290040310549603"><ele>162.0</ele><time>2026-04-03T12:52:55Z</time></trkpt><trkpt lat="38.97369856133804" lon="-9.290188880336153"><ele>162.0</ele><time>2026-04-03T12:52:56Z</time></trkpt><trkpt lat="38.97370603947742" lon="-9.290326978265501"><ele>162.0</ele><time>2026-04-03T12:52:57Z</time></trkpt><trkpt lat="38.973694512242915" lon="-9.290452090857046"><ele>162.0</ele><time>2026-04-03T12:52:58Z</time></trkpt><trkpt lat="38.97370864937464" lon="-9.290581784644433"><ele>162.0</ele><time>2026-04-03T12:52:59Z</time></trkpt><trkpt lat="38.97379800185642" lon="-9.290641877910746"><ele>162.0</ele><time>2026-04-03T12:53:01Z</time></trkpt><trkpt lat="38.97388458646112" lon="-9.290636877164724"><ele>162.0</ele><time>2026-04-03T12:53:03Z</time></trkpt><trkpt lat="38.97387312296041" lon="-9.290726145087792"><ele>162.0</ele><time>2026-04-03T12:53:05Z</time></trkpt><trkpt lat="38.97377492233608" lon="-9.290719580241634"><ele>162.0</ele><time>2026-04-03T12:53:11Z</time></trkpt><trkpt lat="38.973671688618005" lon="-9.290667146895608"><ele>162.0</ele><time>2026-04-03T12:53:12Z</time></trkpt><trkpt lat="38.97357718550431" lon="-9.2905983317653"><ele>162.0</ele><time>2026-04-03T12:53:13Z</time></trkpt><trkpt lat="38.973523978425064" lon="-9.290541076093012"><ele>162.0</ele><time>2026-04-03T12:53:14Z</time></trkpt><trkpt lat="38.97344815928471" lon="-9.290544850530866"><ele>162.0</ele><time>2026-04-03T12:53:16Z</time></trkpt><trkpt lat="38.97348544547648" lon="-9.290478079774271"><ele>162.0</ele><time>2026-04-03T12:53:23Z</time></trkpt><trkpt lat="38.97354897152904" lon="-9.290533437227175"><ele>162.0</ele><time>2026-04-03T12:53:24Z</time></trkpt><trkpt lat="38.97362733103644" lon="-9.290605380982718"><ele>162.0</ele><time>2026-04-03T12:53:25Z</time></trkpt><trkpt lat="38.973712175200866" lon="-9.290670267042435"><ele>162.0</ele><time>2026-04-03T12:53:26Z</time></trkpt><trkpt lat="38.973821496462115" lon="-9.290734338454298"><ele>164.0</ele><time>2026-04-03T12:53:27Z</time></trkpt><trkpt lat="38.97394704064548" lon="-9.290778860844224"><ele>166.0</ele><time>2026-04-03T12:53:28Z</time></trkpt><trkpt lat="38.974073711649304" lon="-9.290797898780598"><ele>168.0</ele><time>2026-04-03T12:53:29Z</time></trkpt><trkpt lat="38.974180934824886" lon="-9.290810460291091"><ele>170.0</ele><time>2026-04-03T12:53:30Z</time></trkpt><trkpt lat="38.97427699370225" lon="-9.290824866497005"><ele>170.5</ele><time>2026-04-03T12:53:31Z</time></trkpt><trkpt lat="38.97437729752346" lon="-9.29083751799986"><ele>171.0</ele><time>2026-04-03T12:53:32Z</time></trkpt><trkpt lat="38.97446800760554" lon="-9.29084578038103"><ele>171.5</ele><time>2026-04-03T12:53:33Z</time></trkpt><trkpt lat="38.97454869456051" lon="-9.29083435583392"><ele>172.0</ele><time>2026-04-03T12:53:34Z</time></trkpt><trkpt lat="38.97462604776645" lon="-9.29081083222603"><ele>172.5</ele><time>2026-04-03T12:53:35Z</time></trkpt><trkpt lat="38.97469418665784" lon="-9.290793694026737"><ele>173.0</ele><time>2026-04-03T12:53:36Z</time></trkpt><trkpt lat="38.9747713008448" lon="-9.29076662882398"><ele>173.0</ele><time>2026-04-03T12:53:38Z</time></trkpt><trkpt lat="38.97493833432651" lon="-9.29104151294448"><ele>173.0</ele><time>2026-04-03T12:53:41Z</time></trkpt><trkpt lat="38.974731532375316" lon="-9.291232700797119"><ele>173.0</ele><time>2026-04-03T12:53:42Z</time></trkpt><trkpt lat="38.97469814675123" lon="-9.291340466044291"><ele>173.0</ele><time>2026-04-03T12:53:43Z</time></trkpt><trkpt lat="38.974646489557855" lon="-9.29149354394429"><ele>173.0</ele><time>2026-04-03T12:53:44Z</time></trkpt><trkpt lat="38.97456645963869" lon="-9.2916842963209"><ele>173.0</ele><time>2026-04-03T12:53:45Z</time></trkpt><trkpt lat="38.974606408885414" lon="-9.291849017829653"><ele>173.0</ele><time>2026-04-03T12:53:46Z</time></trkpt><trkpt lat="38.97420809836558" lon="-9.291927037176587"><ele>173.0</ele><time>2026-04-03T12:53:47Z</time></trkpt><trkpt lat="38.97417254257748" lon="-9.292110137189864"><ele>170.75</ele><time>2026-04-03T12:53:48Z</time></trkpt><trkpt lat="38.974142397220106" lon="-9.292278687431358"><ele>168.5</ele><time>2026-04-03T12:53:49Z</time></trkpt><trkpt lat="38.97408334210234" lon="-9.292416690716978"><ele>166.25</ele><time>2026-04-03T12:53:50Z</time></trkpt><trkpt lat="38.97398401893857" lon="-9.292530099008244"><ele>164.0</ele><time>2026-04-03T12:53:51Z</time></trkpt><trkpt lat="38.97385517191076" lon="-9.292630340558214"><ele>164.0</ele><time>2026-04-03T12:53:52Z</time></trkpt><trkpt lat="38.97371931119016" lon="-9.292706908922955"><ele>164.0</ele><time>2026-04-03T12:53:53Z</time></trkpt><trkpt lat="38.97359078254372" lon="-9.292763835781882"><ele>164.0</ele><time>2026-04-03T12:53:54Z</time></trkpt><trkpt lat="38.97345515375139" lon="-9.292816168688478"><ele>164.0</ele><time>2026-04-03T12:53:55Z</time></trkpt><trkpt lat="38.973323905772475" lon="-9.29286854688838"><ele>164.5</ele><time>2026-04-03T12:53:56Z</time></trkpt><trkpt lat="38.97318866440105" lon="-9.292925570572553"><ele>165.0</ele><time>2026-04-03T12:53:57Z</time></trkpt><trkpt lat="38.973056932065234" lon="-9.292984496181433"><ele>165.5</ele><time>2026-04-03T12:53:58Z</time></trkpt><trkpt lat="38.97292700764832" lon="-9.293051898102105"><ele>166.0</ele><time>2026-04-03T12:53:59Z</time></trkpt><trkpt lat="38.9727976251396" lon="-9.293105382848363"><ele>166.0</ele><time>2026-04-03T12:54:00Z</time></trkpt><trkpt lat="38.972698222190886" lon="-9.293205542226634"><ele>166.0</ele><time>2026-04-03T12:54:01Z</time></trkpt><trkpt lat="38.97262291420258" lon="-9.293318672341709"><ele>166.0</ele><time>2026-04-03T12:54:02Z</time></trkpt><trkpt lat="38.97256867861192" lon="-9.29344560236653"><ele>166.0</ele><time>2026-04-03T12:54:03Z</time></trkpt><trkpt lat="38.97252914426757" lon="-9.293594723775675"><ele>164.75</ele><time>2026-04-03T12:54:04Z</time></trkpt><trkpt lat="38.97248013654737" lon="-9.293754012720647"><ele>163.5</ele><time>2026-04-03T12:54:05Z</time></trkpt><trkpt lat="38.97246880279021" lon="-9.29390952544314"><ele>162.25</ele><time>2026-04-03T12:54:06Z</time></trkpt><trkpt lat="38.97242928973098" lon="-9.294058768870388"><ele>161.0</ele><time>2026-04-03T12:54:07Z</time></trkpt><trkpt lat="38.97231783512397" lon="-9.294147075838946"><ele>161.0</ele><time>2026-04-03T12:54:08Z</time></trkpt><trkpt lat="38.972201405583576" lon="-9.294180764238757"><ele>161.0</ele><time>2026-04-03T12:54:09Z</time></trkpt><trkpt lat="38.972066050686685" lon="-9.294182836347906"><ele>161.0</ele><time>2026-04-03T12:54:10Z</time></trkpt><trkpt lat="38.97191862020693" lon="-9.29420751631599"><ele>161.0</ele><time>2026-04-03T12:54:11Z</time></trkpt><trkpt lat="38.97176990821313" lon="-9.294283724925931"><ele>156.33333333333331</ele><time>2026-04-03T12:54:12Z</time></trkpt><trkpt lat="38.97163626902766" lon="-9.294396168270337"><ele>151.66666666666666</ele><time>2026-04-03T12:54:13Z</time></trkpt><trkpt lat="38.97152757701291" lon="-9.294551318986905"><ele>147.0</ele><time>2026-04-03T12:54:14Z</time></trkpt><trkpt lat="38.971444073141576" lon="-9.29471256950392"><ele>149.0</ele><time>2026-04-03T12:54:15Z</time></trkpt><trkpt lat="38.97139042540235" lon="-9.294886645329298"><ele>151.0</ele><time>2026-04-03T12:54:16Z</time></trkpt><trkpt lat="38.97133882484113" lon="-9.29506871481776"><ele>153.0</ele><time>2026-04-03T12:54:17Z</time></trkpt><trkpt lat="38.97128498490441" lon="-9.295226189233922"><ele>155.0</ele><time>2026-04-03T12:54:18Z</time></trkpt><trkpt lat="38.971250122054684" lon="-9.295351148624821"><ele>155.0</ele><time>2026-04-03T12:54:19Z</time></trkpt><trkpt lat="38.971196243932276" lon="-9.295441079274516"><ele>155.0</ele><time>2026-04-03T12:54:20Z</time></trkpt><trkpt lat="38.971114755439565" lon="-9.295492056353595"><ele>155.0</ele><time>2026-04-03T12:54:21Z</time></trkpt><trkpt lat="38.97101326893926" lon="-9.295497718568901"><ele>155.0</ele><time>2026-04-03T12:54:22Z</time></trkpt><trkpt lat="38.97090381388269" lon="-9.29544855368841"><ele>155.0</ele><time>2026-04-03T12:54:23Z</time></trkpt><trkpt lat="38.97078135079359" lon="-9.295365478224673"><ele>150.66666666666666</ele><time>2026-04-03T12:54:24Z</time></trkpt><trkpt lat="38.97064583758328" lon="-9.295264504497172"><ele>146.33333333333334</ele><time>2026-04-03T12:54:25Z</time></trkpt><trkpt lat="38.97050554323619" lon="-9.2951732254655"><ele>142.0</ele><time>2026-04-03T12:54:26Z</time></trkpt><trkpt lat="38.97034718182817" lon="-9.29509296021083"><ele>142.0</ele><time>2026-04-03T12:54:27Z</time></trkpt><trkpt lat="38.970179228799324" lon="-9.295037407493846"><ele>142.0</ele><time>2026-04-03T12:54:28Z</time></trkpt><trkpt lat="38.970027833439254" lon="-9.29506625434758"><ele>142.0</ele><time>2026-04-03T12:54:29Z</time></trkpt><trkpt lat="38.96988507229303" lon="-9.295140255138067"><ele>141.33333333333334</ele><time>2026-04-03T12:54:30Z</time></trkpt><trkpt lat="38.96971794064986" lon="-9.295251641526626"><ele>140.66666666666666</ele><time>2026-04-03T12:54:31Z</time></trkpt><trkpt lat="38.96954088335406" lon="-9.295333922104682"><ele>140.0</ele><time>2026-04-03T12:54:32Z</time></trkpt><trkpt lat="38.96937812211581" lon="-9.295402693066178"><ele>140.0</ele><time>2026-04-03T12:54:33Z</time></trkpt><trkpt lat="38.96924274940809" lon="-9.295468589988493"><ele>140.0</ele><time>2026-04-03T12:54:34Z</time></trkpt><trkpt lat="38.969097325701554" lon="-9.295514135932756"><ele>140.0</ele><time>2026-04-03T12:54:35Z</time></trkpt><trkpt lat="38.96894029336479" lon="-9.295587020022609"><ele>140.0</ele><time>2026-04-03T12:54:36Z</time></trkpt><trkpt lat="38.968771039648644" lon="-9.29566347259091"><ele>140.0</ele><time>2026-04-03T12:54:37Z</time></trkpt><trkpt lat="38.968620425474214" lon="-9.295754813215176"><ele>140.0</ele><time>2026-04-03T12:54:38Z</time></trkpt><trkpt lat="38.96848679036223" lon="-9.295874289198048"><ele>140.0</ele><time>2026-04-03T12:54:39Z</time></trkpt><trkpt lat="38.9683601026822" lon="-9.29600227082853"><ele>140.0</ele><time>2026-04-03T12:54:40Z</time></trkpt><trkpt lat="38.96824414561649" lon="-9.29614631028354"><ele>140.0</ele><time>2026-04-03T12:54:41Z</time></trkpt><trkpt lat="38.96816206248387" lon="-9.296315874388716"><ele>138.25</ele><time>2026-04-03T12:54:42Z</time></trkpt><trkpt lat="38.96809110081679" lon="-9.296478268156752"><ele>136.5</ele><time>2026-04-03T12:54:43Z</time></trkpt><trkpt lat="38.96801377148651" lon="-9.296611666310397"><ele>134.75</ele><time>2026-04-03T12:54:44Z</time></trkpt><trkpt lat="38.967962694036025" lon="-9.29674771218591"><ele>133.0</ele><time>2026-04-03T12:54:45Z</time></trkpt><trkpt lat="38.96787119531004" lon="-9.296860310964094"><ele>133.0</ele><time>2026-04-03T12:54:46Z</time></trkpt><trkpt lat="38.96775039374464" lon="-9.296937620149212"><ele>133.0</ele><time>2026-04-03T12:54:47Z</time></trkpt><trkpt lat="38.96760499891108" lon="-9.296985682384406"><ele>133.0</ele><time>2026-04-03T12:54:48Z</time></trkpt><trkpt lat="38.96744816411613" lon="-9.297025931076789"><ele>133.0</ele><time>2026-04-03T12:54:49Z</time></trkpt><trkpt lat="38.967288183877045" lon="-9.297077018962662"><ele>133.33333333333334</ele><time>2026-04-03T12:54:50Z</time></trkpt><trkpt lat="38.96713604375893" lon="-9.297143991982008"><ele>133.66666666666666</ele><time>2026-04-03T12:54:51Z</time></trkpt><trkpt lat="38.96703053948878" lon="-9.297280514530017"><ele>134.0</ele><time>2026-04-03T12:54:52Z</time></trkpt><trkpt lat="38.96692587280769" lon="-9.297433468461747"><ele>134.0</ele><time>2026-04-03T12:54:53Z</time></trkpt><trkpt lat="38.96682276591337" lon="-9.297566836867636"><ele>134.0</ele><time>2026-04-03T12:54:54Z</time></trkpt><trkpt lat="38.96669511511242" lon="-9.297648805879284"><ele>134.0</ele><time>2026-04-03T12:54:55Z</time></trkpt><trkpt lat="38.966548919511645" lon="-9.297675470047944"><ele>134.0</ele><time>2026-04-03T12:54:56Z</time></trkpt><trkpt lat="38.96641437132527" lon="-9.29769058971266"><ele>130.25</ele><time>2026-04-03T12:54:57Z</time></trkpt><trkpt lat="38.96628278491655" lon="-9.297730329790811"><ele>126.5</ele><time>2026-04-03T12:54:58Z</time></trkpt><trkpt lat="38.96616778271578" lon="-9.297798203378777"><ele>122.75</ele><time>2026-04-03T12:54:59Z</time></trkpt><trkpt lat="38.96607579599077" lon="-9.297918840698447"><ele>119.0</ele><time>2026-04-03T12:55:00Z</time></trkpt><trkpt lat="38.966001445922714" lon="-9.29806390878558"><ele>118.0</ele><time>2026-04-03T12:55:01Z</time></trkpt><trkpt lat="38.96590983755437" lon="-9.29821099672242"><ele>117.0</ele><time>2026-04-03T12:55:02Z</time></trkpt><trkpt lat="38.96579788299951" lon="-9.298328406827338"><ele>116.0</ele><time>2026-04-03T12:55:03Z</time></trkpt><trkpt lat="38.965681948332275" lon="-9.298464719516028"><ele>115.0</ele><time>2026-04-03T12:55:04Z</time></trkpt><trkpt lat="38.965545341102235" lon="-9.29859349889034"><ele>115.0</ele><time>2026-04-03T12:55:05Z</time></trkpt><trkpt lat="38.96542196614804" lon="-9.298714657316221"><ele>115.0</ele><time>2026-04-03T12:55:06Z</time></trkpt><trkpt lat="38.96530901132174" lon="-9.298826475807978"><ele>115.0</ele><time>2026-04-03T12:55:07Z</time></trkpt><trkpt lat="38.9651829434298" lon="-9.298944479479418"><ele>113.25</ele><time>2026-04-03T12:55:08Z</time></trkpt><trkpt lat="38.96506271211766" lon="-9.299061148690457"><ele>111.5</ele><time>2026-04-03T12:55:09Z</time></trkpt><trkpt lat="38.96494356968466" lon="-9.299169843438094"><ele>109.75</ele><time>2026-04-03T12:55:10Z</time></trkpt><trkpt lat="38.96482818426644" lon="-9.299284949404765"><ele>108.0</ele><time>2026-04-03T12:55:11Z</time></trkpt><trkpt lat="38.96473116920986" lon="-9.299415850644259"><ele>108.0</ele><time>2026-04-03T12:55:12Z</time></trkpt><trkpt lat="38.96464207040544" lon="-9.299559348347278"><ele>108.0</ele><time>2026-04-03T12:55:13Z</time></trkpt><trkpt lat="38.96456180020371" lon="-9.299714740642452"><ele>108.0</ele><time>2026-04-03T12:55:14Z</time></trkpt><trkpt lat="38.96449736114542" lon="-9.299867633077001"><ele>108.0</ele><time>2026-04-03T12:55:15Z</time></trkpt><trkpt lat="38.964459750514116" lon="-9.300024795372762"><ele>109.0</ele><time>2026-04-03T12:55:16Z</time></trkpt><trkpt lat="38.96444944702636" lon="-9.30018964364862"><ele>110.0</ele><time>2026-04-03T12:55:17Z</time></trkpt><trkpt lat="38.96444446788332" lon="-9.300364980773326"><ele>111.0</ele><time>2026-04-03T12:55:18Z</time></trkpt><trkpt lat="38.9644314867213" lon="-9.300516688893884"><ele>112.0</ele><time>2026-04-03T12:55:19Z</time></trkpt><trkpt lat="38.96442817269813" lon="-9.300651061902052"><ele>112.19999999999999</ele><time>2026-04-03T12:55:20Z</time></trkpt><trkpt lat="38.964397290036345" lon="-9.300765491554815"><ele>112.39999999999999</ele><time>2026-04-03T12:55:21Z</time></trkpt><trkpt lat="38.96436756812552" lon="-9.30087610703286"><ele>112.60000000000001</ele><time>2026-04-03T12:55:22Z</time></trkpt><trkpt lat="38.964351835767445" lon="-9.300999602939191"><ele>112.80000000000001</ele><time>2026-04-03T12:55:23Z</time></trkpt><trkpt lat="38.964379851486036" lon="-9.301143693713065"><ele>113.0</ele><time>2026-04-03T12:55:24Z</time></trkpt><trkpt lat="38.96441686256638" lon="-9.301317046386702"><ele>110.33333333333333</ele><time>2026-04-03T12:55:25Z</time></trkpt><trkpt lat="38.96445788710779" lon="-9.301503563038684"><ele>107.66666666666666</ele><time>2026-04-03T12:55:26Z</time></trkpt><trkpt lat="38.964511720228124" lon="-9.301691752590619"><ele>105.0</ele><time>2026-04-03T12:55:27Z</time></trkpt><trkpt lat="38.96456917220003" lon="-9.30189521682843"><ele>105.0</ele><time>2026-04-03T12:55:28Z</time></trkpt><trkpt lat="38.96462398218704" lon="-9.302099356637"><ele>105.0</ele><time>2026-04-03T12:55:29Z</time></trkpt><trkpt lat="38.96468305792532" lon="-9.302263724957145"><ele>105.0</ele><time>2026-04-03T12:55:30Z</time></trkpt><trkpt lat="38.9647226274432" lon="-9.30240597911401"><ele>105.0</ele><time>2026-04-03T12:55:31Z</time></trkpt><trkpt lat="38.96475201367926" lon="-9.302512022615762"><ele>103.66666666666667</ele><time>2026-04-03T12:55:32Z</time></trkpt><trkpt lat="38.96477298084686" lon="-9.302598727760873"><ele>102.33333333333334</ele><time>2026-04-03T12:55:33Z</time></trkpt><trkpt lat="38.96479910229356" lon="-9.302723585820479"><ele>101.0</ele><time>2026-04-03T12:55:35Z</time></trkpt><trkpt lat="38.964824043293284" lon="-9.302850954003194"><ele>99.66666666666667</ele><time>2026-04-03T12:55:37Z</time></trkpt><trkpt lat="38.96482615802023" lon="-9.302932824020123"><ele>98.33333333333334</ele><time>2026-04-03T12:55:38Z</time></trkpt><trkpt lat="38.9648191723912" lon="-9.303015667776197"><ele>97.0</ele><time>2026-04-03T12:55:39Z</time></trkpt><trkpt lat="38.96481449619775" lon="-9.303103297937602"><ele>95.6</ele><time>2026-04-03T12:55:40Z</time></trkpt><trkpt lat="38.96481226825092" lon="-9.303208040058662"><ele>94.19999999999999</ele><time>2026-04-03T12:55:41Z</time></trkpt><trkpt lat="38.96480397925306" lon="-9.303327107880085"><ele>92.8</ele><time>2026-04-03T12:55:42Z</time></trkpt><trkpt lat="38.96480051980126" lon="-9.303457346466681"><ele>91.4</ele><time>2026-04-03T12:55:43Z</time></trkpt><trkpt lat="38.96479177627281" lon="-9.303586926369144"><ele>90.0</ele><time>2026-04-03T12:55:44Z</time></trkpt><trkpt lat="38.96479577312609" lon="-9.303752539946194"><ele>90.25</ele><time>2026-04-03T12:55:45Z</time></trkpt><trkpt lat="38.964804125005415" lon="-9.303919866837157"><ele>90.5</ele><time>2026-04-03T12:55:46Z</time></trkpt><trkpt lat="38.964837697048836" lon="-9.304103822413438"><ele>90.75</ele><time>2026-04-03T12:55:47Z</time></trkpt><trkpt lat="38.964871815429994" lon="-9.304285461654974"><ele>91.0</ele><time>2026-04-03T12:55:48Z</time></trkpt><trkpt lat="38.96490693662405" lon="-9.304486963926756"><ele>91.0</ele><time>2026-04-03T12:55:49Z</time></trkpt><trkpt lat="38.964912394381464" lon="-9.304682951793263"><ele>91.0</ele><time>2026-04-03T12:55:50Z</time></trkpt><trkpt lat="38.96491889500269" lon="-9.304886615954132"><ele>91.0</ele><time>2026-04-03T12:55:51Z</time></trkpt><trkpt lat="38.96492011098391" lon="-9.305075328411293"><ele>91.25</ele><time>2026-04-03T12:55:52Z</time></trkpt><trkpt lat="38.96491381702786" lon="-9.305245074085294"><ele>91.5</ele><time>2026-04-03T12:55:53Z</time></trkpt><trkpt lat="38.9648980030453" lon="-9.305422183302012"><ele>91.75</ele><time>2026-04-03T12:55:54Z</time></trkpt><trkpt lat="38.964892115322584" lon="-9.305600103085993"><ele>92.0</ele><time>2026-04-03T12:55:55Z</time></trkpt><trkpt lat="38.964902544056585" lon="-9.305781325371832"><ele>91.5</ele><time>2026-04-03T12:55:56Z</time></trkpt><trkpt lat="38.964947143644295" lon="-9.305960860299068"><ele>91.0</ele><time>2026-04-03T12:55:57Z</time></trkpt><trkpt lat="38.965007226415835" lon="-9.306122637709294"><ele>90.5</ele><time>2026-04-03T12:55:58Z</time></trkpt><trkpt lat="38.96509143144292" lon="-9.30627716699149"><ele>90.0</ele><time>2026-04-03T12:55:59Z</time></trkpt><trkpt lat="38.96517814727049" lon="-9.306433824550576"><ele>89.5</ele><time>2026-04-03T12:56:00Z</time></trkpt><trkpt lat="38.96525026184515" lon="-9.306569215026538"><ele>89.0</ele><time>2026-04-03T12:56:01Z</time></trkpt><trkpt lat="38.965301505891595" lon="-9.30671681742164"><ele>88.5</ele><time>2026-04-03T12:56:02Z</time></trkpt><trkpt lat="38.965361285068624" lon="-9.306858510035461"><ele>88.0</ele><time>2026-04-03T12:56:03Z</time></trkpt><trkpt lat="38.965397053238405" lon="-9.30702008837135"><ele>88.0</ele><time>2026-04-03T12:56:04Z</time></trkpt><trkpt lat="38.965427115508135" lon="-9.307192561239466"><ele>88.0</ele><time>2026-04-03T12:56:05Z</time></trkpt><trkpt lat="38.96546069690872" lon="-9.307369122018672"><ele>88.0</ele><time>2026-04-03T12:56:06Z</time></trkpt><trkpt lat="38.96548850633232" lon="-9.307546954893011"><ele>88.0</ele><time>2026-04-03T12:56:07Z</time></trkpt><trkpt lat="38.96551203038719" lon="-9.307738335090319"><ele>89.25</ele><time>2026-04-03T12:56:08Z</time></trkpt><trkpt lat="38.9655401196113" lon="-9.307918064371208"><ele>90.5</ele><time>2026-04-03T12:56:09Z</time></trkpt><trkpt lat="38.96556314010941" lon="-9.308085735113726"><ele>91.75</ele><time>2026-04-03T12:56:10Z</time></trkpt><trkpt lat="38.965583117220035" lon="-9.308230481670943"><ele>93.0</ele><time>2026-04-03T12:56:11Z</time></trkpt><trkpt lat="38.96558787364862" lon="-9.308373983065254"><ele>93.5</ele><time>2026-04-03T12:56:12Z</time></trkpt><trkpt lat="38.96555322731084" lon="-9.308502682278469"><ele>94.0</ele><time>2026-04-03T12:56:13Z</time></trkpt><trkpt lat="38.965467845549085" lon="-9.308609119858094"><ele>94.5</ele><time>2026-04-03T12:56:14Z</time></trkpt><trkpt lat="38.96537068069991" lon="-9.308715247385422"><ele>95.0</ele><time>2026-04-03T12:56:15Z</time></trkpt><trkpt lat="38.96524590930925" lon="-9.308802801650462"><ele>95.0</ele><time>2026-04-03T12:56:16Z</time></trkpt><trkpt lat="38.965118140463716" lon="-9.308892922528786"><ele>95.0</ele><time>2026-04-03T12:56:17Z</time></trkpt><trkpt lat="38.96497101056966" lon="-9.308949886919839"><ele>95.0</ele><time>2026-04-03T12:56:18Z</time></trkpt><trkpt lat="38.96482001373952" lon="-9.308989386977453"><ele>96.66666666666667</ele><time>2026-04-03T12:56:19Z</time></trkpt><trkpt lat="38.96466142526175" lon="-9.30902797382629"><ele>98.33333333333334</ele><time>2026-04-03T12:56:20Z</time></trkpt><trkpt lat="38.96449945234935" lon="-9.309062492325031"><ele>100.0</ele><time>2026-04-03T12:56:21Z</time></trkpt><trkpt lat="38.964330612255196" lon="-9.309105996943485"><ele>103.66666666666667</ele><time>2026-04-03T12:56:22Z</time></trkpt><trkpt lat="38.96415843363468" lon="-9.30913854391602"><ele>107.33333333333334</ele><time>2026-04-03T12:56:23Z</time></trkpt><trkpt lat="38.96400546234842" lon="-9.30918021175848"><ele>111.0</ele><time>2026-04-03T12:56:24Z</time></trkpt><trkpt lat="38.96387976771329" lon="-9.3092742850987"><ele>111.0</ele><time>2026-04-03T12:56:25Z</time></trkpt><trkpt lat="38.96375861043442" lon="-9.309386066303768"><ele>111.0</ele><time>2026-04-03T12:56:26Z</time></trkpt><trkpt lat="38.96364244918422" lon="-9.309492323756118"><ele>111.0</ele><time>2026-04-03T12:56:27Z</time></trkpt><trkpt lat="38.96353766498527" lon="-9.309588173989455"><ele>111.0</ele><time>2026-04-03T12:56:28Z</time></trkpt><trkpt lat="38.9634370035562" lon="-9.309663360123032"><ele>110.0</ele><time>2026-04-03T12:56:29Z</time></trkpt><trkpt lat="38.96336307226934" lon="-9.309733646236912"><ele>109.0</ele><time>2026-04-03T12:56:30Z</time></trkpt><trkpt lat="38.963271850946356" lon="-9.309751566426227"><ele>108.0</ele><time>2026-04-03T12:56:31Z</time></trkpt><trkpt lat="38.96316372950639" lon="-9.309733391232921"><ele>107.0</ele><time>2026-04-03T12:56:32Z</time></trkpt><trkpt lat="38.963048678783125" lon="-9.309686110781213"><ele>106.0</ele><time>2026-04-03T12:56:33Z</time></trkpt><trkpt lat="38.96292776263577" lon="-9.309626658947408"><ele>109.0</ele><time>2026-04-03T12:56:34Z</time></trkpt><trkpt lat="38.96280433089278" lon="-9.309568661981555"><ele>112.0</ele><time>2026-04-03T12:56:35Z</time></trkpt><trkpt lat="38.96269146537295" lon="-9.309513910927377"><ele>115.0</ele><time>2026-04-03T12:56:36Z</time></trkpt><trkpt lat="38.962596352254174" lon="-9.309418298736414"><ele>118.0</ele><time>2026-04-03T12:56:37Z</time></trkpt><trkpt lat="38.96252613148006" lon="-9.309273346828355"><ele>118.0</ele><time>2026-04-03T12:56:38Z</time></trkpt><trkpt lat="38.96245059679102" lon="-9.309122595434088"><ele>118.00000000000001</ele><time>2026-04-03T12:56:39Z</time></trkpt><trkpt lat="38.96236984989174" lon="-9.308994235014087"><ele>118.00000000000001</ele><time>2026-04-03T12:56:40Z</time></trkpt><trkpt lat="38.962290095337984" lon="-9.308919852547795"><ele>118.0</ele><time>2026-04-03T12:56:41Z</time></trkpt><trkpt lat="38.962230757930534" lon="-9.308873162640204"><ele>118.0</ele><time>2026-04-03T12:56:42Z</time></trkpt><trkpt lat="38.962162991331965" lon="-9.30887986798003"><ele>118.00000000000001</ele><time>2026-04-03T12:56:43Z</time></trkpt><trkpt lat="38.96210214483272" lon="-9.308945535505437"><ele>118.0</ele><time>2026-04-03T12:56:44Z</time></trkpt><trkpt lat="38.96202976587246" lon="-9.309001741388057"><ele>118.0</ele><time>2026-04-03T12:56:45Z</time></trkpt><trkpt lat="38.96198633078412" lon="-9.309065867465765"><ele>118.0</ele><time>2026-04-03T12:56:51Z</time></trkpt><trkpt lat="38.96195703228559" lon="-9.309193483443925"><ele>118.00000000000001</ele><time>2026-04-03T12:56:56Z</time></trkpt><trkpt lat="38.961975539333174" lon="-9.309299306282416"><ele>118.0</ele><time>2026-04-03T12:56:58Z</time></trkpt><trkpt lat="38.9620233433131" lon="-9.309385954753354"><ele>118.00000000000001</ele><time>2026-04-03T12:57:00Z</time></trkpt><trkpt lat="38.96208887425905" lon="-9.309414017627054"><ele>118.0</ele><time>2026-04-03T12:57:02Z</time></trkpt><trkpt lat="38.9621382259724" lon="-9.309488952774679"><ele>118.0</ele><time>2026-04-03T12:57:03Z</time></trkpt><trkpt lat="38.9621808383067" lon="-9.309551630700398"><ele>118.0</ele><time>2026-04-03T12:57:04Z</time></trkpt><trkpt lat="38.96222761877182" lon="-9.30962814027001"><ele>118.00000000000001</ele><time>2026-04-03T12:57:05Z</time></trkpt><trkpt lat="38.96226889575549" lon="-9.309711991850508"><ele>118.0</ele><time>2026-04-03T12:57:06Z</time></trkpt><trkpt lat="38.96231241034336" lon="-9.309809884079876"><ele>117.0</ele><time>2026-04-03T12:57:07Z</time></trkpt><trkpt lat="38.96235856462081" lon="-9.309957846089524"><ele>116.0</ele><time>2026-04-03T12:57:09Z</time></trkpt><trkpt lat="38.96238883884747" lon="-9.310082787164573"><ele>115.0</ele><time>2026-04-03T12:57:11Z</time></trkpt><trkpt lat="38.961887633348454" lon="-9.310290707814136"><ele>115.0</ele><time>2026-04-03T12:57:13Z</time></trkpt><trkpt lat="38.96181657097309" lon="-9.310316799209353"><ele>115.0</ele><time>2026-04-03T12:57:14Z</time></trkpt><trkpt lat="38.961723283436676" lon="-9.310399173199798"><ele>115.0</ele><time>2026-04-03T12:57:16Z</time></trkpt><trkpt lat="38.96162627476915" lon="-9.310495689924378"><ele>115.0</ele><time>2026-04-03T12:57:18Z</time></trkpt><trkpt lat="38.961534102410084" lon="-9.310576689231075"><ele>115.0</ele><time>2026-04-03T12:57:20Z</time></trkpt><trkpt lat="38.96147708864989" lon="-9.310679122690686"><ele>121.8</ele><time>2026-04-03T12:57:22Z</time></trkpt><trkpt lat="38.96147670582624" lon="-9.310816412817392"><ele>128.6</ele><time>2026-04-03T12:57:24Z</time></trkpt><trkpt lat="38.96146085309473" lon="-9.310895550902012"><ele>135.4</ele><time>2026-04-03T12:57:25Z</time></trkpt><trkpt lat="38.961429670201326" lon="-9.311047004552696"><ele>142.2</ele><time>2026-04-03T12:57:27Z</time></trkpt><trkpt lat="38.961382927248295" lon="-9.311194942321087"><ele>149.0</ele><time>2026-04-03T12:57:29Z</time></trkpt><trkpt lat="38.96135298045572" lon="-9.311351450311632"><ele>150.14285714285714</ele><time>2026-04-03T12:57:31Z</time></trkpt><trkpt lat="38.9613282199666" lon="-9.311428511010204"><ele>151.28571428571428</ele><time>2026-04-03T12:57:33Z</time></trkpt><trkpt lat="38.96129125418972" lon="-9.311532567344292"><ele>152.42857142857142</ele><time>2026-04-03T12:57:36Z</time></trkpt><trkpt lat="38.961245315176676" lon="-9.311594296532228"><ele>153.57142857142856</ele><time>2026-04-03T12:57:38Z</time></trkpt><trkpt lat="38.961176482355725" lon="-9.311635287818241"><ele>154.71428571428572</ele><time>2026-04-03T12:57:40Z</time></trkpt><trkpt lat="38.961109193462434" lon="-9.31168566521043"><ele>155.85714285714283</ele><time>2026-04-03T12:57:42Z</time></trkpt><trkpt lat="38.96105105267813" lon="-9.311736121351284"><ele>157.0</ele><time>2026-04-03T12:57:44Z</time></trkpt><trkpt lat="38.96099803048725" lon="-9.311782485943384"><ele>157.0</ele><time>2026-04-03T12:57:46Z</time></trkpt><trkpt lat="38.96093098057342" lon="-9.311845418101917"><ele>157.0</ele><time>2026-04-03T12:57:48Z</time></trkpt><trkpt lat="38.960888917803956" lon="-9.311943507082336"><ele>157.0</ele><time>2026-04-03T12:57:50Z</time></trkpt><trkpt lat="38.9608329013292" lon="-9.312050782220444"><ele>157.0</ele><time>2026-04-03T12:57:52Z</time></trkpt><trkpt lat="38.96077860738808" lon="-9.312104482292034"><ele>157.0</ele><time>2026-04-03T12:57:53Z</time></trkpt><trkpt lat="38.96070340631547" lon="-9.312135629901542"><ele>157.0</ele><time>2026-04-03T12:57:55Z</time></trkpt><trkpt lat="38.96063386125998" lon="-9.312200793290366"><ele>159.66666666666669</ele><time>2026-04-03T12:58:44Z</time></trkpt><trkpt lat="38.96055969759581" lon="-9.312209888480355"><ele>162.33333333333334</ele><time>2026-04-03T13:00:36Z</time></trkpt><trkpt lat="38.96063301531481" lon="-9.312184927615666"><ele>165.0</ele><time>2026-04-03T13:00:49Z</time></trkpt><trkpt lat="38.96068766170204" lon="-9.312138448640509"><ele>167.66666666666666</ele><time>2026-04-03T13:01:11Z</time></trkpt><trkpt lat="38.960618127131134" lon="-9.312222594607286"><ele>170.33333333333331</ele><time>2026-04-03T13:01:41Z</time></trkpt><trkpt lat="38.96057201935163" lon="-9.312163396710888"><ele>173.0</ele><time>2026-04-03T13:02:35Z</time></trkpt><trkpt lat="38.96060996283077" lon="-9.312252496298628"><ele>173.0</ele><time>2026-04-03T13:02:45Z</time></trkpt><trkpt lat="38.96056593924541" lon="-9.312180210521847"><ele>173.0</ele><time>2026-04-03T13:03:21Z</time></trkpt><trkpt lat="38.9605133358049" lon="-9.312236784010112"><ele>173.0</ele><time>2026-04-03T13:09:36.999Z</time></trkpt><trkpt lat="38.96044975038043" lon="-9.31225040383086"><ele>173.0</ele><time>2026-04-03T13:09:38.999Z</time></trkpt><trkpt lat="38.960367355930586" lon="-9.312261287932161"><ele>173.0</ele><time>2026-04-03T13:09:41.999Z</time></trkpt><trkpt lat="38.96028869604546" lon="-9.312261091973511"><ele>173.0</ele><time>2026-04-03T13:09:43.999Z</time></trkpt><trkpt lat="38.96019643522592" lon="-9.312263306679904"><ele>173.83333333333331</ele><time>2026-04-03T13:09:46.999Z</time></trkpt><trkpt lat="38.960120240829134" lon="-9.312267359402712"><ele>174.66666666666666</ele><time>2026-04-03T13:09:48.999Z</time></trkpt><trkpt lat="38.96002685686768" lon="-9.312273406373333"><ele>175.5</ele><time>2026-04-03T13:09:52.999Z</time></trkpt><trkpt lat="38.95994370404916" lon="-9.312285892357766"><ele>176.33333333333334</ele><time>2026-04-03T13:09:54.999Z</time></trkpt><trkpt lat="38.959850960656105" lon="-9.312307017096344"><ele>177.16666666666669</ele><time>2026-04-03T13:09:56.999Z</time></trkpt><trkpt lat="38.95977030278176" lon="-9.312327925602238"><ele>178.0</ele><time>2026-04-03T13:09:58.999Z</time></trkpt><trkpt lat="38.959687683128266" lon="-9.312339494590864"><ele>178.66666666666669</ele><time>2026-04-03T13:10:00.999Z</time></trkpt><trkpt lat="38.95961613932718" lon="-9.312388412411106"><ele>179.33333333333334</ele><time>2026-04-03T13:10:02.999Z</time></trkpt><trkpt lat="38.9595621382371" lon="-9.312449265958417"><ele>180.0</ele><time>2026-04-03T13:10:04.999Z</time></trkpt><trkpt lat="38.95951698008619" lon="-9.31251275836779"><ele>180.66666666666666</ele><time>2026-04-03T13:10:07Z</time></trkpt><trkpt lat="38.959435330628956" lon="-9.312552827937067"><ele>181.33333333333331</ele><time>2026-04-03T13:10:09Z</time></trkpt><trkpt lat="38.959353672512336" lon="-9.312639741900758"><ele>182.0</ele><time>2026-04-03T13:10:11Z</time></trkpt><trkpt lat="38.95927650958741" lon="-9.312706057411997"><ele>186.5</ele><time>2026-04-03T13:10:13Z</time></trkpt><trkpt lat="38.9591978255098" lon="-9.312783883609404"><ele>191.0</ele><time>2026-04-03T13:10:15Z</time></trkpt><trkpt lat="38.95911629272429" lon="-9.312846238934489"><ele>195.5</ele><time>2026-04-03T13:10:17Z</time></trkpt><trkpt lat="38.9590407882203" lon="-9.312913806278138"><ele>200.0</ele><time>2026-04-03T13:10:19Z</time></trkpt><trkpt lat="38.958963189774614" lon="-9.312962805365235"><ele>204.50000000000003</ele><time>2026-04-03T13:10:21Z</time></trkpt><trkpt lat="38.9589027576533" lon="-9.313010958886077"><ele>209.0</ele><time>2026-04-03T13:10:23Z</time></trkpt><trkpt lat="38.95883658036615" lon="-9.31306381999267"><ele>208.39999999999998</ele><time>2026-04-03T13:10:25Z</time></trkpt><trkpt lat="38.95876123347261" lon="-9.313134673837368"><ele>207.8</ele><time>2026-04-03T13:10:27Z</time></trkpt><trkpt lat="38.95868496870911" lon="-9.313193410630316"><ele>207.2</ele><time>2026-04-03T13:10:30Z</time></trkpt><trkpt lat="38.95857204558265" lon="-9.313227159330255"><ele>206.60000000000002</ele><time>2026-04-03T13:10:32Z</time></trkpt><trkpt lat="38.9585052655912" lon="-9.31323267112453"><ele>206.0</ele><time>2026-04-03T13:10:33Z</time></trkpt><trkpt lat="38.95839660288862" lon="-9.313208982711615"><ele>206.66666666666669</ele><time>2026-04-03T13:10:35Z</time></trkpt><trkpt lat="38.958278629982786" lon="-9.313179424329807"><ele>207.33333333333334</ele><time>2026-04-03T13:10:37Z</time></trkpt><trkpt lat="38.95821381936718" lon="-9.313158563617005"><ele>208.0</ele><time>2026-04-03T13:10:38Z</time></trkpt><trkpt lat="38.95815195535263" lon="-9.313141351298807"><ele>208.66666666666669</ele><time>2026-04-03T13:10:39Z</time></trkpt><trkpt lat="38.958054031606096" lon="-9.313129303439798"><ele>209.33333333333334</ele><time>2026-04-03T13:10:41Z</time></trkpt><trkpt lat="38.95796700160079" lon="-9.313117703322563"><ele>210.0</ele><time>2026-04-03T13:10:43Z</time></trkpt><trkpt lat="38.95787987782664" lon="-9.313100477094345"><ele>210.0</ele><time>2026-04-03T13:10:45Z</time></trkpt><trkpt lat="38.95777609080893" lon="-9.31310495089545"><ele>210.0</ele><time>2026-04-03T13:10:46.999Z</time></trkpt><trkpt lat="38.957691482206194" lon="-9.313094407195136"><ele>210.0</ele><time>2026-04-03T13:10:48.999Z</time></trkpt><trkpt lat="38.95759075598724" lon="-9.313101231823618"><ele>210.0</ele><time>2026-04-03T13:10:50.999Z</time></trkpt><trkpt lat="38.957512962453215" lon="-9.313215650623528"><ele>210.0</ele><time>2026-04-03T13:10:52.999Z</time></trkpt><trkpt lat="38.95744598738729" lon="-9.313380439620255"><ele>212.16666666666666</ele><time>2026-04-03T13:10:54.999Z</time></trkpt><trkpt lat="38.95740153990873" lon="-9.313476083167817"><ele>214.33333333333331</ele><time>2026-04-03T13:10:55.999Z</time></trkpt><trkpt lat="38.95736030545611" lon="-9.31356727314954"><ele>216.5</ele><time>2026-04-03T13:10:57Z</time></trkpt><trkpt lat="38.957307497695936" lon="-9.313667898914604"><ele>218.66666666666666</ele><time>2026-04-03T13:10:58Z</time></trkpt><trkpt lat="38.95726085312287" lon="-9.313735033125486"><ele>220.83333333333331</ele><time>2026-04-03T13:10:59Z</time></trkpt><trkpt lat="38.95723166035409" lon="-9.313820760820944"><ele>223.0</ele><time>2026-04-03T13:11:00Z</time></trkpt><trkpt lat="38.957174688756446" lon="-9.313901599195846"><ele>225.0</ele><time>2026-04-03T13:11:01Z</time></trkpt><trkpt lat="38.95707073784631" lon="-9.31395053555077"><ele>227.0</ele><time>2026-04-03T13:11:02Z</time></trkpt><trkpt lat="38.95695570204884" lon="-9.313981113687769"><ele>229.0</ele><time>2026-04-03T13:11:03Z</time></trkpt><trkpt lat="38.95683965022484" lon="-9.31399601339647"><ele>231.0</ele><time>2026-04-03T13:11:04Z</time></trkpt><trkpt lat="38.95671712710537" lon="-9.313991918741756"><ele>232.16666666666666</ele><time>2026-04-03T13:11:05Z</time></trkpt><trkpt lat="38.95663725787018" lon="-9.313991100255222"><ele>233.33333333333331</ele><time>2026-04-03T13:11:06Z</time></trkpt><trkpt lat="38.956569733243725" lon="-9.31400469858497"><ele>234.5</ele><time>2026-04-03T13:11:07Z</time></trkpt><trkpt lat="38.956482354855076" lon="-9.3140215339778"><ele>235.66666666666666</ele><time>2026-04-03T13:11:08Z</time></trkpt><trkpt lat="38.95639462666781" lon="-9.314028794551453"><ele>236.83333333333331</ele><time>2026-04-03T13:11:09Z</time></trkpt><trkpt lat="38.95631540653925" lon="-9.314018624155239"><ele>238.0</ele><time>2026-04-03T13:11:10.001Z</time></trkpt><trkpt lat="38.956225661082364" lon="-9.314055906129813"><ele>238.0</ele><time>2026-04-03T13:11:12.001Z</time></trkpt><trkpt lat="38.956000552159395" lon="-9.314306894062826"><ele>238.0</ele><time>2026-04-03T13:11:16.001Z</time></trkpt><trkpt lat="38.9559393141726" lon="-9.314279327806224"><ele>238.0</ele><time>2026-04-03T13:11:17.001Z</time></trkpt><trkpt lat="38.95586352814177" lon="-9.314245910325594"><ele>238.0</ele><time>2026-04-03T13:11:18.001Z</time></trkpt><trkpt lat="38.95578675055204" lon="-9.31421071777936"><ele>238.8</ele><time>2026-04-03T13:11:19.001Z</time></trkpt><trkpt lat="38.955703071854884" lon="-9.314166823136304"><ele>239.60000000000002</ele><time>2026-04-03T13:11:20.001Z</time></trkpt><trkpt lat="38.95561991947071" lon="-9.314102991465163"><ele>240.39999999999998</ele><time>2026-04-03T13:11:21.001Z</time></trkpt><trkpt lat="38.955553637542394" lon="-9.314056981545782"><ele>241.2</ele><time>2026-04-03T13:11:22.001Z</time></trkpt><trkpt lat="38.955430087213145" lon="-9.314039531038329"><ele>242.0</ele><time>2026-04-03T13:11:24.001Z</time></trkpt><trkpt lat="38.95534275310169" lon="-9.314037188319679"><ele>242.00000000000003</ele><time>2026-04-03T13:11:25.001Z</time></trkpt><trkpt lat="38.95524880951375" lon="-9.314017852377127"><ele>242.0</ele><time>2026-04-03T13:11:26.001Z</time></trkpt><trkpt lat="38.95516281385545" lon="-9.314022857493757"><ele>242.0</ele><time>2026-04-03T13:11:27.001Z</time></trkpt><trkpt lat="38.95508020756373" lon="-9.31402772921331"><ele>242.0</ele><time>2026-04-03T13:11:28.001Z</time></trkpt><trkpt lat="38.95500584980981" lon="-9.314033254005532"><ele>242.00000000000003</ele><time>2026-04-03T13:11:29.001Z</time></trkpt><trkpt lat="38.95493885587351" lon="-9.314033044810854"><ele>242.0</ele><time>2026-04-03T13:11:30.001Z</time></trkpt><trkpt lat="38.954823362654196" lon="-9.314056757450473"><ele>241.2</ele><time>2026-04-03T13:11:32.001Z</time></trkpt><trkpt lat="38.95476119938445" lon="-9.314079930470596"><ele>240.39999999999998</ele><time>2026-04-03T13:11:33.001Z</time></trkpt><trkpt lat="38.954686127919516" lon="-9.314116044190285"><ele>239.60000000000002</ele><time>2026-04-03T13:11:34.001Z</time></trkpt><trkpt lat="38.95458293049319" lon="-9.314265028970572"><ele>238.8</ele><time>2026-04-03T13:11:36.001Z</time></trkpt><trkpt lat="38.95453016317132" lon="-9.31431635475412"><ele>238.0</ele><time>2026-04-03T13:11:37.001Z</time></trkpt><trkpt lat="38.95446658204687" lon="-9.314389474380087"><ele>237.99999999999997</ele><time>2026-04-03T13:11:38.001Z</time></trkpt><trkpt lat="38.95439528325905" lon="-9.314460203563986"><ele>238.0</ele><time>2026-04-03T13:11:39.001Z</time></trkpt><trkpt lat="38.954332996855236" lon="-9.314545370741687"><ele>238.0</ele><time>2026-04-03T13:11:40.001Z</time></trkpt><trkpt lat="38.95426276047807" lon="-9.31461459863941"><ele>238.0</ele><time>2026-04-03T13:11:41.001Z</time></trkpt><trkpt lat="38.95418899648453" lon="-9.314680053953905"><ele>237.99999999999997</ele><time>2026-04-03T13:11:42.001Z</time></trkpt><trkpt lat="38.95412680042978" lon="-9.31474978920362"><ele>238.0</ele><time>2026-04-03T13:11:43.001Z</time></trkpt><trkpt lat="38.954067261184036" lon="-9.314817529658034"><ele>237.16666666666666</ele><time>2026-04-03T13:11:44.001Z</time></trkpt><trkpt lat="38.95400424922157" lon="-9.314885372162474"><ele>236.33333333333331</ele><time>2026-04-03T13:11:45.001Z</time></trkpt><trkpt lat="38.95394157790791" lon="-9.314956473348209"><ele>235.5</ele><time>2026-04-03T13:11:46.001Z</time></trkpt><trkpt lat="38.953879393993105" lon="-9.315028836760066"><ele>234.66666666666669</ele><time>2026-04-03T13:11:47.001Z</time></trkpt><trkpt lat="38.95381326760659" lon="-9.315092339736426"><ele>233.83333333333334</ele><time>2026-04-03T13:11:48.001Z</time></trkpt><trkpt lat="38.95374849890241" lon="-9.315156469539303"><ele>233.0</ele><time>2026-04-03T13:11:49.001Z</time></trkpt><trkpt lat="38.95368400977993" lon="-9.315225104233287"><ele>233.00000000000003</ele><time>2026-04-03T13:11:50.001Z</time></trkpt><trkpt lat="38.95362435229239" lon="-9.315289007195368"><ele>233.0</ele><time>2026-04-03T13:11:51.001Z</time></trkpt><trkpt lat="38.95355702248942" lon="-9.315352610312104"><ele>233.0</ele><time>2026-04-03T13:11:52.001Z</time></trkpt><trkpt lat="38.953487294176135" lon="-9.31542055085089"><ele>233.0</ele><time>2026-04-03T13:11:53.001Z</time></trkpt><trkpt lat="38.95342238881823" lon="-9.315488719418726"><ele>233.00000000000003</ele><time>2026-04-03T13:11:54.001Z</time></trkpt><trkpt lat="38.953352814745315" lon="-9.315555629958086"><ele>233.0</ele><time>2026-04-03T13:11:55.001Z</time></trkpt><trkpt lat="38.95328789361225" lon="-9.315615812606696"><ele>233.16666666666669</ele><time>2026-04-03T13:11:56.001Z</time></trkpt><trkpt lat="38.953238973075415" lon="-9.315669898414434"><ele>233.33333333333334</ele><time>2026-04-03T13:11:57.001Z</time></trkpt><trkpt lat="38.953145070947166" lon="-9.315770225708697"><ele>233.5</ele><time>2026-04-03T13:11:59.001Z</time></trkpt><trkpt lat="38.95309194749557" lon="-9.315823312884376"><ele>233.66666666666669</ele><time>2026-04-03T13:12:00.001Z</time></trkpt><trkpt lat="38.95304071881117" lon="-9.315888391122606"><ele>233.83333333333334</ele><time>2026-04-03T13:12:01.001Z</time></trkpt><trkpt lat="38.95298446069695" lon="-9.315935570549744"><ele>234.0</ele><time>2026-04-03T13:12:02.001Z</time></trkpt><trkpt lat="38.95291718884599" lon="-9.316010952503524"><ele>234.0</ele><time>2026-04-03T13:12:03.001Z</time></trkpt><trkpt lat="38.952835680172875" lon="-9.316102218218447"><ele>233.99999999999997</ele><time>2026-04-03T13:12:04.001Z</time></trkpt><trkpt lat="38.952742341806015" lon="-9.316198740411421"><ele>233.99999999999997</ele><time>2026-04-03T13:12:05.001Z</time></trkpt><trkpt lat="38.95265791471416" lon="-9.316291845113783"><ele>234.0</ele><time>2026-04-03T13:12:06.001Z</time></trkpt><trkpt lat="38.95258513312365" lon="-9.316369801624488"><ele>234.0</ele><time>2026-04-03T13:12:07.001Z</time></trkpt><trkpt lat="38.95250974413588" lon="-9.316449939394849"><ele>233.5</ele><time>2026-04-03T13:12:08.001Z</time></trkpt><trkpt lat="38.95248846755961" lon="-9.316594930568979"><ele>233.0</ele><time>2026-04-03T13:12:09.001Z</time></trkpt><trkpt lat="38.952424418779295" lon="-9.31666591004019"><ele>232.5</ele><time>2026-04-03T13:12:10.001Z</time></trkpt><trkpt lat="38.952411715929045" lon="-9.31675290790153"><ele>232.0</ele><time>2026-04-03T13:12:11.001Z</time></trkpt><trkpt lat="38.95236389926173" lon="-9.316830100879617"><ele>231.5</ele><time>2026-04-03T13:12:12.001Z</time></trkpt><trkpt lat="38.95243665607684" lon="-9.316907567162895"><ele>231.0</ele><time>2026-04-03T13:12:13.001Z</time></trkpt><trkpt lat="38.95215620499392" lon="-9.316890325870462"><ele>231.0</ele><time>2026-04-03T13:12:14.001Z</time></trkpt><trkpt lat="38.9521220587868" lon="-9.316998189589262"><ele>231.0</ele><time>2026-04-03T13:12:15.001Z</time></trkpt><trkpt lat="38.95208888488228" lon="-9.317102000307528"><ele>231.0</ele><time>2026-04-03T13:12:16.001Z</time></trkpt><trkpt lat="38.95205318456077" lon="-9.317193058095981"><ele>231.0</ele><time>2026-04-03T13:12:17.001Z</time></trkpt><trkpt lat="38.95201685561349" lon="-9.317278627296279"><ele>231.0</ele><time>2026-04-03T13:12:18.001Z</time></trkpt><trkpt lat="38.95199198203811" lon="-9.317353536518588"><ele>231.0</ele><time>2026-04-03T13:12:19.001Z</time></trkpt><trkpt lat="38.951959656401215" lon="-9.317436869457758"><ele>229.33333333333334</ele><time>2026-04-03T13:12:20.001Z</time></trkpt><trkpt lat="38.95192810058012" lon="-9.317513670215146"><ele>227.66666666666669</ele><time>2026-04-03T13:12:21.001Z</time></trkpt><trkpt lat="38.95189880980453" lon="-9.31759217307129"><ele>226.0</ele><time>2026-04-03T13:12:22.001Z</time></trkpt><trkpt lat="38.95186591118649" lon="-9.317676430227774"><ele>224.33333333333334</ele><time>2026-04-03T13:12:23.001Z</time></trkpt><trkpt lat="38.951830840848785" lon="-9.317775357560942"><ele>222.66666666666669</ele><time>2026-04-03T13:12:24.001Z</time></trkpt><trkpt lat="38.95178987182577" lon="-9.317867990877845"><ele>221.0</ele><time>2026-04-03T13:12:25.001Z</time></trkpt><trkpt lat="38.95175693139557" lon="-9.31795533414874"><ele>221.00000000000003</ele><time>2026-04-03T13:12:26.001Z</time></trkpt><trkpt lat="38.95172809023183" lon="-9.318033658016603"><ele>221.0</ele><time>2026-04-03T13:12:27.001Z</time></trkpt><trkpt lat="38.95169805554746" lon="-9.31811011101608"><ele>221.0</ele><time>2026-04-03T13:12:28.001Z</time></trkpt><trkpt lat="38.95166424482156" lon="-9.318191685909747"><ele>221.0</ele><time>2026-04-03T13:12:29.001Z</time></trkpt><trkpt lat="38.95163100986449" lon="-9.318275952997194"><ele>221.0</ele><time>2026-04-03T13:12:30.001Z</time></trkpt><trkpt lat="38.951594910002996" lon="-9.318363074434467"><ele>221.00000000000003</ele><time>2026-04-03T13:12:31.001Z</time></trkpt><trkpt lat="38.95156317030383" lon="-9.318445601654066"><ele>221.0</ele><time>2026-04-03T13:12:32.001Z</time></trkpt><trkpt lat="38.95152662176624" lon="-9.318535082524864"><ele>219.00000000000003</ele><time>2026-04-03T13:12:33.001Z</time></trkpt><trkpt lat="38.95149134246958" lon="-9.318625766646743"><ele>217.0</ele><time>2026-04-03T13:12:34.001Z</time></trkpt><trkpt lat="38.951464083169455" lon="-9.31871236296581"><ele>215.0</ele><time>2026-04-03T13:12:35.001Z</time></trkpt><trkpt lat="38.95143175049791" lon="-9.318795871758047"><ele>213.0</ele><time>2026-04-03T13:12:36.001Z</time></trkpt><trkpt lat="38.951391630915886" lon="-9.318879885915967"><ele>211.00000000000003</ele><time>2026-04-03T13:12:37.001Z</time></trkpt><trkpt lat="38.95135802232797" lon="-9.318969713958653"><ele>209.0</ele><time>2026-04-03T13:12:38.001Z</time></trkpt><trkpt lat="38.95132243523807" lon="-9.319055279026262"><ele>207.71428571428572</ele><time>2026-04-03T13:12:39.001Z</time></trkpt><trkpt lat="38.95129160041213" lon="-9.319127802586351"><ele>206.42857142857142</ele><time>2026-04-03T13:12:40.001Z</time></trkpt><trkpt lat="38.95125369680867" lon="-9.319227480958805"><ele>205.14285714285717</ele><time>2026-04-03T13:12:41.001Z</time></trkpt><trkpt lat="38.95121206597251" lon="-9.319318699160245"><ele>203.85714285714286</ele><time>2026-04-03T13:12:42.001Z</time></trkpt><trkpt lat="38.95117247021326" lon="-9.319403858805336"><ele>202.57142857142858</ele><time>2026-04-03T13:12:43.001Z</time></trkpt><trkpt lat="38.95114184390966" lon="-9.319483146136825"><ele>201.2857142857143</ele><time>2026-04-03T13:12:44.001Z</time></trkpt><trkpt lat="38.95110475376046" lon="-9.319558265233924"><ele>200.0</ele><time>2026-04-03T13:12:45.001Z</time></trkpt><trkpt lat="38.951042636671126" lon="-9.319689135434471"><ele>198.8</ele><time>2026-04-03T13:12:47.001Z</time></trkpt><trkpt lat="38.950988353234855" lon="-9.319818505196036"><ele>197.6</ele><time>2026-04-03T13:12:49.001Z</time></trkpt><trkpt lat="38.9509386868178" lon="-9.319921160516317"><ele>196.39999999999998</ele><time>2026-04-03T13:12:51.001Z</time></trkpt><trkpt lat="38.95088609914324" lon="-9.320033066306651"><ele>195.2</ele><time>2026-04-03T13:12:53.001Z</time></trkpt><trkpt lat="38.95083695684344" lon="-9.320140199824122"><ele>194.0</ele><time>2026-04-03T13:12:55.001Z</time></trkpt><trkpt lat="38.950788528182414" lon="-9.320235094711547"><ele>194.0</ele><time>2026-04-03T13:12:57.001Z</time></trkpt><trkpt lat="38.9507504109935" lon="-9.32030761719744"><ele>194.0</ele><time>2026-04-03T13:13:07.001Z</time></trkpt><trkpt lat="38.95070370755468" lon="-9.320388280965473"><ele>194.0</ele><time>2026-04-03T13:13:15.001Z</time></trkpt><trkpt lat="38.95067472396357" lon="-9.320477070843575"><ele>194.0</ele><time>2026-04-03T13:13:20.001Z</time></trkpt><trkpt lat="38.95062791429877" lon="-9.320541021646395"><ele>194.0</ele><time>2026-04-03T13:13:23.001Z</time></trkpt><trkpt lat="38.95061364226052" lon="-9.320621896376615"><ele>194.0</ele><time>2026-04-03T13:13:26.001Z</time></trkpt><trkpt lat="38.95057600595159" lon="-9.320722770445364"><ele>194.0</ele><time>2026-04-03T13:13:29.001Z</time></trkpt><trkpt lat="38.95053320218786" lon="-9.320784353416764"><ele>191.79999999999998</ele><time>2026-04-03T13:13:30.001Z</time></trkpt><trkpt lat="38.95048153338738" lon="-9.320839166317151"><ele>189.6</ele><time>2026-04-03T13:13:31.001Z</time></trkpt><trkpt lat="38.95041450076903" lon="-9.320933248580117"><ele>187.4</ele><time>2026-04-03T13:13:32.001Z</time></trkpt><trkpt lat="38.95035573940495" lon="-9.321056460780138"><ele>185.2</ele><time>2026-04-03T13:13:33.001Z</time></trkpt><trkpt lat="38.95031036223258" lon="-9.321208213852481"><ele>183.0</ele><time>2026-04-03T13:13:34.001Z</time></trkpt><trkpt lat="38.95027778589102" lon="-9.321371034153916"><ele>181.0</ele><time>2026-04-03T13:13:35.001Z</time></trkpt><trkpt lat="38.95031087765573" lon="-9.321525625348361"><ele>179.0</ele><time>2026-04-03T13:13:36.001Z</time></trkpt><trkpt lat="38.95035678737095" lon="-9.321706765634254"><ele>177.0</ele><time>2026-04-03T13:13:37.001Z</time></trkpt><trkpt lat="38.95037647085156" lon="-9.32189321867516"><ele>175.0</ele><time>2026-04-03T13:13:38.001Z</time></trkpt><trkpt lat="38.95039649406311" lon="-9.322070973457626"><ele>174.33333333333334</ele><time>2026-04-03T13:13:39.001Z</time></trkpt><trkpt lat="38.950383632395955" lon="-9.322258506742651"><ele>173.66666666666666</ele><time>2026-04-03T13:13:40.001Z</time></trkpt><trkpt lat="38.95035909361125" lon="-9.32246229208171"><ele>173.0</ele><time>2026-04-03T13:13:41.001Z</time></trkpt><trkpt lat="38.9503194161246" lon="-9.322670664377187"><ele>173.0</ele><time>2026-04-03T13:13:42.001Z</time></trkpt><trkpt lat="38.950286144864045" lon="-9.32287874961164"><ele>173.0</ele><time>2026-04-03T13:13:43.001Z</time></trkpt><trkpt lat="38.95025223818304" lon="-9.32309192513639"><ele>173.0</ele><time>2026-04-03T13:13:44.001Z</time></trkpt><trkpt lat="38.950295087878736" lon="-9.32327309273938"><ele>174.33333333333331</ele><time>2026-04-03T13:13:45.001Z</time></trkpt><trkpt lat="38.95036128237515" lon="-9.323435078848544"><ele>175.66666666666666</ele><time>2026-04-03T13:13:46.001Z</time></trkpt><trkpt lat="38.950451497139746" lon="-9.323601365336616"><ele>177.0</ele><time>2026-04-03T13:13:47.001Z</time></trkpt><trkpt lat="38.950560886423744" lon="-9.323759991774299"><ele>178.33333333333334</ele><time>2026-04-03T13:13:48.001Z</time></trkpt><trkpt lat="38.950680479790456" lon="-9.323922242312591"><ele>179.66666666666669</ele><time>2026-04-03T13:13:49.001Z</time></trkpt><trkpt lat="38.95080205387015" lon="-9.324084896225903"><ele>181.0</ele><time>2026-04-03T13:13:50.001Z</time></trkpt><trkpt lat="38.95091049012208" lon="-9.324251984320169"><ele>181.0</ele><time>2026-04-03T13:13:51.001Z</time></trkpt><trkpt lat="38.95103216380488" lon="-9.324401338526345"><ele>181.0</ele><time>2026-04-03T13:13:52.001Z</time></trkpt><trkpt lat="38.951134188819836" lon="-9.324539413176185"><ele>181.0</ele><time>2026-04-03T13:13:53.001Z</time></trkpt><trkpt lat="38.951234669521504" lon="-9.324677184780462"><ele>183.5</ele><time>2026-04-03T13:13:54.001Z</time></trkpt><trkpt lat="38.95133118076429" lon="-9.324810924509995"><ele>186.0</ele><time>2026-04-03T13:13:55.001Z</time></trkpt><trkpt lat="38.9513922506804" lon="-9.32489062041714"><ele>188.5</ele><time>2026-04-03T13:13:56.001Z</time></trkpt><trkpt lat="38.95128428326531" lon="-9.325003810002965"><ele>191.0</ele><time>2026-04-03T13:14:01.001Z</time></trkpt><trkpt lat="38.95124694046219" lon="-9.325110355489503"><ele>191.0</ele><time>2026-04-03T13:14:03.001Z</time></trkpt><trkpt lat="38.95122257215916" lon="-9.325263019551807"><ele>191.0</ele><time>2026-04-03T13:14:05.001Z</time></trkpt><trkpt lat="38.95122101807675" lon="-9.32536001156852"><ele>191.0</ele><time>2026-04-03T13:14:06.001Z</time></trkpt><trkpt lat="38.95120194578687" lon="-9.325444561843955"><ele>191.0</ele><time>2026-04-03T13:14:07.001Z</time></trkpt><trkpt lat="38.951200467231985" lon="-9.32554172429282"><ele>191.0</ele><time>2026-04-03T13:14:08.001Z</time></trkpt><trkpt lat="38.951199586012315" lon="-9.325637366159757"><ele>191.0</ele><time>2026-04-03T13:14:09.001Z</time></trkpt><trkpt lat="38.95118591316799" lon="-9.32574785587313"><ele>191.8</ele><time>2026-04-03T13:14:10.001Z</time></trkpt><trkpt lat="38.951184061572384" lon="-9.325864798702753"><ele>192.60000000000002</ele><time>2026-04-03T13:14:11.001Z</time></trkpt><trkpt lat="38.95118282510359" lon="-9.325956594470659"><ele>193.4</ele><time>2026-04-03T13:14:12.001Z</time></trkpt><trkpt lat="38.951171354090285" lon="-9.326040365086891"><ele>194.2</ele><time>2026-04-03T13:14:13.001Z</time></trkpt><trkpt lat="38.951048048741924" lon="-9.326131032241262"><ele>195.0</ele><time>2026-04-03T13:14:15.001Z</time></trkpt><trkpt lat="38.950979366629845" lon="-9.326188679964634"><ele>195.0</ele><time>2026-04-03T13:14:16.001Z</time></trkpt><trkpt lat="38.95091840835626" lon="-9.326224714565642"><ele>195.0</ele><time>2026-04-03T13:14:17.001Z</time></trkpt><trkpt lat="38.9508640410299" lon="-9.326291372635014"><ele>195.0</ele><time>2026-04-03T13:14:18.001Z</time></trkpt><trkpt lat="38.95080219884694" lon="-9.326357916620069"><ele>195.0</ele><time>2026-04-03T13:14:19.001Z</time></trkpt><trkpt lat="38.95073559853868" lon="-9.326407649109749"><ele>195.0</ele><time>2026-04-03T13:14:20.001Z</time></trkpt><trkpt lat="38.95067377852271" lon="-9.326464565133815"><ele>195.0</ele><time>2026-04-03T13:14:21.001Z</time></trkpt><trkpt lat="38.95059988678906" lon="-9.32650426215504"><ele>197.16666666666666</ele><time>2026-04-03T13:14:22.001Z</time></trkpt><trkpt lat="38.950526424805894" lon="-9.326535875128242"><ele>199.33333333333331</ele><time>2026-04-03T13:14:23.001Z</time></trkpt><trkpt lat="38.950459094684575" lon="-9.326569512134169"><ele>201.5</ele><time>2026-04-03T13:14:24.001Z</time></trkpt><trkpt lat="38.950386908502715" lon="-9.326615689064932"><ele>203.66666666666666</ele><time>2026-04-03T13:14:25.001Z</time></trkpt><trkpt lat="38.95031301628287" lon="-9.326655071052263"><ele>205.83333333333331</ele><time>2026-04-03T13:14:26.001Z</time></trkpt><trkpt lat="38.95023289816851" lon="-9.326684592247155"><ele>208.0</ele><time>2026-04-03T13:14:27.001Z</time></trkpt><trkpt lat="38.95012957663167" lon="-9.326730735411488"><ele>209.66666666666666</ele><time>2026-04-03T13:14:28.001Z</time></trkpt><trkpt lat="38.9500231141925" lon="-9.326784648055046"><ele>211.33333333333331</ele><time>2026-04-03T13:14:29.001Z</time></trkpt><trkpt lat="38.94993120469285" lon="-9.326827858040444"><ele>213.0</ele><time>2026-04-03T13:14:30.001Z</time></trkpt><trkpt lat="38.94986021736721" lon="-9.32684950997943"><ele>214.66666666666669</ele><time>2026-04-03T13:14:31.001Z</time></trkpt><trkpt lat="38.94979304998708" lon="-9.326875814938933"><ele>216.33333333333334</ele><time>2026-04-03T13:14:32.001Z</time></trkpt><trkpt lat="38.949711344849504" lon="-9.326908547222049"><ele>218.0</ele><time>2026-04-03T13:14:33.001Z</time></trkpt><trkpt lat="38.94961483970143" lon="-9.326954912018813"><ele>218.0</ele><time>2026-04-03T13:14:34.001Z</time></trkpt><trkpt lat="38.949509151178525" lon="-9.327009520774803"><ele>218.0</ele><time>2026-04-03T13:14:35.001Z</time></trkpt><trkpt lat="38.9494034797315" lon="-9.327060814105321"><ele>218.0</ele><time>2026-04-03T13:14:36.001Z</time></trkpt><trkpt lat="38.949303295861895" lon="-9.327113146809557"><ele>218.0</ele><time>2026-04-03T13:14:37.001Z</time></trkpt><trkpt lat="38.949200112793214" lon="-9.327167185956418"><ele>218.0</ele><time>2026-04-03T13:14:38.001Z</time></trkpt><trkpt lat="38.94909696490452" lon="-9.327217943584598"><ele>216.8</ele><time>2026-04-03T13:14:39.001Z</time></trkpt><trkpt lat="38.94900030309548" lon="-9.327261587100613"><ele>215.60000000000002</ele><time>2026-04-03T13:14:40.001Z</time></trkpt><trkpt lat="38.948908732497465" lon="-9.327303446147157"><ele>214.39999999999998</ele><time>2026-04-03T13:14:41.001Z</time></trkpt><trkpt lat="38.94881784872021" lon="-9.327346980830914"><ele>213.2</ele><time>2026-04-03T13:14:42.001Z</time></trkpt><trkpt lat="38.94873671063191" lon="-9.327397740074158"><ele>212.0</ele><time>2026-04-03T13:14:43.001Z</time></trkpt><trkpt lat="38.94865551744606" lon="-9.32743603665551"><ele>212.0</ele><time>2026-04-03T13:14:44.001Z</time></trkpt><trkpt lat="38.948557726929124" lon="-9.327437056432979"><ele>212.0</ele><time>2026-04-03T13:14:45.001Z</time></trkpt><trkpt lat="38.948460631463334" lon="-9.327405994380848"><ele>212.0</ele><time>2026-04-03T13:14:46.001Z</time></trkpt><trkpt lat="38.948389259730156" lon="-9.327381710685072"><ele>212.0</ele><time>2026-04-03T13:14:47.001Z</time></trkpt><trkpt lat="38.948320780745426" lon="-9.327386474875826"><ele>212.0</ele><time>2026-04-03T13:14:48.001Z</time></trkpt><trkpt lat="38.94819892029563" lon="-9.327408728645992"><ele>210.39999999999998</ele><time>2026-04-03T13:14:50.001Z</time></trkpt><trkpt lat="38.948111511581864" lon="-9.327410691457388"><ele>208.79999999999998</ele><time>2026-04-03T13:14:51.001Z</time></trkpt><trkpt lat="38.948007792082855" lon="-9.327416893064129"><ele>207.2</ele><time>2026-04-03T13:14:52.001Z</time></trkpt><trkpt lat="38.94789325255461" lon="-9.327413822662587"><ele>205.6</ele><time>2026-04-03T13:14:53.001Z</time></trkpt><trkpt lat="38.94778039812807" lon="-9.327406679071421"><ele>204.0</ele><time>2026-04-03T13:14:54.001Z</time></trkpt><trkpt lat="38.9476748690144" lon="-9.327401818348354"><ele>204.0</ele><time>2026-04-03T13:14:55.001Z</time></trkpt><trkpt lat="38.9475543346667" lon="-9.327397399481134"><ele>204.0</ele><time>2026-04-03T13:14:56.001Z</time></trkpt><trkpt lat="38.947428042648625" lon="-9.327394476758894"><ele>204.0</ele><time>2026-04-03T13:14:57.001Z</time></trkpt><trkpt lat="38.9472939214783" lon="-9.327387598406506"><ele>204.0</ele><time>2026-04-03T13:14:58.001Z</time></trkpt><trkpt lat="38.947169591060835" lon="-9.327385711069736"><ele>203.5</ele><time>2026-04-03T13:14:59.001Z</time></trkpt><trkpt lat="38.94704453739057" lon="-9.327381034503333"><ele>203.0</ele><time>2026-04-03T13:15:00.001Z</time></trkpt><trkpt lat="38.94692775543655" lon="-9.327383256950158"><ele>202.5</ele><time>2026-04-03T13:15:01.001Z</time></trkpt><trkpt lat="38.94681388849522" lon="-9.327384969515041"><ele>202.0</ele><time>2026-04-03T13:15:02.001Z</time></trkpt><trkpt lat="38.94670847313685" lon="-9.327384878795847"><ele>201.6</ele><time>2026-04-03T13:15:03.001Z</time></trkpt><trkpt lat="38.946609626906316" lon="-9.327393450655023"><ele>201.2</ele><time>2026-04-03T13:15:04.001Z</time></trkpt><trkpt lat="38.94651104893671" lon="-9.327401908596164"><ele>200.8</ele><time>2026-04-03T13:15:05.001Z</time></trkpt><trkpt lat="38.94640393367693" lon="-9.327436540173233"><ele>200.4</ele><time>2026-04-03T13:15:06.001Z</time></trkpt><trkpt lat="38.9462985207557" lon="-9.327525693763443"><ele>200.0</ele><time>2026-04-03T13:15:07.001Z</time></trkpt><trkpt lat="38.94623084097511" lon="-9.327675040978331"><ele>200.0</ele><time>2026-04-03T13:15:08.001Z</time></trkpt><trkpt lat="38.94614115861802" lon="-9.327801948989755"><ele>200.0</ele><time>2026-04-03T13:15:09.001Z</time></trkpt><trkpt lat="38.94607236532524" lon="-9.327943704944518"><ele>200.0</ele><time>2026-04-03T13:15:10.001Z</time></trkpt><trkpt lat="38.94599367940473" lon="-9.328083698795062"><ele>200.0</ele><time>2026-04-03T13:15:11.001Z</time></trkpt><trkpt lat="38.945915168475075" lon="-9.328222036846986"><ele>200.25</ele><time>2026-04-03T13:15:12.001Z</time></trkpt><trkpt lat="38.94584693442461" lon="-9.328365596276988"><ele>200.5</ele><time>2026-04-03T13:15:13.001Z</time></trkpt><trkpt lat="38.94578851859744" lon="-9.328518041887003"><ele>200.75</ele><time>2026-04-03T13:15:14.001Z</time></trkpt><trkpt lat="38.94574699644479" lon="-9.328672439438737"><ele>201.0</ele><time>2026-04-03T13:15:15Z</time></trkpt><trkpt lat="38.94570016206048" lon="-9.328808317999822"><ele>200.20000000000002</ele><time>2026-04-03T13:15:16Z</time></trkpt><trkpt lat="38.945657355578845" lon="-9.328945115241945"><ele>199.4</ele><time>2026-04-03T13:15:17Z</time></trkpt><trkpt lat="38.94561268322494" lon="-9.329080231438219"><ele>198.6</ele><time>2026-04-03T13:15:18Z</time></trkpt><trkpt lat="38.945528429855464" lon="-9.3291714086878"><ele>197.8</ele><time>2026-04-03T13:15:19Z</time></trkpt><trkpt lat="38.945439632154155" lon="-9.329249098233268"><ele>197.0</ele><time>2026-04-03T13:15:20Z</time></trkpt><trkpt lat="38.945336898433666" lon="-9.329308509431096"><ele>197.0</ele><time>2026-04-03T13:15:21Z</time></trkpt><trkpt lat="38.94523177661583" lon="-9.32939062970657"><ele>197.0</ele><time>2026-04-03T13:15:22Z</time></trkpt><trkpt lat="38.9451160775205" lon="-9.329448869162754"><ele>197.0</ele><time>2026-04-03T13:15:23Z</time></trkpt><trkpt lat="38.9450046648084" lon="-9.32951165447647"><ele>197.0</ele><time>2026-04-03T13:15:24Z</time></trkpt><trkpt lat="38.94489642106445" lon="-9.32959094814855"><ele>198.75</ele><time>2026-04-03T13:15:25Z</time></trkpt><trkpt lat="38.94477849207764" lon="-9.329679008171057"><ele>200.5</ele><time>2026-04-03T13:15:26Z</time></trkpt><trkpt lat="38.94467382898599" lon="-9.3297954750019"><ele>202.25</ele><time>2026-04-03T13:15:27Z</time></trkpt><trkpt lat="38.94456551115711" lon="-9.32989929733314"><ele>204.0</ele><time>2026-04-03T13:15:28Z</time></trkpt><trkpt lat="38.94445320501158" lon="-9.330004503155418"><ele>204.0</ele><time>2026-04-03T13:15:29Z</time></trkpt><trkpt lat="38.944333581635526" lon="-9.330089416683803"><ele>204.0</ele><time>2026-04-03T13:15:30Z</time></trkpt><trkpt lat="38.944214663617565" lon="-9.330175505295083"><ele>204.0</ele><time>2026-04-03T13:15:31Z</time></trkpt><trkpt lat="38.944089442942804" lon="-9.330241632098272"><ele>204.0</ele><time>2026-04-03T13:15:32Z</time></trkpt><trkpt lat="38.94398153401469" lon="-9.330308772766545"><ele>205.0</ele><time>2026-04-03T13:15:33Z</time></trkpt><trkpt lat="38.94388251479272" lon="-9.330371386481024"><ele>206.0</ele><time>2026-04-03T13:15:34Z</time></trkpt><trkpt lat="38.94380017696459" lon="-9.33043250984911"><ele>207.0</ele><time>2026-04-03T13:15:35Z</time></trkpt><trkpt lat="38.94373989966763" lon="-9.33048242305377"><ele>208.0</ele><time>2026-04-03T13:15:36Z</time></trkpt><trkpt lat="38.94367397169357" lon="-9.330614368090169"><ele>209.0</ele><time>2026-04-03T13:15:38Z</time></trkpt><trkpt lat="38.943653318909874" lon="-9.330780959599133"><ele>209.39999999999998</ele><time>2026-04-03T13:15:40Z</time></trkpt><trkpt lat="38.943694287982545" lon="-9.330881008816936"><ele>209.8</ele><time>2026-04-03T13:15:41Z</time></trkpt><trkpt lat="38.94371835225007" lon="-9.331002839790965"><ele>210.2</ele><time>2026-04-03T13:15:42Z</time></trkpt><trkpt lat="38.94374660926" lon="-9.33114587570522"><ele>210.60000000000002</ele><time>2026-04-03T13:15:43Z</time></trkpt><trkpt lat="38.943772090984304" lon="-9.33129777435477"><ele>211.0</ele><time>2026-04-03T13:15:44Z</time></trkpt><trkpt lat="38.94379734854638" lon="-9.331426099614603"><ele>211.4</ele><time>2026-04-03T13:15:45Z</time></trkpt><trkpt lat="38.943822115972544" lon="-9.33153230196392"><ele>211.8</ele><time>2026-04-03T13:15:46Z</time></trkpt><trkpt lat="38.94387397295433" lon="-9.331605347734124"><ele>212.20000000000002</ele><time>2026-04-03T13:15:47Z</time></trkpt><trkpt lat="38.94394002020488" lon="-9.331736495800758"><ele>212.60000000000002</ele><time>2026-04-03T13:15:49Z</time></trkpt><trkpt lat="38.94383656338757" lon="-9.33181477857272"><ele>213.0</ele><time>2026-04-03T13:15:50Z</time></trkpt><trkpt lat="38.94375727381946" lon="-9.331813227167142"><ele>213.0</ele><time>2026-04-03T13:15:51Z</time></trkpt><trkpt lat="38.94366933196934" lon="-9.331768009638195"><ele>213.0</ele><time>2026-04-03T13:15:52Z</time></trkpt><trkpt lat="38.94357498829355" lon="-9.331688281393728"><ele>213.0</ele><time>2026-04-03T13:15:53Z</time></trkpt><trkpt lat="38.943493896416" lon="-9.33162354353884"><ele>213.0</ele><time>2026-04-03T13:15:54Z</time></trkpt><trkpt lat="38.94341269467473" lon="-9.33160940697837"><ele>213.0</ele><time>2026-04-03T13:15:55Z</time></trkpt><trkpt lat="38.94335179314718" lon="-9.331568995035349"><ele>214.0</ele><time>2026-04-03T13:15:56Z</time></trkpt><trkpt lat="38.94329233204521" lon="-9.331495717778651"><ele>215.0</ele><time>2026-04-03T13:16:04Z</time></trkpt><trkpt lat="38.94319112090089" lon="-9.331443619263165"><ele>216.0</ele><time>2026-04-03T13:16:06Z</time></trkpt><trkpt lat="38.943108321515616" lon="-9.331399014810259"><ele>217.0</ele><time>2026-04-03T13:16:07Z</time></trkpt><trkpt lat="38.9430201581606" lon="-9.331358327245256"><ele>218.0</ele><time>2026-04-03T13:16:08Z</time></trkpt><trkpt lat="38.942921526729705" lon="-9.331308095082578"><ele>218.0</ele><time>2026-04-03T13:16:09Z</time></trkpt><trkpt lat="38.942839582362915" lon="-9.331272781828714"><ele>218.0</ele><time>2026-04-03T13:16:10Z</time></trkpt><trkpt lat="38.942759778293876" lon="-9.331245587304629"><ele>218.0</ele><time>2026-04-03T13:16:11Z</time></trkpt><trkpt lat="38.94272033384457" lon="-9.331170897864697"><ele>218.0</ele><time>2026-04-03T13:16:12Z</time></trkpt><trkpt lat="38.94261819497154" lon="-9.331104089440124"><ele>218.0</ele><time>2026-04-03T13:16:14Z</time></trkpt><trkpt lat="38.942506340509084" lon="-9.331037621502029"><ele>219.2</ele><time>2026-04-03T13:16:16Z</time></trkpt><trkpt lat="38.94244272901857" lon="-9.331003002878496"><ele>220.4</ele><time>2026-04-03T13:16:17Z</time></trkpt><trkpt lat="38.942376196985556" lon="-9.330914644518606"><ele>221.59999999999997</ele><time>2026-04-03T13:16:19Z</time></trkpt><trkpt lat="38.94232467514282" lon="-9.33084918679621"><ele>222.79999999999998</ele><time>2026-04-03T13:16:21Z</time></trkpt><trkpt lat="38.942187807193406" lon="-9.330824685818069"><ele>224.0</ele><time>2026-04-03T13:16:23Z</time></trkpt><trkpt lat="38.94209735038128" lon="-9.330819738045749"><ele>224.0</ele><time>2026-04-03T13:16:24Z</time></trkpt><trkpt lat="38.94200346942191" lon="-9.33081821386441"><ele>223.99999999999997</ele><time>2026-04-03T13:16:25Z</time></trkpt><trkpt lat="38.941913067525626" lon="-9.330826860763796"><ele>223.99999999999997</ele><time>2026-04-03T13:16:26Z</time></trkpt><trkpt lat="38.94183189085181" lon="-9.330831069087447"><ele>224.0</ele><time>2026-04-03T13:16:27Z</time></trkpt><trkpt lat="38.94175728419776" lon="-9.330766666959148"><ele>224.0</ele><time>2026-04-03T13:16:28Z</time></trkpt><trkpt lat="38.94172143015388" lon="-9.33065106527045"><ele>224.16666666666669</ele><time>2026-04-03T13:16:29Z</time></trkpt><trkpt lat="38.941670956178825" lon="-9.330555696247043"><ele>224.33333333333334</ele><time>2026-04-03T13:16:30Z</time></trkpt><trkpt lat="38.94160836563162" lon="-9.330491874147453"><ele>224.5</ele><time>2026-04-03T13:16:31Z</time></trkpt><trkpt lat="38.94153534325147" lon="-9.330431159012969"><ele>224.66666666666669</ele><time>2026-04-03T13:16:32Z</time></trkpt><trkpt lat="38.94146093616687" lon="-9.330367442554241"><ele>224.83333333333334</ele><time>2026-04-03T13:16:33Z</time></trkpt><trkpt lat="38.941391182264" lon="-9.330299418065914"><ele>225.0</ele><time>2026-04-03T13:16:34Z</time></trkpt><trkpt lat="38.941320046145336" lon="-9.330221723203898"><ele>225.0</ele><time>2026-04-03T13:16:35Z</time></trkpt><trkpt lat="38.94124546483285" lon="-9.330155445263596"><ele>225.0</ele><time>2026-04-03T13:16:36Z</time></trkpt><trkpt lat="38.94117512256481" lon="-9.330095190702222"><ele>225.0</ele><time>2026-04-03T13:16:37Z</time></trkpt><trkpt lat="38.94110953188113" lon="-9.33003776397766"><ele>225.0</ele><time>2026-04-03T13:16:38Z</time></trkpt><trkpt lat="38.941051470716694" lon="-9.329991602973765"><ele>225.0</ele><time>2026-04-03T13:16:39Z</time></trkpt><trkpt lat="38.94098801081588" lon="-9.32994304407003"><ele>225.0</ele><time>2026-04-03T13:16:40Z</time></trkpt><trkpt lat="38.94092291337448" lon="-9.329879743220465"><ele>225.16666666666666</ele><time>2026-04-03T13:16:41Z</time></trkpt><trkpt lat="38.9408611268919" lon="-9.329817018511093"><ele>225.33333333333331</ele><time>2026-04-03T13:16:42Z</time></trkpt><trkpt lat="38.94079987817459" lon="-9.329755543246453"><ele>225.5</ele><time>2026-04-03T13:16:43Z</time></trkpt><trkpt lat="38.94073165888012" lon="-9.32969541516312"><ele>225.66666666666666</ele><time>2026-04-03T13:16:44Z</time></trkpt><trkpt lat="38.940659019899876" lon="-9.329633251178846"><ele>225.83333333333331</ele><time>2026-04-03T13:16:45Z</time></trkpt><trkpt lat="38.940581557014646" lon="-9.329569108942668"><ele>226.0</ele><time>2026-04-03T13:16:46Z</time></trkpt><trkpt lat="38.940500705491104" lon="-9.329505473405494"><ele>226.20000000000002</ele><time>2026-04-03T13:16:47Z</time></trkpt><trkpt lat="38.94042082385858" lon="-9.329439062781118"><ele>226.40000000000003</ele><time>2026-04-03T13:16:48Z</time></trkpt><trkpt lat="38.94033535182004" lon="-9.32936769300336"><ele>226.6</ele><time>2026-04-03T13:16:49Z</time></trkpt><trkpt lat="38.940257002916375" lon="-9.329293988229251"><ele>226.8</ele><time>2026-04-03T13:16:50Z</time></trkpt><trkpt lat="38.94017852446099" lon="-9.329227024580312"><ele>227.0</ele><time>2026-04-03T13:16:51Z</time></trkpt><trkpt lat="38.940104718857455" lon="-9.329157568053972"><ele>227.0</ele><time>2026-04-03T13:16:52Z</time></trkpt><trkpt lat="38.94003034830305" lon="-9.329087658569893"><ele>227.0</ele><time>2026-04-03T13:16:53Z</time></trkpt><trkpt lat="38.93994806288881" lon="-9.329015865188106"><ele>227.0</ele><time>2026-04-03T13:16:54Z</time></trkpt><trkpt lat="38.939854614813875" lon="-9.328942315267318"><ele>227.0</ele><time>2026-04-03T13:16:55Z</time></trkpt><trkpt lat="38.93976800321173" lon="-9.328865777629057"><ele>227.0</ele><time>2026-04-03T13:16:56Z</time></trkpt><trkpt lat="38.939674047729106" lon="-9.328776032522143"><ele>227.0</ele><time>2026-04-03T13:16:57Z</time></trkpt><trkpt lat="38.939580779280654" lon="-9.328698939218048"><ele>227.0</ele><time>2026-04-03T13:16:58Z</time></trkpt><trkpt lat="38.93949651924193" lon="-9.328631913592943"><ele>227.0</ele><time>2026-04-03T13:16:59Z</time></trkpt><trkpt lat="38.93941153439374" lon="-9.328557447774728"><ele>227.0</ele><time>2026-04-03T13:17:00Z</time></trkpt><trkpt lat="38.93933376177372" lon="-9.328485336320867"><ele>227.0</ele><time>2026-04-03T13:17:01Z</time></trkpt><trkpt lat="38.93926188919351" lon="-9.328415386180291"><ele>227.00000000000003</ele><time>2026-04-03T13:17:02Z</time></trkpt><trkpt lat="38.93919583805498" lon="-9.32835107382177"><ele>227.0</ele><time>2026-04-03T13:17:03Z</time></trkpt><trkpt lat="38.93913135028489" lon="-9.328285334749356"><ele>227.0</ele><time>2026-04-03T13:17:04Z</time></trkpt><trkpt lat="38.939063785378025" lon="-9.328223299909444"><ele>227.0</ele><time>2026-04-03T13:17:05Z</time></trkpt><trkpt lat="38.938993712804454" lon="-9.32816310964129"><ele>227.00000000000003</ele><time>2026-04-03T13:17:06Z</time></trkpt><trkpt lat="38.93892562896892" lon="-9.328109731029596"><ele>227.0</ele><time>2026-04-03T13:17:07Z</time></trkpt><trkpt lat="38.93885910838875" lon="-9.32805248296134"><ele>227.50000000000003</ele><time>2026-04-03T13:17:08Z</time></trkpt><trkpt lat="38.938795905374846" lon="-9.328000048832806"><ele>228.0</ele><time>2026-04-03T13:17:09Z</time></trkpt><trkpt lat="38.93874524944773" lon="-9.327945293610968"><ele>228.5</ele><time>2026-04-03T13:17:10Z</time></trkpt><trkpt lat="38.938689944549" lon="-9.327902989631996"><ele>229.0</ele><time>2026-04-03T13:17:11Z</time></trkpt><trkpt lat="38.93860458788125" lon="-9.327807034782367"><ele>229.50000000000003</ele><time>2026-04-03T13:17:13Z</time></trkpt><trkpt lat="38.938534064171" lon="-9.327749401283834"><ele>230.0</ele><time>2026-04-03T13:17:15Z</time></trkpt><trkpt lat="38.93845434023937" lon="-9.327679474128143"><ele>230.0</ele><time>2026-04-03T13:17:32.001Z</time></trkpt><trkpt lat="38.93835725169706" lon="-9.327629121702016"><ele>230.0</ele><time>2026-04-03T13:17:34.001Z</time></trkpt><trkpt lat="38.93828697191635" lon="-9.327601663662533"><ele>230.0</ele><time>2026-04-03T13:17:35.001Z</time></trkpt><trkpt lat="38.938190068109726" lon="-9.327601768642692"><ele>230.0</ele><time>2026-04-03T13:17:37.001Z</time></trkpt><trkpt lat="38.9381097658239" lon="-9.327616267733873"><ele>230.0</ele><time>2026-04-03T13:17:38.001Z</time></trkpt><trkpt lat="38.938006457068276" lon="-9.32763588922825"><ele>230.0</ele><time>2026-04-03T13:17:39.001Z</time></trkpt><trkpt lat="38.93787876306471" lon="-9.327680613314124"><ele>230.0</ele><time>2026-04-03T13:17:40.001Z</time></trkpt><trkpt lat="38.937734816894576" lon="-9.327736708195474"><ele>230.0</ele><time>2026-04-03T13:17:41.001Z</time></trkpt><trkpt lat="38.937574112209596" lon="-9.327782826375271"><ele>230.0</ele><time>2026-04-03T13:17:42.001Z</time></trkpt><trkpt lat="38.937406277066174" lon="-9.327822981967277"><ele>231.0</ele><time>2026-04-03T13:17:43.001Z</time></trkpt><trkpt lat="38.93722247437848" lon="-9.327856539635793"><ele>232.0</ele><time>2026-04-03T13:17:44.001Z</time></trkpt><trkpt lat="38.93704928219032" lon="-9.327876236848548"><ele>233.0</ele><time>2026-04-03T13:17:45.001Z</time></trkpt><trkpt lat="38.93688804493892" lon="-9.327889835842392"><ele>233.0</ele><time>2026-04-03T13:17:46.001Z</time></trkpt><trkpt lat="38.93673404103176" lon="-9.327887597385464"><ele>233.0</ele><time>2026-04-03T13:17:47.001Z</time></trkpt><trkpt lat="38.93658970058631" lon="-9.327869788482673"><ele>233.0</ele><time>2026-04-03T13:17:48.001Z</time></trkpt><trkpt lat="38.93644367237962" lon="-9.327833102035312"><ele>233.0</ele><time>2026-04-03T13:17:49.001Z</time></trkpt><trkpt lat="38.93630807570544" lon="-9.327800974752302"><ele>233.0</ele><time>2026-04-03T13:17:50.001Z</time></trkpt><trkpt lat="38.936186109576475" lon="-9.32777932907579"><ele>233.0</ele><time>2026-04-03T13:17:51.001Z</time></trkpt><trkpt lat="38.93607149492748" lon="-9.327739441196352"><ele>233.0</ele><time>2026-04-03T13:17:52.001Z</time></trkpt><trkpt lat="38.93597064436813" lon="-9.327693745741296"><ele>233.0</ele><time>2026-04-03T13:17:53.001Z</time></trkpt><trkpt lat="38.93587161657835" lon="-9.327667458577196"><ele>233.0</ele><time>2026-04-03T13:17:54.001Z</time></trkpt><trkpt lat="38.93576635367606" lon="-9.327631938965334"><ele>233.0</ele><time>2026-04-03T13:17:55.001Z</time></trkpt><trkpt lat="38.935654133168306" lon="-9.327586032392633"><ele>233.0</ele><time>2026-04-03T13:17:56.001Z</time></trkpt><trkpt lat="38.93553233048858" lon="-9.327511574744996"><ele>233.0</ele><time>2026-04-03T13:17:57.001Z</time></trkpt><trkpt lat="38.935398648861565" lon="-9.327450335099613"><ele>233.0</ele><time>2026-04-03T13:17:58.001Z</time></trkpt><trkpt lat="38.93526041111015" lon="-9.327493633574733"><ele>233.0</ele><time>2026-04-03T13:17:59.001Z</time></trkpt><trkpt lat="38.935100957106336" lon="-9.327491733156508"><ele>233.0</ele><time>2026-04-03T13:18:00.001Z</time></trkpt><trkpt lat="38.93493196020864" lon="-9.327517623383143"><ele>232.33333333333334</ele><time>2026-04-03T13:18:01.001Z</time></trkpt><trkpt lat="38.934744096006405" lon="-9.3275331663654"><ele>231.66666666666669</ele><time>2026-04-03T13:18:02.001Z</time></trkpt><trkpt lat="38.93454407433308" lon="-9.327547462755243"><ele>231.0</ele><time>2026-04-03T13:18:03.001Z</time></trkpt><trkpt lat="38.93433475546215" lon="-9.327562445232795"><ele>231.33333333333331</ele><time>2026-04-03T13:18:04.001Z</time></trkpt><trkpt lat="38.93412782082673" lon="-9.32758238068097"><ele>231.66666666666666</ele><time>2026-04-03T13:18:05.001Z</time></trkpt><trkpt lat="38.933917293690875" lon="-9.327600028232876"><ele>232.0</ele><time>2026-04-03T13:18:06.001Z</time></trkpt><trkpt lat="38.93373169586447" lon="-9.327616969160697"><ele>232.0</ele><time>2026-04-03T13:18:07.001Z</time></trkpt><trkpt lat="38.93356686382809" lon="-9.327628566110274"><ele>232.0</ele><time>2026-04-03T13:18:08.001Z</time></trkpt><trkpt lat="38.93341886656261" lon="-9.327646397273892"><ele>232.0</ele><time>2026-04-03T13:18:09.001Z</time></trkpt><trkpt lat="38.93328831790558" lon="-9.327658835865455"><ele>232.0</ele><time>2026-04-03T13:18:10.001Z</time></trkpt><trkpt lat="38.93316600607226" lon="-9.327663453865428"><ele>232.39999999999998</ele><time>2026-04-03T13:18:11.001Z</time></trkpt><trkpt lat="38.93303813554551" lon="-9.327655882898364"><ele>232.79999999999998</ele><time>2026-04-03T13:18:12.001Z</time></trkpt><trkpt lat="38.93291889577283" lon="-9.327639748361458"><ele>233.2</ele><time>2026-04-03T13:18:13.001Z</time></trkpt><trkpt lat="38.93281910704367" lon="-9.327609196602683"><ele>233.6</ele><time>2026-04-03T13:18:14.001Z</time></trkpt><trkpt lat="38.93275576421065" lon="-9.327592920929732"><ele>234.0</ele><time>2026-04-03T13:18:15.001Z</time></trkpt><trkpt lat="38.932675671613985" lon="-9.327590084111305"><ele>234.0</ele><time>2026-04-03T13:18:22.001Z</time></trkpt><trkpt lat="38.93258035378381" lon="-9.327572739015427"><ele>233.99999999999997</ele><time>2026-04-03T13:18:24.001Z</time></trkpt><trkpt lat="38.932524493959214" lon="-9.32753001772682"><ele>233.99999999999997</ele><time>2026-04-03T13:18:25.001Z</time></trkpt><trkpt lat="38.93247008987464" lon="-9.327428281442614"><ele>234.0</ele><time>2026-04-03T13:18:26.001Z</time></trkpt><trkpt lat="38.93242085412266" lon="-9.327323113483354"><ele>234.0</ele><time>2026-04-03T13:18:27.001Z</time></trkpt><trkpt lat="38.93236319441101" lon="-9.327196644223848"><ele>234.6</ele><time>2026-04-03T13:18:28.001Z</time></trkpt><trkpt lat="38.932317219175026" lon="-9.327052142674095"><ele>235.2</ele><time>2026-04-03T13:18:29.001Z</time></trkpt><trkpt lat="38.93228373701432" lon="-9.326882598145705"><ele>235.79999999999998</ele><time>2026-04-03T13:18:30.001Z</time></trkpt><trkpt lat="38.93228882387586" lon="-9.326761142168799"><ele>236.39999999999998</ele><time>2026-04-03T13:18:31.001Z</time></trkpt><trkpt lat="38.93228738601858" lon="-9.326670482744225"><ele>237.0</ele><time>2026-04-03T13:18:32.001Z</time></trkpt><trkpt lat="38.93221451621466" lon="-9.326590892950627"><ele>237.0</ele><time>2026-04-03T13:18:34.001Z</time></trkpt><trkpt lat="38.932150627755114" lon="-9.326634956588734"><ele>237.0</ele><time>2026-04-03T13:18:35.001Z</time></trkpt><trkpt lat="38.93211743840227" lon="-9.326551768291663"><ele>237.0</ele><time>2026-04-03T13:18:36.001Z</time></trkpt><trkpt lat="38.93209339000162" lon="-9.326462766705369"><ele>237.0</ele><time>2026-04-03T13:18:37.001Z</time></trkpt><trkpt lat="38.93206924803663" lon="-9.326382716486918"><ele>237.0</ele><time>2026-04-03T13:18:38.001Z</time></trkpt><trkpt lat="38.932027859066885" lon="-9.326297894988265"><ele>237.0</ele><time>2026-04-03T13:18:39.001Z</time></trkpt><trkpt lat="38.93195750667065" lon="-9.32620247464861"><ele>238.75</ele><time>2026-04-03T13:18:40.001Z</time></trkpt><trkpt lat="38.9318539381938" lon="-9.326119587991194"><ele>240.5</ele><time>2026-04-03T13:18:41.001Z</time></trkpt><trkpt lat="38.93174319539426" lon="-9.326060392073346"><ele>242.25</ele><time>2026-04-03T13:18:42.001Z</time></trkpt><trkpt lat="38.9316344751626" lon="-9.326006509049373"><ele>244.0</ele><time>2026-04-03T13:18:43.001Z</time></trkpt><trkpt lat="38.93153017961564" lon="-9.325944244810264"><ele>241.2</ele><time>2026-04-03T13:18:44.001Z</time></trkpt><trkpt lat="38.931434662516" lon="-9.325878528854709"><ele>238.39999999999998</ele><time>2026-04-03T13:18:45.001Z</time></trkpt><trkpt lat="38.93134793767799" lon="-9.325828908962016"><ele>235.6</ele><time>2026-04-03T13:18:46.001Z</time></trkpt><trkpt lat="38.931273706148374" lon="-9.325768018968063"><ele>232.8</ele><time>2026-04-03T13:18:47.001Z</time></trkpt><trkpt lat="38.93122279196003" lon="-9.325675895321478"><ele>230.0</ele><time>2026-04-03T13:18:48.001Z</time></trkpt><trkpt lat="38.93117884059041" lon="-9.325599488999405"><ele>229.8</ele><time>2026-04-03T13:18:49.001Z</time></trkpt><trkpt lat="38.931232676149826" lon="-9.325475518375805"><ele>229.6</ele><time>2026-04-03T13:18:50.001Z</time></trkpt><trkpt lat="38.931303595098875" lon="-9.325390448893495"><ele>229.39999999999998</ele><time>2026-04-03T13:18:51.001Z</time></trkpt><trkpt lat="38.93138227165523" lon="-9.32528945029707"><ele>229.2</ele><time>2026-04-03T13:18:52.001Z</time></trkpt><trkpt lat="38.93145569740021" lon="-9.325169729889906"><ele>229.0</ele><time>2026-04-03T13:18:53.001Z</time></trkpt><trkpt lat="38.93152244329163" lon="-9.325041506568379"><ele>229.0</ele><time>2026-04-03T13:18:54.001Z</time></trkpt><trkpt lat="38.93159253189702" lon="-9.324917152198397"><ele>228.99999999999997</ele><time>2026-04-03T13:18:55.001Z</time></trkpt><trkpt lat="38.93161996063929" lon="-9.324794550969942"><ele>228.99999999999997</ele><time>2026-04-03T13:18:56.001Z</time></trkpt><trkpt lat="38.931618493091236" lon="-9.32470421099522"><ele>229.0</ele><time>2026-04-03T13:18:57.001Z</time></trkpt><trkpt lat="38.931608218182475" lon="-9.324595126969792"><ele>229.0</ele><time>2026-04-03T13:18:58.001Z</time></trkpt><trkpt lat="38.93159724600278" lon="-9.324449758244597"><ele>229.39999999999998</ele><time>2026-04-03T13:19:00.001Z</time></trkpt><trkpt lat="38.93158343605595" lon="-9.32426604239383"><ele>229.79999999999998</ele><time>2026-04-03T13:19:02.001Z</time></trkpt><trkpt lat="38.931574002736724" lon="-9.324155203402048"><ele>230.20000000000002</ele><time>2026-04-03T13:19:03.001Z</time></trkpt><trkpt lat="38.931567472159756" lon="-9.32404685651681"><ele>230.60000000000002</ele><time>2026-04-03T13:19:04.001Z</time></trkpt><trkpt lat="38.93156467130762" lon="-9.323918041874956"><ele>231.0</ele><time>2026-04-03T13:19:05.001Z</time></trkpt><trkpt lat="38.931560082397056" lon="-9.323784834437026"><ele>231.0</ele><time>2026-04-03T13:19:06.001Z</time></trkpt><trkpt lat="38.931553786384974" lon="-9.323651643654834"><ele>231.00000000000003</ele><time>2026-04-03T13:19:07.001Z</time></trkpt><trkpt lat="38.931547886288726" lon="-9.323508521036306"><ele>231.00000000000003</ele><time>2026-04-03T13:19:08.001Z</time></trkpt><trkpt lat="38.931545347370886" lon="-9.323366347941091"><ele>231.0</ele><time>2026-04-03T13:19:09.001Z</time></trkpt><trkpt lat="38.93156030098409" lon="-9.323221096980218"><ele>231.0</ele><time>2026-04-03T13:19:10.001Z</time></trkpt><trkpt lat="38.93154868392393" lon="-9.323058281510527"><ele>230.8</ele><time>2026-04-03T13:19:11.001Z</time></trkpt><trkpt lat="38.93154798651027" lon="-9.322911194453734"><ele>230.60000000000002</ele><time>2026-04-03T13:19:12.001Z</time></trkpt><trkpt lat="38.931539252423924" lon="-9.322775903380082"><ele>230.4</ele><time>2026-04-03T13:19:13.001Z</time></trkpt><trkpt lat="38.931524226635936" lon="-9.322642757874114"><ele>230.2</ele><time>2026-04-03T13:19:14.001Z</time></trkpt><trkpt lat="38.9315005301606" lon="-9.32251505991773"><ele>230.0</ele><time>2026-04-03T13:19:15.001Z</time></trkpt><trkpt lat="38.93147142900392" lon="-9.322383553019954"><ele>230.0</ele><time>2026-04-03T13:19:16.001Z</time></trkpt><trkpt lat="38.9314282636239" lon="-9.322233106636036"><ele>230.0</ele><time>2026-04-03T13:19:17.001Z</time></trkpt><trkpt lat="38.93139082163786" lon="-9.322046549870011"><ele>230.0</ele><time>2026-04-03T13:19:18.001Z</time></trkpt><trkpt lat="38.9314354141833" lon="-9.321650233856575"><ele>229.0</ele><time>2026-04-03T13:19:19.001Z</time></trkpt><trkpt lat="38.93147092554844" lon="-9.321563506733582"><ele>228.0</ele><time>2026-04-03T13:19:20.001Z</time></trkpt><trkpt lat="38.931496784575316" lon="-9.321470507519209"><ele>227.0</ele><time>2026-04-03T13:19:21.001Z</time></trkpt><trkpt lat="38.93152581978543" lon="-9.321271039090158"><ele>226.0</ele><time>2026-04-03T13:19:23.001Z</time></trkpt><trkpt lat="38.93208946020202" lon="-9.321175121425423"><ele>226.0</ele><time>2026-04-03T13:19:25.001Z</time></trkpt><trkpt lat="38.93214320193698" lon="-9.321064766342472"><ele>226.00000000000003</ele><time>2026-04-03T13:19:26.001Z</time></trkpt><trkpt lat="38.93220014526505" lon="-9.320987215197288"><ele>226.00000000000003</ele><time>2026-04-03T13:19:27.001Z</time></trkpt><trkpt lat="38.932268231271856" lon="-9.320929035793524"><ele>226.0</ele><time>2026-04-03T13:19:28.001Z</time></trkpt><trkpt lat="38.9323568990215" lon="-9.320897167898183"><ele>226.0</ele><time>2026-04-03T13:19:29.001Z</time></trkpt><trkpt lat="38.932451333259195" lon="-9.3208845329422"><ele>226.0</ele><time>2026-04-03T13:19:30.001Z</time></trkpt><trkpt lat="38.932510413913924" lon="-9.320836930906507"><ele>226.00000000000003</ele><time>2026-04-03T13:19:31.001Z</time></trkpt><trkpt lat="38.932553927491256" lon="-9.320727491023979"><ele>226.00000000000003</ele><time>2026-04-03T13:19:32.001Z</time></trkpt><trkpt lat="38.9326340311664" lon="-9.320646978685339"><ele>226.0</ele><time>2026-04-03T13:19:33.001Z</time></trkpt><trkpt lat="38.932707939064514" lon="-9.320532930491101"><ele>226.0</ele><time>2026-04-03T13:19:34.001Z</time></trkpt><trkpt lat="38.93280748012786" lon="-9.320433557608636"><ele>227.0</ele><time>2026-04-03T13:19:35.001Z</time></trkpt><trkpt lat="38.93291230010674" lon="-9.32036082689924"><ele>228.0</ele><time>2026-04-03T13:19:36.001Z</time></trkpt><trkpt lat="38.933021258312976" lon="-9.320284866560378"><ele>229.0</ele><time>2026-04-03T13:19:37.001Z</time></trkpt><trkpt lat="38.933123745757385" lon="-9.320211149958523"><ele>230.0</ele><time>2026-04-03T13:19:38.001Z</time></trkpt><trkpt lat="38.93330028263409" lon="-9.320244129870625"><ele>234.66666666666669</ele><time>2026-04-03T13:19:39.001Z</time></trkpt><trkpt lat="38.93340237591703" lon="-9.320127545580823"><ele>239.33333333333331</ele><time>2026-04-03T13:19:40.001Z</time></trkpt><trkpt lat="38.93351327737356" lon="-9.319998496033287"><ele>244.0</ele><time>2026-04-03T13:19:41.001Z</time></trkpt><trkpt lat="38.93363035715934" lon="-9.319850587267009"><ele>243.0</ele><time>2026-04-03T13:19:42.001Z</time></trkpt><trkpt lat="38.933722404735306" lon="-9.319716783777727"><ele>242.0</ele><time>2026-04-03T13:19:43.001Z</time></trkpt><trkpt lat="38.933795462175354" lon="-9.319603761702398"><ele>241.0</ele><time>2026-04-03T13:19:44.001Z</time></trkpt><trkpt lat="38.933870424678425" lon="-9.319464314761897"><ele>240.0</ele><time>2026-04-03T13:19:45.001Z</time></trkpt><trkpt lat="38.933932861877125" lon="-9.319310377846781"><ele>240.0</ele><time>2026-04-03T13:19:46.001Z</time></trkpt><trkpt lat="38.93398732553201" lon="-9.319158613083212"><ele>240.0</ele><time>2026-04-03T13:19:47.001Z</time></trkpt><trkpt lat="38.93403604834286" lon="-9.318993208725276"><ele>240.0</ele><time>2026-04-03T13:19:48.001Z</time></trkpt><trkpt lat="38.934078510718656" lon="-9.318795571382852"><ele>240.0</ele><time>2026-04-03T13:19:49.001Z</time></trkpt><trkpt lat="38.934105236314096" lon="-9.318594160923933"><ele>240.33333333333331</ele><time>2026-04-03T13:19:50.001Z</time></trkpt><trkpt lat="38.93412529626064" lon="-9.31837303847681"><ele>240.66666666666666</ele><time>2026-04-03T13:19:51.001Z</time></trkpt><trkpt lat="38.93414075020347" lon="-9.318146674243552"><ele>241.0</ele><time>2026-04-03T13:19:52.001Z</time></trkpt><trkpt lat="38.93415535543557" lon="-9.317919681053112"><ele>243.0</ele><time>2026-04-03T13:19:53.001Z</time></trkpt><trkpt lat="38.93416871259236" lon="-9.317712269323822"><ele>245.00000000000003</ele><time>2026-04-03T13:19:54.001Z</time></trkpt><trkpt lat="38.934178902447435" lon="-9.317554377062805"><ele>247.00000000000003</ele><time>2026-04-03T13:19:55.001Z</time></trkpt><trkpt lat="38.934186741061794" lon="-9.317432917450649"><ele>249.0</ele><time>2026-04-03T13:19:56.001Z</time></trkpt><trkpt lat="38.93419228882262" lon="-9.317346954659602"><ele>251.0</ele><time>2026-04-03T13:19:57.001Z</time></trkpt><trkpt lat="38.93407618615041" lon="-9.317252224471929"><ele>251.60000000000002</ele><time>2026-04-03T13:20:16.001Z</time></trkpt><trkpt lat="38.934043554054035" lon="-9.317111596730319"><ele>252.20000000000002</ele><time>2026-04-03T13:21:09.001Z</time></trkpt><trkpt lat="38.93405596544081" lon="-9.31702477392834"><ele>252.79999999999998</ele><time>2026-04-03T13:21:10.001Z</time></trkpt><trkpt lat="38.934071628195504" lon="-9.316926426896938"><ele>253.39999999999998</ele><time>2026-04-03T13:21:11.001Z</time></trkpt><trkpt lat="38.93422235897004" lon="-9.316874078343364"><ele>254.0</ele><time>2026-04-03T13:21:12.001Z</time></trkpt><trkpt lat="38.934245851804924" lon="-9.316497846464326"><ele>260.0</ele><time>2026-04-03T13:21:23.001Z</time></trkpt><trkpt lat="38.93425181392914" lon="-9.316396695969196"><ele>266.0</ele><time>2026-04-03T13:21:24.001Z</time></trkpt><trkpt lat="38.93425912856473" lon="-9.316278476024761"><ele>272.0</ele><time>2026-04-03T13:21:25.001Z</time></trkpt><trkpt lat="38.93426815073011" lon="-9.316132658798267"><ele>278.0</ele><time>2026-04-03T13:21:26.001Z</time></trkpt><trkpt lat="38.934277386244744" lon="-9.315983393385876"><ele>284.0</ele><time>2026-04-03T13:21:27.001Z</time></trkpt><trkpt lat="38.93428726397958" lon="-9.315823748372098"><ele>284.0</ele><time>2026-04-03T13:21:28.001Z</time></trkpt><trkpt lat="38.93429811553288" lon="-9.315648364521135"><ele>284.0</ele><time>2026-04-03T13:21:29.001Z</time></trkpt><trkpt lat="38.93430917512079" lon="-9.31548503337834"><ele>284.0</ele><time>2026-04-03T13:21:30.001Z</time></trkpt><trkpt lat="38.934322445837914" lon="-9.315312819728206"><ele>284.0</ele><time>2026-04-03T13:21:31.001Z</time></trkpt><trkpt lat="38.934335107134785" lon="-9.315187552345606"><ele>284.1666666666667</ele><time>2026-04-03T13:21:32.001Z</time></trkpt><trkpt lat="38.934346365197364" lon="-9.315090684898161"><ele>284.33333333333337</ele><time>2026-04-03T13:21:33.001Z</time></trkpt><trkpt lat="38.93436273646214" lon="-9.314975081708958"><ele>284.5</ele><time>2026-04-03T13:21:34.001Z</time></trkpt><trkpt lat="38.93438206525751" lon="-9.314867750623307"><ele>284.6666666666667</ele><time>2026-04-03T13:21:35.001Z</time></trkpt><trkpt lat="38.93440300912001" lon="-9.31476283730014"><ele>284.8333333333333</ele><time>2026-04-03T13:21:36.001Z</time></trkpt><trkpt lat="38.93442343722982" lon="-9.314677977985621"><ele>285.0</ele><time>2026-04-03T13:21:37.001Z</time></trkpt><trkpt lat="38.93427999521479" lon="-9.314531091600623"><ele>285.0</ele><time>2026-04-03T13:21:40.001Z</time></trkpt><trkpt lat="38.93425183481061" lon="-9.314603506390867"><ele>285.0</ele><time>2026-04-03T13:22:02Z</time></trkpt><trkpt lat="38.93427976507022" lon="-9.314690104440784"><ele>285.0</ele><time>2026-04-03T13:22:15Z</time></trkpt><trkpt lat="38.93426037401531" lon="-9.314784296885188"><ele>285.0</ele><time>2026-04-03T13:22:16Z</time></trkpt><trkpt lat="38.93424699748469" lon="-9.314907366151745"><ele>285.0</ele><time>2026-04-03T13:22:17Z</time></trkpt><trkpt lat="38.934217353482055" lon="-9.315044906445552"><ele>285.0</ele><time>2026-04-03T13:22:18Z</time></trkpt><trkpt lat="38.93419584881242" lon="-9.315150214005218"><ele>279.6</ele><time>2026-04-03T13:22:19Z</time></trkpt><trkpt lat="38.934183136852376" lon="-9.315245596671234"><ele>274.2</ele><time>2026-04-03T13:22:20Z</time></trkpt><trkpt lat="38.93415698381526" lon="-9.315345454677125"><ele>268.8</ele><time>2026-04-03T13:22:21Z</time></trkpt><trkpt lat="38.934130315509414" lon="-9.31550390063186"><ele>263.4</ele><time>2026-04-03T13:22:22Z</time></trkpt><trkpt lat="38.93410207522664" lon="-9.31569861600205"><ele>258.0</ele><time>2026-04-03T13:22:23Z</time></trkpt><trkpt lat="38.934067305911874" lon="-9.315899833539296"><ele>258.0</ele><time>2026-04-03T13:22:24Z</time></trkpt><trkpt lat="38.93405263522288" lon="-9.316113040325755"><ele>258.0</ele><time>2026-04-03T13:22:25Z</time></trkpt><trkpt lat="38.93405667347542" lon="-9.316302099780103"><ele>258.0</ele><time>2026-04-03T13:22:26Z</time></trkpt><trkpt lat="38.93406883852404" lon="-9.316473502384786"><ele>258.0</ele><time>2026-04-03T13:22:27Z</time></trkpt><trkpt lat="38.9340661985891" lon="-9.316615847229505"><ele>257.2</ele><time>2026-04-03T13:22:28Z</time></trkpt><trkpt lat="38.93405785210907" lon="-9.316726187632094"><ele>256.4</ele><time>2026-04-03T13:22:29Z</time></trkpt><trkpt lat="38.93401955358474" lon="-9.316816131890182"><ele>255.59999999999997</ele><time>2026-04-03T13:22:30Z</time></trkpt><trkpt lat="38.933940068923505" lon="-9.316901347641638"><ele>254.79999999999998</ele><time>2026-04-03T13:22:31Z</time></trkpt><trkpt lat="38.93385917651893" lon="-9.316983142738334"><ele>254.0</ele><time>2026-04-03T13:22:32Z</time></trkpt><trkpt lat="38.93380839336736" lon="-9.31708685540377"><ele>254.00000000000003</ele><time>2026-04-03T13:22:33Z</time></trkpt><trkpt lat="38.933795112941915" lon="-9.317191469522227"><ele>254.0</ele><time>2026-04-03T13:22:34Z</time></trkpt><trkpt lat="38.93380121812027" lon="-9.317286116926892"><ele>254.0</ele><time>2026-04-03T13:22:35Z</time></trkpt><trkpt lat="38.93379607211342" lon="-9.317397616067955"><ele>254.0</ele><time>2026-04-03T13:22:37Z</time></trkpt><trkpt lat="38.93371063488404" lon="-9.317321295002582"><ele>254.00000000000003</ele><time>2026-04-03T13:22:39Z</time></trkpt><trkpt lat="38.93372232054501" lon="-9.317241723405019"><ele>254.0</ele><time>2026-04-03T13:22:40Z</time></trkpt><trkpt lat="38.933755263220796" lon="-9.317123347134398"><ele>254.00000000000003</ele><time>2026-04-03T13:22:42Z</time></trkpt><trkpt lat="38.933718304733304" lon="-9.317026130421707"><ele>254.0</ele><time>2026-04-03T13:22:44Z</time></trkpt><trkpt lat="38.93365179739644" lon="-9.316973208534527"><ele>254.0</ele><time>2026-04-03T13:22:46Z</time></trkpt><trkpt lat="38.93356874383879" lon="-9.316924618257943"><ele>254.0</ele><time>2026-04-03T13:22:49Z</time></trkpt><trkpt lat="38.933510745014814" lon="-9.316873449907881"><ele>254.00000000000003</ele><time>2026-04-03T13:22:52Z</time></trkpt><trkpt lat="38.933450382561475" lon="-9.316839929305196"><ele>254.0</ele><time>2026-04-03T13:22:55Z</time></trkpt><trkpt lat="38.93335694167218" lon="-9.316826878605957"><ele>249.66666666666669</ele><time>2026-04-03T13:22:58Z</time></trkpt><trkpt lat="38.9332785194036" lon="-9.31682246645972"><ele>245.33333333333334</ele><time>2026-04-03T13:23:01Z</time></trkpt><trkpt lat="38.9332108163334" lon="-9.316809214763621"><ele>241.0</ele><time>2026-04-03T13:23:03Z</time></trkpt><trkpt lat="38.93314817911494" lon="-9.316783860715761"><ele>236.66666666666669</ele><time>2026-04-03T13:23:05Z</time></trkpt><trkpt lat="38.93307677803758" lon="-9.316729543751602"><ele>232.33333333333334</ele><time>2026-04-03T13:23:08Z</time></trkpt><trkpt lat="38.93300588694538" lon="-9.316680430817243"><ele>228.0</ele><time>2026-04-03T13:23:11Z</time></trkpt><trkpt lat="38.93293309166462" lon="-9.31662963419793"><ele>228.0</ele><time>2026-04-03T13:23:14Z</time></trkpt><trkpt lat="38.932862832256774" lon="-9.316578904501426"><ele>227.99999999999997</ele><time>2026-04-03T13:23:18Z</time></trkpt><trkpt lat="38.93279661229849" lon="-9.316568425166329"><ele>228.0</ele><time>2026-04-03T13:23:20Z</time></trkpt><trkpt lat="38.93271042318205" lon="-9.316620375864696"><ele>228.0</ele><time>2026-04-03T13:23:22.001Z</time></trkpt><trkpt lat="38.932708740392584" lon="-9.316714561163671"><ele>227.99999999999997</ele><time>2026-04-03T13:23:24.001Z</time></trkpt><trkpt lat="38.93265619902148" lon="-9.316763151770283"><ele>228.0</ele><time>2026-04-03T13:23:30Z</time></trkpt><trkpt lat="38.93262386187688" lon="-9.316837604109777"><ele>228.0</ele><time>2026-04-03T13:25:56Z</time></trkpt><trkpt lat="38.932658338750784" lon="-9.316757084482013"><ele>228.0</ele><time>2026-04-03T13:26:23Z</time></trkpt><trkpt lat="38.932704304929636" lon="-9.316701475758906"><ele>228.0</ele><time>2026-04-03T13:26:26Z</time></trkpt><trkpt lat="38.93274627971867" lon="-9.316605972126768"><ele>228.0</ele><time>2026-04-03T13:29:22Z</time></trkpt><trkpt lat="38.93280486715581" lon="-9.316527204493626"><ele>228.0</ele><time>2026-04-03T13:29:24Z</time></trkpt><trkpt lat="38.93289183451836" lon="-9.316586879970295"><ele>228.0</ele><time>2026-04-03T13:29:26Z</time></trkpt><trkpt lat="38.93296333151082" lon="-9.316658367148968"><ele>228.0</ele><time>2026-04-03T13:29:28Z</time></trkpt><trkpt lat="38.93305096822193" lon="-9.316705287582362"><ele>228.0</ele><time>2026-04-03T13:29:30Z</time></trkpt><trkpt lat="38.9331447894424" lon="-9.316765925034163"><ele>228.0</ele><time>2026-04-03T13:29:32Z</time></trkpt><trkpt lat="38.93321998491023" lon="-9.316805950732501"><ele>228.0</ele><time>2026-04-03T13:29:34Z</time></trkpt><trkpt lat="38.93331025368422" lon="-9.316821232533982"><ele>228.0</ele><time>2026-04-03T13:29:36Z</time></trkpt><trkpt lat="38.93340114972175" lon="-9.316811988704439"><ele>228.0</ele><time>2026-04-03T13:29:38Z</time></trkpt><trkpt lat="38.93347988083062" lon="-9.316838582525776"><ele>232.60000000000002</ele><time>2026-04-03T13:29:40Z</time></trkpt><trkpt lat="38.93356764017364" lon="-9.316896380608505"><ele>237.20000000000002</ele><time>2026-04-03T13:29:42Z</time></trkpt><trkpt lat="38.93364670332708" lon="-9.316965000625698"><ele>241.8</ele><time>2026-04-03T13:29:44Z</time></trkpt><trkpt lat="38.933723792836375" lon="-9.317048786535462"><ele>246.4</ele><time>2026-04-03T13:29:46Z</time></trkpt><trkpt lat="38.9337742605817" lon="-9.317166324451286"><ele>251.0</ele><time>2026-04-03T13:29:48Z</time></trkpt><trkpt lat="38.93376732253668" lon="-9.317297949923647"><ele>251.00000000000003</ele><time>2026-04-03T13:29:50Z</time></trkpt><trkpt lat="38.9338226447102" lon="-9.317236481434549"><ele>251.0</ele><time>2026-04-03T13:29:53Z</time></trkpt><trkpt lat="38.93385471284977" lon="-9.31714599972308"><ele>251.0</ele><time>2026-04-03T13:29:54Z</time></trkpt><trkpt lat="38.933857813320955" lon="-9.317040211112511"><ele>251.0</ele><time>2026-04-03T13:29:55Z</time></trkpt><trkpt lat="38.9338826629834" lon="-9.316916904833025"><ele>251.00000000000003</ele><time>2026-04-03T13:29:56Z</time></trkpt><trkpt lat="38.9339427534471" lon="-9.316830118585452"><ele>251.0</ele><time>2026-04-03T13:29:57Z</time></trkpt><trkpt lat="38.93399350131632" lon="-9.316764534233796"><ele>251.00000000000003</ele><time>2026-04-03T13:29:58Z</time></trkpt><trkpt lat="38.93405330192626" lon="-9.316790769789446"><ele>251.0</ele><time>2026-04-03T13:29:59Z</time></trkpt><trkpt lat="38.934101266802" lon="-9.316879743389809"><ele>251.0</ele><time>2026-04-03T13:30:00Z</time></trkpt><trkpt lat="38.93408526716453" lon="-9.317004347988062"><ele>251.0</ele><time>2026-04-03T13:30:01Z</time></trkpt><trkpt lat="38.9340668906369" lon="-9.317093372334064"><ele>251.00000000000003</ele><time>2026-04-03T13:30:02Z</time></trkpt><trkpt lat="38.93406900229958" lon="-9.31721432708376"><ele>251.0</ele><time>2026-04-03T13:30:04Z</time></trkpt><trkpt lat="38.93410421431906" lon="-9.317283354418251"><ele>251.0</ele><time>2026-04-03T13:30:17Z</time></trkpt><trkpt lat="38.93405128588308" lon="-9.3173562050834"><ele>251.00000000000003</ele><time>2026-04-03T13:31:16Z</time></trkpt><trkpt lat="38.934022888773484" lon="-9.317526661957807"><ele>251.00000000000003</ele><time>2026-04-03T13:31:18Z</time></trkpt><trkpt lat="38.934007757730825" lon="-9.317663220537344"><ele>251.0</ele><time>2026-04-03T13:31:19Z</time></trkpt><trkpt lat="38.93398717962534" lon="-9.317825268058314"><ele>251.0</ele><time>2026-04-03T13:31:20Z</time></trkpt><trkpt lat="38.93397331497795" lon="-9.317979773795164"><ele>248.5</ele><time>2026-04-03T13:31:21Z</time></trkpt><trkpt lat="38.93395821579404" lon="-9.318120676624407"><ele>246.0</ele><time>2026-04-03T13:31:22Z</time></trkpt><trkpt lat="38.9339431047922" lon="-9.318266551224685"><ele>243.5</ele><time>2026-04-03T13:31:23Z</time></trkpt><trkpt lat="38.9339375872008" lon="-9.31842711886275"><ele>241.0</ele><time>2026-04-03T13:31:24Z</time></trkpt><trkpt lat="38.933934041336975" lon="-9.31858782544964"><ele>241.0</ele><time>2026-04-03T13:31:25Z</time></trkpt><trkpt lat="38.93393654937835" lon="-9.318732131459848"><ele>241.00000000000003</ele><time>2026-04-03T13:31:26Z</time></trkpt><trkpt lat="38.9339244538934" lon="-9.318863958553683"><ele>241.00000000000003</ele><time>2026-04-03T13:31:27Z</time></trkpt><trkpt lat="38.933903747796194" lon="-9.318975666401965"><ele>241.0</ele><time>2026-04-03T13:31:28Z</time></trkpt><trkpt lat="38.93388720412583" lon="-9.319070728426022"><ele>241.0</ele><time>2026-04-03T13:31:29Z</time></trkpt><trkpt lat="38.93386459814732" lon="-9.319160755994227"><ele>240.75</ele><time>2026-04-03T13:31:30Z</time></trkpt><trkpt lat="38.93400073911552" lon="-9.319354194225106"><ele>240.5</ele><time>2026-04-03T13:31:31Z</time></trkpt><trkpt lat="38.9339575183224" lon="-9.319462246385273"><ele>240.25</ele><time>2026-04-03T13:31:32Z</time></trkpt><trkpt lat="38.93388608365556" lon="-9.319614602545387"><ele>240.0</ele><time>2026-04-03T13:31:33Z</time></trkpt><trkpt lat="38.933798837541445" lon="-9.319756422344966"><ele>241.0</ele><time>2026-04-03T13:31:34Z</time></trkpt><trkpt lat="38.93371527813678" lon="-9.319881353621222"><ele>242.0</ele><time>2026-04-03T13:31:35Z</time></trkpt><trkpt lat="38.93362582483878" lon="-9.319997249560847"><ele>243.0</ele><time>2026-04-03T13:31:36Z</time></trkpt><trkpt lat="38.93353221912203" lon="-9.320110951257671"><ele>244.0</ele><time>2026-04-03T13:31:37Z</time></trkpt><trkpt lat="38.93344454588855" lon="-9.320213577486063"><ele>243.5</ele><time>2026-04-03T13:31:38Z</time></trkpt><trkpt lat="38.93336267611033" lon="-9.32030663665814"><ele>243.0</ele><time>2026-04-03T13:31:39Z</time></trkpt><trkpt lat="38.93326474368904" lon="-9.320417291096685"><ele>242.5</ele><time>2026-04-03T13:31:40Z</time></trkpt><trkpt lat="38.933162084844234" lon="-9.320532694849943"><ele>242.0</ele><time>2026-04-03T13:31:41Z</time></trkpt><trkpt lat="38.93306776644398" lon="-9.320639428454072"><ele>242.0</ele><time>2026-04-03T13:31:42Z</time></trkpt><trkpt lat="38.93297351660129" lon="-9.320746506754707"><ele>242.0</ele><time>2026-04-03T13:31:43Z</time></trkpt><trkpt lat="38.932870146986794" lon="-9.32086249481503"><ele>242.0</ele><time>2026-04-03T13:31:44Z</time></trkpt><trkpt lat="38.93277626922259" lon="-9.320965408585135"><ele>242.0</ele><time>2026-04-03T13:31:45Z</time></trkpt><trkpt lat="38.93269447021697" lon="-9.321054754299327"><ele>242.00000000000003</ele><time>2026-04-03T13:31:46Z</time></trkpt><trkpt lat="38.93262675600119" lon="-9.321128715757819"><ele>242.0</ele><time>2026-04-03T13:31:47Z</time></trkpt><trkpt lat="38.93256327421072" lon="-9.321199609472893"><ele>242.0</ele><time>2026-04-03T13:31:48Z</time></trkpt><trkpt lat="38.93249548063425" lon="-9.321276372454989"><ele>242.0</ele><time>2026-04-03T13:31:49Z</time></trkpt><trkpt lat="38.932438241554024" lon="-9.32134286059997"><ele>242.00000000000003</ele><time>2026-04-03T13:31:50Z</time></trkpt><trkpt lat="38.93236062192888" lon="-9.321433975658286"><ele>242.0</ele><time>2026-04-03T13:31:51Z</time></trkpt><trkpt lat="38.932294741619636" lon="-9.321519749481036"><ele>241.39999999999998</ele><time>2026-04-03T13:31:52Z</time></trkpt><trkpt lat="38.93223708767457" lon="-9.321597280794174"><ele>240.79999999999998</ele><time>2026-04-03T13:31:53Z</time></trkpt><trkpt lat="38.93217589268909" lon="-9.321695068419256"><ele>240.2</ele><time>2026-04-03T13:31:54Z</time></trkpt><trkpt lat="38.932119901591626" lon="-9.321799325846694"><ele>239.6</ele><time>2026-04-03T13:31:55Z</time></trkpt><trkpt lat="38.93207007946544" lon="-9.321899949192465"><ele>239.0</ele><time>2026-04-03T13:31:56Z</time></trkpt><trkpt lat="38.93202124712424" lon="-9.32201320064231"><ele>239.0</ele><time>2026-04-03T13:31:57Z</time></trkpt><trkpt lat="38.931970659456795" lon="-9.322143718221916"><ele>238.99999999999997</ele><time>2026-04-03T13:31:58Z</time></trkpt><trkpt lat="38.931940300644754" lon="-9.322257509771651"><ele>238.99999999999997</ele><time>2026-04-03T13:31:59Z</time></trkpt><trkpt lat="38.93190577161481" lon="-9.32238853124717"><ele>239.0</ele><time>2026-04-03T13:32:00Z</time></trkpt><trkpt lat="38.931876223948045" lon="-9.322518700627393"><ele>239.0</ele><time>2026-04-03T13:32:01Z</time></trkpt><trkpt lat="38.931856540914694" lon="-9.322636690348395"><ele>241.2</ele><time>2026-04-03T13:32:02Z</time></trkpt><trkpt lat="38.9318394401463" lon="-9.322766578573013"><ele>243.39999999999998</ele><time>2026-04-03T13:32:03Z</time></trkpt><trkpt lat="38.93182935177837" lon="-9.322894782748946"><ele>245.6</ele><time>2026-04-03T13:32:04Z</time></trkpt><trkpt lat="38.93182561142299" lon="-9.323046663267041"><ele>247.8</ele><time>2026-04-03T13:32:05Z</time></trkpt><trkpt lat="38.93182829047734" lon="-9.323203943759799"><ele>250.0</ele><time>2026-04-03T13:32:06Z</time></trkpt><trkpt lat="38.93183791004959" lon="-9.323337416799633"><ele>249.8</ele><time>2026-04-03T13:32:07Z</time></trkpt><trkpt lat="38.931849327892" lon="-9.323452679505026"><ele>249.6</ele><time>2026-04-03T13:32:08Z</time></trkpt><trkpt lat="38.93186563256617" lon="-9.323568485932263"><ele>249.39999999999998</ele><time>2026-04-03T13:32:09Z</time></trkpt><trkpt lat="38.93188854481502" lon="-9.323721744577513"><ele>249.2</ele><time>2026-04-03T13:32:10Z</time></trkpt><trkpt lat="38.93191279200644" lon="-9.323876896810942"><ele>249.0</ele><time>2026-04-03T13:32:11Z</time></trkpt><trkpt lat="38.9319359556382" lon="-9.324024674005921"><ele>249.0</ele><time>2026-04-03T13:32:12Z</time></trkpt><trkpt lat="38.931957630895134" lon="-9.324164366775584"><ele>249.0</ele><time>2026-04-03T13:32:13Z</time></trkpt><trkpt lat="38.93197554996386" lon="-9.3242864226257"><ele>249.0</ele><time>2026-04-03T13:32:14Z</time></trkpt><trkpt lat="38.931989763052805" lon="-9.324379885962816"><ele>249.0</ele><time>2026-04-03T13:32:15Z</time></trkpt><trkpt lat="38.93200613478009" lon="-9.324477935118768"><ele>249.0</ele><time>2026-04-03T13:32:16Z</time></trkpt><trkpt lat="38.93202262182755" lon="-9.324576674872121"><ele>249.0</ele><time>2026-04-03T13:32:17Z</time></trkpt><trkpt lat="38.93204143021639" lon="-9.324690220138944"><ele>248.5</ele><time>2026-04-03T13:32:18Z</time></trkpt><trkpt lat="38.93205917203822" lon="-9.32480700141307"><ele>248.0</ele><time>2026-04-03T13:32:19Z</time></trkpt><trkpt lat="38.932060106679096" lon="-9.324899363670754"><ele>247.5</ele><time>2026-04-03T13:32:20Z</time></trkpt><trkpt lat="38.93206009160552" lon="-9.325009993220704"><ele>247.0</ele><time>2026-04-03T13:32:21Z</time></trkpt><trkpt lat="38.931428761912116" lon="-9.32526522876921"><ele>243.6</ele><time>2026-04-03T13:32:22Z</time></trkpt><trkpt lat="38.9313578424245" lon="-9.32538703713103"><ele>240.2</ele><time>2026-04-03T13:32:23Z</time></trkpt><trkpt lat="38.931277133006695" lon="-9.325495966022826"><ele>236.8</ele><time>2026-04-03T13:32:24Z</time></trkpt><trkpt lat="38.931216332724055" lon="-9.325597598098156"><ele>233.4</ele><time>2026-04-03T13:32:25Z</time></trkpt><trkpt lat="38.931202387690625" lon="-9.325679713653319"><ele>230.0</ele><time>2026-04-03T13:32:26Z</time></trkpt><trkpt lat="38.93123558903167" lon="-9.325765675192487"><ele>230.0</ele><time>2026-04-03T13:32:27Z</time></trkpt><trkpt lat="38.93131963153732" lon="-9.325840292670506"><ele>230.0</ele><time>2026-04-03T13:32:28Z</time></trkpt><trkpt lat="38.931433474366465" lon="-9.325874062418206"><ele>230.0</ele><time>2026-04-03T13:32:29Z</time></trkpt><trkpt lat="38.931530426253424" lon="-9.32594199774042"><ele>230.0</ele><time>2026-04-03T13:32:30Z</time></trkpt><trkpt lat="38.931632147583585" lon="-9.326013120155226"><ele>230.0</ele><time>2026-04-03T13:32:31Z</time></trkpt><trkpt lat="38.93174667167241" lon="-9.326071243687393"><ele>231.75</ele><time>2026-04-03T13:32:32Z</time></trkpt><trkpt lat="38.931864657925345" lon="-9.326132671362126"><ele>233.5</ele><time>2026-04-03T13:32:33Z</time></trkpt><trkpt lat="38.9319833064052" lon="-9.326212828899855"><ele>235.25</ele><time>2026-04-03T13:32:34Z</time></trkpt><trkpt lat="38.932084017942046" lon="-9.326319691642249"><ele>237.0</ele><time>2026-04-03T13:32:35Z</time></trkpt><trkpt lat="38.932146829106735" lon="-9.32645538142142"><ele>237.0</ele><time>2026-04-03T13:32:36Z</time></trkpt><trkpt lat="38.93217754945048" lon="-9.326560816432774"><ele>237.0</ele><time>2026-04-03T13:32:37Z</time></trkpt><trkpt lat="38.93218962430029" lon="-9.326649540135513"><ele>237.0</ele><time>2026-04-03T13:32:38Z</time></trkpt><trkpt lat="38.93224903594407" lon="-9.326720545495572"><ele>237.0</ele><time>2026-04-03T13:32:40Z</time></trkpt><trkpt lat="38.93230116314057" lon="-9.326623824907239"><ele>237.0</ele><time>2026-04-03T13:32:41Z</time></trkpt><trkpt lat="38.93232263205227" lon="-9.32648420584123"><ele>237.0</ele><time>2026-04-03T13:32:42Z</time></trkpt><trkpt lat="38.93227916390887" lon="-9.32634678919937"><ele>238.75</ele><time>2026-04-03T13:32:43Z</time></trkpt><trkpt lat="38.932216335661614" lon="-9.326187085788344"><ele>240.5</ele><time>2026-04-03T13:32:44Z</time></trkpt><trkpt lat="38.93217741786746" lon="-9.326015813116042"><ele>242.25</ele><time>2026-04-03T13:32:45Z</time></trkpt><trkpt lat="38.93214750104433" lon="-9.325835052515954"><ele>244.0</ele><time>2026-04-03T13:32:46Z</time></trkpt><trkpt lat="38.93212125609425" lon="-9.325635107658378"><ele>245.0</ele><time>2026-04-03T13:32:47Z</time></trkpt><trkpt lat="38.932089688390995" lon="-9.325420281715255"><ele>246.0</ele><time>2026-04-03T13:32:48Z</time></trkpt><trkpt lat="38.93205636148933" lon="-9.325207473195661"><ele>247.0</ele><time>2026-04-03T13:32:49Z</time></trkpt><trkpt lat="38.93202241268235" lon="-9.324979435781342"><ele>247.0</ele><time>2026-04-03T13:32:50Z</time></trkpt><trkpt lat="38.93198683366748" lon="-9.32473767884492"><ele>247.0</ele><time>2026-04-03T13:32:51Z</time></trkpt><trkpt lat="38.93194155919581" lon="-9.324491262348381"><ele>247.0</ele><time>2026-04-03T13:32:52Z</time></trkpt><trkpt lat="38.931900833733394" lon="-9.3242391790208"><ele>247.66666666666666</ele><time>2026-04-03T13:32:53Z</time></trkpt><trkpt lat="38.931858077871574" lon="-9.323985183151976"><ele>248.33333333333331</ele><time>2026-04-03T13:32:54Z</time></trkpt><trkpt lat="38.93181482032154" lon="-9.323724740951507"><ele>249.0</ele><time>2026-04-03T13:32:55Z</time></trkpt><trkpt lat="38.93177881035631" lon="-9.323461480073131"><ele>249.33333333333331</ele><time>2026-04-03T13:32:56Z</time></trkpt><trkpt lat="38.93175296907465" lon="-9.323186464361925"><ele>249.66666666666666</ele><time>2026-04-03T13:32:57Z</time></trkpt><trkpt lat="38.93174760714564" lon="-9.322906780221924"><ele>250.0</ele><time>2026-04-03T13:32:58Z</time></trkpt><trkpt lat="38.931767580764664" lon="-9.322655293999057"><ele>250.0</ele><time>2026-04-03T13:32:59Z</time></trkpt><trkpt lat="38.931816740174966" lon="-9.322396753667984"><ele>250.0</ele><time>2026-04-03T13:33:00Z</time></trkpt><trkpt lat="38.931884941583824" lon="-9.322145096236156"><ele>250.0</ele><time>2026-04-03T13:33:01Z</time></trkpt><trkpt lat="38.93197147212891" lon="-9.321897978407751"><ele>246.33333333333331</ele><time>2026-04-03T13:33:02Z</time></trkpt><trkpt lat="38.93210028875357" lon="-9.321682373054921"><ele>242.66666666666669</ele><time>2026-04-03T13:33:03Z</time></trkpt><trkpt lat="38.932235728998165" lon="-9.321470380895732"><ele>239.0</ele><time>2026-04-03T13:33:04Z</time></trkpt><trkpt lat="38.932385058160065" lon="-9.321276499184586"><ele>240.0</ele><time>2026-04-03T13:33:05Z</time></trkpt><trkpt lat="38.93253661928793" lon="-9.32108179702941"><ele>241.0</ele><time>2026-04-03T13:33:06Z</time></trkpt><trkpt lat="38.93270598327378" lon="-9.320924790150048"><ele>242.0</ele><time>2026-04-03T13:33:07Z</time></trkpt><trkpt lat="38.93286497734173" lon="-9.3207722794823"><ele>242.0</ele><time>2026-04-03T13:33:08Z</time></trkpt><trkpt lat="38.933016822847186" lon="-9.32061394928376"><ele>242.0</ele><time>2026-04-03T13:33:09Z</time></trkpt><trkpt lat="38.933157587609394" lon="-9.320452481251383"><ele>242.0</ele><time>2026-04-03T13:33:10Z</time></trkpt><trkpt lat="38.93329825249473" lon="-9.320297359748867"><ele>242.66666666666669</ele><time>2026-04-03T13:33:11Z</time></trkpt><trkpt lat="38.93341754440893" lon="-9.320157198951248"><ele>243.33333333333331</ele><time>2026-04-03T13:33:12Z</time></trkpt><trkpt lat="38.9335301887118" lon="-9.320033716564023"><ele>244.0</ele><time>2026-04-03T13:33:13Z</time></trkpt><trkpt lat="38.933647476372116" lon="-9.31990132010701"><ele>244.0</ele><time>2026-04-03T13:33:14Z</time></trkpt><trkpt lat="38.9337728184841" lon="-9.31974248670662"><ele>244.0</ele><time>2026-04-03T13:33:15Z</time></trkpt><trkpt lat="38.93388597627184" lon="-9.31956791979948"><ele>244.0</ele><time>2026-04-03T13:33:16Z</time></trkpt><trkpt lat="38.93396973245226" lon="-9.31935934870316"><ele>243.0</ele><time>2026-04-03T13:33:17Z</time></trkpt><trkpt lat="38.93404631560262" lon="-9.319141183499971"><ele>242.0</ele><time>2026-04-03T13:33:18Z</time></trkpt><trkpt lat="38.93410926174491" lon="-9.318912835388806"><ele>241.0</ele><time>2026-04-03T13:33:19Z</time></trkpt><trkpt lat="38.93414517093237" lon="-9.318683763403838"><ele>241.0</ele><time>2026-04-03T13:33:20Z</time></trkpt><trkpt lat="38.934170561439615" lon="-9.318438879542965"><ele>241.0</ele><time>2026-04-03T13:33:21Z</time></trkpt><trkpt lat="38.93418449678074" lon="-9.318189838879052"><ele>241.0</ele><time>2026-04-03T13:33:22Z</time></trkpt><trkpt lat="38.934188442809024" lon="-9.317945667978591"><ele>244.33333333333331</ele><time>2026-04-03T13:33:23Z</time></trkpt><trkpt lat="38.934199515511466" lon="-9.317701236925446"><ele>247.66666666666669</ele><time>2026-04-03T13:33:24Z</time></trkpt><trkpt lat="38.93421582015653" lon="-9.31745642453051"><ele>251.0</ele><time>2026-04-03T13:33:25Z</time></trkpt><trkpt lat="38.934229257584256" lon="-9.31720964986581"><ele>261.6666666666667</ele><time>2026-04-03T13:33:26Z</time></trkpt><trkpt lat="38.9342398989435" lon="-9.316960503859054"><ele>272.3333333333333</ele><time>2026-04-03T13:33:27Z</time></trkpt><trkpt lat="38.93425540566102" lon="-9.316706141201204"><ele>283.0</ele><time>2026-04-03T13:33:28Z</time></trkpt><trkpt lat="38.934268215068094" lon="-9.3164605025951"><ele>283.3333333333333</ele><time>2026-04-03T13:33:29Z</time></trkpt><trkpt lat="38.93428494113644" lon="-9.31620912592847"><ele>283.6666666666667</ele><time>2026-04-03T13:33:30Z</time></trkpt><trkpt lat="38.93430209713471" lon="-9.315951744919635"><ele>284.0</ele><time>2026-04-03T13:33:31Z</time></trkpt><trkpt lat="38.9343217641591" lon="-9.315702327727662"><ele>284.33333333333337</ele><time>2026-04-03T13:33:32Z</time></trkpt><trkpt lat="38.93433780762893" lon="-9.315464109564724"><ele>284.6666666666667</ele><time>2026-04-03T13:33:33Z</time></trkpt><trkpt lat="38.93435845169462" lon="-9.315229943970456"><ele>285.0</ele><time>2026-04-03T13:33:34Z</time></trkpt><trkpt lat="38.93438294316123" lon="-9.315001840510549"><ele>285.0</ele><time>2026-04-03T13:33:35Z</time></trkpt><trkpt lat="38.93441869422677" lon="-9.314776772903542"><ele>285.0</ele><time>2026-04-03T13:33:36Z</time></trkpt><trkpt lat="38.934474862918236" lon="-9.314546901951955"><ele>285.0</ele><time>2026-04-03T13:33:37Z</time></trkpt><trkpt lat="38.93454469568657" lon="-9.314326495573011"><ele>282.3333333333333</ele><time>2026-04-03T13:33:38Z</time></trkpt><trkpt lat="38.93462435980205" lon="-9.314103686812334"><ele>279.66666666666663</ele><time>2026-04-03T13:33:39Z</time></trkpt><trkpt lat="38.93470954821384" lon="-9.31388738640301"><ele>277.0</ele><time>2026-04-03T13:33:40Z</time></trkpt><trkpt lat="38.93479904560792" lon="-9.313673915606705"><ele>274.0</ele><time>2026-04-03T13:33:41Z</time></trkpt><trkpt lat="38.93487186507269" lon="-9.313480412475307"><ele>271.0</ele><time>2026-04-03T13:33:42Z</time></trkpt><trkpt lat="38.934947626131255" lon="-9.313277110650846"><ele>268.0</ele><time>2026-04-03T13:33:43Z</time></trkpt><trkpt lat="38.93503137928996" lon="-9.313080251837142"><ele>273.3333333333333</ele><time>2026-04-03T13:33:44Z</time></trkpt><trkpt lat="38.935114982196744" lon="-9.312889699052345"><ele>278.6666666666667</ele><time>2026-04-03T13:33:45Z</time></trkpt><trkpt lat="38.93519304308977" lon="-9.312706668697945"><ele>284.0</ele><time>2026-04-03T13:33:46Z</time></trkpt><trkpt lat="38.935263611789914" lon="-9.312560839814566"><ele>284.0</ele><time>2026-04-03T13:33:47Z</time></trkpt><trkpt lat="38.93533347821139" lon="-9.312420570785918"><ele>284.0</ele><time>2026-04-03T13:33:48Z</time></trkpt><trkpt lat="38.93539866230285" lon="-9.312289472770283"><ele>284.0</ele><time>2026-04-03T13:33:49Z</time></trkpt><trkpt lat="38.935455059003075" lon="-9.312174477625803"><ele>284.0</ele><time>2026-04-03T13:33:50Z</time></trkpt><trkpt lat="38.93550366790884" lon="-9.312059881283949"><ele>284.83333333333337</ele><time>2026-04-03T13:33:51Z</time></trkpt><trkpt lat="38.93553838896592" lon="-9.311954387603672"><ele>285.6666666666667</ele><time>2026-04-03T13:33:52Z</time></trkpt><trkpt lat="38.93553987461839" lon="-9.311868852775945"><ele>286.5</ele><time>2026-04-03T13:33:53Z</time></trkpt><trkpt lat="38.93554968010997" lon="-9.31178325303726"><ele>287.3333333333333</ele><time>2026-04-03T13:33:55Z</time></trkpt><trkpt lat="38.93555230433223" lon="-9.311658920907583"><ele>288.16666666666663</ele><time>2026-04-03T13:34:09Z</time></trkpt><trkpt lat="38.935533077529456" lon="-9.311560938291498"><ele>289.0</ele><time>2026-04-03T13:34:10Z</time></trkpt><trkpt lat="38.93554921153838" lon="-9.31145409422239"><ele>289.75</ele><time>2026-04-03T13:34:11Z</time></trkpt><trkpt lat="38.935525908313245" lon="-9.311343215904298"><ele>290.5</ele><time>2026-04-03T13:34:12Z</time></trkpt><trkpt lat="38.935444278008234" lon="-9.311245222899455"><ele>291.25</ele><time>2026-04-03T13:34:13Z</time></trkpt><trkpt lat="38.935342543179615" lon="-9.311140986670663"><ele>292.0</ele><time>2026-04-03T13:34:14Z</time></trkpt><trkpt lat="38.935203573227184" lon="-9.311062561024844"><ele>292.0</ele><time>2026-04-03T13:34:15Z</time></trkpt><trkpt lat="38.9350711251986" lon="-9.310960152687091"><ele>292.0</ele><time>2026-04-03T13:34:16Z</time></trkpt><trkpt lat="38.93493633709181" lon="-9.31084060560039"><ele>292.0</ele><time>2026-04-03T13:34:17Z</time></trkpt><trkpt lat="38.934794285168124" lon="-9.310712545547455"><ele>290.3333333333333</ele><time>2026-04-03T13:34:18Z</time></trkpt><trkpt lat="38.934643126147115" lon="-9.3105828749644"><ele>288.6666666666667</ele><time>2026-04-03T13:34:19Z</time></trkpt><trkpt lat="38.93448048427399" lon="-9.310496054245727"><ele>287.0</ele><time>2026-04-03T13:34:20Z</time></trkpt><trkpt lat="38.93432074538236" lon="-9.310432127160766"><ele>287.6666666666667</ele><time>2026-04-03T13:34:21Z</time></trkpt><trkpt lat="38.93414093776898" lon="-9.310414178846"><ele>288.3333333333333</ele><time>2026-04-03T13:34:22Z</time></trkpt><trkpt lat="38.9339738687101" lon="-9.31048586000015"><ele>289.0</ele><time>2026-04-03T13:34:23Z</time></trkpt><trkpt lat="38.93379050393008" lon="-9.310540666251674"><ele>287.66666666666663</ele><time>2026-04-03T13:34:24Z</time></trkpt><trkpt lat="38.93360338992191" lon="-9.31059776059885"><ele>286.3333333333333</ele><time>2026-04-03T13:34:25Z</time></trkpt><trkpt lat="38.93341472086672" lon="-9.310660249354196"><ele>285.0</ele><time>2026-04-03T13:34:26Z</time></trkpt><trkpt lat="38.933222515254705" lon="-9.310721120584311"><ele>285.0</ele><time>2026-04-03T13:34:27Z</time></trkpt><trkpt lat="38.93302468166178" lon="-9.310777274689663"><ele>285.0</ele><time>2026-04-03T13:34:28Z</time></trkpt><trkpt lat="38.93284668241521" lon="-9.31083082521474"><ele>285.0</ele><time>2026-04-03T13:34:29Z</time></trkpt><trkpt lat="38.93268482312832" lon="-9.31087243481648"><ele>285.6666666666667</ele><time>2026-04-03T13:34:30Z</time></trkpt><trkpt lat="38.93252842325593" lon="-9.31090901410961"><ele>286.33333333333337</ele><time>2026-04-03T13:34:31Z</time></trkpt><trkpt lat="38.93237307420879" lon="-9.310933386921405"><ele>287.0</ele><time>2026-04-03T13:34:32Z</time></trkpt><trkpt lat="38.932210055374355" lon="-9.31095377664188"><ele>287.0</ele><time>2026-04-03T13:34:33Z</time></trkpt><trkpt lat="38.932040431544074" lon="-9.31097423404696"><ele>287.0</ele><time>2026-04-03T13:34:34Z</time></trkpt><trkpt lat="38.93186875728111" lon="-9.31099706559666"><ele>287.0</ele><time>2026-04-03T13:34:35Z</time></trkpt><trkpt lat="38.93170137539245" lon="-9.311020783890749"><ele>284.6666666666667</ele><time>2026-04-03T13:34:36Z</time></trkpt><trkpt lat="38.93152998580416" lon="-9.31104292117326"><ele>282.3333333333333</ele><time>2026-04-03T13:34:37Z</time></trkpt><trkpt lat="38.93135944516529" lon="-9.311054148494163"><ele>280.0</ele><time>2026-04-03T13:34:38Z</time></trkpt><trkpt lat="38.93118812818854" lon="-9.311066107470042"><ele>280.0</ele><time>2026-04-03T13:34:39Z</time></trkpt><trkpt lat="38.9310154007507" lon="-9.311072663591705"><ele>280.0</ele><time>2026-04-03T13:34:40Z</time></trkpt><trkpt lat="38.930841286794795" lon="-9.31106690229711"><ele>280.0</ele><time>2026-04-03T13:34:41Z</time></trkpt><trkpt lat="38.930669265450135" lon="-9.311065592337693"><ele>277.3333333333333</ele><time>2026-04-03T13:34:42Z</time></trkpt><trkpt lat="38.930498304208655" lon="-9.31106763520891"><ele>274.6666666666667</ele><time>2026-04-03T13:34:43Z</time></trkpt><trkpt lat="38.9303311562423" lon="-9.311063232897665"><ele>272.0</ele><time>2026-04-03T13:34:44Z</time></trkpt><trkpt lat="38.93017477344508" lon="-9.311059898055511"><ele>272.25</ele><time>2026-04-03T13:34:45Z</time></trkpt><trkpt lat="38.930020607129464" lon="-9.311064410746884"><ele>272.5</ele><time>2026-04-03T13:34:46Z</time></trkpt><trkpt lat="38.929872952092744" lon="-9.311073696529162"><ele>272.75</ele><time>2026-04-03T13:34:47Z</time></trkpt><trkpt lat="38.92975073709261" lon="-9.311070655134843"><ele>273.0</ele><time>2026-04-03T13:34:48Z</time></trkpt><trkpt lat="38.92964113242692" lon="-9.311091060732396"><ele>273.0</ele><time>2026-04-03T13:34:49Z</time></trkpt><trkpt lat="38.929531671865014" lon="-9.311126982804922"><ele>273.0</ele><time>2026-04-03T13:34:50Z</time></trkpt><trkpt lat="38.92943205228646" lon="-9.31116880947464"><ele>273.0</ele><time>2026-04-03T13:34:51Z</time></trkpt><trkpt lat="38.9293370283955" lon="-9.311212136097703"><ele>273.0</ele><time>2026-04-03T13:34:52Z</time></trkpt><trkpt lat="38.92921551379021" lon="-9.311140740343614"><ele>273.3333333333333</ele><time>2026-04-03T13:34:53Z</time></trkpt><trkpt lat="38.929127166388305" lon="-9.311147663314289"><ele>273.6666666666667</ele><time>2026-04-03T13:34:54Z</time></trkpt><trkpt lat="38.9290529620619" lon="-9.311187366799992"><ele>274.0</ele><time>2026-04-03T13:34:55Z</time></trkpt><trkpt lat="38.92896694829063" lon="-9.311215208912323"><ele>274.33333333333337</ele><time>2026-04-03T13:34:56Z</time></trkpt><trkpt lat="38.92888010510246" lon="-9.311238705731467"><ele>274.6666666666667</ele><time>2026-04-03T13:34:57Z</time></trkpt><trkpt lat="38.92880006675332" lon="-9.311274437961657"><ele>275.0</ele><time>2026-04-03T13:34:58Z</time></trkpt><trkpt lat="38.92870767678706" lon="-9.311277807722101"><ele>275.0</ele><time>2026-04-03T13:34:59Z</time></trkpt><trkpt lat="38.92861691579036" lon="-9.31130964132712"><ele>275.0</ele><time>2026-04-03T13:35:00Z</time></trkpt><trkpt lat="38.928534241997674" lon="-9.311307433524803"><ele>275.0</ele><time>2026-04-03T13:35:01Z</time></trkpt><trkpt lat="38.92845304930495" lon="-9.311267139990075"><ele>275.0</ele><time>2026-04-03T13:35:03Z</time></trkpt><trkpt lat="38.92843300207355" lon="-9.311133755085713"><ele>275.0</ele><time>2026-04-03T13:35:12Z</time></trkpt><trkpt lat="38.92865944363851" lon="-9.311284977162948"><ele>275.0</ele><time>2026-04-03T13:35:13Z</time></trkpt><trkpt lat="38.928758960168814" lon="-9.311262255666684"><ele>275.0</ele><time>2026-04-03T13:35:14Z</time></trkpt><trkpt lat="38.92883415761748" lon="-9.311241552919501"><ele>275.0</ele><time>2026-04-03T13:35:15Z</time></trkpt><trkpt lat="38.92894203547403" lon="-9.311244166952783"><ele>275.0</ele><time>2026-04-03T13:35:17Z</time></trkpt><trkpt lat="38.92898094215948" lon="-9.311308679665427"><ele>275.0</ele><time>2026-04-03T13:35:18Z</time></trkpt><trkpt lat="38.92898479770182" lon="-9.31140951923794"><ele>275.0</ele><time>2026-04-03T13:35:20Z</time></trkpt><trkpt lat="38.92891425847624" lon="-9.31148753736781"><ele>273.25</ele><time>2026-04-03T13:35:22Z</time></trkpt><trkpt lat="38.928815248610356" lon="-9.31156772891754"><ele>271.5</ele><time>2026-04-03T13:35:23Z</time></trkpt><trkpt lat="38.92869686653043" lon="-9.311623720118797"><ele>269.75</ele><time>2026-04-03T13:35:24Z</time></trkpt><trkpt lat="38.92856912639292" lon="-9.311694733668695"><ele>268.0</ele><time>2026-04-03T13:35:25Z</time></trkpt><trkpt lat="38.928433951852924" lon="-9.31176968241092"><ele>267.66666666666663</ele><time>2026-04-03T13:35:26Z</time></trkpt><trkpt lat="38.92828427612428" lon="-9.311853945369577"><ele>267.3333333333333</ele><time>2026-04-03T13:35:27Z</time></trkpt><trkpt lat="38.92812086039084" lon="-9.311943991722933"><ele>267.0</ele><time>2026-04-03T13:35:28Z</time></trkpt><trkpt lat="38.92795498911991" lon="-9.312043645912452"><ele>267.0</ele><time>2026-04-03T13:35:29Z</time></trkpt><trkpt lat="38.92778807262467" lon="-9.312166491931038"><ele>267.0</ele><time>2026-04-03T13:35:30Z</time></trkpt><trkpt lat="38.92762614542311" lon="-9.31230127019814"><ele>267.0</ele><time>2026-04-03T13:35:31Z</time></trkpt><trkpt lat="38.92746468605568" lon="-9.312439304306935"><ele>265.0</ele><time>2026-04-03T13:35:32Z</time></trkpt><trkpt lat="38.92728751462257" lon="-9.312588596687721"><ele>263.0</ele><time>2026-04-03T13:35:33Z</time></trkpt><trkpt lat="38.92712228619802" lon="-9.312728328116108"><ele>261.0</ele><time>2026-04-03T13:35:34Z</time></trkpt><trkpt lat="38.92698038317299" lon="-9.312847100019487"><ele>261.0</ele><time>2026-04-03T13:35:35Z</time></trkpt><trkpt lat="38.92685316620032" lon="-9.31295481135649"><ele>261.0</ele><time>2026-04-03T13:35:36Z</time></trkpt><trkpt lat="38.92673089850371" lon="-9.313058008787497"><ele>261.0</ele><time>2026-04-03T13:35:37Z</time></trkpt><trkpt lat="38.926615368455224" lon="-9.313140420331395"><ele>261.0</ele><time>2026-04-03T13:35:38Z</time></trkpt><trkpt lat="38.92651878007662" lon="-9.31321070552683"><ele>261.0</ele><time>2026-04-03T13:35:39Z</time></trkpt><trkpt lat="38.926462682864944" lon="-9.313277219208521"><ele>261.0</ele><time>2026-04-03T13:35:40Z</time></trkpt><trkpt lat="38.92639488349656" lon="-9.313331275669782"><ele>261.0</ele><time>2026-04-03T13:35:42Z</time></trkpt><trkpt lat="38.926303579892576" lon="-9.313189169215445"><ele>261.0</ele><time>2026-04-03T13:35:43Z</time></trkpt><trkpt lat="38.926242628044164" lon="-9.313126710055558"><ele>261.0</ele><time>2026-04-03T13:35:44Z</time></trkpt><trkpt lat="38.92617164910382" lon="-9.313053167059959"><ele>262.40000000000003</ele><time>2026-04-03T13:35:45Z</time></trkpt><trkpt lat="38.9260943233643" lon="-9.312972463532484"><ele>263.8</ele><time>2026-04-03T13:35:46Z</time></trkpt><trkpt lat="38.926007075448396" lon="-9.312894012926522"><ele>265.20000000000005</ele><time>2026-04-03T13:35:47Z</time></trkpt><trkpt lat="38.92591684480416" lon="-9.31281587648197"><ele>266.6</ele><time>2026-04-03T13:35:48Z</time></trkpt><trkpt lat="38.92582243905546" lon="-9.312742619819455"><ele>268.0</ele><time>2026-04-03T13:35:49Z</time></trkpt><trkpt lat="38.925740120683166" lon="-9.31268532648125"><ele>269.0</ele><time>2026-04-03T13:35:50Z</time></trkpt><trkpt lat="38.92566651997664" lon="-9.312630193793312"><ele>270.0</ele><time>2026-04-03T13:35:52Z</time></trkpt><trkpt lat="38.925553687062475" lon="-9.312961200890477"><ele>271.0</ele><time>2026-04-03T13:35:55Z</time></trkpt><trkpt lat="38.92550480554126" lon="-9.313099946597388"><ele>269.5</ele><time>2026-04-03T13:35:56Z</time></trkpt><trkpt lat="38.92546444669063" lon="-9.313262000684919"><ele>268.0</ele><time>2026-04-03T13:35:57Z</time></trkpt><trkpt lat="38.92545414991869" lon="-9.31345234159072"><ele>266.5</ele><time>2026-04-03T13:35:58Z</time></trkpt><trkpt lat="38.9254522920539" lon="-9.313623375016185"><ele>265.0</ele><time>2026-04-03T13:35:59Z</time></trkpt><trkpt lat="38.92544723544287" lon="-9.313754192055534"><ele>265.0</ele><time>2026-04-03T13:36:00Z</time></trkpt><trkpt lat="38.9254072330109" lon="-9.313863610961187"><ele>265.0</ele><time>2026-04-03T13:36:01Z</time></trkpt><trkpt lat="38.92534615586223" lon="-9.313968978657861"><ele>265.0</ele><time>2026-04-03T13:36:02Z</time></trkpt><trkpt lat="38.92531440832491" lon="-9.314101015643189"><ele>265.0</ele><time>2026-04-03T13:36:03Z</time></trkpt><trkpt lat="38.925331682545995" lon="-9.314244531640417"><ele>265.0</ele><time>2026-04-03T13:36:04Z</time></trkpt><trkpt lat="38.92537378213371" lon="-9.314372185137179"><ele>264.6</ele><time>2026-04-03T13:36:05Z</time></trkpt><trkpt lat="38.92540477456126" lon="-9.314501062103671"><ele>264.2</ele><time>2026-04-03T13:36:06Z</time></trkpt><trkpt lat="38.9254251656137" lon="-9.314621181464219"><ele>263.8</ele><time>2026-04-03T13:36:07Z</time></trkpt><trkpt lat="38.92544997004777" lon="-9.314719571488652"><ele>263.4</ele><time>2026-04-03T13:36:08Z</time></trkpt><trkpt lat="38.925434542237184" lon="-9.314829952324986"><ele>263.0</ele><time>2026-04-03T13:36:10Z</time></trkpt><trkpt lat="38.925302289185986" lon="-9.314816884349277"><ele>263.0</ele><time>2026-04-03T13:36:12Z</time></trkpt><trkpt lat="38.925227215862336" lon="-9.31474291364975"><ele>263.0</ele><time>2026-04-03T13:36:13Z</time></trkpt><trkpt lat="38.92515272543628" lon="-9.3146540432497"><ele>263.0</ele><time>2026-04-03T13:36:14Z</time></trkpt><trkpt lat="38.92507126513548" lon="-9.314555081515513"><ele>263.0</ele><time>2026-04-03T13:36:15Z</time></trkpt><trkpt lat="38.92496882999445" lon="-9.314456406674534"><ele>263.0</ele><time>2026-04-03T13:36:16Z</time></trkpt><trkpt lat="38.92485767237029" lon="-9.314340817491145"><ele>263.25</ele><time>2026-04-03T13:36:17Z</time></trkpt><trkpt lat="38.92474517314479" lon="-9.314240881794422"><ele>263.5</ele><time>2026-04-03T13:36:18Z</time></trkpt><trkpt lat="38.924636104437425" lon="-9.31415442898286"><ele>263.75</ele><time>2026-04-03T13:36:19Z</time></trkpt><trkpt lat="38.924546616255896" lon="-9.314069957794825"><ele>264.0</ele><time>2026-04-03T13:36:20Z</time></trkpt><trkpt lat="38.92443908616876" lon="-9.313976067363757"><ele>264.0</ele><time>2026-04-03T13:36:21Z</time></trkpt><trkpt lat="38.924320042585656" lon="-9.31390828446149"><ele>264.0</ele><time>2026-04-03T13:36:22Z</time></trkpt><trkpt lat="38.92416795856388" lon="-9.313881028636043"><ele>264.0</ele><time>2026-04-03T13:36:23Z</time></trkpt><trkpt lat="38.92401890218189" lon="-9.313846328810634"><ele>264.0</ele><time>2026-04-03T13:36:24Z</time></trkpt><trkpt lat="38.923888296216155" lon="-9.31380076002231"><ele>263.75</ele><time>2026-04-03T13:36:25Z</time></trkpt><trkpt lat="38.923759990223516" lon="-9.31377677561195"><ele>263.5</ele><time>2026-04-03T13:36:26Z</time></trkpt><trkpt lat="38.92364681877686" lon="-9.313749436874142"><ele>263.25</ele><time>2026-04-03T13:36:27Z</time></trkpt><trkpt lat="38.923540448018954" lon="-9.31371407738896"><ele>263.0</ele><time>2026-04-03T13:36:28Z</time></trkpt><trkpt lat="38.92344679673708" lon="-9.313640753018893"><ele>261.6</ele><time>2026-04-03T13:36:29Z</time></trkpt><trkpt lat="38.9233692498165" lon="-9.313559340526714"><ele>260.20000000000005</ele><time>2026-04-03T13:36:30Z</time></trkpt><trkpt lat="38.92329151385103" lon="-9.313477548256428"><ele>258.8</ele><time>2026-04-03T13:36:31Z</time></trkpt><trkpt lat="38.92323549388874" lon="-9.313381813454335"><ele>257.40000000000003</ele><time>2026-04-03T13:36:32Z</time></trkpt><trkpt lat="38.92320749224012" lon="-9.31325106506465"><ele>256.0</ele><time>2026-04-03T13:36:33Z</time></trkpt><trkpt lat="38.92319710116977" lon="-9.31309733283528"><ele>256.0</ele><time>2026-04-03T13:36:34Z</time></trkpt><trkpt lat="38.92317964668381" lon="-9.312928268055435"><ele>256.0</ele><time>2026-04-03T13:36:35Z</time></trkpt><trkpt lat="38.92314562366625" lon="-9.312757927540686"><ele>256.0</ele><time>2026-04-03T13:36:36Z</time></trkpt><trkpt lat="38.923124813793606" lon="-9.312575610750004"><ele>256.0</ele><time>2026-04-03T13:36:37Z</time></trkpt><trkpt lat="38.92311035720942" lon="-9.31240171997837"><ele>256.0</ele><time>2026-04-03T13:36:38Z</time></trkpt><trkpt lat="38.92307320799723" lon="-9.31225269811008"><ele>256.0</ele><time>2026-04-03T13:36:39Z</time></trkpt><trkpt lat="38.923039802243146" lon="-9.312119794420756"><ele>256.0</ele><time>2026-04-03T13:36:40Z</time></trkpt><trkpt lat="38.92299555034219" lon="-9.312001010284616"><ele>256.0</ele><time>2026-04-03T13:36:41Z</time></trkpt><trkpt lat="38.922944675544024" lon="-9.311865561988988"><ele>255.5</ele><time>2026-04-03T13:36:42Z</time></trkpt><trkpt lat="38.92289491843693" lon="-9.311723281848419"><ele>255.0</ele><time>2026-04-03T13:36:43Z</time></trkpt><trkpt lat="38.922862775113614" lon="-9.311577105660126"><ele>254.5</ele><time>2026-04-03T13:36:44Z</time></trkpt><trkpt lat="38.922812449120556" lon="-9.311430006394284"><ele>254.0</ele><time>2026-04-03T13:36:45Z</time></trkpt><trkpt lat="38.92277799023779" lon="-9.31127143678414"><ele>254.0</ele><time>2026-04-03T13:36:46Z</time></trkpt><trkpt lat="38.92273413368457" lon="-9.31110010362676"><ele>254.0</ele><time>2026-04-03T13:36:47Z</time></trkpt><trkpt lat="38.92269229068241" lon="-9.31091239349984"><ele>254.0</ele><time>2026-04-03T13:36:48Z</time></trkpt><trkpt lat="38.92265966706231" lon="-9.310712446654069"><ele>254.25</ele><time>2026-04-03T13:36:49Z</time></trkpt><trkpt lat="38.92263679002594" lon="-9.310543216280845"><ele>254.5</ele><time>2026-04-03T13:36:50Z</time></trkpt><trkpt lat="38.92259519449718" lon="-9.310395536484073"><ele>254.75</ele><time>2026-04-03T13:36:51Z</time></trkpt><trkpt lat="38.92254552639765" lon="-9.310236635843367"><ele>255.0</ele><time>2026-04-03T13:36:52Z</time></trkpt><trkpt lat="38.92248556343678" lon="-9.310067409573564"><ele>252.75</ele><time>2026-04-03T13:36:53Z</time></trkpt><trkpt lat="38.92241007552824" lon="-9.309904406562383"><ele>250.5</ele><time>2026-04-03T13:36:54Z</time></trkpt><trkpt lat="38.92232800087436" lon="-9.309758921226745"><ele>248.25</ele><time>2026-04-03T13:36:55Z</time></trkpt><trkpt lat="38.92222639713443" lon="-9.309649980745831"><ele>246.0</ele><time>2026-04-03T13:36:56Z</time></trkpt><trkpt lat="38.92214376392631" lon="-9.309510173525998"><ele>246.0</ele><time>2026-04-03T13:36:57Z</time></trkpt><trkpt lat="38.92206293190157" lon="-9.309380136877603"><ele>246.0</ele><time>2026-04-03T13:36:58Z</time></trkpt><trkpt lat="38.92201160910597" lon="-9.309221147690108"><ele>246.0</ele><time>2026-04-03T13:36:59Z</time></trkpt><trkpt lat="38.92197830430592" lon="-9.30907346691544"><ele>246.0</ele><time>2026-04-03T13:37:00Z</time></trkpt><trkpt lat="38.92190605582399" lon="-9.308957007331701"><ele>245.0</ele><time>2026-04-03T13:37:01Z</time></trkpt><trkpt lat="38.92182213503808" lon="-9.308865595955792"><ele>244.0</ele><time>2026-04-03T13:37:02Z</time></trkpt><trkpt lat="38.921727663992264" lon="-9.30876249651581"><ele>243.0</ele><time>2026-04-03T13:37:03Z</time></trkpt><trkpt lat="38.92163235323505" lon="-9.308646239496191"><ele>242.0</ele><time>2026-04-03T13:37:04Z</time></trkpt><trkpt lat="38.92152297651339" lon="-9.308543298034717"><ele>240.5</ele><time>2026-04-03T13:37:05Z</time></trkpt><trkpt lat="38.92142073860945" lon="-9.30844315523871"><ele>239.0</ele><time>2026-04-03T13:37:06Z</time></trkpt><trkpt lat="38.92132944423502" lon="-9.308350542220694"><ele>237.5</ele><time>2026-04-03T13:37:07Z</time></trkpt><trkpt lat="38.92123431106237" lon="-9.308262525333795"><ele>236.0</ele><time>2026-04-03T13:37:08Z</time></trkpt><trkpt lat="38.92113797751912" lon="-9.308189157830272"><ele>236.0</ele><time>2026-04-03T13:37:09Z</time></trkpt><trkpt lat="38.9210338292567" lon="-9.308142923482432"><ele>236.00000000000003</ele><time>2026-04-03T13:37:10Z</time></trkpt><trkpt lat="38.92094560336975" lon="-9.308117578173793"><ele>236.00000000000003</ele><time>2026-04-03T13:37:11Z</time></trkpt><trkpt lat="38.92085814102314" lon="-9.308117842099337"><ele>236.0</ele><time>2026-04-03T13:37:12Z</time></trkpt><trkpt lat="38.92075243843668" lon="-9.308128077079145"><ele>236.0</ele><time>2026-04-03T13:37:13Z</time></trkpt><trkpt lat="38.92062833176997" lon="-9.308124827678972"><ele>234.4</ele><time>2026-04-03T13:37:14Z</time></trkpt><trkpt lat="38.92050472175245" lon="-9.308132605698354"><ele>232.8</ele><time>2026-04-03T13:37:15Z</time></trkpt><trkpt lat="38.920394321903586" lon="-9.308116095193093"><ele>231.20000000000002</ele><time>2026-04-03T13:37:16Z</time></trkpt><trkpt lat="38.92029064263199" lon="-9.308114014947778"><ele>229.60000000000002</ele><time>2026-04-03T13:37:17Z</time></trkpt><trkpt lat="38.92019629121234" lon="-9.308105608007647"><ele>228.0</ele><time>2026-04-03T13:37:18Z</time></trkpt><trkpt lat="38.92011311957126" lon="-9.308091946533327"><ele>227.83333333333334</ele><time>2026-04-03T13:37:19Z</time></trkpt><trkpt lat="38.920020050723174" lon="-9.308083466296896"><ele>227.66666666666669</ele><time>2026-04-03T13:37:21Z</time></trkpt><trkpt lat="38.91994859889031" lon="-9.308065658082132"><ele>227.5</ele><time>2026-04-03T13:37:24Z</time></trkpt><trkpt lat="38.9198828753634" lon="-9.308068697081676"><ele>227.33333333333334</ele><time>2026-04-03T13:37:26Z</time></trkpt><trkpt lat="38.91981358822853" lon="-9.308047670733883"><ele>227.16666666666669</ele><time>2026-04-03T13:37:27Z</time></trkpt><trkpt lat="38.91972995615739" lon="-9.308025991917123"><ele>227.0</ele><time>2026-04-03T13:37:28Z</time></trkpt><trkpt lat="38.91961677950888" lon="-9.308006221534654"><ele>225.66666666666669</ele><time>2026-04-03T13:37:29Z</time></trkpt><trkpt lat="38.91948067086739" lon="-9.307981489498793"><ele>224.33333333333331</ele><time>2026-04-03T13:37:30Z</time></trkpt><trkpt lat="38.919329928422655" lon="-9.30795113055436"><ele>223.0</ele><time>2026-04-03T13:37:31Z</time></trkpt><trkpt lat="38.91916267564496" lon="-9.307899527773005"><ele>223.0</ele><time>2026-04-03T13:37:32Z</time></trkpt><trkpt lat="38.91898543197433" lon="-9.307816743510875"><ele>223.0</ele><time>2026-04-03T13:37:33Z</time></trkpt><trkpt lat="38.91880919689911" lon="-9.307701926336794"><ele>223.0</ele><time>2026-04-03T13:37:34Z</time></trkpt><trkpt lat="38.91863362700327" lon="-9.307574998020229"><ele>223.0</ele><time>2026-04-03T13:37:35Z</time></trkpt><trkpt lat="38.918438638125714" lon="-9.307451895923437"><ele>223.0</ele><time>2026-04-03T13:37:36Z</time></trkpt><trkpt lat="38.91824432042695" lon="-9.307318874896323"><ele>223.0</ele><time>2026-04-03T13:37:37Z</time></trkpt><trkpt lat="38.91807268195543" lon="-9.307196384724806"><ele>224.0</ele><time>2026-04-03T13:37:38Z</time></trkpt><trkpt lat="38.91792137355404" lon="-9.307087322206108"><ele>225.0</ele><time>2026-04-03T13:37:39Z</time></trkpt><trkpt lat="38.917781457202494" lon="-9.306971931069743"><ele>226.0</ele><time>2026-04-03T13:37:40Z</time></trkpt><trkpt lat="38.91764599323803" lon="-9.306868302301885"><ele>225.5</ele><time>2026-04-03T13:37:41Z</time></trkpt><trkpt lat="38.917518552966044" lon="-9.306770239257252"><ele>225.0</ele><time>2026-04-03T13:37:42Z</time></trkpt><trkpt lat="38.917403757762386" lon="-9.306670272871193"><ele>224.5</ele><time>2026-04-03T13:37:43Z</time></trkpt><trkpt lat="38.917282849627654" lon="-9.30660271708743"><ele>224.0</ele><time>2026-04-03T13:37:44Z</time></trkpt><trkpt lat="38.91716099439464" lon="-9.306558432736644"><ele>224.0</ele><time>2026-04-03T13:37:45Z</time></trkpt><trkpt lat="38.91702622034619" lon="-9.306541119875295"><ele>224.0</ele><time>2026-04-03T13:37:46Z</time></trkpt><trkpt lat="38.916884306014154" lon="-9.306561059992351"><ele>224.0</ele><time>2026-04-03T13:37:47Z</time></trkpt><trkpt lat="38.91674608766409" lon="-9.306622713455475"><ele>224.0</ele><time>2026-04-03T13:37:48Z</time></trkpt><trkpt lat="38.916606052137595" lon="-9.306728826638501"><ele>222.66666666666669</ele><time>2026-04-03T13:37:49Z</time></trkpt><trkpt lat="38.91644926164238" lon="-9.306818774894497"><ele>221.33333333333331</ele><time>2026-04-03T13:37:50Z</time></trkpt><trkpt lat="38.91630656770939" lon="-9.30694672048076"><ele>220.0</ele><time>2026-04-03T13:37:51Z</time></trkpt><trkpt lat="38.91617078402214" lon="-9.3070642502357"><ele>220.0</ele><time>2026-04-03T13:37:52Z</time></trkpt><trkpt lat="38.91603877316879" lon="-9.30715856560423"><ele>220.0</ele><time>2026-04-03T13:37:53Z</time></trkpt><trkpt lat="38.91591083155936" lon="-9.307235657914358"><ele>220.0</ele><time>2026-04-03T13:37:54Z</time></trkpt><trkpt lat="38.91579190392546" lon="-9.307253348911933"><ele>220.0</ele><time>2026-04-03T13:37:55Z</time></trkpt><trkpt lat="38.91567263542783" lon="-9.307244205694026"><ele>221.5</ele><time>2026-04-03T13:37:56Z</time></trkpt><trkpt lat="38.915544850817206" lon="-9.307194762033363"><ele>223.0</ele><time>2026-04-03T13:37:57Z</time></trkpt><trkpt lat="38.915400347413176" lon="-9.307146629527681"><ele>224.5</ele><time>2026-04-03T13:37:58Z</time></trkpt><trkpt lat="38.91525780756398" lon="-9.307085887516251"><ele>226.0</ele><time>2026-04-03T13:37:59Z</time></trkpt><trkpt lat="38.915125699485266" lon="-9.307031217756256"><ele>225.33333333333331</ele><time>2026-04-03T13:38:00Z</time></trkpt><trkpt lat="38.91499305284807" lon="-9.306959109190698"><ele>224.66666666666669</ele><time>2026-04-03T13:38:01Z</time></trkpt><trkpt lat="38.91487235169405" lon="-9.306850713584158"><ele>224.0</ele><time>2026-04-03T13:38:02Z</time></trkpt><trkpt lat="38.91476373184349" lon="-9.306699542261594"><ele>224.0</ele><time>2026-04-03T13:38:03Z</time></trkpt><trkpt lat="38.91465612576052" lon="-9.306533407898524"><ele>224.0</ele><time>2026-04-03T13:38:04Z</time></trkpt><trkpt lat="38.914549157079286" lon="-9.306408960669602"><ele>224.0</ele><time>2026-04-03T13:38:05Z</time></trkpt><trkpt lat="38.914429851966794" lon="-9.306330778262147"><ele>224.0</ele><time>2026-04-03T13:38:06Z</time></trkpt><trkpt lat="38.91428525601257" lon="-9.306282517624632"><ele>224.33333333333334</ele><time>2026-04-03T13:38:07Z</time></trkpt><trkpt lat="38.91412721773543" lon="-9.306270130964444"><ele>224.66666666666669</ele><time>2026-04-03T13:38:08Z</time></trkpt><trkpt lat="38.91395498937855" lon="-9.306285120154323"><ele>225.0</ele><time>2026-04-03T13:38:09Z</time></trkpt><trkpt lat="38.9137736622491" lon="-9.30629260388578"><ele>225.0</ele><time>2026-04-03T13:38:10Z</time></trkpt><trkpt lat="38.91361572912436" lon="-9.306316886124515"><ele>225.0</ele><time>2026-04-03T13:38:11Z</time></trkpt><trkpt lat="38.91346072324495" lon="-9.306293837834303"><ele>225.0</ele><time>2026-04-03T13:38:12Z</time></trkpt><trkpt lat="38.9132992013355" lon="-9.306214140082053"><ele>225.66666666666669</ele><time>2026-04-03T13:38:13Z</time></trkpt><trkpt lat="38.913128001021846" lon="-9.306108028697796"><ele>226.33333333333334</ele><time>2026-04-03T13:38:14Z</time></trkpt><trkpt lat="38.91297266312281" lon="-9.306017830757664"><ele>227.0</ele><time>2026-04-03T13:38:15Z</time></trkpt><trkpt lat="38.91283908523237" lon="-9.305934636644801"><ele>227.0</ele><time>2026-04-03T13:38:16Z</time></trkpt><trkpt lat="38.912703543431256" lon="-9.305850560208304"><ele>227.0</ele><time>2026-04-03T13:38:17Z</time></trkpt><trkpt lat="38.912578251455095" lon="-9.305777157741161"><ele>227.0</ele><time>2026-04-03T13:38:18Z</time></trkpt><trkpt lat="38.912442141254054" lon="-9.305745369189628"><ele>227.0</ele><time>2026-04-03T13:38:19Z</time></trkpt><trkpt lat="38.912281246364664" lon="-9.305730665685303"><ele>225.33333333333334</ele><time>2026-04-03T13:38:20Z</time></trkpt><trkpt lat="38.912112973453226" lon="-9.305747945265555"><ele>223.66666666666669</ele><time>2026-04-03T13:38:21Z</time></trkpt><trkpt lat="38.91193952849323" lon="-9.305790751633715"><ele>222.0</ele><time>2026-04-03T13:38:22Z</time></trkpt><trkpt lat="38.91177340000003" lon="-9.305875563728982"><ele>221.66666666666669</ele><time>2026-04-03T13:38:23Z</time></trkpt><trkpt lat="38.91163034412448" lon="-9.305995735972704"><ele>221.33333333333334</ele><time>2026-04-03T13:38:24Z</time></trkpt><trkpt lat="38.91148256021391" lon="-9.306140187840855"><ele>221.0</ele><time>2026-04-03T13:38:25Z</time></trkpt><trkpt lat="38.91133319371596" lon="-9.30625125013025"><ele>221.0</ele><time>2026-04-03T13:38:26Z</time></trkpt><trkpt lat="38.911196610387236" lon="-9.306360679765797"><ele>221.0</ele><time>2026-04-03T13:38:27Z</time></trkpt><trkpt lat="38.911030261578" lon="-9.306456238888998"><ele>221.0</ele><time>2026-04-03T13:38:28Z</time></trkpt><trkpt lat="38.91084285945762" lon="-9.306537700797922"><ele>218.66666666666669</ele><time>2026-04-03T13:38:29Z</time></trkpt><trkpt lat="38.91066314233817" lon="-9.306614491770583"><ele>216.33333333333331</ele><time>2026-04-03T13:38:30Z</time></trkpt><trkpt lat="38.91050839573036" lon="-9.306683915265864"><ele>214.0</ele><time>2026-04-03T13:38:31Z</time></trkpt><trkpt lat="38.91036903294537" lon="-9.3067433611172"><ele>214.0</ele><time>2026-04-03T13:38:32Z</time></trkpt><trkpt lat="38.910237548670324" lon="-9.30680138820866"><ele>214.0</ele><time>2026-04-03T13:38:33Z</time></trkpt><trkpt lat="38.910105218341855" lon="-9.306862747392724"><ele>214.0</ele><time>2026-04-03T13:38:34Z</time></trkpt><trkpt lat="38.90996122230579" lon="-9.306931226445935"><ele>214.0</ele><time>2026-04-03T13:38:35Z</time></trkpt><trkpt lat="38.90981578493658" lon="-9.307005203216512"><ele>214.66666666666666</ele><time>2026-04-03T13:38:36Z</time></trkpt><trkpt lat="38.90966849487022" lon="-9.307096227904891"><ele>215.33333333333331</ele><time>2026-04-03T13:38:37Z</time></trkpt><trkpt lat="38.909519193410084" lon="-9.307179642737482"><ele>216.0</ele><time>2026-04-03T13:38:38Z</time></trkpt><trkpt lat="38.90936808940301" lon="-9.307257384512853"><ele>217.0</ele><time>2026-04-03T13:38:39Z</time></trkpt><trkpt lat="38.90921933475758" lon="-9.307344026489616"><ele>218.0</ele><time>2026-04-03T13:38:40Z</time></trkpt><trkpt lat="38.909075509514466" lon="-9.307426908011374"><ele>219.0</ele><time>2026-04-03T13:38:41Z</time></trkpt><trkpt lat="38.908930406395" lon="-9.307503010603838"><ele>219.0</ele><time>2026-04-03T13:38:42Z</time></trkpt><trkpt lat="38.9087881444659" lon="-9.307580434897945"><ele>219.0</ele><time>2026-04-03T13:38:43Z</time></trkpt><trkpt lat="38.908643574053166" lon="-9.307662408468808"><ele>219.0</ele><time>2026-04-03T13:38:44Z</time></trkpt><trkpt lat="38.908496663242644" lon="-9.307742281489123"><ele>219.66666666666669</ele><time>2026-04-03T13:38:45Z</time></trkpt><trkpt lat="38.9083521980844" lon="-9.307820194772766"><ele>220.33333333333334</ele><time>2026-04-03T13:38:46Z</time></trkpt><trkpt lat="38.908213723189284" lon="-9.307895916656888"><ele>221.0</ele><time>2026-04-03T13:38:47Z</time></trkpt><trkpt lat="38.90807332358509" lon="-9.307971284724907"><ele>221.0</ele><time>2026-04-03T13:38:48Z</time></trkpt><trkpt lat="38.907936171625884" lon="-9.308047400859774"><ele>221.0</ele><time>2026-04-03T13:38:49Z</time></trkpt><trkpt lat="38.90779812823315" lon="-9.308133333980392"><ele>221.0</ele><time>2026-04-03T13:38:50Z</time></trkpt><trkpt lat="38.90765150558558" lon="-9.308225198422203"><ele>220.0</ele><time>2026-04-03T13:38:51Z</time></trkpt><trkpt lat="38.9075081109556" lon="-9.3083195403128"><ele>219.0</ele><time>2026-04-03T13:38:52Z</time></trkpt><trkpt lat="38.90736938313677" lon="-9.308401589322745"><ele>218.0</ele><time>2026-04-03T13:38:53Z</time></trkpt><trkpt lat="38.90723478700561" lon="-9.308469527245423"><ele>218.0</ele><time>2026-04-03T13:38:54Z</time></trkpt><trkpt lat="38.907088757271545" lon="-9.308519236734135"><ele>218.0</ele><time>2026-04-03T13:38:55Z</time></trkpt><trkpt lat="38.90693800650493" lon="-9.308542887397813"><ele>218.0</ele><time>2026-04-03T13:38:56Z</time></trkpt><trkpt lat="38.90677785269573" lon="-9.308535894291392"><ele>218.33333333333334</ele><time>2026-04-03T13:38:57Z</time></trkpt><trkpt lat="38.90660926681205" lon="-9.308503424893457"><ele>218.66666666666669</ele><time>2026-04-03T13:38:58Z</time></trkpt><trkpt lat="38.9064313556436" lon="-9.308455502141378"><ele>219.0</ele><time>2026-04-03T13:38:59Z</time></trkpt><trkpt lat="38.90624363413032" lon="-9.308391944206418"><ele>219.0</ele><time>2026-04-03T13:39:00Z</time></trkpt><trkpt lat="38.90603738530738" lon="-9.308338434787029"><ele>219.0</ele><time>2026-04-03T13:39:01Z</time></trkpt><trkpt lat="38.90582733402334" lon="-9.308282269781039"><ele>219.0</ele><time>2026-04-03T13:39:02Z</time></trkpt><trkpt lat="38.90562816971636" lon="-9.308222819005021"><ele>219.33333333333331</ele><time>2026-04-03T13:39:03Z</time></trkpt><trkpt lat="38.905456587381316" lon="-9.30818319546768"><ele>219.66666666666666</ele><time>2026-04-03T13:39:04Z</time></trkpt><trkpt lat="38.905304966689464" lon="-9.308124828332039"><ele>220.0</ele><time>2026-04-03T13:39:05Z</time></trkpt><trkpt lat="38.905146009130554" lon="-9.308031671283139"><ele>220.0</ele><time>2026-04-03T13:39:06Z</time></trkpt><trkpt lat="38.90499260911066" lon="-9.307898644377634"><ele>220.0</ele><time>2026-04-03T13:39:07Z</time></trkpt><trkpt lat="38.904842187928644" lon="-9.307745851103522"><ele>220.0</ele><time>2026-04-03T13:39:08Z</time></trkpt><trkpt lat="38.90470231369863" lon="-9.30761619712684"><ele>220.0</ele><time>2026-04-03T13:39:09Z</time></trkpt><trkpt lat="38.90456949540464" lon="-9.307491717964385"><ele>220.0</ele><time>2026-04-03T13:39:10Z</time></trkpt><trkpt lat="38.904432071153565" lon="-9.307398104324424"><ele>220.0</ele><time>2026-04-03T13:39:11Z</time></trkpt><trkpt lat="38.90431927647293" lon="-9.307275057700164"><ele>218.0</ele><time>2026-04-03T13:39:12Z</time></trkpt><trkpt lat="38.90419144191883" lon="-9.307176173629264"><ele>216.0</ele><time>2026-04-03T13:39:13Z</time></trkpt><trkpt lat="38.90405154666635" lon="-9.307118970057573"><ele>214.0</ele><time>2026-04-03T13:39:14Z</time></trkpt><trkpt lat="38.90392517123714" lon="-9.307072838546325"><ele>212.0</ele><time>2026-04-03T13:39:15Z</time></trkpt><trkpt lat="38.90378954149768" lon="-9.30703735175511"><ele>212.0</ele><time>2026-04-03T13:39:16Z</time></trkpt><trkpt lat="38.90365035726733" lon="-9.30699895287789"><ele>212.0</ele><time>2026-04-03T13:39:17Z</time></trkpt><trkpt lat="38.903505789008" lon="-9.306941766442153"><ele>212.0</ele><time>2026-04-03T13:39:18Z</time></trkpt><trkpt lat="38.90334677952593" lon="-9.30691816738489"><ele>211.75</ele><time>2026-04-03T13:39:19Z</time></trkpt><trkpt lat="38.903198353835094" lon="-9.306866416920421"><ele>211.5</ele><time>2026-04-03T13:39:20Z</time></trkpt><trkpt lat="38.90305738880236" lon="-9.306829462893427"><ele>211.25</ele><time>2026-04-03T13:39:21Z</time></trkpt><trkpt lat="38.902931368956985" lon="-9.30679888331883"><ele>211.0</ele><time>2026-04-03T13:39:22Z</time></trkpt><trkpt lat="38.902800694327155" lon="-9.30676416829183"><ele>211.0</ele><time>2026-04-03T13:39:23Z</time></trkpt><trkpt lat="38.90268780086955" lon="-9.306731551085846"><ele>211.0</ele><time>2026-04-03T13:39:24Z</time></trkpt><trkpt lat="38.90257917739611" lon="-9.306699113628648"><ele>211.0</ele><time>2026-04-03T13:39:25Z</time></trkpt><trkpt lat="38.902485424031795" lon="-9.30666809431502"><ele>211.0</ele><time>2026-04-03T13:39:26Z</time></trkpt><trkpt lat="38.90240238037803" lon="-9.306655720961645"><ele>211.0</ele><time>2026-04-03T13:39:27Z</time></trkpt><trkpt lat="38.90230216425805" lon="-9.30668972060887"><ele>211.25</ele><time>2026-04-03T13:39:28Z</time></trkpt><trkpt lat="38.902230128334736" lon="-9.30682949627554"><ele>211.5</ele><time>2026-04-03T13:39:29Z</time></trkpt><trkpt lat="38.902096689050424" lon="-9.30692671888086"><ele>211.75</ele><time>2026-04-03T13:39:30Z</time></trkpt><trkpt lat="38.90196830684925" lon="-9.30704921290972"><ele>212.0</ele><time>2026-04-03T13:39:31Z</time></trkpt><trkpt lat="38.90183125608234" lon="-9.307174409757831"><ele>210.33333333333334</ele><time>2026-04-03T13:39:32Z</time></trkpt><trkpt lat="38.90169550058559" lon="-9.307301424552744"><ele>208.66666666666669</ele><time>2026-04-03T13:39:33Z</time></trkpt><trkpt lat="38.90156626322457" lon="-9.307415176404637"><ele>207.0</ele><time>2026-04-03T13:39:34Z</time></trkpt><trkpt lat="38.90144964824679" lon="-9.307523476627392"><ele>207.0</ele><time>2026-04-03T13:39:35Z</time></trkpt><trkpt lat="38.90133498099672" lon="-9.307620415288762"><ele>207.0</ele><time>2026-04-03T13:39:36Z</time></trkpt><trkpt lat="38.90122666365949" lon="-9.307716693173964"><ele>207.0</ele><time>2026-04-03T13:39:37Z</time></trkpt><trkpt lat="38.90111938589741" lon="-9.307807156944996"><ele>207.0</ele><time>2026-04-03T13:39:38Z</time></trkpt><trkpt lat="38.90100453467401" lon="-9.307901691313418"><ele>205.5</ele><time>2026-04-03T13:39:39Z</time></trkpt><trkpt lat="38.900894144376906" lon="-9.307998451872454"><ele>204.0</ele><time>2026-04-03T13:39:40Z</time></trkpt><trkpt lat="38.90077965736136" lon="-9.30810404386517"><ele>202.5</ele><time>2026-04-03T13:39:41Z</time></trkpt><trkpt lat="38.900659517755315" lon="-9.308216010306294"><ele>201.0</ele><time>2026-04-03T13:39:42Z</time></trkpt><trkpt lat="38.90053792915092" lon="-9.308318022923876"><ele>200.25</ele><time>2026-04-03T13:39:43Z</time></trkpt><trkpt lat="38.900415733418576" lon="-9.308421820705297"><ele>199.5</ele><time>2026-04-03T13:39:44Z</time></trkpt><trkpt lat="38.900305762531836" lon="-9.308520877878879"><ele>198.75</ele><time>2026-04-03T13:39:45Z</time></trkpt><trkpt lat="38.90019363975286" lon="-9.308611490549662"><ele>198.0</ele><time>2026-04-03T13:39:46Z</time></trkpt><trkpt lat="38.9000882752356" lon="-9.308702678240515"><ele>196.75</ele><time>2026-04-03T13:39:47Z</time></trkpt><trkpt lat="38.899993959961215" lon="-9.308795451822215"><ele>195.5</ele><time>2026-04-03T13:39:48Z</time></trkpt><trkpt lat="38.899912869450716" lon="-9.308900301827562"><ele>194.25</ele><time>2026-04-03T13:39:49Z</time></trkpt><trkpt lat="38.89984673628921" lon="-9.309019479962712"><ele>193.0</ele><time>2026-04-03T13:39:50Z</time></trkpt><trkpt lat="38.899809356480255" lon="-9.309156514886245"><ele>192.0</ele><time>2026-04-03T13:39:51Z</time></trkpt><trkpt lat="38.899757436554744" lon="-9.309261702409538"><ele>191.0</ele><time>2026-04-03T13:39:52Z</time></trkpt><trkpt lat="38.89972692803459" lon="-9.309375730645705"><ele>190.0</ele><time>2026-04-03T13:39:53Z</time></trkpt><trkpt lat="38.89967023689298" lon="-9.309460610423539"><ele>189.0</ele><time>2026-04-03T13:39:54Z</time></trkpt><trkpt lat="38.899586964240555" lon="-9.309529850327175"><ele>188.0</ele><time>2026-04-03T13:39:55Z</time></trkpt><trkpt lat="38.89948482709471" lon="-9.309614811600602"><ele>188.0</ele><time>2026-04-03T13:39:56Z</time></trkpt><trkpt lat="38.89938031708554" lon="-9.30970981508605"><ele>188.0</ele><time>2026-04-03T13:39:57Z</time></trkpt><trkpt lat="38.89927499623727" lon="-9.309812358303484"><ele>188.0</ele><time>2026-04-03T13:39:58Z</time></trkpt><trkpt lat="38.89917168362114" lon="-9.309917962989323"><ele>188.0</ele><time>2026-04-03T13:39:59Z</time></trkpt><trkpt lat="38.8990837731931" lon="-9.310034354481678"><ele>185.75</ele><time>2026-04-03T13:40:00Z</time></trkpt><trkpt lat="38.89900680109433" lon="-9.310151042239303"><ele>183.5</ele><time>2026-04-03T13:40:01Z</time></trkpt><trkpt lat="38.89894092394986" lon="-9.31026748826764"><ele>181.25</ele><time>2026-04-03T13:40:02Z</time></trkpt><trkpt lat="38.89889159477183" lon="-9.310400708689103"><ele>179.0</ele><time>2026-04-03T13:40:03Z</time></trkpt><trkpt lat="38.89888375937632" lon="-9.310555911191399"><ele>178.0</ele><time>2026-04-03T13:40:04Z</time></trkpt><trkpt lat="38.89885759248229" lon="-9.310722616121042"><ele>177.0</ele><time>2026-04-03T13:40:05Z</time></trkpt><trkpt lat="38.8988158869295" lon="-9.31089989049441"><ele>176.0</ele><time>2026-04-03T13:40:06Z</time></trkpt><trkpt lat="38.89878744082364" lon="-9.311090149760215"><ele>175.0</ele><time>2026-04-03T13:40:07Z</time></trkpt><trkpt lat="38.89875438508772" lon="-9.311297915761084"><ele>172.0</ele><time>2026-04-03T13:40:08Z</time></trkpt><trkpt lat="38.898714290963184" lon="-9.31150954580699"><ele>169.0</ele><time>2026-04-03T13:40:09Z</time></trkpt><trkpt lat="38.898680833180165" lon="-9.311703287298194"><ele>166.0</ele><time>2026-04-03T13:40:10Z</time></trkpt><trkpt lat="38.89869399970623" lon="-9.311880869231283"><ele>166.0</ele><time>2026-04-03T13:40:11Z</time></trkpt><trkpt lat="38.89871274582936" lon="-9.312048287275502"><ele>166.0</ele><time>2026-04-03T13:40:12Z</time></trkpt><trkpt lat="38.898743244650944" lon="-9.312237676942651"><ele>166.0</ele><time>2026-04-03T13:40:13Z</time></trkpt><trkpt lat="38.898749822859294" lon="-9.31240525953649"><ele>166.0</ele><time>2026-04-03T13:40:14Z</time></trkpt><trkpt lat="38.89875977073839" lon="-9.312564884444333"><ele>165.0</ele><time>2026-04-03T13:40:15Z</time></trkpt><trkpt lat="38.89872852725264" lon="-9.312739011686176"><ele>164.0</ele><time>2026-04-03T13:40:16Z</time></trkpt><trkpt lat="38.898675233177656" lon="-9.312914571966713"><ele>163.0</ele><time>2026-04-03T13:40:17Z</time></trkpt><trkpt lat="38.898600820899055" lon="-9.313084107081217"><ele>162.0</ele><time>2026-04-03T13:40:18Z</time></trkpt><trkpt lat="38.89852958330508" lon="-9.313256248573378"><ele>161.25</ele><time>2026-04-03T13:40:19Z</time></trkpt><trkpt lat="38.89846411885206" lon="-9.313417094219938"><ele>160.5</ele><time>2026-04-03T13:40:20Z</time></trkpt><trkpt lat="38.89840307204961" lon="-9.313563791321085"><ele>159.75</ele><time>2026-04-03T13:40:21Z</time></trkpt><trkpt lat="38.898351055684984" lon="-9.313708230338333"><ele>159.0</ele><time>2026-04-03T13:40:22Z</time></trkpt><trkpt lat="38.898303572096836" lon="-9.313848060531978"><ele>159.25</ele><time>2026-04-03T13:40:23Z</time></trkpt><trkpt lat="38.89826044901959" lon="-9.31398504510467"><ele>159.5</ele><time>2026-04-03T13:40:24Z</time></trkpt><trkpt lat="38.898209459910085" lon="-9.314150333491167"><ele>159.75</ele><time>2026-04-03T13:40:25Z</time></trkpt><trkpt lat="38.89815870284249" lon="-9.314316997902653"><ele>160.0</ele><time>2026-04-03T13:40:26Z</time></trkpt><trkpt lat="38.898129994755145" lon="-9.314475403394955"><ele>160.0</ele><time>2026-04-03T13:40:27Z</time></trkpt><trkpt lat="38.89807448415787" lon="-9.31462009906738"><ele>160.0</ele><time>2026-04-03T13:40:28Z</time></trkpt><trkpt lat="38.89802933429202" lon="-9.31476988425136"><ele>160.0</ele><time>2026-04-03T13:40:29Z</time></trkpt><trkpt lat="38.897962156905045" lon="-9.314935758148865"><ele>160.0</ele><time>2026-04-03T13:40:30Z</time></trkpt><trkpt lat="38.897890770500176" lon="-9.315087416077631"><ele>158.0</ele><time>2026-04-03T13:40:31Z</time></trkpt><trkpt lat="38.8978239933965" lon="-9.31522875611274"><ele>156.0</ele><time>2026-04-03T13:40:32Z</time></trkpt><trkpt lat="38.89775721961495" lon="-9.315365213059055"><ele>154.0</ele><time>2026-04-03T13:40:33Z</time></trkpt><trkpt lat="38.897693810549754" lon="-9.315498744919292"><ele>152.0</ele><time>2026-04-03T13:40:34Z</time></trkpt><trkpt lat="38.897629642514694" lon="-9.315631175698085"><ele>151.0</ele><time>2026-04-03T13:40:35Z</time></trkpt><trkpt lat="38.89756900831441" lon="-9.315787107524555"><ele>150.0</ele><time>2026-04-03T13:40:36Z</time></trkpt><trkpt lat="38.89748697028154" lon="-9.315931169484044"><ele>149.0</ele><time>2026-04-03T13:40:37Z</time></trkpt><trkpt lat="38.89739710836461" lon="-9.316065869834798"><ele>148.0</ele><time>2026-04-03T13:40:38Z</time></trkpt><trkpt lat="38.8973052620953" lon="-9.316201146422847"><ele>148.0</ele><time>2026-04-03T13:40:39Z</time></trkpt><trkpt lat="38.89721702237653" lon="-9.31634362924015"><ele>148.0</ele><time>2026-04-03T13:40:40Z</time></trkpt><trkpt lat="38.89711884677669" lon="-9.316506650315317"><ele>148.0</ele><time>2026-04-03T13:40:41Z</time></trkpt><trkpt lat="38.89700998433155" lon="-9.316661911238855"><ele>148.66666666666669</ele><time>2026-04-03T13:40:42Z</time></trkpt><trkpt lat="38.89688191509355" lon="-9.316815670291609"><ele>149.33333333333334</ele><time>2026-04-03T13:40:43Z</time></trkpt><trkpt lat="38.896735244264676" lon="-9.31698431853995"><ele>150.0</ele><time>2026-04-03T13:40:44Z</time></trkpt><trkpt lat="38.89661246474187" lon="-9.317139124389946"><ele>147.0</ele><time>2026-04-03T13:40:45Z</time></trkpt><trkpt lat="38.89650342566723" lon="-9.317279928644453"><ele>144.0</ele><time>2026-04-03T13:40:46Z</time></trkpt><trkpt lat="38.89639227287609" lon="-9.317405598964118"><ele>141.0</ele><time>2026-04-03T13:40:47Z</time></trkpt><trkpt lat="38.89628015196853" lon="-9.317547469245744"><ele>141.0</ele><time>2026-04-03T13:40:48Z</time></trkpt><trkpt lat="38.89616583415849" lon="-9.317688587297216"><ele>141.0</ele><time>2026-04-03T13:40:49Z</time></trkpt><trkpt lat="38.8960494211071" lon="-9.317823211446475"><ele>141.0</ele><time>2026-04-03T13:40:50Z</time></trkpt><trkpt lat="38.89593430352469" lon="-9.31795407325587"><ele>139.0</ele><time>2026-04-03T13:40:51Z</time></trkpt><trkpt lat="38.895823424426666" lon="-9.31807294125717"><ele>137.0</ele><time>2026-04-03T13:40:52Z</time></trkpt><trkpt lat="38.89571239173643" lon="-9.318202934978423"><ele>135.0</ele><time>2026-04-03T13:40:53Z</time></trkpt><trkpt lat="38.8956152553774" lon="-9.318320698333453"><ele>133.0</ele><time>2026-04-03T13:40:54Z</time></trkpt><trkpt lat="38.895515640489776" lon="-9.318436359638133"><ele>133.0</ele><time>2026-04-03T13:40:55Z</time></trkpt><trkpt lat="38.895428258324316" lon="-9.31853875138533"><ele>133.0</ele><time>2026-04-03T13:40:56Z</time></trkpt><trkpt lat="38.895352106414826" lon="-9.31863487945541"><ele>133.0</ele><time>2026-04-03T13:40:57Z</time></trkpt><trkpt lat="38.8953066389516" lon="-9.318755889402425"><ele>133.0</ele><time>2026-04-03T13:40:58Z</time></trkpt><trkpt lat="38.89527840878329" lon="-9.318871182458079"><ele>133.0</ele><time>2026-04-03T13:40:59Z</time></trkpt><trkpt lat="38.89526664135737" lon="-9.318982856177051"><ele>132.6</ele><time>2026-04-03T13:41:00Z</time></trkpt><trkpt lat="38.895254833148535" lon="-9.319085698439528"><ele>132.20000000000002</ele><time>2026-04-03T13:41:01Z</time></trkpt><trkpt lat="38.89524778278291" lon="-9.319167324937146"><ele>131.8</ele><time>2026-04-03T13:41:02Z</time></trkpt><trkpt lat="38.895239679022374" lon="-9.319275957988019"><ele>131.4</ele><time>2026-04-03T13:41:04Z</time></trkpt><trkpt lat="38.89503124522563" lon="-9.319302223028112"><ele>131.0</ele><time>2026-04-03T13:41:05Z</time></trkpt><trkpt lat="38.89491279392006" lon="-9.319295427271886"><ele>131.0</ele><time>2026-04-03T13:41:06Z</time></trkpt><trkpt lat="38.89476802107691" lon="-9.31933340044939"><ele>131.0</ele><time>2026-04-03T13:41:07Z</time></trkpt><trkpt lat="38.894616645612246" lon="-9.319382776992336"><ele>131.0</ele><time>2026-04-03T13:41:08Z</time></trkpt><trkpt lat="38.8944833595353" lon="-9.319431672012554"><ele>131.0</ele><time>2026-04-03T13:41:09Z</time></trkpt><trkpt lat="38.894343040575656" lon="-9.319465007504725"><ele>131.25</ele><time>2026-04-03T13:41:10Z</time></trkpt><trkpt lat="38.894218981260664" lon="-9.319493625092042"><ele>131.5</ele><time>2026-04-03T13:41:11Z</time></trkpt><trkpt lat="38.894083604100636" lon="-9.319516480906413"><ele>131.75</ele><time>2026-04-03T13:41:12Z</time></trkpt><trkpt lat="38.89393730376805" lon="-9.31953166734344"><ele>132.0</ele><time>2026-04-03T13:41:13Z</time></trkpt><trkpt lat="38.89379814597792" lon="-9.31955256191316"><ele>132.0</ele><time>2026-04-03T13:41:14Z</time></trkpt><trkpt lat="38.89367351286552" lon="-9.319570222565172"><ele>132.0</ele><time>2026-04-03T13:41:15Z</time></trkpt><trkpt lat="38.893560551520274" lon="-9.319591659276272"><ele>132.0</ele><time>2026-04-03T13:41:16Z</time></trkpt><trkpt lat="38.89345910126548" lon="-9.319616612539903"><ele>132.0</ele><time>2026-04-03T13:41:17Z</time></trkpt><trkpt lat="38.89336570644847" lon="-9.319631373020078"><ele>132.0</ele><time>2026-04-03T13:41:18Z</time></trkpt><trkpt lat="38.89327637243546" lon="-9.319660498591821"><ele>131.4</ele><time>2026-04-03T13:41:19Z</time></trkpt><trkpt lat="38.89318817912866" lon="-9.319681426627483"><ele>130.79999999999998</ele><time>2026-04-03T13:41:20Z</time></trkpt><trkpt lat="38.893102593452475" lon="-9.319703109924145"><ele>130.2</ele><time>2026-04-03T13:41:21Z</time></trkpt><trkpt lat="38.893014684685056" lon="-9.319707959220453"><ele>129.6</ele><time>2026-04-03T13:41:22Z</time></trkpt><trkpt lat="38.89293411963688" lon="-9.319754500295494"><ele>129.0</ele><time>2026-04-03T13:41:23Z</time></trkpt><trkpt lat="38.892833436040135" lon="-9.319780398549025"><ele>126.6</ele><time>2026-04-03T13:41:24Z</time></trkpt><trkpt lat="38.89273100385907" lon="-9.319789913261184"><ele>124.2</ele><time>2026-04-03T13:41:25Z</time></trkpt><trkpt lat="38.8926326006955" lon="-9.319798589179156"><ele>121.79999999999998</ele><time>2026-04-03T13:41:26Z</time></trkpt><trkpt lat="38.892527850606285" lon="-9.319852407155045"><ele>119.39999999999999</ele><time>2026-04-03T13:41:27Z</time></trkpt><trkpt lat="38.892414635095555" lon="-9.319912905086936"><ele>117.0</ele><time>2026-04-03T13:41:28Z</time></trkpt><trkpt lat="38.89228383976762" lon="-9.31997446097314"><ele>115.0</ele><time>2026-04-03T13:41:29Z</time></trkpt><trkpt lat="38.892171899585584" lon="-9.320054711630833"><ele>113.0</ele><time>2026-04-03T13:41:30Z</time></trkpt><trkpt lat="38.892041915665246" lon="-9.320131375919352"><ele>111.0</ele><time>2026-04-03T13:41:31Z</time></trkpt><trkpt lat="38.89191930949889" lon="-9.320200534774251"><ele>109.0</ele><time>2026-04-03T13:41:32Z</time></trkpt><trkpt lat="38.89180609995549" lon="-9.320266123654834"><ele>108.25</ele><time>2026-04-03T13:41:33Z</time></trkpt><trkpt lat="38.891683660078776" lon="-9.320319757120458"><ele>107.5</ele><time>2026-04-03T13:41:34Z</time></trkpt><trkpt lat="38.89153218176837" lon="-9.32034236735181"><ele>106.75</ele><time>2026-04-03T13:41:35Z</time></trkpt><trkpt lat="38.891389180459385" lon="-9.320371195751434"><ele>106.0</ele><time>2026-04-03T13:41:36Z</time></trkpt><trkpt lat="38.891230483634125" lon="-9.320412977696854"><ele>106.0</ele><time>2026-04-03T13:41:37Z</time></trkpt><trkpt lat="38.89107589769" lon="-9.320454360717191"><ele>106.0</ele><time>2026-04-03T13:41:38Z</time></trkpt><trkpt lat="38.890944054006866" lon="-9.320498590431836"><ele>106.0</ele><time>2026-04-03T13:41:39Z</time></trkpt><trkpt lat="38.89080166135301" lon="-9.320558167953873"><ele>106.0</ele><time>2026-04-03T13:41:40Z</time></trkpt><trkpt lat="38.890664056728404" lon="-9.320594675940175"><ele>100.75</ele><time>2026-04-03T13:41:41Z</time></trkpt><trkpt lat="38.89053041296369" lon="-9.320638933617598"><ele>95.5</ele><time>2026-04-03T13:41:42Z</time></trkpt><trkpt lat="38.890420362016556" lon="-9.320656716177357"><ele>90.25</ele><time>2026-04-03T13:41:43Z</time></trkpt><trkpt lat="38.89031788122101" lon="-9.320672937059054"><ele>85.0</ele><time>2026-04-03T13:41:44Z</time></trkpt><trkpt lat="38.890209155213206" lon="-9.3206786366716"><ele>85.0</ele><time>2026-04-03T13:41:45Z</time></trkpt><trkpt lat="38.890114753214775" lon="-9.320660976109519"><ele>85.0</ele><time>2026-04-03T13:41:46Z</time></trkpt><trkpt lat="38.890009285694525" lon="-9.320635161018204"><ele>85.0</ele><time>2026-04-03T13:41:47Z</time></trkpt><trkpt lat="38.889886807145736" lon="-9.320579790396652"><ele>85.0</ele><time>2026-04-03T13:41:48Z</time></trkpt><trkpt lat="38.88975933893461" lon="-9.32050880312078"><ele>89.66666666666666</ele><time>2026-04-03T13:41:49Z</time></trkpt><trkpt lat="38.88960925904172" lon="-9.320440888893057"><ele>94.33333333333333</ele><time>2026-04-03T13:41:50Z</time></trkpt><trkpt lat="38.88945309455612" lon="-9.320365882845865"><ele>99.0</ele><time>2026-04-03T13:41:51Z</time></trkpt><trkpt lat="38.88931690362771" lon="-9.320302968520128"><ele>94.75</ele><time>2026-04-03T13:41:52Z</time></trkpt><trkpt lat="38.889195999268395" lon="-9.320230621423804"><ele>90.5</ele><time>2026-04-03T13:41:53Z</time></trkpt><trkpt lat="38.8890828435219" lon="-9.320122855118083"><ele>86.25</ele><time>2026-04-03T13:41:54Z</time></trkpt><trkpt lat="38.888975733733254" lon="-9.319990787297277"><ele>82.0</ele><time>2026-04-03T13:41:55Z</time></trkpt><trkpt lat="38.888880444816266" lon="-9.319875621676545"><ele>82.0</ele><time>2026-04-03T13:41:56Z</time></trkpt><trkpt lat="38.88879089585353" lon="-9.319761640226755"><ele>82.0</ele><time>2026-04-03T13:41:57Z</time></trkpt><trkpt lat="38.88866965758007" lon="-9.319696771810902"><ele>82.0</ele><time>2026-04-03T13:41:58Z</time></trkpt><trkpt lat="38.88857562622288" lon="-9.319594493388356"><ele>82.0</ele><time>2026-04-03T13:41:59Z</time></trkpt><trkpt lat="38.88847848041644" lon="-9.319491849520812"><ele>79.33333333333333</ele><time>2026-04-03T13:42:00Z</time></trkpt><trkpt lat="38.888368147192935" lon="-9.319328094392384"><ele>76.66666666666667</ele><time>2026-04-03T13:42:01Z</time></trkpt><trkpt lat="38.888251040800725" lon="-9.319169808127677"><ele>74.0</ele><time>2026-04-03T13:42:02Z</time></trkpt><trkpt lat="38.888133040204096" lon="-9.319045842466988"><ele>74.0</ele><time>2026-04-03T13:42:03Z</time></trkpt><trkpt lat="38.88800340047635" lon="-9.318946080300794"><ele>74.0</ele><time>2026-04-03T13:42:04Z</time></trkpt><trkpt lat="38.887862310192276" lon="-9.318859385805583"><ele>74.0</ele><time>2026-04-03T13:42:05Z</time></trkpt><trkpt lat="38.887718383171446" lon="-9.318780196619208"><ele>70.5</ele><time>2026-04-03T13:42:06Z</time></trkpt><trkpt lat="38.88758496814254" lon="-9.318711560001605"><ele>67.0</ele><time>2026-04-03T13:42:07Z</time></trkpt><trkpt lat="38.88745708703576" lon="-9.318662732950092"><ele>63.5</ele><time>2026-04-03T13:42:08Z</time></trkpt><trkpt lat="38.8873414102241" lon="-9.318608408943255"><ele>60.0</ele><time>2026-04-03T13:42:09Z</time></trkpt><trkpt lat="38.88727195389709" lon="-9.31844241373462"><ele>60.0</ele><time>2026-04-03T13:42:10Z</time></trkpt><trkpt lat="38.887182211736636" lon="-9.318314321353878"><ele>60.0</ele><time>2026-04-03T13:42:11Z</time></trkpt><trkpt lat="38.887100808399" lon="-9.31817729022341"><ele>60.0</ele><time>2026-04-03T13:42:12Z</time></trkpt><trkpt lat="38.887034545305696" lon="-9.318033545002049"><ele>60.0</ele><time>2026-04-03T13:42:13Z</time></trkpt><trkpt lat="38.886975225396895" lon="-9.317865737777367"><ele>61.25</ele><time>2026-04-03T13:42:14Z</time></trkpt><trkpt lat="38.88691222274357" lon="-9.31770272336625"><ele>62.5</ele><time>2026-04-03T13:42:15Z</time></trkpt><trkpt lat="38.8868458185224" lon="-9.317531218262193"><ele>63.75</ele><time>2026-04-03T13:42:16Z</time></trkpt><trkpt lat="38.88678656803771" lon="-9.317364947339156"><ele>65.0</ele><time>2026-04-03T13:42:17Z</time></trkpt><trkpt lat="38.88672304641685" lon="-9.317189829241563"><ele>65.0</ele><time>2026-04-03T13:42:18Z</time></trkpt><trkpt lat="38.88665960001832" lon="-9.317017995698095"><ele>65.0</ele><time>2026-04-03T13:42:19Z</time></trkpt><trkpt lat="38.88660702481171" lon="-9.316867402253061"><ele>65.0</ele><time>2026-04-03T13:42:20Z</time></trkpt><trkpt lat="38.886560108976944" lon="-9.316727340559043"><ele>65.0</ele><time>2026-04-03T13:42:21Z</time></trkpt><trkpt lat="38.886521184771944" lon="-9.316586820174129"><ele>65.0</ele><time>2026-04-03T13:42:22Z</time></trkpt><trkpt lat="38.88645915077441" lon="-9.316464006710145"><ele>65.0</ele><time>2026-04-03T13:42:23Z</time></trkpt><trkpt lat="38.8863541901033" lon="-9.316331197026358"><ele>65.0</ele><time>2026-04-03T13:42:24Z</time></trkpt><trkpt lat="38.886265209432025" lon="-9.316197906164307"><ele>65.0</ele><time>2026-04-03T13:42:25Z</time></trkpt><trkpt lat="38.886156874544774" lon="-9.316066827788708"><ele>63.75</ele><time>2026-04-03T13:42:26Z</time></trkpt><trkpt lat="38.88605147479991" lon="-9.315949258287512"><ele>62.5</ele><time>2026-04-03T13:42:27Z</time></trkpt><trkpt lat="38.885952921453416" lon="-9.315815797276567"><ele>61.25</ele><time>2026-04-03T13:42:28Z</time></trkpt><trkpt lat="38.88584563293502" lon="-9.315699064279478"><ele>60.0</ele><time>2026-04-03T13:42:29Z</time></trkpt><trkpt lat="38.88572445598614" lon="-9.315589931649168"><ele>60.75</ele><time>2026-04-03T13:42:30Z</time></trkpt><trkpt lat="38.88563254527061" lon="-9.315458522264434"><ele>61.5</ele><time>2026-04-03T13:42:31Z</time></trkpt><trkpt lat="38.885524465180055" lon="-9.315322533726366"><ele>62.25</ele><time>2026-04-03T13:42:32Z</time></trkpt><trkpt lat="38.885410000032486" lon="-9.315191102691662"><ele>63.0</ele><time>2026-04-03T13:42:33Z</time></trkpt><trkpt lat="38.88530362275184" lon="-9.31504062131395"><ele>63.0</ele><time>2026-04-03T13:42:34Z</time></trkpt><trkpt lat="38.8851804230053" lon="-9.314915385814787"><ele>63.0</ele><time>2026-04-03T13:42:35Z</time></trkpt><trkpt lat="38.88508000029468" lon="-9.314805146762364"><ele>63.0</ele><time>2026-04-03T13:42:36Z</time></trkpt><trkpt lat="38.88497788237784" lon="-9.314709288534871"><ele>63.0</ele><time>2026-04-03T13:42:37Z</time></trkpt><trkpt lat="38.88487018050579" lon="-9.31463304549896"><ele>63.5</ele><time>2026-04-03T13:42:38Z</time></trkpt><trkpt lat="38.884754389533825" lon="-9.314575703719479"><ele>64.0</ele><time>2026-04-03T13:42:39Z</time></trkpt><trkpt lat="38.884628945971066" lon="-9.314530249653286"><ele>64.5</ele><time>2026-04-03T13:42:40Z</time></trkpt><trkpt lat="38.88450659006043" lon="-9.314511756304688"><ele>65.0</ele><time>2026-04-03T13:42:41Z</time></trkpt><trkpt lat="38.88437214484846" lon="-9.31445840670978"><ele>65.0</ele><time>2026-04-03T13:42:42Z</time></trkpt><trkpt lat="38.88428801733224" lon="-9.314407951887544"><ele>65.0</ele><time>2026-04-03T13:42:43Z</time></trkpt><trkpt lat="38.884207244036844" lon="-9.314374466690902"><ele>65.0</ele><time>2026-04-03T13:42:44Z</time></trkpt><trkpt lat="38.884139123892204" lon="-9.314292022222954"><ele>65.0</ele><time>2026-04-03T13:42:45Z</time></trkpt><trkpt lat="38.884069612821826" lon="-9.314189602605618"><ele>65.0</ele><time>2026-04-03T13:42:46Z</time></trkpt><trkpt lat="38.88399463457212" lon="-9.314084531371119"><ele>64.4</ele><time>2026-04-03T13:42:47Z</time></trkpt><trkpt lat="38.883895362865765" lon="-9.31398377424832"><ele>63.8</ele><time>2026-04-03T13:42:48Z</time></trkpt><trkpt lat="38.88379428249355" lon="-9.313911081869993"><ele>63.2</ele><time>2026-04-03T13:42:49Z</time></trkpt><trkpt lat="38.88372177796317" lon="-9.313827269240978"><ele>62.6</ele><time>2026-04-03T13:42:50Z</time></trkpt><trkpt lat="38.88366260977682" lon="-9.313726621654855"><ele>62.0</ele><time>2026-04-03T13:42:51Z</time></trkpt><trkpt lat="38.88361668988688" lon="-9.313595855811872"><ele>63.00000000000001</ele><time>2026-04-03T13:42:52Z</time></trkpt><trkpt lat="38.88360227733492" lon="-9.31347830377321"><ele>64.0</ele><time>2026-04-03T13:42:53Z</time></trkpt><trkpt lat="38.88359571964335" lon="-9.313386720097744"><ele>65.0</ele><time>2026-04-03T13:42:54Z</time></trkpt><trkpt lat="38.883591449547055" lon="-9.313296537866869"><ele>66.0</ele><time>2026-04-03T13:42:55Z</time></trkpt><trkpt lat="38.88357594511077" lon="-9.313197423283954"><ele>67.0</ele><time>2026-04-03T13:42:56Z</time></trkpt><trkpt lat="38.88355567062031" lon="-9.313087815509293"><ele>68.0</ele><time>2026-04-03T13:42:57Z</time></trkpt><trkpt lat="38.88354142839855" lon="-9.312971361023335"><ele>69.5</ele><time>2026-04-03T13:42:58Z</time></trkpt><trkpt lat="38.88351013214028" lon="-9.312822220133572"><ele>71.0</ele><time>2026-04-03T13:42:59Z</time></trkpt><trkpt lat="38.88351343931911" lon="-9.312695113605908"><ele>72.5</ele><time>2026-04-03T13:43:00Z</time></trkpt><trkpt lat="38.883504241223044" lon="-9.312553574156222"><ele>74.0</ele><time>2026-04-03T13:43:01Z</time></trkpt><trkpt lat="38.88350888934158" lon="-9.312372097803973"><ele>75.66666666666667</ele><time>2026-04-03T13:43:02Z</time></trkpt><trkpt lat="38.88346785752747" lon="-9.312187441506289"><ele>77.33333333333333</ele><time>2026-04-03T13:43:03Z</time></trkpt><trkpt lat="38.88342220156549" lon="-9.311995493706783"><ele>79.0</ele><time>2026-04-03T13:43:04Z</time></trkpt><trkpt lat="38.883365576397864" lon="-9.311791820098673"><ele>76.33333333333333</ele><time>2026-04-03T13:43:05Z</time></trkpt><trkpt lat="38.883316267768784" lon="-9.311587588960982"><ele>73.66666666666667</ele><time>2026-04-03T13:43:06Z</time></trkpt><trkpt lat="38.88327320728207" lon="-9.311371775482929"><ele>71.0</ele><time>2026-04-03T13:43:07Z</time></trkpt><trkpt lat="38.88323601035702" lon="-9.311149119735282"><ele>71.0</ele><time>2026-04-03T13:43:08Z</time></trkpt><trkpt lat="38.883179359654235" lon="-9.310931502188108"><ele>71.0</ele><time>2026-04-03T13:43:09Z</time></trkpt><trkpt lat="38.883138116520946" lon="-9.310716548490088"><ele>71.0</ele><time>2026-04-03T13:43:10Z</time></trkpt><trkpt lat="38.88306996556771" lon="-9.310524556214617"><ele>73.5</ele><time>2026-04-03T13:43:11Z</time></trkpt><trkpt lat="38.88300682396154" lon="-9.310356600719919"><ele>76.0</ele><time>2026-04-03T13:43:12Z</time></trkpt><trkpt lat="38.88291291484232" lon="-9.310244814162566"><ele>78.5</ele><time>2026-04-03T13:43:13Z</time></trkpt><trkpt lat="38.882817924744806" lon="-9.310096730127764"><ele>81.0</ele><time>2026-04-03T13:43:14Z</time></trkpt><trkpt lat="38.88272065303331" lon="-9.30998559625355"><ele>81.0</ele><time>2026-04-03T13:43:15Z</time></trkpt><trkpt lat="38.88260686379586" lon="-9.30984531605129"><ele>81.0</ele><time>2026-04-03T13:43:16Z</time></trkpt><trkpt lat="38.882500888981355" lon="-9.309721657775174"><ele>81.0</ele><time>2026-04-03T13:43:17Z</time></trkpt><trkpt lat="38.882409536787925" lon="-9.309575468624736"><ele>81.0</ele><time>2026-04-03T13:43:18Z</time></trkpt><trkpt lat="38.88232497017769" lon="-9.309408982232934"><ele>80.2</ele><time>2026-04-03T13:43:19Z</time></trkpt><trkpt lat="38.88225290887339" lon="-9.30926556685883"><ele>79.39999999999999</ele><time>2026-04-03T13:43:20Z</time></trkpt><trkpt lat="38.88219594609319" lon="-9.309129012199252"><ele>78.6</ele><time>2026-04-03T13:43:21Z</time></trkpt><trkpt lat="38.88216271450144" lon="-9.309006636570047"><ele>77.8</ele><time>2026-04-03T13:43:22Z</time></trkpt><trkpt lat="38.88212436036908" lon="-9.308905646227851"><ele>77.0</ele><time>2026-04-03T13:43:23Z</time></trkpt><trkpt lat="38.88202241696074" lon="-9.308866006063283"><ele>77.0</ele><time>2026-04-03T13:43:24Z</time></trkpt><trkpt lat="38.881925969163056" lon="-9.308800289960953"><ele>77.0</ele><time>2026-04-03T13:43:25Z</time></trkpt><trkpt lat="38.88183371170158" lon="-9.308739638593899"><ele>77.0</ele><time>2026-04-03T13:43:26Z</time></trkpt><trkpt lat="38.881762863251105" lon="-9.308616438833656"><ele>77.0</ele><time>2026-04-03T13:43:27Z</time></trkpt><trkpt lat="38.881701167468265" lon="-9.308481325010199"><ele>75.6</ele><time>2026-04-03T13:43:28Z</time></trkpt><trkpt lat="38.881624698564835" lon="-9.308384505707432"><ele>74.2</ele><time>2026-04-03T13:43:29Z</time></trkpt><trkpt lat="38.88155763485865" lon="-9.308302115669333"><ele>72.8</ele><time>2026-04-03T13:43:30Z</time></trkpt><trkpt lat="38.88147914058174" lon="-9.30828172419192"><ele>71.4</ele><time>2026-04-03T13:43:31Z</time></trkpt><trkpt lat="38.88137550252948" lon="-9.308297478639831"><ele>70.0</ele><time>2026-04-03T13:43:32Z</time></trkpt><trkpt lat="38.88125358790978" lon="-9.308291908997303"><ele>70.0</ele><time>2026-04-03T13:43:33Z</time></trkpt><trkpt lat="38.881138906790376" lon="-9.308246570903863"><ele>70.0</ele><time>2026-04-03T13:43:34Z</time></trkpt><trkpt lat="38.881035289067995" lon="-9.308179343386524"><ele>70.0</ele><time>2026-04-03T13:43:35Z</time></trkpt><trkpt lat="38.88095631546707" lon="-9.308104311443246"><ele>70.0</ele><time>2026-04-03T13:43:36Z</time></trkpt><trkpt lat="38.88087073178739" lon="-9.308028270873644"><ele>70.0</ele><time>2026-04-03T13:43:37Z</time></trkpt><trkpt lat="38.880773553752064" lon="-9.307973423035628"><ele>71.8</ele><time>2026-04-03T13:43:38Z</time></trkpt><trkpt lat="38.88066722016926" lon="-9.307909611125787"><ele>73.6</ele><time>2026-04-03T13:43:39Z</time></trkpt><trkpt lat="38.88057174374163" lon="-9.307877049921935"><ele>75.4</ele><time>2026-04-03T13:43:40Z</time></trkpt><trkpt lat="38.880482839411584" lon="-9.3078666481676"><ele>77.2</ele><time>2026-04-03T13:43:41Z</time></trkpt><trkpt lat="38.88037719848204" lon="-9.307847466483675"><ele>79.0</ele><time>2026-04-03T13:43:42Z</time></trkpt><trkpt lat="38.8802721979961" lon="-9.307811147540004"><ele>79.0</ele><time>2026-04-03T13:43:43Z</time></trkpt><trkpt lat="38.88019167608654" lon="-9.307747209808069"><ele>79.0</ele><time>2026-04-03T13:43:44Z</time></trkpt><trkpt lat="38.88012855826258" lon="-9.30769711038007"><ele>79.0</ele><time>2026-04-03T13:43:45Z</time></trkpt><trkpt lat="38.88008613950249" lon="-9.307581601628609"><ele>79.0</ele><time>2026-04-03T13:43:46Z</time></trkpt><trkpt lat="38.880051283891575" lon="-9.307433362061383"><ele>79.0</ele><time>2026-04-03T13:43:47Z</time></trkpt><trkpt lat="38.88000931739081" lon="-9.30729357351315"><ele>82.25</ele><time>2026-04-03T13:43:48Z</time></trkpt><trkpt lat="38.87996497449648" lon="-9.30713640700487"><ele>85.5</ele><time>2026-04-03T13:43:49Z</time></trkpt><trkpt lat="38.879918308016514" lon="-9.306971423108095"><ele>88.75</ele><time>2026-04-03T13:43:50Z</time></trkpt><trkpt lat="38.87983694612889" lon="-9.306828920533196"><ele>92.0</ele><time>2026-04-03T13:43:51Z</time></trkpt><trkpt lat="38.879760210053185" lon="-9.306675481025213"><ele>92.0</ele><time>2026-04-03T13:43:52Z</time></trkpt><trkpt lat="38.879656119002895" lon="-9.306535808855495"><ele>92.0</ele><time>2026-04-03T13:43:53Z</time></trkpt><trkpt lat="38.879567486737685" lon="-9.306398206772904"><ele>92.0</ele><time>2026-04-03T13:43:54Z</time></trkpt><trkpt lat="38.8794846372331" lon="-9.306262297185652"><ele>92.0</ele><time>2026-04-03T13:43:55Z</time></trkpt><trkpt lat="38.87940473999276" lon="-9.306097339815526"><ele>90.25</ele><time>2026-04-03T13:43:56Z</time></trkpt><trkpt lat="38.879305336013466" lon="-9.305946754206843"><ele>88.5</ele><time>2026-04-03T13:43:57Z</time></trkpt><trkpt lat="38.87924079820519" lon="-9.305780468526214"><ele>86.75</ele><time>2026-04-03T13:43:58Z</time></trkpt><trkpt lat="38.879170129376476" lon="-9.305636954705248"><ele>85.0</ele><time>2026-04-03T13:43:59Z</time></trkpt><trkpt lat="38.87914802047567" lon="-9.305489644134102"><ele>92.75</ele><time>2026-04-03T13:44:00Z</time></trkpt><trkpt lat="38.87913200870984" lon="-9.305332920261046"><ele>100.5</ele><time>2026-04-03T13:44:01Z</time></trkpt><trkpt lat="38.8791249187251" lon="-9.305163586301862"><ele>108.25</ele><time>2026-04-03T13:44:02Z</time></trkpt><trkpt lat="38.87907297730781" lon="-9.305003040479107"><ele>116.0</ele><time>2026-04-03T13:44:03Z</time></trkpt><trkpt lat="38.87900811476915" lon="-9.304855377332272"><ele>115.0</ele><time>2026-04-03T13:44:04Z</time></trkpt><trkpt lat="38.87893789456268" lon="-9.304704006221437"><ele>114.0</ele><time>2026-04-03T13:44:05Z</time></trkpt><trkpt lat="38.87887661721323" lon="-9.30453810550466"><ele>113.0</ele><time>2026-04-03T13:44:06Z</time></trkpt><trkpt lat="38.87878628797455" lon="-9.304402248653332"><ele>112.0</ele><time>2026-04-03T13:44:07Z</time></trkpt><trkpt lat="38.878715165899365" lon="-9.30430830324387"><ele>112.0</ele><time>2026-04-03T13:44:08Z</time></trkpt><trkpt lat="38.87864277285613" lon="-9.3042367827994"><ele>111.99999999999999</ele><time>2026-04-03T13:44:09Z</time></trkpt><trkpt lat="38.87855120724649" lon="-9.304190152528031"><ele>111.99999999999999</ele><time>2026-04-03T13:44:10Z</time></trkpt><trkpt lat="38.87843726466111" lon="-9.30411651628058"><ele>112.0</ele><time>2026-04-03T13:44:11Z</time></trkpt><trkpt lat="38.878319767356786" lon="-9.304051179593293"><ele>112.0</ele><time>2026-04-03T13:44:12Z</time></trkpt><trkpt lat="38.87819626219749" lon="-9.304002136032976"><ele>116.25</ele><time>2026-04-03T13:44:13Z</time></trkpt><trkpt lat="38.87806987935256" lon="-9.303969354785067"><ele>120.5</ele><time>2026-04-03T13:44:14Z</time></trkpt><trkpt lat="38.87792629206171" lon="-9.303930547391051"><ele>124.75</ele><time>2026-04-03T13:44:15Z</time></trkpt><trkpt lat="38.87778228423499" lon="-9.303872103003734"><ele>129.0</ele><time>2026-04-03T13:44:16Z</time></trkpt><trkpt lat="38.87763285883959" lon="-9.303838043719544"><ele>136.0</ele><time>2026-04-03T13:44:17Z</time></trkpt><trkpt lat="38.87748426739366" lon="-9.303797213768673"><ele>143.0</ele><time>2026-04-03T13:44:18Z</time></trkpt><trkpt lat="38.87732970185672" lon="-9.303746102815857"><ele>150.0</ele><time>2026-04-03T13:44:19Z</time></trkpt><trkpt lat="38.877172455802864" lon="-9.303681087861413"><ele>150.0</ele><time>2026-04-03T13:44:20Z</time></trkpt><trkpt lat="38.87702905533085" lon="-9.303572981258272"><ele>150.0</ele><time>2026-04-03T13:44:21Z</time></trkpt><trkpt lat="38.87692849140733" lon="-9.303438380916567"><ele>150.0</ele><time>2026-04-03T13:44:22Z</time></trkpt><trkpt lat="38.87681879145813" lon="-9.3032726039097"><ele>155.66666666666666</ele><time>2026-04-03T13:44:23Z</time></trkpt><trkpt lat="38.8766961731347" lon="-9.303114523791008"><ele>161.33333333333331</ele><time>2026-04-03T13:44:24Z</time></trkpt><trkpt lat="38.87655952797848" lon="-9.302976109696536"><ele>167.0</ele><time>2026-04-03T13:44:25Z</time></trkpt><trkpt lat="38.876428822667066" lon="-9.30284860869144"><ele>167.8</ele><time>2026-04-03T13:44:26Z</time></trkpt><trkpt lat="38.87630920804534" lon="-9.302770525811194"><ele>168.6</ele><time>2026-04-03T13:44:27Z</time></trkpt><trkpt lat="38.87622983937704" lon="-9.30272608447357"><ele>169.4</ele><time>2026-04-03T13:44:28Z</time></trkpt><trkpt lat="38.876161550651744" lon="-9.302708419696954"><ele>170.20000000000002</ele><time>2026-04-03T13:44:29Z</time></trkpt><trkpt lat="38.87608502381685" lon="-9.302762199379767"><ele>171.0</ele><time>2026-04-03T13:44:30Z</time></trkpt><trkpt lat="38.875984257774675" lon="-9.302840744978138"><ele>171.25</ele><time>2026-04-03T13:44:31Z</time></trkpt><trkpt lat="38.8758844684269" lon="-9.302923253060042"><ele>171.5</ele><time>2026-04-03T13:44:32Z</time></trkpt><trkpt lat="38.8757943506435" lon="-9.303043287994074"><ele>171.75</ele><time>2026-04-03T13:44:33Z</time></trkpt><trkpt lat="38.875725530858325" lon="-9.303183909436731"><ele>172.0</ele><time>2026-04-03T13:44:34Z</time></trkpt><trkpt lat="38.87565054260685" lon="-9.303339926410755"><ele>173.75</ele><time>2026-04-03T13:44:35Z</time></trkpt><trkpt lat="38.87557061880948" lon="-9.30350651436398"><ele>175.5</ele><time>2026-04-03T13:44:36Z</time></trkpt><trkpt lat="38.87548091766974" lon="-9.30366378268655"><ele>177.25</ele><time>2026-04-03T13:44:37Z</time></trkpt><trkpt lat="38.87541106649311" lon="-9.30382116077794"><ele>179.0</ele><time>2026-04-03T13:44:38Z</time></trkpt><trkpt lat="38.87535084468937" lon="-9.303950971311814"><ele>179.79999999999998</ele><time>2026-04-03T13:44:39Z</time></trkpt><trkpt lat="38.87529101888664" lon="-9.30406614757647"><ele>180.6</ele><time>2026-04-03T13:44:40Z</time></trkpt><trkpt lat="38.875250958595174" lon="-9.304176103896262"><ele>181.4</ele><time>2026-04-03T13:44:41Z</time></trkpt><trkpt lat="38.875221015096976" lon="-9.304268262471968"><ele>182.2</ele><time>2026-04-03T13:44:42Z</time></trkpt><trkpt lat="38.87518202270958" lon="-9.304359943994784"><ele>183.0</ele><time>2026-04-03T13:44:44Z</time></trkpt><trkpt lat="38.875247803041916" lon="-9.304507723838116"><ele>183.0</ele><time>2026-04-03T13:44:45Z</time></trkpt><trkpt lat="38.87539172068103" lon="-9.304558868013027"><ele>183.0</ele><time>2026-04-03T13:44:46Z</time></trkpt><trkpt lat="38.875489932693824" lon="-9.304680054078432"><ele>183.0</ele><time>2026-04-03T13:44:47Z</time></trkpt><trkpt lat="38.87560427358002" lon="-9.304827255741472"><ele>183.0</ele><time>2026-04-03T13:44:48Z</time></trkpt><trkpt lat="38.87572566514575" lon="-9.304994028174084"><ele>185.0</ele><time>2026-04-03T13:44:49Z</time></trkpt><trkpt lat="38.87584774449703" lon="-9.305167811643436"><ele>187.0</ele><time>2026-04-03T13:44:50Z</time></trkpt><trkpt lat="38.875973918009386" lon="-9.305353794439739"><ele>189.0</ele><time>2026-04-03T13:44:51Z</time></trkpt><trkpt lat="38.87610516609279" lon="-9.305544311782267"><ele>192.0</ele><time>2026-04-03T13:44:52Z</time></trkpt><trkpt lat="38.876263425857815" lon="-9.305690863530252"><ele>195.0</ele><time>2026-04-03T13:44:53Z</time></trkpt><trkpt lat="38.87643158108178" lon="-9.305797176496691"><ele>198.0</ele><time>2026-04-03T13:44:54Z</time></trkpt><trkpt lat="38.876599339367225" lon="-9.30589447637945"><ele>198.0</ele><time>2026-04-03T13:44:55Z</time></trkpt><trkpt lat="38.8767386734577" lon="-9.305953543288249"><ele>198.0</ele><time>2026-04-03T13:44:56Z</time></trkpt><trkpt lat="38.87686933429526" lon="-9.305960128094501"><ele>198.0</ele><time>2026-04-03T13:44:57Z</time></trkpt><trkpt lat="38.87696885639097" lon="-9.306009468916155"><ele>198.0</ele><time>2026-04-03T13:44:58Z</time></trkpt><trkpt lat="38.877068242487304" lon="-9.306105980487471"><ele>197.2</ele><time>2026-04-03T13:44:59Z</time></trkpt><trkpt lat="38.877104966055676" lon="-9.306223344795093"><ele>196.4</ele><time>2026-04-03T13:45:00Z</time></trkpt><trkpt lat="38.87711548610658" lon="-9.306350647729186"><ele>195.6</ele><time>2026-04-03T13:45:01Z</time></trkpt><trkpt lat="38.877106794504066" lon="-9.306480817126994"><ele>194.79999999999998</ele><time>2026-04-03T13:45:02Z</time></trkpt><trkpt lat="38.8770721840402" lon="-9.306608826794092"><ele>194.0</ele><time>2026-04-03T13:45:03Z</time></trkpt><trkpt lat="38.87704102465266" lon="-9.306752863909919"><ele>194.0</ele><time>2026-04-03T13:45:04Z</time></trkpt><trkpt lat="38.87692394763932" lon="-9.306877661087793"><ele>194.0</ele><time>2026-04-03T13:45:05Z</time></trkpt><trkpt lat="38.87680220321847" lon="-9.307027737748422"><ele>194.0</ele><time>2026-04-03T13:45:06Z</time></trkpt><trkpt lat="38.87668168009546" lon="-9.307217346595653"><ele>195.33333333333334</ele><time>2026-04-03T13:45:07Z</time></trkpt><trkpt lat="38.876569142454855" lon="-9.30742344987429"><ele>196.66666666666669</ele><time>2026-04-03T13:45:08Z</time></trkpt><trkpt lat="38.87645915747799" lon="-9.307591397401161"><ele>198.0</ele><time>2026-04-03T13:45:09Z</time></trkpt><trkpt lat="38.87634139334064" lon="-9.307715599999339"><ele>198.0</ele><time>2026-04-03T13:45:10Z</time></trkpt><trkpt lat="38.876247533712835" lon="-9.307836458119786"><ele>198.0</ele><time>2026-04-03T13:45:11Z</time></trkpt><trkpt lat="38.87614964132881" lon="-9.307925008515719"><ele>198.0</ele><time>2026-04-03T13:45:12Z</time></trkpt><trkpt lat="38.87607457157332" lon="-9.308036714272273"><ele>198.0</ele><time>2026-04-03T13:45:13Z</time></trkpt><trkpt lat="38.875957687123176" lon="-9.308111585890453"><ele>194.0</ele><time>2026-04-03T13:45:14Z</time></trkpt><trkpt lat="38.87578786271278" lon="-9.308123147960579"><ele>190.0</ele><time>2026-04-03T13:45:15Z</time></trkpt><trkpt lat="38.87561775532419" lon="-9.308199366677078"><ele>186.0</ele><time>2026-04-03T13:45:16Z</time></trkpt><trkpt lat="38.875437399264946" lon="-9.308279538049227"><ele>186.0</ele><time>2026-04-03T13:45:17Z</time></trkpt><trkpt lat="38.87528392849612" lon="-9.308367846312834"><ele>186.0</ele><time>2026-04-03T13:45:18Z</time></trkpt><trkpt lat="38.87514659338871" lon="-9.308466914501398"><ele>186.0</ele><time>2026-04-03T13:45:19Z</time></trkpt><trkpt lat="38.8750233201553" lon="-9.308569251610027"><ele>183.75</ele><time>2026-04-03T13:45:20Z</time></trkpt><trkpt lat="38.87491379194563" lon="-9.308656653924237"><ele>181.5</ele><time>2026-04-03T13:45:21Z</time></trkpt><trkpt lat="38.87482066062231" lon="-9.308750650504885"><ele>179.25</ele><time>2026-04-03T13:45:22Z</time></trkpt><trkpt lat="38.87475981200513" lon="-9.308858864280115"><ele>177.0</ele><time>2026-04-03T13:45:23Z</time></trkpt><trkpt lat="38.87475053033194" lon="-9.309005125949446"><ele>175.66666666666666</ele><time>2026-04-03T13:45:24Z</time></trkpt><trkpt lat="38.87473334620228" lon="-9.309173770507515"><ele>174.33333333333331</ele><time>2026-04-03T13:45:25Z</time></trkpt><trkpt lat="38.87469840463941" lon="-9.309370940242635"><ele>173.0</ele><time>2026-04-03T13:45:26Z</time></trkpt><trkpt lat="38.8746770796832" lon="-9.309578512825956"><ele>171.5</ele><time>2026-04-03T13:45:27Z</time></trkpt><trkpt lat="38.874652293529394" lon="-9.309772669972409"><ele>170.0</ele><time>2026-04-03T13:45:28Z</time></trkpt><trkpt lat="38.87462679057718" lon="-9.309949308089028"><ele>168.5</ele><time>2026-04-03T13:45:29Z</time></trkpt><trkpt lat="38.874599605886374" lon="-9.310111761027699"><ele>167.0</ele><time>2026-04-03T13:45:30Z</time></trkpt><trkpt lat="38.87457821891112" lon="-9.310257375141083"><ele>167.0</ele><time>2026-04-03T13:45:31Z</time></trkpt><trkpt lat="38.87454733997066" lon="-9.310383703937344"><ele>167.0</ele><time>2026-04-03T13:45:32Z</time></trkpt><trkpt lat="38.87450829305533" lon="-9.310493716330969"><ele>167.0</ele><time>2026-04-03T13:45:33Z</time></trkpt><trkpt lat="38.87447860391137" lon="-9.310568945509468"><ele>167.0</ele><time>2026-04-03T13:45:34Z</time></trkpt><trkpt lat="38.874538109676486" lon="-9.310722447890093"><ele>167.0</ele><time>2026-04-03T13:45:36Z</time></trkpt><trkpt lat="38.87457701277012" lon="-9.310805960605203"><ele>164.79999999999998</ele><time>2026-04-03T13:45:37Z</time></trkpt><trkpt lat="38.87461236878457" lon="-9.310876456426024"><ele>162.6</ele><time>2026-04-03T13:45:38Z</time></trkpt><trkpt lat="38.8746926850465" lon="-9.310988148302185"><ele>160.39999999999998</ele><time>2026-04-03T13:45:40Z</time></trkpt><trkpt lat="38.8747656042733" lon="-9.311088620856005"><ele>158.2</ele><time>2026-04-03T13:45:42Z</time></trkpt><trkpt lat="38.87483952203206" lon="-9.311207494387437"><ele>156.0</ele><time>2026-04-03T13:45:44Z</time></trkpt><trkpt lat="38.87488122436143" lon="-9.311273408253035"><ele>156.0</ele><time>2026-04-03T13:45:45Z</time></trkpt><trkpt lat="38.874927996254996" lon="-9.311332219032558"><ele>156.0</ele><time>2026-04-03T13:45:46Z</time></trkpt><trkpt lat="38.87498355797864" lon="-9.31138502889653"><ele>156.0</ele><time>2026-04-03T13:45:47Z</time></trkpt><trkpt lat="38.87502463369413" lon="-9.311446578647345"><ele>156.0</ele><time>2026-04-03T13:45:48Z</time></trkpt><trkpt lat="38.87506936861482" lon="-9.311507255370286"><ele>156.0</ele><time>2026-04-03T13:45:49Z</time></trkpt><trkpt lat="38.87510672148306" lon="-9.311584726815612"><ele>156.0</ele><time>2026-04-03T13:45:50Z</time></trkpt><trkpt lat="38.875197533536195" lon="-9.311632031224159"><ele>156.0</ele><time>2026-04-03T13:45:52Z</time></trkpt><trkpt lat="38.87529318492919" lon="-9.311668954671275"><ele>152.33333333333334</ele><time>2026-04-03T13:45:55Z</time></trkpt><trkpt lat="38.87535775706171" lon="-9.31168493298263"><ele>148.66666666666666</ele><time>2026-04-03T13:45:57Z</time></trkpt><trkpt lat="38.87542193850731" lon="-9.311721088018643"><ele>145.0</ele><time>2026-04-03T13:45:59Z</time></trkpt><trkpt lat="38.87549479146031" lon="-9.31174377978567"><ele>141.33333333333331</ele><time>2026-04-03T13:46:01Z</time></trkpt><trkpt lat="38.87556405010855" lon="-9.31177075217713"><ele>137.66666666666666</ele><time>2026-04-03T13:46:03Z</time></trkpt><trkpt lat="38.87565835015881" lon="-9.31177944222067"><ele>134.0</ele><time>2026-04-03T13:46:06Z</time></trkpt><trkpt lat="38.87573837398743" lon="-9.311787746447685"><ele>134.0</ele><time>2026-04-03T13:46:09Z</time></trkpt><trkpt lat="38.875827082593894" lon="-9.31178566841453"><ele>134.0</ele><time>2026-04-03T13:46:12Z</time></trkpt><trkpt lat="38.875892769765585" lon="-9.3118155401518"><ele>134.0</ele><time>2026-04-03T13:46:14Z</time></trkpt><trkpt lat="38.87596268825376" lon="-9.311762705943075"><ele>134.0</ele><time>2026-04-03T13:46:17Z</time></trkpt><trkpt lat="38.87602135791949" lon="-9.311700616722291"><ele>134.0</ele><time>2026-04-03T13:46:20Z</time></trkpt><trkpt lat="38.87609991144367" lon="-9.31165064407914"><ele>134.0</ele><time>2026-04-03T13:46:23Z</time></trkpt><trkpt lat="38.8761643635098" lon="-9.311623184573811"><ele>131.33333333333331</ele><time>2026-04-03T13:46:25Z</time></trkpt><trkpt lat="38.87626673795953" lon="-9.31161418217801"><ele>128.66666666666666</ele><time>2026-04-03T13:46:27Z</time></trkpt><trkpt lat="38.87633174086028" lon="-9.3116234701924"><ele>126.0</ele><time>2026-04-03T13:46:29Z</time></trkpt><trkpt lat="38.876396126364575" lon="-9.311620570993805"><ele>123.33333333333334</ele><time>2026-04-03T13:46:31Z</time></trkpt><trkpt lat="38.87649026385726" lon="-9.311571930606162"><ele>120.66666666666667</ele><time>2026-04-03T13:46:34Z</time></trkpt><trkpt lat="38.87655484796179" lon="-9.311556455845688"><ele>118.0</ele><time>2026-04-03T13:46:36Z</time></trkpt><trkpt lat="38.87651417760559" lon="-9.311621788440673"><ele>118.00000000000001</ele><time>2026-04-03T13:48:02Z</time></trkpt><trkpt lat="38.87644058747839" lon="-9.311633224535065"><ele>118.0</ele><time>2026-04-03T13:48:06Z</time></trkpt><trkpt lat="38.87637650045586" lon="-9.311590927677663"><ele>118.0</ele><time>2026-04-03T13:48:19Z</time></trkpt><trkpt lat="38.87630560232057" lon="-9.31164156447064"><ele>118.0</ele><time>2026-04-03T13:48:22Z</time></trkpt><trkpt lat="38.876213537064274" lon="-9.311641368194763"><ele>118.00000000000001</ele><time>2026-04-03T13:48:36Z</time></trkpt><trkpt lat="38.87613639833005" lon="-9.311645781458044"><ele>118.0</ele><time>2026-04-03T13:48:38Z</time></trkpt><trkpt lat="38.87605485886042" lon="-9.311694611918314"><ele>118.00000000000001</ele><time>2026-04-03T13:48:40Z</time></trkpt><trkpt lat="38.875993884925094" lon="-9.311742971283266"><ele>118.0</ele><time>2026-04-03T13:48:42Z</time></trkpt><trkpt lat="38.87592999502541" lon="-9.31179099293357"><ele>118.0</ele><time>2026-04-03T13:48:44Z</time></trkpt><trkpt lat="38.87584837064899" lon="-9.311847853935252"><ele>118.0</ele><time>2026-04-03T13:48:46Z</time></trkpt><trkpt lat="38.87576057061384" lon="-9.311821331263717"><ele>118.00000000000001</ele><time>2026-04-03T13:48:48Z</time></trkpt><trkpt lat="38.875718854983376" lon="-9.311752778363207"><ele>118.0</ele><time>2026-04-03T13:48:50Z</time></trkpt><trkpt lat="38.87562628813049" lon="-9.311747030478099"><ele>121.2</ele><time>2026-04-03T13:48:52Z</time></trkpt><trkpt lat="38.87550909003594" lon="-9.311765207614485"><ele>124.4</ele><time>2026-04-03T13:48:55Z</time></trkpt><trkpt lat="38.875399200415266" lon="-9.311705504122285"><ele>127.60000000000001</ele><time>2026-04-03T13:48:57Z</time></trkpt><trkpt lat="38.87533294343482" lon="-9.311668553157041"><ele>130.8</ele><time>2026-04-03T13:48:58Z</time></trkpt><trkpt lat="38.87526379496243" lon="-9.311639425674123"><ele>134.0</ele><time>2026-04-03T13:48:59Z</time></trkpt><trkpt lat="38.87518974149997" lon="-9.311629691982716"><ele>134.6</ele><time>2026-04-03T13:49:00Z</time></trkpt><trkpt lat="38.87507762727478" lon="-9.31157277646253"><ele>135.2</ele><time>2026-04-03T13:49:02Z</time></trkpt><trkpt lat="38.875018914901666" lon="-9.31151124247678"><ele>135.79999999999998</ele><time>2026-04-03T13:49:03Z</time></trkpt><trkpt lat="38.874954497499964" lon="-9.31143427719078"><ele>136.4</ele><time>2026-04-03T13:49:04Z</time></trkpt><trkpt lat="38.87489231055632" lon="-9.311342936948908"><ele>137.0</ele><time>2026-04-03T13:49:05Z</time></trkpt><trkpt lat="38.874812341406326" lon="-9.311253297030811"><ele>141.75</ele><time>2026-04-03T13:49:06Z</time></trkpt><trkpt lat="38.87473366494212" lon="-9.311119625272399"><ele>146.5</ele><time>2026-04-03T13:49:07Z</time></trkpt><trkpt lat="38.87465143746683" lon="-9.310962128533301"><ele>151.25</ele><time>2026-04-03T13:49:08Z</time></trkpt><trkpt lat="38.874586838602006" lon="-9.310838101824054"><ele>156.0</ele><time>2026-04-03T13:49:09Z</time></trkpt><trkpt lat="38.87455879881951" lon="-9.310742048127908"><ele>156.0</ele><time>2026-04-03T13:49:10Z</time></trkpt><trkpt lat="38.87434516540148" lon="-9.310641469780942"><ele>156.0</ele><time>2026-04-03T13:49:12Z</time></trkpt><trkpt lat="38.87433298799352" lon="-9.31053731576853"><ele>156.0</ele><time>2026-04-03T13:49:14Z</time></trkpt><trkpt lat="38.87434504119577" lon="-9.310640407513919"><ele>156.0</ele><time>2026-04-03T13:49:16Z</time></trkpt><trkpt lat="38.874342906060555" lon="-9.31076626289177"><ele>154.25</ele><time>2026-04-03T13:49:17Z</time></trkpt><trkpt lat="38.874239577140536" lon="-9.310872641608986"><ele>152.5</ele><time>2026-04-03T13:49:18Z</time></trkpt><trkpt lat="38.87413662153383" lon="-9.310984168366643"><ele>150.75</ele><time>2026-04-03T13:49:19Z</time></trkpt><trkpt lat="38.87404028709946" lon="-9.311058788272643"><ele>149.0</ele><time>2026-04-03T13:49:20Z</time></trkpt><trkpt lat="38.87392653462799" lon="-9.3111085327785"><ele>149.0</ele><time>2026-04-03T13:49:21Z</time></trkpt><trkpt lat="38.873799134388285" lon="-9.31114949918632"><ele>149.0</ele><time>2026-04-03T13:49:22Z</time></trkpt><trkpt lat="38.873660174833226" lon="-9.311146494778093"><ele>149.0</ele><time>2026-04-03T13:49:23Z</time></trkpt><trkpt lat="38.873512948150676" lon="-9.311150967399183"><ele>149.0</ele><time>2026-04-03T13:49:24Z</time></trkpt><trkpt lat="38.87336250212451" lon="-9.311176399358345"><ele>146.66666666666666</ele><time>2026-04-03T13:49:25Z</time></trkpt><trkpt lat="38.87320582748373" lon="-9.311174482291037"><ele>144.33333333333334</ele><time>2026-04-03T13:49:26Z</time></trkpt><trkpt lat="38.873054378185664" lon="-9.31117713422645"><ele>142.0</ele><time>2026-04-03T13:49:27Z</time></trkpt><trkpt lat="38.872904326662166" lon="-9.311192231983261"><ele>142.0</ele><time>2026-04-03T13:49:28Z</time></trkpt><trkpt lat="38.87277144180488" lon="-9.311189858030914"><ele>142.0</ele><time>2026-04-03T13:49:29Z</time></trkpt><trkpt lat="38.872617949386516" lon="-9.311202716547928"><ele>142.0</ele><time>2026-04-03T13:49:30Z</time></trkpt><trkpt lat="38.87245747032163" lon="-9.31121799317985"><ele>142.0</ele><time>2026-04-03T13:49:31Z</time></trkpt><trkpt lat="38.87229346378413" lon="-9.311247440470156"><ele>137.66666666666669</ele><time>2026-04-03T13:49:32Z</time></trkpt><trkpt lat="38.87214113380006" lon="-9.311313468145732"><ele>133.33333333333334</ele><time>2026-04-03T13:49:33Z</time></trkpt><trkpt lat="38.87198421785886" lon="-9.31138282763231"><ele>129.0</ele><time>2026-04-03T13:49:34Z</time></trkpt><trkpt lat="38.87183174260416" lon="-9.311488155547094"><ele>127.66666666666666</ele><time>2026-04-03T13:49:35Z</time></trkpt><trkpt lat="38.87168559046636" lon="-9.311618043927949"><ele>126.33333333333333</ele><time>2026-04-03T13:49:36Z</time></trkpt><trkpt lat="38.8715478567089" lon="-9.311772260934138"><ele>125.0</ele><time>2026-04-03T13:49:37Z</time></trkpt><trkpt lat="38.87140205070747" lon="-9.311918142122238"><ele>125.0</ele><time>2026-04-03T13:49:38Z</time></trkpt><trkpt lat="38.871299473571554" lon="-9.312060420891669"><ele>125.0</ele><time>2026-04-03T13:49:39Z</time></trkpt><trkpt lat="38.871181547852075" lon="-9.312200219381014"><ele>125.0</ele><time>2026-04-03T13:49:40Z</time></trkpt><trkpt lat="38.87105161825827" lon="-9.312334526215812"><ele>127.33333333333333</ele><time>2026-04-03T13:49:41Z</time></trkpt><trkpt lat="38.870922561530506" lon="-9.312466530109983"><ele>129.66666666666666</ele><time>2026-04-03T13:49:42Z</time></trkpt><trkpt lat="38.87079446011924" lon="-9.312597186505986"><ele>132.0</ele><time>2026-04-03T13:49:43Z</time></trkpt><trkpt lat="38.870665387619184" lon="-9.312713345857166"><ele>132.0</ele><time>2026-04-03T13:49:44Z</time></trkpt><trkpt lat="38.870539964819315" lon="-9.312827365199128"><ele>132.0</ele><time>2026-04-03T13:49:45Z</time></trkpt><trkpt lat="38.870426622949815" lon="-9.312929456122008"><ele>132.0</ele><time>2026-04-03T13:49:46Z</time></trkpt><trkpt lat="38.87031746207845" lon="-9.313038728372172"><ele>132.0</ele><time>2026-04-03T13:49:47Z</time></trkpt><trkpt lat="38.87023477960747" lon="-9.313171236063042"><ele>134.0</ele><time>2026-04-03T13:49:48Z</time></trkpt><trkpt lat="38.87016480051327" lon="-9.313296141043873"><ele>136.0</ele><time>2026-04-03T13:49:49Z</time></trkpt><trkpt lat="38.87009738627194" lon="-9.313445899854017"><ele>138.0</ele><time>2026-04-03T13:49:50Z</time></trkpt><trkpt lat="38.870029372553354" lon="-9.313610654848947"><ele>140.0</ele><time>2026-04-03T13:49:51Z</time></trkpt><trkpt lat="38.86994986102881" lon="-9.313780411550553"><ele>141.25</ele><time>2026-04-03T13:49:52Z</time></trkpt><trkpt lat="38.86988270980155" lon="-9.313951156389765"><ele>142.5</ele><time>2026-04-03T13:49:53Z</time></trkpt><trkpt lat="38.86979662238862" lon="-9.314090848938488"><ele>143.75</ele><time>2026-04-03T13:49:54Z</time></trkpt><trkpt lat="38.86966808198409" lon="-9.314192564253835"><ele>145.0</ele><time>2026-04-03T13:49:55Z</time></trkpt><trkpt lat="38.86952361923078" lon="-9.314253116682568"><ele>145.0</ele><time>2026-04-03T13:49:56Z</time></trkpt><trkpt lat="38.86936110535945" lon="-9.314280514305123"><ele>145.0</ele><time>2026-04-03T13:49:57Z</time></trkpt><trkpt lat="38.869199498203635" lon="-9.314314876869487"><ele>145.0</ele><time>2026-04-03T13:49:58Z</time></trkpt><trkpt lat="38.869033345544985" lon="-9.314359565393817"><ele>147.0</ele><time>2026-04-03T13:49:59Z</time></trkpt><trkpt lat="38.86886256498772" lon="-9.314405398646418"><ele>149.0</ele><time>2026-04-03T13:50:00Z</time></trkpt><trkpt lat="38.86870438568375" lon="-9.31444629266686"><ele>151.0</ele><time>2026-04-03T13:50:01Z</time></trkpt><trkpt lat="38.86858326697484" lon="-9.314478069589448"><ele>151.0</ele><time>2026-04-03T13:50:02Z</time></trkpt><trkpt lat="38.86847893304326" lon="-9.314508226169288"><ele>151.0</ele><time>2026-04-03T13:50:03Z</time></trkpt><trkpt lat="38.868395613142454" lon="-9.314531094795912"><ele>151.0</ele><time>2026-04-03T13:50:04Z</time></trkpt><trkpt lat="38.868315303930466" lon="-9.314634609137787"><ele>151.0</ele><time>2026-04-03T13:50:06Z</time></trkpt><trkpt lat="38.868383518215275" lon="-9.314752395980626"><ele>151.0</ele><time>2026-04-03T13:50:07Z</time></trkpt><trkpt lat="38.86838766429044" lon="-9.31487655690545"><ele>152.2</ele><time>2026-04-03T13:50:08Z</time></trkpt><trkpt lat="38.86838766429054" lon="-9.314987373134716"><ele>153.39999999999998</ele><time>2026-04-03T13:50:09Z</time></trkpt><trkpt lat="38.86834726322141" lon="-9.315119130741696"><ele>154.6</ele><time>2026-04-03T13:50:10Z</time></trkpt><trkpt lat="38.868286768978116" lon="-9.315227399355884"><ele>155.79999999999998</ele><time>2026-04-03T13:50:11Z</time></trkpt><trkpt lat="38.868182899594075" lon="-9.315346062538426"><ele>157.0</ele><time>2026-04-03T13:50:12Z</time></trkpt><trkpt lat="38.868067215302645" lon="-9.315474742656257"><ele>156.0</ele><time>2026-04-03T13:50:13Z</time></trkpt><trkpt lat="38.867947953242926" lon="-9.315607465168563"><ele>155.0</ele><time>2026-04-03T13:50:14Z</time></trkpt><trkpt lat="38.86781245896616" lon="-9.315754038266997"><ele>154.0</ele><time>2026-04-03T13:50:15Z</time></trkpt><trkpt lat="38.86767041001923" lon="-9.31589050584363"><ele>155.66666666666669</ele><time>2026-04-03T13:50:16Z</time></trkpt><trkpt lat="38.867537801444776" lon="-9.316035448350279"><ele>157.33333333333334</ele><time>2026-04-03T13:50:17Z</time></trkpt><trkpt lat="38.867434819102954" lon="-9.3161796193991"><ele>159.0</ele><time>2026-04-03T13:50:18Z</time></trkpt><trkpt lat="38.86734393323757" lon="-9.31630111498366"><ele>158.66666666666666</ele><time>2026-04-03T13:50:19Z</time></trkpt><trkpt lat="38.867266152578" lon="-9.316408623114938"><ele>158.33333333333334</ele><time>2026-04-03T13:50:20Z</time></trkpt><trkpt lat="38.86719929978411" lon="-9.316506161450862"><ele>158.0</ele><time>2026-04-03T13:50:21Z</time></trkpt><trkpt lat="38.86715605763321" lon="-9.31657691003673"><ele>157.66666666666669</ele><time>2026-04-03T13:50:22Z</time></trkpt><trkpt lat="38.86711353309303" lon="-9.31664998035616"><ele>157.33333333333334</ele><time>2026-04-03T13:50:24Z</time></trkpt><trkpt lat="38.86705999843562" lon="-9.316745797829155"><ele>157.0</ele><time>2026-04-03T13:50:26Z</time></trkpt><trkpt lat="38.86698889927606" lon="-9.31686110343529"><ele>157.0</ele><time>2026-04-03T13:50:28Z</time></trkpt><trkpt lat="38.86693543445644" lon="-9.316949820460538"><ele>157.0</ele><time>2026-04-03T13:50:29Z</time></trkpt><trkpt lat="38.866879452779216" lon="-9.317049794883323"><ele>157.0</ele><time>2026-04-03T13:50:30Z</time></trkpt><trkpt lat="38.86683672160018" lon="-9.317185758585147"><ele>157.0</ele><time>2026-04-03T13:50:31Z</time></trkpt><trkpt lat="38.86685136826221" lon="-9.317374462310458"><ele>157.0</ele><time>2026-04-03T13:50:32Z</time></trkpt><trkpt lat="38.86686337109614" lon="-9.317580165950606"><ele>158.66666666666669</ele><time>2026-04-03T13:50:33Z</time></trkpt><trkpt lat="38.86679267530247" lon="-9.317790701906896"><ele>160.33333333333334</ele><time>2026-04-03T13:50:34Z</time></trkpt><trkpt lat="38.866708696983395" lon="-9.318002821037469"><ele>162.0</ele><time>2026-04-03T13:50:35Z</time></trkpt><trkpt lat="38.866615126140864" lon="-9.31822407592923"><ele>162.66666666666666</ele><time>2026-04-03T13:50:36Z</time></trkpt><trkpt lat="38.86653619958029" lon="-9.318450539771929"><ele>163.33333333333331</ele><time>2026-04-03T13:50:37Z</time></trkpt><trkpt lat="38.86646515959658" lon="-9.318692608255157"><ele>164.0</ele><time>2026-04-03T13:50:38Z</time></trkpt><trkpt lat="38.866460684315925" lon="-9.31891365438265"><ele>164.0</ele><time>2026-04-03T13:50:39Z</time></trkpt><trkpt lat="38.86648054975398" lon="-9.319090652834303"><ele>164.0</ele><time>2026-04-03T13:50:40Z</time></trkpt><trkpt lat="38.86650954436706" lon="-9.319284988624112"><ele>164.0</ele><time>2026-04-03T13:50:41Z</time></trkpt><trkpt lat="38.866532886664054" lon="-9.319511359385258"><ele>164.0</ele><time>2026-04-03T13:50:42Z</time></trkpt><trkpt lat="38.86657242577178" lon="-9.319729506362911"><ele>164.0</ele><time>2026-04-03T13:50:43Z</time></trkpt><trkpt lat="38.86660648983847" lon="-9.319936167751345"><ele>164.0</ele><time>2026-04-03T13:50:44Z</time></trkpt><trkpt lat="38.86662256544464" lon="-9.320165330947686"><ele>165.33333333333331</ele><time>2026-04-03T13:50:45Z</time></trkpt><trkpt lat="38.866598773308716" lon="-9.320402125449261"><ele>166.66666666666666</ele><time>2026-04-03T13:50:46Z</time></trkpt><trkpt lat="38.866572049319196" lon="-9.320640192756736"><ele>168.0</ele><time>2026-04-03T13:50:47Z</time></trkpt><trkpt lat="38.86655158839193" lon="-9.320879093046699"><ele>168.66666666666666</ele><time>2026-04-03T13:50:48Z</time></trkpt><trkpt lat="38.866540936080334" lon="-9.321114145933427"><ele>169.33333333333331</ele><time>2026-04-03T13:50:49Z</time></trkpt><trkpt lat="38.86652618991296" lon="-9.321318463406529"><ele>170.0</ele><time>2026-04-03T13:50:50Z</time></trkpt><trkpt lat="38.86650855467156" lon="-9.321550870864709"><ele>171.0</ele><time>2026-04-03T13:50:51Z</time></trkpt><trkpt lat="38.86648385758953" lon="-9.321795934821989"><ele>172.0</ele><time>2026-04-03T13:50:52Z</time></trkpt><trkpt lat="38.866437029675524" lon="-9.322011515714062"><ele>173.0</ele><time>2026-04-03T13:50:53Z</time></trkpt><trkpt lat="38.866356629156115" lon="-9.322236407921343"><ele>174.0</ele><time>2026-04-03T13:50:54Z</time></trkpt><trkpt lat="38.86625378314677" lon="-9.322464398527417"><ele>175.0</ele><time>2026-04-03T13:50:55Z</time></trkpt><trkpt lat="38.866160779904675" lon="-9.322697556146787"><ele>176.0</ele><time>2026-04-03T13:50:56Z</time></trkpt><trkpt lat="38.866068262356166" lon="-9.322917501670346"><ele>176.33333333333331</ele><time>2026-04-03T13:50:57Z</time></trkpt><trkpt lat="38.86598927300732" lon="-9.323138662309628"><ele>176.66666666666666</ele><time>2026-04-03T13:50:58Z</time></trkpt><trkpt lat="38.86590531693497" lon="-9.323338260438147"><ele>177.0</ele><time>2026-04-03T13:50:59Z</time></trkpt><trkpt lat="38.86581571088824" lon="-9.323538076692705"><ele>177.0</ele><time>2026-04-03T13:51:00Z</time></trkpt><trkpt lat="38.86568337308278" lon="-9.323704094664352"><ele>177.0</ele><time>2026-04-03T13:51:01Z</time></trkpt><trkpt lat="38.8655519604556" lon="-9.323889140630056"><ele>177.0</ele><time>2026-04-03T13:51:02Z</time></trkpt><trkpt lat="38.86541037500326" lon="-9.324075147845006"><ele>177.33333333333334</ele><time>2026-04-03T13:51:03Z</time></trkpt><trkpt lat="38.86527936981383" lon="-9.324235726658193"><ele>177.66666666666669</ele><time>2026-04-03T13:51:04Z</time></trkpt><trkpt lat="38.865164210097376" lon="-9.324393593097803"><ele>178.0</ele><time>2026-04-03T13:51:05Z</time></trkpt><trkpt lat="38.865038060817646" lon="-9.324563528133371"><ele>176.33333333333334</ele><time>2026-04-03T13:51:06Z</time></trkpt><trkpt lat="38.864924085424676" lon="-9.32472378803525"><ele>174.66666666666666</ele><time>2026-04-03T13:51:07Z</time></trkpt><trkpt lat="38.86480699110401" lon="-9.32488768401009"><ele>173.0</ele><time>2026-04-03T13:51:08Z</time></trkpt><trkpt lat="38.8646970966612" lon="-9.32505049774776"><ele>173.0</ele><time>2026-04-03T13:51:09Z</time></trkpt><trkpt lat="38.86460539624212" lon="-9.325213363597104"><ele>173.0</ele><time>2026-04-03T13:51:10Z</time></trkpt><trkpt lat="38.86452296740775" lon="-9.325374375476386"><ele>173.0</ele><time>2026-04-03T13:51:11Z</time></trkpt><trkpt lat="38.86444637667474" lon="-9.325536717957364"><ele>172.25</ele><time>2026-04-03T13:51:12Z</time></trkpt><trkpt lat="38.864382139505956" lon="-9.325693924126307"><ele>171.5</ele><time>2026-04-03T13:51:13Z</time></trkpt><trkpt lat="38.86431677970534" lon="-9.325835915804646"><ele>170.75</ele><time>2026-04-03T13:51:14Z</time></trkpt><trkpt lat="38.864255099352945" lon="-9.325958775251994"><ele>170.0</ele><time>2026-04-03T13:51:15Z</time></trkpt><trkpt lat="38.86420236547011" lon="-9.326078167207838"><ele>169.0</ele><time>2026-04-03T13:51:16Z</time></trkpt><trkpt lat="38.864134991521595" lon="-9.326192049082422"><ele>168.0</ele><time>2026-04-03T13:51:17Z</time></trkpt><trkpt lat="38.864066578850455" lon="-9.326313076589686"><ele>167.0</ele><time>2026-04-03T13:51:18Z</time></trkpt><trkpt lat="38.864017351795475" lon="-9.326427467534522"><ele>166.0</ele><time>2026-04-03T13:51:19Z</time></trkpt><trkpt lat="38.86396082672783" lon="-9.326521404730723"><ele>165.0</ele><time>2026-04-03T13:51:20Z</time></trkpt><trkpt lat="38.86390800071148" lon="-9.326620246056109"><ele>164.8</ele><time>2026-04-03T13:51:21Z</time></trkpt><trkpt lat="38.863858258874195" lon="-9.326732148202343"><ele>164.6</ele><time>2026-04-03T13:51:23Z</time></trkpt><trkpt lat="38.86380543614123" lon="-9.326838732678386"><ele>164.39999999999998</ele><time>2026-04-03T13:51:57Z</time></trkpt><trkpt lat="38.863759323610566" lon="-9.326918856543601"><ele>164.2</ele><time>2026-04-03T13:51:58Z</time></trkpt><trkpt lat="38.86369070077716" lon="-9.327040285330906"><ele>164.0</ele><time>2026-04-03T13:51:59Z</time></trkpt><trkpt lat="38.863614794953214" lon="-9.327165505619774"><ele>164.25</ele><time>2026-04-03T13:52:00Z</time></trkpt><trkpt lat="38.863538777701386" lon="-9.327281523918574"><ele>164.5</ele><time>2026-04-03T13:52:01Z</time></trkpt><trkpt lat="38.86345691513605" lon="-9.327420102227945"><ele>164.75</ele><time>2026-04-03T13:52:02Z</time></trkpt><trkpt lat="38.86336039430229" lon="-9.327580914065205"><ele>165.0</ele><time>2026-04-03T13:52:03Z</time></trkpt><trkpt lat="38.86325785757201" lon="-9.327752437055345"><ele>165.33333333333334</ele><time>2026-04-03T13:52:04Z</time></trkpt><trkpt lat="38.86314216267783" lon="-9.327930272711644"><ele>165.66666666666669</ele><time>2026-04-03T13:52:05Z</time></trkpt><trkpt lat="38.8630168383345" lon="-9.32809294426982"><ele>166.0</ele><time>2026-04-03T13:52:06Z</time></trkpt><trkpt lat="38.86289518054678" lon="-9.328269453233114"><ele>166.0</ele><time>2026-04-03T13:52:07Z</time></trkpt><trkpt lat="38.86279255265198" lon="-9.328432692090548"><ele>166.0</ele><time>2026-04-03T13:52:08Z</time></trkpt><trkpt lat="38.86269001412467" lon="-9.328598518564943"><ele>166.0</ele><time>2026-04-03T13:52:09Z</time></trkpt><trkpt lat="38.862589465096136" lon="-9.328777997817033"><ele>164.33333333333334</ele><time>2026-04-03T13:52:10Z</time></trkpt><trkpt lat="38.862489095573714" lon="-9.328968703023483"><ele>162.66666666666666</ele><time>2026-04-03T13:52:11Z</time></trkpt><trkpt lat="38.86238513405524" lon="-9.329180744227399"><ele>161.0</ele><time>2026-04-03T13:52:12Z</time></trkpt><trkpt lat="38.86227744871115" lon="-9.329400250828593"><ele>161.0</ele><time>2026-04-03T13:52:13Z</time></trkpt><trkpt lat="38.86218346958312" lon="-9.329589804950928"><ele>161.0</ele><time>2026-04-03T13:52:14Z</time></trkpt><trkpt lat="38.862095409102345" lon="-9.329761504731998"><ele>161.0</ele><time>2026-04-03T13:52:15Z</time></trkpt><trkpt lat="38.86200428749458" lon="-9.329955643535738"><ele>160.66666666666666</ele><time>2026-04-03T13:52:16Z</time></trkpt><trkpt lat="38.861932874798036" lon="-9.330151264089965"><ele>160.33333333333334</ele><time>2026-04-03T13:52:17Z</time></trkpt><trkpt lat="38.86185269408729" lon="-9.330341534840036"><ele>160.0</ele><time>2026-04-03T13:52:18Z</time></trkpt><trkpt lat="38.86177192467102" lon="-9.330527424659568"><ele>160.75</ele><time>2026-04-03T13:52:19Z</time></trkpt><trkpt lat="38.86170336996411" lon="-9.330692707141555"><ele>161.5</ele><time>2026-04-03T13:52:20Z</time></trkpt><trkpt lat="38.86163820908345" lon="-9.330856663556055"><ele>162.25</ele><time>2026-04-03T13:52:21Z</time></trkpt><trkpt lat="38.861602917526376" lon="-9.33105614749881"><ele>163.0</ele><time>2026-04-03T13:52:22Z</time></trkpt><trkpt lat="38.86157009656199" lon="-9.331271024658747"><ele>163.0</ele><time>2026-04-03T13:52:23Z</time></trkpt><trkpt lat="38.86151734972737" lon="-9.331497475898583"><ele>163.0</ele><time>2026-04-03T13:52:24Z</time></trkpt><trkpt lat="38.86147642785265" lon="-9.331709720751377"><ele>163.0</ele><time>2026-04-03T13:52:25Z</time></trkpt><trkpt lat="38.861448600031785" lon="-9.331888010633318"><ele>163.0</ele><time>2026-04-03T13:52:26Z</time></trkpt><trkpt lat="38.861419110818446" lon="-9.332051724229109"><ele>163.0</ele><time>2026-04-03T13:52:27Z</time></trkpt><trkpt lat="38.86137870554774" lon="-9.332196938052688"><ele>163.0</ele><time>2026-04-03T13:52:28Z</time></trkpt><trkpt lat="38.861339412069036" lon="-9.332345152669303"><ele>163.0</ele><time>2026-04-03T13:52:29Z</time></trkpt><trkpt lat="38.86128612234153" lon="-9.332478171387441"><ele>162.5</ele><time>2026-04-03T13:52:30Z</time></trkpt><trkpt lat="38.86120411023074" lon="-9.33259363754641"><ele>162.0</ele><time>2026-04-03T13:52:31Z</time></trkpt><trkpt lat="38.86109730567423" lon="-9.332692647122078"><ele>161.5</ele><time>2026-04-03T13:52:32Z</time></trkpt><trkpt lat="38.861001891494" lon="-9.332769633738513"><ele>161.0</ele><time>2026-04-03T13:52:33Z</time></trkpt><trkpt lat="38.86090625389896" lon="-9.332789248326783"><ele>160.60000000000002</ele><time>2026-04-03T13:52:34Z</time></trkpt><trkpt lat="38.86082624302181" lon="-9.33281180192498"><ele>160.20000000000002</ele><time>2026-04-03T13:52:35Z</time></trkpt><trkpt lat="38.860758262102706" lon="-9.332702738783771"><ele>159.8</ele><time>2026-04-03T13:52:36Z</time></trkpt><trkpt lat="38.86067046885066" lon="-9.332633891655421"><ele>159.4</ele><time>2026-04-03T13:52:37Z</time></trkpt><trkpt lat="38.860563557091204" lon="-9.332693657516346"><ele>159.0</ele><time>2026-04-03T13:52:38Z</time></trkpt><trkpt lat="38.8604929569322" lon="-9.332778419199116"><ele>159.0</ele><time>2026-04-03T13:52:39Z</time></trkpt><trkpt lat="38.860496436527704" lon="-9.332904268569397"><ele>159.0</ele><time>2026-04-03T13:52:40Z</time></trkpt><trkpt lat="38.86047841068433" lon="-9.333062057325963"><ele>159.0</ele><time>2026-04-03T13:52:41Z</time></trkpt><trkpt lat="38.8604457246821" lon="-9.33325439959439"><ele>159.0</ele><time>2026-04-03T13:52:42Z</time></trkpt><trkpt lat="38.86043422159043" lon="-9.333472229574948"><ele>159.0</ele><time>2026-04-03T13:52:43Z</time></trkpt><trkpt lat="38.86044954777215" lon="-9.333689309687996"><ele>159.0</ele><time>2026-04-03T13:52:44Z</time></trkpt><trkpt lat="38.86039572368549" lon="-9.333895035933555"><ele>159.0</ele><time>2026-04-03T13:52:45Z</time></trkpt><trkpt lat="38.86034200386283" lon="-9.334092538466068"><ele>158.0</ele><time>2026-04-03T13:52:46Z</time></trkpt><trkpt lat="38.86026615093687" lon="-9.334298866357148"><ele>157.0</ele><time>2026-04-03T13:52:47Z</time></trkpt><trkpt lat="38.86020578699248" lon="-9.33446528678075"><ele>156.0</ele><time>2026-04-03T13:52:48Z</time></trkpt><trkpt lat="38.8601498903473" lon="-9.334609301894718"><ele>155.0</ele><time>2026-04-03T13:52:49Z</time></trkpt><trkpt lat="38.86014684821035" lon="-9.334757476505226"><ele>154.75</ele><time>2026-04-03T13:52:50Z</time></trkpt><trkpt lat="38.86012411919816" lon="-9.33489681764597"><ele>154.5</ele><time>2026-04-03T13:52:51Z</time></trkpt><trkpt lat="38.860098331522366" lon="-9.335057424462944"><ele>154.25</ele><time>2026-04-03T13:52:52Z</time></trkpt><trkpt lat="38.86006796917328" lon="-9.335216512319555"><ele>154.0</ele><time>2026-04-03T13:52:53Z</time></trkpt><trkpt lat="38.86003786641542" lon="-9.33536635158418"><ele>154.0</ele><time>2026-04-03T13:52:54Z</time></trkpt><trkpt lat="38.86000586446998" lon="-9.33551978410003"><ele>154.0</ele><time>2026-04-03T13:52:55Z</time></trkpt><trkpt lat="38.85992768317269" lon="-9.3356528350448"><ele>154.0</ele><time>2026-04-03T13:52:56Z</time></trkpt><trkpt lat="38.859877958895154" lon="-9.335800490705575"><ele>154.0</ele><time>2026-04-03T13:52:57Z</time></trkpt><trkpt lat="38.85978516617226" lon="-9.335912526916239"><ele>152.0</ele><time>2026-04-03T13:52:58Z</time></trkpt><trkpt lat="38.85969669691059" lon="-9.336045388242699"><ele>150.0</ele><time>2026-04-03T13:52:59Z</time></trkpt><trkpt lat="38.85961345999932" lon="-9.336190434242198"><ele>148.0</ele><time>2026-04-03T13:53:00Z</time></trkpt><trkpt lat="38.85954685577102" lon="-9.336347185212441"><ele>146.0</ele><time>2026-04-03T13:53:01Z</time></trkpt><trkpt lat="38.85949091158262" lon="-9.336531343516919"><ele>145.0</ele><time>2026-04-03T13:53:02Z</time></trkpt><trkpt lat="38.859443926004445" lon="-9.336696402162142"><ele>144.0</ele><time>2026-04-03T13:53:03Z</time></trkpt><trkpt lat="38.85940023761682" lon="-9.336841336595059"><ele>143.0</ele><time>2026-04-03T13:53:04Z</time></trkpt><trkpt lat="38.85931187153959" lon="-9.336952044606935"><ele>142.0</ele><time>2026-04-03T13:53:05Z</time></trkpt><trkpt lat="38.859211357605965" lon="-9.33704718179184"><ele>142.0</ele><time>2026-04-03T13:53:06Z</time></trkpt><trkpt lat="38.859103532055556" lon="-9.337179168300423"><ele>142.0</ele><time>2026-04-03T13:53:07Z</time></trkpt><trkpt lat="38.85897575180139" lon="-9.33730527821752"><ele>142.0</ele><time>2026-04-03T13:53:08Z</time></trkpt><trkpt lat="38.85886224705647" lon="-9.337466125576414"><ele>141.0</ele><time>2026-04-03T13:53:09Z</time></trkpt><trkpt lat="38.85876062844681" lon="-9.337654428431943"><ele>140.0</ele><time>2026-04-03T13:53:10Z</time></trkpt><trkpt lat="38.85865459208974" lon="-9.337822765787891"><ele>139.0</ele><time>2026-04-03T13:53:11Z</time></trkpt><trkpt lat="38.85854710069724" lon="-9.337975777592602"><ele>136.66666666666669</ele><time>2026-04-03T13:53:12Z</time></trkpt><trkpt lat="38.85842179394564" lon="-9.338138783640673"><ele>134.33333333333334</ele><time>2026-04-03T13:53:13Z</time></trkpt><trkpt lat="38.858291434845626" lon="-9.338290686064187"><ele>132.0</ele><time>2026-04-03T13:53:14Z</time></trkpt><trkpt lat="38.85816756883309" lon="-9.338423716214544"><ele>132.0</ele><time>2026-04-03T13:53:15Z</time></trkpt><trkpt lat="38.85805046790319" lon="-9.338554417312631"><ele>132.0</ele><time>2026-04-03T13:53:16Z</time></trkpt><trkpt lat="38.8579411800847" lon="-9.338685315116505"><ele>132.0</ele><time>2026-04-03T13:53:17Z</time></trkpt><trkpt lat="38.85782061583143" lon="-9.338818170786535"><ele>131.5</ele><time>2026-04-03T13:53:18Z</time></trkpt><trkpt lat="38.857706145428715" lon="-9.33895659039588"><ele>131.0</ele><time>2026-04-03T13:53:19Z</time></trkpt><trkpt lat="38.85760360722811" lon="-9.339093079752788"><ele>130.5</ele><time>2026-04-03T13:53:20Z</time></trkpt><trkpt lat="38.85750622816383" lon="-9.33921896634361"><ele>130.0</ele><time>2026-04-03T13:53:21Z</time></trkpt><trkpt lat="38.857400594212784" lon="-9.339351867550452"><ele>130.0</ele><time>2026-04-03T13:53:22Z</time></trkpt><trkpt lat="38.85727409889285" lon="-9.339445897764959"><ele>130.0</ele><time>2026-04-03T13:53:23Z</time></trkpt><trkpt lat="38.85713661326474" lon="-9.339501872955141"><ele>130.0</ele><time>2026-04-03T13:53:24Z</time></trkpt><trkpt lat="38.85699552241259" lon="-9.339522528711488"><ele>130.0</ele><time>2026-04-03T13:53:25Z</time></trkpt><trkpt lat="38.85686430993909" lon="-9.339500370249132"><ele>129.0</ele><time>2026-04-03T13:53:26Z</time></trkpt><trkpt lat="38.856735113096185" lon="-9.339424004259039"><ele>128.0</ele><time>2026-04-03T13:53:27Z</time></trkpt><trkpt lat="38.856606347179934" lon="-9.339318845395814"><ele>127.0</ele><time>2026-04-03T13:53:28Z</time></trkpt><trkpt lat="38.85645891053744" lon="-9.339277197823604"><ele>126.0</ele><time>2026-04-03T13:53:29Z</time></trkpt><trkpt lat="38.856312596624065" lon="-9.33929184557122"><ele>126.0</ele><time>2026-04-03T13:53:30Z</time></trkpt><trkpt lat="38.85615208320374" lon="-9.33934496969604"><ele>126.0</ele><time>2026-04-03T13:53:31Z</time></trkpt><trkpt lat="38.85599324397471" lon="-9.33942868027027"><ele>126.0</ele><time>2026-04-03T13:53:32Z</time></trkpt><trkpt lat="38.855841349742086" lon="-9.339486005762309"><ele>124.25</ele><time>2026-04-03T13:53:33Z</time></trkpt><trkpt lat="38.85569065044521" lon="-9.339519879082351"><ele>122.5</ele><time>2026-04-03T13:53:34Z</time></trkpt><trkpt lat="38.85554060288607" lon="-9.33956123581638"><ele>120.75</ele><time>2026-04-03T13:53:35Z</time></trkpt><trkpt lat="38.85541312425904" lon="-9.339631239274265"><ele>119.0</ele><time>2026-04-03T13:53:36Z</time></trkpt><trkpt lat="38.85532440238727" lon="-9.339745268013107"><ele>118.33333333333333</ele><time>2026-04-03T13:53:37Z</time></trkpt><trkpt lat="38.85521863906525" lon="-9.33987540596531"><ele>117.66666666666666</ele><time>2026-04-03T13:53:38Z</time></trkpt><trkpt lat="38.855093084315676" lon="-9.340016504641817"><ele>117.0</ele><time>2026-04-03T13:53:39Z</time></trkpt><trkpt lat="38.85497967932244" lon="-9.340162423350145"><ele>112.66666666666666</ele><time>2026-04-03T13:53:40Z</time></trkpt><trkpt lat="38.854878837310835" lon="-9.340307824829061"><ele>108.33333333333333</ele><time>2026-04-03T13:53:41Z</time></trkpt><trkpt lat="38.85477192198724" lon="-9.340466704527131"><ele>104.0</ele><time>2026-04-03T13:53:42Z</time></trkpt><trkpt lat="38.85464158126459" lon="-9.340663366663712"><ele>101.66666666666666</ele><time>2026-04-03T13:53:43Z</time></trkpt><trkpt lat="38.854516801578384" lon="-9.340849335439078"><ele>99.33333333333334</ele><time>2026-04-03T13:53:44Z</time></trkpt><trkpt lat="38.854397650862566" lon="-9.341015381132765"><ele>97.0</ele><time>2026-04-03T13:53:45Z</time></trkpt><trkpt lat="38.85428733592367" lon="-9.341177772691792"><ele>96.33333333333334</ele><time>2026-04-03T13:53:46Z</time></trkpt><trkpt lat="38.85417913580496" lon="-9.341337317659606"><ele>95.66666666666667</ele><time>2026-04-03T13:53:47Z</time></trkpt><trkpt lat="38.85406907289242" lon="-9.341501093534966"><ele>95.0</ele><time>2026-04-03T13:53:48Z</time></trkpt><trkpt lat="38.8539578574176" lon="-9.341664687358623"><ele>98.33333333333334</ele><time>2026-04-03T13:53:49Z</time></trkpt><trkpt lat="38.85384422540924" lon="-9.341825194903208"><ele>101.66666666666667</ele><time>2026-04-03T13:53:50Z</time></trkpt><trkpt lat="38.85373771896657" lon="-9.341988664877157"><ele>105.0</ele><time>2026-04-03T13:53:51Z</time></trkpt><trkpt lat="38.85362911053711" lon="-9.342141034574693"><ele>108.66666666666666</ele><time>2026-04-03T13:53:52Z</time></trkpt><trkpt lat="38.85351557791989" lon="-9.342281619716347"><ele>112.33333333333333</ele><time>2026-04-03T13:53:53Z</time></trkpt><trkpt lat="38.85338346369377" lon="-9.342393811172089"><ele>116.0</ele><time>2026-04-03T13:53:54Z</time></trkpt><trkpt lat="38.853237460582456" lon="-9.342487801659937"><ele>117.0</ele><time>2026-04-03T13:53:55Z</time></trkpt><trkpt lat="38.8530880898962" lon="-9.342559519596337"><ele>118.0</ele><time>2026-04-03T13:53:56Z</time></trkpt><trkpt lat="38.8529322324108" lon="-9.342601905883832"><ele>119.0</ele><time>2026-04-03T13:53:57Z</time></trkpt><trkpt lat="38.85277579006615" lon="-9.342641625225287"><ele>119.0</ele><time>2026-04-03T13:53:58Z</time></trkpt><trkpt lat="38.8526326529378" lon="-9.342700581502768"><ele>119.0</ele><time>2026-04-03T13:53:59Z</time></trkpt><trkpt lat="38.85249887852889" lon="-9.34276498653186"><ele>119.0</ele><time>2026-04-03T13:54:00Z</time></trkpt><trkpt lat="38.852389267733194" lon="-9.342899727673855"><ele>119.0</ele><time>2026-04-03T13:54:01Z</time></trkpt><trkpt lat="38.8522955704219" lon="-9.343050598212825"><ele>121.75</ele><time>2026-04-03T13:54:02Z</time></trkpt><trkpt lat="38.85221103608148" lon="-9.343231418039302"><ele>124.5</ele><time>2026-04-03T13:54:03Z</time></trkpt><trkpt lat="38.85216734807547" lon="-9.34340343756234"><ele>127.25</ele><time>2026-04-03T13:54:04Z</time></trkpt><trkpt lat="38.85213142992908" lon="-9.343564983566209"><ele>130.0</ele><time>2026-04-03T13:54:05Z</time></trkpt><trkpt lat="38.85209782621659" lon="-9.343719042012538"><ele>130.0</ele><time>2026-04-03T13:54:06Z</time></trkpt><trkpt lat="38.85206880297294" lon="-9.34385802354794"><ele>130.0</ele><time>2026-04-03T13:54:07Z</time></trkpt><trkpt lat="38.852002303894366" lon="-9.343963809895751"><ele>130.0</ele><time>2026-04-03T13:54:08Z</time></trkpt><trkpt lat="38.85191532230116" lon="-9.344025790532276"><ele>130.0</ele><time>2026-04-03T13:54:09Z</time></trkpt><trkpt lat="38.8518276982685" lon="-9.344042070208227"><ele>130.0</ele><time>2026-04-03T13:54:10Z</time></trkpt><trkpt lat="38.85176377289717" lon="-9.34406418154976"><ele>130.6</ele><time>2026-04-03T13:54:11Z</time></trkpt><trkpt lat="38.851690589237606" lon="-9.343862385287736"><ele>131.2</ele><time>2026-04-03T13:54:14Z</time></trkpt><trkpt lat="38.851712853287694" lon="-9.343741654152518"><ele>131.8</ele><time>2026-04-03T13:54:15Z</time></trkpt><trkpt lat="38.85173833056046" lon="-9.34366445486491"><ele>132.4</ele><time>2026-04-03T13:54:16Z</time></trkpt><trkpt lat="38.85175073554729" lon="-9.343561314470293"><ele>133.0</ele><time>2026-04-03T13:54:21Z</time></trkpt><trkpt lat="38.85175724316177" lon="-9.343397659926461"><ele>133.0</ele><time>2026-04-03T13:54:23Z</time></trkpt><trkpt lat="38.851773909994854" lon="-9.343298528503029"><ele>133.0</ele><time>2026-04-03T13:54:24Z</time></trkpt><trkpt lat="38.851812472792176" lon="-9.343174033997148"><ele>133.0</ele><time>2026-04-03T13:54:25Z</time></trkpt><trkpt lat="38.85183400796598" lon="-9.343029667977364"><ele>133.0</ele><time>2026-04-03T13:54:26Z</time></trkpt><trkpt lat="38.85186801303428" lon="-9.342875379518631"><ele>133.0</ele><time>2026-04-03T13:54:27Z</time></trkpt><trkpt lat="38.85189114528282" lon="-9.342717281132868"><ele>130.0</ele><time>2026-04-03T13:54:28Z</time></trkpt><trkpt lat="38.85190271974678" lon="-9.342576282577527"><ele>127.0</ele><time>2026-04-03T13:54:29Z</time></trkpt><trkpt lat="38.8519236934565" lon="-9.342411712969723"><ele>124.0</ele><time>2026-04-03T13:54:30Z</time></trkpt><trkpt lat="38.85193485979844" lon="-9.342261346986719"><ele>121.0</ele><time>2026-04-03T13:54:31Z</time></trkpt><trkpt lat="38.8519407150336" lon="-9.342116205785379"><ele>119.19999999999999</ele><time>2026-04-03T13:54:32Z</time></trkpt><trkpt lat="38.85193863510653" lon="-9.34197547757139"><ele>117.39999999999999</ele><time>2026-04-03T13:54:33Z</time></trkpt><trkpt lat="38.85192362648334" lon="-9.34189315626333"><ele>115.6</ele><time>2026-04-03T13:54:34Z</time></trkpt><trkpt lat="38.85190611812233" lon="-9.341738851389117"><ele>113.8</ele><time>2026-04-03T13:54:35Z</time></trkpt><trkpt lat="38.85188162893096" lon="-9.34161202632402"><ele>112.0</ele><time>2026-04-03T13:54:36Z</time></trkpt><trkpt lat="38.85185158727501" lon="-9.34152256869471"><ele>112.00000000000001</ele><time>2026-04-03T13:54:37Z</time></trkpt><trkpt lat="38.8518155481877" lon="-9.341437117756502"><ele>112.0</ele><time>2026-04-03T13:54:38Z</time></trkpt><trkpt lat="38.85174921729259" lon="-9.341386535727118"><ele>112.0</ele><time>2026-04-03T13:54:39Z</time></trkpt><trkpt lat="38.85168349197399" lon="-9.341324030765684"><ele>112.0</ele><time>2026-04-03T13:54:40Z</time></trkpt><trkpt lat="38.85161031567857" lon="-9.341257229963544"><ele>112.00000000000001</ele><time>2026-04-03T13:54:41Z</time></trkpt><trkpt lat="38.85154380583114" lon="-9.34120054536305"><ele>112.0</ele><time>2026-04-03T13:54:42Z</time></trkpt><trkpt lat="38.8514866646053" lon="-9.341122082864581"><ele>110.19999999999999</ele><time>2026-04-03T13:54:43Z</time></trkpt><trkpt lat="38.851416313035216" lon="-9.341035234477399"><ele>108.39999999999999</ele><time>2026-04-03T13:54:44Z</time></trkpt><trkpt lat="38.85135681213788" lon="-9.340933449328496"><ele>106.6</ele><time>2026-04-03T13:54:45Z</time></trkpt><trkpt lat="38.85131694121567" lon="-9.340828111077274"><ele>104.80000000000001</ele><time>2026-04-03T13:54:46Z</time></trkpt><trkpt lat="38.85125754758304" lon="-9.340722186276984"><ele>103.0</ele><time>2026-04-03T13:54:47Z</time></trkpt><trkpt lat="38.851197610444764" lon="-9.340623146859016"><ele>102.60000000000001</ele><time>2026-04-03T13:54:48Z</time></trkpt><trkpt lat="38.8511204862201" lon="-9.340515258501716"><ele>102.2</ele><time>2026-04-03T13:54:49Z</time></trkpt><trkpt lat="38.851046521891554" lon="-9.340403154571563"><ele>101.8</ele><time>2026-04-03T13:54:50Z</time></trkpt><trkpt lat="38.85098861470482" lon="-9.340296086599434"><ele>101.4</ele><time>2026-04-03T13:54:51Z</time></trkpt><trkpt lat="38.850960684923585" lon="-9.3401959087221"><ele>101.0</ele><time>2026-04-03T13:54:52Z</time></trkpt><trkpt lat="38.85094981262668" lon="-9.340092254633312"><ele>100.83333333333333</ele><time>2026-04-03T13:54:53Z</time></trkpt><trkpt lat="38.850979515132195" lon="-9.339951950342622"><ele>100.66666666666666</ele><time>2026-04-03T13:54:54Z</time></trkpt><trkpt lat="38.851040436704054" lon="-9.339837928241966"><ele>100.5</ele><time>2026-04-03T13:54:55Z</time></trkpt><trkpt lat="38.85109563286418" lon="-9.339755385413325"><ele>100.33333333333334</ele><time>2026-04-03T13:54:56Z</time></trkpt><trkpt lat="38.85114459844802" lon="-9.339691433267465"><ele>100.16666666666667</ele><time>2026-04-03T13:54:57Z</time></trkpt><trkpt lat="38.851170847133574" lon="-9.339617623660104"><ele>100.0</ele><time>2026-04-03T13:54:58Z</time></trkpt><trkpt lat="38.851232238074815" lon="-9.339665808464781"><ele>100.00000000000001</ele><time>2026-04-03T13:55:03Z</time></trkpt><trkpt lat="38.851169381789454" lon="-9.339640221257666"><ele>100.0</ele><time>2026-04-03T13:55:28Z</time></trkpt><trkpt lat="38.85115429842866" lon="-9.339719543046021"><ele>100.0</ele><time>2026-04-03T13:55:42Z</time></trkpt><trkpt lat="38.85113288096303" lon="-9.339797745421253"><ele>100.0</ele><time>2026-04-03T13:55:48Z</time></trkpt><trkpt lat="38.85115215064112" lon="-9.339717101357376"><ele>100.0</ele><time>2026-04-03T13:56:37Z</time></trkpt><trkpt lat="38.851206813778816" lon="-9.339660970048124"><ele>100.00000000000001</ele><time>2026-04-03T13:56:44Z</time></trkpt><trkpt lat="38.85122141855187" lon="-9.339576819108919"><ele>100.0</ele><time>2026-04-03T13:56:55Z</time></trkpt><trkpt lat="38.85122816004246" lon="-9.339496318635556"><ele>100.00000000000001</ele><time>2026-04-03T13:57:00Z</time></trkpt><trkpt lat="38.85121877371175" lon="-9.33940110290626"><ele>100.0</ele><time>2026-04-03T13:57:06Z</time></trkpt><trkpt lat="38.85118305636312" lon="-9.33931677199789"><ele>100.0</ele><time>2026-04-03T13:57:13Z</time></trkpt><trkpt lat="38.8511790653146" lon="-9.33923215147723"><ele>100.0</ele><time>2026-04-03T13:57:23Z</time></trkpt><trkpt lat="38.851179291240356" lon="-9.339316000883777"><ele>100.0</ele><time>2026-04-03T13:57:53Z</time></trkpt><trkpt lat="38.85118826280702" lon="-9.339398738652795"><ele>100.00000000000001</ele><time>2026-04-03T14:00:36.999Z</time></trkpt><trkpt lat="38.85120712144073" lon="-9.339480428953502"><ele>100.0</ele><time>2026-04-03T14:00:43.999Z</time></trkpt><trkpt lat="38.85122345685939" lon="-9.33956175817368"><ele>100.00000000000001</ele><time>2026-04-03T14:00:50.999Z</time></trkpt><trkpt lat="38.85121137731095" lon="-9.339648224576903"><ele>100.0</ele><time>2026-04-03T14:01:57Z</time></trkpt><trkpt lat="38.851155686397504" lon="-9.339593210539094"><ele>100.0</ele><time>2026-04-03T14:02:45.999Z</time></trkpt><trkpt lat="38.85108495680713" lon="-9.33959861540842"><ele>100.0</ele><time>2026-04-03T14:02:47.999Z</time></trkpt><trkpt lat="38.85098681561037" lon="-9.339542990067006"><ele>100.00000000000001</ele><time>2026-04-03T14:02:49.999Z</time></trkpt><trkpt lat="38.850917788029" lon="-9.339495116538158"><ele>100.0</ele><time>2026-04-03T14:02:50.999Z</time></trkpt><trkpt lat="38.85084722975898" lon="-9.33943888266224"><ele>99.66666666666667</ele><time>2026-04-03T14:02:51.999Z</time></trkpt><trkpt lat="38.85076046948334" lon="-9.339377051776339"><ele>99.33333333333334</ele><time>2026-04-03T14:02:52.999Z</time></trkpt><trkpt lat="38.85069997044228" lon="-9.339321621460963"><ele>99.0</ele><time>2026-04-03T14:02:53.999Z</time></trkpt><trkpt lat="38.8506472471977" lon="-9.339267392809402"><ele>98.66666666666666</ele><time>2026-04-03T14:02:54.999Z</time></trkpt><trkpt lat="38.8505800910137" lon="-9.339226969375204"><ele>98.33333333333333</ele><time>2026-04-03T14:02:55.999Z</time></trkpt><trkpt lat="38.85050565540155" lon="-9.339206244927627"><ele>98.0</ele><time>2026-04-03T14:02:56.999Z</time></trkpt><trkpt lat="38.850434221774464" lon="-9.339215785702468"><ele>98.0</ele><time>2026-04-03T14:02:57.999Z</time></trkpt><trkpt lat="38.85034686436899" lon="-9.339213022491395"><ele>98.0</ele><time>2026-04-03T14:02:59.999Z</time></trkpt><trkpt lat="38.850279022799356" lon="-9.339212427494688"><ele>98.0</ele><time>2026-04-03T14:03:01.999Z</time></trkpt><trkpt lat="38.850198876365575" lon="-9.339250958376025"><ele>98.0</ele><time>2026-04-03T14:03:03.999Z</time></trkpt><trkpt lat="38.85009396348985" lon="-9.339366995561608"><ele>98.0</ele><time>2026-04-03T14:03:05.999Z</time></trkpt><trkpt lat="38.85005422558232" lon="-9.33946776498227"><ele>98.49999999999999</ele><time>2026-04-03T14:03:06.999Z</time></trkpt><trkpt lat="38.85000564863956" lon="-9.33956853834754"><ele>99.0</ele><time>2026-04-03T14:03:07.999Z</time></trkpt><trkpt lat="38.84997388040314" lon="-9.339658949379604"><ele>99.5</ele><time>2026-04-03T14:03:08.999Z</time></trkpt><trkpt lat="38.84989725595387" lon="-9.339765279767095"><ele>100.0</ele><time>2026-04-03T14:03:10.999Z</time></trkpt><trkpt lat="38.84983623883939" lon="-9.339787655914147"><ele>100.49999999999999</ele><time>2026-04-03T14:03:12.999Z</time></trkpt><trkpt lat="38.84977225380391" lon="-9.339841504813352"><ele>101.0</ele><time>2026-04-03T14:03:15Z</time></trkpt><trkpt lat="38.84967872583911" lon="-9.339829715239114"><ele>101.8</ele><time>2026-04-03T14:03:17Z</time></trkpt><trkpt lat="38.84962229855523" lon="-9.339931464939454"><ele>102.6</ele><time>2026-04-03T14:03:19Z</time></trkpt><trkpt lat="38.84956857627163" lon="-9.340038771138719"><ele>103.4</ele><time>2026-04-03T14:03:21Z</time></trkpt><trkpt lat="38.849550872657716" lon="-9.340197776001872"><ele>104.2</ele><time>2026-04-03T14:03:23Z</time></trkpt><trkpt lat="38.8495989730438" lon="-9.340334373495354"><ele>105.0</ele><time>2026-04-03T14:03:24Z</time></trkpt><trkpt lat="38.84957173248768" lon="-9.340426679929392"><ele>105.0</ele><time>2026-04-03T14:03:25Z</time></trkpt><trkpt lat="38.84955131426753" lon="-9.34054757915747"><ele>105.0</ele><time>2026-04-03T14:03:26Z</time></trkpt><trkpt lat="38.849536020139475" lon="-9.340675739753097"><ele>105.0</ele><time>2026-04-03T14:03:27Z</time></trkpt><trkpt lat="38.849525379918376" lon="-9.340822721872444"><ele>105.0</ele><time>2026-04-03T14:03:28Z</time></trkpt><trkpt lat="38.84950273761396" lon="-9.340994365353191"><ele>105.0</ele><time>2026-04-03T14:03:29Z</time></trkpt><trkpt lat="38.8494749014102" lon="-9.341134694332046"><ele>107.25</ele><time>2026-04-03T14:03:30Z</time></trkpt><trkpt lat="38.849412108820374" lon="-9.341263312115265"><ele>109.5</ele><time>2026-04-03T14:03:31Z</time></trkpt><trkpt lat="38.849304367397586" lon="-9.34137506080728"><ele>111.75</ele><time>2026-04-03T14:03:32Z</time></trkpt><trkpt lat="38.84918962179719" lon="-9.341448198581993"><ele>114.0</ele><time>2026-04-03T14:03:33Z</time></trkpt><trkpt lat="38.849102697284216" lon="-9.341494185881707"><ele>114.33333333333333</ele><time>2026-04-03T14:03:34Z</time></trkpt><trkpt lat="38.84905463081053" lon="-9.341555087997198"><ele>114.66666666666666</ele><time>2026-04-03T14:03:35Z</time></trkpt><trkpt lat="38.84904249492054" lon="-9.341635931577512"><ele>115.0</ele><time>2026-04-03T14:03:36Z</time></trkpt><trkpt lat="38.84907153631627" lon="-9.341735856439072"><ele>115.33333333333333</ele><time>2026-04-03T14:03:37Z</time></trkpt><trkpt lat="38.84910751819313" lon="-9.341858924150154"><ele>115.66666666666666</ele><time>2026-04-03T14:03:38Z</time></trkpt><trkpt lat="38.849208902324236" lon="-9.341888522794537"><ele>116.0</ele><time>2026-04-03T14:03:39Z</time></trkpt><trkpt lat="38.84931812614576" lon="-9.341914933371893"><ele>116.25</ele><time>2026-04-03T14:03:40Z</time></trkpt><trkpt lat="38.849438894007946" lon="-9.34194457579521"><ele>116.5</ele><time>2026-04-03T14:03:41Z</time></trkpt><trkpt lat="38.84954401261345" lon="-9.34203112635178"><ele>116.75</ele><time>2026-04-03T14:03:42Z</time></trkpt><trkpt lat="38.849656985330256" lon="-9.342116724096833"><ele>117.0</ele><time>2026-04-03T14:03:43Z</time></trkpt><trkpt lat="38.84975304844504" lon="-9.342222591093646"><ele>118.25</ele><time>2026-04-03T14:03:44Z</time></trkpt><trkpt lat="38.84983215835007" lon="-9.342356669479472"><ele>119.5</ele><time>2026-04-03T14:03:45Z</time></trkpt><trkpt lat="38.84987204772134" lon="-9.342523557197241"><ele>120.75</ele><time>2026-04-03T14:03:46Z</time></trkpt><trkpt lat="38.84993352883856" lon="-9.342654148269217"><ele>122.0</ele><time>2026-04-03T14:03:47Z</time></trkpt><trkpt lat="38.84998945737501" lon="-9.342788088078752"><ele>122.0</ele><time>2026-04-03T14:03:48Z</time></trkpt><trkpt lat="38.85003906210598" lon="-9.342915519202633"><ele>121.99999999999999</ele><time>2026-04-03T14:03:49Z</time></trkpt><trkpt lat="38.85008397274003" lon="-9.34302342706513"><ele>121.99999999999999</ele><time>2026-04-03T14:03:50Z</time></trkpt><trkpt lat="38.85012660503535" lon="-9.343087576168296"><ele>122.0</ele><time>2026-04-03T14:03:51Z</time></trkpt><trkpt lat="38.85029434134496" lon="-9.343087242705495"><ele>122.0</ele><time>2026-04-03T14:03:53Z</time></trkpt><trkpt lat="38.850407838957516" lon="-9.343100775608386"><ele>124.5</ele><time>2026-04-03T14:03:54Z</time></trkpt><trkpt lat="38.85052716285889" lon="-9.343141479974614"><ele>127.0</ele><time>2026-04-03T14:03:55Z</time></trkpt><trkpt lat="38.85065144649374" lon="-9.34315268613835"><ele>129.5</ele><time>2026-04-03T14:03:56Z</time></trkpt><trkpt lat="38.85077859177497" lon="-9.343164323283917"><ele>132.0</ele><time>2026-04-03T14:03:57Z</time></trkpt><trkpt lat="38.850919847673204" lon="-9.343189682345116"><ele>132.2</ele><time>2026-04-03T14:03:58Z</time></trkpt><trkpt lat="38.85105514553475" lon="-9.34326771659429"><ele>132.39999999999998</ele><time>2026-04-03T14:03:59Z</time></trkpt><trkpt lat="38.85116684808849" lon="-9.343325559516794"><ele>132.60000000000002</ele><time>2026-04-03T14:04:00Z</time></trkpt><trkpt lat="38.851256695029775" lon="-9.343351948842852"><ele>132.8</ele><time>2026-04-03T14:04:01Z</time></trkpt><trkpt lat="38.85130565761686" lon="-9.343438754519369"><ele>133.0</ele><time>2026-04-03T14:04:01.999Z</time></trkpt><trkpt lat="38.85133489580253" lon="-9.34354703254151"><ele>133.0</ele><time>2026-04-03T14:04:02.999Z</time></trkpt><trkpt lat="38.85134771127987" lon="-9.343683500801749"><ele>133.0</ele><time>2026-04-03T14:04:03.999Z</time></trkpt><trkpt lat="38.851323019343255" lon="-9.343822721690689"><ele>133.0</ele><time>2026-04-03T14:04:04.999Z</time></trkpt><trkpt lat="38.851290257902086" lon="-9.343958518425474"><ele>133.0</ele><time>2026-04-03T14:04:05.999Z</time></trkpt><trkpt lat="38.85126684291364" lon="-9.344097581001487"><ele>133.0</ele><time>2026-04-03T14:04:06.999Z</time></trkpt><trkpt lat="38.85131339463453" lon="-9.344209387760081"><ele>133.8</ele><time>2026-04-03T14:04:07.999Z</time></trkpt><trkpt lat="38.85134227914665" lon="-9.344332914184077"><ele>134.60000000000002</ele><time>2026-04-03T14:04:08.999Z</time></trkpt><trkpt lat="38.85132969387775" lon="-9.344460298647794"><ele>135.39999999999998</ele><time>2026-04-03T14:04:09.999Z</time></trkpt><trkpt lat="38.85133370963098" lon="-9.344556176775994"><ele>136.2</ele><time>2026-04-03T14:04:10.999Z</time></trkpt><trkpt lat="38.851318744259" lon="-9.344669574198772"><ele>137.0</ele><time>2026-04-03T14:04:12.999Z</time></trkpt><trkpt lat="38.85132246826471" lon="-9.344797255426231"><ele>138.0</ele><time>2026-04-03T14:04:14.999Z</time></trkpt><trkpt lat="38.85131081526244" lon="-9.344889386361961"><ele>139.0</ele><time>2026-04-03T14:04:15.999Z</time></trkpt><trkpt lat="38.85124150646961" lon="-9.345025698155913"><ele>140.0</ele><time>2026-04-03T14:04:16.999Z</time></trkpt><trkpt lat="38.851171713089066" lon="-9.345160035417232"><ele>141.0</ele><time>2026-04-03T14:04:17.999Z</time></trkpt><trkpt lat="38.85108745779444" lon="-9.345317278431558"><ele>141.0</ele><time>2026-04-03T14:04:18.999Z</time></trkpt><trkpt lat="38.85099227860484" lon="-9.34547858051001"><ele>141.0</ele><time>2026-04-03T14:04:19.999Z</time></trkpt><trkpt lat="38.85086485231395" lon="-9.34563039983388"><ele>141.0</ele><time>2026-04-03T14:04:20.999Z</time></trkpt><trkpt lat="38.850701792284106" lon="-9.345725554855745"><ele>141.33333333333334</ele><time>2026-04-03T14:04:21.999Z</time></trkpt><trkpt lat="38.850518586693994" lon="-9.345772840391462"><ele>141.66666666666669</ele><time>2026-04-03T14:04:22.999Z</time></trkpt><trkpt lat="38.85032722575504" lon="-9.34581387183046"><ele>142.0</ele><time>2026-04-03T14:04:23.999Z</time></trkpt><trkpt lat="38.85013983720632" lon="-9.345865231661376"><ele>141.66666666666669</ele><time>2026-04-03T14:04:24.999Z</time></trkpt><trkpt lat="38.84994218992934" lon="-9.345918585537905"><ele>141.33333333333334</ele><time>2026-04-03T14:04:25.999Z</time></trkpt><trkpt lat="38.849744984050034" lon="-9.345981809682192"><ele>141.0</ele><time>2026-04-03T14:04:26.999Z</time></trkpt><trkpt lat="38.84956156057842" lon="-9.346068631968395"><ele>141.0</ele><time>2026-04-03T14:04:27.999Z</time></trkpt><trkpt lat="38.84933946945444" lon="-9.346176742583372"><ele>141.0</ele><time>2026-04-03T14:04:28.999Z</time></trkpt><trkpt lat="38.84912695195267" lon="-9.34628088269171"><ele>139.66666666666666</ele><time>2026-04-03T14:04:29.999Z</time></trkpt><trkpt lat="38.848929819688095" lon="-9.346380220080656"><ele>138.33333333333331</ele><time>2026-04-03T14:04:30.999Z</time></trkpt><trkpt lat="38.84873781045688" lon="-9.34648403469809"><ele>137.0</ele><time>2026-04-03T14:04:31.999Z</time></trkpt><trkpt lat="38.84856440497323" lon="-9.346582258311116"><ele>138.33333333333331</ele><time>2026-04-03T14:04:32.999Z</time></trkpt><trkpt lat="38.84839700380276" lon="-9.346664610604401"><ele>139.66666666666666</ele><time>2026-04-03T14:04:33.999Z</time></trkpt><trkpt lat="38.848237296138244" lon="-9.346771064399151"><ele>141.0</ele><time>2026-04-03T14:04:34.999Z</time></trkpt><trkpt lat="38.84810785440601" lon="-9.34686042618138"><ele>141.0</ele><time>2026-04-03T14:04:35.999Z</time></trkpt><trkpt lat="38.848008780030966" lon="-9.3469254882381"><ele>141.0</ele><time>2026-04-03T14:04:36.999Z</time></trkpt><trkpt lat="38.847921580353876" lon="-9.346971732026105"><ele>141.0</ele><time>2026-04-03T14:04:37.999Z</time></trkpt><trkpt lat="38.84781755559588" lon="-9.34699776327831"><ele>141.0</ele><time>2026-04-03T14:04:38.999Z</time></trkpt><trkpt lat="38.84767939300187" lon="-9.346998677259744"><ele>142.33333333333334</ele><time>2026-04-03T14:04:39.999Z</time></trkpt><trkpt lat="38.84753199685035" lon="-9.346987390157329"><ele>143.66666666666669</ele><time>2026-04-03T14:04:40.999Z</time></trkpt><trkpt lat="38.84737792825302" lon="-9.346977079113428"><ele>145.0</ele><time>2026-04-03T14:04:41.999Z</time></trkpt><trkpt lat="38.84722763915248" lon="-9.346939166322883"><ele>145.0</ele><time>2026-04-03T14:04:42.999Z</time></trkpt><trkpt lat="38.84709392367362" lon="-9.34695132536507"><ele>145.0</ele><time>2026-04-03T14:04:43.999Z</time></trkpt><trkpt lat="38.84698033336954" lon="-9.346934309569555"><ele>145.0</ele><time>2026-04-03T14:04:44.999Z</time></trkpt><trkpt lat="38.8468759269475" lon="-9.3471572630728"><ele>145.66666666666669</ele><time>2026-04-03T14:04:45.999Z</time></trkpt><trkpt lat="38.84674494619712" lon="-9.347277961766604"><ele>146.33333333333334</ele><time>2026-04-03T14:04:46.999Z</time></trkpt><trkpt lat="38.846676734762504" lon="-9.34749454568284"><ele>147.0</ele><time>2026-04-03T14:04:47.999Z</time></trkpt><trkpt lat="38.84655713642728" lon="-9.34768182791098"><ele>147.0</ele><time>2026-04-03T14:04:48.999Z</time></trkpt><trkpt lat="38.84643110552264" lon="-9.347879182657122"><ele>147.0</ele><time>2026-04-03T14:04:49.999Z</time></trkpt><trkpt lat="38.846282797287586" lon="-9.34808538480626"><ele>147.0</ele><time>2026-04-03T14:04:50.999Z</time></trkpt><trkpt lat="38.84614800518523" lon="-9.348318174355002"><ele>147.5</ele><time>2026-04-03T14:04:51.999Z</time></trkpt><trkpt lat="38.846008333817984" lon="-9.348549958326364"><ele>148.0</ele><time>2026-04-03T14:04:52.999Z</time></trkpt><trkpt lat="38.84585463755278" lon="-9.348782326901286"><ele>145.33333333333334</ele><time>2026-04-03T14:04:53.999Z</time></trkpt><trkpt lat="38.845707871466466" lon="-9.34901139310061"><ele>142.66666666666666</ele><time>2026-04-03T14:04:54.999Z</time></trkpt><trkpt lat="38.845584936832545" lon="-9.349210870471767"><ele>140.0</ele><time>2026-04-03T14:04:55.999Z</time></trkpt><trkpt lat="38.84546623674045" lon="-9.349393110586709"><ele>140.0</ele><time>2026-04-03T14:04:56.999Z</time></trkpt><trkpt lat="38.84534350671217" lon="-9.349571907767476"><ele>140.0</ele><time>2026-04-03T14:04:57.999Z</time></trkpt><trkpt lat="38.845232234782884" lon="-9.349731356788475"><ele>140.0</ele><time>2026-04-03T14:04:58.999Z</time></trkpt><trkpt lat="38.845116625239044" lon="-9.349866373088455"><ele>140.66666666666666</ele><time>2026-04-03T14:04:59.999Z</time></trkpt><trkpt lat="38.84497815640523" lon="-9.349968806476118"><ele>141.33333333333334</ele><time>2026-04-03T14:05:00.999Z</time></trkpt><trkpt lat="38.844807597812114" lon="-9.350047298196198"><ele>142.0</ele><time>2026-04-03T14:05:01.999Z</time></trkpt><trkpt lat="38.8446082139125" lon="-9.350088215083204"><ele>142.0</ele><time>2026-04-03T14:05:02.999Z</time></trkpt><trkpt lat="38.844408883470884" lon="-9.350158064765612"><ele>142.0</ele><time>2026-04-03T14:05:03.999Z</time></trkpt><trkpt lat="38.844239322871765" lon="-9.350228935868138"><ele>142.0</ele><time>2026-04-03T14:05:04.999Z</time></trkpt><trkpt lat="38.844082465088945" lon="-9.350298208952816"><ele>142.75</ele><time>2026-04-03T14:05:05.999Z</time></trkpt><trkpt lat="38.84394300906243" lon="-9.35035529551975"><ele>143.5</ele><time>2026-04-03T14:05:06.999Z</time></trkpt><trkpt lat="38.84381847861288" lon="-9.350422077219623"><ele>144.25</ele><time>2026-04-03T14:05:07.999Z</time></trkpt><trkpt lat="38.84370801899075" lon="-9.350485460126082"><ele>145.0</ele><time>2026-04-03T14:05:08.999Z</time></trkpt><trkpt lat="38.84362093296048" lon="-9.35052807930416"><ele>144.8</ele><time>2026-04-03T14:05:09.999Z</time></trkpt><trkpt lat="38.84354040439898" lon="-9.350571597469985"><ele>144.6</ele><time>2026-04-03T14:05:10.999Z</time></trkpt><trkpt lat="38.84346383035098" lon="-9.350671033947213"><ele>144.4</ele><time>2026-04-03T14:05:12.999Z</time></trkpt><trkpt lat="38.8435139133058" lon="-9.350805110393138"><ele>144.2</ele><time>2026-04-03T14:05:13.999Z</time></trkpt><trkpt lat="38.84351755317696" lon="-9.350914130317008"><ele>144.0</ele><time>2026-04-03T14:05:14.999Z</time></trkpt><trkpt lat="38.843482858356616" lon="-9.350984277826903"><ele>143.83333333333334</ele><time>2026-04-03T14:05:15.999Z</time></trkpt><trkpt lat="38.84341183990392" lon="-9.350997594772661"><ele>143.66666666666666</ele><time>2026-04-03T14:05:16.999Z</time></trkpt><trkpt lat="38.843343294703864" lon="-9.35104820646851"><ele>143.5</ele><time>2026-04-03T14:05:17.999Z</time></trkpt><trkpt lat="38.843249879414365" lon="-9.351058659993532"><ele>143.33333333333331</ele><time>2026-04-03T14:05:18.999Z</time></trkpt><trkpt lat="38.843183187087135" lon="-9.351086664963566"><ele>143.16666666666666</ele><time>2026-04-03T14:05:19.999Z</time></trkpt><trkpt lat="38.843097022452575" lon="-9.351161850984452"><ele>143.0</ele><time>2026-04-03T14:05:21.999Z</time></trkpt><trkpt lat="38.84302177229625" lon="-9.351035881562574"><ele>143.0</ele><time>2026-04-03T14:05:23.999Z</time></trkpt><trkpt lat="38.84296568656372" lon="-9.350952511259917"><ele>143.0</ele><time>2026-04-03T14:05:24.999Z</time></trkpt><trkpt lat="38.8429288983398" lon="-9.350875957106698"><ele>143.0</ele><time>2026-04-03T14:05:26.999Z</time></trkpt><trkpt lat="38.84288061823445" lon="-9.350975179606596"><ele>143.0</ele><time>2026-04-03T14:05:27.999Z</time></trkpt><trkpt lat="38.84277786402794" lon="-9.351020090273082"><ele>143.0</ele><time>2026-04-03T14:05:28.999Z</time></trkpt><trkpt lat="38.84267224308605" lon="-9.351064382101157"><ele>142.33333333333331</ele><time>2026-04-03T14:05:29.999Z</time></trkpt><trkpt lat="38.842578850289755" lon="-9.351103874580298"><ele>141.66666666666666</ele><time>2026-04-03T14:05:30.999Z</time></trkpt><trkpt lat="38.84249910766381" lon="-9.35112072261974"><ele>141.0</ele><time>2026-04-03T14:05:31.999Z</time></trkpt><trkpt lat="38.842421120111595" lon="-9.351156475674589"><ele>140.33333333333334</ele><time>2026-04-03T14:05:32.999Z</time></trkpt><trkpt lat="38.84234236250881" lon="-9.351191843548632"><ele>139.66666666666669</ele><time>2026-04-03T14:05:33.999Z</time></trkpt><trkpt lat="38.84224861536572" lon="-9.351213154375156"><ele>139.0</ele><time>2026-04-03T14:05:34.999Z</time></trkpt><trkpt lat="38.84216371803248" lon="-9.351223936028008"><ele>139.0</ele><time>2026-04-03T14:05:35.999Z</time></trkpt><trkpt lat="38.84207960194667" lon="-9.351279047861427"><ele>139.0</ele><time>2026-04-03T14:05:36.999Z</time></trkpt><trkpt lat="38.841964033172246" lon="-9.351369519084646"><ele>139.0</ele><time>2026-04-03T14:05:37.999Z</time></trkpt><trkpt lat="38.84186207935954" lon="-9.351500719341963"><ele>139.0</ele><time>2026-04-03T14:05:38.999Z</time></trkpt><trkpt lat="38.841757563540824" lon="-9.35168502048223"><ele>136.33333333333334</ele><time>2026-04-03T14:05:39.999Z</time></trkpt><trkpt lat="38.84163875104209" lon="-9.351870195612888"><ele>133.66666666666666</ele><time>2026-04-03T14:05:40.999Z</time></trkpt><trkpt lat="38.841513110059644" lon="-9.352065101683964"><ele>131.0</ele><time>2026-04-03T14:05:41.999Z</time></trkpt><trkpt lat="38.841388916381305" lon="-9.352211234221885"><ele>130.6</ele><time>2026-04-03T14:05:42.999Z</time></trkpt><trkpt lat="38.841301205562516" lon="-9.352340380107066"><ele>130.2</ele><time>2026-04-03T14:05:43.999Z</time></trkpt><trkpt lat="38.84124075829504" lon="-9.352436195812027"><ele>129.8</ele><time>2026-04-03T14:05:44.999Z</time></trkpt><trkpt lat="38.841197997212966" lon="-9.352511804115203"><ele>129.4</ele><time>2026-04-03T14:05:45.999Z</time></trkpt><trkpt lat="38.841292454811" lon="-9.352621204572534"><ele>129.0</ele><time>2026-04-03T14:05:47.999Z</time></trkpt><trkpt lat="38.84130619599543" lon="-9.352727359666357"><ele>129.0</ele><time>2026-04-03T14:05:48.999Z</time></trkpt><trkpt lat="38.8412964603411" lon="-9.352836910957334"><ele>129.0</ele><time>2026-04-03T14:05:49.999Z</time></trkpt><trkpt lat="38.841301415650946" lon="-9.352924676970403"><ele>129.0</ele><time>2026-04-03T14:05:50.999Z</time></trkpt><trkpt lat="38.84131236628017" lon="-9.35306335340905"><ele>129.0</ele><time>2026-04-03T14:05:52.999Z</time></trkpt><trkpt lat="38.841351013117446" lon="-9.353135845490264"><ele>129.0</ele><time>2026-04-03T14:05:55.999Z</time></trkpt><trkpt lat="38.8412903603231" lon="-9.35310252592447"><ele>129.0</ele><time>2026-04-03T14:05:57.999Z</time></trkpt><trkpt lat="38.84131047626261" lon="-9.353021689286656"><ele>129.0</ele><time>2026-04-03T14:05:58.999Z</time></trkpt><trkpt lat="38.84130909271685" lon="-9.35293681777209"><ele>129.0</ele><time>2026-04-03T14:05:59.999Z</time></trkpt><trkpt lat="38.841314326526145" lon="-9.352768240723556"><ele>129.0</ele><time>2026-04-03T14:06:01.999Z</time></trkpt><trkpt lat="38.841262966190534" lon="-9.352654983414883"><ele>129.0</ele><time>2026-04-03T14:06:02.999Z</time></trkpt><trkpt lat="38.841246679254056" lon="-9.352529475368613"><ele>129.0</ele><time>2026-04-03T14:06:03.999Z</time></trkpt><trkpt lat="38.8412048672743" lon="-9.352432365007438"><ele>129.0</ele><time>2026-04-03T14:06:05.999Z</time></trkpt><trkpt lat="38.841155954658625" lon="-9.352576118798417"><ele>129.0</ele><time>2026-04-03T14:06:06.999Z</time></trkpt><trkpt lat="38.841054353024035" lon="-9.352666393934982"><ele>129.0</ele><time>2026-04-03T14:06:07.999Z</time></trkpt><trkpt lat="38.84091330770969" lon="-9.352681647167485"><ele>129.0</ele><time>2026-04-03T14:06:08.999Z</time></trkpt><trkpt lat="38.84078731949126" lon="-9.352780141612513"><ele>129.0</ele><time>2026-04-03T14:06:09.999Z</time></trkpt><trkpt lat="38.84065537450155" lon="-9.352909555428123"><ele>129.0</ele><time>2026-04-03T14:06:10.999Z</time></trkpt><trkpt lat="38.840508803526944" lon="-9.353038157396481"><ele>129.0</ele><time>2026-04-03T14:06:11.999Z</time></trkpt><trkpt lat="38.84034762116528" lon="-9.353159380785197"><ele>126.33333333333334</ele><time>2026-04-03T14:06:12.999Z</time></trkpt><trkpt lat="38.84017350489633" lon="-9.353290284900456"><ele>123.66666666666667</ele><time>2026-04-03T14:06:13.999Z</time></trkpt><trkpt lat="38.83999480798247" lon="-9.353430572431346"><ele>121.0</ele><time>2026-04-03T14:06:14.999Z</time></trkpt><trkpt lat="38.839814636683435" lon="-9.353572609842063"><ele>121.0</ele><time>2026-04-03T14:06:15.999Z</time></trkpt><trkpt lat="38.83962780270557" lon="-9.353720561343788"><ele>121.0</ele><time>2026-04-03T14:06:16.999Z</time></trkpt><trkpt lat="38.839441194675175" lon="-9.353874133684984"><ele>121.0</ele><time>2026-04-03T14:06:17.999Z</time></trkpt><trkpt lat="38.83925000413173" lon="-9.354031362883443"><ele>123.0</ele><time>2026-04-03T14:06:18.999Z</time></trkpt><trkpt lat="38.83906358123189" lon="-9.354190537944314"><ele>125.0</ele><time>2026-04-03T14:06:19.999Z</time></trkpt><trkpt lat="38.83887493678009" lon="-9.354347762154164"><ele>127.0</ele><time>2026-04-03T14:06:20.999Z</time></trkpt><trkpt lat="38.838682530611486" lon="-9.354511074195969"><ele>127.0</ele><time>2026-04-03T14:06:21.999Z</time></trkpt><trkpt lat="38.83848345289886" lon="-9.354670555665981"><ele>127.0</ele><time>2026-04-03T14:06:22.999Z</time></trkpt><trkpt lat="38.83828311439285" lon="-9.354835542436218"><ele>127.5</ele><time>2026-04-03T14:06:23.999Z</time></trkpt><trkpt lat="38.838085140753456" lon="-9.355005985844354"><ele>128.0</ele><time>2026-04-03T14:06:24.999Z</time></trkpt><trkpt lat="38.837880145642266" lon="-9.355163278191682"><ele>128.0</ele><time>2026-04-03T14:06:25.999Z</time></trkpt><trkpt lat="38.83766456048567" lon="-9.35531052517808"><ele>128.0</ele><time>2026-04-03T14:06:26.999Z</time></trkpt><trkpt lat="38.83745126232498" lon="-9.355451811332253"><ele>130.5</ele><time>2026-04-03T14:06:27.999Z</time></trkpt><trkpt lat="38.837236905562165" lon="-9.355565065979853"><ele>133.0</ele><time>2026-04-03T14:06:28.999Z</time></trkpt><trkpt lat="38.83702841277795" lon="-9.355696091124868"><ele>133.0</ele><time>2026-04-03T14:06:29.999Z</time></trkpt><trkpt lat="38.83687752907223" lon="-9.35571941032928"><ele>133.0</ele><time>2026-04-03T14:06:30.999Z</time></trkpt><trkpt lat="38.83671663609164" lon="-9.355768503048576"><ele>133.0</ele><time>2026-04-03T14:06:31.999Z</time></trkpt><trkpt lat="38.836580738823294" lon="-9.355809939409133"><ele>133.0</ele><time>2026-04-03T14:06:32.999Z</time></trkpt><trkpt lat="38.83645529550224" lon="-9.35583928359295"><ele>133.0</ele><time>2026-04-03T14:06:33.999Z</time></trkpt><trkpt lat="38.83635328690918" lon="-9.355871638675234"><ele>133.0</ele><time>2026-04-03T14:06:34.999Z</time></trkpt><trkpt lat="38.83626246399306" lon="-9.355886642497131"><ele>133.0</ele><time>2026-04-03T14:06:35.999Z</time></trkpt><trkpt lat="38.836199687934254" lon="-9.355905834095271"><ele>133.0</ele><time>2026-04-03T14:06:36.999Z</time></trkpt><trkpt lat="38.83613302591326" lon="-9.355988963780494"><ele>133.0</ele><time>2026-04-03T14:06:38.999Z</time></trkpt><trkpt lat="38.83623633504152" lon="-9.356142110544186"><ele>133.0</ele><time>2026-04-03T14:06:39.999Z</time></trkpt><trkpt lat="38.83624425723277" lon="-9.356253255589506"><ele>133.0</ele><time>2026-04-03T14:06:40.999Z</time></trkpt><trkpt lat="38.83622208104404" lon="-9.356388011173019"><ele>133.0</ele><time>2026-04-03T14:06:41.999Z</time></trkpt><trkpt lat="38.83619517288547" lon="-9.356537534220204"><ele>134.0</ele><time>2026-04-03T14:06:42.999Z</time></trkpt><trkpt lat="38.83617598199218" lon="-9.356666678494992"><ele>135.0</ele><time>2026-04-03T14:06:43.999Z</time></trkpt><trkpt lat="38.836161882914205" lon="-9.35676668605553"><ele>136.0</ele><time>2026-04-03T14:06:44.999Z</time></trkpt><trkpt lat="38.83613834212549" lon="-9.35684418311843"><ele>137.0</ele><time>2026-04-03T14:06:46.999Z</time></trkpt><trkpt lat="38.835979954703184" lon="-9.356780791500048"><ele>138.0</ele><time>2026-04-03T14:06:47.999Z</time></trkpt><trkpt lat="38.83592334384561" lon="-9.356738226198122"><ele>138.0</ele><time>2026-04-03T14:06:50.999Z</time></trkpt><trkpt lat="38.83582280999893" lon="-9.356732673119541"><ele>138.0</ele><time>2026-04-03T14:07:50Z</time></trkpt><trkpt lat="38.835793035407555" lon="-9.35665680473578"><ele>138.0</ele><time>2026-04-03T14:08:03.999Z</time></trkpt><trkpt lat="38.8358314544217" lon="-9.356582284040611"><ele>138.0</ele><time>2026-04-03T14:08:19Z</time></trkpt><trkpt lat="38.835865480863994" lon="-9.356469853936435"><ele>138.0</ele><time>2026-04-03T14:12:24Z</time></trkpt><trkpt lat="38.83589141766541" lon="-9.356395110256619"><ele>138.0</ele><time>2026-04-03T14:12:26Z</time></trkpt><trkpt lat="38.8359386658719" lon="-9.356319753435994"><ele>132.0</ele><time>2026-04-03T14:12:28Z</time></trkpt></trkseg><trkseg><trkpt lat="38.83593207134309" lon="-9.356602316927379"><ele>138.0</ele><time>2026-04-03T14:34:50.939Z</time></trkpt><trkpt lat="38.83597277893496" lon="-9.356728517673421"><ele>138.0</ele><time>2026-04-03T14:34:54Z</time></trkpt><trkpt lat="38.8359060720124" lon="-9.356737644493721"><ele>138.0</ele><time>2026-04-03T14:35:19Z</time></trkpt><trkpt lat="38.83585283669608" lon="-9.356673054391782"><ele>138.0</ele><time>2026-04-03T14:35:24Z</time></trkpt><trkpt lat="38.83586041554682" lon="-9.356766582583356"><ele>138.0</ele><time>2026-04-03T14:37:06Z</time></trkpt><trkpt lat="38.835793297816686" lon="-9.356695653640065"><ele>138.0</ele><time>2026-04-03T14:37:39Z</time></trkpt><trkpt lat="38.83582275258754" lon="-9.356608772954365"><ele>138.0</ele><time>2026-04-03T14:37:41Z</time></trkpt><trkpt lat="38.83582169742609" lon="-9.356502334331669"><ele>138.0</ele><time>2026-04-03T14:37:43Z</time></trkpt><trkpt lat="38.83587121322231" lon="-9.356403992711476"><ele>138.0</ele><time>2026-04-03T14:37:45Z</time></trkpt><trkpt lat="38.83591285287576" lon="-9.356271444569076"><ele>138.0</ele><time>2026-04-03T14:37:47Z</time></trkpt><trkpt lat="38.83595277554746" lon="-9.356143730286293"><ele>138.0</ele><time>2026-04-03T14:37:49Z</time></trkpt><trkpt lat="38.83599337420798" lon="-9.356081711100314"><ele>137.0</ele><time>2026-04-03T14:37:50Z</time></trkpt><trkpt lat="38.83605558536254" lon="-9.356058494027563"><ele>136.0</ele><time>2026-04-03T14:37:51Z</time></trkpt><trkpt lat="38.836149533462255" lon="-9.355988741855924"><ele>135.0</ele><time>2026-04-03T14:37:53Z</time></trkpt><trkpt lat="38.83614309471681" lon="-9.35589685510821"><ele>134.0</ele><time>2026-04-03T14:37:55Z</time></trkpt><trkpt lat="38.836046558468254" lon="-9.355893932179402"><ele>133.0</ele><time>2026-04-03T14:38:07Z</time></trkpt><trkpt lat="38.835905836947454" lon="-9.355943668260883"><ele>132.8</ele><time>2026-04-03T14:38:09Z</time></trkpt><trkpt lat="38.83581803645068" lon="-9.355972806968076"><ele>132.60000000000002</ele><time>2026-04-03T14:38:10Z</time></trkpt><trkpt lat="38.83570711614498" lon="-9.355994033820307"><ele>132.39999999999998</ele><time>2026-04-03T14:38:11Z</time></trkpt><trkpt lat="38.835596260263166" lon="-9.356009104011434"><ele>132.2</ele><time>2026-04-03T14:38:12Z</time></trkpt><trkpt lat="38.83548023308773" lon="-9.356031567109124"><ele>132.0</ele><time>2026-04-03T14:38:13Z</time></trkpt><trkpt lat="38.83536104094776" lon="-9.356060950860345"><ele>132.0</ele><time>2026-04-03T14:38:14Z</time></trkpt><trkpt lat="38.83526440641099" lon="-9.356144349693052"><ele>132.0</ele><time>2026-04-03T14:38:15Z</time></trkpt><trkpt lat="38.835195717213026" lon="-9.356231004869858"><ele>132.0</ele><time>2026-04-03T14:38:16Z</time></trkpt><trkpt lat="38.83511931859304" lon="-9.356288329908184"><ele>132.0</ele><time>2026-04-03T14:38:17Z</time></trkpt><trkpt lat="38.83503823944847" lon="-9.356283615153442"><ele>132.0</ele><time>2026-04-03T14:38:18Z</time></trkpt><trkpt lat="38.834972534066615" lon="-9.356219299966455"><ele>132.0</ele><time>2026-04-03T14:38:19Z</time></trkpt><trkpt lat="38.83494234166013" lon="-9.356106285025838"><ele>132.0</ele><time>2026-04-03T14:38:20Z</time></trkpt><trkpt lat="38.83496130771626" lon="-9.355978221362012"><ele>132.0</ele><time>2026-04-03T14:38:21Z</time></trkpt><trkpt lat="38.835033511117906" lon="-9.355868367900245"><ele>132.0</ele><time>2026-04-03T14:38:22Z</time></trkpt><trkpt lat="38.8351372779194" lon="-9.355793796712222"><ele>132.0</ele><time>2026-04-03T14:38:23Z</time></trkpt><trkpt lat="38.835220290276936" lon="-9.355694322178223"><ele>132.0</ele><time>2026-04-03T14:38:24Z</time></trkpt><trkpt lat="38.83529025827941" lon="-9.355565978378865"><ele>132.0</ele><time>2026-04-03T14:38:25Z</time></trkpt><trkpt lat="38.835359828985844" lon="-9.355420847377818"><ele>132.0</ele><time>2026-04-03T14:38:26Z</time></trkpt><trkpt lat="38.83542629620709" lon="-9.355290107216351"><ele>132.0</ele><time>2026-04-03T14:38:27Z</time></trkpt><trkpt lat="38.83551178778373" lon="-9.355161523403217"><ele>132.0</ele><time>2026-04-03T14:38:28Z</time></trkpt><trkpt lat="38.835621423523094" lon="-9.35502188735672"><ele>132.0</ele><time>2026-04-03T14:38:29Z</time></trkpt><trkpt lat="38.83574496531095" lon="-9.35488877504147"><ele>132.0</ele><time>2026-04-03T14:38:30Z</time></trkpt><trkpt lat="38.83587100225516" lon="-9.354729390670176"><ele>130.66666666666666</ele><time>2026-04-03T14:38:31Z</time></trkpt><trkpt lat="38.83598223730743" lon="-9.354581535732478"><ele>129.33333333333331</ele><time>2026-04-03T14:38:32Z</time></trkpt><trkpt lat="38.836093279117435" lon="-9.354435692772832"><ele>128.0</ele><time>2026-04-03T14:38:33Z</time></trkpt><trkpt lat="38.836196794948286" lon="-9.354301943114208"><ele>128.0</ele><time>2026-04-03T14:38:34Z</time></trkpt><trkpt lat="38.836298078042766" lon="-9.354173531959084"><ele>128.0</ele><time>2026-04-03T14:38:35Z</time></trkpt><trkpt lat="38.83640461470801" lon="-9.354038464144322"><ele>128.0</ele><time>2026-04-03T14:38:36Z</time></trkpt><trkpt lat="38.836511526183514" lon="-9.353906537365717"><ele>128.0</ele><time>2026-04-03T14:38:37Z</time></trkpt><trkpt lat="38.836620125392955" lon="-9.353769465678308"><ele>127.75</ele><time>2026-04-03T14:38:38Z</time></trkpt><trkpt lat="38.836727232735235" lon="-9.353633376911402"><ele>127.5</ele><time>2026-04-03T14:38:39Z</time></trkpt><trkpt lat="38.8368303602498" lon="-9.353499763102727"><ele>127.25</ele><time>2026-04-03T14:38:40Z</time></trkpt><trkpt lat="38.83693585129846" lon="-9.353366503360734"><ele>127.0</ele><time>2026-04-03T14:38:41Z</time></trkpt><trkpt lat="38.837037325227854" lon="-9.353232538921702"><ele>127.0</ele><time>2026-04-03T14:38:42Z</time></trkpt><trkpt lat="38.8371331240777" lon="-9.35310573623186"><ele>127.0</ele><time>2026-04-03T14:38:43Z</time></trkpt><trkpt lat="38.83722513932854" lon="-9.35298461161158"><ele>127.0</ele><time>2026-04-03T14:38:44Z</time></trkpt><trkpt lat="38.837306833668265" lon="-9.35287375870242"><ele>127.0</ele><time>2026-04-03T14:38:45Z</time></trkpt><trkpt lat="38.8373757060852" lon="-9.352775669997369"><ele>127.00000000000001</ele><time>2026-04-03T14:38:46Z</time></trkpt><trkpt lat="38.837444966035974" lon="-9.352683102897846"><ele>127.0</ele><time>2026-04-03T14:38:47Z</time></trkpt><trkpt lat="38.83751478857955" lon="-9.352593711229831"><ele>127.0</ele><time>2026-04-03T14:38:48Z</time></trkpt><trkpt lat="38.83757665451655" lon="-9.352527942059314"><ele>127.0</ele><time>2026-04-03T14:38:49Z</time></trkpt><trkpt lat="38.837636595462236" lon="-9.352463580010104"><ele>127.00000000000001</ele><time>2026-04-03T14:38:50Z</time></trkpt><trkpt lat="38.8376955553235" lon="-9.352396458825366"><ele>127.0</ele><time>2026-04-03T14:38:51Z</time></trkpt><trkpt lat="38.837738383874004" lon="-9.352319271730506"><ele>127.0</ele><time>2026-04-03T14:38:52Z</time></trkpt><trkpt lat="38.8378036690844" lon="-9.352257801019169"><ele>126.99999999999999</ele><time>2026-04-03T14:38:54Z</time></trkpt><trkpt lat="38.83764933479149" lon="-9.352133717687996"><ele>126.99999999999999</ele><time>2026-04-03T14:38:55Z</time></trkpt><trkpt lat="38.83759943622439" lon="-9.352056990114075"><ele>127.0</ele><time>2026-04-03T14:38:56Z</time></trkpt><trkpt lat="38.837552040635885" lon="-9.351982692512582"><ele>127.0</ele><time>2026-04-03T14:38:57Z</time></trkpt><trkpt lat="38.83750593532729" lon="-9.351882097094263"><ele>127.0</ele><time>2026-04-03T14:38:58Z</time></trkpt><trkpt lat="38.83746978870108" lon="-9.351782481673983"><ele>127.0</ele><time>2026-04-03T14:38:59Z</time></trkpt><trkpt lat="38.83742380113857" lon="-9.35162971657908"><ele>127.0</ele><time>2026-04-03T14:39:00Z</time></trkpt><trkpt lat="38.837390888356666" lon="-9.351465190531492"><ele>127.0</ele><time>2026-04-03T14:39:01Z</time></trkpt><trkpt lat="38.837351961288704" lon="-9.351292369458497"><ele>127.25</ele><time>2026-04-03T14:39:02Z</time></trkpt><trkpt lat="38.83731071465443" lon="-9.351112695043959"><ele>127.5</ele><time>2026-04-03T14:39:03Z</time></trkpt><trkpt lat="38.83727766980127" lon="-9.350963091965557"><ele>127.75</ele><time>2026-04-03T14:39:04Z</time></trkpt><trkpt lat="38.8372079973156" lon="-9.350858999311509"><ele>128.0</ele><time>2026-04-03T14:39:05Z</time></trkpt><trkpt lat="38.83712205946836" lon="-9.350807765025927"><ele>128.0</ele><time>2026-04-03T14:39:06Z</time></trkpt><trkpt lat="38.837010396650065" lon="-9.350759623000375"><ele>128.0</ele><time>2026-04-03T14:39:07Z</time></trkpt><trkpt lat="38.83687961365539" lon="-9.350688387507912"><ele>128.0</ele><time>2026-04-03T14:39:08Z</time></trkpt><trkpt lat="38.836751107245405" lon="-9.35062241852954"><ele>128.0</ele><time>2026-04-03T14:39:09Z</time></trkpt><trkpt lat="38.83663438399454" lon="-9.35057575314739"><ele>128.0</ele><time>2026-04-03T14:39:10Z</time></trkpt><trkpt lat="38.83653424928787" lon="-9.350551179628663"><ele>128.0</ele><time>2026-04-03T14:39:11Z</time></trkpt><trkpt lat="38.83642971766479" lon="-9.35053290170123"><ele>128.0</ele><time>2026-04-03T14:39:12Z</time></trkpt><trkpt lat="38.83631685058929" lon="-9.350516758761227"><ele>128.0</ele><time>2026-04-03T14:39:13Z</time></trkpt><trkpt lat="38.83620424814582" lon="-9.350498296034088"><ele>128.0</ele><time>2026-04-03T14:39:14Z</time></trkpt><trkpt lat="38.83610327879314" lon="-9.350516894422784"><ele>128.0</ele><time>2026-04-03T14:39:15Z</time></trkpt><trkpt lat="38.83599945561262" lon="-9.350544210690558"><ele>128.0</ele><time>2026-04-03T14:39:16Z</time></trkpt><trkpt lat="38.83589160434552" lon="-9.350585554353671"><ele>128.0</ele><time>2026-04-03T14:39:17Z</time></trkpt><trkpt lat="38.8357837892053" lon="-9.350634901015894"><ele>128.0</ele><time>2026-04-03T14:39:18Z</time></trkpt><trkpt lat="38.83567086532013" lon="-9.350662092794394"><ele>128.0</ele><time>2026-04-03T14:39:19Z</time></trkpt><trkpt lat="38.83556499092385" lon="-9.35069602414704"><ele>128.0</ele><time>2026-04-03T14:39:20Z</time></trkpt><trkpt lat="38.83545535403335" lon="-9.350733814770885"><ele>128.0</ele><time>2026-04-03T14:39:21Z</time></trkpt><trkpt lat="38.83534946432831" lon="-9.35075372217799"><ele>128.0</ele><time>2026-04-03T14:39:22Z</time></trkpt><trkpt lat="38.83524738084699" lon="-9.35078014466605"><ele>128.0</ele><time>2026-04-03T14:39:23Z</time></trkpt><trkpt lat="38.8351532339006" lon="-9.350824516491869"><ele>128.0</ele><time>2026-04-03T14:39:24Z</time></trkpt><trkpt lat="38.83505986793018" lon="-9.350829997197952"><ele>127.83333333333333</ele><time>2026-04-03T14:39:25Z</time></trkpt><trkpt lat="38.83497360909319" lon="-9.350851288456292"><ele>127.66666666666666</ele><time>2026-04-03T14:39:26Z</time></trkpt><trkpt lat="38.834892560520075" lon="-9.350898330146482"><ele>127.5</ele><time>2026-04-03T14:39:27Z</time></trkpt><trkpt lat="38.83481778040912" lon="-9.350934335117179"><ele>127.33333333333334</ele><time>2026-04-03T14:39:28Z</time></trkpt><trkpt lat="38.8347879168916" lon="-9.351039035994356"><ele>127.16666666666667</ele><time>2026-04-03T14:39:29Z</time></trkpt><trkpt lat="38.834784489692694" lon="-9.351165836778765"><ele>127.0</ele><time>2026-04-03T14:39:30Z</time></trkpt><trkpt lat="38.83475508830609" lon="-9.351292980144311"><ele>127.39999999999999</ele><time>2026-04-03T14:39:31Z</time></trkpt><trkpt lat="38.8347248703717" lon="-9.351395306403903"><ele>127.79999999999998</ele><time>2026-04-03T14:39:32Z</time></trkpt><trkpt lat="38.83467426010701" lon="-9.351477147730094"><ele>128.2</ele><time>2026-04-03T14:39:33Z</time></trkpt><trkpt lat="38.83464208764854" lon="-9.351590560046263"><ele>128.6</ele><time>2026-04-03T14:39:34Z</time></trkpt><trkpt lat="38.83453358142225" lon="-9.351646316079295"><ele>129.0</ele><time>2026-04-03T14:39:35Z</time></trkpt><trkpt lat="38.83444330205204" lon="-9.351712788746564"><ele>129.0</ele><time>2026-04-03T14:39:36Z</time></trkpt><trkpt lat="38.83433561435951" lon="-9.351746603501633"><ele>129.0</ele><time>2026-04-03T14:39:37Z</time></trkpt><trkpt lat="38.834221646585824" lon="-9.351737282549198"><ele>129.0</ele><time>2026-04-03T14:39:38Z</time></trkpt><trkpt lat="38.83408787663279" lon="-9.351722872264348"><ele>129.0</ele><time>2026-04-03T14:39:39Z</time></trkpt><trkpt lat="38.833943122334546" lon="-9.351687036564531"><ele>129.5</ele><time>2026-04-03T14:39:40Z</time></trkpt><trkpt lat="38.83378027418267" lon="-9.351687700230306"><ele>130.0</ele><time>2026-04-03T14:39:41Z</time></trkpt><trkpt lat="38.833640881159326" lon="-9.351670123791065"><ele>130.5</ele><time>2026-04-03T14:39:42Z</time></trkpt><trkpt lat="38.83349957943012" lon="-9.35165987397455"><ele>131.0</ele><time>2026-04-03T14:39:43Z</time></trkpt><trkpt lat="38.833363500745705" lon="-9.351659476242105"><ele>131.0</ele><time>2026-04-03T14:39:44Z</time></trkpt><trkpt lat="38.833252937503296" lon="-9.351636261660603"><ele>131.0</ele><time>2026-04-03T14:39:45Z</time></trkpt><trkpt lat="38.83313757057035" lon="-9.351615447680157"><ele>131.0</ele><time>2026-04-03T14:39:46Z</time></trkpt><trkpt lat="38.83303203480825" lon="-9.351597936771284"><ele>131.0</ele><time>2026-04-03T14:39:47Z</time></trkpt><trkpt lat="38.83293029462093" lon="-9.351600750816154"><ele>131.0</ele><time>2026-04-03T14:39:48Z</time></trkpt><trkpt lat="38.83285014384569" lon="-9.351614910306898"><ele>131.0</ele><time>2026-04-03T14:39:49Z</time></trkpt><trkpt lat="38.83278175035965" lon="-9.35164957917726"><ele>131.0</ele><time>2026-04-03T14:39:50Z</time></trkpt><trkpt lat="38.83270295136075" lon="-9.351677128526939"><ele>131.0</ele><time>2026-04-03T14:39:51Z</time></trkpt><trkpt lat="38.832604987193136" lon="-9.351703837414096"><ele>131.0</ele><time>2026-04-03T14:39:52Z</time></trkpt><trkpt lat="38.832498538547" lon="-9.35172350216504"><ele>131.0</ele><time>2026-04-03T14:39:53Z</time></trkpt><trkpt lat="38.83239710936723" lon="-9.351748519743923"><ele>131.25</ele><time>2026-04-03T14:39:54Z</time></trkpt><trkpt lat="38.832273647820884" lon="-9.351746287469188"><ele>131.5</ele><time>2026-04-03T14:39:55Z</time></trkpt><trkpt lat="38.83214866420633" lon="-9.351739470907527"><ele>131.75</ele><time>2026-04-03T14:39:56Z</time></trkpt><trkpt lat="38.83203678082511" lon="-9.351734190129616"><ele>132.0</ele><time>2026-04-03T14:39:57Z</time></trkpt><trkpt lat="38.83194237100163" lon="-9.35172714901482"><ele>132.0</ele><time>2026-04-03T14:39:58Z</time></trkpt><trkpt lat="38.83184634738368" lon="-9.351724167662832"><ele>132.0</ele><time>2026-04-03T14:39:59Z</time></trkpt><trkpt lat="38.831772833547255" lon="-9.351856963260216"><ele>132.0</ele><time>2026-04-03T14:40:00Z</time></trkpt><trkpt lat="38.831697936549666" lon="-9.35198475788402"><ele>132.0</ele><time>2026-04-03T14:40:01Z</time></trkpt><trkpt lat="38.83160249141762" lon="-9.352099294237531"><ele>132.5</ele><time>2026-04-03T14:40:02Z</time></trkpt><trkpt lat="38.831508472389416" lon="-9.352174093689072"><ele>133.0</ele><time>2026-04-03T14:40:03Z</time></trkpt><trkpt lat="38.831406649488905" lon="-9.3522289218382"><ele>133.5</ele><time>2026-04-03T14:40:04Z</time></trkpt><trkpt lat="38.831294179010854" lon="-9.352252235134928"><ele>134.0</ele><time>2026-04-03T14:40:05Z</time></trkpt><trkpt lat="38.831167920492135" lon="-9.352239992153024"><ele>134.25</ele><time>2026-04-03T14:40:06Z</time></trkpt><trkpt lat="38.83103444652645" lon="-9.352200623846679"><ele>134.5</ele><time>2026-04-03T14:40:07Z</time></trkpt><trkpt lat="38.83092424010468" lon="-9.352168947440765"><ele>134.75</ele><time>2026-04-03T14:40:08Z</time></trkpt><trkpt lat="38.830823047995686" lon="-9.352150275331546"><ele>135.0</ele><time>2026-04-03T14:40:09Z</time></trkpt><trkpt lat="38.83072765151084" lon="-9.352123997203295"><ele>135.0</ele><time>2026-04-03T14:40:10Z</time></trkpt><trkpt lat="38.830645745692955" lon="-9.352101337535027"><ele>135.0</ele><time>2026-04-03T14:40:11Z</time></trkpt><trkpt lat="38.83056655939821" lon="-9.352074130949925"><ele>135.0</ele><time>2026-04-03T14:40:12Z</time></trkpt><trkpt lat="38.83050226282045" lon="-9.352071659439325"><ele>135.0</ele><time>2026-04-03T14:40:13Z</time></trkpt><trkpt lat="38.83035147775853" lon="-9.35198761495142"><ele>135.0</ele><time>2026-04-03T14:40:18Z</time></trkpt><trkpt lat="38.83028730032214" lon="-9.352014553977224"><ele>134.33333333333334</ele><time>2026-04-03T14:40:19Z</time></trkpt><trkpt lat="38.83011220070921" lon="-9.352128729932558"><ele>133.66666666666669</ele><time>2026-04-03T14:40:20Z</time></trkpt><trkpt lat="38.830051379703576" lon="-9.352356115720335"><ele>133.0</ele><time>2026-04-03T14:40:21Z</time></trkpt><trkpt lat="38.83003852467728" lon="-9.352462170231272"><ele>133.0</ele><time>2026-04-03T14:40:22Z</time></trkpt><trkpt lat="38.83008637702674" lon="-9.352657692405696"><ele>133.0</ele><time>2026-04-03T14:40:23Z</time></trkpt><trkpt lat="38.83009332048915" lon="-9.352750603029234"><ele>133.0</ele><time>2026-04-03T14:40:24Z</time></trkpt><trkpt lat="38.83028243068136" lon="-9.352809783877158"><ele>133.0</ele><time>2026-04-03T14:40:25Z</time></trkpt><trkpt lat="38.83016159814834" lon="-9.352848348176087"><ele>133.0</ele><time>2026-04-03T14:40:27Z</time></trkpt><trkpt lat="38.83009845146122" lon="-9.352790215645683"><ele>133.0</ele><time>2026-04-03T14:40:28Z</time></trkpt><trkpt lat="38.83000876809684" lon="-9.35273556398511"><ele>133.0</ele><time>2026-04-03T14:40:29Z</time></trkpt><trkpt lat="38.8299281523224" lon="-9.352730004406437"><ele>133.0</ele><time>2026-04-03T14:40:30Z</time></trkpt><trkpt lat="38.82981895325509" lon="-9.352695807831163"><ele>133.0</ele><time>2026-04-03T14:40:32Z</time></trkpt><trkpt lat="38.82975939169051" lon="-9.352669015738815"><ele>133.0</ele><time>2026-04-03T14:40:34Z</time></trkpt><trkpt lat="38.829703578097565" lon="-9.35262633425755"><ele>133.0</ele><time>2026-04-03T14:40:42Z</time></trkpt><trkpt lat="38.82970559385219" lon="-9.35271044499229"><ele>133.0</ele><time>2026-04-03T14:40:44Z</time></trkpt><trkpt lat="38.82977087803522" lon="-9.35268906120289"><ele>133.0</ele><time>2026-04-03T14:40:46Z</time></trkpt><trkpt lat="38.829899123018954" lon="-9.352714586539046"><ele>133.0</ele><time>2026-04-03T14:40:48Z</time></trkpt><trkpt lat="38.82997204176788" lon="-9.352731668241237"><ele>133.0</ele><time>2026-04-03T14:40:49Z</time></trkpt><trkpt lat="38.83006026034577" lon="-9.352752574510491"><ele>133.0</ele><time>2026-04-03T14:40:50Z</time></trkpt><trkpt lat="38.830136980197175" lon="-9.352777053277276"><ele>133.20000000000002</ele><time>2026-04-03T14:40:51Z</time></trkpt><trkpt lat="38.830227706101326" lon="-9.352806771932011"><ele>133.4</ele><time>2026-04-03T14:40:52Z</time></trkpt><trkpt lat="38.83034003826194" lon="-9.3527248777066"><ele>133.60000000000002</ele><time>2026-04-03T14:40:54Z</time></trkpt><trkpt lat="38.83035898322629" lon="-9.352620615340948"><ele>133.8</ele><time>2026-04-03T14:40:55Z</time></trkpt><trkpt lat="38.830359954795384" lon="-9.352498587843508"><ele>134.0</ele><time>2026-04-03T14:40:56Z</time></trkpt><trkpt lat="38.830385320992875" lon="-9.352361269062177"><ele>134.0</ele><time>2026-04-03T14:40:57Z</time></trkpt><trkpt lat="38.83040668322557" lon="-9.352237701693646"><ele>134.0</ele><time>2026-04-03T14:40:58Z</time></trkpt><trkpt lat="38.83041820472361" lon="-9.352155383079545"><ele>134.0</ele><time>2026-04-03T14:40:59Z</time></trkpt><trkpt lat="38.83047654262727" lon="-9.352054047001086"><ele>134.0</ele><time>2026-04-03T14:41:01Z</time></trkpt><trkpt lat="38.83056745061175" lon="-9.352037062571725"><ele>134.0</ele><time>2026-04-03T14:41:02Z</time></trkpt><trkpt lat="38.83068094963287" lon="-9.35208280109509"><ele>134.25</ele><time>2026-04-03T14:41:03Z</time></trkpt><trkpt lat="38.83080103749042" lon="-9.352114677576038"><ele>134.5</ele><time>2026-04-03T14:41:04Z</time></trkpt><trkpt lat="38.83093539748381" lon="-9.352166862139315"><ele>134.75</ele><time>2026-04-03T14:41:05Z</time></trkpt><trkpt lat="38.831068230179525" lon="-9.352174774585968"><ele>135.0</ele><time>2026-04-03T14:41:06Z</time></trkpt><trkpt lat="38.83119090509677" lon="-9.352194864522456"><ele>135.0</ele><time>2026-04-03T14:41:07Z</time></trkpt><trkpt lat="38.83129170936948" lon="-9.352202136299356"><ele>135.0</ele><time>2026-04-03T14:41:08Z</time></trkpt><trkpt lat="38.83139414083268" lon="-9.352196149445065"><ele>135.0</ele><time>2026-04-03T14:41:09Z</time></trkpt><trkpt lat="38.831482001534944" lon="-9.352151205055529"><ele>135.0</ele><time>2026-04-03T14:41:10Z</time></trkpt><trkpt lat="38.83157470727884" lon="-9.352097430807818"><ele>135.0</ele><time>2026-04-03T14:41:11Z</time></trkpt><trkpt lat="38.831645642560666" lon="-9.351994843374662"><ele>135.0</ele><time>2026-04-03T14:41:12Z</time></trkpt><trkpt lat="38.83170994569398" lon="-9.351901676806813"><ele>135.0</ele><time>2026-04-03T14:41:13Z</time></trkpt><trkpt lat="38.83178579458724" lon="-9.351820285424463"><ele>135.0</ele><time>2026-04-03T14:41:14Z</time></trkpt><trkpt lat="38.83185123011375" lon="-9.351739678771343"><ele>135.0</ele><time>2026-04-03T14:41:15Z</time></trkpt><trkpt lat="38.83192010560109" lon="-9.351673360767453"><ele>135.0</ele><time>2026-04-03T14:41:16Z</time></trkpt><trkpt lat="38.83199352011446" lon="-9.351617518519173"><ele>134.25</ele><time>2026-04-03T14:41:17Z</time></trkpt><trkpt lat="38.83215363099305" lon="-9.351701319306727"><ele>133.5</ele><time>2026-04-03T14:41:18Z</time></trkpt><trkpt lat="38.83228863330076" lon="-9.35170049484823"><ele>132.75</ele><time>2026-04-03T14:41:19Z</time></trkpt><trkpt lat="38.832391392840236" lon="-9.3516947963823"><ele>132.0</ele><time>2026-04-03T14:41:20Z</time></trkpt><trkpt lat="38.832483062901964" lon="-9.351682899207077"><ele>132.0</ele><time>2026-04-03T14:41:21Z</time></trkpt><trkpt lat="38.83257230356538" lon="-9.351667393134548"><ele>132.0</ele><time>2026-04-03T14:41:22Z</time></trkpt><trkpt lat="38.83266371871184" lon="-9.351645652127809"><ele>132.0</ele><time>2026-04-03T14:41:23Z</time></trkpt><trkpt lat="38.83274392334549" lon="-9.351637398734375"><ele>132.0</ele><time>2026-04-03T14:41:24Z</time></trkpt><trkpt lat="38.83280776301436" lon="-9.351607471402431"><ele>132.0</ele><time>2026-04-03T14:41:25Z</time></trkpt><trkpt lat="38.832894120341635" lon="-9.351578176185741"><ele>132.0</ele><time>2026-04-03T14:41:27Z</time></trkpt><trkpt lat="38.83288167698637" lon="-9.351448017909338"><ele>131.2</ele><time>2026-04-03T14:41:29Z</time></trkpt><trkpt lat="38.83290668866592" lon="-9.351319503089238"><ele>130.39999999999998</ele><time>2026-04-03T14:41:31Z</time></trkpt><trkpt lat="38.83297800906514" lon="-9.35119691531811"><ele>129.60000000000002</ele><time>2026-04-03T14:41:33Z</time></trkpt><trkpt lat="38.83309604661402" lon="-9.351142427887927"><ele>128.8</ele><time>2026-04-03T14:41:35Z</time></trkpt><trkpt lat="38.83310313429245" lon="-9.351025997633396"><ele>128.0</ele><time>2026-04-03T14:41:37Z</time></trkpt><trkpt lat="38.8330776165085" lon="-9.350911406176184"><ele>128.0</ele><time>2026-04-03T14:41:38Z</time></trkpt><trkpt lat="38.83311011032531" lon="-9.350801703642233"><ele>128.0</ele><time>2026-04-03T14:41:40Z</time></trkpt><trkpt lat="38.83292247089665" lon="-9.350616582412044"><ele>128.0</ele><time>2026-04-03T14:41:41Z</time></trkpt><trkpt lat="38.832884775810115" lon="-9.350550939685997"><ele>128.0</ele><time>2026-04-03T14:41:42Z</time></trkpt><trkpt lat="38.83294564200412" lon="-9.350707490625387"><ele>128.0</ele><time>2026-04-03T14:41:54Z</time></trkpt><trkpt lat="38.83297501517619" lon="-9.350798598707188"><ele>128.0</ele><time>2026-04-03T14:41:55Z</time></trkpt><trkpt lat="38.833008765900246" lon="-9.35091356003113"><ele>128.0</ele><time>2026-04-03T14:41:56Z</time></trkpt><trkpt lat="38.83305172071015" lon="-9.351022137143545"><ele>128.0</ele><time>2026-04-03T14:41:57Z</time></trkpt><trkpt lat="38.83311212922885" lon="-9.351125045721918"><ele>128.0</ele><time>2026-04-03T14:41:58Z</time></trkpt><trkpt lat="38.83317453226398" lon="-9.35122500560928"><ele>128.0</ele><time>2026-04-03T14:41:59Z</time></trkpt><trkpt lat="38.833274726434134" lon="-9.351260419180583"><ele>128.0</ele><time>2026-04-03T14:42:00Z</time></trkpt><trkpt lat="38.833365221294756" lon="-9.351317730857714"><ele>128.0</ele><time>2026-04-03T14:42:01Z</time></trkpt><trkpt lat="38.83343897467522" lon="-9.351390792612525"><ele>128.0</ele><time>2026-04-03T14:42:02Z</time></trkpt><trkpt lat="38.833514288621885" lon="-9.351485215943434"><ele>128.0</ele><time>2026-04-03T14:42:03Z</time></trkpt><trkpt lat="38.83356891113521" lon="-9.351559703799973"><ele>128.6</ele><time>2026-04-03T14:42:04Z</time></trkpt><trkpt lat="38.83361281534575" lon="-9.351636431766568"><ele>129.20000000000002</ele><time>2026-04-03T14:42:05Z</time></trkpt><trkpt lat="38.833678956083425" lon="-9.351693327768839"><ele>129.8</ele><time>2026-04-03T14:42:06Z</time></trkpt><trkpt lat="38.833781911845534" lon="-9.351649573761213"><ele>130.4</ele><time>2026-04-03T14:42:07Z</time></trkpt><trkpt lat="38.83389077828222" lon="-9.35166885600188"><ele>131.0</ele><time>2026-04-03T14:42:08Z</time></trkpt><trkpt lat="38.83400780397697" lon="-9.351689305229181"><ele>131.0</ele><time>2026-04-03T14:42:09Z</time></trkpt><trkpt lat="38.83410044319322" lon="-9.351698097304409"><ele>131.0</ele><time>2026-04-03T14:42:10Z</time></trkpt><trkpt lat="38.834189122635394" lon="-9.351708633034994"><ele>131.0</ele><time>2026-04-03T14:42:11Z</time></trkpt><trkpt lat="38.83427864184014" lon="-9.351693156070038"><ele>131.0</ele><time>2026-04-03T14:42:12Z</time></trkpt><trkpt lat="38.83436006293338" lon="-9.351686471455393"><ele>131.0</ele><time>2026-04-03T14:42:13Z</time></trkpt><trkpt lat="38.83443063514968" lon="-9.351659375572618"><ele>131.0</ele><time>2026-04-03T14:42:14Z</time></trkpt><trkpt lat="38.83450283086687" lon="-9.35162856030849"><ele>130.6</ele><time>2026-04-03T14:42:15Z</time></trkpt><trkpt lat="38.834570988226766" lon="-9.351575158125842"><ele>130.2</ele><time>2026-04-03T14:42:16Z</time></trkpt><trkpt lat="38.83464187095803" lon="-9.351501004449728"><ele>129.8</ele><time>2026-04-03T14:42:17Z</time></trkpt><trkpt lat="38.8346911203667" lon="-9.351399484685954"><ele>129.4</ele><time>2026-04-03T14:42:18Z</time></trkpt><trkpt lat="38.83472543792602" lon="-9.351276779243866"><ele>129.0</ele><time>2026-04-03T14:42:19Z</time></trkpt><trkpt lat="38.834766100631406" lon="-9.351143275585311"><ele>128.6</ele><time>2026-04-03T14:42:20Z</time></trkpt><trkpt lat="38.83478531772433" lon="-9.351019471984515"><ele>128.2</ele><time>2026-04-03T14:42:21Z</time></trkpt><trkpt lat="38.83480892160636" lon="-9.35091669081676"><ele>127.79999999999998</ele><time>2026-04-03T14:42:22Z</time></trkpt><trkpt lat="38.83486163030626" lon="-9.350832904317704"><ele>127.39999999999999</ele><time>2026-04-03T14:42:23Z</time></trkpt><trkpt lat="38.83496730423885" lon="-9.350829264076813"><ele>127.0</ele><time>2026-04-03T14:42:24Z</time></trkpt><trkpt lat="38.83507819232318" lon="-9.350791371701048"><ele>127.25</ele><time>2026-04-03T14:42:25Z</time></trkpt><trkpt lat="38.83520579377213" lon="-9.350770517264756"><ele>127.5</ele><time>2026-04-03T14:42:26Z</time></trkpt><trkpt lat="38.83534073058573" lon="-9.3507460883789"><ele>127.75</ele><time>2026-04-03T14:42:27Z</time></trkpt><trkpt lat="38.83548008271918" lon="-9.350690947191342"><ele>128.0</ele><time>2026-04-03T14:42:28Z</time></trkpt><trkpt lat="38.835609861834804" lon="-9.350653695718576"><ele>128.0</ele><time>2026-04-03T14:42:29Z</time></trkpt><trkpt lat="38.8357431605822" lon="-9.350615183926122"><ele>128.0</ele><time>2026-04-03T14:42:30Z</time></trkpt><trkpt lat="38.83587376265878" lon="-9.35059069122532"><ele>128.0</ele><time>2026-04-03T14:42:31Z</time></trkpt><trkpt lat="38.836001225888104" lon="-9.350552236047644"><ele>128.0</ele><time>2026-04-03T14:42:32Z</time></trkpt><trkpt lat="38.83614033565098" lon="-9.35052527151559"><ele>128.0</ele><time>2026-04-03T14:42:33Z</time></trkpt><trkpt lat="38.83626618260638" lon="-9.350491247190389"><ele>128.0</ele><time>2026-04-03T14:42:34Z</time></trkpt><trkpt lat="38.83637380229082" lon="-9.350480130918273"><ele>128.0</ele><time>2026-04-03T14:42:35Z</time></trkpt><trkpt lat="38.83650106431236" lon="-9.350492529460759"><ele>128.0</ele><time>2026-04-03T14:42:36Z</time></trkpt><trkpt lat="38.83663795406761" lon="-9.350530195960834"><ele>128.0</ele><time>2026-04-03T14:42:37Z</time></trkpt><trkpt lat="38.836750917916305" lon="-9.350567261892479"><ele>128.0</ele><time>2026-04-03T14:42:38Z</time></trkpt><trkpt lat="38.83685252928789" lon="-9.350629425717422"><ele>128.0</ele><time>2026-04-03T14:42:39Z</time></trkpt><trkpt lat="38.83695734406505" lon="-9.35069234876681"><ele>128.0</ele><time>2026-04-03T14:42:40Z</time></trkpt><trkpt lat="38.83706835788337" lon="-9.35076191393177"><ele>128.0</ele><time>2026-04-03T14:42:41Z</time></trkpt><trkpt lat="38.83717658330717" lon="-9.350824285168487"><ele>128.0</ele><time>2026-04-03T14:42:42Z</time></trkpt><trkpt lat="38.83726151646887" lon="-9.350874293712065"><ele>128.0</ele><time>2026-04-03T14:42:43Z</time></trkpt><trkpt lat="38.83731721011269" lon="-9.350941820028106"><ele>128.0</ele><time>2026-04-03T14:42:44Z</time></trkpt><trkpt lat="38.837328617414556" lon="-9.351059931125405"><ele>128.0</ele><time>2026-04-03T14:42:45Z</time></trkpt><trkpt lat="38.83734544794518" lon="-9.35120438946877"><ele>128.0</ele><time>2026-04-03T14:42:46Z</time></trkpt><trkpt lat="38.83737656707662" lon="-9.351345505095065"><ele>128.0</ele><time>2026-04-03T14:42:47Z</time></trkpt><trkpt lat="38.837428912782784" lon="-9.351490655749567"><ele>128.0</ele><time>2026-04-03T14:42:48Z</time></trkpt><trkpt lat="38.83746686395773" lon="-9.351651673367817"><ele>128.0</ele><time>2026-04-03T14:42:49Z</time></trkpt><trkpt lat="38.837508446457306" lon="-9.351803997418372"><ele>127.99999999999999</ele><time>2026-04-03T14:42:50Z</time></trkpt><trkpt lat="38.837556824638334" lon="-9.351921313669596"><ele>128.0</ele><time>2026-04-03T14:42:51Z</time></trkpt><trkpt lat="38.83761409518368" lon="-9.352012548547128"><ele>128.0</ele><time>2026-04-03T14:42:52Z</time></trkpt><trkpt lat="38.8376744782835" lon="-9.352105741855086"><ele>128.0</ele><time>2026-04-03T14:42:53Z</time></trkpt><trkpt lat="38.83772694427241" lon="-9.352186228675453"><ele>127.99999999999999</ele><time>2026-04-03T14:42:54Z</time></trkpt><trkpt lat="38.83776946397826" lon="-9.352252795412047"><ele>128.0</ele><time>2026-04-03T14:42:55Z</time></trkpt><trkpt lat="38.83781090255019" lon="-9.35234433040736"><ele>127.66666666666666</ele><time>2026-04-03T14:42:57Z</time></trkpt><trkpt lat="38.8376421746152" lon="-9.352531337573318"><ele>127.33333333333334</ele><time>2026-04-03T14:42:58Z</time></trkpt><trkpt lat="38.83755289570212" lon="-9.352630427141"><ele>127.0</ele><time>2026-04-03T14:42:59Z</time></trkpt><trkpt lat="38.83745106241016" lon="-9.352745235778396"><ele>127.0</ele><time>2026-04-03T14:43:00Z</time></trkpt><trkpt lat="38.83734510387366" lon="-9.35286844754818"><ele>127.0</ele><time>2026-04-03T14:43:01Z</time></trkpt><trkpt lat="38.83724095707484" lon="-9.353004563133533"><ele>127.0</ele><time>2026-04-03T14:43:02Z</time></trkpt><trkpt lat="38.83712094319271" lon="-9.353154150709768"><ele>127.0</ele><time>2026-04-03T14:43:03Z</time></trkpt><trkpt lat="38.83699109258735" lon="-9.35331807972094"><ele>127.0</ele><time>2026-04-03T14:43:04Z</time></trkpt><trkpt lat="38.83685132720969" lon="-9.353497506387217"><ele>127.0</ele><time>2026-04-03T14:43:05Z</time></trkpt><trkpt lat="38.83670244592598" lon="-9.353685269305556"><ele>127.33333333333334</ele><time>2026-04-03T14:43:06Z</time></trkpt><trkpt lat="38.83655178589163" lon="-9.353873966451218"><ele>127.66666666666666</ele><time>2026-04-03T14:43:07Z</time></trkpt><trkpt lat="38.83641783824276" lon="-9.354053676194647"><ele>128.0</ele><time>2026-04-03T14:43:08Z</time></trkpt><trkpt lat="38.83629266101665" lon="-9.354211117532284"><ele>128.0</ele><time>2026-04-03T14:43:09Z</time></trkpt><trkpt lat="38.83617071853793" lon="-9.354371593106144"><ele>128.0</ele><time>2026-04-03T14:43:10Z</time></trkpt><trkpt lat="38.83604999670635" lon="-9.354527573938215"><ele>128.0</ele><time>2026-04-03T14:43:11Z</time></trkpt><trkpt lat="38.835926502786066" lon="-9.35468092655134"><ele>129.33333333333331</ele><time>2026-04-03T14:43:12Z</time></trkpt><trkpt lat="38.83581062012507" lon="-9.354828600640694"><ele>130.66666666666666</ele><time>2026-04-03T14:43:13Z</time></trkpt><trkpt lat="38.835698835144484" lon="-9.354967268223605"><ele>132.0</ele><time>2026-04-03T14:43:14Z</time></trkpt><trkpt lat="38.83560010247742" lon="-9.355102546114137"><ele>132.0</ele><time>2026-04-03T14:43:15Z</time></trkpt><trkpt lat="38.835518719275406" lon="-9.355214298410866"><ele>132.0</ele><time>2026-04-03T14:43:16Z</time></trkpt><trkpt lat="38.83544618744403" lon="-9.355333376714706"><ele>132.0</ele><time>2026-04-03T14:43:17Z</time></trkpt><trkpt lat="38.835375205255346" lon="-9.35544189727525"><ele>132.0</ele><time>2026-04-03T14:43:18Z</time></trkpt><trkpt lat="38.83532619527464" lon="-9.35556853153316"><ele>132.0</ele><time>2026-04-03T14:43:19Z</time></trkpt><trkpt lat="38.835283925349515" lon="-9.355675327675106"><ele>132.0</ele><time>2026-04-03T14:43:20Z</time></trkpt><trkpt lat="38.83525490114874" lon="-9.35577044809324"><ele>132.0</ele><time>2026-04-03T14:43:21Z</time></trkpt><trkpt lat="38.835221270317156" lon="-9.355863732069327"><ele>132.0</ele><time>2026-04-03T14:43:22Z</time></trkpt><trkpt lat="38.83525364150914" lon="-9.355967456465851"><ele>132.0</ele><time>2026-04-03T14:43:23Z</time></trkpt><trkpt lat="38.83532063559146" lon="-9.356035352543827"><ele>132.0</ele><time>2026-04-03T14:43:24Z</time></trkpt><trkpt lat="38.83542634248127" lon="-9.356042512728072"><ele>132.0</ele><time>2026-04-03T14:43:25Z</time></trkpt><trkpt lat="38.83551985036781" lon="-9.355967135971992"><ele>132.0</ele><time>2026-04-03T14:43:26Z</time></trkpt><trkpt lat="38.83566450301275" lon="-9.355936236860726"><ele>132.0</ele><time>2026-04-03T14:43:27Z</time></trkpt><trkpt lat="38.83581391851311" lon="-9.35590880333258"><ele>132.0</ele><time>2026-04-03T14:43:28Z</time></trkpt><trkpt lat="38.83593920727348" lon="-9.355885295756378"><ele>132.16666666666666</ele><time>2026-04-03T14:43:29Z</time></trkpt><trkpt lat="38.8360282699772" lon="-9.355849237878648"><ele>132.33333333333334</ele><time>2026-04-03T14:43:30Z</time></trkpt><trkpt lat="38.83606348102122" lon="-9.355779996830629"><ele>132.5</ele><time>2026-04-03T14:43:31Z</time></trkpt><trkpt lat="38.83601298817382" lon="-9.355674775575034"><ele>132.66666666666669</ele><time>2026-04-03T14:43:32Z</time></trkpt><trkpt lat="38.836045386925974" lon="-9.355590940379537"><ele>132.83333333333334</ele><time>2026-04-03T14:43:34Z</time></trkpt><trkpt lat="38.836070619700244" lon="-9.355496257800409"><ele>133.0</ele><time>2026-04-03T14:43:36Z</time></trkpt><trkpt lat="38.836085237817954" lon="-9.355588935340739"><ele>133.0</ele><time>2026-04-03T14:44:37Z</time></trkpt><trkpt lat="38.83604257563919" lon="-9.355521207569842"><ele>133.0</ele><time>2026-04-03T14:44:47Z</time></trkpt><trkpt lat="38.8360577164909" lon="-9.35560831182309"><ele>133.0</ele><time>2026-04-03T14:45:57Z</time></trkpt><trkpt lat="38.836044391533406" lon="-9.355524743814737"><ele>133.0</ele><time>2026-04-03T14:46:24Z</time></trkpt><trkpt lat="38.836065230023074" lon="-9.35560193914637"><ele>133.0</ele><time>2026-04-03T14:46:38Z</time></trkpt><trkpt lat="38.8360229936968" lon="-9.355552337729689"><ele>133.0</ele><time>2026-04-03T14:53:02Z</time></trkpt><trkpt lat="38.836067470150624" lon="-9.35564408010837"><ele>133.0</ele><time>2026-04-03T14:55:55.999Z</time></trkpt><trkpt lat="38.836027080385435" lon="-9.355558867907574"><ele>133.0</ele><time>2026-04-03T14:56:24.999Z</time></trkpt><trkpt lat="38.83612328596628" lon="-9.355581540126117"><ele>133.0</ele><time>2026-04-03T15:01:08Z</time></trkpt><trkpt lat="38.83618642822244" lon="-9.35554532347307"><ele>133.0</ele><time>2026-04-03T15:01:41Z</time></trkpt><trkpt lat="38.83617687051173" lon="-9.355456502978383"><ele>133.0</ele><time>2026-04-03T15:02:07Z</time></trkpt><trkpt lat="38.83623622999033" lon="-9.355524433177399"><ele>133.0</ele><time>2026-04-03T15:03:26Z</time></trkpt><trkpt lat="38.83616913062474" lon="-9.355573237561712"><ele>133.0</ele><time>2026-04-03T15:04:12Z</time></trkpt><trkpt lat="38.8361165742315" lon="-9.355617788020776"><ele>133.0</ele><time>2026-04-03T15:04:15Z</time></trkpt><trkpt lat="38.836184745881944" lon="-9.355586605775864"><ele>133.0</ele><time>2026-04-03T15:04:36.999Z</time></trkpt><trkpt lat="38.836241153917754" lon="-9.355637857704476"><ele>133.0</ele><time>2026-04-03T15:04:39.999Z</time></trkpt><trkpt lat="38.83620739738068" lon="-9.355560347604259"><ele>133.0</ele><time>2026-04-03T15:05:09.001Z</time></trkpt><trkpt lat="38.836132234782646" lon="-9.355584546456166"><ele>133.0</ele><time>2026-04-03T15:06:03.001Z</time></trkpt><trkpt lat="38.836115393231424" lon="-9.35566369862602"><ele>133.0</ele><time>2026-04-03T15:06:08.001Z</time></trkpt><trkpt lat="38.8360929632891" lon="-9.355739779708943"><ele>133.0</ele><time>2026-04-03T15:06:13.001Z</time></trkpt><trkpt lat="38.83612708015075" lon="-9.3556571811119"><ele>133.0</ele><time>2026-04-03T15:06:27Z</time></trkpt><trkpt lat="38.83615489802739" lon="-9.355564004533576"><ele>133.0</ele><time>2026-04-03T15:06:31Z</time></trkpt><trkpt lat="38.83614372724012" lon="-9.355646885602626"><ele>133.0</ele><time>2026-04-03T15:06:50.001Z</time></trkpt><trkpt lat="38.836115361349684" lon="-9.355727799024013"><ele>133.0</ele><time>2026-04-03T15:06:55.001Z</time></trkpt><trkpt lat="38.83608081004302" lon="-9.355800277146733"><ele>133.0</ele><time>2026-04-03T15:07:01.001Z</time></trkpt><trkpt lat="38.836107645746395" lon="-9.355713243970316"><ele>133.0</ele><time>2026-04-03T15:07:06.001Z</time></trkpt><trkpt lat="38.83611422955773" lon="-9.355631503927482"><ele>133.0</ele><time>2026-04-03T15:07:08.001Z</time></trkpt><trkpt lat="38.83616329387176" lon="-9.3555544604052"><ele>133.0</ele><time>2026-04-03T15:07:11.001Z</time></trkpt><trkpt lat="38.83621485886444" lon="-9.355499003460208"><ele>133.0</ele><time>2026-04-03T15:07:14.001Z</time></trkpt><trkpt lat="38.836158623488025" lon="-9.355536294595286"><ele>133.0</ele><time>2026-04-03T15:07:29.001Z</time></trkpt><trkpt lat="38.836092047621065" lon="-9.355521980540573"><ele>133.0</ele><time>2026-04-03T15:07:34.001Z</time></trkpt><trkpt lat="38.83615414430902" lon="-9.355581377388921"><ele>133.0</ele><time>2026-04-03T15:07:47.001Z</time></trkpt><trkpt lat="38.836220619737006" lon="-9.355525699963238"><ele>133.0</ele><time>2026-04-03T15:07:52.001Z</time></trkpt><trkpt lat="38.83625531077263" lon="-9.355602245736934"><ele>133.0</ele><time>2026-04-03T15:09:46.001Z</time></trkpt><trkpt lat="38.83620562575724" lon="-9.355683812425415"><ele>133.0</ele><time>2026-04-03T15:09:48.001Z</time></trkpt><trkpt lat="38.83611709470043" lon="-9.355685256471325"><ele>133.0</ele><time>2026-04-03T15:09:51.001Z</time></trkpt><trkpt lat="38.83605040321442" lon="-9.355607242822071"><ele>133.0</ele><time>2026-04-03T15:09:54.001Z</time></trkpt><trkpt lat="38.836056509306154" lon="-9.35550439955459"><ele>133.0</ele><time>2026-04-03T15:09:56.001Z</time></trkpt><trkpt lat="38.83609370013027" lon="-9.355423031334245"><ele>133.0</ele><time>2026-04-03T15:09:59.001Z</time></trkpt><trkpt lat="38.83613974808713" lon="-9.35532337205145"><ele>133.0</ele><time>2026-04-03T15:10:02.001Z</time></trkpt><trkpt lat="38.836208445912995" lon="-9.355325381457071"><ele>133.0</ele><time>2026-04-03T15:10:07.001Z</time></trkpt><trkpt lat="38.8362284510673" lon="-9.355431342000756"><ele>133.0</ele><time>2026-04-03T15:10:10.001Z</time></trkpt><trkpt lat="38.83620821122782" lon="-9.355510672165183"><ele>133.0</ele><time>2026-04-03T15:10:12.001Z</time></trkpt><trkpt lat="38.83616879668899" lon="-9.35559791324854"><ele>133.0</ele><time>2026-04-03T15:10:15.001Z</time></trkpt><trkpt lat="38.83611801565621" lon="-9.355688568770123"><ele>133.0</ele><time>2026-04-03T15:10:18.001Z</time></trkpt><trkpt lat="38.83609388945869" lon="-9.355778309577246"><ele>133.0</ele><time>2026-04-03T15:10:21.001Z</time></trkpt><trkpt lat="38.83616357132758" lon="-9.355831745879616"><ele>133.0</ele><time>2026-04-03T15:10:24.001Z</time></trkpt><trkpt lat="38.83625423492427" lon="-9.355797256929018"><ele>133.0</ele><time>2026-04-03T15:10:26.001Z</time></trkpt><trkpt lat="38.836347548264754" lon="-9.355769970480479"><ele>133.0</ele><time>2026-04-03T15:10:28.001Z</time></trkpt><trkpt lat="38.83642671175514" lon="-9.355740816721653"><ele>133.0</ele><time>2026-04-03T15:10:30.001Z</time></trkpt><trkpt lat="38.83651215874604" lon="-9.355713218016806"><ele>133.0</ele><time>2026-04-03T15:10:33.001Z</time></trkpt><trkpt lat="38.83661004124335" lon="-9.355686570059936"><ele>133.0</ele><time>2026-04-03T15:10:35.001Z</time></trkpt><trkpt lat="38.83671061446336" lon="-9.355661924771884"><ele>133.0</ele><time>2026-04-03T15:10:37.001Z</time></trkpt><trkpt lat="38.83679713555601" lon="-9.355637778963503"><ele>133.0</ele><time>2026-04-03T15:10:39.001Z</time></trkpt><trkpt lat="38.83686673240659" lon="-9.355610078250523"><ele>133.0</ele><time>2026-04-03T15:10:41.001Z</time></trkpt><trkpt lat="38.836940063118654" lon="-9.355575475348061"><ele>133.0</ele><time>2026-04-03T15:10:43.001Z</time></trkpt><trkpt lat="38.837008685913545" lon="-9.355542811493931"><ele>133.0</ele><time>2026-04-03T15:10:45.001Z</time></trkpt><trkpt lat="38.83708692292593" lon="-9.355528385926618"><ele>132.5</ele><time>2026-04-03T15:10:47.001Z</time></trkpt><trkpt lat="38.83714903718167" lon="-9.355489763257324"><ele>132.0</ele><time>2026-04-03T15:10:51.001Z</time></trkpt><trkpt lat="38.83724753246913" lon="-9.355457854667117"><ele>131.5</ele><time>2026-04-03T15:11:26.001Z</time></trkpt><trkpt lat="38.837339967166905" lon="-9.355408250192069"><ele>131.0</ele><time>2026-04-03T15:11:28.001Z</time></trkpt><trkpt lat="38.83740589681571" lon="-9.355361715711442"><ele>130.5</ele><time>2026-04-03T15:11:30.001Z</time></trkpt><trkpt lat="38.837467888820804" lon="-9.355330842777438"><ele>130.0</ele><time>2026-04-03T15:11:32.001Z</time></trkpt><trkpt lat="38.83755289554793" lon="-9.355282009389455"><ele>130.0</ele><time>2026-04-03T15:11:35.001Z</time></trkpt><trkpt lat="38.83762839615805" lon="-9.355234603110222"><ele>130.0</ele><time>2026-04-03T15:11:37.001Z</time></trkpt><trkpt lat="38.837705940441985" lon="-9.355192506650134"><ele>130.0</ele><time>2026-04-03T15:11:39.001Z</time></trkpt><trkpt lat="38.83777947010238" lon="-9.3551324223335"><ele>130.0</ele><time>2026-04-03T15:11:41.001Z</time></trkpt><trkpt lat="38.83784907393596" lon="-9.355093575505423"><ele>130.0</ele><time>2026-04-03T15:11:43.001Z</time></trkpt><trkpt lat="38.8379152246177" lon="-9.355045729176437"><ele>130.0</ele><time>2026-04-03T15:11:45.001Z</time></trkpt><trkpt lat="38.83799150911937" lon="-9.354980695504619"><ele>129.6</ele><time>2026-04-03T15:11:47.001Z</time></trkpt><trkpt lat="38.83804790283108" lon="-9.354922026487055"><ele>129.2</ele><time>2026-04-03T15:11:49.001Z</time></trkpt><trkpt lat="38.838219589754395" lon="-9.354777735860226"><ele>128.8</ele><time>2026-04-03T15:12:40.001Z</time></trkpt><trkpt lat="38.838267755922416" lon="-9.35472485946684"><ele>128.4</ele><time>2026-04-03T15:12:42.001Z</time></trkpt><trkpt lat="38.838325278024946" lon="-9.35469017144103"><ele>128.0</ele><time>2026-04-03T15:13:38.001Z</time></trkpt><trkpt lat="38.83840777530571" lon="-9.35464716682694"><ele>127.80000000000001</ele><time>2026-04-03T15:13:43.001Z</time></trkpt><trkpt lat="38.8384698659139" lon="-9.35461051610526"><ele>127.60000000000001</ele><time>2026-04-03T15:13:44.001Z</time></trkpt><trkpt lat="38.83855799506246" lon="-9.354555725892073"><ele>127.39999999999999</ele><time>2026-04-03T15:13:45.001Z</time></trkpt><trkpt lat="38.83866089796803" lon="-9.354469776405809"><ele>127.19999999999999</ele><time>2026-04-03T15:13:46.001Z</time></trkpt><trkpt lat="38.83877981151497" lon="-9.35436458238572"><ele>127.0</ele><time>2026-04-03T15:13:47.001Z</time></trkpt><trkpt lat="38.83890765641873" lon="-9.354251276651691"><ele>127.0</ele><time>2026-04-03T15:13:48.001Z</time></trkpt><trkpt lat="38.83905541725352" lon="-9.354134496806846"><ele>127.0</ele><time>2026-04-03T15:13:49.001Z</time></trkpt><trkpt lat="38.83920542508396" lon="-9.35401470960327"><ele>127.0</ele><time>2026-04-03T15:13:50.001Z</time></trkpt><trkpt lat="38.83936186794332" lon="-9.353885856859085"><ele>125.0</ele><time>2026-04-03T15:13:51.001Z</time></trkpt><trkpt lat="38.83952789382963" lon="-9.353755312965173"><ele>123.0</ele><time>2026-04-03T15:13:52.001Z</time></trkpt><trkpt lat="38.839677292450276" lon="-9.35363442149782"><ele>121.0</ele><time>2026-04-03T15:13:53.001Z</time></trkpt><trkpt lat="38.839824960348665" lon="-9.353509470461645"><ele>121.0</ele><time>2026-04-03T15:13:54.001Z</time></trkpt><trkpt lat="38.83997714676923" lon="-9.353379831510242"><ele>121.0</ele><time>2026-04-03T15:13:55.001Z</time></trkpt><trkpt lat="38.84012762959985" lon="-9.353258315884034"><ele>121.0</ele><time>2026-04-03T15:13:56.001Z</time></trkpt><trkpt lat="38.840282380689985" lon="-9.353128988274669"><ele>123.66666666666667</ele><time>2026-04-03T15:13:57.001Z</time></trkpt><trkpt lat="38.84044215518487" lon="-9.352991172855365"><ele>126.33333333333334</ele><time>2026-04-03T15:13:58.001Z</time></trkpt><trkpt lat="38.84059844700605" lon="-9.35285095493459"><ele>129.0</ele><time>2026-04-03T15:13:59.001Z</time></trkpt><trkpt lat="38.8407306423134" lon="-9.35272482977001"><ele>129.0</ele><time>2026-04-03T15:14:00.001Z</time></trkpt><trkpt lat="38.84085308702542" lon="-9.352595894610316"><ele>129.0</ele><time>2026-04-03T15:14:01.001Z</time></trkpt><trkpt lat="38.84097567433864" lon="-9.352447113022677"><ele>129.0</ele><time>2026-04-03T15:14:02.001Z</time></trkpt><trkpt lat="38.84110309116568" lon="-9.352276815246476"><ele>129.66666666666666</ele><time>2026-04-03T15:14:03.001Z</time></trkpt><trkpt lat="38.84122864047597" lon="-9.352078733583864"><ele>130.33333333333331</ele><time>2026-04-03T15:14:04.001Z</time></trkpt><trkpt lat="38.84133588208486" lon="-9.351875771834152"><ele>131.0</ele><time>2026-04-03T15:14:05.001Z</time></trkpt><trkpt lat="38.84142509644489" lon="-9.351666032184733"><ele>131.0</ele><time>2026-04-03T15:14:06.001Z</time></trkpt><trkpt lat="38.84149036620663" lon="-9.35143726190858"><ele>131.0</ele><time>2026-04-03T15:14:07.001Z</time></trkpt><trkpt lat="38.84155222346592" lon="-9.351210038642005"><ele>131.0</ele><time>2026-04-03T15:14:08.001Z</time></trkpt><trkpt lat="38.84159895365371" lon="-9.350975243519699"><ele>132.0</ele><time>2026-04-03T15:14:09.001Z</time></trkpt><trkpt lat="38.841595311697105" lon="-9.350730461017406"><ele>133.0</ele><time>2026-04-03T15:14:10.001Z</time></trkpt><trkpt lat="38.84163003813737" lon="-9.350528148355954"><ele>134.0</ele><time>2026-04-03T15:14:11.001Z</time></trkpt><trkpt lat="38.841598360952474" lon="-9.350342748837413"><ele>134.33333333333331</ele><time>2026-04-03T15:14:12.001Z</time></trkpt><trkpt lat="38.84154962928708" lon="-9.350136917115874"><ele>134.66666666666666</ele><time>2026-04-03T15:14:13.001Z</time></trkpt><trkpt lat="38.84148551510473" lon="-9.349902644174941"><ele>135.0</ele><time>2026-04-03T15:14:14.001Z</time></trkpt><trkpt lat="38.84138209624316" lon="-9.34971740511171"><ele>134.66666666666666</ele><time>2026-04-03T15:14:15.001Z</time></trkpt><trkpt lat="38.84130128767325" lon="-9.349471668459543"><ele>134.33333333333331</ele><time>2026-04-03T15:14:16.001Z</time></trkpt><trkpt lat="38.84123782298701" lon="-9.349225696896394"><ele>134.0</ele><time>2026-04-03T15:14:17.001Z</time></trkpt><trkpt lat="38.84120072949371" lon="-9.348989287963937"><ele>134.66666666666666</ele><time>2026-04-03T15:14:18.001Z</time></trkpt><trkpt lat="38.84118672045879" lon="-9.348739233549615"><ele>135.33333333333334</ele><time>2026-04-03T15:14:19.001Z</time></trkpt><trkpt lat="38.84119056288437" lon="-9.34849210708569"><ele>136.0</ele><time>2026-04-03T15:14:20.001Z</time></trkpt><trkpt lat="38.84120225385223" lon="-9.348240659290644"><ele>136.33333333333334</ele><time>2026-04-03T15:14:21.001Z</time></trkpt><trkpt lat="38.84120108875394" lon="-9.347996542523973"><ele>136.66666666666666</ele><time>2026-04-03T15:14:22.001Z</time></trkpt><trkpt lat="38.84118148798152" lon="-9.347739941916663"><ele>137.0</ele><time>2026-04-03T15:14:23.001Z</time></trkpt><trkpt lat="38.84117640439464" lon="-9.347506232214638"><ele>137.0</ele><time>2026-04-03T15:14:24.001Z</time></trkpt><trkpt lat="38.84117171545937" lon="-9.347288130191581"><ele>137.0</ele><time>2026-04-03T15:14:25.001Z</time></trkpt><trkpt lat="38.841167139307686" lon="-9.347075274253234"><ele>137.0</ele><time>2026-04-03T15:14:26.001Z</time></trkpt><trkpt lat="38.84116204650143" lon="-9.346838386511221"><ele>138.0</ele><time>2026-04-03T15:14:27.001Z</time></trkpt><trkpt lat="38.84115630835512" lon="-9.346571481344379"><ele>139.0</ele><time>2026-04-03T15:14:28.001Z</time></trkpt><trkpt lat="38.84115047851105" lon="-9.346294333285135"><ele>140.0</ele><time>2026-04-03T15:14:29.001Z</time></trkpt><trkpt lat="38.841144592616835" lon="-9.346003500849871"><ele>140.5</ele><time>2026-04-03T15:14:30.001Z</time></trkpt><trkpt lat="38.84113865525208" lon="-9.345710547930011"><ele>141.0</ele><time>2026-04-03T15:14:31.001Z</time></trkpt><trkpt lat="38.841132395308115" lon="-9.345410484847687"><ele>141.0</ele><time>2026-04-03T15:14:32.001Z</time></trkpt><trkpt lat="38.84114220597011" lon="-9.345102675717214"><ele>141.0</ele><time>2026-04-03T15:14:33.001Z</time></trkpt><trkpt lat="38.84113377432401" lon="-9.344787653828268"><ele>142.0</ele><time>2026-04-03T15:14:34.001Z</time></trkpt><trkpt lat="38.84112563114292" lon="-9.344471075152068"><ele>143.0</ele><time>2026-04-03T15:14:35.001Z</time></trkpt><trkpt lat="38.84112195546241" lon="-9.344156991649147"><ele>143.5</ele><time>2026-04-03T15:14:36.001Z</time></trkpt><trkpt lat="38.84111752929455" lon="-9.343860975563766"><ele>144.0</ele><time>2026-04-03T15:14:37.001Z</time></trkpt><trkpt lat="38.841121926822524" lon="-9.343570637430037"><ele>144.0</ele><time>2026-04-03T15:14:38.001Z</time></trkpt><trkpt lat="38.841130274016336" lon="-9.343289324605758"><ele>144.0</ele><time>2026-04-03T15:14:39.001Z</time></trkpt><trkpt lat="38.84117227617476" lon="-9.343014533399446"><ele>144.0</ele><time>2026-04-03T15:14:40.001Z</time></trkpt><trkpt lat="38.84122606678724" lon="-9.342741070248813"><ele>144.0</ele><time>2026-04-03T15:14:41.001Z</time></trkpt><trkpt lat="38.841295446799386" lon="-9.342475384627074"><ele>144.0</ele><time>2026-04-03T15:14:42.001Z</time></trkpt><trkpt lat="38.84138055589345" lon="-9.342219091535618"><ele>144.0</ele><time>2026-04-03T15:14:43.001Z</time></trkpt><trkpt lat="38.84148933486563" lon="-9.341973852895668"><ele>143.66666666666666</ele><time>2026-04-03T15:14:44.001Z</time></trkpt><trkpt lat="38.84160814073645" lon="-9.341750020368034"><ele>143.33333333333331</ele><time>2026-04-03T15:14:45.001Z</time></trkpt><trkpt lat="38.84174926178414" lon="-9.341521669694574"><ele>143.0</ele><time>2026-04-03T15:14:46.001Z</time></trkpt><trkpt lat="38.84188758028005" lon="-9.341298406278018"><ele>143.0</ele><time>2026-04-03T15:14:47Z</time></trkpt><trkpt lat="38.84200538609261" lon="-9.341087297256431"><ele>143.0</ele><time>2026-04-03T15:14:48Z</time></trkpt><trkpt lat="38.84209736521023" lon="-9.340882938510832"><ele>143.0</ele><time>2026-04-03T15:14:49Z</time></trkpt><trkpt lat="38.84221933731675" lon="-9.340660503388035"><ele>141.0</ele><time>2026-04-03T15:14:50Z</time></trkpt><trkpt lat="38.842348014548115" lon="-9.340424568011603"><ele>139.0</ele><time>2026-04-03T15:14:51Z</time></trkpt><trkpt lat="38.842481988720365" lon="-9.340180470842641"><ele>139.0</ele><time>2026-04-03T15:14:52Z</time></trkpt><trkpt lat="38.84262973299806" lon="-9.33993876306363"><ele>139.0</ele><time>2026-04-03T15:14:53Z</time></trkpt><trkpt lat="38.84276409960987" lon="-9.339680479984628"><ele>138.5</ele><time>2026-04-03T15:14:54Z</time></trkpt><trkpt lat="38.84291449980802" lon="-9.339432586209103"><ele>138.0</ele><time>2026-04-03T15:14:55Z</time></trkpt><trkpt lat="38.84307321606738" lon="-9.339188428936314"><ele>138.0</ele><time>2026-04-03T15:14:56Z</time></trkpt><trkpt lat="38.84324515535137" lon="-9.338962261133247"><ele>138.0</ele><time>2026-04-03T15:14:57Z</time></trkpt><trkpt lat="38.843426319214714" lon="-9.338737183042818"><ele>136.5</ele><time>2026-04-03T15:14:58Z</time></trkpt><trkpt lat="38.84360401734653" lon="-9.338501345746492"><ele>135.0</ele><time>2026-04-03T15:14:59Z</time></trkpt><trkpt lat="38.843781781964914" lon="-9.33826783363816"><ele>135.5</ele><time>2026-04-03T15:15:00Z</time></trkpt><trkpt lat="38.84395992000599" lon="-9.338033696184393"><ele>136.0</ele><time>2026-04-03T15:15:01Z</time></trkpt><trkpt lat="38.84413868897946" lon="-9.337797053649966"><ele>136.0</ele><time>2026-04-03T15:15:02Z</time></trkpt><trkpt lat="38.84431148870734" lon="-9.33754556727684"><ele>136.0</ele><time>2026-04-03T15:15:03Z</time></trkpt><trkpt lat="38.84447053945328" lon="-9.337276956162325"><ele>134.5</ele><time>2026-04-03T15:15:04Z</time></trkpt><trkpt lat="38.84461972650211" lon="-9.336997855217817"><ele>133.0</ele><time>2026-04-03T15:15:05Z</time></trkpt><trkpt lat="38.844723077101705" lon="-9.336687834022618"><ele>133.0</ele><time>2026-04-03T15:15:06Z</time></trkpt><trkpt lat="38.84483828147077" lon="-9.336434535485674"><ele>133.0</ele><time>2026-04-03T15:15:07Z</time></trkpt><trkpt lat="38.8449449442861" lon="-9.336211751457546"><ele>133.0</ele><time>2026-04-03T15:15:08Z</time></trkpt><trkpt lat="38.84504373347351" lon="-9.336010945152733"><ele>132.66666666666669</ele><time>2026-04-03T15:15:09Z</time></trkpt><trkpt lat="38.845128911027984" lon="-9.33581282218903"><ele>132.33333333333334</ele><time>2026-04-03T15:15:10Z</time></trkpt><trkpt lat="38.84520824272072" lon="-9.335607519970033"><ele>132.0</ele><time>2026-04-03T15:15:11Z</time></trkpt><trkpt lat="38.84528879569797" lon="-9.335396588047551"><ele>131.33333333333334</ele><time>2026-04-03T15:15:12Z</time></trkpt><trkpt lat="38.84536687165711" lon="-9.335188279626518"><ele>130.66666666666669</ele><time>2026-04-03T15:15:13Z</time></trkpt><trkpt lat="38.845441714163144" lon="-9.334988382236196"><ele>130.0</ele><time>2026-04-03T15:15:14Z</time></trkpt><trkpt lat="38.84551197539657" lon="-9.334799665753978"><ele>130.0</ele><time>2026-04-03T15:15:15Z</time></trkpt><trkpt lat="38.84557304852643" lon="-9.334634854437548"><ele>130.0</ele><time>2026-04-03T15:15:16Z</time></trkpt><trkpt lat="38.84561985130775" lon="-9.334508549651634"><ele>130.0</ele><time>2026-04-03T15:15:17Z</time></trkpt><trkpt lat="38.84564932278413" lon="-9.334432175826358"><ele>130.0</ele><time>2026-04-03T15:15:18Z</time></trkpt><trkpt lat="38.845559798005084" lon="-9.334338676135681"><ele>130.0</ele><time>2026-04-03T15:15:20Z</time></trkpt><trkpt lat="38.84548306984183" lon="-9.334306372688424"><ele>130.0</ele><time>2026-04-03T15:15:21Z</time></trkpt><trkpt lat="38.84542516749988" lon="-9.334264145562736"><ele>130.0</ele><time>2026-04-03T15:15:22Z</time></trkpt><trkpt lat="38.845213253889376" lon="-9.334000560704661"><ele>130.0</ele><time>2026-04-03T15:15:23Z</time></trkpt><trkpt lat="38.845113401347646" lon="-9.333830372370075"><ele>129.75</ele><time>2026-04-03T15:15:24Z</time></trkpt><trkpt lat="38.84504717725806" lon="-9.333706860168968"><ele>129.5</ele><time>2026-04-03T15:15:25Z</time></trkpt><trkpt lat="38.844954629001585" lon="-9.33361071412049"><ele>129.25</ele><time>2026-04-03T15:15:26Z</time></trkpt><trkpt lat="38.84482633703747" lon="-9.33354126461975"><ele>129.0</ele><time>2026-04-03T15:15:27Z</time></trkpt><trkpt lat="38.84469196783154" lon="-9.333438786761675"><ele>129.0</ele><time>2026-04-03T15:15:28Z</time></trkpt><trkpt lat="38.84458349671746" lon="-9.333343037232176"><ele>129.0</ele><time>2026-04-03T15:15:29Z</time></trkpt><trkpt lat="38.844413407240175" lon="-9.333306509544187"><ele>129.0</ele><time>2026-04-03T15:15:30Z</time></trkpt><trkpt lat="38.844278721518286" lon="-9.333209305309063"><ele>129.66666666666666</ele><time>2026-04-03T15:15:31Z</time></trkpt><trkpt lat="38.8441032072102" lon="-9.333111914472736"><ele>130.33333333333331</ele><time>2026-04-03T15:15:32Z</time></trkpt><trkpt lat="38.84390771847606" lon="-9.333032891713756"><ele>131.0</ele><time>2026-04-03T15:15:33Z</time></trkpt><trkpt lat="38.843720326375156" lon="-9.333016385957757"><ele>132.33333333333331</ele><time>2026-04-03T15:15:34Z</time></trkpt><trkpt lat="38.843526942204115" lon="-9.333025029546777"><ele>133.66666666666666</ele><time>2026-04-03T15:15:35Z</time></trkpt><trkpt lat="38.84331897289315" lon="-9.333025960867408"><ele>135.0</ele><time>2026-04-03T15:15:36Z</time></trkpt><trkpt lat="38.843148804529704" lon="-9.332992875202574"><ele>135.66666666666666</ele><time>2026-04-03T15:15:37Z</time></trkpt><trkpt lat="38.84297488551366" lon="-9.332932686606775"><ele>136.33333333333331</ele><time>2026-04-03T15:15:38Z</time></trkpt><trkpt lat="38.84281738948923" lon="-9.332856068149058"><ele>137.0</ele><time>2026-04-03T15:15:39Z</time></trkpt><trkpt lat="38.842676191812316" lon="-9.33273316454789"><ele>137.0</ele><time>2026-04-03T15:15:40Z</time></trkpt><trkpt lat="38.8425752029266" lon="-9.332579242812598"><ele>137.0</ele><time>2026-04-03T15:15:41Z</time></trkpt><trkpt lat="38.842480097613844" lon="-9.332405204108523"><ele>137.0</ele><time>2026-04-03T15:15:42Z</time></trkpt><trkpt lat="38.842402904725255" lon="-9.332187897362317"><ele>136.66666666666666</ele><time>2026-04-03T15:15:43Z</time></trkpt><trkpt lat="38.84233398594238" lon="-9.331955194125026"><ele>136.33333333333334</ele><time>2026-04-03T15:15:44Z</time></trkpt><trkpt lat="38.842244927655734" lon="-9.331708385256993"><ele>136.0</ele><time>2026-04-03T15:15:45Z</time></trkpt><trkpt lat="38.8421760538488" lon="-9.331453254033622"><ele>137.0</ele><time>2026-04-03T15:15:46Z</time></trkpt><trkpt lat="38.84211822159338" lon="-9.331176082810606"><ele>138.0</ele><time>2026-04-03T15:15:47Z</time></trkpt><trkpt lat="38.84206852049566" lon="-9.330891369394465"><ele>138.0</ele><time>2026-04-03T15:15:48Z</time></trkpt><trkpt lat="38.84202484741971" lon="-9.330619013080941"><ele>138.0</ele><time>2026-04-03T15:15:49Z</time></trkpt><trkpt lat="38.84193788767394" lon="-9.330390665391231"><ele>138.0</ele><time>2026-04-03T15:15:50Z</time></trkpt><trkpt lat="38.84184759146912" lon="-9.330193150700008"><ele>137.33333333333334</ele><time>2026-04-03T15:15:51Z</time></trkpt><trkpt lat="38.84170237514507" lon="-9.330060981327845"><ele>136.66666666666669</ele><time>2026-04-03T15:15:52Z</time></trkpt><trkpt lat="38.84155383501069" lon="-9.329889889096647"><ele>136.0</ele><time>2026-04-03T15:15:53Z</time></trkpt><trkpt lat="38.841395008834226" lon="-9.329711092466233"><ele>136.0</ele><time>2026-04-03T15:15:54Z</time></trkpt><trkpt lat="38.841230311203475" lon="-9.329525685577112"><ele>136.0</ele><time>2026-04-03T15:15:55.001Z</time></trkpt><trkpt lat="38.8410538313153" lon="-9.329374823688934"><ele>136.0</ele><time>2026-04-03T15:15:56.001Z</time></trkpt><trkpt lat="38.8408483589184" lon="-9.329260272364525"><ele>137.5</ele><time>2026-04-03T15:15:57.001Z</time></trkpt><trkpt lat="38.84063435389438" lon="-9.329144787399514"><ele>139.0</ele><time>2026-04-03T15:15:58.001Z</time></trkpt><trkpt lat="38.840425252437086" lon="-9.329011188825993"><ele>138.5</ele><time>2026-04-03T15:15:59.001Z</time></trkpt><trkpt lat="38.84022679203635" lon="-9.328832022036499"><ele>138.0</ele><time>2026-04-03T15:16:00.001Z</time></trkpt><trkpt lat="38.84002371764501" lon="-9.328669592508858"><ele>138.0</ele><time>2026-04-03T15:16:01.001Z</time></trkpt><trkpt lat="38.83982508005742" lon="-9.32849606427079"><ele>138.0</ele><time>2026-04-03T15:16:02.001Z</time></trkpt><trkpt lat="38.83963674684288" lon="-9.32831709218269"><ele>138.0</ele><time>2026-04-03T15:16:03.001Z</time></trkpt><trkpt lat="38.83945737205805" lon="-9.328199644939472"><ele>138.0</ele><time>2026-04-03T15:16:04.001Z</time></trkpt><trkpt lat="38.83929733807853" lon="-9.328097114755916"><ele>138.0</ele><time>2026-04-03T15:16:05.001Z</time></trkpt><trkpt lat="38.83913468737097" lon="-9.328049979324552"><ele>139.33333333333334</ele><time>2026-04-03T15:16:06.001Z</time></trkpt><trkpt lat="38.838952498150746" lon="-9.32804502647675"><ele>140.66666666666669</ele><time>2026-04-03T15:16:07.001Z</time></trkpt><trkpt lat="38.838761916015336" lon="-9.328054463976935"><ele>142.0</ele><time>2026-04-03T15:16:08.001Z</time></trkpt><trkpt lat="38.83855531939255" lon="-9.328062500279838"><ele>142.0</ele><time>2026-04-03T15:16:09.001Z</time></trkpt><trkpt lat="38.83833996234485" lon="-9.32807055782312"><ele>142.0</ele><time>2026-04-03T15:16:10.001Z</time></trkpt><trkpt lat="38.83812417949291" lon="-9.328076459576598"><ele>142.0</ele><time>2026-04-03T15:16:11.001Z</time></trkpt><trkpt lat="38.83789726067304" lon="-9.328077807987839"><ele>142.0</ele><time>2026-04-03T15:16:12.001Z</time></trkpt><trkpt lat="38.83766729945988" lon="-9.32803400245526"><ele>142.0</ele><time>2026-04-03T15:16:13.001Z</time></trkpt><trkpt lat="38.83743791128573" lon="-9.327990436794867"><ele>142.5</ele><time>2026-04-03T15:16:14.001Z</time></trkpt><trkpt lat="38.83719813518492" lon="-9.327941511650886"><ele>143.0</ele><time>2026-04-03T15:16:15.001Z</time></trkpt><trkpt lat="38.83697312088296" lon="-9.32788028124543"><ele>143.0</ele><time>2026-04-03T15:16:16.001Z</time></trkpt><trkpt lat="38.836766956999845" lon="-9.327833591235825"><ele>143.0</ele><time>2026-04-03T15:16:17.001Z</time></trkpt><trkpt lat="38.83657409103251" lon="-9.327796678027234"><ele>143.0</ele><time>2026-04-03T15:16:18.001Z</time></trkpt><trkpt lat="38.83638359668861" lon="-9.327754249428885"><ele>143.0</ele><time>2026-04-03T15:16:19.001Z</time></trkpt><trkpt lat="38.836207328224795" lon="-9.327682594579379"><ele>143.0</ele><time>2026-04-03T15:16:20.001Z</time></trkpt><trkpt lat="38.8360416298941" lon="-9.327564251228496"><ele>143.0</ele><time>2026-04-03T15:16:21.001Z</time></trkpt><trkpt lat="38.835878499245716" lon="-9.327429646743013"><ele>142.66666666666666</ele><time>2026-04-03T15:16:22.001Z</time></trkpt><trkpt lat="38.83571539413297" lon="-9.32728412657981"><ele>142.33333333333334</ele><time>2026-04-03T15:16:23.001Z</time></trkpt><trkpt lat="38.83556266611941" lon="-9.327156158582035"><ele>142.0</ele><time>2026-04-03T15:16:24.001Z</time></trkpt><trkpt lat="38.83541449466929" lon="-9.327067229500175"><ele>141.0</ele><time>2026-04-03T15:16:25.001Z</time></trkpt><trkpt lat="38.83527595475493" lon="-9.327027363108368"><ele>140.0</ele><time>2026-04-03T15:16:26.001Z</time></trkpt><trkpt lat="38.835130414162684" lon="-9.327017349561014"><ele>139.0</ele><time>2026-04-03T15:16:27.001Z</time></trkpt><trkpt lat="38.83496665955017" lon="-9.327014387157227"><ele>138.66666666666669</ele><time>2026-04-03T15:16:28.001Z</time></trkpt><trkpt lat="38.83480237221179" lon="-9.327011992320138"><ele>138.33333333333334</ele><time>2026-04-03T15:16:29.001Z</time></trkpt><trkpt lat="38.83464031468984" lon="-9.327009957482934"><ele>138.0</ele><time>2026-04-03T15:16:30.001Z</time></trkpt><trkpt lat="38.834486318427274" lon="-9.327008023864957"><ele>138.0</ele><time>2026-04-03T15:16:31.001Z</time></trkpt><trkpt lat="38.83434278190583" lon="-9.327005823185017"><ele>138.0</ele><time>2026-04-03T15:16:32.001Z</time></trkpt><trkpt lat="38.83418719533552" lon="-9.326991518277943"><ele>138.0</ele><time>2026-04-03T15:16:33.001Z</time></trkpt><trkpt lat="38.834031631795206" lon="-9.326967143913553"><ele>137.33333333333334</ele><time>2026-04-03T15:16:34.001Z</time></trkpt><trkpt lat="38.83387861986473" lon="-9.326880966665618"><ele>136.66666666666669</ele><time>2026-04-03T15:16:35.001Z</time></trkpt><trkpt lat="38.8337035368679" lon="-9.326782552443774"><ele>136.0</ele><time>2026-04-03T15:16:36.001Z</time></trkpt><trkpt lat="38.83352518397731" lon="-9.326675934145877"><ele>136.66666666666669</ele><time>2026-04-03T15:16:37.001Z</time></trkpt><trkpt lat="38.83333806584235" lon="-9.326564199783991"><ele>137.33333333333334</ele><time>2026-04-03T15:16:38.001Z</time></trkpt><trkpt lat="38.83314881591901" lon="-9.32645042290268"><ele>138.0</ele><time>2026-04-03T15:16:39.001Z</time></trkpt><trkpt lat="38.832954796521435" lon="-9.326325488808187"><ele>138.33333333333334</ele><time>2026-04-03T15:16:40.001Z</time></trkpt><trkpt lat="38.83275652230711" lon="-9.326213121319023"><ele>138.66666666666669</ele><time>2026-04-03T15:16:41.001Z</time></trkpt><trkpt lat="38.83258525655116" lon="-9.32611118675248"><ele>139.0</ele><time>2026-04-03T15:16:42.001Z</time></trkpt><trkpt lat="38.83243636975727" lon="-9.326007277833693"><ele>139.25</ele><time>2026-04-03T15:16:43.001Z</time></trkpt><trkpt lat="38.832311201098236" lon="-9.325895333076485"><ele>139.5</ele><time>2026-04-03T15:16:44.001Z</time></trkpt><trkpt lat="38.83225129299662" lon="-9.325747673465234"><ele>139.75</ele><time>2026-04-03T15:16:45.001Z</time></trkpt><trkpt lat="38.832235484850685" lon="-9.325600971513499"><ele>140.0</ele><time>2026-04-03T15:16:46.001Z</time></trkpt><trkpt lat="38.83222912409801" lon="-9.325402890573123"><ele>140.66666666666666</ele><time>2026-04-03T15:16:47.001Z</time></trkpt><trkpt lat="38.83222479967065" lon="-9.325178730690324"><ele>141.33333333333334</ele><time>2026-04-03T15:16:48.001Z</time></trkpt><trkpt lat="38.83222645026933" lon="-9.324931303606531"><ele>142.0</ele><time>2026-04-03T15:16:49.001Z</time></trkpt><trkpt lat="38.83223250891598" lon="-9.324670055630158"><ele>143.0</ele><time>2026-04-03T15:16:50.001Z</time></trkpt><trkpt lat="38.83222593636845" lon="-9.32439795976435"><ele>144.0</ele><time>2026-04-03T15:16:51.001Z</time></trkpt><trkpt lat="38.83219063557974" lon="-9.324133129585489"><ele>145.0</ele><time>2026-04-03T15:16:52.001Z</time></trkpt><trkpt lat="38.83214519900115" lon="-9.323855845394354"><ele>146.33333333333334</ele><time>2026-04-03T15:16:53Z</time></trkpt><trkpt lat="38.83209613167825" lon="-9.3235728507136"><ele>147.66666666666666</ele><time>2026-04-03T15:16:54Z</time></trkpt><trkpt lat="38.83204972089107" lon="-9.323300637720191"><ele>149.0</ele><time>2026-04-03T15:16:55Z</time></trkpt><trkpt lat="38.83201085163068" lon="-9.32307290925009"><ele>149.25</ele><time>2026-04-03T15:16:56Z</time></trkpt><trkpt lat="38.8319739510024" lon="-9.32286987156873"><ele>149.5</ele><time>2026-04-03T15:16:57Z</time></trkpt><trkpt lat="38.83192586164586" lon="-9.3227086338239"><ele>149.75</ele><time>2026-04-03T15:16:58Z</time></trkpt><trkpt lat="38.83185093914482" lon="-9.322590436755485"><ele>150.0</ele><time>2026-04-03T15:16:59Z</time></trkpt><trkpt lat="38.83174772012598" lon="-9.322508662666582"><ele>150.0</ele><time>2026-04-03T15:17:00Z</time></trkpt><trkpt lat="38.83161299678805" lon="-9.322410866432616"><ele>150.0</ele><time>2026-04-03T15:17:01Z</time></trkpt><trkpt lat="38.83146219237332" lon="-9.322300175196299"><ele>150.0</ele><time>2026-04-03T15:17:02Z</time></trkpt><trkpt lat="38.831297179889376" lon="-9.322192196456601"><ele>150.33333333333334</ele><time>2026-04-03T15:17:03Z</time></trkpt><trkpt lat="38.83114280182485" lon="-9.322160643153877"><ele>150.66666666666669</ele><time>2026-04-03T15:17:04Z</time></trkpt><trkpt lat="38.83096373563706" lon="-9.322134255674264"><ele>151.0</ele><time>2026-04-03T15:17:05Z</time></trkpt><trkpt lat="38.83077441558" lon="-9.322108283206024"><ele>154.0</ele><time>2026-04-03T15:17:06Z</time></trkpt><trkpt lat="38.83058719888097" lon="-9.322091794462027"><ele>157.0</ele><time>2026-04-03T15:17:07Z</time></trkpt><trkpt lat="38.830422381127164" lon="-9.322118008272074"><ele>160.0</ele><time>2026-04-03T15:17:08Z</time></trkpt><trkpt lat="38.83027205917491" lon="-9.322177970156515"><ele>158.33333333333334</ele><time>2026-04-03T15:17:09Z</time></trkpt><trkpt lat="38.83010244713736" lon="-9.3222951651954"><ele>156.66666666666666</ele><time>2026-04-03T15:17:10Z</time></trkpt><trkpt lat="38.82991574926318" lon="-9.322415571886259"><ele>155.0</ele><time>2026-04-03T15:17:11Z</time></trkpt><trkpt lat="38.829712449890366" lon="-9.322536122504605"><ele>155.0</ele><time>2026-04-03T15:17:12Z</time></trkpt><trkpt lat="38.829513207623265" lon="-9.322660488712335"><ele>155.0</ele><time>2026-04-03T15:17:13Z</time></trkpt><trkpt lat="38.82932432932679" lon="-9.322788582794212"><ele>155.0</ele><time>2026-04-03T15:17:14Z</time></trkpt><trkpt lat="38.82912919133503" lon="-9.322920468325579"><ele>154.5</ele><time>2026-04-03T15:17:15Z</time></trkpt><trkpt lat="38.828945090465524" lon="-9.323085812713096"><ele>154.0</ele><time>2026-04-03T15:17:16Z</time></trkpt><trkpt lat="38.82874358762788" lon="-9.323246588169637"><ele>154.0</ele><time>2026-04-03T15:17:17Z</time></trkpt><trkpt lat="38.82854137547168" lon="-9.32340406680127"><ele>154.0</ele><time>2026-04-03T15:17:18Z</time></trkpt><trkpt lat="38.828340369581355" lon="-9.32357696396344"><ele>154.0</ele><time>2026-04-03T15:17:19Z</time></trkpt><trkpt lat="38.82813605473497" lon="-9.323741325693783"><ele>154.0</ele><time>2026-04-03T15:17:20Z</time></trkpt><trkpt lat="38.82793650010002" lon="-9.3239049422209"><ele>154.0</ele><time>2026-04-03T15:17:21Z</time></trkpt><trkpt lat="38.827740435533684" lon="-9.324056695083614"><ele>154.0</ele><time>2026-04-03T15:17:22Z</time></trkpt><trkpt lat="38.827534501923544" lon="-9.324206496505358"><ele>160.5</ele><time>2026-04-03T15:17:23Z</time></trkpt><trkpt lat="38.82732760192043" lon="-9.324339075145941"><ele>167.0</ele><time>2026-04-03T15:17:24Z</time></trkpt><trkpt lat="38.827110926819714" lon="-9.324477361362455"><ele>167.0</ele><time>2026-04-03T15:17:25Z</time></trkpt><trkpt lat="38.826898008191705" lon="-9.324627370308761"><ele>167.0</ele><time>2026-04-03T15:17:26Z</time></trkpt><trkpt lat="38.82670471980698" lon="-9.324753307889276"><ele>166.25</ele><time>2026-04-03T15:17:27Z</time></trkpt><trkpt lat="38.82662421852141" lon="-9.324806403577941"><ele>165.5</ele><time>2026-04-03T15:17:28Z</time></trkpt><trkpt lat="38.82647464004989" lon="-9.324878972862173"><ele>164.75</ele><time>2026-04-03T15:17:29Z</time></trkpt><trkpt lat="38.826360383497736" lon="-9.32491924017687"><ele>164.0</ele><time>2026-04-03T15:17:30Z</time></trkpt><trkpt lat="38.82621311776632" lon="-9.324919014853018"><ele>164.0</ele><time>2026-04-03T15:17:31Z</time></trkpt><trkpt lat="38.82607836751172" lon="-9.3248816535786"><ele>164.0</ele><time>2026-04-03T15:17:32Z</time></trkpt><trkpt lat="38.82594188132321" lon="-9.324837487492823"><ele>164.0</ele><time>2026-04-03T15:17:33Z</time></trkpt><trkpt lat="38.82581854653942" lon="-9.324821070010495"><ele>164.0</ele><time>2026-04-03T15:17:34Z</time></trkpt><trkpt lat="38.82571636905426" lon="-9.324790888929023"><ele>164.0</ele><time>2026-04-03T15:17:35Z</time></trkpt><trkpt lat="38.82565457167429" lon="-9.324751442405542"><ele>164.0</ele><time>2026-04-03T15:17:36Z</time></trkpt><trkpt lat="38.825589176188984" lon="-9.324695841510723"><ele>164.0</ele><time>2026-04-03T15:17:37Z</time></trkpt><trkpt lat="38.8255835191707" lon="-9.324802668878888"><ele>164.0</ele><time>2026-04-03T15:17:39Z</time></trkpt><trkpt lat="38.82555577526805" lon="-9.324947883494332"><ele>164.0</ele><time>2026-04-03T15:17:40Z</time></trkpt><trkpt lat="38.82551179182541" lon="-9.325072992953618"><ele>163.33333333333331</ele><time>2026-04-03T15:17:41Z</time></trkpt><trkpt lat="38.82543420208562" lon="-9.325133533059434"><ele>162.66666666666666</ele><time>2026-04-03T15:17:43Z</time></trkpt><trkpt lat="38.82532209248645" lon="-9.32549691839154"><ele>162.0</ele><time>2026-04-03T15:17:45Z</time></trkpt><trkpt lat="38.82548651716295" lon="-9.32505940138924"><ele>162.0</ele><time>2026-04-03T15:17:47Z</time></trkpt><trkpt lat="38.825429101009384" lon="-9.324962422555886"><ele>162.0</ele><time>2026-04-03T15:18:30.001Z</time></trkpt></trkseg></trk></gpx>